<?xml version="1.0" encoding="UTF-8" standalone="no" ?>
<gpx xmlns="http://www.topografix.com/GPX/1/1" xmlns:xsi="http://www.w3.org/2001/XMLSchema-instance" xsi:schemaLocation="http://www.topografix.com/GPX/1/1 http://www.topografix.com/GPX/1/1/gpx.xsd" version="1.1" creator="VisuGPX - https://www.visugpx.com">
  <metadata>
    <name>Barèges solo Lac de Madamette</name>
    <desc><![CDATA[rien de particulier techniquement. Attention pas de réseau dans cette vallée...en cette période c'est 90% portage et en descente 1% glisse 1% sur les battons le reste en portage...
Bref j'aurai pu écrire randonnée...
Entre le point A et B il faut prendre plus bas! Corniche et passageS difficiles qui n'apportent rien! Il y a possibilité de couper entre C et A au retour, J'ai vu des traces de descente (que je n'ai pas osé prendre car trop tard pour prendre piste non connue...) 
Strava donne 1003mde D+ et 17.2Km...]]></desc>
  </metadata>
  <wpt lat="42.88102" lon="0.12678">
    <ele>1949.1</ele>
    <name><![CDATA[A]]></name>
  </wpt>
  <wpt lat="42.8695" lon="0.13965">
    <ele>2323</ele>
    <name><![CDATA[C]]></name>
  </wpt>
  <wpt lat="42.88025" lon="0.13401">
    <ele>2005</ele>
    <name><![CDATA[B]]></name>
  </wpt>
  <trk>
    <name><![CDATA[Barèges solo Lac de Madamette]]></name>
    <trkseg>
      <trkpt lat="42.901" lon="0.104">
        <ele>1483.6</ele>
        <time>2021-03-25T10:20:06Z</time>
      </trkpt>
      <trkpt lat="42.901" lon="0.104">
        <ele>1483.6</ele>
        <time>2021-03-25T10:20:07Z</time>
      </trkpt>
      <trkpt lat="42.901" lon="0.10401">
        <ele>1483.7</ele>
        <time>2021-03-25T10:20:08Z</time>
      </trkpt>
      <trkpt lat="42.901" lon="0.104">
        <ele>1483.7</ele>
        <time>2021-03-25T10:20:09Z</time>
      </trkpt>
      <trkpt lat="42.90099" lon="0.10399">
        <ele>1483.8</ele>
        <time>2021-03-25T10:20:11Z</time>
      </trkpt>
      <trkpt lat="42.90098" lon="0.104">
        <ele>1483.9</ele>
        <time>2021-03-25T10:20:12Z</time>
      </trkpt>
      <trkpt lat="42.90098" lon="0.104">
        <ele>1484</ele>
        <time>2021-03-25T10:20:13Z</time>
      </trkpt>
      <trkpt lat="42.90098" lon="0.10401">
        <ele>1484</ele>
        <time>2021-03-25T10:20:15Z</time>
      </trkpt>
      <trkpt lat="42.90097" lon="0.10402">
        <ele>1484.1</ele>
        <time>2021-03-25T10:20:16Z</time>
      </trkpt>
      <trkpt lat="42.90097" lon="0.10398">
        <ele>1484.3</ele>
        <time>2021-03-25T10:20:17Z</time>
      </trkpt>
      <trkpt lat="42.90095" lon="0.10398">
        <ele>1484.6</ele>
        <time>2021-03-25T10:20:19Z</time>
      </trkpt>
      <trkpt lat="42.90091" lon="0.10394">
        <ele>1485.1</ele>
        <time>2021-03-25T10:20:21Z</time>
      </trkpt>
      <trkpt lat="42.9009" lon="0.10391">
        <ele>1485.4</ele>
        <time>2021-03-25T10:20:22Z</time>
      </trkpt>
      <trkpt lat="42.90087" lon="0.10389">
        <ele>1485.7</ele>
        <time>2021-03-25T10:20:24Z</time>
      </trkpt>
      <trkpt lat="42.90086" lon="0.10389">
        <ele>1485.8</ele>
        <time>2021-03-25T10:20:25Z</time>
      </trkpt>
      <trkpt lat="42.90083" lon="0.1039">
        <ele>1486.2</ele>
        <time>2021-03-25T10:20:26Z</time>
      </trkpt>
      <trkpt lat="42.90082" lon="0.10391">
        <ele>1486.3</ele>
        <time>2021-03-25T10:20:28Z</time>
      </trkpt>
      <trkpt lat="42.90082" lon="0.10392">
        <ele>1486.4</ele>
        <time>2021-03-25T10:20:29Z</time>
      </trkpt>
      <trkpt lat="42.90081" lon="0.10392">
        <ele>1486.5</ele>
        <time>2021-03-25T10:20:31Z</time>
      </trkpt>
      <trkpt lat="42.9008" lon="0.10393">
        <ele>1486.7</ele>
        <time>2021-03-25T10:20:32Z</time>
      </trkpt>
      <trkpt lat="42.90079" lon="0.10393">
        <ele>1486.8</ele>
        <time>2021-03-25T10:20:33Z</time>
      </trkpt>
      <trkpt lat="42.90077" lon="0.10394">
        <ele>1487</ele>
        <time>2021-03-25T10:20:34Z</time>
      </trkpt>
      <trkpt lat="42.90076" lon="0.10394">
        <ele>1487.1</ele>
        <time>2021-03-25T10:20:35Z</time>
      </trkpt>
      <trkpt lat="42.90076" lon="0.10394">
        <ele>1487.2</ele>
        <time>2021-03-25T10:20:36Z</time>
      </trkpt>
      <trkpt lat="42.90074" lon="0.10394">
        <ele>1487.4</ele>
        <time>2021-03-25T10:20:38Z</time>
      </trkpt>
      <trkpt lat="42.90073" lon="0.10394">
        <ele>1487.5</ele>
        <time>2021-03-25T10:20:39Z</time>
      </trkpt>
      <trkpt lat="42.90072" lon="0.10395">
        <ele>1487.6</ele>
        <time>2021-03-25T10:20:40Z</time>
      </trkpt>
      <trkpt lat="42.90071" lon="0.10395">
        <ele>1487.7</ele>
        <time>2021-03-25T10:20:41Z</time>
      </trkpt>
      <trkpt lat="42.9007" lon="0.10397">
        <ele>1488</ele>
        <time>2021-03-25T10:20:43Z</time>
      </trkpt>
      <trkpt lat="42.90069" lon="0.10398">
        <ele>1488.2</ele>
        <time>2021-03-25T10:20:44Z</time>
      </trkpt>
      <trkpt lat="42.90068" lon="0.10399">
        <ele>1488.3</ele>
        <time>2021-03-25T10:20:45Z</time>
      </trkpt>
      <trkpt lat="42.90067" lon="0.104">
        <ele>1488.4</ele>
        <time>2021-03-25T10:20:46Z</time>
      </trkpt>
      <trkpt lat="42.90066" lon="0.104">
        <ele>1488.6</ele>
        <time>2021-03-25T10:20:47Z</time>
      </trkpt>
      <trkpt lat="42.90065" lon="0.104">
        <ele>1488.7</ele>
        <time>2021-03-25T10:20:48Z</time>
      </trkpt>
      <trkpt lat="42.90063" lon="0.10401">
        <ele>1488.9</ele>
        <time>2021-03-25T10:20:50Z</time>
      </trkpt>
      <trkpt lat="42.90062" lon="0.10401">
        <ele>1489.1</ele>
        <time>2021-03-25T10:20:51Z</time>
      </trkpt>
      <trkpt lat="42.9006" lon="0.10401">
        <ele>1489.3</ele>
        <time>2021-03-25T10:20:52Z</time>
      </trkpt>
      <trkpt lat="42.90059" lon="0.10401">
        <ele>1489.5</ele>
        <time>2021-03-25T10:20:54Z</time>
      </trkpt>
      <trkpt lat="42.90057" lon="0.10401">
        <ele>1489.7</ele>
        <time>2021-03-25T10:20:55Z</time>
      </trkpt>
      <trkpt lat="42.90056" lon="0.10399">
        <ele>1489.9</ele>
        <time>2021-03-25T10:20:56Z</time>
      </trkpt>
      <trkpt lat="42.90055" lon="0.10398">
        <ele>1490.1</ele>
        <time>2021-03-25T10:20:58Z</time>
      </trkpt>
      <trkpt lat="42.90053" lon="0.10399">
        <ele>1490.3</ele>
        <time>2021-03-25T10:20:59Z</time>
      </trkpt>
      <trkpt lat="42.90052" lon="0.104">
        <ele>1490.5</ele>
        <time>2021-03-25T10:21:01Z</time>
      </trkpt>
      <trkpt lat="42.9005" lon="0.10401">
        <ele>1490.7</ele>
        <time>2021-03-25T10:21:03Z</time>
      </trkpt>
      <trkpt lat="42.90049" lon="0.10402">
        <ele>1490.9</ele>
        <time>2021-03-25T10:21:04Z</time>
      </trkpt>
      <trkpt lat="42.90047" lon="0.10403">
        <ele>1491.1</ele>
        <time>2021-03-25T10:21:06Z</time>
      </trkpt>
      <trkpt lat="42.90046" lon="0.10404">
        <ele>1491.3</ele>
        <time>2021-03-25T10:21:07Z</time>
      </trkpt>
      <trkpt lat="42.90044" lon="0.10406">
        <ele>1491.5</ele>
        <time>2021-03-25T10:21:08Z</time>
      </trkpt>
      <trkpt lat="42.90044" lon="0.10406">
        <ele>1491.6</ele>
        <time>2021-03-25T10:21:09Z</time>
      </trkpt>
      <trkpt lat="42.90044" lon="0.10407">
        <ele>1491.6</ele>
        <time>2021-03-25T10:21:11Z</time>
      </trkpt>
      <trkpt lat="42.90043" lon="0.10408">
        <ele>1491.7</ele>
        <time>2021-03-25T10:21:12Z</time>
      </trkpt>
      <trkpt lat="42.90041" lon="0.10407">
        <ele>1492</ele>
        <time>2021-03-25T10:21:14Z</time>
      </trkpt>
      <trkpt lat="42.90039" lon="0.10406">
        <ele>1492.2</ele>
        <time>2021-03-25T10:21:15Z</time>
      </trkpt>
      <trkpt lat="42.90038" lon="0.10405">
        <ele>1492.4</ele>
        <time>2021-03-25T10:21:16Z</time>
      </trkpt>
      <trkpt lat="42.90036" lon="0.10404">
        <ele>1492.6</ele>
        <time>2021-03-25T10:21:18Z</time>
      </trkpt>
      <trkpt lat="42.90034" lon="0.10404">
        <ele>1492.7</ele>
        <time>2021-03-25T10:21:19Z</time>
      </trkpt>
      <trkpt lat="42.90033" lon="0.10405">
        <ele>1492.8</ele>
        <time>2021-03-25T10:21:20Z</time>
      </trkpt>
      <trkpt lat="42.90032" lon="0.10406">
        <ele>1493</ele>
        <time>2021-03-25T10:21:21Z</time>
      </trkpt>
      <trkpt lat="42.9003" lon="0.10407">
        <ele>1493.1</ele>
        <time>2021-03-25T10:21:23Z</time>
      </trkpt>
      <trkpt lat="42.90029" lon="0.10408">
        <ele>1493.2</ele>
        <time>2021-03-25T10:21:24Z</time>
      </trkpt>
      <trkpt lat="42.90028" lon="0.10408">
        <ele>1493.3</ele>
        <time>2021-03-25T10:21:25Z</time>
      </trkpt>
      <trkpt lat="42.90027" lon="0.10408">
        <ele>1493.4</ele>
        <time>2021-03-25T10:21:26Z</time>
      </trkpt>
      <trkpt lat="42.90025" lon="0.10407">
        <ele>1493.6</ele>
        <time>2021-03-25T10:21:28Z</time>
      </trkpt>
      <trkpt lat="42.90023" lon="0.10406">
        <ele>1493.7</ele>
        <time>2021-03-25T10:21:29Z</time>
      </trkpt>
      <trkpt lat="42.90023" lon="0.10406">
        <ele>1493.8</ele>
        <time>2021-03-25T10:21:30Z</time>
      </trkpt>
      <trkpt lat="42.90022" lon="0.10407">
        <ele>1493.9</ele>
        <time>2021-03-25T10:21:31Z</time>
      </trkpt>
      <trkpt lat="42.90021" lon="0.10408">
        <ele>1493.9</ele>
        <time>2021-03-25T10:21:33Z</time>
      </trkpt>
      <trkpt lat="42.90019" lon="0.10409">
        <ele>1494.1</ele>
        <time>2021-03-25T10:21:34Z</time>
      </trkpt>
      <trkpt lat="42.90017" lon="0.1041">
        <ele>1494.2</ele>
        <time>2021-03-25T10:21:35Z</time>
      </trkpt>
      <trkpt lat="42.90017" lon="0.1041">
        <ele>1494.3</ele>
        <time>2021-03-25T10:21:37Z</time>
      </trkpt>
      <trkpt lat="42.90016" lon="0.1041">
        <ele>1494.3</ele>
        <time>2021-03-25T10:21:38Z</time>
      </trkpt>
      <trkpt lat="42.90014" lon="0.1041">
        <ele>1494.4</ele>
        <time>2021-03-25T10:21:40Z</time>
      </trkpt>
      <trkpt lat="42.90013" lon="0.1041">
        <ele>1494.5</ele>
        <time>2021-03-25T10:21:42Z</time>
      </trkpt>
      <trkpt lat="42.90011" lon="0.10409">
        <ele>1494.6</ele>
        <time>2021-03-25T10:21:43Z</time>
      </trkpt>
      <trkpt lat="42.90011" lon="0.10409">
        <ele>1494.6</ele>
        <time>2021-03-25T10:21:44Z</time>
      </trkpt>
      <trkpt lat="42.9001" lon="0.10409">
        <ele>1494.7</ele>
        <time>2021-03-25T10:21:45Z</time>
      </trkpt>
      <trkpt lat="42.90008" lon="0.10409">
        <ele>1494.8</ele>
        <time>2021-03-25T10:21:47Z</time>
      </trkpt>
      <trkpt lat="42.90008" lon="0.10409">
        <ele>1494.8</ele>
        <time>2021-03-25T10:21:48Z</time>
      </trkpt>
      <trkpt lat="42.90008" lon="0.10409">
        <ele>1494.8</ele>
        <time>2021-03-25T10:21:50Z</time>
      </trkpt>
      <trkpt lat="42.90008" lon="0.10409">
        <ele>1494.8</ele>
        <time>2021-03-25T10:21:52Z</time>
      </trkpt>
      <trkpt lat="42.90008" lon="0.10409">
        <ele>1494.8</ele>
        <time>2021-03-25T10:21:53Z</time>
      </trkpt>
      <trkpt lat="42.90008" lon="0.1041">
        <ele>1494.8</ele>
        <time>2021-03-25T10:21:55Z</time>
      </trkpt>
      <trkpt lat="42.90008" lon="0.1041">
        <ele>1494.8</ele>
        <time>2021-03-25T10:21:56Z</time>
      </trkpt>
      <trkpt lat="42.90008" lon="0.1041">
        <ele>1494.8</ele>
        <time>2021-03-25T10:21:58Z</time>
      </trkpt>
      <trkpt lat="42.90008" lon="0.1041">
        <ele>1494.8</ele>
        <time>2021-03-25T10:21:59Z</time>
      </trkpt>
      <trkpt lat="42.90008" lon="0.1041">
        <ele>1494.8</ele>
        <time>2021-03-25T10:22:00Z</time>
      </trkpt>
      <trkpt lat="42.90007" lon="0.1041">
        <ele>1494.8</ele>
        <time>2021-03-25T10:22:02Z</time>
      </trkpt>
      <trkpt lat="42.90007" lon="0.1041">
        <ele>1494.8</ele>
        <time>2021-03-25T10:22:04Z</time>
      </trkpt>
      <trkpt lat="42.90007" lon="0.1041">
        <ele>1494.9</ele>
        <time>2021-03-25T10:22:05Z</time>
      </trkpt>
      <trkpt lat="42.90007" lon="0.1041">
        <ele>1494.9</ele>
        <time>2021-03-25T10:22:07Z</time>
      </trkpt>
      <trkpt lat="42.90007" lon="0.10411">
        <ele>1494.9</ele>
        <time>2021-03-25T10:22:09Z</time>
      </trkpt>
      <trkpt lat="42.90007" lon="0.10411">
        <ele>1494.9</ele>
        <time>2021-03-25T10:22:10Z</time>
      </trkpt>
      <trkpt lat="42.90007" lon="0.10411">
        <ele>1494.9</ele>
        <time>2021-03-25T10:22:11Z</time>
      </trkpt>
      <trkpt lat="42.90007" lon="0.10411">
        <ele>1494.9</ele>
        <time>2021-03-25T10:22:12Z</time>
      </trkpt>
      <trkpt lat="42.90007" lon="0.10411">
        <ele>1494.9</ele>
        <time>2021-03-25T10:22:14Z</time>
      </trkpt>
      <trkpt lat="42.90006" lon="0.10411">
        <ele>1494.9</ele>
        <time>2021-03-25T10:22:15Z</time>
      </trkpt>
      <trkpt lat="42.90003" lon="0.10411">
        <ele>1495.1</ele>
        <time>2021-03-25T10:22:16Z</time>
      </trkpt>
      <trkpt lat="42.90003" lon="0.10411">
        <ele>1495.1</ele>
        <time>2021-03-25T10:22:17Z</time>
      </trkpt>
      <trkpt lat="42.90001" lon="0.10411">
        <ele>1495.2</ele>
        <time>2021-03-25T10:22:18Z</time>
      </trkpt>
      <trkpt lat="42.9" lon="0.10411">
        <ele>1495.2</ele>
        <time>2021-03-25T10:22:19Z</time>
      </trkpt>
      <trkpt lat="42.89998" lon="0.10411">
        <ele>1495.3</ele>
        <time>2021-03-25T10:22:21Z</time>
      </trkpt>
      <trkpt lat="42.89997" lon="0.10411">
        <ele>1495.4</ele>
        <time>2021-03-25T10:22:22Z</time>
      </trkpt>
      <trkpt lat="42.89995" lon="0.10411">
        <ele>1495.5</ele>
        <time>2021-03-25T10:22:23Z</time>
      </trkpt>
      <trkpt lat="42.89994" lon="0.10411">
        <ele>1495.6</ele>
        <time>2021-03-25T10:22:24Z</time>
      </trkpt>
      <trkpt lat="42.89992" lon="0.10411">
        <ele>1495.7</ele>
        <time>2021-03-25T10:22:25Z</time>
      </trkpt>
      <trkpt lat="42.89991" lon="0.10411">
        <ele>1495.7</ele>
        <time>2021-03-25T10:22:26Z</time>
      </trkpt>
      <trkpt lat="42.89989" lon="0.10411">
        <ele>1495.8</ele>
        <time>2021-03-25T10:22:27Z</time>
      </trkpt>
      <trkpt lat="42.89988" lon="0.10412">
        <ele>1495.9</ele>
        <time>2021-03-25T10:22:29Z</time>
      </trkpt>
      <trkpt lat="42.89986" lon="0.10412">
        <ele>1495.9</ele>
        <time>2021-03-25T10:22:30Z</time>
      </trkpt>
      <trkpt lat="42.89985" lon="0.10413">
        <ele>1496</ele>
        <time>2021-03-25T10:22:31Z</time>
      </trkpt>
      <trkpt lat="42.89983" lon="0.10413">
        <ele>1496.1</ele>
        <time>2021-03-25T10:22:32Z</time>
      </trkpt>
      <trkpt lat="42.89982" lon="0.10413">
        <ele>1496.1</ele>
        <time>2021-03-25T10:22:33Z</time>
      </trkpt>
      <trkpt lat="42.8998" lon="0.10412">
        <ele>1496.2</ele>
        <time>2021-03-25T10:22:34Z</time>
      </trkpt>
      <trkpt lat="42.89979" lon="0.10412">
        <ele>1496.3</ele>
        <time>2021-03-25T10:22:35Z</time>
      </trkpt>
      <trkpt lat="42.89977" lon="0.10412">
        <ele>1496.4</ele>
        <time>2021-03-25T10:22:36Z</time>
      </trkpt>
      <trkpt lat="42.89976" lon="0.10413">
        <ele>1496.4</ele>
        <time>2021-03-25T10:22:38Z</time>
      </trkpt>
      <trkpt lat="42.89974" lon="0.10414">
        <ele>1496.5</ele>
        <time>2021-03-25T10:22:39Z</time>
      </trkpt>
      <trkpt lat="42.89973" lon="0.10415">
        <ele>1496.6</ele>
        <time>2021-03-25T10:22:40Z</time>
      </trkpt>
      <trkpt lat="42.89972" lon="0.10417">
        <ele>1496.7</ele>
        <time>2021-03-25T10:22:42Z</time>
      </trkpt>
      <trkpt lat="42.89971" lon="0.10418">
        <ele>1496.7</ele>
        <time>2021-03-25T10:22:43Z</time>
      </trkpt>
      <trkpt lat="42.8997" lon="0.1042">
        <ele>1496.8</ele>
        <time>2021-03-25T10:22:44Z</time>
      </trkpt>
      <trkpt lat="42.89968" lon="0.10421">
        <ele>1496.9</ele>
        <time>2021-03-25T10:22:45Z</time>
      </trkpt>
      <trkpt lat="42.89967" lon="0.10422">
        <ele>1497</ele>
        <time>2021-03-25T10:22:46Z</time>
      </trkpt>
      <trkpt lat="42.89966" lon="0.10423">
        <ele>1497</ele>
        <time>2021-03-25T10:22:47Z</time>
      </trkpt>
      <trkpt lat="42.89965" lon="0.10424">
        <ele>1497.1</ele>
        <time>2021-03-25T10:22:48Z</time>
      </trkpt>
      <trkpt lat="42.89964" lon="0.10425">
        <ele>1497.1</ele>
        <time>2021-03-25T10:22:50Z</time>
      </trkpt>
      <trkpt lat="42.89962" lon="0.10425">
        <ele>1497.2</ele>
        <time>2021-03-25T10:22:51Z</time>
      </trkpt>
      <trkpt lat="42.89961" lon="0.10426">
        <ele>1497.3</ele>
        <time>2021-03-25T10:22:52Z</time>
      </trkpt>
      <trkpt lat="42.8996" lon="0.10426">
        <ele>1497.4</ele>
        <time>2021-03-25T10:22:53Z</time>
      </trkpt>
      <trkpt lat="42.89958" lon="0.10427">
        <ele>1497.4</ele>
        <time>2021-03-25T10:22:54Z</time>
      </trkpt>
      <trkpt lat="42.89957" lon="0.10426">
        <ele>1497.5</ele>
        <time>2021-03-25T10:22:55Z</time>
      </trkpt>
      <trkpt lat="42.89955" lon="0.10426">
        <ele>1497.6</ele>
        <time>2021-03-25T10:22:57Z</time>
      </trkpt>
      <trkpt lat="42.89954" lon="0.10426">
        <ele>1497.7</ele>
        <time>2021-03-25T10:22:58Z</time>
      </trkpt>
      <trkpt lat="42.89952" lon="0.10427">
        <ele>1497.7</ele>
        <time>2021-03-25T10:22:59Z</time>
      </trkpt>
      <trkpt lat="42.89951" lon="0.10427">
        <ele>1497.8</ele>
        <time>2021-03-25T10:23:00Z</time>
      </trkpt>
      <trkpt lat="42.89949" lon="0.10427">
        <ele>1497.9</ele>
        <time>2021-03-25T10:23:01Z</time>
      </trkpt>
      <trkpt lat="42.89947" lon="0.10427">
        <ele>1498</ele>
        <time>2021-03-25T10:23:02Z</time>
      </trkpt>
      <trkpt lat="42.89946" lon="0.10427">
        <ele>1498.1</ele>
        <time>2021-03-25T10:23:04Z</time>
      </trkpt>
      <trkpt lat="42.89945" lon="0.10427">
        <ele>1498.1</ele>
        <time>2021-03-25T10:23:05Z</time>
      </trkpt>
      <trkpt lat="42.89944" lon="0.10427">
        <ele>1498.2</ele>
        <time>2021-03-25T10:23:06Z</time>
      </trkpt>
      <trkpt lat="42.89943" lon="0.10428">
        <ele>1498.3</ele>
        <time>2021-03-25T10:23:07Z</time>
      </trkpt>
      <trkpt lat="42.89942" lon="0.10428">
        <ele>1498.3</ele>
        <time>2021-03-25T10:23:08Z</time>
      </trkpt>
      <trkpt lat="42.89941" lon="0.10428">
        <ele>1498.4</ele>
        <time>2021-03-25T10:23:09Z</time>
      </trkpt>
      <trkpt lat="42.8994" lon="0.10428">
        <ele>1498.5</ele>
        <time>2021-03-25T10:23:10Z</time>
      </trkpt>
      <trkpt lat="42.89939" lon="0.10429">
        <ele>1498.6</ele>
        <time>2021-03-25T10:23:11Z</time>
      </trkpt>
      <trkpt lat="42.89937" lon="0.10429">
        <ele>1498.7</ele>
        <time>2021-03-25T10:23:13Z</time>
      </trkpt>
      <trkpt lat="42.89936" lon="0.10429">
        <ele>1498.8</ele>
        <time>2021-03-25T10:23:14Z</time>
      </trkpt>
      <trkpt lat="42.89935" lon="0.10429">
        <ele>1498.9</ele>
        <time>2021-03-25T10:23:15Z</time>
      </trkpt>
      <trkpt lat="42.89933" lon="0.1043">
        <ele>1499</ele>
        <time>2021-03-25T10:23:16Z</time>
      </trkpt>
      <trkpt lat="42.89932" lon="0.1043">
        <ele>1499.1</ele>
        <time>2021-03-25T10:23:17Z</time>
      </trkpt>
      <trkpt lat="42.89931" lon="0.1043">
        <ele>1499.2</ele>
        <time>2021-03-25T10:23:18Z</time>
      </trkpt>
      <trkpt lat="42.89929" lon="0.10431">
        <ele>1499.3</ele>
        <time>2021-03-25T10:23:19Z</time>
      </trkpt>
      <trkpt lat="42.89928" lon="0.10431">
        <ele>1499.4</ele>
        <time>2021-03-25T10:23:21Z</time>
      </trkpt>
      <trkpt lat="42.89927" lon="0.10431">
        <ele>1499.4</ele>
        <time>2021-03-25T10:23:22Z</time>
      </trkpt>
      <trkpt lat="42.89925" lon="0.10432">
        <ele>1499.4</ele>
        <time>2021-03-25T10:23:23Z</time>
      </trkpt>
      <trkpt lat="42.89924" lon="0.10432">
        <ele>1499.4</ele>
        <time>2021-03-25T10:23:24Z</time>
      </trkpt>
      <trkpt lat="42.89923" lon="0.10432">
        <ele>1499.4</ele>
        <time>2021-03-25T10:23:25Z</time>
      </trkpt>
      <trkpt lat="42.89922" lon="0.10432">
        <ele>1499.5</ele>
        <time>2021-03-25T10:23:26Z</time>
      </trkpt>
      <trkpt lat="42.89921" lon="0.10432">
        <ele>1499.5</ele>
        <time>2021-03-25T10:23:27Z</time>
      </trkpt>
      <trkpt lat="42.89919" lon="0.10433">
        <ele>1499.5</ele>
        <time>2021-03-25T10:23:29Z</time>
      </trkpt>
      <trkpt lat="42.89918" lon="0.10433">
        <ele>1499.5</ele>
        <time>2021-03-25T10:23:30Z</time>
      </trkpt>
      <trkpt lat="42.89917" lon="0.10432">
        <ele>1499.6</ele>
        <time>2021-03-25T10:23:31Z</time>
      </trkpt>
      <trkpt lat="42.89916" lon="0.10432">
        <ele>1499.6</ele>
        <time>2021-03-25T10:23:32Z</time>
      </trkpt>
      <trkpt lat="42.89915" lon="0.10431">
        <ele>1499.7</ele>
        <time>2021-03-25T10:23:33Z</time>
      </trkpt>
      <trkpt lat="42.89915" lon="0.10431">
        <ele>1499.7</ele>
        <time>2021-03-25T10:23:34Z</time>
      </trkpt>
      <trkpt lat="42.89915" lon="0.10431">
        <ele>1499.8</ele>
        <time>2021-03-25T10:23:36Z</time>
      </trkpt>
      <trkpt lat="42.89915" lon="0.10431">
        <ele>1499.8</ele>
        <time>2021-03-25T10:23:37Z</time>
      </trkpt>
      <trkpt lat="42.89915" lon="0.10431">
        <ele>1499.8</ele>
        <time>2021-03-25T10:23:38Z</time>
      </trkpt>
      <trkpt lat="42.89915" lon="0.10431">
        <ele>1499.8</ele>
        <time>2021-03-25T10:23:40Z</time>
      </trkpt>
      <trkpt lat="42.89915" lon="0.10431">
        <ele>1499.8</ele>
        <time>2021-03-25T10:23:41Z</time>
      </trkpt>
      <trkpt lat="42.89915" lon="0.10431">
        <ele>1499.8</ele>
        <time>2021-03-25T10:23:42Z</time>
      </trkpt>
      <trkpt lat="42.89915" lon="0.10431">
        <ele>1499.8</ele>
        <time>2021-03-25T10:23:43Z</time>
      </trkpt>
      <trkpt lat="42.89915" lon="0.10431">
        <ele>1499.9</ele>
        <time>2021-03-25T10:23:45Z</time>
      </trkpt>
      <trkpt lat="42.89915" lon="0.10431">
        <ele>1499.9</ele>
        <time>2021-03-25T10:23:46Z</time>
      </trkpt>
      <trkpt lat="42.89915" lon="0.10432">
        <ele>1499.9</ele>
        <time>2021-03-25T10:23:48Z</time>
      </trkpt>
      <trkpt lat="42.89915" lon="0.10432">
        <ele>1499.9</ele>
        <time>2021-03-25T10:23:50Z</time>
      </trkpt>
      <trkpt lat="42.89915" lon="0.10432">
        <ele>1499.9</ele>
        <time>2021-03-25T10:23:51Z</time>
      </trkpt>
      <trkpt lat="42.89915" lon="0.10432">
        <ele>1499.9</ele>
        <time>2021-03-25T10:23:52Z</time>
      </trkpt>
      <trkpt lat="42.89915" lon="0.10432">
        <ele>1499.9</ele>
        <time>2021-03-25T10:23:53Z</time>
      </trkpt>
      <trkpt lat="42.89915" lon="0.10432">
        <ele>1499.9</ele>
        <time>2021-03-25T10:23:55Z</time>
      </trkpt>
      <trkpt lat="42.89915" lon="0.10431">
        <ele>1500</ele>
        <time>2021-03-25T10:23:57Z</time>
      </trkpt>
      <trkpt lat="42.89915" lon="0.10431">
        <ele>1500</ele>
        <time>2021-03-25T10:23:58Z</time>
      </trkpt>
      <trkpt lat="42.89915" lon="0.10431">
        <ele>1500</ele>
        <time>2021-03-25T10:24:00Z</time>
      </trkpt>
      <trkpt lat="42.89916" lon="0.10431">
        <ele>1500</ele>
        <time>2021-03-25T10:24:02Z</time>
      </trkpt>
      <trkpt lat="42.89916" lon="0.10431">
        <ele>1500</ele>
        <time>2021-03-25T10:24:03Z</time>
      </trkpt>
      <trkpt lat="42.89914" lon="0.10431">
        <ele>1500.1</ele>
        <time>2021-03-25T10:24:05Z</time>
      </trkpt>
      <trkpt lat="42.89913" lon="0.10431">
        <ele>1500.2</ele>
        <time>2021-03-25T10:24:06Z</time>
      </trkpt>
      <trkpt lat="42.89912" lon="0.1043">
        <ele>1500.4</ele>
        <time>2021-03-25T10:24:08Z</time>
      </trkpt>
      <trkpt lat="42.8991" lon="0.1043">
        <ele>1500.5</ele>
        <time>2021-03-25T10:24:09Z</time>
      </trkpt>
      <trkpt lat="42.89909" lon="0.1043">
        <ele>1500.7</ele>
        <time>2021-03-25T10:24:10Z</time>
      </trkpt>
      <trkpt lat="42.89907" lon="0.10429">
        <ele>1500.8</ele>
        <time>2021-03-25T10:24:12Z</time>
      </trkpt>
      <trkpt lat="42.89905" lon="0.10428">
        <ele>1501</ele>
        <time>2021-03-25T10:24:13Z</time>
      </trkpt>
      <trkpt lat="42.89903" lon="0.10429">
        <ele>1501.2</ele>
        <time>2021-03-25T10:24:15Z</time>
      </trkpt>
      <trkpt lat="42.89902" lon="0.10429">
        <ele>1501.3</ele>
        <time>2021-03-25T10:24:16Z</time>
      </trkpt>
      <trkpt lat="42.89901" lon="0.10429">
        <ele>1501.5</ele>
        <time>2021-03-25T10:24:17Z</time>
      </trkpt>
      <trkpt lat="42.899" lon="0.1043">
        <ele>1501.6</ele>
        <time>2021-03-25T10:24:19Z</time>
      </trkpt>
      <trkpt lat="42.89899" lon="0.10431">
        <ele>1501.7</ele>
        <time>2021-03-25T10:24:20Z</time>
      </trkpt>
      <trkpt lat="42.89898" lon="0.10433">
        <ele>1501.9</ele>
        <time>2021-03-25T10:24:21Z</time>
      </trkpt>
      <trkpt lat="42.89898" lon="0.10435">
        <ele>1502</ele>
        <time>2021-03-25T10:24:23Z</time>
      </trkpt>
      <trkpt lat="42.89898" lon="0.10436">
        <ele>1502.2</ele>
        <time>2021-03-25T10:24:24Z</time>
      </trkpt>
      <trkpt lat="42.89898" lon="0.10438">
        <ele>1502.3</ele>
        <time>2021-03-25T10:24:26Z</time>
      </trkpt>
      <trkpt lat="42.89896" lon="0.1044">
        <ele>1502.5</ele>
        <time>2021-03-25T10:24:27Z</time>
      </trkpt>
      <trkpt lat="42.89895" lon="0.1044">
        <ele>1502.7</ele>
        <time>2021-03-25T10:24:29Z</time>
      </trkpt>
      <trkpt lat="42.89894" lon="0.10441">
        <ele>1502.8</ele>
        <time>2021-03-25T10:24:30Z</time>
      </trkpt>
      <trkpt lat="42.89893" lon="0.10441">
        <ele>1503</ele>
        <time>2021-03-25T10:24:31Z</time>
      </trkpt>
      <trkpt lat="42.89892" lon="0.10441">
        <ele>1503.1</ele>
        <time>2021-03-25T10:24:32Z</time>
      </trkpt>
      <trkpt lat="42.89892" lon="0.10441">
        <ele>1503.1</ele>
        <time>2021-03-25T10:24:34Z</time>
      </trkpt>
      <trkpt lat="42.89892" lon="0.10441">
        <ele>1503.1</ele>
        <time>2021-03-25T10:24:35Z</time>
      </trkpt>
      <trkpt lat="42.89892" lon="0.10441">
        <ele>1503.2</ele>
        <time>2021-03-25T10:24:37Z</time>
      </trkpt>
      <trkpt lat="42.89891" lon="0.10441">
        <ele>1503.3</ele>
        <time>2021-03-25T10:24:39Z</time>
      </trkpt>
      <trkpt lat="42.89889" lon="0.10442">
        <ele>1503.5</ele>
        <time>2021-03-25T10:24:40Z</time>
      </trkpt>
      <trkpt lat="42.89887" lon="0.10442">
        <ele>1503.8</ele>
        <time>2021-03-25T10:24:42Z</time>
      </trkpt>
      <trkpt lat="42.89886" lon="0.10442">
        <ele>1504</ele>
        <time>2021-03-25T10:24:43Z</time>
      </trkpt>
      <trkpt lat="42.89885" lon="0.10443">
        <ele>1504.1</ele>
        <time>2021-03-25T10:24:44Z</time>
      </trkpt>
      <trkpt lat="42.89884" lon="0.10443">
        <ele>1504.3</ele>
        <time>2021-03-25T10:24:46Z</time>
      </trkpt>
      <trkpt lat="42.89882" lon="0.10443">
        <ele>1504.4</ele>
        <time>2021-03-25T10:24:47Z</time>
      </trkpt>
      <trkpt lat="42.8988" lon="0.10444">
        <ele>1504.7</ele>
        <time>2021-03-25T10:24:48Z</time>
      </trkpt>
      <trkpt lat="42.89879" lon="0.10444">
        <ele>1504.8</ele>
        <time>2021-03-25T10:24:49Z</time>
      </trkpt>
      <trkpt lat="42.89878" lon="0.10445">
        <ele>1505</ele>
        <time>2021-03-25T10:24:51Z</time>
      </trkpt>
      <trkpt lat="42.89877" lon="0.10446">
        <ele>1505.2</ele>
        <time>2021-03-25T10:24:52Z</time>
      </trkpt>
      <trkpt lat="42.89875" lon="0.10446">
        <ele>1505.5</ele>
        <time>2021-03-25T10:24:54Z</time>
      </trkpt>
      <trkpt lat="42.89874" lon="0.10446">
        <ele>1505.6</ele>
        <time>2021-03-25T10:24:55Z</time>
      </trkpt>
      <trkpt lat="42.89872" lon="0.10447">
        <ele>1505.8</ele>
        <time>2021-03-25T10:24:57Z</time>
      </trkpt>
      <trkpt lat="42.89871" lon="0.10448">
        <ele>1506</ele>
        <time>2021-03-25T10:24:58Z</time>
      </trkpt>
      <trkpt lat="42.8987" lon="0.10448">
        <ele>1506.1</ele>
        <time>2021-03-25T10:24:59Z</time>
      </trkpt>
      <trkpt lat="42.89869" lon="0.10448">
        <ele>1506.3</ele>
        <time>2021-03-25T10:25:01Z</time>
      </trkpt>
      <trkpt lat="42.89868" lon="0.10448">
        <ele>1506.5</ele>
        <time>2021-03-25T10:25:02Z</time>
      </trkpt>
      <trkpt lat="42.89867" lon="0.10447">
        <ele>1506.6</ele>
        <time>2021-03-25T10:25:04Z</time>
      </trkpt>
      <trkpt lat="42.89866" lon="0.10447">
        <ele>1506.8</ele>
        <time>2021-03-25T10:25:05Z</time>
      </trkpt>
      <trkpt lat="42.89864" lon="0.10446">
        <ele>1507</ele>
        <time>2021-03-25T10:25:06Z</time>
      </trkpt>
      <trkpt lat="42.89863" lon="0.10446">
        <ele>1507.1</ele>
        <time>2021-03-25T10:25:07Z</time>
      </trkpt>
      <trkpt lat="42.89863" lon="0.10446">
        <ele>1507.2</ele>
        <time>2021-03-25T10:25:09Z</time>
      </trkpt>
      <trkpt lat="42.89862" lon="0.10446">
        <ele>1507.3</ele>
        <time>2021-03-25T10:25:10Z</time>
      </trkpt>
      <trkpt lat="42.89861" lon="0.10447">
        <ele>1507.5</ele>
        <time>2021-03-25T10:25:12Z</time>
      </trkpt>
      <trkpt lat="42.89859" lon="0.10448">
        <ele>1507.7</ele>
        <time>2021-03-25T10:25:13Z</time>
      </trkpt>
      <trkpt lat="42.89858" lon="0.10449">
        <ele>1507.9</ele>
        <time>2021-03-25T10:25:15Z</time>
      </trkpt>
      <trkpt lat="42.89857" lon="0.10449">
        <ele>1508</ele>
        <time>2021-03-25T10:25:16Z</time>
      </trkpt>
      <trkpt lat="42.89856" lon="0.10449">
        <ele>1508.1</ele>
        <time>2021-03-25T10:25:17Z</time>
      </trkpt>
      <trkpt lat="42.89855" lon="0.1045">
        <ele>1508.2</ele>
        <time>2021-03-25T10:25:18Z</time>
      </trkpt>
      <trkpt lat="42.89854" lon="0.1045">
        <ele>1508.4</ele>
        <time>2021-03-25T10:25:19Z</time>
      </trkpt>
      <trkpt lat="42.89853" lon="0.10451">
        <ele>1508.5</ele>
        <time>2021-03-25T10:25:21Z</time>
      </trkpt>
      <trkpt lat="42.89852" lon="0.10452">
        <ele>1508.7</ele>
        <time>2021-03-25T10:25:22Z</time>
      </trkpt>
      <trkpt lat="42.89851" lon="0.10453">
        <ele>1508.9</ele>
        <time>2021-03-25T10:25:24Z</time>
      </trkpt>
      <trkpt lat="42.89849" lon="0.10455">
        <ele>1509.1</ele>
        <time>2021-03-25T10:25:25Z</time>
      </trkpt>
      <trkpt lat="42.89849" lon="0.10455">
        <ele>1509.2</ele>
        <time>2021-03-25T10:25:26Z</time>
      </trkpt>
      <trkpt lat="42.89848" lon="0.10456">
        <ele>1509.3</ele>
        <time>2021-03-25T10:25:27Z</time>
      </trkpt>
      <trkpt lat="42.89847" lon="0.10457">
        <ele>1509.5</ele>
        <time>2021-03-25T10:25:29Z</time>
      </trkpt>
      <trkpt lat="42.89846" lon="0.10459">
        <ele>1509.7</ele>
        <time>2021-03-25T10:25:30Z</time>
      </trkpt>
      <trkpt lat="42.89845" lon="0.1046">
        <ele>1509.8</ele>
        <time>2021-03-25T10:25:31Z</time>
      </trkpt>
      <trkpt lat="42.89844" lon="0.10461">
        <ele>1509.9</ele>
        <time>2021-03-25T10:25:33Z</time>
      </trkpt>
      <trkpt lat="42.89843" lon="0.10462">
        <ele>1510.1</ele>
        <time>2021-03-25T10:25:34Z</time>
      </trkpt>
      <trkpt lat="42.89842" lon="0.10463">
        <ele>1510.2</ele>
        <time>2021-03-25T10:25:36Z</time>
      </trkpt>
      <trkpt lat="42.89841" lon="0.10464">
        <ele>1510.4</ele>
        <time>2021-03-25T10:25:37Z</time>
      </trkpt>
      <trkpt lat="42.8984" lon="0.10465">
        <ele>1510.5</ele>
        <time>2021-03-25T10:25:38Z</time>
      </trkpt>
      <trkpt lat="42.89839" lon="0.10466">
        <ele>1510.6</ele>
        <time>2021-03-25T10:25:39Z</time>
      </trkpt>
      <trkpt lat="42.89838" lon="0.10468">
        <ele>1510.8</ele>
        <time>2021-03-25T10:25:41Z</time>
      </trkpt>
      <trkpt lat="42.89837" lon="0.10469">
        <ele>1510.9</ele>
        <time>2021-03-25T10:25:43Z</time>
      </trkpt>
      <trkpt lat="42.89836" lon="0.10469">
        <ele>1511.1</ele>
        <time>2021-03-25T10:25:44Z</time>
      </trkpt>
      <trkpt lat="42.89835" lon="0.1047">
        <ele>1511.1</ele>
        <time>2021-03-25T10:25:45Z</time>
      </trkpt>
      <trkpt lat="42.89834" lon="0.1047">
        <ele>1511.2</ele>
        <time>2021-03-25T10:25:46Z</time>
      </trkpt>
      <trkpt lat="42.89833" lon="0.10471">
        <ele>1511.4</ele>
        <time>2021-03-25T10:25:47Z</time>
      </trkpt>
      <trkpt lat="42.89832" lon="0.10472">
        <ele>1511.5</ele>
        <time>2021-03-25T10:25:49Z</time>
      </trkpt>
      <trkpt lat="42.89831" lon="0.10473">
        <ele>1511.6</ele>
        <time>2021-03-25T10:25:50Z</time>
      </trkpt>
      <trkpt lat="42.8983" lon="0.10474">
        <ele>1511.7</ele>
        <time>2021-03-25T10:25:51Z</time>
      </trkpt>
      <trkpt lat="42.89829" lon="0.10474">
        <ele>1511.8</ele>
        <time>2021-03-25T10:25:53Z</time>
      </trkpt>
      <trkpt lat="42.89827" lon="0.10476">
        <ele>1512</ele>
        <time>2021-03-25T10:25:54Z</time>
      </trkpt>
      <trkpt lat="42.89827" lon="0.10477">
        <ele>1512.1</ele>
        <time>2021-03-25T10:25:55Z</time>
      </trkpt>
      <trkpt lat="42.89826" lon="0.10477">
        <ele>1512.2</ele>
        <time>2021-03-25T10:25:57Z</time>
      </trkpt>
      <trkpt lat="42.89825" lon="0.10478">
        <ele>1512.2</ele>
        <time>2021-03-25T10:25:58Z</time>
      </trkpt>
      <trkpt lat="42.89825" lon="0.10479">
        <ele>1512.3</ele>
        <time>2021-03-25T10:26:00Z</time>
      </trkpt>
      <trkpt lat="42.89824" lon="0.1048">
        <ele>1512.4</ele>
        <time>2021-03-25T10:26:01Z</time>
      </trkpt>
      <trkpt lat="42.89823" lon="0.10481">
        <ele>1512.5</ele>
        <time>2021-03-25T10:26:02Z</time>
      </trkpt>
      <trkpt lat="42.89823" lon="0.10481">
        <ele>1512.5</ele>
        <time>2021-03-25T10:26:04Z</time>
      </trkpt>
      <trkpt lat="42.89822" lon="0.10482">
        <ele>1512.6</ele>
        <time>2021-03-25T10:26:05Z</time>
      </trkpt>
      <trkpt lat="42.89822" lon="0.10483">
        <ele>1512.7</ele>
        <time>2021-03-25T10:26:07Z</time>
      </trkpt>
      <trkpt lat="42.89821" lon="0.10484">
        <ele>1512.8</ele>
        <time>2021-03-25T10:26:08Z</time>
      </trkpt>
      <trkpt lat="42.89819" lon="0.10485">
        <ele>1513</ele>
        <time>2021-03-25T10:26:09Z</time>
      </trkpt>
      <trkpt lat="42.89818" lon="0.10486">
        <ele>1513</ele>
        <time>2021-03-25T10:26:11Z</time>
      </trkpt>
      <trkpt lat="42.89818" lon="0.10486">
        <ele>1513.1</ele>
        <time>2021-03-25T10:26:12Z</time>
      </trkpt>
      <trkpt lat="42.89817" lon="0.10487">
        <ele>1513.2</ele>
        <time>2021-03-25T10:26:13Z</time>
      </trkpt>
      <trkpt lat="42.89816" lon="0.10487">
        <ele>1513.3</ele>
        <time>2021-03-25T10:26:15Z</time>
      </trkpt>
      <trkpt lat="42.89815" lon="0.10489">
        <ele>1513.4</ele>
        <time>2021-03-25T10:26:16Z</time>
      </trkpt>
      <trkpt lat="42.89814" lon="0.1049">
        <ele>1513.5</ele>
        <time>2021-03-25T10:26:18Z</time>
      </trkpt>
      <trkpt lat="42.89813" lon="0.10491">
        <ele>1513.7</ele>
        <time>2021-03-25T10:26:20Z</time>
      </trkpt>
      <trkpt lat="42.89811" lon="0.10492">
        <ele>1513.8</ele>
        <time>2021-03-25T10:26:21Z</time>
      </trkpt>
      <trkpt lat="42.8981" lon="0.10493">
        <ele>1514</ele>
        <time>2021-03-25T10:26:22Z</time>
      </trkpt>
      <trkpt lat="42.89809" lon="0.10494">
        <ele>1514.1</ele>
        <time>2021-03-25T10:26:24Z</time>
      </trkpt>
      <trkpt lat="42.89807" lon="0.10494">
        <ele>1514.2</ele>
        <time>2021-03-25T10:26:25Z</time>
      </trkpt>
      <trkpt lat="42.89806" lon="0.10495">
        <ele>1514.3</ele>
        <time>2021-03-25T10:26:27Z</time>
      </trkpt>
      <trkpt lat="42.89805" lon="0.10496">
        <ele>1514.5</ele>
        <time>2021-03-25T10:26:28Z</time>
      </trkpt>
      <trkpt lat="42.89804" lon="0.10496">
        <ele>1514.6</ele>
        <time>2021-03-25T10:26:29Z</time>
      </trkpt>
      <trkpt lat="42.89802" lon="0.10498">
        <ele>1514.8</ele>
        <time>2021-03-25T10:26:30Z</time>
      </trkpt>
      <trkpt lat="42.89801" lon="0.10498">
        <ele>1514.9</ele>
        <time>2021-03-25T10:26:32Z</time>
      </trkpt>
      <trkpt lat="42.898" lon="0.10499">
        <ele>1515</ele>
        <time>2021-03-25T10:26:33Z</time>
      </trkpt>
      <trkpt lat="42.89799" lon="0.10499">
        <ele>1515.1</ele>
        <time>2021-03-25T10:26:34Z</time>
      </trkpt>
      <trkpt lat="42.89798" lon="0.105">
        <ele>1515.2</ele>
        <time>2021-03-25T10:26:35Z</time>
      </trkpt>
      <trkpt lat="42.89797" lon="0.105">
        <ele>1515.4</ele>
        <time>2021-03-25T10:26:37Z</time>
      </trkpt>
      <trkpt lat="42.89796" lon="0.10501">
        <ele>1515.5</ele>
        <time>2021-03-25T10:26:38Z</time>
      </trkpt>
      <trkpt lat="42.89794" lon="0.10503">
        <ele>1515.7</ele>
        <time>2021-03-25T10:26:40Z</time>
      </trkpt>
      <trkpt lat="42.89793" lon="0.10504">
        <ele>1516.4</ele>
        <time>2021-03-25T10:26:41Z</time>
      </trkpt>
      <trkpt lat="42.89792" lon="0.10505">
        <ele>1516.5</ele>
        <time>2021-03-25T10:26:42Z</time>
      </trkpt>
      <trkpt lat="42.89791" lon="0.10506">
        <ele>1516.6</ele>
        <time>2021-03-25T10:26:44Z</time>
      </trkpt>
      <trkpt lat="42.8979" lon="0.10507">
        <ele>1516.7</ele>
        <time>2021-03-25T10:26:45Z</time>
      </trkpt>
      <trkpt lat="42.89788" lon="0.10507">
        <ele>1516.8</ele>
        <time>2021-03-25T10:26:47Z</time>
      </trkpt>
      <trkpt lat="42.89787" lon="0.10508">
        <ele>1516.9</ele>
        <time>2021-03-25T10:26:48Z</time>
      </trkpt>
      <trkpt lat="42.89786" lon="0.10507">
        <ele>1517</ele>
        <time>2021-03-25T10:26:49Z</time>
      </trkpt>
      <trkpt lat="42.89785" lon="0.10507">
        <ele>1517.1</ele>
        <time>2021-03-25T10:26:51Z</time>
      </trkpt>
      <trkpt lat="42.89783" lon="0.10506">
        <ele>1517.3</ele>
        <time>2021-03-25T10:26:52Z</time>
      </trkpt>
      <trkpt lat="42.89782" lon="0.10506">
        <ele>1517.4</ele>
        <time>2021-03-25T10:26:53Z</time>
      </trkpt>
      <trkpt lat="42.8978" lon="0.10504">
        <ele>1517.6</ele>
        <time>2021-03-25T10:26:55Z</time>
      </trkpt>
      <trkpt lat="42.89779" lon="0.10503">
        <ele>1517.7</ele>
        <time>2021-03-25T10:26:56Z</time>
      </trkpt>
      <trkpt lat="42.89778" lon="0.10502">
        <ele>1517.8</ele>
        <time>2021-03-25T10:26:57Z</time>
      </trkpt>
      <trkpt lat="42.89775" lon="0.10502">
        <ele>1518</ele>
        <time>2021-03-25T10:26:59Z</time>
      </trkpt>
      <trkpt lat="42.89775" lon="0.10502">
        <ele>1518.1</ele>
        <time>2021-03-25T10:27:00Z</time>
      </trkpt>
      <trkpt lat="42.89773" lon="0.10502">
        <ele>1518.2</ele>
        <time>2021-03-25T10:27:01Z</time>
      </trkpt>
      <trkpt lat="42.89772" lon="0.10502">
        <ele>1518.3</ele>
        <time>2021-03-25T10:27:02Z</time>
      </trkpt>
      <trkpt lat="42.89769" lon="0.10501">
        <ele>1518.5</ele>
        <time>2021-03-25T10:27:04Z</time>
      </trkpt>
      <trkpt lat="42.89768" lon="0.10501">
        <ele>1518.6</ele>
        <time>2021-03-25T10:27:05Z</time>
      </trkpt>
      <trkpt lat="42.89767" lon="0.10501">
        <ele>1518.7</ele>
        <time>2021-03-25T10:27:06Z</time>
      </trkpt>
      <trkpt lat="42.89765" lon="0.105">
        <ele>1518.9</ele>
        <time>2021-03-25T10:27:08Z</time>
      </trkpt>
      <trkpt lat="42.89764" lon="0.105">
        <ele>1519</ele>
        <time>2021-03-25T10:27:09Z</time>
      </trkpt>
      <trkpt lat="42.89761" lon="0.10499">
        <ele>1519.2</ele>
        <time>2021-03-25T10:27:11Z</time>
      </trkpt>
      <trkpt lat="42.89759" lon="0.10499">
        <ele>1519.4</ele>
        <time>2021-03-25T10:27:12Z</time>
      </trkpt>
      <trkpt lat="42.89758" lon="0.10499">
        <ele>1519.5</ele>
        <time>2021-03-25T10:27:14Z</time>
      </trkpt>
      <trkpt lat="42.89756" lon="0.10499">
        <ele>1519.6</ele>
        <time>2021-03-25T10:27:15Z</time>
      </trkpt>
      <trkpt lat="42.89756" lon="0.105">
        <ele>1519.6</ele>
        <time>2021-03-25T10:27:17Z</time>
      </trkpt>
      <trkpt lat="42.89755" lon="0.105">
        <ele>1519.7</ele>
        <time>2021-03-25T10:27:18Z</time>
      </trkpt>
      <trkpt lat="42.89755" lon="0.10501">
        <ele>1519.7</ele>
        <time>2021-03-25T10:27:19Z</time>
      </trkpt>
      <trkpt lat="42.89754" lon="0.10501">
        <ele>1519.8</ele>
        <time>2021-03-25T10:27:21Z</time>
      </trkpt>
      <trkpt lat="42.89753" lon="0.105">
        <ele>1519.9</ele>
        <time>2021-03-25T10:27:22Z</time>
      </trkpt>
      <trkpt lat="42.89752" lon="0.105">
        <ele>1520</ele>
        <time>2021-03-25T10:27:24Z</time>
      </trkpt>
      <trkpt lat="42.89751" lon="0.105">
        <ele>1520</ele>
        <time>2021-03-25T10:27:25Z</time>
      </trkpt>
      <trkpt lat="42.8975" lon="0.105">
        <ele>1520.1</ele>
        <time>2021-03-25T10:27:27Z</time>
      </trkpt>
      <trkpt lat="42.89749" lon="0.105">
        <ele>1520.2</ele>
        <time>2021-03-25T10:27:28Z</time>
      </trkpt>
      <trkpt lat="42.89748" lon="0.10499">
        <ele>1520.3</ele>
        <time>2021-03-25T10:27:30Z</time>
      </trkpt>
      <trkpt lat="42.89746" lon="0.10499">
        <ele>1520.4</ele>
        <time>2021-03-25T10:27:31Z</time>
      </trkpt>
      <trkpt lat="42.89745" lon="0.10499">
        <ele>1520.5</ele>
        <time>2021-03-25T10:27:32Z</time>
      </trkpt>
      <trkpt lat="42.89743" lon="0.10499">
        <ele>1520.6</ele>
        <time>2021-03-25T10:27:33Z</time>
      </trkpt>
      <trkpt lat="42.89742" lon="0.10499">
        <ele>1520.7</ele>
        <time>2021-03-25T10:27:35Z</time>
      </trkpt>
      <trkpt lat="42.89741" lon="0.10499">
        <ele>1520.8</ele>
        <time>2021-03-25T10:27:36Z</time>
      </trkpt>
      <trkpt lat="42.8974" lon="0.10498">
        <ele>1520.9</ele>
        <time>2021-03-25T10:27:37Z</time>
      </trkpt>
      <trkpt lat="42.89739" lon="0.10498">
        <ele>1521</ele>
        <time>2021-03-25T10:27:38Z</time>
      </trkpt>
      <trkpt lat="42.89738" lon="0.10497">
        <ele>1521.1</ele>
        <time>2021-03-25T10:27:40Z</time>
      </trkpt>
      <trkpt lat="42.89736" lon="0.10497">
        <ele>1521.2</ele>
        <time>2021-03-25T10:27:41Z</time>
      </trkpt>
      <trkpt lat="42.89735" lon="0.10497">
        <ele>1521.3</ele>
        <time>2021-03-25T10:27:43Z</time>
      </trkpt>
      <trkpt lat="42.89734" lon="0.10497">
        <ele>1521.4</ele>
        <time>2021-03-25T10:27:44Z</time>
      </trkpt>
      <trkpt lat="42.89732" lon="0.10497">
        <ele>1521.5</ele>
        <time>2021-03-25T10:27:46Z</time>
      </trkpt>
      <trkpt lat="42.89731" lon="0.10497">
        <ele>1521.6</ele>
        <time>2021-03-25T10:27:48Z</time>
      </trkpt>
      <trkpt lat="42.89731" lon="0.10497">
        <ele>1521.6</ele>
        <time>2021-03-25T10:27:49Z</time>
      </trkpt>
      <trkpt lat="42.8973" lon="0.10497">
        <ele>1521.7</ele>
        <time>2021-03-25T10:27:51Z</time>
      </trkpt>
      <trkpt lat="42.89728" lon="0.10497">
        <ele>1521.8</ele>
        <time>2021-03-25T10:27:52Z</time>
      </trkpt>
      <trkpt lat="42.89727" lon="0.10497">
        <ele>1521.9</ele>
        <time>2021-03-25T10:27:54Z</time>
      </trkpt>
      <trkpt lat="42.89727" lon="0.10496">
        <ele>1522</ele>
        <time>2021-03-25T10:27:55Z</time>
      </trkpt>
      <trkpt lat="42.89726" lon="0.10496">
        <ele>1522</ele>
        <time>2021-03-25T10:27:56Z</time>
      </trkpt>
      <trkpt lat="42.89724" lon="0.10495">
        <ele>1522.2</ele>
        <time>2021-03-25T10:27:58Z</time>
      </trkpt>
      <trkpt lat="42.89723" lon="0.10495">
        <ele>1522.3</ele>
        <time>2021-03-25T10:28:00Z</time>
      </trkpt>
      <trkpt lat="42.89721" lon="0.10495">
        <ele>1522.4</ele>
        <time>2021-03-25T10:28:01Z</time>
      </trkpt>
      <trkpt lat="42.8972" lon="0.10495">
        <ele>1522.5</ele>
        <time>2021-03-25T10:28:03Z</time>
      </trkpt>
      <trkpt lat="42.89718" lon="0.10495">
        <ele>1522.6</ele>
        <time>2021-03-25T10:28:04Z</time>
      </trkpt>
      <trkpt lat="42.89717" lon="0.10495">
        <ele>1522.7</ele>
        <time>2021-03-25T10:28:05Z</time>
      </trkpt>
      <trkpt lat="42.89716" lon="0.10494">
        <ele>1522.8</ele>
        <time>2021-03-25T10:28:07Z</time>
      </trkpt>
      <trkpt lat="42.89715" lon="0.10494">
        <ele>1522.9</ele>
        <time>2021-03-25T10:28:09Z</time>
      </trkpt>
      <trkpt lat="42.89713" lon="0.10494">
        <ele>1523</ele>
        <time>2021-03-25T10:28:10Z</time>
      </trkpt>
      <trkpt lat="42.89711" lon="0.10494">
        <ele>1523.2</ele>
        <time>2021-03-25T10:28:12Z</time>
      </trkpt>
      <trkpt lat="42.8971" lon="0.10494">
        <ele>1523.3</ele>
        <time>2021-03-25T10:28:14Z</time>
      </trkpt>
      <trkpt lat="42.89709" lon="0.10495">
        <ele>1523.3</ele>
        <time>2021-03-25T10:28:15Z</time>
      </trkpt>
      <trkpt lat="42.89708" lon="0.10495">
        <ele>1523.4</ele>
        <time>2021-03-25T10:28:17Z</time>
      </trkpt>
      <trkpt lat="42.89707" lon="0.10495">
        <ele>1523.5</ele>
        <time>2021-03-25T10:28:18Z</time>
      </trkpt>
      <trkpt lat="42.89706" lon="0.10496">
        <ele>1523.6</ele>
        <time>2021-03-25T10:28:19Z</time>
      </trkpt>
      <trkpt lat="42.89705" lon="0.10496">
        <ele>1523.7</ele>
        <time>2021-03-25T10:28:21Z</time>
      </trkpt>
      <trkpt lat="42.89704" lon="0.10496">
        <ele>1523.7</ele>
        <time>2021-03-25T10:28:22Z</time>
      </trkpt>
      <trkpt lat="42.89703" lon="0.10497">
        <ele>1523.8</ele>
        <time>2021-03-25T10:28:23Z</time>
      </trkpt>
      <trkpt lat="42.89703" lon="0.10498">
        <ele>1523.9</ele>
        <time>2021-03-25T10:28:24Z</time>
      </trkpt>
      <trkpt lat="42.89703" lon="0.10498">
        <ele>1523.9</ele>
        <time>2021-03-25T10:28:26Z</time>
      </trkpt>
      <trkpt lat="42.89702" lon="0.10499">
        <ele>1523.9</ele>
        <time>2021-03-25T10:28:28Z</time>
      </trkpt>
      <trkpt lat="42.89702" lon="0.105">
        <ele>1524</ele>
        <time>2021-03-25T10:28:29Z</time>
      </trkpt>
      <trkpt lat="42.89702" lon="0.105">
        <ele>1524</ele>
        <time>2021-03-25T10:28:30Z</time>
      </trkpt>
      <trkpt lat="42.89702" lon="0.10501">
        <ele>1524</ele>
        <time>2021-03-25T10:28:31Z</time>
      </trkpt>
      <trkpt lat="42.89701" lon="0.10501">
        <ele>1524.1</ele>
        <time>2021-03-25T10:28:33Z</time>
      </trkpt>
      <trkpt lat="42.89701" lon="0.10502">
        <ele>1524.1</ele>
        <time>2021-03-25T10:28:34Z</time>
      </trkpt>
      <trkpt lat="42.89701" lon="0.10503">
        <ele>1524.2</ele>
        <time>2021-03-25T10:28:36Z</time>
      </trkpt>
      <trkpt lat="42.89701" lon="0.10503">
        <ele>1524.2</ele>
        <time>2021-03-25T10:28:37Z</time>
      </trkpt>
      <trkpt lat="42.897" lon="0.10505">
        <ele>1524.3</ele>
        <time>2021-03-25T10:28:38Z</time>
      </trkpt>
      <trkpt lat="42.89699" lon="0.10507">
        <ele>1524.5</ele>
        <time>2021-03-25T10:28:40Z</time>
      </trkpt>
      <trkpt lat="42.89698" lon="0.10508">
        <ele>1524.5</ele>
        <time>2021-03-25T10:28:41Z</time>
      </trkpt>
      <trkpt lat="42.89697" lon="0.10509">
        <ele>1524.6</ele>
        <time>2021-03-25T10:28:43Z</time>
      </trkpt>
      <trkpt lat="42.89696" lon="0.1051">
        <ele>1524.7</ele>
        <time>2021-03-25T10:28:44Z</time>
      </trkpt>
      <trkpt lat="42.89695" lon="0.10509">
        <ele>1524.8</ele>
        <time>2021-03-25T10:28:45Z</time>
      </trkpt>
      <trkpt lat="42.89694" lon="0.1051">
        <ele>1524.9</ele>
        <time>2021-03-25T10:28:47Z</time>
      </trkpt>
      <trkpt lat="42.89693" lon="0.1051">
        <ele>1525</ele>
        <time>2021-03-25T10:28:48Z</time>
      </trkpt>
      <trkpt lat="42.89691" lon="0.1051">
        <ele>1525.1</ele>
        <time>2021-03-25T10:28:49Z</time>
      </trkpt>
      <trkpt lat="42.8969" lon="0.10509">
        <ele>1525.2</ele>
        <time>2021-03-25T10:28:50Z</time>
      </trkpt>
      <trkpt lat="42.89689" lon="0.10508">
        <ele>1525.3</ele>
        <time>2021-03-25T10:28:52Z</time>
      </trkpt>
      <trkpt lat="42.89686" lon="0.10507">
        <ele>1525.6</ele>
        <time>2021-03-25T10:28:54Z</time>
      </trkpt>
      <trkpt lat="42.89685" lon="0.10506">
        <ele>1525.7</ele>
        <time>2021-03-25T10:28:55Z</time>
      </trkpt>
      <trkpt lat="42.89684" lon="0.10504">
        <ele>1525.8</ele>
        <time>2021-03-25T10:28:57Z</time>
      </trkpt>
      <trkpt lat="42.89683" lon="0.10503">
        <ele>1525.9</ele>
        <time>2021-03-25T10:28:58Z</time>
      </trkpt>
      <trkpt lat="42.89682" lon="0.10501">
        <ele>1526.1</ele>
        <time>2021-03-25T10:29:00Z</time>
      </trkpt>
      <trkpt lat="42.89681" lon="0.105">
        <ele>1526.2</ele>
        <time>2021-03-25T10:29:01Z</time>
      </trkpt>
      <trkpt lat="42.8968" lon="0.10499">
        <ele>1526.3</ele>
        <time>2021-03-25T10:29:03Z</time>
      </trkpt>
      <trkpt lat="42.89679" lon="0.10499">
        <ele>1526.4</ele>
        <time>2021-03-25T10:29:04Z</time>
      </trkpt>
      <trkpt lat="42.89677" lon="0.10498">
        <ele>1526.5</ele>
        <time>2021-03-25T10:29:06Z</time>
      </trkpt>
      <trkpt lat="42.89676" lon="0.105">
        <ele>1526.7</ele>
        <time>2021-03-25T10:29:07Z</time>
      </trkpt>
      <trkpt lat="42.89675" lon="0.105">
        <ele>1526.7</ele>
        <time>2021-03-25T10:29:09Z</time>
      </trkpt>
      <trkpt lat="42.89674" lon="0.10501">
        <ele>1526.8</ele>
        <time>2021-03-25T10:29:10Z</time>
      </trkpt>
      <trkpt lat="42.89672" lon="0.10502">
        <ele>1527</ele>
        <time>2021-03-25T10:29:12Z</time>
      </trkpt>
      <trkpt lat="42.89671" lon="0.10503">
        <ele>1527.1</ele>
        <time>2021-03-25T10:29:14Z</time>
      </trkpt>
      <trkpt lat="42.8967" lon="0.10503">
        <ele>1527.1</ele>
        <time>2021-03-25T10:29:15Z</time>
      </trkpt>
      <trkpt lat="42.8967" lon="0.10503">
        <ele>1527.2</ele>
        <time>2021-03-25T10:29:16Z</time>
      </trkpt>
      <trkpt lat="42.89669" lon="0.10504">
        <ele>1527.3</ele>
        <time>2021-03-25T10:29:18Z</time>
      </trkpt>
      <trkpt lat="42.89668" lon="0.10505">
        <ele>1527.4</ele>
        <time>2021-03-25T10:29:19Z</time>
      </trkpt>
      <trkpt lat="42.89667" lon="0.10506">
        <ele>1527.5</ele>
        <time>2021-03-25T10:29:20Z</time>
      </trkpt>
      <trkpt lat="42.89666" lon="0.10507">
        <ele>1527.6</ele>
        <time>2021-03-25T10:29:22Z</time>
      </trkpt>
      <trkpt lat="42.89665" lon="0.10508">
        <ele>1527.7</ele>
        <time>2021-03-25T10:29:23Z</time>
      </trkpt>
      <trkpt lat="42.89664" lon="0.10509">
        <ele>1527.9</ele>
        <time>2021-03-25T10:29:25Z</time>
      </trkpt>
      <trkpt lat="42.89662" lon="0.10509">
        <ele>1528</ele>
        <time>2021-03-25T10:29:26Z</time>
      </trkpt>
      <trkpt lat="42.89661" lon="0.1051">
        <ele>1528.1</ele>
        <time>2021-03-25T10:29:27Z</time>
      </trkpt>
      <trkpt lat="42.8966" lon="0.1051">
        <ele>1528.2</ele>
        <time>2021-03-25T10:29:28Z</time>
      </trkpt>
      <trkpt lat="42.89659" lon="0.1051">
        <ele>1528.2</ele>
        <time>2021-03-25T10:29:30Z</time>
      </trkpt>
      <trkpt lat="42.89658" lon="0.1051">
        <ele>1528.3</ele>
        <time>2021-03-25T10:29:31Z</time>
      </trkpt>
      <trkpt lat="42.89657" lon="0.1051">
        <ele>1528.4</ele>
        <time>2021-03-25T10:29:32Z</time>
      </trkpt>
      <trkpt lat="42.89656" lon="0.1051">
        <ele>1528.5</ele>
        <time>2021-03-25T10:29:34Z</time>
      </trkpt>
      <trkpt lat="42.89655" lon="0.10509">
        <ele>1528.6</ele>
        <time>2021-03-25T10:29:36Z</time>
      </trkpt>
      <trkpt lat="42.89655" lon="0.10509">
        <ele>1528.7</ele>
        <time>2021-03-25T10:29:37Z</time>
      </trkpt>
      <trkpt lat="42.89655" lon="0.10509">
        <ele>1528.7</ele>
        <time>2021-03-25T10:29:38Z</time>
      </trkpt>
      <trkpt lat="42.89655" lon="0.10509">
        <ele>1528.7</ele>
        <time>2021-03-25T10:29:39Z</time>
      </trkpt>
      <trkpt lat="42.89655" lon="0.1051">
        <ele>1528.7</ele>
        <time>2021-03-25T10:29:41Z</time>
      </trkpt>
      <trkpt lat="42.89655" lon="0.1051">
        <ele>1528.8</ele>
        <time>2021-03-25T10:29:42Z</time>
      </trkpt>
      <trkpt lat="42.89656" lon="0.1051">
        <ele>1528.8</ele>
        <time>2021-03-25T10:29:44Z</time>
      </trkpt>
      <trkpt lat="42.89656" lon="0.1051">
        <ele>1528.8</ele>
        <time>2021-03-25T10:29:45Z</time>
      </trkpt>
      <trkpt lat="42.89656" lon="0.1051">
        <ele>1528.8</ele>
        <time>2021-03-25T10:29:47Z</time>
      </trkpt>
      <trkpt lat="42.89656" lon="0.1051">
        <ele>1528.8</ele>
        <time>2021-03-25T10:29:49Z</time>
      </trkpt>
      <trkpt lat="42.89656" lon="0.1051">
        <ele>1528.8</ele>
        <time>2021-03-25T10:29:50Z</time>
      </trkpt>
      <trkpt lat="42.89656" lon="0.10511">
        <ele>1528.9</ele>
        <time>2021-03-25T10:29:52Z</time>
      </trkpt>
      <trkpt lat="42.89656" lon="0.10511">
        <ele>1528.9</ele>
        <time>2021-03-25T10:29:53Z</time>
      </trkpt>
      <trkpt lat="42.89656" lon="0.10511">
        <ele>1528.9</ele>
        <time>2021-03-25T10:29:54Z</time>
      </trkpt>
      <trkpt lat="42.89656" lon="0.10512">
        <ele>1528.9</ele>
        <time>2021-03-25T10:29:55Z</time>
      </trkpt>
      <trkpt lat="42.89656" lon="0.10512">
        <ele>1529</ele>
        <time>2021-03-25T10:29:56Z</time>
      </trkpt>
      <trkpt lat="42.89656" lon="0.10512">
        <ele>1529</ele>
        <time>2021-03-25T10:29:57Z</time>
      </trkpt>
      <trkpt lat="42.89657" lon="0.10513">
        <ele>1529</ele>
        <time>2021-03-25T10:29:59Z</time>
      </trkpt>
      <trkpt lat="42.89657" lon="0.10513">
        <ele>1529</ele>
        <time>2021-03-25T10:30:00Z</time>
      </trkpt>
      <trkpt lat="42.89657" lon="0.10513">
        <ele>1529.1</ele>
        <time>2021-03-25T10:30:02Z</time>
      </trkpt>
      <trkpt lat="42.89658" lon="0.10513">
        <ele>1529.1</ele>
        <time>2021-03-25T10:30:04Z</time>
      </trkpt>
      <trkpt lat="42.8966" lon="0.10514">
        <ele>1529.3</ele>
        <time>2021-03-25T10:30:06Z</time>
      </trkpt>
      <trkpt lat="42.8966" lon="0.10513">
        <ele>1529.4</ele>
        <time>2021-03-25T10:30:08Z</time>
      </trkpt>
      <trkpt lat="42.8966" lon="0.10513">
        <ele>1529.4</ele>
        <time>2021-03-25T10:30:09Z</time>
      </trkpt>
      <trkpt lat="42.8966" lon="0.10513">
        <ele>1529.4</ele>
        <time>2021-03-25T10:30:11Z</time>
      </trkpt>
      <trkpt lat="42.89661" lon="0.10513">
        <ele>1529.4</ele>
        <time>2021-03-25T10:30:12Z</time>
      </trkpt>
      <trkpt lat="42.89661" lon="0.10513">
        <ele>1529.4</ele>
        <time>2021-03-25T10:30:13Z</time>
      </trkpt>
      <trkpt lat="42.89661" lon="0.10513">
        <ele>1529.4</ele>
        <time>2021-03-25T10:30:14Z</time>
      </trkpt>
      <trkpt lat="42.89661" lon="0.10512">
        <ele>1529.5</ele>
        <time>2021-03-25T10:30:15Z</time>
      </trkpt>
      <trkpt lat="42.89661" lon="0.10512">
        <ele>1529.5</ele>
        <time>2021-03-25T10:30:17Z</time>
      </trkpt>
      <trkpt lat="42.89661" lon="0.10512">
        <ele>1529.5</ele>
        <time>2021-03-25T10:30:18Z</time>
      </trkpt>
      <trkpt lat="42.89661" lon="0.10512">
        <ele>1529.5</ele>
        <time>2021-03-25T10:30:19Z</time>
      </trkpt>
      <trkpt lat="42.89661" lon="0.10511">
        <ele>1529.5</ele>
        <time>2021-03-25T10:30:21Z</time>
      </trkpt>
      <trkpt lat="42.8966" lon="0.10511">
        <ele>1529.6</ele>
        <time>2021-03-25T10:30:22Z</time>
      </trkpt>
      <trkpt lat="42.8966" lon="0.10511">
        <ele>1529.6</ele>
        <time>2021-03-25T10:30:23Z</time>
      </trkpt>
      <trkpt lat="42.8966" lon="0.10512">
        <ele>1529.6</ele>
        <time>2021-03-25T10:30:24Z</time>
      </trkpt>
      <trkpt lat="42.8966" lon="0.10511">
        <ele>1529.6</ele>
        <time>2021-03-25T10:30:26Z</time>
      </trkpt>
      <trkpt lat="42.8966" lon="0.10511">
        <ele>1529.6</ele>
        <time>2021-03-25T10:30:28Z</time>
      </trkpt>
      <trkpt lat="42.8966" lon="0.10511">
        <ele>1529.6</ele>
        <time>2021-03-25T10:30:30Z</time>
      </trkpt>
      <trkpt lat="42.8966" lon="0.10511">
        <ele>1529.7</ele>
        <time>2021-03-25T10:30:31Z</time>
      </trkpt>
      <trkpt lat="42.8966" lon="0.10511">
        <ele>1529.7</ele>
        <time>2021-03-25T10:30:33Z</time>
      </trkpt>
      <trkpt lat="42.8966" lon="0.10511">
        <ele>1529.7</ele>
        <time>2021-03-25T10:30:35Z</time>
      </trkpt>
      <trkpt lat="42.8966" lon="0.10511">
        <ele>1529.7</ele>
        <time>2021-03-25T10:30:36Z</time>
      </trkpt>
      <trkpt lat="42.8966" lon="0.10511">
        <ele>1529.7</ele>
        <time>2021-03-25T10:30:38Z</time>
      </trkpt>
      <trkpt lat="42.89659" lon="0.10511">
        <ele>1529.7</ele>
        <time>2021-03-25T10:30:40Z</time>
      </trkpt>
      <trkpt lat="42.89659" lon="0.10511">
        <ele>1529.8</ele>
        <time>2021-03-25T10:30:41Z</time>
      </trkpt>
      <trkpt lat="42.89659" lon="0.10511">
        <ele>1529.8</ele>
        <time>2021-03-25T10:30:42Z</time>
      </trkpt>
      <trkpt lat="42.89658" lon="0.10513">
        <ele>1529.9</ele>
        <time>2021-03-25T10:30:44Z</time>
      </trkpt>
      <trkpt lat="42.89658" lon="0.10514">
        <ele>1530</ele>
        <time>2021-03-25T10:30:45Z</time>
      </trkpt>
      <trkpt lat="42.89657" lon="0.10514">
        <ele>1530.1</ele>
        <time>2021-03-25T10:30:47Z</time>
      </trkpt>
      <trkpt lat="42.89656" lon="0.10513">
        <ele>1530.2</ele>
        <time>2021-03-25T10:30:48Z</time>
      </trkpt>
      <trkpt lat="42.89656" lon="0.10512">
        <ele>1530.2</ele>
        <time>2021-03-25T10:30:50Z</time>
      </trkpt>
      <trkpt lat="42.89656" lon="0.10511">
        <ele>1530.3</ele>
        <time>2021-03-25T10:30:51Z</time>
      </trkpt>
      <trkpt lat="42.89656" lon="0.10511">
        <ele>1530.3</ele>
        <time>2021-03-25T10:30:52Z</time>
      </trkpt>
      <trkpt lat="42.89656" lon="0.1051">
        <ele>1530.4</ele>
        <time>2021-03-25T10:30:53Z</time>
      </trkpt>
      <trkpt lat="42.89657" lon="0.1051">
        <ele>1530.4</ele>
        <time>2021-03-25T10:30:55Z</time>
      </trkpt>
      <trkpt lat="42.89657" lon="0.10511">
        <ele>1530.5</ele>
        <time>2021-03-25T10:30:56Z</time>
      </trkpt>
      <trkpt lat="42.89657" lon="0.10513">
        <ele>1530.6</ele>
        <time>2021-03-25T10:30:58Z</time>
      </trkpt>
      <trkpt lat="42.89657" lon="0.10513">
        <ele>1530.6</ele>
        <time>2021-03-25T10:30:59Z</time>
      </trkpt>
      <trkpt lat="42.89658" lon="0.10513">
        <ele>1530.7</ele>
        <time>2021-03-25T10:31:01Z</time>
      </trkpt>
      <trkpt lat="42.89658" lon="0.10514">
        <ele>1530.7</ele>
        <time>2021-03-25T10:31:03Z</time>
      </trkpt>
      <trkpt lat="42.89658" lon="0.10514">
        <ele>1530.7</ele>
        <time>2021-03-25T10:31:05Z</time>
      </trkpt>
      <trkpt lat="42.89659" lon="0.10514">
        <ele>1530.8</ele>
        <time>2021-03-25T10:31:06Z</time>
      </trkpt>
      <trkpt lat="42.89659" lon="0.10514">
        <ele>1530.8</ele>
        <time>2021-03-25T10:31:07Z</time>
      </trkpt>
      <trkpt lat="42.89659" lon="0.10514">
        <ele>1530.8</ele>
        <time>2021-03-25T10:31:09Z</time>
      </trkpt>
      <trkpt lat="42.89659" lon="0.10515">
        <ele>1530.8</ele>
        <time>2021-03-25T10:31:10Z</time>
      </trkpt>
      <trkpt lat="42.89659" lon="0.10515">
        <ele>1530.8</ele>
        <time>2021-03-25T10:31:12Z</time>
      </trkpt>
      <trkpt lat="42.89659" lon="0.10515">
        <ele>1530.9</ele>
        <time>2021-03-25T10:31:13Z</time>
      </trkpt>
      <trkpt lat="42.89659" lon="0.10515">
        <ele>1530.9</ele>
        <time>2021-03-25T10:31:14Z</time>
      </trkpt>
      <trkpt lat="42.89659" lon="0.10516">
        <ele>1530.9</ele>
        <time>2021-03-25T10:31:16Z</time>
      </trkpt>
      <trkpt lat="42.89659" lon="0.10516">
        <ele>1530.9</ele>
        <time>2021-03-25T10:31:17Z</time>
      </trkpt>
      <trkpt lat="42.89659" lon="0.10515">
        <ele>1530.9</ele>
        <time>2021-03-25T10:31:19Z</time>
      </trkpt>
      <trkpt lat="42.89658" lon="0.10515">
        <ele>1531</ele>
        <time>2021-03-25T10:31:20Z</time>
      </trkpt>
      <trkpt lat="42.89657" lon="0.10514">
        <ele>1531.1</ele>
        <time>2021-03-25T10:31:22Z</time>
      </trkpt>
      <trkpt lat="42.89657" lon="0.10514">
        <ele>1531.1</ele>
        <time>2021-03-25T10:31:24Z</time>
      </trkpt>
      <trkpt lat="42.89658" lon="0.10514">
        <ele>1531.2</ele>
        <time>2021-03-25T10:31:26Z</time>
      </trkpt>
      <trkpt lat="42.89658" lon="0.10514">
        <ele>1531.2</ele>
        <time>2021-03-25T10:31:27Z</time>
      </trkpt>
      <trkpt lat="42.89658" lon="0.10514">
        <ele>1531.2</ele>
        <time>2021-03-25T10:31:28Z</time>
      </trkpt>
      <trkpt lat="42.89658" lon="0.10514">
        <ele>1531.2</ele>
        <time>2021-03-25T10:31:29Z</time>
      </trkpt>
      <trkpt lat="42.89658" lon="0.10515">
        <ele>1531.3</ele>
        <time>2021-03-25T10:31:31Z</time>
      </trkpt>
      <trkpt lat="42.89657" lon="0.10515">
        <ele>1531.3</ele>
        <time>2021-03-25T10:31:32Z</time>
      </trkpt>
      <trkpt lat="42.89657" lon="0.10515">
        <ele>1531.3</ele>
        <time>2021-03-25T10:31:33Z</time>
      </trkpt>
      <trkpt lat="42.89657" lon="0.10515">
        <ele>1531.4</ele>
        <time>2021-03-25T10:31:35Z</time>
      </trkpt>
      <trkpt lat="42.89657" lon="0.10517">
        <ele>1531.5</ele>
        <time>2021-03-25T10:31:37Z</time>
      </trkpt>
      <trkpt lat="42.89657" lon="0.10518">
        <ele>1531.6</ele>
        <time>2021-03-25T10:31:39Z</time>
      </trkpt>
      <trkpt lat="42.89657" lon="0.10518">
        <ele>1531.6</ele>
        <time>2021-03-25T10:31:40Z</time>
      </trkpt>
      <trkpt lat="42.89657" lon="0.1052">
        <ele>1531.7</ele>
        <time>2021-03-25T10:31:42Z</time>
      </trkpt>
      <trkpt lat="42.89657" lon="0.1052">
        <ele>1531.7</ele>
        <time>2021-03-25T10:31:44Z</time>
      </trkpt>
      <trkpt lat="42.89657" lon="0.10519">
        <ele>1531.7</ele>
        <time>2021-03-25T10:31:45Z</time>
      </trkpt>
      <trkpt lat="42.89657" lon="0.10519">
        <ele>1531.8</ele>
        <time>2021-03-25T10:31:47Z</time>
      </trkpt>
      <trkpt lat="42.89657" lon="0.10519">
        <ele>1531.8</ele>
        <time>2021-03-25T10:31:48Z</time>
      </trkpt>
      <trkpt lat="42.89657" lon="0.10519">
        <ele>1531.8</ele>
        <time>2021-03-25T10:31:50Z</time>
      </trkpt>
      <trkpt lat="42.89657" lon="0.10519">
        <ele>1531.8</ele>
        <time>2021-03-25T10:31:52Z</time>
      </trkpt>
      <trkpt lat="42.89657" lon="0.10519">
        <ele>1531.8</ele>
        <time>2021-03-25T10:31:53Z</time>
      </trkpt>
      <trkpt lat="42.89657" lon="0.10519">
        <ele>1531.8</ele>
        <time>2021-03-25T10:31:55Z</time>
      </trkpt>
      <trkpt lat="42.89657" lon="0.10519">
        <ele>1531.8</ele>
        <time>2021-03-25T10:31:56Z</time>
      </trkpt>
      <trkpt lat="42.89657" lon="0.10519">
        <ele>1531.8</ele>
        <time>2021-03-25T10:31:57Z</time>
      </trkpt>
      <trkpt lat="42.89657" lon="0.10519">
        <ele>1531.8</ele>
        <time>2021-03-25T10:31:58Z</time>
      </trkpt>
      <trkpt lat="42.89657" lon="0.10519">
        <ele>1531.8</ele>
        <time>2021-03-25T10:31:59Z</time>
      </trkpt>
      <trkpt lat="42.89657" lon="0.10519">
        <ele>1531.8</ele>
        <time>2021-03-25T10:32:01Z</time>
      </trkpt>
      <trkpt lat="42.89657" lon="0.10519">
        <ele>1531.8</ele>
        <time>2021-03-25T10:32:03Z</time>
      </trkpt>
      <trkpt lat="42.89657" lon="0.10519">
        <ele>1531.8</ele>
        <time>2021-03-25T10:32:04Z</time>
      </trkpt>
      <trkpt lat="42.89657" lon="0.10519">
        <ele>1531.8</ele>
        <time>2021-03-25T10:32:05Z</time>
      </trkpt>
      <trkpt lat="42.89657" lon="0.10519">
        <ele>1531.8</ele>
        <time>2021-03-25T10:32:07Z</time>
      </trkpt>
      <trkpt lat="42.89657" lon="0.10519">
        <ele>1531.8</ele>
        <time>2021-03-25T10:32:08Z</time>
      </trkpt>
      <trkpt lat="42.89657" lon="0.10519">
        <ele>1531.8</ele>
        <time>2021-03-25T10:32:10Z</time>
      </trkpt>
      <trkpt lat="42.89657" lon="0.10519">
        <ele>1531.8</ele>
        <time>2021-03-25T10:32:11Z</time>
      </trkpt>
      <trkpt lat="42.89657" lon="0.10519">
        <ele>1531.8</ele>
        <time>2021-03-25T10:32:13Z</time>
      </trkpt>
      <trkpt lat="42.89657" lon="0.10519">
        <ele>1531.8</ele>
        <time>2021-03-25T10:32:14Z</time>
      </trkpt>
      <trkpt lat="42.89657" lon="0.10519">
        <ele>1531.8</ele>
        <time>2021-03-25T10:32:16Z</time>
      </trkpt>
      <trkpt lat="42.89657" lon="0.10519">
        <ele>1531.8</ele>
        <time>2021-03-25T10:32:18Z</time>
      </trkpt>
      <trkpt lat="42.89657" lon="0.10519">
        <ele>1531.8</ele>
        <time>2021-03-25T10:32:19Z</time>
      </trkpt>
      <trkpt lat="42.89657" lon="0.1052">
        <ele>1531.9</ele>
        <time>2021-03-25T10:32:21Z</time>
      </trkpt>
      <trkpt lat="42.89657" lon="0.10521">
        <ele>1531.9</ele>
        <time>2021-03-25T10:32:23Z</time>
      </trkpt>
      <trkpt lat="42.89657" lon="0.1052">
        <ele>1532</ele>
        <time>2021-03-25T10:32:25Z</time>
      </trkpt>
      <trkpt lat="42.89657" lon="0.1052">
        <ele>1532</ele>
        <time>2021-03-25T10:32:26Z</time>
      </trkpt>
      <trkpt lat="42.89657" lon="0.1052">
        <ele>1532</ele>
        <time>2021-03-25T10:32:28Z</time>
      </trkpt>
      <trkpt lat="42.89657" lon="0.1052">
        <ele>1532</ele>
        <time>2021-03-25T10:32:30Z</time>
      </trkpt>
      <trkpt lat="42.89657" lon="0.1052">
        <ele>1532</ele>
        <time>2021-03-25T10:32:32Z</time>
      </trkpt>
      <trkpt lat="42.89657" lon="0.10519">
        <ele>1532.1</ele>
        <time>2021-03-25T10:32:33Z</time>
      </trkpt>
      <trkpt lat="42.89658" lon="0.10519">
        <ele>1532.1</ele>
        <time>2021-03-25T10:32:35Z</time>
      </trkpt>
      <trkpt lat="42.89658" lon="0.10519">
        <ele>1532.1</ele>
        <time>2021-03-25T10:32:36Z</time>
      </trkpt>
      <trkpt lat="42.89658" lon="0.10519">
        <ele>1532.1</ele>
        <time>2021-03-25T10:32:38Z</time>
      </trkpt>
      <trkpt lat="42.89658" lon="0.10519">
        <ele>1532.1</ele>
        <time>2021-03-25T10:32:40Z</time>
      </trkpt>
      <trkpt lat="42.89658" lon="0.10519">
        <ele>1532.1</ele>
        <time>2021-03-25T10:32:42Z</time>
      </trkpt>
      <trkpt lat="42.89657" lon="0.10519">
        <ele>1532.1</ele>
        <time>2021-03-25T10:32:43Z</time>
      </trkpt>
      <trkpt lat="42.89657" lon="0.10519">
        <ele>1532.1</ele>
        <time>2021-03-25T10:32:44Z</time>
      </trkpt>
      <trkpt lat="42.89657" lon="0.10519">
        <ele>1532.1</ele>
        <time>2021-03-25T10:32:45Z</time>
      </trkpt>
      <trkpt lat="42.89657" lon="0.10519">
        <ele>1532.1</ele>
        <time>2021-03-25T10:32:46Z</time>
      </trkpt>
      <trkpt lat="42.89657" lon="0.10519">
        <ele>1532.2</ele>
        <time>2021-03-25T10:32:48Z</time>
      </trkpt>
      <trkpt lat="42.89657" lon="0.10518">
        <ele>1532.2</ele>
        <time>2021-03-25T10:32:50Z</time>
      </trkpt>
      <trkpt lat="42.89657" lon="0.10517">
        <ele>1532.3</ele>
        <time>2021-03-25T10:32:52Z</time>
      </trkpt>
      <trkpt lat="42.89657" lon="0.10517">
        <ele>1532.4</ele>
        <time>2021-03-25T10:32:53Z</time>
      </trkpt>
      <trkpt lat="42.89657" lon="0.10518">
        <ele>1532.4</ele>
        <time>2021-03-25T10:32:55Z</time>
      </trkpt>
      <trkpt lat="42.89658" lon="0.10518">
        <ele>1532.4</ele>
        <time>2021-03-25T10:32:56Z</time>
      </trkpt>
      <trkpt lat="42.89658" lon="0.10518">
        <ele>1532.4</ele>
        <time>2021-03-25T10:32:58Z</time>
      </trkpt>
      <trkpt lat="42.89658" lon="0.10518">
        <ele>1532.5</ele>
        <time>2021-03-25T10:32:59Z</time>
      </trkpt>
      <trkpt lat="42.89658" lon="0.10518">
        <ele>1532.5</ele>
        <time>2021-03-25T10:33:01Z</time>
      </trkpt>
      <trkpt lat="42.89657" lon="0.10518">
        <ele>1532.5</ele>
        <time>2021-03-25T10:33:03Z</time>
      </trkpt>
      <trkpt lat="42.89658" lon="0.10518">
        <ele>1532.6</ele>
        <time>2021-03-25T10:33:04Z</time>
      </trkpt>
      <trkpt lat="42.89658" lon="0.10519">
        <ele>1532.6</ele>
        <time>2021-03-25T10:33:05Z</time>
      </trkpt>
      <trkpt lat="42.89658" lon="0.10519">
        <ele>1532.6</ele>
        <time>2021-03-25T10:33:06Z</time>
      </trkpt>
      <trkpt lat="42.89657" lon="0.10519">
        <ele>1532.7</ele>
        <time>2021-03-25T10:33:08Z</time>
      </trkpt>
      <trkpt lat="42.89657" lon="0.10519">
        <ele>1532.7</ele>
        <time>2021-03-25T10:33:09Z</time>
      </trkpt>
      <trkpt lat="42.89658" lon="0.10519">
        <ele>1532.7</ele>
        <time>2021-03-25T10:33:11Z</time>
      </trkpt>
      <trkpt lat="42.89659" lon="0.10518">
        <ele>1532.9</ele>
        <time>2021-03-25T10:33:13Z</time>
      </trkpt>
      <trkpt lat="42.89659" lon="0.10518">
        <ele>1532.9</ele>
        <time>2021-03-25T10:33:14Z</time>
      </trkpt>
      <trkpt lat="42.89659" lon="0.10517">
        <ele>1532.9</ele>
        <time>2021-03-25T10:33:15Z</time>
      </trkpt>
      <trkpt lat="42.89657" lon="0.10519">
        <ele>1533.2</ele>
        <time>2021-03-25T10:33:17Z</time>
      </trkpt>
      <trkpt lat="42.89657" lon="0.10518">
        <ele>1533.3</ele>
        <time>2021-03-25T10:33:19Z</time>
      </trkpt>
      <trkpt lat="42.89657" lon="0.10517">
        <ele>1533.3</ele>
        <time>2021-03-25T10:33:21Z</time>
      </trkpt>
      <trkpt lat="42.89655" lon="0.10518">
        <ele>1533.5</ele>
        <time>2021-03-25T10:33:23Z</time>
      </trkpt>
      <trkpt lat="42.89653" lon="0.10519">
        <ele>1533.7</ele>
        <time>2021-03-25T10:33:25Z</time>
      </trkpt>
      <trkpt lat="42.89652" lon="0.10518">
        <ele>1533.8</ele>
        <time>2021-03-25T10:33:27Z</time>
      </trkpt>
      <trkpt lat="42.89652" lon="0.10518">
        <ele>1533.8</ele>
        <time>2021-03-25T10:33:28Z</time>
      </trkpt>
      <trkpt lat="42.89652" lon="0.10518">
        <ele>1533.8</ele>
        <time>2021-03-25T10:33:30Z</time>
      </trkpt>
      <trkpt lat="42.89653" lon="0.10518">
        <ele>1533.9</ele>
        <time>2021-03-25T10:33:31Z</time>
      </trkpt>
      <trkpt lat="42.89653" lon="0.10517">
        <ele>1533.9</ele>
        <time>2021-03-25T10:33:32Z</time>
      </trkpt>
      <trkpt lat="42.89653" lon="0.10517">
        <ele>1533.9</ele>
        <time>2021-03-25T10:33:33Z</time>
      </trkpt>
      <trkpt lat="42.89653" lon="0.10517">
        <ele>1533.9</ele>
        <time>2021-03-25T10:33:35Z</time>
      </trkpt>
      <trkpt lat="42.89653" lon="0.10517">
        <ele>1534</ele>
        <time>2021-03-25T10:33:37Z</time>
      </trkpt>
      <trkpt lat="42.89654" lon="0.10516">
        <ele>1534</ele>
        <time>2021-03-25T10:33:38Z</time>
      </trkpt>
      <trkpt lat="42.89654" lon="0.10516">
        <ele>1534</ele>
        <time>2021-03-25T10:33:39Z</time>
      </trkpt>
      <trkpt lat="42.89654" lon="0.10516">
        <ele>1534</ele>
        <time>2021-03-25T10:33:40Z</time>
      </trkpt>
      <trkpt lat="42.89654" lon="0.10516">
        <ele>1534.1</ele>
        <time>2021-03-25T10:33:42Z</time>
      </trkpt>
      <trkpt lat="42.89655" lon="0.10516">
        <ele>1534.1</ele>
        <time>2021-03-25T10:33:44Z</time>
      </trkpt>
      <trkpt lat="42.89655" lon="0.10515">
        <ele>1534.1</ele>
        <time>2021-03-25T10:33:46Z</time>
      </trkpt>
      <trkpt lat="42.89655" lon="0.10515">
        <ele>1534.1</ele>
        <time>2021-03-25T10:33:48Z</time>
      </trkpt>
      <trkpt lat="42.89655" lon="0.10515">
        <ele>1534.2</ele>
        <time>2021-03-25T10:33:49Z</time>
      </trkpt>
      <trkpt lat="42.89655" lon="0.10515">
        <ele>1534.2</ele>
        <time>2021-03-25T10:33:50Z</time>
      </trkpt>
      <trkpt lat="42.89656" lon="0.10514">
        <ele>1534.2</ele>
        <time>2021-03-25T10:33:51Z</time>
      </trkpt>
      <trkpt lat="42.89656" lon="0.10514">
        <ele>1534.2</ele>
        <time>2021-03-25T10:33:53Z</time>
      </trkpt>
      <trkpt lat="42.89656" lon="0.10514">
        <ele>1534.2</ele>
        <time>2021-03-25T10:33:54Z</time>
      </trkpt>
      <trkpt lat="42.89656" lon="0.10514">
        <ele>1534.3</ele>
        <time>2021-03-25T10:33:55Z</time>
      </trkpt>
      <trkpt lat="42.89657" lon="0.10513">
        <ele>1534.3</ele>
        <time>2021-03-25T10:33:56Z</time>
      </trkpt>
      <trkpt lat="42.89657" lon="0.10513">
        <ele>1534.3</ele>
        <time>2021-03-25T10:33:57Z</time>
      </trkpt>
      <trkpt lat="42.89658" lon="0.1051">
        <ele>1534.6</ele>
        <time>2021-03-25T10:33:58Z</time>
      </trkpt>
      <trkpt lat="42.89659" lon="0.10505">
        <ele>1534.9</ele>
        <time>2021-03-25T10:34:00Z</time>
      </trkpt>
      <trkpt lat="42.8966" lon="0.10503">
        <ele>1535</ele>
        <time>2021-03-25T10:34:01Z</time>
      </trkpt>
      <trkpt lat="42.8966" lon="0.10501">
        <ele>1535.1</ele>
        <time>2021-03-25T10:34:02Z</time>
      </trkpt>
      <trkpt lat="42.89659" lon="0.105">
        <ele>1535.2</ele>
        <time>2021-03-25T10:34:03Z</time>
      </trkpt>
      <trkpt lat="42.89658" lon="0.10498">
        <ele>1535.3</ele>
        <time>2021-03-25T10:34:05Z</time>
      </trkpt>
      <trkpt lat="42.89658" lon="0.10496">
        <ele>1535.4</ele>
        <time>2021-03-25T10:34:06Z</time>
      </trkpt>
      <trkpt lat="42.89657" lon="0.10494">
        <ele>1535.5</ele>
        <time>2021-03-25T10:34:07Z</time>
      </trkpt>
      <trkpt lat="42.89655" lon="0.10494">
        <ele>1535.7</ele>
        <time>2021-03-25T10:34:08Z</time>
      </trkpt>
      <trkpt lat="42.89653" lon="0.10493">
        <ele>1535.8</ele>
        <time>2021-03-25T10:34:10Z</time>
      </trkpt>
      <trkpt lat="42.89652" lon="0.10492">
        <ele>1535.9</ele>
        <time>2021-03-25T10:34:11Z</time>
      </trkpt>
      <trkpt lat="42.89651" lon="0.10491">
        <ele>1536</ele>
        <time>2021-03-25T10:34:12Z</time>
      </trkpt>
      <trkpt lat="42.89649" lon="0.1049">
        <ele>1536.4</ele>
        <time>2021-03-25T10:34:14Z</time>
      </trkpt>
      <trkpt lat="42.89647" lon="0.1049">
        <ele>1536.6</ele>
        <time>2021-03-25T10:34:15Z</time>
      </trkpt>
      <trkpt lat="42.89646" lon="0.10489">
        <ele>1536.8</ele>
        <time>2021-03-25T10:34:16Z</time>
      </trkpt>
      <trkpt lat="42.89645" lon="0.10488">
        <ele>1536.9</ele>
        <time>2021-03-25T10:34:18Z</time>
      </trkpt>
      <trkpt lat="42.89644" lon="0.10487">
        <ele>1537</ele>
        <time>2021-03-25T10:34:19Z</time>
      </trkpt>
      <trkpt lat="42.89643" lon="0.10487">
        <ele>1537.1</ele>
        <time>2021-03-25T10:34:20Z</time>
      </trkpt>
      <trkpt lat="42.89642" lon="0.10486">
        <ele>1537.2</ele>
        <time>2021-03-25T10:34:21Z</time>
      </trkpt>
      <trkpt lat="42.89641" lon="0.10485">
        <ele>1537.4</ele>
        <time>2021-03-25T10:34:23Z</time>
      </trkpt>
      <trkpt lat="42.89639" lon="0.10483">
        <ele>1537.6</ele>
        <time>2021-03-25T10:34:24Z</time>
      </trkpt>
      <trkpt lat="42.89638" lon="0.10483">
        <ele>1537.7</ele>
        <time>2021-03-25T10:34:25Z</time>
      </trkpt>
      <trkpt lat="42.89637" lon="0.10482">
        <ele>1537.8</ele>
        <time>2021-03-25T10:34:26Z</time>
      </trkpt>
      <trkpt lat="42.89635" lon="0.10479">
        <ele>1538.1</ele>
        <time>2021-03-25T10:34:28Z</time>
      </trkpt>
      <trkpt lat="42.89634" lon="0.10478">
        <ele>1538.2</ele>
        <time>2021-03-25T10:34:29Z</time>
      </trkpt>
      <trkpt lat="42.89632" lon="0.10477">
        <ele>1538.3</ele>
        <time>2021-03-25T10:34:30Z</time>
      </trkpt>
      <trkpt lat="42.8963" lon="0.10476">
        <ele>1538.5</ele>
        <time>2021-03-25T10:34:32Z</time>
      </trkpt>
      <trkpt lat="42.89629" lon="0.10475">
        <ele>1538.7</ele>
        <time>2021-03-25T10:34:33Z</time>
      </trkpt>
      <trkpt lat="42.89626" lon="0.10474">
        <ele>1538.9</ele>
        <time>2021-03-25T10:34:35Z</time>
      </trkpt>
      <trkpt lat="42.89624" lon="0.10474">
        <ele>1539.1</ele>
        <time>2021-03-25T10:34:36Z</time>
      </trkpt>
      <trkpt lat="42.89623" lon="0.10473">
        <ele>1539.2</ele>
        <time>2021-03-25T10:34:38Z</time>
      </trkpt>
      <trkpt lat="42.89622" lon="0.10473">
        <ele>1539.3</ele>
        <time>2021-03-25T10:34:39Z</time>
      </trkpt>
      <trkpt lat="42.89621" lon="0.10472">
        <ele>1539.4</ele>
        <time>2021-03-25T10:34:40Z</time>
      </trkpt>
      <trkpt lat="42.8962" lon="0.10472">
        <ele>1539.5</ele>
        <time>2021-03-25T10:34:41Z</time>
      </trkpt>
      <trkpt lat="42.89618" lon="0.10471">
        <ele>1539.7</ele>
        <time>2021-03-25T10:34:43Z</time>
      </trkpt>
      <trkpt lat="42.89618" lon="0.10467">
        <ele>1539.9</ele>
        <time>2021-03-25T10:34:45Z</time>
      </trkpt>
      <trkpt lat="42.89617" lon="0.10466">
        <ele>1540</ele>
        <time>2021-03-25T10:34:46Z</time>
      </trkpt>
      <trkpt lat="42.89616" lon="0.10465">
        <ele>1540.1</ele>
        <time>2021-03-25T10:34:47Z</time>
      </trkpt>
      <trkpt lat="42.89615" lon="0.10463">
        <ele>1540.2</ele>
        <time>2021-03-25T10:34:48Z</time>
      </trkpt>
      <trkpt lat="42.89615" lon="0.10461">
        <ele>1540.4</ele>
        <time>2021-03-25T10:34:50Z</time>
      </trkpt>
      <trkpt lat="42.89614" lon="0.1046">
        <ele>1540.5</ele>
        <time>2021-03-25T10:34:51Z</time>
      </trkpt>
      <trkpt lat="42.89612" lon="0.10459">
        <ele>1540.7</ele>
        <time>2021-03-25T10:34:53Z</time>
      </trkpt>
      <trkpt lat="42.89612" lon="0.10459">
        <ele>1540.8</ele>
        <time>2021-03-25T10:34:54Z</time>
      </trkpt>
      <trkpt lat="42.89611" lon="0.10459">
        <ele>1540.8</ele>
        <time>2021-03-25T10:34:55Z</time>
      </trkpt>
      <trkpt lat="42.89609" lon="0.10458">
        <ele>1541</ele>
        <time>2021-03-25T10:34:56Z</time>
      </trkpt>
      <trkpt lat="42.89607" lon="0.10459">
        <ele>1541.2</ele>
        <time>2021-03-25T10:34:58Z</time>
      </trkpt>
      <trkpt lat="42.89606" lon="0.10459">
        <ele>1541.3</ele>
        <time>2021-03-25T10:34:59Z</time>
      </trkpt>
      <trkpt lat="42.89603" lon="0.10459">
        <ele>1541.6</ele>
        <time>2021-03-25T10:35:01Z</time>
      </trkpt>
      <trkpt lat="42.89602" lon="0.1046">
        <ele>1541.7</ele>
        <time>2021-03-25T10:35:02Z</time>
      </trkpt>
      <trkpt lat="42.89599" lon="0.1046">
        <ele>1542</ele>
        <time>2021-03-25T10:35:04Z</time>
      </trkpt>
      <trkpt lat="42.89597" lon="0.10461">
        <ele>1542.2</ele>
        <time>2021-03-25T10:35:06Z</time>
      </trkpt>
      <trkpt lat="42.89596" lon="0.10461">
        <ele>1542.3</ele>
        <time>2021-03-25T10:35:07Z</time>
      </trkpt>
      <trkpt lat="42.89594" lon="0.10461">
        <ele>1542.5</ele>
        <time>2021-03-25T10:35:09Z</time>
      </trkpt>
      <trkpt lat="42.89593" lon="0.10461">
        <ele>1542.6</ele>
        <time>2021-03-25T10:35:10Z</time>
      </trkpt>
      <trkpt lat="42.89591" lon="0.10461">
        <ele>1542.8</ele>
        <time>2021-03-25T10:35:11Z</time>
      </trkpt>
      <trkpt lat="42.8959" lon="0.10461">
        <ele>1542.9</ele>
        <time>2021-03-25T10:35:12Z</time>
      </trkpt>
      <trkpt lat="42.89589" lon="0.10461">
        <ele>1543</ele>
        <time>2021-03-25T10:35:13Z</time>
      </trkpt>
      <trkpt lat="42.89587" lon="0.10461">
        <ele>1543.2</ele>
        <time>2021-03-25T10:35:14Z</time>
      </trkpt>
      <trkpt lat="42.89586" lon="0.1046">
        <ele>1543.3</ele>
        <time>2021-03-25T10:35:16Z</time>
      </trkpt>
      <trkpt lat="42.89584" lon="0.1046">
        <ele>1543.5</ele>
        <time>2021-03-25T10:35:17Z</time>
      </trkpt>
      <trkpt lat="42.89583" lon="0.10458">
        <ele>1543.7</ele>
        <time>2021-03-25T10:35:18Z</time>
      </trkpt>
      <trkpt lat="42.89581" lon="0.10455">
        <ele>1543.9</ele>
        <time>2021-03-25T10:35:19Z</time>
      </trkpt>
      <trkpt lat="42.89579" lon="0.10452">
        <ele>1544.2</ele>
        <time>2021-03-25T10:35:21Z</time>
      </trkpt>
      <trkpt lat="42.89578" lon="0.10452">
        <ele>1544.4</ele>
        <time>2021-03-25T10:35:22Z</time>
      </trkpt>
      <trkpt lat="42.89577" lon="0.10451">
        <ele>1544.5</ele>
        <time>2021-03-25T10:35:23Z</time>
      </trkpt>
      <trkpt lat="42.89575" lon="0.10451">
        <ele>1544.6</ele>
        <time>2021-03-25T10:35:25Z</time>
      </trkpt>
      <trkpt lat="42.89574" lon="0.10451">
        <ele>1544.8</ele>
        <time>2021-03-25T10:35:26Z</time>
      </trkpt>
      <trkpt lat="42.89572" lon="0.10451">
        <ele>1544.9</ele>
        <time>2021-03-25T10:35:27Z</time>
      </trkpt>
      <trkpt lat="42.89571" lon="0.1045">
        <ele>1545.1</ele>
        <time>2021-03-25T10:35:28Z</time>
      </trkpt>
      <trkpt lat="42.89569" lon="0.1045">
        <ele>1545.2</ele>
        <time>2021-03-25T10:35:29Z</time>
      </trkpt>
      <trkpt lat="42.89568" lon="0.10449">
        <ele>1545.4</ele>
        <time>2021-03-25T10:35:31Z</time>
      </trkpt>
      <trkpt lat="42.89567" lon="0.10448">
        <ele>1545.5</ele>
        <time>2021-03-25T10:35:32Z</time>
      </trkpt>
      <trkpt lat="42.89566" lon="0.10448">
        <ele>1545.6</ele>
        <time>2021-03-25T10:35:33Z</time>
      </trkpt>
      <trkpt lat="42.89565" lon="0.10448">
        <ele>1545.7</ele>
        <time>2021-03-25T10:35:34Z</time>
      </trkpt>
      <trkpt lat="42.89564" lon="0.10447">
        <ele>1545.8</ele>
        <time>2021-03-25T10:35:35Z</time>
      </trkpt>
      <trkpt lat="42.89563" lon="0.10448">
        <ele>1545.9</ele>
        <time>2021-03-25T10:35:36Z</time>
      </trkpt>
      <trkpt lat="42.8956" lon="0.10448">
        <ele>1546.1</ele>
        <time>2021-03-25T10:35:38Z</time>
      </trkpt>
      <trkpt lat="42.89559" lon="0.10448">
        <ele>1546.3</ele>
        <time>2021-03-25T10:35:39Z</time>
      </trkpt>
      <trkpt lat="42.89556" lon="0.10449">
        <ele>1546.6</ele>
        <time>2021-03-25T10:35:41Z</time>
      </trkpt>
      <trkpt lat="42.89554" lon="0.1045">
        <ele>1546.8</ele>
        <time>2021-03-25T10:35:42Z</time>
      </trkpt>
      <trkpt lat="42.89552" lon="0.10453">
        <ele>1546.9</ele>
        <time>2021-03-25T10:35:44Z</time>
      </trkpt>
      <trkpt lat="42.8955" lon="0.10456">
        <ele>1546.9</ele>
        <time>2021-03-25T10:35:45Z</time>
      </trkpt>
      <trkpt lat="42.8955" lon="0.10457">
        <ele>1546.9</ele>
        <time>2021-03-25T10:35:46Z</time>
      </trkpt>
      <trkpt lat="42.89547" lon="0.10459">
        <ele>1546.9</ele>
        <time>2021-03-25T10:35:48Z</time>
      </trkpt>
      <trkpt lat="42.89546" lon="0.10461">
        <ele>1546.9</ele>
        <time>2021-03-25T10:35:49Z</time>
      </trkpt>
      <trkpt lat="42.89545" lon="0.10462">
        <ele>1546.9</ele>
        <time>2021-03-25T10:35:50Z</time>
      </trkpt>
      <trkpt lat="42.89544" lon="0.10463">
        <ele>1546.9</ele>
        <time>2021-03-25T10:35:52Z</time>
      </trkpt>
      <trkpt lat="42.89543" lon="0.10465">
        <ele>1546.9</ele>
        <time>2021-03-25T10:35:53Z</time>
      </trkpt>
      <trkpt lat="42.89542" lon="0.10467">
        <ele>1546.9</ele>
        <time>2021-03-25T10:35:54Z</time>
      </trkpt>
      <trkpt lat="42.89541" lon="0.10469">
        <ele>1546.9</ele>
        <time>2021-03-25T10:35:55Z</time>
      </trkpt>
      <trkpt lat="42.89541" lon="0.10471">
        <ele>1546.8</ele>
        <time>2021-03-25T10:35:56Z</time>
      </trkpt>
      <trkpt lat="42.8954" lon="0.10472">
        <ele>1546.8</ele>
        <time>2021-03-25T10:35:57Z</time>
      </trkpt>
      <trkpt lat="42.8954" lon="0.10473">
        <ele>1546.8</ele>
        <time>2021-03-25T10:35:58Z</time>
      </trkpt>
      <trkpt lat="42.89541" lon="0.10478">
        <ele>1546.8</ele>
        <time>2021-03-25T10:35:59Z</time>
      </trkpt>
      <trkpt lat="42.89541" lon="0.1048">
        <ele>1546.8</ele>
        <time>2021-03-25T10:36:01Z</time>
      </trkpt>
      <trkpt lat="42.89542" lon="0.10482">
        <ele>1546.8</ele>
        <time>2021-03-25T10:36:02Z</time>
      </trkpt>
      <trkpt lat="42.89542" lon="0.10484">
        <ele>1546.8</ele>
        <time>2021-03-25T10:36:03Z</time>
      </trkpt>
      <trkpt lat="42.89543" lon="0.10488">
        <ele>1546.8</ele>
        <time>2021-03-25T10:36:04Z</time>
      </trkpt>
      <trkpt lat="42.89543" lon="0.10489">
        <ele>1546.8</ele>
        <time>2021-03-25T10:36:05Z</time>
      </trkpt>
      <trkpt lat="42.89542" lon="0.10492">
        <ele>1546.8</ele>
        <time>2021-03-25T10:36:06Z</time>
      </trkpt>
      <trkpt lat="42.89541" lon="0.10494">
        <ele>1546.9</ele>
        <time>2021-03-25T10:36:07Z</time>
      </trkpt>
      <trkpt lat="42.89541" lon="0.10496">
        <ele>1546.9</ele>
        <time>2021-03-25T10:36:08Z</time>
      </trkpt>
      <trkpt lat="42.8954" lon="0.10498">
        <ele>1546.9</ele>
        <time>2021-03-25T10:36:10Z</time>
      </trkpt>
      <trkpt lat="42.89539" lon="0.105">
        <ele>1546.9</ele>
        <time>2021-03-25T10:36:11Z</time>
      </trkpt>
      <trkpt lat="42.89538" lon="0.10502">
        <ele>1546.9</ele>
        <time>2021-03-25T10:36:12Z</time>
      </trkpt>
      <trkpt lat="42.89537" lon="0.10503">
        <ele>1546.9</ele>
        <time>2021-03-25T10:36:13Z</time>
      </trkpt>
      <trkpt lat="42.89537" lon="0.10505">
        <ele>1546.9</ele>
        <time>2021-03-25T10:36:14Z</time>
      </trkpt>
      <trkpt lat="42.89536" lon="0.10507">
        <ele>1546.9</ele>
        <time>2021-03-25T10:36:16Z</time>
      </trkpt>
      <trkpt lat="42.89535" lon="0.10509">
        <ele>1547</ele>
        <time>2021-03-25T10:36:17Z</time>
      </trkpt>
      <trkpt lat="42.89534" lon="0.10511">
        <ele>1547</ele>
        <time>2021-03-25T10:36:18Z</time>
      </trkpt>
      <trkpt lat="42.89534" lon="0.10513">
        <ele>1547</ele>
        <time>2021-03-25T10:36:19Z</time>
      </trkpt>
      <trkpt lat="42.89533" lon="0.10517">
        <ele>1547</ele>
        <time>2021-03-25T10:36:21Z</time>
      </trkpt>
      <trkpt lat="42.89532" lon="0.10518">
        <ele>1547.1</ele>
        <time>2021-03-25T10:36:22Z</time>
      </trkpt>
      <trkpt lat="42.89531" lon="0.1052">
        <ele>1547.1</ele>
        <time>2021-03-25T10:36:24Z</time>
      </trkpt>
      <trkpt lat="42.89529" lon="0.10522">
        <ele>1547.1</ele>
        <time>2021-03-25T10:36:25Z</time>
      </trkpt>
      <trkpt lat="42.89527" lon="0.10523">
        <ele>1547.2</ele>
        <time>2021-03-25T10:36:27Z</time>
      </trkpt>
      <trkpt lat="42.89526" lon="0.10524">
        <ele>1547.2</ele>
        <time>2021-03-25T10:36:28Z</time>
      </trkpt>
      <trkpt lat="42.89525" lon="0.10525">
        <ele>1547.2</ele>
        <time>2021-03-25T10:36:29Z</time>
      </trkpt>
      <trkpt lat="42.89524" lon="0.10525">
        <ele>1547.2</ele>
        <time>2021-03-25T10:36:30Z</time>
      </trkpt>
      <trkpt lat="42.89523" lon="0.10526">
        <ele>1547.3</ele>
        <time>2021-03-25T10:36:32Z</time>
      </trkpt>
      <trkpt lat="42.89522" lon="0.10526">
        <ele>1547.3</ele>
        <time>2021-03-25T10:36:33Z</time>
      </trkpt>
      <trkpt lat="42.89522" lon="0.10527">
        <ele>1547.3</ele>
        <time>2021-03-25T10:36:34Z</time>
      </trkpt>
      <trkpt lat="42.89521" lon="0.10527">
        <ele>1547.3</ele>
        <time>2021-03-25T10:36:36Z</time>
      </trkpt>
      <trkpt lat="42.8952" lon="0.10527">
        <ele>1547.3</ele>
        <time>2021-03-25T10:36:37Z</time>
      </trkpt>
      <trkpt lat="42.89519" lon="0.10527">
        <ele>1547.4</ele>
        <time>2021-03-25T10:36:39Z</time>
      </trkpt>
      <trkpt lat="42.89518" lon="0.10528">
        <ele>1547.4</ele>
        <time>2021-03-25T10:36:40Z</time>
      </trkpt>
      <trkpt lat="42.89518" lon="0.10529">
        <ele>1547.4</ele>
        <time>2021-03-25T10:36:41Z</time>
      </trkpt>
      <trkpt lat="42.89518" lon="0.1053">
        <ele>1547.5</ele>
        <time>2021-03-25T10:36:42Z</time>
      </trkpt>
      <trkpt lat="42.89517" lon="0.10531">
        <ele>1547.5</ele>
        <time>2021-03-25T10:36:43Z</time>
      </trkpt>
      <trkpt lat="42.89516" lon="0.10531">
        <ele>1547.5</ele>
        <time>2021-03-25T10:36:45Z</time>
      </trkpt>
      <trkpt lat="42.89515" lon="0.10531">
        <ele>1547.6</ele>
        <time>2021-03-25T10:36:46Z</time>
      </trkpt>
      <trkpt lat="42.89513" lon="0.10532">
        <ele>1547.6</ele>
        <time>2021-03-25T10:36:48Z</time>
      </trkpt>
      <trkpt lat="42.89511" lon="0.10533">
        <ele>1547.7</ele>
        <time>2021-03-25T10:36:49Z</time>
      </trkpt>
      <trkpt lat="42.8951" lon="0.10533">
        <ele>1547.7</ele>
        <time>2021-03-25T10:36:50Z</time>
      </trkpt>
      <trkpt lat="42.89509" lon="0.10534">
        <ele>1547.7</ele>
        <time>2021-03-25T10:36:52Z</time>
      </trkpt>
      <trkpt lat="42.89507" lon="0.10534">
        <ele>1547.8</ele>
        <time>2021-03-25T10:36:53Z</time>
      </trkpt>
      <trkpt lat="42.89506" lon="0.10535">
        <ele>1547.8</ele>
        <time>2021-03-25T10:36:54Z</time>
      </trkpt>
      <trkpt lat="42.89504" lon="0.10535">
        <ele>1547.9</ele>
        <time>2021-03-25T10:36:56Z</time>
      </trkpt>
      <trkpt lat="42.89503" lon="0.10535">
        <ele>1547.9</ele>
        <time>2021-03-25T10:36:57Z</time>
      </trkpt>
      <trkpt lat="42.89503" lon="0.10535">
        <ele>1548</ele>
        <time>2021-03-25T10:36:58Z</time>
      </trkpt>
      <trkpt lat="42.89503" lon="0.10536">
        <ele>1548</ele>
        <time>2021-03-25T10:37:00Z</time>
      </trkpt>
      <trkpt lat="42.89502" lon="0.10536">
        <ele>1548</ele>
        <time>2021-03-25T10:37:01Z</time>
      </trkpt>
      <trkpt lat="42.89502" lon="0.10537">
        <ele>1548</ele>
        <time>2021-03-25T10:37:03Z</time>
      </trkpt>
      <trkpt lat="42.89501" lon="0.10538">
        <ele>1548.1</ele>
        <time>2021-03-25T10:37:04Z</time>
      </trkpt>
      <trkpt lat="42.895" lon="0.10539">
        <ele>1548.1</ele>
        <time>2021-03-25T10:37:06Z</time>
      </trkpt>
      <trkpt lat="42.895" lon="0.1054">
        <ele>1548.1</ele>
        <time>2021-03-25T10:37:07Z</time>
      </trkpt>
      <trkpt lat="42.89499" lon="0.10541">
        <ele>1548.1</ele>
        <time>2021-03-25T10:37:09Z</time>
      </trkpt>
      <trkpt lat="42.89498" lon="0.10541">
        <ele>1548.2</ele>
        <time>2021-03-25T10:37:10Z</time>
      </trkpt>
      <trkpt lat="42.89497" lon="0.10542">
        <ele>1548.2</ele>
        <time>2021-03-25T10:37:12Z</time>
      </trkpt>
      <trkpt lat="42.89496" lon="0.10543">
        <ele>1548.3</ele>
        <time>2021-03-25T10:37:13Z</time>
      </trkpt>
      <trkpt lat="42.89495" lon="0.10545">
        <ele>1548.4</ele>
        <time>2021-03-25T10:37:15Z</time>
      </trkpt>
      <trkpt lat="42.89495" lon="0.10546">
        <ele>1548.4</ele>
        <time>2021-03-25T10:37:16Z</time>
      </trkpt>
      <trkpt lat="42.89494" lon="0.10547">
        <ele>1548.4</ele>
        <time>2021-03-25T10:37:17Z</time>
      </trkpt>
      <trkpt lat="42.89494" lon="0.10548">
        <ele>1548.5</ele>
        <time>2021-03-25T10:37:19Z</time>
      </trkpt>
      <trkpt lat="42.89494" lon="0.10548">
        <ele>1548.5</ele>
        <time>2021-03-25T10:37:20Z</time>
      </trkpt>
      <trkpt lat="42.89494" lon="0.10548">
        <ele>1548.5</ele>
        <time>2021-03-25T10:37:21Z</time>
      </trkpt>
      <trkpt lat="42.89493" lon="0.10548">
        <ele>1548.5</ele>
        <time>2021-03-25T10:37:23Z</time>
      </trkpt>
      <trkpt lat="42.89493" lon="0.10548">
        <ele>1548.5</ele>
        <time>2021-03-25T10:37:24Z</time>
      </trkpt>
      <trkpt lat="42.89493" lon="0.10548">
        <ele>1548.5</ele>
        <time>2021-03-25T10:37:26Z</time>
      </trkpt>
      <trkpt lat="42.89493" lon="0.10548">
        <ele>1548.5</ele>
        <time>2021-03-25T10:37:27Z</time>
      </trkpt>
      <trkpt lat="42.89493" lon="0.10548">
        <ele>1548.5</ele>
        <time>2021-03-25T10:37:28Z</time>
      </trkpt>
      <trkpt lat="42.89493" lon="0.10548">
        <ele>1548.5</ele>
        <time>2021-03-25T10:37:30Z</time>
      </trkpt>
      <trkpt lat="42.89493" lon="0.10549">
        <ele>1548.5</ele>
        <time>2021-03-25T10:37:32Z</time>
      </trkpt>
      <trkpt lat="42.89493" lon="0.10549">
        <ele>1548.5</ele>
        <time>2021-03-25T10:37:33Z</time>
      </trkpt>
      <trkpt lat="42.89492" lon="0.10549">
        <ele>1548.5</ele>
        <time>2021-03-25T10:37:35Z</time>
      </trkpt>
      <trkpt lat="42.89492" lon="0.10549">
        <ele>1548.5</ele>
        <time>2021-03-25T10:37:37Z</time>
      </trkpt>
      <trkpt lat="42.89492" lon="0.10549">
        <ele>1548.6</ele>
        <time>2021-03-25T10:37:38Z</time>
      </trkpt>
      <trkpt lat="42.89492" lon="0.10549">
        <ele>1548.6</ele>
        <time>2021-03-25T10:37:39Z</time>
      </trkpt>
      <trkpt lat="42.89492" lon="0.10549">
        <ele>1548.6</ele>
        <time>2021-03-25T10:37:41Z</time>
      </trkpt>
      <trkpt lat="42.89493" lon="0.10548">
        <ele>1548.6</ele>
        <time>2021-03-25T10:37:43Z</time>
      </trkpt>
      <trkpt lat="42.89494" lon="0.10548">
        <ele>1548.6</ele>
        <time>2021-03-25T10:37:45Z</time>
      </trkpt>
      <trkpt lat="42.89495" lon="0.10547">
        <ele>1548.7</ele>
        <time>2021-03-25T10:37:47Z</time>
      </trkpt>
      <trkpt lat="42.89496" lon="0.10546">
        <ele>1548.7</ele>
        <time>2021-03-25T10:37:48Z</time>
      </trkpt>
      <trkpt lat="42.89495" lon="0.10545">
        <ele>1548.8</ele>
        <time>2021-03-25T10:37:50Z</time>
      </trkpt>
      <trkpt lat="42.89495" lon="0.10543">
        <ele>1548.8</ele>
        <time>2021-03-25T10:37:51Z</time>
      </trkpt>
      <trkpt lat="42.89494" lon="0.10542">
        <ele>1548.9</ele>
        <time>2021-03-25T10:37:53Z</time>
      </trkpt>
      <trkpt lat="42.89494" lon="0.10542">
        <ele>1548.9</ele>
        <time>2021-03-25T10:37:54Z</time>
      </trkpt>
      <trkpt lat="42.89494" lon="0.10542">
        <ele>1548.9</ele>
        <time>2021-03-25T10:37:55Z</time>
      </trkpt>
      <trkpt lat="42.89494" lon="0.10543">
        <ele>1548.9</ele>
        <time>2021-03-25T10:37:57Z</time>
      </trkpt>
      <trkpt lat="42.89494" lon="0.10543">
        <ele>1548.9</ele>
        <time>2021-03-25T10:37:58Z</time>
      </trkpt>
      <trkpt lat="42.89494" lon="0.10543">
        <ele>1548.9</ele>
        <time>2021-03-25T10:38:00Z</time>
      </trkpt>
      <trkpt lat="42.89494" lon="0.10543">
        <ele>1548.9</ele>
        <time>2021-03-25T10:38:01Z</time>
      </trkpt>
      <trkpt lat="42.89494" lon="0.10543">
        <ele>1548.9</ele>
        <time>2021-03-25T10:38:02Z</time>
      </trkpt>
      <trkpt lat="42.89494" lon="0.10544">
        <ele>1548.9</ele>
        <time>2021-03-25T10:38:04Z</time>
      </trkpt>
      <trkpt lat="42.89494" lon="0.10544">
        <ele>1548.9</ele>
        <time>2021-03-25T10:38:05Z</time>
      </trkpt>
      <trkpt lat="42.89494" lon="0.10544">
        <ele>1548.9</ele>
        <time>2021-03-25T10:38:07Z</time>
      </trkpt>
      <trkpt lat="42.89494" lon="0.10544">
        <ele>1548.9</ele>
        <time>2021-03-25T10:38:09Z</time>
      </trkpt>
      <trkpt lat="42.89494" lon="0.10544">
        <ele>1548.9</ele>
        <time>2021-03-25T10:38:11Z</time>
      </trkpt>
      <trkpt lat="42.89494" lon="0.10544">
        <ele>1548.9</ele>
        <time>2021-03-25T10:38:13Z</time>
      </trkpt>
      <trkpt lat="42.89494" lon="0.10544">
        <ele>1548.9</ele>
        <time>2021-03-25T10:38:14Z</time>
      </trkpt>
      <trkpt lat="42.89494" lon="0.10544">
        <ele>1548.9</ele>
        <time>2021-03-25T10:38:16Z</time>
      </trkpt>
      <trkpt lat="42.89494" lon="0.10544">
        <ele>1548.9</ele>
        <time>2021-03-25T10:38:17Z</time>
      </trkpt>
      <trkpt lat="42.89494" lon="0.10544">
        <ele>1548.9</ele>
        <time>2021-03-25T10:38:18Z</time>
      </trkpt>
      <trkpt lat="42.89494" lon="0.10544">
        <ele>1548.9</ele>
        <time>2021-03-25T10:38:20Z</time>
      </trkpt>
      <trkpt lat="42.89494" lon="0.10544">
        <ele>1548.9</ele>
        <time>2021-03-25T10:38:21Z</time>
      </trkpt>
      <trkpt lat="42.89494" lon="0.10544">
        <ele>1548.9</ele>
        <time>2021-03-25T10:38:22Z</time>
      </trkpt>
      <trkpt lat="42.89494" lon="0.10545">
        <ele>1549</ele>
        <time>2021-03-25T10:38:23Z</time>
      </trkpt>
      <trkpt lat="42.89494" lon="0.10549">
        <ele>1549.1</ele>
        <time>2021-03-25T10:38:25Z</time>
      </trkpt>
      <trkpt lat="42.89493" lon="0.10551">
        <ele>1549.2</ele>
        <time>2021-03-25T10:38:26Z</time>
      </trkpt>
      <trkpt lat="42.89494" lon="0.10552">
        <ele>1549.2</ele>
        <time>2021-03-25T10:38:27Z</time>
      </trkpt>
      <trkpt lat="42.89494" lon="0.10554">
        <ele>1549.3</ele>
        <time>2021-03-25T10:38:28Z</time>
      </trkpt>
      <trkpt lat="42.89495" lon="0.10555">
        <ele>1549.3</ele>
        <time>2021-03-25T10:38:30Z</time>
      </trkpt>
      <trkpt lat="42.89495" lon="0.10556">
        <ele>1549.4</ele>
        <time>2021-03-25T10:38:31Z</time>
      </trkpt>
      <trkpt lat="42.89496" lon="0.10558">
        <ele>1549.4</ele>
        <time>2021-03-25T10:38:32Z</time>
      </trkpt>
      <trkpt lat="42.89497" lon="0.10561">
        <ele>1549.5</ele>
        <time>2021-03-25T10:38:33Z</time>
      </trkpt>
      <trkpt lat="42.89497" lon="0.10563">
        <ele>1549.6</ele>
        <time>2021-03-25T10:38:34Z</time>
      </trkpt>
      <trkpt lat="42.89499" lon="0.10564">
        <ele>1549.6</ele>
        <time>2021-03-25T10:38:35Z</time>
      </trkpt>
      <trkpt lat="42.895" lon="0.10566">
        <ele>1549.7</ele>
        <time>2021-03-25T10:38:37Z</time>
      </trkpt>
      <trkpt lat="42.89501" lon="0.10567">
        <ele>1549.8</ele>
        <time>2021-03-25T10:38:38Z</time>
      </trkpt>
      <trkpt lat="42.89502" lon="0.10569">
        <ele>1549.8</ele>
        <time>2021-03-25T10:38:39Z</time>
      </trkpt>
      <trkpt lat="42.89503" lon="0.1057">
        <ele>1549.9</ele>
        <time>2021-03-25T10:38:40Z</time>
      </trkpt>
      <trkpt lat="42.89504" lon="0.10572">
        <ele>1550</ele>
        <time>2021-03-25T10:38:42Z</time>
      </trkpt>
      <trkpt lat="42.89505" lon="0.10573">
        <ele>1550</ele>
        <time>2021-03-25T10:38:43Z</time>
      </trkpt>
      <trkpt lat="42.89505" lon="0.10574">
        <ele>1550</ele>
        <time>2021-03-25T10:38:44Z</time>
      </trkpt>
      <trkpt lat="42.89505" lon="0.10575">
        <ele>1550.1</ele>
        <time>2021-03-25T10:38:45Z</time>
      </trkpt>
      <trkpt lat="42.89506" lon="0.10578">
        <ele>1550.2</ele>
        <time>2021-03-25T10:38:47Z</time>
      </trkpt>
      <trkpt lat="42.89506" lon="0.10579">
        <ele>1550.2</ele>
        <time>2021-03-25T10:38:48Z</time>
      </trkpt>
      <trkpt lat="42.89506" lon="0.1058">
        <ele>1550.2</ele>
        <time>2021-03-25T10:38:49Z</time>
      </trkpt>
      <trkpt lat="42.89507" lon="0.10583">
        <ele>1550.3</ele>
        <time>2021-03-25T10:38:50Z</time>
      </trkpt>
      <trkpt lat="42.89507" lon="0.10584">
        <ele>1550.3</ele>
        <time>2021-03-25T10:38:52Z</time>
      </trkpt>
      <trkpt lat="42.89508" lon="0.10585">
        <ele>1550.4</ele>
        <time>2021-03-25T10:38:53Z</time>
      </trkpt>
      <trkpt lat="42.89508" lon="0.10587">
        <ele>1550.4</ele>
        <time>2021-03-25T10:38:54Z</time>
      </trkpt>
      <trkpt lat="42.89509" lon="0.10589">
        <ele>1550.5</ele>
        <time>2021-03-25T10:38:56Z</time>
      </trkpt>
      <trkpt lat="42.89509" lon="0.10591">
        <ele>1550.6</ele>
        <time>2021-03-25T10:38:58Z</time>
      </trkpt>
      <trkpt lat="42.89509" lon="0.10591">
        <ele>1550.6</ele>
        <time>2021-03-25T10:38:59Z</time>
      </trkpt>
      <trkpt lat="42.89509" lon="0.10591">
        <ele>1550.6</ele>
        <time>2021-03-25T10:39:01Z</time>
      </trkpt>
      <trkpt lat="42.89508" lon="0.10591">
        <ele>1550.6</ele>
        <time>2021-03-25T10:39:02Z</time>
      </trkpt>
      <trkpt lat="42.89508" lon="0.10592">
        <ele>1550.6</ele>
        <time>2021-03-25T10:39:03Z</time>
      </trkpt>
      <trkpt lat="42.89509" lon="0.10592">
        <ele>1550.6</ele>
        <time>2021-03-25T10:39:05Z</time>
      </trkpt>
      <trkpt lat="42.89508" lon="0.10593">
        <ele>1550.6</ele>
        <time>2021-03-25T10:39:06Z</time>
      </trkpt>
      <trkpt lat="42.89508" lon="0.10593">
        <ele>1550.6</ele>
        <time>2021-03-25T10:39:07Z</time>
      </trkpt>
      <trkpt lat="42.89508" lon="0.10592">
        <ele>1550.7</ele>
        <time>2021-03-25T10:39:09Z</time>
      </trkpt>
      <trkpt lat="42.89508" lon="0.10592">
        <ele>1550.7</ele>
        <time>2021-03-25T10:39:10Z</time>
      </trkpt>
      <trkpt lat="42.89508" lon="0.10592">
        <ele>1550.7</ele>
        <time>2021-03-25T10:39:12Z</time>
      </trkpt>
      <trkpt lat="42.89508" lon="0.10592">
        <ele>1550.7</ele>
        <time>2021-03-25T10:39:14Z</time>
      </trkpt>
      <trkpt lat="42.89508" lon="0.10592">
        <ele>1550.7</ele>
        <time>2021-03-25T10:39:15Z</time>
      </trkpt>
      <trkpt lat="42.89508" lon="0.10592">
        <ele>1550.7</ele>
        <time>2021-03-25T10:39:17Z</time>
      </trkpt>
      <trkpt lat="42.89508" lon="0.10592">
        <ele>1550.7</ele>
        <time>2021-03-25T10:39:18Z</time>
      </trkpt>
      <trkpt lat="42.89509" lon="0.10593">
        <ele>1550.8</ele>
        <time>2021-03-25T10:39:19Z</time>
      </trkpt>
      <trkpt lat="42.89509" lon="0.10595">
        <ele>1550.8</ele>
        <time>2021-03-25T10:39:20Z</time>
      </trkpt>
      <trkpt lat="42.89509" lon="0.10596">
        <ele>1550.9</ele>
        <time>2021-03-25T10:39:21Z</time>
      </trkpt>
      <trkpt lat="42.89508" lon="0.106">
        <ele>1551</ele>
        <time>2021-03-25T10:39:23Z</time>
      </trkpt>
      <trkpt lat="42.89507" lon="0.10601">
        <ele>1551</ele>
        <time>2021-03-25T10:39:24Z</time>
      </trkpt>
      <trkpt lat="42.89507" lon="0.10604">
        <ele>1551.1</ele>
        <time>2021-03-25T10:39:25Z</time>
      </trkpt>
      <trkpt lat="42.89507" lon="0.10606">
        <ele>1551.2</ele>
        <time>2021-03-25T10:39:26Z</time>
      </trkpt>
      <trkpt lat="42.89505" lon="0.1061">
        <ele>1551.3</ele>
        <time>2021-03-25T10:39:27Z</time>
      </trkpt>
      <trkpt lat="42.89505" lon="0.10611">
        <ele>1551.3</ele>
        <time>2021-03-25T10:39:28Z</time>
      </trkpt>
      <trkpt lat="42.89504" lon="0.10612">
        <ele>1551.4</ele>
        <time>2021-03-25T10:39:29Z</time>
      </trkpt>
      <trkpt lat="42.89504" lon="0.10615">
        <ele>1551.4</ele>
        <time>2021-03-25T10:39:30Z</time>
      </trkpt>
      <trkpt lat="42.89504" lon="0.10619">
        <ele>1551.6</ele>
        <time>2021-03-25T10:39:32Z</time>
      </trkpt>
      <trkpt lat="42.89504" lon="0.1062">
        <ele>1551.6</ele>
        <time>2021-03-25T10:39:33Z</time>
      </trkpt>
      <trkpt lat="42.89504" lon="0.10622">
        <ele>1551.7</ele>
        <time>2021-03-25T10:39:34Z</time>
      </trkpt>
      <trkpt lat="42.89505" lon="0.10624">
        <ele>1551.7</ele>
        <time>2021-03-25T10:39:35Z</time>
      </trkpt>
      <trkpt lat="42.89506" lon="0.10628">
        <ele>1551.9</ele>
        <time>2021-03-25T10:39:37Z</time>
      </trkpt>
      <trkpt lat="42.89506" lon="0.10629">
        <ele>1551.9</ele>
        <time>2021-03-25T10:39:38Z</time>
      </trkpt>
      <trkpt lat="42.89506" lon="0.10631">
        <ele>1551.9</ele>
        <time>2021-03-25T10:39:39Z</time>
      </trkpt>
      <trkpt lat="42.89506" lon="0.10634">
        <ele>1552</ele>
        <time>2021-03-25T10:39:40Z</time>
      </trkpt>
      <trkpt lat="42.89506" lon="0.10635">
        <ele>1552.1</ele>
        <time>2021-03-25T10:39:41Z</time>
      </trkpt>
      <trkpt lat="42.89507" lon="0.10637">
        <ele>1552.1</ele>
        <time>2021-03-25T10:39:43Z</time>
      </trkpt>
      <trkpt lat="42.89507" lon="0.10639">
        <ele>1552.2</ele>
        <time>2021-03-25T10:39:44Z</time>
      </trkpt>
      <trkpt lat="42.89507" lon="0.10641">
        <ele>1552.2</ele>
        <time>2021-03-25T10:39:45Z</time>
      </trkpt>
      <trkpt lat="42.89507" lon="0.10642">
        <ele>1552.2</ele>
        <time>2021-03-25T10:39:46Z</time>
      </trkpt>
      <trkpt lat="42.89508" lon="0.10644">
        <ele>1552.3</ele>
        <time>2021-03-25T10:39:47Z</time>
      </trkpt>
      <trkpt lat="42.89508" lon="0.10646">
        <ele>1552.3</ele>
        <time>2021-03-25T10:39:49Z</time>
      </trkpt>
      <trkpt lat="42.89509" lon="0.10647">
        <ele>1552.4</ele>
        <time>2021-03-25T10:39:50Z</time>
      </trkpt>
      <trkpt lat="42.8951" lon="0.10648">
        <ele>1552.4</ele>
        <time>2021-03-25T10:39:51Z</time>
      </trkpt>
      <trkpt lat="42.89511" lon="0.10649">
        <ele>1552.5</ele>
        <time>2021-03-25T10:39:52Z</time>
      </trkpt>
      <trkpt lat="42.89512" lon="0.10652">
        <ele>1552.5</ele>
        <time>2021-03-25T10:39:53Z</time>
      </trkpt>
      <trkpt lat="42.89512" lon="0.10654">
        <ele>1552.6</ele>
        <time>2021-03-25T10:39:55Z</time>
      </trkpt>
      <trkpt lat="42.89513" lon="0.10655">
        <ele>1552.6</ele>
        <time>2021-03-25T10:39:56Z</time>
      </trkpt>
      <trkpt lat="42.89513" lon="0.10656">
        <ele>1552.7</ele>
        <time>2021-03-25T10:39:57Z</time>
      </trkpt>
      <trkpt lat="42.89514" lon="0.10658">
        <ele>1552.7</ele>
        <time>2021-03-25T10:39:58Z</time>
      </trkpt>
      <trkpt lat="42.89515" lon="0.10661">
        <ele>1552.8</ele>
        <time>2021-03-25T10:40:00Z</time>
      </trkpt>
      <trkpt lat="42.89516" lon="0.10662">
        <ele>1552.8</ele>
        <time>2021-03-25T10:40:01Z</time>
      </trkpt>
      <trkpt lat="42.89517" lon="0.10663">
        <ele>1552.9</ele>
        <time>2021-03-25T10:40:02Z</time>
      </trkpt>
      <trkpt lat="42.89518" lon="0.10664">
        <ele>1552.9</ele>
        <time>2021-03-25T10:40:03Z</time>
      </trkpt>
      <trkpt lat="42.8952" lon="0.10665">
        <ele>1553</ele>
        <time>2021-03-25T10:40:05Z</time>
      </trkpt>
      <trkpt lat="42.89521" lon="0.10669">
        <ele>1553.1</ele>
        <time>2021-03-25T10:40:07Z</time>
      </trkpt>
      <trkpt lat="42.89521" lon="0.1067">
        <ele>1553.1</ele>
        <time>2021-03-25T10:40:08Z</time>
      </trkpt>
      <trkpt lat="42.89522" lon="0.10672">
        <ele>1553.2</ele>
        <time>2021-03-25T10:40:09Z</time>
      </trkpt>
      <trkpt lat="42.89523" lon="0.10673">
        <ele>1553.2</ele>
        <time>2021-03-25T10:40:10Z</time>
      </trkpt>
      <trkpt lat="42.89525" lon="0.10675">
        <ele>1553.3</ele>
        <time>2021-03-25T10:40:11Z</time>
      </trkpt>
      <trkpt lat="42.89525" lon="0.10676">
        <ele>1553.3</ele>
        <time>2021-03-25T10:40:13Z</time>
      </trkpt>
      <trkpt lat="42.89525" lon="0.10676">
        <ele>1553.4</ele>
        <time>2021-03-25T10:40:14Z</time>
      </trkpt>
      <trkpt lat="42.89525" lon="0.10675">
        <ele>1553.4</ele>
        <time>2021-03-25T10:40:16Z</time>
      </trkpt>
      <trkpt lat="42.89523" lon="0.10675">
        <ele>1553.6</ele>
        <time>2021-03-25T10:40:18Z</time>
      </trkpt>
      <trkpt lat="42.89523" lon="0.10675">
        <ele>1553.8</ele>
        <time>2021-03-25T10:40:19Z</time>
      </trkpt>
      <trkpt lat="42.89521" lon="0.10673">
        <ele>1554</ele>
        <time>2021-03-25T10:40:20Z</time>
      </trkpt>
      <trkpt lat="42.8952" lon="0.10673">
        <ele>1554.2</ele>
        <time>2021-03-25T10:40:22Z</time>
      </trkpt>
      <trkpt lat="42.89518" lon="0.10672">
        <ele>1554.4</ele>
        <time>2021-03-25T10:40:23Z</time>
      </trkpt>
      <trkpt lat="42.89517" lon="0.10672">
        <ele>1554.6</ele>
        <time>2021-03-25T10:40:24Z</time>
      </trkpt>
      <trkpt lat="42.89514" lon="0.10672">
        <ele>1555</ele>
        <time>2021-03-25T10:40:26Z</time>
      </trkpt>
      <trkpt lat="42.89512" lon="0.10672">
        <ele>1555.2</ele>
        <time>2021-03-25T10:40:27Z</time>
      </trkpt>
      <trkpt lat="42.89511" lon="0.10672">
        <ele>1555.4</ele>
        <time>2021-03-25T10:40:28Z</time>
      </trkpt>
      <trkpt lat="42.8951" lon="0.10673">
        <ele>1555.6</ele>
        <time>2021-03-25T10:40:29Z</time>
      </trkpt>
      <trkpt lat="42.89508" lon="0.10673">
        <ele>1555.9</ele>
        <time>2021-03-25T10:40:30Z</time>
      </trkpt>
      <trkpt lat="42.89506" lon="0.10672">
        <ele>1556.2</ele>
        <time>2021-03-25T10:40:32Z</time>
      </trkpt>
      <trkpt lat="42.89505" lon="0.10671">
        <ele>1556.5</ele>
        <time>2021-03-25T10:40:34Z</time>
      </trkpt>
      <trkpt lat="42.89503" lon="0.1067">
        <ele>1556.7</ele>
        <time>2021-03-25T10:40:35Z</time>
      </trkpt>
      <trkpt lat="42.89502" lon="0.10669">
        <ele>1557</ele>
        <time>2021-03-25T10:40:36Z</time>
      </trkpt>
      <trkpt lat="42.89501" lon="0.10669">
        <ele>1557.3</ele>
        <time>2021-03-25T10:40:38Z</time>
      </trkpt>
      <trkpt lat="42.895" lon="0.1067">
        <ele>1557.4</ele>
        <time>2021-03-25T10:40:39Z</time>
      </trkpt>
      <trkpt lat="42.89498" lon="0.1067">
        <ele>1557.8</ele>
        <time>2021-03-25T10:40:41Z</time>
      </trkpt>
      <trkpt lat="42.89497" lon="0.10671">
        <ele>1558</ele>
        <time>2021-03-25T10:40:42Z</time>
      </trkpt>
      <trkpt lat="42.89496" lon="0.10671">
        <ele>1558.1</ele>
        <time>2021-03-25T10:40:43Z</time>
      </trkpt>
      <trkpt lat="42.89494" lon="0.10672">
        <ele>1558.4</ele>
        <time>2021-03-25T10:40:45Z</time>
      </trkpt>
      <trkpt lat="42.89494" lon="0.10672">
        <ele>1558.6</ele>
        <time>2021-03-25T10:40:46Z</time>
      </trkpt>
      <trkpt lat="42.89493" lon="0.10673">
        <ele>1558.7</ele>
        <time>2021-03-25T10:40:48Z</time>
      </trkpt>
      <trkpt lat="42.89492" lon="0.10673">
        <ele>1559</ele>
        <time>2021-03-25T10:40:49Z</time>
      </trkpt>
      <trkpt lat="42.89489" lon="0.10674">
        <ele>1559.4</ele>
        <time>2021-03-25T10:40:50Z</time>
      </trkpt>
      <trkpt lat="42.89489" lon="0.10674">
        <ele>1559.5</ele>
        <time>2021-03-25T10:40:51Z</time>
      </trkpt>
      <trkpt lat="42.89488" lon="0.10674">
        <ele>1559.7</ele>
        <time>2021-03-25T10:40:53Z</time>
      </trkpt>
      <trkpt lat="42.89487" lon="0.10675">
        <ele>1559.8</ele>
        <time>2021-03-25T10:40:54Z</time>
      </trkpt>
      <trkpt lat="42.89486" lon="0.10675">
        <ele>1560</ele>
        <time>2021-03-25T10:40:56Z</time>
      </trkpt>
      <trkpt lat="42.89486" lon="0.10676">
        <ele>1560.2</ele>
        <time>2021-03-25T10:40:57Z</time>
      </trkpt>
      <trkpt lat="42.89485" lon="0.10676">
        <ele>1560.3</ele>
        <time>2021-03-25T10:40:58Z</time>
      </trkpt>
      <trkpt lat="42.89483" lon="0.10677">
        <ele>1560.6</ele>
        <time>2021-03-25T10:41:00Z</time>
      </trkpt>
      <trkpt lat="42.89482" lon="0.10676">
        <ele>1560.9</ele>
        <time>2021-03-25T10:41:01Z</time>
      </trkpt>
      <trkpt lat="42.89481" lon="0.10676">
        <ele>1561.1</ele>
        <time>2021-03-25T10:41:02Z</time>
      </trkpt>
      <trkpt lat="42.8948" lon="0.10677">
        <ele>1561.2</ele>
        <time>2021-03-25T10:41:03Z</time>
      </trkpt>
      <trkpt lat="42.8948" lon="0.10677">
        <ele>1561.2</ele>
        <time>2021-03-25T10:41:05Z</time>
      </trkpt>
      <trkpt lat="42.89481" lon="0.10678">
        <ele>1561.4</ele>
        <time>2021-03-25T10:41:07Z</time>
      </trkpt>
      <trkpt lat="42.89482" lon="0.10678">
        <ele>1561.6</ele>
        <time>2021-03-25T10:41:09Z</time>
      </trkpt>
      <trkpt lat="42.89483" lon="0.10678">
        <ele>1561.7</ele>
        <time>2021-03-25T10:41:10Z</time>
      </trkpt>
      <trkpt lat="42.89483" lon="0.10678">
        <ele>1561.8</ele>
        <time>2021-03-25T10:41:11Z</time>
      </trkpt>
      <trkpt lat="42.89484" lon="0.10678">
        <ele>1562</ele>
        <time>2021-03-25T10:41:13Z</time>
      </trkpt>
      <trkpt lat="42.89484" lon="0.10678">
        <ele>1562</ele>
        <time>2021-03-25T10:41:15Z</time>
      </trkpt>
      <trkpt lat="42.89484" lon="0.10678">
        <ele>1562.1</ele>
        <time>2021-03-25T10:41:16Z</time>
      </trkpt>
      <trkpt lat="42.89483" lon="0.10678">
        <ele>1562.3</ele>
        <time>2021-03-25T10:41:18Z</time>
      </trkpt>
      <trkpt lat="42.89482" lon="0.10678">
        <ele>1562.4</ele>
        <time>2021-03-25T10:41:19Z</time>
      </trkpt>
      <trkpt lat="42.89481" lon="0.10677">
        <ele>1562.6</ele>
        <time>2021-03-25T10:41:21Z</time>
      </trkpt>
      <trkpt lat="42.8948" lon="0.10676">
        <ele>1562.9</ele>
        <time>2021-03-25T10:41:22Z</time>
      </trkpt>
      <trkpt lat="42.8948" lon="0.10675">
        <ele>1563</ele>
        <time>2021-03-25T10:41:23Z</time>
      </trkpt>
      <trkpt lat="42.89479" lon="0.10675">
        <ele>1563.2</ele>
        <time>2021-03-25T10:41:24Z</time>
      </trkpt>
      <trkpt lat="42.89478" lon="0.10674">
        <ele>1563.4</ele>
        <time>2021-03-25T10:41:26Z</time>
      </trkpt>
      <trkpt lat="42.89477" lon="0.10673">
        <ele>1563.6</ele>
        <time>2021-03-25T10:41:27Z</time>
      </trkpt>
      <trkpt lat="42.89476" lon="0.10672">
        <ele>1563.8</ele>
        <time>2021-03-25T10:41:29Z</time>
      </trkpt>
      <trkpt lat="42.89475" lon="0.10673">
        <ele>1564</ele>
        <time>2021-03-25T10:41:31Z</time>
      </trkpt>
      <trkpt lat="42.89473" lon="0.10673">
        <ele>1564.3</ele>
        <time>2021-03-25T10:41:32Z</time>
      </trkpt>
      <trkpt lat="42.89472" lon="0.10674">
        <ele>1564.6</ele>
        <time>2021-03-25T10:41:34Z</time>
      </trkpt>
      <trkpt lat="42.89471" lon="0.10675">
        <ele>1564.8</ele>
        <time>2021-03-25T10:41:35Z</time>
      </trkpt>
      <trkpt lat="42.8947" lon="0.10675">
        <ele>1564.9</ele>
        <time>2021-03-25T10:41:36Z</time>
      </trkpt>
      <trkpt lat="42.89469" lon="0.10675">
        <ele>1565.1</ele>
        <time>2021-03-25T10:41:37Z</time>
      </trkpt>
      <trkpt lat="42.89468" lon="0.10675">
        <ele>1565.4</ele>
        <time>2021-03-25T10:41:39Z</time>
      </trkpt>
      <trkpt lat="42.89467" lon="0.10675">
        <ele>1565.5</ele>
        <time>2021-03-25T10:41:40Z</time>
      </trkpt>
      <trkpt lat="42.89466" lon="0.10675">
        <ele>1565.7</ele>
        <time>2021-03-25T10:41:42Z</time>
      </trkpt>
      <trkpt lat="42.89465" lon="0.10676">
        <ele>1566</ele>
        <time>2021-03-25T10:41:43Z</time>
      </trkpt>
      <trkpt lat="42.89463" lon="0.10677">
        <ele>1566.2</ele>
        <time>2021-03-25T10:41:45Z</time>
      </trkpt>
      <trkpt lat="42.89461" lon="0.10677">
        <ele>1566.6</ele>
        <time>2021-03-25T10:41:47Z</time>
      </trkpt>
      <trkpt lat="42.89461" lon="0.10677">
        <ele>1566.8</ele>
        <time>2021-03-25T10:41:49Z</time>
      </trkpt>
      <trkpt lat="42.8946" lon="0.10676">
        <ele>1566.9</ele>
        <time>2021-03-25T10:41:50Z</time>
      </trkpt>
      <trkpt lat="42.89459" lon="0.10676">
        <ele>1567.1</ele>
        <time>2021-03-25T10:41:52Z</time>
      </trkpt>
      <trkpt lat="42.89457" lon="0.10677">
        <ele>1567.4</ele>
        <time>2021-03-25T10:41:54Z</time>
      </trkpt>
      <trkpt lat="42.89456" lon="0.10677">
        <ele>1567.6</ele>
        <time>2021-03-25T10:41:55Z</time>
      </trkpt>
      <trkpt lat="42.89455" lon="0.10678">
        <ele>1567.8</ele>
        <time>2021-03-25T10:41:57Z</time>
      </trkpt>
      <trkpt lat="42.89454" lon="0.10678">
        <ele>1568</ele>
        <time>2021-03-25T10:41:58Z</time>
      </trkpt>
      <trkpt lat="42.89453" lon="0.10678">
        <ele>1568.2</ele>
        <time>2021-03-25T10:42:00Z</time>
      </trkpt>
      <trkpt lat="42.89452" lon="0.10678">
        <ele>1568.4</ele>
        <time>2021-03-25T10:42:02Z</time>
      </trkpt>
      <trkpt lat="42.89451" lon="0.10678">
        <ele>1568.6</ele>
        <time>2021-03-25T10:42:04Z</time>
      </trkpt>
      <trkpt lat="42.8945" lon="0.10678">
        <ele>1568.9</ele>
        <time>2021-03-25T10:42:05Z</time>
      </trkpt>
      <trkpt lat="42.89449" lon="0.10678">
        <ele>1569</ele>
        <time>2021-03-25T10:42:07Z</time>
      </trkpt>
      <trkpt lat="42.89448" lon="0.10678">
        <ele>1569.1</ele>
        <time>2021-03-25T10:42:09Z</time>
      </trkpt>
      <trkpt lat="42.89447" lon="0.10679">
        <ele>1569.3</ele>
        <time>2021-03-25T10:42:10Z</time>
      </trkpt>
      <trkpt lat="42.89446" lon="0.10679">
        <ele>1569.5</ele>
        <time>2021-03-25T10:42:12Z</time>
      </trkpt>
      <trkpt lat="42.89446" lon="0.10679">
        <ele>1569.6</ele>
        <time>2021-03-25T10:42:13Z</time>
      </trkpt>
      <trkpt lat="42.89445" lon="0.10679">
        <ele>1569.7</ele>
        <time>2021-03-25T10:42:14Z</time>
      </trkpt>
      <trkpt lat="42.89445" lon="0.10678">
        <ele>1569.8</ele>
        <time>2021-03-25T10:42:16Z</time>
      </trkpt>
      <trkpt lat="42.89444" lon="0.10678">
        <ele>1569.9</ele>
        <time>2021-03-25T10:42:17Z</time>
      </trkpt>
      <trkpt lat="42.89444" lon="0.10678">
        <ele>1570</ele>
        <time>2021-03-25T10:42:18Z</time>
      </trkpt>
      <trkpt lat="42.89443" lon="0.10677">
        <ele>1570.2</ele>
        <time>2021-03-25T10:42:20Z</time>
      </trkpt>
      <trkpt lat="42.89442" lon="0.10677">
        <ele>1570.3</ele>
        <time>2021-03-25T10:42:21Z</time>
      </trkpt>
      <trkpt lat="42.89442" lon="0.10676">
        <ele>1570.5</ele>
        <time>2021-03-25T10:42:23Z</time>
      </trkpt>
      <trkpt lat="42.89441" lon="0.10676">
        <ele>1570.7</ele>
        <time>2021-03-25T10:42:24Z</time>
      </trkpt>
      <trkpt lat="42.8944" lon="0.10676">
        <ele>1570.8</ele>
        <time>2021-03-25T10:42:25Z</time>
      </trkpt>
      <trkpt lat="42.89439" lon="0.10677">
        <ele>1571</ele>
        <time>2021-03-25T10:42:27Z</time>
      </trkpt>
      <trkpt lat="42.89438" lon="0.10678">
        <ele>1571.3</ele>
        <time>2021-03-25T10:42:29Z</time>
      </trkpt>
      <trkpt lat="42.89437" lon="0.10679">
        <ele>1571.5</ele>
        <time>2021-03-25T10:42:30Z</time>
      </trkpt>
      <trkpt lat="42.89436" lon="0.1068">
        <ele>1571.7</ele>
        <time>2021-03-25T10:42:31Z</time>
      </trkpt>
      <trkpt lat="42.89436" lon="0.10682">
        <ele>1571.9</ele>
        <time>2021-03-25T10:42:33Z</time>
      </trkpt>
      <trkpt lat="42.89435" lon="0.10682">
        <ele>1572</ele>
        <time>2021-03-25T10:42:34Z</time>
      </trkpt>
      <trkpt lat="42.89434" lon="0.10683">
        <ele>1572.1</ele>
        <time>2021-03-25T10:42:36Z</time>
      </trkpt>
      <trkpt lat="42.89434" lon="0.10683">
        <ele>1572.2</ele>
        <time>2021-03-25T10:42:37Z</time>
      </trkpt>
      <trkpt lat="42.89433" lon="0.10683">
        <ele>1572.3</ele>
        <time>2021-03-25T10:42:39Z</time>
      </trkpt>
      <trkpt lat="42.89433" lon="0.10684">
        <ele>1572.4</ele>
        <time>2021-03-25T10:42:40Z</time>
      </trkpt>
      <trkpt lat="42.89432" lon="0.10684">
        <ele>1572.5</ele>
        <time>2021-03-25T10:42:41Z</time>
      </trkpt>
      <trkpt lat="42.89431" lon="0.10684">
        <ele>1572.6</ele>
        <time>2021-03-25T10:42:43Z</time>
      </trkpt>
      <trkpt lat="42.8943" lon="0.10685">
        <ele>1572.8</ele>
        <time>2021-03-25T10:42:44Z</time>
      </trkpt>
      <trkpt lat="42.89429" lon="0.10685">
        <ele>1573</ele>
        <time>2021-03-25T10:42:46Z</time>
      </trkpt>
      <trkpt lat="42.89428" lon="0.10685">
        <ele>1573.2</ele>
        <time>2021-03-25T10:42:47Z</time>
      </trkpt>
      <trkpt lat="42.89428" lon="0.10685">
        <ele>1573.3</ele>
        <time>2021-03-25T10:42:49Z</time>
      </trkpt>
      <trkpt lat="42.89426" lon="0.10685">
        <ele>1573.5</ele>
        <time>2021-03-25T10:42:50Z</time>
      </trkpt>
      <trkpt lat="42.89425" lon="0.10684">
        <ele>1573.8</ele>
        <time>2021-03-25T10:42:52Z</time>
      </trkpt>
      <trkpt lat="42.89424" lon="0.10683">
        <ele>1574</ele>
        <time>2021-03-25T10:42:53Z</time>
      </trkpt>
      <trkpt lat="42.89422" lon="0.10683">
        <ele>1574.2</ele>
        <time>2021-03-25T10:42:55Z</time>
      </trkpt>
      <trkpt lat="42.89421" lon="0.10682">
        <ele>1574.5</ele>
        <time>2021-03-25T10:42:56Z</time>
      </trkpt>
      <trkpt lat="42.8942" lon="0.10681">
        <ele>1574.6</ele>
        <time>2021-03-25T10:42:57Z</time>
      </trkpt>
      <trkpt lat="42.89419" lon="0.1068">
        <ele>1574.8</ele>
        <time>2021-03-25T10:42:59Z</time>
      </trkpt>
      <trkpt lat="42.89418" lon="0.1068">
        <ele>1575</ele>
        <time>2021-03-25T10:43:00Z</time>
      </trkpt>
      <trkpt lat="42.89418" lon="0.10679">
        <ele>1575.1</ele>
        <time>2021-03-25T10:43:01Z</time>
      </trkpt>
      <trkpt lat="42.89417" lon="0.10679">
        <ele>1575.2</ele>
        <time>2021-03-25T10:43:03Z</time>
      </trkpt>
      <trkpt lat="42.89416" lon="0.10679">
        <ele>1575.3</ele>
        <time>2021-03-25T10:43:04Z</time>
      </trkpt>
      <trkpt lat="42.89416" lon="0.10679">
        <ele>1575.4</ele>
        <time>2021-03-25T10:43:05Z</time>
      </trkpt>
      <trkpt lat="42.89415" lon="0.10678">
        <ele>1575.5</ele>
        <time>2021-03-25T10:43:07Z</time>
      </trkpt>
      <trkpt lat="42.89415" lon="0.10678">
        <ele>1575.6</ele>
        <time>2021-03-25T10:43:08Z</time>
      </trkpt>
      <trkpt lat="42.89414" lon="0.10678">
        <ele>1575.8</ele>
        <time>2021-03-25T10:43:10Z</time>
      </trkpt>
      <trkpt lat="42.89414" lon="0.10678">
        <ele>1575.7</ele>
        <time>2021-03-25T10:43:11Z</time>
      </trkpt>
      <trkpt lat="42.89413" lon="0.10678">
        <ele>1575.7</ele>
        <time>2021-03-25T10:43:12Z</time>
      </trkpt>
      <trkpt lat="42.89413" lon="0.10678">
        <ele>1575.7</ele>
        <time>2021-03-25T10:43:13Z</time>
      </trkpt>
      <trkpt lat="42.89413" lon="0.10678">
        <ele>1575.6</ele>
        <time>2021-03-25T10:43:15Z</time>
      </trkpt>
      <trkpt lat="42.89413" lon="0.10678">
        <ele>1575.6</ele>
        <time>2021-03-25T10:43:16Z</time>
      </trkpt>
      <trkpt lat="42.89414" lon="0.10679">
        <ele>1575.2</ele>
        <time>2021-03-25T10:43:18Z</time>
      </trkpt>
      <trkpt lat="42.89414" lon="0.10679">
        <ele>1575.1</ele>
        <time>2021-03-25T10:43:19Z</time>
      </trkpt>
      <trkpt lat="42.89414" lon="0.1068">
        <ele>1575.1</ele>
        <time>2021-03-25T10:43:20Z</time>
      </trkpt>
      <trkpt lat="42.89415" lon="0.10681">
        <ele>1575.1</ele>
        <time>2021-03-25T10:43:22Z</time>
      </trkpt>
      <trkpt lat="42.89415" lon="0.10682">
        <ele>1575.1</ele>
        <time>2021-03-25T10:43:23Z</time>
      </trkpt>
      <trkpt lat="42.89415" lon="0.10683">
        <ele>1576.2</ele>
        <time>2021-03-25T10:43:25Z</time>
      </trkpt>
      <trkpt lat="42.89414" lon="0.10684">
        <ele>1576.1</ele>
        <time>2021-03-25T10:43:26Z</time>
      </trkpt>
      <trkpt lat="42.89414" lon="0.10686">
        <ele>1577.4</ele>
        <time>2021-03-25T10:43:28Z</time>
      </trkpt>
      <trkpt lat="42.89414" lon="0.10687">
        <ele>1577.8</ele>
        <time>2021-03-25T10:43:29Z</time>
      </trkpt>
      <trkpt lat="42.89414" lon="0.10688">
        <ele>1577.7</ele>
        <time>2021-03-25T10:43:30Z</time>
      </trkpt>
      <trkpt lat="42.89413" lon="0.1069">
        <ele>1577.7</ele>
        <time>2021-03-25T10:43:32Z</time>
      </trkpt>
      <trkpt lat="42.89413" lon="0.10691">
        <ele>1579</ele>
        <time>2021-03-25T10:43:33Z</time>
      </trkpt>
      <trkpt lat="42.89412" lon="0.10693">
        <ele>1579</ele>
        <time>2021-03-25T10:43:34Z</time>
      </trkpt>
      <trkpt lat="42.89412" lon="0.10695">
        <ele>1580.3</ele>
        <time>2021-03-25T10:43:36Z</time>
      </trkpt>
      <trkpt lat="42.89411" lon="0.10696">
        <ele>1580.3</ele>
        <time>2021-03-25T10:43:37Z</time>
      </trkpt>
      <trkpt lat="42.8941" lon="0.10698">
        <ele>1580.7</ele>
        <time>2021-03-25T10:43:39Z</time>
      </trkpt>
      <trkpt lat="42.8941" lon="0.10698">
        <ele>1580.7</ele>
        <time>2021-03-25T10:43:40Z</time>
      </trkpt>
      <trkpt lat="42.89409" lon="0.10699">
        <ele>1582.1</ele>
        <time>2021-03-25T10:43:42Z</time>
      </trkpt>
      <trkpt lat="42.89409" lon="0.107">
        <ele>1582</ele>
        <time>2021-03-25T10:43:43Z</time>
      </trkpt>
      <trkpt lat="42.89408" lon="0.10701">
        <ele>1582</ele>
        <time>2021-03-25T10:43:44Z</time>
      </trkpt>
      <trkpt lat="42.89408" lon="0.10701">
        <ele>1582.4</ele>
        <time>2021-03-25T10:43:45Z</time>
      </trkpt>
      <trkpt lat="42.89407" lon="0.10702">
        <ele>1582.3</ele>
        <time>2021-03-25T10:43:46Z</time>
      </trkpt>
      <trkpt lat="42.89407" lon="0.10702">
        <ele>1582.3</ele>
        <time>2021-03-25T10:43:48Z</time>
      </trkpt>
      <trkpt lat="42.89406" lon="0.10702">
        <ele>1582.3</ele>
        <time>2021-03-25T10:43:49Z</time>
      </trkpt>
      <trkpt lat="42.89406" lon="0.10702">
        <ele>1582.2</ele>
        <time>2021-03-25T10:43:51Z</time>
      </trkpt>
      <trkpt lat="42.89406" lon="0.10703">
        <ele>1582.2</ele>
        <time>2021-03-25T10:43:53Z</time>
      </trkpt>
      <trkpt lat="42.89406" lon="0.10703">
        <ele>1583.6</ele>
        <time>2021-03-25T10:43:54Z</time>
      </trkpt>
      <trkpt lat="42.89406" lon="0.10704">
        <ele>1583.5</ele>
        <time>2021-03-25T10:43:56Z</time>
      </trkpt>
      <trkpt lat="42.89406" lon="0.10705">
        <ele>1583.5</ele>
        <time>2021-03-25T10:43:57Z</time>
      </trkpt>
      <trkpt lat="42.89406" lon="0.10706">
        <ele>1583.5</ele>
        <time>2021-03-25T10:43:59Z</time>
      </trkpt>
      <trkpt lat="42.89406" lon="0.10707">
        <ele>1583.5</ele>
        <time>2021-03-25T10:44:01Z</time>
      </trkpt>
      <trkpt lat="42.89406" lon="0.10708">
        <ele>1584.8</ele>
        <time>2021-03-25T10:44:02Z</time>
      </trkpt>
      <trkpt lat="42.89406" lon="0.1071">
        <ele>1584.7</ele>
        <time>2021-03-25T10:44:03Z</time>
      </trkpt>
      <trkpt lat="42.89406" lon="0.10712">
        <ele>1584.7</ele>
        <time>2021-03-25T10:44:05Z</time>
      </trkpt>
      <trkpt lat="42.89406" lon="0.10713">
        <ele>1586</ele>
        <time>2021-03-25T10:44:06Z</time>
      </trkpt>
      <trkpt lat="42.89406" lon="0.10715">
        <ele>1586</ele>
        <time>2021-03-25T10:44:08Z</time>
      </trkpt>
      <trkpt lat="42.89406" lon="0.10717">
        <ele>1587.3</ele>
        <time>2021-03-25T10:44:09Z</time>
      </trkpt>
      <trkpt lat="42.89406" lon="0.1072">
        <ele>1587.2</ele>
        <time>2021-03-25T10:44:10Z</time>
      </trkpt>
      <trkpt lat="42.89406" lon="0.10721">
        <ele>1588.6</ele>
        <time>2021-03-25T10:44:12Z</time>
      </trkpt>
      <trkpt lat="42.89406" lon="0.10722">
        <ele>1588.5</ele>
        <time>2021-03-25T10:44:13Z</time>
      </trkpt>
      <trkpt lat="42.89406" lon="0.10724">
        <ele>1588.5</ele>
        <time>2021-03-25T10:44:14Z</time>
      </trkpt>
      <trkpt lat="42.89406" lon="0.10725">
        <ele>1589.9</ele>
        <time>2021-03-25T10:44:16Z</time>
      </trkpt>
      <trkpt lat="42.89407" lon="0.10726">
        <ele>1589.9</ele>
        <time>2021-03-25T10:44:17Z</time>
      </trkpt>
      <trkpt lat="42.89407" lon="0.10727">
        <ele>1589.8</ele>
        <time>2021-03-25T10:44:18Z</time>
      </trkpt>
      <trkpt lat="42.89408" lon="0.10728">
        <ele>1589.4</ele>
        <time>2021-03-25T10:44:19Z</time>
      </trkpt>
      <trkpt lat="42.89408" lon="0.10729">
        <ele>1589.4</ele>
        <time>2021-03-25T10:44:21Z</time>
      </trkpt>
      <trkpt lat="42.89409" lon="0.10729">
        <ele>1590.8</ele>
        <time>2021-03-25T10:44:22Z</time>
      </trkpt>
      <trkpt lat="42.89409" lon="0.1073">
        <ele>1590.8</ele>
        <time>2021-03-25T10:44:23Z</time>
      </trkpt>
      <trkpt lat="42.8941" lon="0.10731">
        <ele>1590.7</ele>
        <time>2021-03-25T10:44:25Z</time>
      </trkpt>
      <trkpt lat="42.8941" lon="0.10731">
        <ele>1590.7</ele>
        <time>2021-03-25T10:44:26Z</time>
      </trkpt>
      <trkpt lat="42.8941" lon="0.10732">
        <ele>1590.7</ele>
        <time>2021-03-25T10:44:28Z</time>
      </trkpt>
      <trkpt lat="42.8941" lon="0.10732">
        <ele>1590.6</ele>
        <time>2021-03-25T10:44:29Z</time>
      </trkpt>
      <trkpt lat="42.8941" lon="0.10733">
        <ele>1590.6</ele>
        <time>2021-03-25T10:44:30Z</time>
      </trkpt>
      <trkpt lat="42.8941" lon="0.10734">
        <ele>1592.1</ele>
        <time>2021-03-25T10:44:31Z</time>
      </trkpt>
      <trkpt lat="42.8941" lon="0.10736">
        <ele>1592.1</ele>
        <time>2021-03-25T10:44:33Z</time>
      </trkpt>
      <trkpt lat="42.8941" lon="0.10738">
        <ele>1593.6</ele>
        <time>2021-03-25T10:44:35Z</time>
      </trkpt>
      <trkpt lat="42.89411" lon="0.10741">
        <ele>1593.5</ele>
        <time>2021-03-25T10:44:37Z</time>
      </trkpt>
      <trkpt lat="42.89411" lon="0.10742">
        <ele>1594.6</ele>
        <time>2021-03-25T10:44:38Z</time>
      </trkpt>
      <trkpt lat="42.89411" lon="0.10744">
        <ele>1595.1</ele>
        <time>2021-03-25T10:44:39Z</time>
      </trkpt>
      <trkpt lat="42.89411" lon="0.10746">
        <ele>1595.1</ele>
        <time>2021-03-25T10:44:41Z</time>
      </trkpt>
      <trkpt lat="42.89411" lon="0.10749">
        <ele>1596.6</ele>
        <time>2021-03-25T10:44:43Z</time>
      </trkpt>
      <trkpt lat="42.89411" lon="0.10751">
        <ele>1597.7</ele>
        <time>2021-03-25T10:44:45Z</time>
      </trkpt>
      <trkpt lat="42.89411" lon="0.10753">
        <ele>1597.7</ele>
        <time>2021-03-25T10:44:47Z</time>
      </trkpt>
      <trkpt lat="42.89411" lon="0.10754">
        <ele>1597.7</ele>
        <time>2021-03-25T10:44:48Z</time>
      </trkpt>
      <trkpt lat="42.89411" lon="0.10755">
        <ele>1599.2</ele>
        <time>2021-03-25T10:44:49Z</time>
      </trkpt>
      <trkpt lat="42.89411" lon="0.10756">
        <ele>1599.1</ele>
        <time>2021-03-25T10:44:50Z</time>
      </trkpt>
      <trkpt lat="42.89412" lon="0.10757">
        <ele>1599.1</ele>
        <time>2021-03-25T10:44:51Z</time>
      </trkpt>
      <trkpt lat="42.89413" lon="0.10758">
        <ele>1599.1</ele>
        <time>2021-03-25T10:44:53Z</time>
      </trkpt>
      <trkpt lat="42.89414" lon="0.10759">
        <ele>1600</ele>
        <time>2021-03-25T10:44:55Z</time>
      </trkpt>
      <trkpt lat="42.89416" lon="0.1076">
        <ele>1600</ele>
        <time>2021-03-25T10:44:56Z</time>
      </trkpt>
      <trkpt lat="42.89419" lon="0.10759">
        <ele>1597.9</ele>
        <time>2021-03-25T10:44:58Z</time>
      </trkpt>
      <trkpt lat="42.8942" lon="0.10758">
        <ele>1597.9</ele>
        <time>2021-03-25T10:44:59Z</time>
      </trkpt>
      <trkpt lat="42.89421" lon="0.10757">
        <ele>1598</ele>
        <time>2021-03-25T10:45:01Z</time>
      </trkpt>
      <trkpt lat="42.89423" lon="0.10757">
        <ele>1598.2</ele>
        <time>2021-03-25T10:45:02Z</time>
      </trkpt>
      <trkpt lat="42.89424" lon="0.10756">
        <ele>1598.4</ele>
        <time>2021-03-25T10:45:04Z</time>
      </trkpt>
      <trkpt lat="42.89425" lon="0.10756">
        <ele>1598.5</ele>
        <time>2021-03-25T10:45:05Z</time>
      </trkpt>
      <trkpt lat="42.89425" lon="0.10756">
        <ele>1598.5</ele>
        <time>2021-03-25T10:45:07Z</time>
      </trkpt>
      <trkpt lat="42.89425" lon="0.10755">
        <ele>1598.6</ele>
        <time>2021-03-25T10:45:08Z</time>
      </trkpt>
      <trkpt lat="42.89425" lon="0.10755">
        <ele>1598.6</ele>
        <time>2021-03-25T10:45:09Z</time>
      </trkpt>
      <trkpt lat="42.89425" lon="0.10755">
        <ele>1598.7</ele>
        <time>2021-03-25T10:45:11Z</time>
      </trkpt>
      <trkpt lat="42.89424" lon="0.10754">
        <ele>1598.7</ele>
        <time>2021-03-25T10:45:12Z</time>
      </trkpt>
      <trkpt lat="42.89424" lon="0.10754">
        <ele>1598.8</ele>
        <time>2021-03-25T10:45:14Z</time>
      </trkpt>
      <trkpt lat="42.89423" lon="0.10754">
        <ele>1598.8</ele>
        <time>2021-03-25T10:45:16Z</time>
      </trkpt>
      <trkpt lat="42.89423" lon="0.10754">
        <ele>1598.8</ele>
        <time>2021-03-25T10:45:17Z</time>
      </trkpt>
      <trkpt lat="42.89423" lon="0.10754">
        <ele>1598.9</ele>
        <time>2021-03-25T10:45:18Z</time>
      </trkpt>
      <trkpt lat="42.89422" lon="0.10754">
        <ele>1599</ele>
        <time>2021-03-25T10:45:19Z</time>
      </trkpt>
      <trkpt lat="42.89421" lon="0.10753">
        <ele>1599.1</ele>
        <time>2021-03-25T10:45:20Z</time>
      </trkpt>
      <trkpt lat="42.89421" lon="0.10753">
        <ele>1599.2</ele>
        <time>2021-03-25T10:45:21Z</time>
      </trkpt>
      <trkpt lat="42.89419" lon="0.10752">
        <ele>1599.4</ele>
        <time>2021-03-25T10:45:23Z</time>
      </trkpt>
      <trkpt lat="42.89418" lon="0.10751">
        <ele>1599.5</ele>
        <time>2021-03-25T10:45:24Z</time>
      </trkpt>
      <trkpt lat="42.89416" lon="0.10751">
        <ele>1599.7</ele>
        <time>2021-03-25T10:45:26Z</time>
      </trkpt>
      <trkpt lat="42.89415" lon="0.1075">
        <ele>1599.8</ele>
        <time>2021-03-25T10:45:27Z</time>
      </trkpt>
      <trkpt lat="42.89414" lon="0.10749">
        <ele>1600</ele>
        <time>2021-03-25T10:45:28Z</time>
      </trkpt>
      <trkpt lat="42.89413" lon="0.10748">
        <ele>1600.1</ele>
        <time>2021-03-25T10:45:29Z</time>
      </trkpt>
      <trkpt lat="42.89411" lon="0.10747">
        <ele>1600.3</ele>
        <time>2021-03-25T10:45:31Z</time>
      </trkpt>
      <trkpt lat="42.8941" lon="0.10747">
        <ele>1600.4</ele>
        <time>2021-03-25T10:45:32Z</time>
      </trkpt>
      <trkpt lat="42.89409" lon="0.10746">
        <ele>1600.5</ele>
        <time>2021-03-25T10:45:33Z</time>
      </trkpt>
      <trkpt lat="42.89409" lon="0.10746">
        <ele>1600.6</ele>
        <time>2021-03-25T10:45:34Z</time>
      </trkpt>
      <trkpt lat="42.89408" lon="0.10745">
        <ele>1600.7</ele>
        <time>2021-03-25T10:45:35Z</time>
      </trkpt>
      <trkpt lat="42.89407" lon="0.10745">
        <ele>1600.7</ele>
        <time>2021-03-25T10:45:36Z</time>
      </trkpt>
      <trkpt lat="42.89406" lon="0.10744">
        <ele>1600.9</ele>
        <time>2021-03-25T10:45:38Z</time>
      </trkpt>
      <trkpt lat="42.89405" lon="0.10743">
        <ele>1601</ele>
        <time>2021-03-25T10:45:39Z</time>
      </trkpt>
      <trkpt lat="42.89403" lon="0.1074">
        <ele>1601.4</ele>
        <time>2021-03-25T10:45:41Z</time>
      </trkpt>
      <trkpt lat="42.89402" lon="0.10739">
        <ele>1601.5</ele>
        <time>2021-03-25T10:45:42Z</time>
      </trkpt>
      <trkpt lat="42.89401" lon="0.10737">
        <ele>1601.7</ele>
        <time>2021-03-25T10:45:43Z</time>
      </trkpt>
      <trkpt lat="42.89401" lon="0.10734">
        <ele>1601.9</ele>
        <time>2021-03-25T10:45:45Z</time>
      </trkpt>
      <trkpt lat="42.89399" lon="0.1073">
        <ele>1602.3</ele>
        <time>2021-03-25T10:45:46Z</time>
      </trkpt>
      <trkpt lat="42.89399" lon="0.10728">
        <ele>1602.4</ele>
        <time>2021-03-25T10:45:47Z</time>
      </trkpt>
      <trkpt lat="42.89398" lon="0.10725">
        <ele>1602.7</ele>
        <time>2021-03-25T10:45:49Z</time>
      </trkpt>
      <trkpt lat="42.89399" lon="0.10722">
        <ele>1602.9</ele>
        <time>2021-03-25T10:45:50Z</time>
      </trkpt>
      <trkpt lat="42.89399" lon="0.1072">
        <ele>1603</ele>
        <time>2021-03-25T10:45:51Z</time>
      </trkpt>
      <trkpt lat="42.89399" lon="0.10718">
        <ele>1603.2</ele>
        <time>2021-03-25T10:45:53Z</time>
      </trkpt>
      <trkpt lat="42.89399" lon="0.10716">
        <ele>1603.4</ele>
        <time>2021-03-25T10:45:54Z</time>
      </trkpt>
      <trkpt lat="42.89399" lon="0.10714">
        <ele>1603.5</ele>
        <time>2021-03-25T10:45:56Z</time>
      </trkpt>
      <trkpt lat="42.89399" lon="0.10715">
        <ele>1603.5</ele>
        <time>2021-03-25T10:45:57Z</time>
      </trkpt>
      <trkpt lat="42.89398" lon="0.10716">
        <ele>1603.6</ele>
        <time>2021-03-25T10:45:59Z</time>
      </trkpt>
      <trkpt lat="42.89397" lon="0.10717">
        <ele>1603.7</ele>
        <time>2021-03-25T10:46:00Z</time>
      </trkpt>
      <trkpt lat="42.89396" lon="0.10719">
        <ele>1603.9</ele>
        <time>2021-03-25T10:46:02Z</time>
      </trkpt>
      <trkpt lat="42.89395" lon="0.10722">
        <ele>1604.1</ele>
        <time>2021-03-25T10:46:04Z</time>
      </trkpt>
      <trkpt lat="42.89394" lon="0.10724">
        <ele>1604.3</ele>
        <time>2021-03-25T10:46:06Z</time>
      </trkpt>
      <trkpt lat="42.89393" lon="0.10726">
        <ele>1604.5</ele>
        <time>2021-03-25T10:46:07Z</time>
      </trkpt>
      <trkpt lat="42.89393" lon="0.10727">
        <ele>1604.6</ele>
        <time>2021-03-25T10:46:08Z</time>
      </trkpt>
      <trkpt lat="42.89392" lon="0.10729">
        <ele>1604.8</ele>
        <time>2021-03-25T10:46:10Z</time>
      </trkpt>
      <trkpt lat="42.89391" lon="0.1073">
        <ele>1604.9</ele>
        <time>2021-03-25T10:46:11Z</time>
      </trkpt>
      <trkpt lat="42.8939" lon="0.10731">
        <ele>1605</ele>
        <time>2021-03-25T10:46:12Z</time>
      </trkpt>
      <trkpt lat="42.89389" lon="0.10732">
        <ele>1605.2</ele>
        <time>2021-03-25T10:46:13Z</time>
      </trkpt>
      <trkpt lat="42.89388" lon="0.10734">
        <ele>1605.4</ele>
        <time>2021-03-25T10:46:15Z</time>
      </trkpt>
      <trkpt lat="42.89387" lon="0.10736">
        <ele>1605.5</ele>
        <time>2021-03-25T10:46:17Z</time>
      </trkpt>
      <trkpt lat="42.89387" lon="0.10737">
        <ele>1605.6</ele>
        <time>2021-03-25T10:46:18Z</time>
      </trkpt>
      <trkpt lat="42.89387" lon="0.10738">
        <ele>1605.7</ele>
        <time>2021-03-25T10:46:20Z</time>
      </trkpt>
      <trkpt lat="42.89386" lon="0.10739">
        <ele>1605.9</ele>
        <time>2021-03-25T10:46:22Z</time>
      </trkpt>
      <trkpt lat="42.89385" lon="0.1074">
        <ele>1605.9</ele>
        <time>2021-03-25T10:46:23Z</time>
      </trkpt>
      <trkpt lat="42.89384" lon="0.1074">
        <ele>1606.1</ele>
        <time>2021-03-25T10:46:25Z</time>
      </trkpt>
      <trkpt lat="42.89383" lon="0.10741">
        <ele>1606.2</ele>
        <time>2021-03-25T10:46:26Z</time>
      </trkpt>
      <trkpt lat="42.89381" lon="0.10742">
        <ele>1606.4</ele>
        <time>2021-03-25T10:46:28Z</time>
      </trkpt>
      <trkpt lat="42.89379" lon="0.10743">
        <ele>1606.6</ele>
        <time>2021-03-25T10:46:30Z</time>
      </trkpt>
      <trkpt lat="42.89378" lon="0.10744">
        <ele>1606.7</ele>
        <time>2021-03-25T10:46:31Z</time>
      </trkpt>
      <trkpt lat="42.89377" lon="0.10745">
        <ele>1606.8</ele>
        <time>2021-03-25T10:46:32Z</time>
      </trkpt>
      <trkpt lat="42.89376" lon="0.10747">
        <ele>1607</ele>
        <time>2021-03-25T10:46:34Z</time>
      </trkpt>
      <trkpt lat="42.89375" lon="0.10748">
        <ele>1607.2</ele>
        <time>2021-03-25T10:46:35Z</time>
      </trkpt>
      <trkpt lat="42.89374" lon="0.10748">
        <ele>1607.3</ele>
        <time>2021-03-25T10:46:36Z</time>
      </trkpt>
      <trkpt lat="42.89373" lon="0.10749">
        <ele>1607.4</ele>
        <time>2021-03-25T10:46:38Z</time>
      </trkpt>
      <trkpt lat="42.89372" lon="0.1075">
        <ele>1607.5</ele>
        <time>2021-03-25T10:46:39Z</time>
      </trkpt>
      <trkpt lat="42.89371" lon="0.1075">
        <ele>1607.6</ele>
        <time>2021-03-25T10:46:40Z</time>
      </trkpt>
      <trkpt lat="42.89371" lon="0.10751">
        <ele>1607.6</ele>
        <time>2021-03-25T10:46:42Z</time>
      </trkpt>
      <trkpt lat="42.8937" lon="0.10751">
        <ele>1607.7</ele>
        <time>2021-03-25T10:46:43Z</time>
      </trkpt>
      <trkpt lat="42.8937" lon="0.10751">
        <ele>1607.8</ele>
        <time>2021-03-25T10:46:44Z</time>
      </trkpt>
      <trkpt lat="42.89369" lon="0.10751">
        <ele>1607.8</ele>
        <time>2021-03-25T10:46:45Z</time>
      </trkpt>
      <trkpt lat="42.89368" lon="0.10751">
        <ele>1607.9</ele>
        <time>2021-03-25T10:46:47Z</time>
      </trkpt>
      <trkpt lat="42.89367" lon="0.10752">
        <ele>1608.1</ele>
        <time>2021-03-25T10:46:48Z</time>
      </trkpt>
      <trkpt lat="42.89365" lon="0.10753">
        <ele>1608.2</ele>
        <time>2021-03-25T10:46:50Z</time>
      </trkpt>
      <trkpt lat="42.89363" lon="0.10754">
        <ele>1608.5</ele>
        <time>2021-03-25T10:46:51Z</time>
      </trkpt>
      <trkpt lat="42.89362" lon="0.10755">
        <ele>1608.6</ele>
        <time>2021-03-25T10:46:53Z</time>
      </trkpt>
      <trkpt lat="42.89361" lon="0.10755">
        <ele>1608.7</ele>
        <time>2021-03-25T10:46:54Z</time>
      </trkpt>
      <trkpt lat="42.8936" lon="0.10757">
        <ele>1609</ele>
        <time>2021-03-25T10:46:56Z</time>
      </trkpt>
      <trkpt lat="42.89359" lon="0.10758">
        <ele>1609.1</ele>
        <time>2021-03-25T10:46:57Z</time>
      </trkpt>
      <trkpt lat="42.89358" lon="0.10759">
        <ele>1609.3</ele>
        <time>2021-03-25T10:46:59Z</time>
      </trkpt>
      <trkpt lat="42.89357" lon="0.10759">
        <ele>1609.4</ele>
        <time>2021-03-25T10:47:00Z</time>
      </trkpt>
      <trkpt lat="42.89356" lon="0.1076">
        <ele>1609.6</ele>
        <time>2021-03-25T10:47:01Z</time>
      </trkpt>
      <trkpt lat="42.89355" lon="0.1076">
        <ele>1609.8</ele>
        <time>2021-03-25T10:47:03Z</time>
      </trkpt>
      <trkpt lat="42.89355" lon="0.10761">
        <ele>1609.9</ele>
        <time>2021-03-25T10:47:04Z</time>
      </trkpt>
      <trkpt lat="42.89354" lon="0.10761">
        <ele>1610</ele>
        <time>2021-03-25T10:47:05Z</time>
      </trkpt>
      <trkpt lat="42.89353" lon="0.10761">
        <ele>1610.2</ele>
        <time>2021-03-25T10:47:06Z</time>
      </trkpt>
      <trkpt lat="42.89352" lon="0.10761">
        <ele>1610.3</ele>
        <time>2021-03-25T10:47:07Z</time>
      </trkpt>
      <trkpt lat="42.8935" lon="0.10762">
        <ele>1610.6</ele>
        <time>2021-03-25T10:47:09Z</time>
      </trkpt>
      <trkpt lat="42.8935" lon="0.10762">
        <ele>1610.7</ele>
        <time>2021-03-25T10:47:10Z</time>
      </trkpt>
      <trkpt lat="42.89349" lon="0.10762">
        <ele>1610.9</ele>
        <time>2021-03-25T10:47:11Z</time>
      </trkpt>
      <trkpt lat="42.89348" lon="0.10763">
        <ele>1611</ele>
        <time>2021-03-25T10:47:13Z</time>
      </trkpt>
      <trkpt lat="42.89347" lon="0.10763">
        <ele>1611.2</ele>
        <time>2021-03-25T10:47:14Z</time>
      </trkpt>
      <trkpt lat="42.89347" lon="0.10764">
        <ele>1611.3</ele>
        <time>2021-03-25T10:47:15Z</time>
      </trkpt>
      <trkpt lat="42.89346" lon="0.10764">
        <ele>1611.4</ele>
        <time>2021-03-25T10:47:16Z</time>
      </trkpt>
      <trkpt lat="42.89346" lon="0.10765">
        <ele>1611.5</ele>
        <time>2021-03-25T10:47:18Z</time>
      </trkpt>
      <trkpt lat="42.89346" lon="0.10766">
        <ele>1611.7</ele>
        <time>2021-03-25T10:47:19Z</time>
      </trkpt>
      <trkpt lat="42.89345" lon="0.10766">
        <ele>1611.7</ele>
        <time>2021-03-25T10:47:21Z</time>
      </trkpt>
      <trkpt lat="42.89345" lon="0.10767">
        <ele>1611.9</ele>
        <time>2021-03-25T10:47:22Z</time>
      </trkpt>
      <trkpt lat="42.89345" lon="0.10767">
        <ele>1612</ele>
        <time>2021-03-25T10:47:23Z</time>
      </trkpt>
      <trkpt lat="42.89344" lon="0.10768">
        <ele>1612.2</ele>
        <time>2021-03-25T10:47:25Z</time>
      </trkpt>
      <trkpt lat="42.89344" lon="0.10769">
        <ele>1612.2</ele>
        <time>2021-03-25T10:47:26Z</time>
      </trkpt>
      <trkpt lat="42.89344" lon="0.1077">
        <ele>1612.4</ele>
        <time>2021-03-25T10:47:28Z</time>
      </trkpt>
      <trkpt lat="42.89344" lon="0.1077">
        <ele>1612.4</ele>
        <time>2021-03-25T10:47:29Z</time>
      </trkpt>
      <trkpt lat="42.89344" lon="0.10771">
        <ele>1612.6</ele>
        <time>2021-03-25T10:47:31Z</time>
      </trkpt>
      <trkpt lat="42.89343" lon="0.10772">
        <ele>1612.7</ele>
        <time>2021-03-25T10:47:32Z</time>
      </trkpt>
      <trkpt lat="42.89343" lon="0.10772">
        <ele>1612.8</ele>
        <time>2021-03-25T10:47:34Z</time>
      </trkpt>
      <trkpt lat="42.89342" lon="0.10772">
        <ele>1613</ele>
        <time>2021-03-25T10:47:35Z</time>
      </trkpt>
      <trkpt lat="42.8934" lon="0.10771">
        <ele>1613.3</ele>
        <time>2021-03-25T10:47:37Z</time>
      </trkpt>
      <trkpt lat="42.89338" lon="0.1077">
        <ele>1613.5</ele>
        <time>2021-03-25T10:47:39Z</time>
      </trkpt>
      <trkpt lat="42.89337" lon="0.1077">
        <ele>1613.7</ele>
        <time>2021-03-25T10:47:40Z</time>
      </trkpt>
      <trkpt lat="42.89336" lon="0.10768">
        <ele>1613.9</ele>
        <time>2021-03-25T10:47:42Z</time>
      </trkpt>
      <trkpt lat="42.89335" lon="0.10767">
        <ele>1614.2</ele>
        <time>2021-03-25T10:47:43Z</time>
      </trkpt>
      <trkpt lat="42.89334" lon="0.10765">
        <ele>1614.3</ele>
        <time>2021-03-25T10:47:44Z</time>
      </trkpt>
      <trkpt lat="42.89333" lon="0.10764">
        <ele>1614.5</ele>
        <time>2021-03-25T10:47:46Z</time>
      </trkpt>
      <trkpt lat="42.89333" lon="0.10762">
        <ele>1614.7</ele>
        <time>2021-03-25T10:47:47Z</time>
      </trkpt>
      <trkpt lat="42.89332" lon="0.10762">
        <ele>1614.8</ele>
        <time>2021-03-25T10:47:48Z</time>
      </trkpt>
      <trkpt lat="42.89331" lon="0.10761">
        <ele>1614.9</ele>
        <time>2021-03-25T10:47:50Z</time>
      </trkpt>
      <trkpt lat="42.89331" lon="0.10761">
        <ele>1615.1</ele>
        <time>2021-03-25T10:47:51Z</time>
      </trkpt>
      <trkpt lat="42.8933" lon="0.1076">
        <ele>1615.2</ele>
        <time>2021-03-25T10:47:53Z</time>
      </trkpt>
      <trkpt lat="42.8933" lon="0.10759">
        <ele>1615.4</ele>
        <time>2021-03-25T10:47:54Z</time>
      </trkpt>
      <trkpt lat="42.8933" lon="0.10759">
        <ele>1615.5</ele>
        <time>2021-03-25T10:47:55Z</time>
      </trkpt>
      <trkpt lat="42.89329" lon="0.10758">
        <ele>1615.6</ele>
        <time>2021-03-25T10:47:57Z</time>
      </trkpt>
      <trkpt lat="42.89329" lon="0.10756">
        <ele>1615.8</ele>
        <time>2021-03-25T10:47:58Z</time>
      </trkpt>
      <trkpt lat="42.89329" lon="0.10755">
        <ele>1615.9</ele>
        <time>2021-03-25T10:48:00Z</time>
      </trkpt>
      <trkpt lat="42.89329" lon="0.10754">
        <ele>1616.1</ele>
        <time>2021-03-25T10:48:01Z</time>
      </trkpt>
      <trkpt lat="42.89329" lon="0.10753">
        <ele>1616.1</ele>
        <time>2021-03-25T10:48:02Z</time>
      </trkpt>
      <trkpt lat="42.89329" lon="0.10751">
        <ele>1616.4</ele>
        <time>2021-03-25T10:48:04Z</time>
      </trkpt>
      <trkpt lat="42.89329" lon="0.10749">
        <ele>1616.6</ele>
        <time>2021-03-25T10:48:05Z</time>
      </trkpt>
      <trkpt lat="42.89329" lon="0.10747">
        <ele>1616.7</ele>
        <time>2021-03-25T10:48:06Z</time>
      </trkpt>
      <trkpt lat="42.89328" lon="0.10746">
        <ele>1616.8</ele>
        <time>2021-03-25T10:48:08Z</time>
      </trkpt>
      <trkpt lat="42.89328" lon="0.10745">
        <ele>1616.9</ele>
        <time>2021-03-25T10:48:09Z</time>
      </trkpt>
      <trkpt lat="42.89327" lon="0.10744">
        <ele>1617.1</ele>
        <time>2021-03-25T10:48:10Z</time>
      </trkpt>
      <trkpt lat="42.89327" lon="0.10743">
        <ele>1617.2</ele>
        <time>2021-03-25T10:48:12Z</time>
      </trkpt>
      <trkpt lat="42.89326" lon="0.10742">
        <ele>1617.4</ele>
        <time>2021-03-25T10:48:13Z</time>
      </trkpt>
      <trkpt lat="42.89326" lon="0.10741">
        <ele>1617.5</ele>
        <time>2021-03-25T10:48:14Z</time>
      </trkpt>
      <trkpt lat="42.89325" lon="0.1074">
        <ele>1617.7</ele>
        <time>2021-03-25T10:48:16Z</time>
      </trkpt>
      <trkpt lat="42.89325" lon="0.10739">
        <ele>1617.8</ele>
        <time>2021-03-25T10:48:17Z</time>
      </trkpt>
      <trkpt lat="42.89324" lon="0.10738">
        <ele>1618</ele>
        <time>2021-03-25T10:48:19Z</time>
      </trkpt>
      <trkpt lat="42.89324" lon="0.10736">
        <ele>1618</ele>
        <time>2021-03-25T10:48:20Z</time>
      </trkpt>
      <trkpt lat="42.89323" lon="0.10736">
        <ele>1618.2</ele>
        <time>2021-03-25T10:48:21Z</time>
      </trkpt>
      <trkpt lat="42.89322" lon="0.10735">
        <ele>1618.4</ele>
        <time>2021-03-25T10:48:22Z</time>
      </trkpt>
      <trkpt lat="42.89319" lon="0.10735">
        <ele>1618.6</ele>
        <time>2021-03-25T10:48:24Z</time>
      </trkpt>
      <trkpt lat="42.89317" lon="0.10735">
        <ele>1618.8</ele>
        <time>2021-03-25T10:48:25Z</time>
      </trkpt>
      <trkpt lat="42.89315" lon="0.10735">
        <ele>1619.1</ele>
        <time>2021-03-25T10:48:27Z</time>
      </trkpt>
      <trkpt lat="42.89314" lon="0.10734">
        <ele>1619.2</ele>
        <time>2021-03-25T10:48:28Z</time>
      </trkpt>
      <trkpt lat="42.89313" lon="0.10734">
        <ele>1619.4</ele>
        <time>2021-03-25T10:48:29Z</time>
      </trkpt>
      <trkpt lat="42.89311" lon="0.10734">
        <ele>1619.6</ele>
        <time>2021-03-25T10:48:31Z</time>
      </trkpt>
      <trkpt lat="42.8931" lon="0.10734">
        <ele>1619.8</ele>
        <time>2021-03-25T10:48:32Z</time>
      </trkpt>
      <trkpt lat="42.89308" lon="0.10734">
        <ele>1619.9</ele>
        <time>2021-03-25T10:48:34Z</time>
      </trkpt>
      <trkpt lat="42.89307" lon="0.10734">
        <ele>1620.1</ele>
        <time>2021-03-25T10:48:35Z</time>
      </trkpt>
      <trkpt lat="42.89306" lon="0.10735">
        <ele>1620.2</ele>
        <time>2021-03-25T10:48:37Z</time>
      </trkpt>
      <trkpt lat="42.89305" lon="0.10735">
        <ele>1620.4</ele>
        <time>2021-03-25T10:48:38Z</time>
      </trkpt>
      <trkpt lat="42.89304" lon="0.10736">
        <ele>1620.6</ele>
        <time>2021-03-25T10:48:39Z</time>
      </trkpt>
      <trkpt lat="42.89303" lon="0.10736">
        <ele>1620.8</ele>
        <time>2021-03-25T10:48:40Z</time>
      </trkpt>
      <trkpt lat="42.89302" lon="0.10736">
        <ele>1620.8</ele>
        <time>2021-03-25T10:48:42Z</time>
      </trkpt>
      <trkpt lat="42.89301" lon="0.10736">
        <ele>1620.9</ele>
        <time>2021-03-25T10:48:43Z</time>
      </trkpt>
      <trkpt lat="42.893" lon="0.10737">
        <ele>1621.2</ele>
        <time>2021-03-25T10:48:44Z</time>
      </trkpt>
      <trkpt lat="42.893" lon="0.10738">
        <ele>1621.3</ele>
        <time>2021-03-25T10:48:45Z</time>
      </trkpt>
      <trkpt lat="42.89299" lon="0.10738">
        <ele>1621.4</ele>
        <time>2021-03-25T10:48:47Z</time>
      </trkpt>
      <trkpt lat="42.89298" lon="0.10739">
        <ele>1621.5</ele>
        <time>2021-03-25T10:48:48Z</time>
      </trkpt>
      <trkpt lat="42.89297" lon="0.1074">
        <ele>1621.6</ele>
        <time>2021-03-25T10:48:50Z</time>
      </trkpt>
      <trkpt lat="42.89296" lon="0.1074">
        <ele>1621.8</ele>
        <time>2021-03-25T10:48:51Z</time>
      </trkpt>
      <trkpt lat="42.89296" lon="0.1074">
        <ele>1621.9</ele>
        <time>2021-03-25T10:48:52Z</time>
      </trkpt>
      <trkpt lat="42.89295" lon="0.1074">
        <ele>1622</ele>
        <time>2021-03-25T10:48:53Z</time>
      </trkpt>
      <trkpt lat="42.89294" lon="0.10739">
        <ele>1622.2</ele>
        <time>2021-03-25T10:48:55Z</time>
      </trkpt>
      <trkpt lat="42.89293" lon="0.10739">
        <ele>1622.3</ele>
        <time>2021-03-25T10:48:56Z</time>
      </trkpt>
      <trkpt lat="42.89292" lon="0.10738">
        <ele>1622.4</ele>
        <time>2021-03-25T10:48:58Z</time>
      </trkpt>
      <trkpt lat="42.89292" lon="0.10737">
        <ele>1622.6</ele>
        <time>2021-03-25T10:48:59Z</time>
      </trkpt>
      <trkpt lat="42.89291" lon="0.10737">
        <ele>1622.7</ele>
        <time>2021-03-25T10:49:01Z</time>
      </trkpt>
      <trkpt lat="42.8929" lon="0.10737">
        <ele>1622.8</ele>
        <time>2021-03-25T10:49:02Z</time>
      </trkpt>
      <trkpt lat="42.89289" lon="0.10738">
        <ele>1623</ele>
        <time>2021-03-25T10:49:04Z</time>
      </trkpt>
      <trkpt lat="42.89289" lon="0.10739">
        <ele>1623</ele>
        <time>2021-03-25T10:49:05Z</time>
      </trkpt>
      <trkpt lat="42.89288" lon="0.1074">
        <ele>1623.2</ele>
        <time>2021-03-25T10:49:06Z</time>
      </trkpt>
      <trkpt lat="42.89288" lon="0.10741">
        <ele>1623.3</ele>
        <time>2021-03-25T10:49:08Z</time>
      </trkpt>
      <trkpt lat="42.89288" lon="0.10741">
        <ele>1623.3</ele>
        <time>2021-03-25T10:49:09Z</time>
      </trkpt>
      <trkpt lat="42.89287" lon="0.10741">
        <ele>1623.5</ele>
        <time>2021-03-25T10:49:10Z</time>
      </trkpt>
      <trkpt lat="42.89286" lon="0.1074">
        <ele>1623.6</ele>
        <time>2021-03-25T10:49:12Z</time>
      </trkpt>
      <trkpt lat="42.89286" lon="0.1074">
        <ele>1623.8</ele>
        <time>2021-03-25T10:49:13Z</time>
      </trkpt>
      <trkpt lat="42.89285" lon="0.10739">
        <ele>1623.9</ele>
        <time>2021-03-25T10:49:14Z</time>
      </trkpt>
      <trkpt lat="42.89284" lon="0.10738">
        <ele>1624</ele>
        <time>2021-03-25T10:49:15Z</time>
      </trkpt>
      <trkpt lat="42.89283" lon="0.10737">
        <ele>1624.1</ele>
        <time>2021-03-25T10:49:16Z</time>
      </trkpt>
      <trkpt lat="42.89281" lon="0.10736">
        <ele>1624.3</ele>
        <time>2021-03-25T10:49:18Z</time>
      </trkpt>
      <trkpt lat="42.89281" lon="0.10736">
        <ele>1624.3</ele>
        <time>2021-03-25T10:49:19Z</time>
      </trkpt>
      <trkpt lat="42.8928" lon="0.10736">
        <ele>1624.4</ele>
        <time>2021-03-25T10:49:20Z</time>
      </trkpt>
      <trkpt lat="42.89277" lon="0.10736">
        <ele>1624.7</ele>
        <time>2021-03-25T10:49:22Z</time>
      </trkpt>
      <trkpt lat="42.89276" lon="0.10737">
        <ele>1624.8</ele>
        <time>2021-03-25T10:49:23Z</time>
      </trkpt>
      <trkpt lat="42.89275" lon="0.10738">
        <ele>1624.9</ele>
        <time>2021-03-25T10:49:24Z</time>
      </trkpt>
      <trkpt lat="42.89273" lon="0.10738">
        <ele>1625</ele>
        <time>2021-03-25T10:49:25Z</time>
      </trkpt>
      <trkpt lat="42.89272" lon="0.10739">
        <ele>1625.2</ele>
        <time>2021-03-25T10:49:27Z</time>
      </trkpt>
      <trkpt lat="42.8927" lon="0.1074">
        <ele>1625.4</ele>
        <time>2021-03-25T10:49:28Z</time>
      </trkpt>
      <trkpt lat="42.89268" lon="0.10741">
        <ele>1625.5</ele>
        <time>2021-03-25T10:49:29Z</time>
      </trkpt>
      <trkpt lat="42.89267" lon="0.10742">
        <ele>1625.7</ele>
        <time>2021-03-25T10:49:31Z</time>
      </trkpt>
      <trkpt lat="42.89265" lon="0.10744">
        <ele>1625.9</ele>
        <time>2021-03-25T10:49:32Z</time>
      </trkpt>
      <trkpt lat="42.89264" lon="0.10747">
        <ele>1626.1</ele>
        <time>2021-03-25T10:49:34Z</time>
      </trkpt>
      <trkpt lat="42.89262" lon="0.10749">
        <ele>1626.3</ele>
        <time>2021-03-25T10:49:35Z</time>
      </trkpt>
      <trkpt lat="42.89262" lon="0.10752">
        <ele>1626.5</ele>
        <time>2021-03-25T10:49:37Z</time>
      </trkpt>
      <trkpt lat="42.8926" lon="0.10754">
        <ele>1626.7</ele>
        <time>2021-03-25T10:49:38Z</time>
      </trkpt>
      <trkpt lat="42.8926" lon="0.10755">
        <ele>1626.8</ele>
        <time>2021-03-25T10:49:40Z</time>
      </trkpt>
      <trkpt lat="42.89259" lon="0.10756">
        <ele>1626.8</ele>
        <time>2021-03-25T10:49:41Z</time>
      </trkpt>
      <trkpt lat="42.89259" lon="0.10756">
        <ele>1626.9</ele>
        <time>2021-03-25T10:49:43Z</time>
      </trkpt>
      <trkpt lat="42.89258" lon="0.10756">
        <ele>1627</ele>
        <time>2021-03-25T10:49:44Z</time>
      </trkpt>
      <trkpt lat="42.89257" lon="0.10757">
        <ele>1627.1</ele>
        <time>2021-03-25T10:49:46Z</time>
      </trkpt>
      <trkpt lat="42.89256" lon="0.10756">
        <ele>1627.1</ele>
        <time>2021-03-25T10:49:47Z</time>
      </trkpt>
      <trkpt lat="42.89256" lon="0.10756">
        <ele>1627.2</ele>
        <time>2021-03-25T10:49:48Z</time>
      </trkpt>
      <trkpt lat="42.89255" lon="0.10755">
        <ele>1627.3</ele>
        <time>2021-03-25T10:49:50Z</time>
      </trkpt>
      <trkpt lat="42.89254" lon="0.10755">
        <ele>1627.4</ele>
        <time>2021-03-25T10:49:51Z</time>
      </trkpt>
      <trkpt lat="42.89252" lon="0.10754">
        <ele>1627.5</ele>
        <time>2021-03-25T10:49:53Z</time>
      </trkpt>
      <trkpt lat="42.89251" lon="0.10754">
        <ele>1627.7</ele>
        <time>2021-03-25T10:49:55Z</time>
      </trkpt>
      <trkpt lat="42.8925" lon="0.10754">
        <ele>1627.7</ele>
        <time>2021-03-25T10:49:56Z</time>
      </trkpt>
      <trkpt lat="42.89249" lon="0.10755">
        <ele>1627.8</ele>
        <time>2021-03-25T10:49:58Z</time>
      </trkpt>
      <trkpt lat="42.89248" lon="0.10756">
        <ele>1627.9</ele>
        <time>2021-03-25T10:49:59Z</time>
      </trkpt>
      <trkpt lat="42.89247" lon="0.10757">
        <ele>1628</ele>
        <time>2021-03-25T10:50:00Z</time>
      </trkpt>
      <trkpt lat="42.89246" lon="0.10757">
        <ele>1628.1</ele>
        <time>2021-03-25T10:50:01Z</time>
      </trkpt>
      <trkpt lat="42.89244" lon="0.10757">
        <ele>1628.3</ele>
        <time>2021-03-25T10:50:03Z</time>
      </trkpt>
      <trkpt lat="42.89243" lon="0.10757">
        <ele>1628.4</ele>
        <time>2021-03-25T10:50:04Z</time>
      </trkpt>
      <trkpt lat="42.89241" lon="0.10757">
        <ele>1628.5</ele>
        <time>2021-03-25T10:50:05Z</time>
      </trkpt>
      <trkpt lat="42.89239" lon="0.10756">
        <ele>1628.7</ele>
        <time>2021-03-25T10:50:07Z</time>
      </trkpt>
      <trkpt lat="42.89238" lon="0.10756">
        <ele>1628.8</ele>
        <time>2021-03-25T10:50:08Z</time>
      </trkpt>
      <trkpt lat="42.89238" lon="0.10755">
        <ele>1628.9</ele>
        <time>2021-03-25T10:50:09Z</time>
      </trkpt>
      <trkpt lat="42.89236" lon="0.10754">
        <ele>1629</ele>
        <time>2021-03-25T10:50:10Z</time>
      </trkpt>
      <trkpt lat="42.89234" lon="0.10751">
        <ele>1629.3</ele>
        <time>2021-03-25T10:50:12Z</time>
      </trkpt>
      <trkpt lat="42.89232" lon="0.10747">
        <ele>1629.6</ele>
        <time>2021-03-25T10:50:13Z</time>
      </trkpt>
      <trkpt lat="42.89232" lon="0.10745">
        <ele>1629.7</ele>
        <time>2021-03-25T10:50:14Z</time>
      </trkpt>
      <trkpt lat="42.89231" lon="0.10743">
        <ele>1629.9</ele>
        <time>2021-03-25T10:50:15Z</time>
      </trkpt>
      <trkpt lat="42.8923" lon="0.10739">
        <ele>1630.2</ele>
        <time>2021-03-25T10:50:17Z</time>
      </trkpt>
      <trkpt lat="42.89228" lon="0.10735">
        <ele>1630.5</ele>
        <time>2021-03-25T10:50:18Z</time>
      </trkpt>
      <trkpt lat="42.89228" lon="0.10734">
        <ele>1630.6</ele>
        <time>2021-03-25T10:50:19Z</time>
      </trkpt>
      <trkpt lat="42.89227" lon="0.10732">
        <ele>1630.8</ele>
        <time>2021-03-25T10:50:20Z</time>
      </trkpt>
      <trkpt lat="42.89226" lon="0.10729">
        <ele>1631</ele>
        <time>2021-03-25T10:50:22Z</time>
      </trkpt>
      <trkpt lat="42.89225" lon="0.10727">
        <ele>1631.2</ele>
        <time>2021-03-25T10:50:23Z</time>
      </trkpt>
      <trkpt lat="42.89224" lon="0.10726">
        <ele>1631.3</ele>
        <time>2021-03-25T10:50:24Z</time>
      </trkpt>
      <trkpt lat="42.89223" lon="0.10725">
        <ele>1631.4</ele>
        <time>2021-03-25T10:50:25Z</time>
      </trkpt>
      <trkpt lat="42.89221" lon="0.10724">
        <ele>1631.6</ele>
        <time>2021-03-25T10:50:27Z</time>
      </trkpt>
      <trkpt lat="42.8922" lon="0.10723">
        <ele>1631.7</ele>
        <time>2021-03-25T10:50:28Z</time>
      </trkpt>
      <trkpt lat="42.89219" lon="0.10723">
        <ele>1631.9</ele>
        <time>2021-03-25T10:50:29Z</time>
      </trkpt>
      <trkpt lat="42.89217" lon="0.10722">
        <ele>1632.1</ele>
        <time>2021-03-25T10:50:30Z</time>
      </trkpt>
      <trkpt lat="42.89216" lon="0.10722">
        <ele>1632.2</ele>
        <time>2021-03-25T10:50:31Z</time>
      </trkpt>
      <trkpt lat="42.89215" lon="0.10721">
        <ele>1632.2</ele>
        <time>2021-03-25T10:50:32Z</time>
      </trkpt>
      <trkpt lat="42.89214" lon="0.10721">
        <ele>1632.4</ele>
        <time>2021-03-25T10:50:34Z</time>
      </trkpt>
      <trkpt lat="42.89212" lon="0.10721">
        <ele>1632.5</ele>
        <time>2021-03-25T10:50:35Z</time>
      </trkpt>
      <trkpt lat="42.8921" lon="0.10722">
        <ele>1632.7</ele>
        <time>2021-03-25T10:50:36Z</time>
      </trkpt>
      <trkpt lat="42.8921" lon="0.10722">
        <ele>1632.8</ele>
        <time>2021-03-25T10:50:37Z</time>
      </trkpt>
      <trkpt lat="42.89209" lon="0.10722">
        <ele>1632.9</ele>
        <time>2021-03-25T10:50:38Z</time>
      </trkpt>
      <trkpt lat="42.89207" lon="0.10722">
        <ele>1633.1</ele>
        <time>2021-03-25T10:50:40Z</time>
      </trkpt>
      <trkpt lat="42.89206" lon="0.10722">
        <ele>1633.2</ele>
        <time>2021-03-25T10:50:41Z</time>
      </trkpt>
      <trkpt lat="42.89205" lon="0.10722">
        <ele>1633.3</ele>
        <time>2021-03-25T10:50:42Z</time>
      </trkpt>
      <trkpt lat="42.89204" lon="0.10722">
        <ele>1633.4</ele>
        <time>2021-03-25T10:50:43Z</time>
      </trkpt>
      <trkpt lat="42.89203" lon="0.10722">
        <ele>1633.5</ele>
        <time>2021-03-25T10:50:44Z</time>
      </trkpt>
      <trkpt lat="42.89202" lon="0.10721">
        <ele>1633.6</ele>
        <time>2021-03-25T10:50:45Z</time>
      </trkpt>
      <trkpt lat="42.89201" lon="0.10721">
        <ele>1633.7</ele>
        <time>2021-03-25T10:50:47Z</time>
      </trkpt>
      <trkpt lat="42.89199" lon="0.10721">
        <ele>1633.9</ele>
        <time>2021-03-25T10:50:48Z</time>
      </trkpt>
      <trkpt lat="42.89198" lon="0.10721">
        <ele>1634</ele>
        <time>2021-03-25T10:50:49Z</time>
      </trkpt>
      <trkpt lat="42.89198" lon="0.10722">
        <ele>1634.1</ele>
        <time>2021-03-25T10:50:50Z</time>
      </trkpt>
      <trkpt lat="42.89197" lon="0.10723">
        <ele>1634.2</ele>
        <time>2021-03-25T10:50:51Z</time>
      </trkpt>
      <trkpt lat="42.89195" lon="0.10724">
        <ele>1634.3</ele>
        <time>2021-03-25T10:50:52Z</time>
      </trkpt>
      <trkpt lat="42.89194" lon="0.10725">
        <ele>1634.5</ele>
        <time>2021-03-25T10:50:54Z</time>
      </trkpt>
      <trkpt lat="42.89192" lon="0.10726">
        <ele>1634.7</ele>
        <time>2021-03-25T10:50:55Z</time>
      </trkpt>
      <trkpt lat="42.89191" lon="0.10727">
        <ele>1634.8</ele>
        <time>2021-03-25T10:50:56Z</time>
      </trkpt>
      <trkpt lat="42.8919" lon="0.10728">
        <ele>1635</ele>
        <time>2021-03-25T10:50:57Z</time>
      </trkpt>
      <trkpt lat="42.89189" lon="0.10729">
        <ele>1635.1</ele>
        <time>2021-03-25T10:50:58Z</time>
      </trkpt>
      <trkpt lat="42.89187" lon="0.1073">
        <ele>1635.2</ele>
        <time>2021-03-25T10:50:59Z</time>
      </trkpt>
      <trkpt lat="42.89185" lon="0.10733">
        <ele>1635.5</ele>
        <time>2021-03-25T10:51:01Z</time>
      </trkpt>
      <trkpt lat="42.89184" lon="0.10733">
        <ele>1635.5</ele>
        <time>2021-03-25T10:51:02Z</time>
      </trkpt>
      <trkpt lat="42.89182" lon="0.10733">
        <ele>1635.8</ele>
        <time>2021-03-25T10:51:03Z</time>
      </trkpt>
      <trkpt lat="42.89181" lon="0.10733">
        <ele>1635.9</ele>
        <time>2021-03-25T10:51:05Z</time>
      </trkpt>
      <trkpt lat="42.8918" lon="0.10733">
        <ele>1636</ele>
        <time>2021-03-25T10:51:06Z</time>
      </trkpt>
      <trkpt lat="42.89178" lon="0.10732">
        <ele>1636.1</ele>
        <time>2021-03-25T10:51:08Z</time>
      </trkpt>
      <trkpt lat="42.89177" lon="0.10732">
        <ele>1636.2</ele>
        <time>2021-03-25T10:51:09Z</time>
      </trkpt>
      <trkpt lat="42.89176" lon="0.1073">
        <ele>1636.3</ele>
        <time>2021-03-25T10:51:10Z</time>
      </trkpt>
      <trkpt lat="42.89175" lon="0.10728">
        <ele>1636.4</ele>
        <time>2021-03-25T10:51:11Z</time>
      </trkpt>
      <trkpt lat="42.89174" lon="0.10725">
        <ele>1636.7</ele>
        <time>2021-03-25T10:51:13Z</time>
      </trkpt>
      <trkpt lat="42.89173" lon="0.10723">
        <ele>1636.9</ele>
        <time>2021-03-25T10:51:14Z</time>
      </trkpt>
      <trkpt lat="42.89171" lon="0.10719">
        <ele>1637.2</ele>
        <time>2021-03-25T10:51:16Z</time>
      </trkpt>
      <trkpt lat="42.89169" lon="0.10715">
        <ele>1637.5</ele>
        <time>2021-03-25T10:51:17Z</time>
      </trkpt>
      <trkpt lat="42.89168" lon="0.10714">
        <ele>1637.6</ele>
        <time>2021-03-25T10:51:18Z</time>
      </trkpt>
      <trkpt lat="42.89167" lon="0.10713">
        <ele>1637.8</ele>
        <time>2021-03-25T10:51:19Z</time>
      </trkpt>
      <trkpt lat="42.89165" lon="0.10712">
        <ele>1637.9</ele>
        <time>2021-03-25T10:51:21Z</time>
      </trkpt>
      <trkpt lat="42.89164" lon="0.10711">
        <ele>1638.1</ele>
        <time>2021-03-25T10:51:22Z</time>
      </trkpt>
      <trkpt lat="42.89162" lon="0.10711">
        <ele>1638.2</ele>
        <time>2021-03-25T10:51:23Z</time>
      </trkpt>
      <trkpt lat="42.89161" lon="0.1071">
        <ele>1638.3</ele>
        <time>2021-03-25T10:51:24Z</time>
      </trkpt>
      <trkpt lat="42.89159" lon="0.10711">
        <ele>1638.5</ele>
        <time>2021-03-25T10:51:26Z</time>
      </trkpt>
      <trkpt lat="42.89158" lon="0.10712">
        <ele>1638.7</ele>
        <time>2021-03-25T10:51:27Z</time>
      </trkpt>
      <trkpt lat="42.89157" lon="0.10712">
        <ele>1638.8</ele>
        <time>2021-03-25T10:51:28Z</time>
      </trkpt>
      <trkpt lat="42.89155" lon="0.10713">
        <ele>1638.9</ele>
        <time>2021-03-25T10:51:29Z</time>
      </trkpt>
      <trkpt lat="42.89154" lon="0.10714">
        <ele>1639.1</ele>
        <time>2021-03-25T10:51:30Z</time>
      </trkpt>
      <trkpt lat="42.89153" lon="0.10715">
        <ele>1639.2</ele>
        <time>2021-03-25T10:51:31Z</time>
      </trkpt>
      <trkpt lat="42.89151" lon="0.10716">
        <ele>1639.4</ele>
        <time>2021-03-25T10:51:33Z</time>
      </trkpt>
      <trkpt lat="42.89149" lon="0.10717">
        <ele>1639.6</ele>
        <time>2021-03-25T10:51:34Z</time>
      </trkpt>
      <trkpt lat="42.89148" lon="0.10718">
        <ele>1639.7</ele>
        <time>2021-03-25T10:51:35Z</time>
      </trkpt>
      <trkpt lat="42.89145" lon="0.1072">
        <ele>1640</ele>
        <time>2021-03-25T10:51:37Z</time>
      </trkpt>
      <trkpt lat="42.89144" lon="0.10721">
        <ele>1640.1</ele>
        <time>2021-03-25T10:51:38Z</time>
      </trkpt>
      <trkpt lat="42.89143" lon="0.10722">
        <ele>1640.3</ele>
        <time>2021-03-25T10:51:39Z</time>
      </trkpt>
      <trkpt lat="42.89141" lon="0.10722">
        <ele>1640.4</ele>
        <time>2021-03-25T10:51:40Z</time>
      </trkpt>
      <trkpt lat="42.8914" lon="0.10723">
        <ele>1640.5</ele>
        <time>2021-03-25T10:51:41Z</time>
      </trkpt>
      <trkpt lat="42.89139" lon="0.10723">
        <ele>1640.6</ele>
        <time>2021-03-25T10:51:42Z</time>
      </trkpt>
      <trkpt lat="42.89137" lon="0.10724">
        <ele>1640.8</ele>
        <time>2021-03-25T10:51:44Z</time>
      </trkpt>
      <trkpt lat="42.89135" lon="0.10725">
        <ele>1641</ele>
        <time>2021-03-25T10:51:45Z</time>
      </trkpt>
      <trkpt lat="42.89134" lon="0.10726">
        <ele>1641.1</ele>
        <time>2021-03-25T10:51:46Z</time>
      </trkpt>
      <trkpt lat="42.89132" lon="0.10726">
        <ele>1641.2</ele>
        <time>2021-03-25T10:51:48Z</time>
      </trkpt>
      <trkpt lat="42.89131" lon="0.10726">
        <ele>1641.4</ele>
        <time>2021-03-25T10:51:49Z</time>
      </trkpt>
      <trkpt lat="42.89129" lon="0.10727">
        <ele>1641.5</ele>
        <time>2021-03-25T10:51:50Z</time>
      </trkpt>
      <trkpt lat="42.89127" lon="0.10728">
        <ele>1641.7</ele>
        <time>2021-03-25T10:51:52Z</time>
      </trkpt>
      <trkpt lat="42.89126" lon="0.10728">
        <ele>1641.8</ele>
        <time>2021-03-25T10:51:53Z</time>
      </trkpt>
      <trkpt lat="42.89124" lon="0.10729">
        <ele>1641.9</ele>
        <time>2021-03-25T10:51:54Z</time>
      </trkpt>
      <trkpt lat="42.89119" lon="0.10729">
        <ele>1642.3</ele>
        <time>2021-03-25T10:51:56Z</time>
      </trkpt>
      <trkpt lat="42.89118" lon="0.10729">
        <ele>1642.4</ele>
        <time>2021-03-25T10:51:58Z</time>
      </trkpt>
      <trkpt lat="42.89116" lon="0.10729">
        <ele>1642.5</ele>
        <time>2021-03-25T10:51:59Z</time>
      </trkpt>
      <trkpt lat="42.89114" lon="0.10729">
        <ele>1642.5</ele>
        <time>2021-03-25T10:52:00Z</time>
      </trkpt>
      <trkpt lat="42.89112" lon="0.10729">
        <ele>1642.9</ele>
        <time>2021-03-25T10:52:02Z</time>
      </trkpt>
      <trkpt lat="42.8911" lon="0.1073">
        <ele>1643.2</ele>
        <time>2021-03-25T10:52:03Z</time>
      </trkpt>
      <trkpt lat="42.89109" lon="0.10731">
        <ele>1643.4</ele>
        <time>2021-03-25T10:52:04Z</time>
      </trkpt>
      <trkpt lat="42.89107" lon="0.10732">
        <ele>1643.7</ele>
        <time>2021-03-25T10:52:05Z</time>
      </trkpt>
      <trkpt lat="42.89105" lon="0.10732">
        <ele>1644</ele>
        <time>2021-03-25T10:52:07Z</time>
      </trkpt>
      <trkpt lat="42.89104" lon="0.10732">
        <ele>1644.2</ele>
        <time>2021-03-25T10:52:08Z</time>
      </trkpt>
      <trkpt lat="42.89102" lon="0.10732">
        <ele>1644.4</ele>
        <time>2021-03-25T10:52:09Z</time>
      </trkpt>
      <trkpt lat="42.891" lon="0.10731">
        <ele>1644.8</ele>
        <time>2021-03-25T10:52:11Z</time>
      </trkpt>
      <trkpt lat="42.89099" lon="0.10731">
        <ele>1644.9</ele>
        <time>2021-03-25T10:52:12Z</time>
      </trkpt>
      <trkpt lat="42.89097" lon="0.10731">
        <ele>1645.1</ele>
        <time>2021-03-25T10:52:13Z</time>
      </trkpt>
      <trkpt lat="42.89096" lon="0.1073">
        <ele>1645.4</ele>
        <time>2021-03-25T10:52:14Z</time>
      </trkpt>
      <trkpt lat="42.89093" lon="0.10727">
        <ele>1645.9</ele>
        <time>2021-03-25T10:52:16Z</time>
      </trkpt>
      <trkpt lat="42.89092" lon="0.10726">
        <ele>1646</ele>
        <time>2021-03-25T10:52:17Z</time>
      </trkpt>
      <trkpt lat="42.8909" lon="0.10724">
        <ele>1646.3</ele>
        <time>2021-03-25T10:52:18Z</time>
      </trkpt>
      <trkpt lat="42.89088" lon="0.10723">
        <ele>1646.6</ele>
        <time>2021-03-25T10:52:20Z</time>
      </trkpt>
      <trkpt lat="42.89087" lon="0.10723">
        <ele>1646.8</ele>
        <time>2021-03-25T10:52:21Z</time>
      </trkpt>
      <trkpt lat="42.89085" lon="0.10722">
        <ele>1647</ele>
        <time>2021-03-25T10:52:22Z</time>
      </trkpt>
      <trkpt lat="42.89083" lon="0.10722">
        <ele>1647.2</ele>
        <time>2021-03-25T10:52:24Z</time>
      </trkpt>
      <trkpt lat="42.89082" lon="0.10722">
        <ele>1647.4</ele>
        <time>2021-03-25T10:52:25Z</time>
      </trkpt>
      <trkpt lat="42.8908" lon="0.10723">
        <ele>1647.7</ele>
        <time>2021-03-25T10:52:26Z</time>
      </trkpt>
      <trkpt lat="42.89079" lon="0.10723">
        <ele>1647.8</ele>
        <time>2021-03-25T10:52:28Z</time>
      </trkpt>
      <trkpt lat="42.89078" lon="0.10724">
        <ele>1648</ele>
        <time>2021-03-25T10:52:29Z</time>
      </trkpt>
      <trkpt lat="42.89077" lon="0.10725">
        <ele>1648.1</ele>
        <time>2021-03-25T10:52:31Z</time>
      </trkpt>
      <trkpt lat="42.89076" lon="0.10726">
        <ele>1648.3</ele>
        <time>2021-03-25T10:52:32Z</time>
      </trkpt>
      <trkpt lat="42.89075" lon="0.10727">
        <ele>1648.4</ele>
        <time>2021-03-25T10:52:33Z</time>
      </trkpt>
      <trkpt lat="42.89074" lon="0.10727">
        <ele>1648.5</ele>
        <time>2021-03-25T10:52:34Z</time>
      </trkpt>
      <trkpt lat="42.89073" lon="0.10728">
        <ele>1648.7</ele>
        <time>2021-03-25T10:52:35Z</time>
      </trkpt>
      <trkpt lat="42.89072" lon="0.1073">
        <ele>1648.8</ele>
        <time>2021-03-25T10:52:37Z</time>
      </trkpt>
      <trkpt lat="42.89072" lon="0.10732">
        <ele>1649</ele>
        <time>2021-03-25T10:52:38Z</time>
      </trkpt>
      <trkpt lat="42.89071" lon="0.10734">
        <ele>1649.1</ele>
        <time>2021-03-25T10:52:39Z</time>
      </trkpt>
      <trkpt lat="42.8907" lon="0.10735">
        <ele>1649.3</ele>
        <time>2021-03-25T10:52:41Z</time>
      </trkpt>
      <trkpt lat="42.89069" lon="0.10737">
        <ele>1649.4</ele>
        <time>2021-03-25T10:52:42Z</time>
      </trkpt>
      <trkpt lat="42.89068" lon="0.10738">
        <ele>1649.5</ele>
        <time>2021-03-25T10:52:43Z</time>
      </trkpt>
      <trkpt lat="42.89068" lon="0.10739">
        <ele>1649.7</ele>
        <time>2021-03-25T10:52:45Z</time>
      </trkpt>
      <trkpt lat="42.89067" lon="0.1074">
        <ele>1649.8</ele>
        <time>2021-03-25T10:52:46Z</time>
      </trkpt>
      <trkpt lat="42.89066" lon="0.10741">
        <ele>1649.9</ele>
        <time>2021-03-25T10:52:47Z</time>
      </trkpt>
      <trkpt lat="42.89065" lon="0.10741">
        <ele>1649.9</ele>
        <time>2021-03-25T10:52:49Z</time>
      </trkpt>
      <trkpt lat="42.89065" lon="0.10743">
        <ele>1650</ele>
        <time>2021-03-25T10:52:50Z</time>
      </trkpt>
      <trkpt lat="42.89065" lon="0.10744">
        <ele>1650.1</ele>
        <time>2021-03-25T10:52:51Z</time>
      </trkpt>
      <trkpt lat="42.89064" lon="0.10745">
        <ele>1650.2</ele>
        <time>2021-03-25T10:52:53Z</time>
      </trkpt>
      <trkpt lat="42.89064" lon="0.10746">
        <ele>1650.3</ele>
        <time>2021-03-25T10:52:54Z</time>
      </trkpt>
      <trkpt lat="42.89064" lon="0.10747">
        <ele>1650.3</ele>
        <time>2021-03-25T10:52:55Z</time>
      </trkpt>
      <trkpt lat="42.89063" lon="0.10747">
        <ele>1650.4</ele>
        <time>2021-03-25T10:52:56Z</time>
      </trkpt>
      <trkpt lat="42.89063" lon="0.10748">
        <ele>1650.4</ele>
        <time>2021-03-25T10:52:58Z</time>
      </trkpt>
      <trkpt lat="42.89062" lon="0.10748">
        <ele>1650.5</ele>
        <time>2021-03-25T10:52:59Z</time>
      </trkpt>
      <trkpt lat="42.89062" lon="0.10747">
        <ele>1650.6</ele>
        <time>2021-03-25T10:53:00Z</time>
      </trkpt>
      <trkpt lat="42.89061" lon="0.10747">
        <ele>1650.6</ele>
        <time>2021-03-25T10:53:01Z</time>
      </trkpt>
      <trkpt lat="42.8906" lon="0.10747">
        <ele>1650.7</ele>
        <time>2021-03-25T10:53:03Z</time>
      </trkpt>
      <trkpt lat="42.89059" lon="0.10747">
        <ele>1650.8</ele>
        <time>2021-03-25T10:53:04Z</time>
      </trkpt>
      <trkpt lat="42.89058" lon="0.10748">
        <ele>1650.9</ele>
        <time>2021-03-25T10:53:05Z</time>
      </trkpt>
      <trkpt lat="42.89056" lon="0.10748">
        <ele>1651.1</ele>
        <time>2021-03-25T10:53:06Z</time>
      </trkpt>
      <trkpt lat="42.89054" lon="0.10749">
        <ele>1651.3</ele>
        <time>2021-03-25T10:53:08Z</time>
      </trkpt>
      <trkpt lat="42.89053" lon="0.1075">
        <ele>1651.4</ele>
        <time>2021-03-25T10:53:09Z</time>
      </trkpt>
      <trkpt lat="42.8905" lon="0.1075">
        <ele>1651.7</ele>
        <time>2021-03-25T10:53:11Z</time>
      </trkpt>
      <trkpt lat="42.89047" lon="0.10751">
        <ele>1651.9</ele>
        <time>2021-03-25T10:53:13Z</time>
      </trkpt>
      <trkpt lat="42.89046" lon="0.10751">
        <ele>1652</ele>
        <time>2021-03-25T10:53:14Z</time>
      </trkpt>
      <trkpt lat="42.89043" lon="0.10751">
        <ele>1652.3</ele>
        <time>2021-03-25T10:53:15Z</time>
      </trkpt>
      <trkpt lat="42.89042" lon="0.10751">
        <ele>1652.4</ele>
        <time>2021-03-25T10:53:17Z</time>
      </trkpt>
      <trkpt lat="42.8904" lon="0.10751">
        <ele>1652.6</ele>
        <time>2021-03-25T10:53:18Z</time>
      </trkpt>
      <trkpt lat="42.89039" lon="0.10751">
        <ele>1652.7</ele>
        <time>2021-03-25T10:53:19Z</time>
      </trkpt>
      <trkpt lat="42.89037" lon="0.10752">
        <ele>1652.9</ele>
        <time>2021-03-25T10:53:21Z</time>
      </trkpt>
      <trkpt lat="42.89035" lon="0.10752">
        <ele>1653</ele>
        <time>2021-03-25T10:53:22Z</time>
      </trkpt>
      <trkpt lat="42.89032" lon="0.10751">
        <ele>1653.3</ele>
        <time>2021-03-25T10:53:24Z</time>
      </trkpt>
      <trkpt lat="42.89031" lon="0.10751">
        <ele>1653.4</ele>
        <time>2021-03-25T10:53:25Z</time>
      </trkpt>
      <trkpt lat="42.89029" lon="0.1075">
        <ele>1653.6</ele>
        <time>2021-03-25T10:53:26Z</time>
      </trkpt>
      <trkpt lat="42.89028" lon="0.10749">
        <ele>1653.8</ele>
        <time>2021-03-25T10:53:28Z</time>
      </trkpt>
      <trkpt lat="42.89026" lon="0.10748">
        <ele>1653.9</ele>
        <time>2021-03-25T10:53:29Z</time>
      </trkpt>
      <trkpt lat="42.89025" lon="0.10747">
        <ele>1654.1</ele>
        <time>2021-03-25T10:53:30Z</time>
      </trkpt>
      <trkpt lat="42.89024" lon="0.10746">
        <ele>1654.2</ele>
        <time>2021-03-25T10:53:32Z</time>
      </trkpt>
      <trkpt lat="42.89022" lon="0.10746">
        <ele>1654.3</ele>
        <time>2021-03-25T10:53:33Z</time>
      </trkpt>
      <trkpt lat="42.89021" lon="0.10746">
        <ele>1654.4</ele>
        <time>2021-03-25T10:53:34Z</time>
      </trkpt>
      <trkpt lat="42.8902" lon="0.10746">
        <ele>1654.6</ele>
        <time>2021-03-25T10:53:35Z</time>
      </trkpt>
      <trkpt lat="42.89019" lon="0.10746">
        <ele>1654.7</ele>
        <time>2021-03-25T10:53:37Z</time>
      </trkpt>
      <trkpt lat="42.89017" lon="0.10746">
        <ele>1654.8</ele>
        <time>2021-03-25T10:53:38Z</time>
      </trkpt>
      <trkpt lat="42.89017" lon="0.10747">
        <ele>1654.9</ele>
        <time>2021-03-25T10:53:39Z</time>
      </trkpt>
      <trkpt lat="42.89016" lon="0.10747">
        <ele>1655</ele>
        <time>2021-03-25T10:53:40Z</time>
      </trkpt>
      <trkpt lat="42.89015" lon="0.10747">
        <ele>1655.1</ele>
        <time>2021-03-25T10:53:42Z</time>
      </trkpt>
      <trkpt lat="42.89014" lon="0.10747">
        <ele>1655.1</ele>
        <time>2021-03-25T10:53:43Z</time>
      </trkpt>
      <trkpt lat="42.89014" lon="0.10748">
        <ele>1655.2</ele>
        <time>2021-03-25T10:53:44Z</time>
      </trkpt>
      <trkpt lat="42.89014" lon="0.10748">
        <ele>1655.2</ele>
        <time>2021-03-25T10:53:45Z</time>
      </trkpt>
      <trkpt lat="42.89014" lon="0.10749">
        <ele>1655.3</ele>
        <time>2021-03-25T10:53:47Z</time>
      </trkpt>
      <trkpt lat="42.89013" lon="0.1075">
        <ele>1655.4</ele>
        <time>2021-03-25T10:53:48Z</time>
      </trkpt>
      <trkpt lat="42.89013" lon="0.10751">
        <ele>1655.5</ele>
        <time>2021-03-25T10:53:50Z</time>
      </trkpt>
      <trkpt lat="42.89012" lon="0.10752">
        <ele>1655.6</ele>
        <time>2021-03-25T10:53:51Z</time>
      </trkpt>
      <trkpt lat="42.89012" lon="0.10753">
        <ele>1655.7</ele>
        <time>2021-03-25T10:53:52Z</time>
      </trkpt>
      <trkpt lat="42.89011" lon="0.10755">
        <ele>1655.8</ele>
        <time>2021-03-25T10:53:54Z</time>
      </trkpt>
      <trkpt lat="42.8901" lon="0.10755">
        <ele>1655.9</ele>
        <time>2021-03-25T10:53:55Z</time>
      </trkpt>
      <trkpt lat="42.89009" lon="0.10756">
        <ele>1656</ele>
        <time>2021-03-25T10:53:56Z</time>
      </trkpt>
      <trkpt lat="42.89008" lon="0.10757">
        <ele>1656.1</ele>
        <time>2021-03-25T10:53:58Z</time>
      </trkpt>
      <trkpt lat="42.89008" lon="0.10758">
        <ele>1656.2</ele>
        <time>2021-03-25T10:53:59Z</time>
      </trkpt>
      <trkpt lat="42.89006" lon="0.10759">
        <ele>1656.4</ele>
        <time>2021-03-25T10:54:00Z</time>
      </trkpt>
      <trkpt lat="42.89006" lon="0.10759">
        <ele>1656.5</ele>
        <time>2021-03-25T10:54:01Z</time>
      </trkpt>
      <trkpt lat="42.89005" lon="0.10759">
        <ele>1656.5</ele>
        <time>2021-03-25T10:54:03Z</time>
      </trkpt>
      <trkpt lat="42.89004" lon="0.1076">
        <ele>1656.6</ele>
        <time>2021-03-25T10:54:04Z</time>
      </trkpt>
      <trkpt lat="42.89003" lon="0.1076">
        <ele>1656.7</ele>
        <time>2021-03-25T10:54:06Z</time>
      </trkpt>
      <trkpt lat="42.89002" lon="0.10761">
        <ele>1656.8</ele>
        <time>2021-03-25T10:54:07Z</time>
      </trkpt>
      <trkpt lat="42.89001" lon="0.10762">
        <ele>1656.9</ele>
        <time>2021-03-25T10:54:08Z</time>
      </trkpt>
      <trkpt lat="42.89" lon="0.10762">
        <ele>1657.1</ele>
        <time>2021-03-25T10:54:10Z</time>
      </trkpt>
      <trkpt lat="42.88999" lon="0.10762">
        <ele>1657.1</ele>
        <time>2021-03-25T10:54:11Z</time>
      </trkpt>
      <trkpt lat="42.88998" lon="0.10762">
        <ele>1657.3</ele>
        <time>2021-03-25T10:54:12Z</time>
      </trkpt>
      <trkpt lat="42.88996" lon="0.10762">
        <ele>1657.4</ele>
        <time>2021-03-25T10:54:14Z</time>
      </trkpt>
      <trkpt lat="42.88995" lon="0.10761">
        <ele>1657.6</ele>
        <time>2021-03-25T10:54:15Z</time>
      </trkpt>
      <trkpt lat="42.88993" lon="0.10761">
        <ele>1657.7</ele>
        <time>2021-03-25T10:54:16Z</time>
      </trkpt>
      <trkpt lat="42.88991" lon="0.10761">
        <ele>1657.9</ele>
        <time>2021-03-25T10:54:17Z</time>
      </trkpt>
      <trkpt lat="42.88988" lon="0.1076">
        <ele>1658.1</ele>
        <time>2021-03-25T10:54:19Z</time>
      </trkpt>
      <trkpt lat="42.88987" lon="0.1076">
        <ele>1658.2</ele>
        <time>2021-03-25T10:54:20Z</time>
      </trkpt>
      <trkpt lat="42.88986" lon="0.1076">
        <ele>1658.3</ele>
        <time>2021-03-25T10:54:21Z</time>
      </trkpt>
      <trkpt lat="42.88984" lon="0.1076">
        <ele>1658.5</ele>
        <time>2021-03-25T10:54:22Z</time>
      </trkpt>
      <trkpt lat="42.88983" lon="0.10759">
        <ele>1658.6</ele>
        <time>2021-03-25T10:54:23Z</time>
      </trkpt>
      <trkpt lat="42.88981" lon="0.10758">
        <ele>1658.7</ele>
        <time>2021-03-25T10:54:24Z</time>
      </trkpt>
      <trkpt lat="42.8898" lon="0.10757">
        <ele>1658.8</ele>
        <time>2021-03-25T10:54:26Z</time>
      </trkpt>
      <trkpt lat="42.88979" lon="0.10756">
        <ele>1658.9</ele>
        <time>2021-03-25T10:54:27Z</time>
      </trkpt>
      <trkpt lat="42.88978" lon="0.10754">
        <ele>1659.1</ele>
        <time>2021-03-25T10:54:28Z</time>
      </trkpt>
      <trkpt lat="42.88978" lon="0.10752">
        <ele>1659.2</ele>
        <time>2021-03-25T10:54:29Z</time>
      </trkpt>
      <trkpt lat="42.88976" lon="0.1075">
        <ele>1659.3</ele>
        <time>2021-03-25T10:54:30Z</time>
      </trkpt>
      <trkpt lat="42.88975" lon="0.10749">
        <ele>1659.5</ele>
        <time>2021-03-25T10:54:31Z</time>
      </trkpt>
      <trkpt lat="42.88974" lon="0.10748">
        <ele>1659.6</ele>
        <time>2021-03-25T10:54:32Z</time>
      </trkpt>
      <trkpt lat="42.88973" lon="0.10747">
        <ele>1659.7</ele>
        <time>2021-03-25T10:54:33Z</time>
      </trkpt>
      <trkpt lat="42.88972" lon="0.10747">
        <ele>1659.8</ele>
        <time>2021-03-25T10:54:35Z</time>
      </trkpt>
      <trkpt lat="42.8897" lon="0.10747">
        <ele>1660</ele>
        <time>2021-03-25T10:54:36Z</time>
      </trkpt>
      <trkpt lat="42.88969" lon="0.10748">
        <ele>1660.1</ele>
        <time>2021-03-25T10:54:37Z</time>
      </trkpt>
      <trkpt lat="42.88968" lon="0.10749">
        <ele>1660.2</ele>
        <time>2021-03-25T10:54:38Z</time>
      </trkpt>
      <trkpt lat="42.88966" lon="0.1075">
        <ele>1660.3</ele>
        <time>2021-03-25T10:54:39Z</time>
      </trkpt>
      <trkpt lat="42.88965" lon="0.10751">
        <ele>1660.5</ele>
        <time>2021-03-25T10:54:41Z</time>
      </trkpt>
      <trkpt lat="42.88963" lon="0.10751">
        <ele>1660.6</ele>
        <time>2021-03-25T10:54:42Z</time>
      </trkpt>
      <trkpt lat="42.88962" lon="0.10752">
        <ele>1660.7</ele>
        <time>2021-03-25T10:54:43Z</time>
      </trkpt>
      <trkpt lat="42.88961" lon="0.10752">
        <ele>1660.8</ele>
        <time>2021-03-25T10:54:44Z</time>
      </trkpt>
      <trkpt lat="42.88958" lon="0.10751">
        <ele>1661</ele>
        <time>2021-03-25T10:54:46Z</time>
      </trkpt>
      <trkpt lat="42.88957" lon="0.10751">
        <ele>1661.1</ele>
        <time>2021-03-25T10:54:47Z</time>
      </trkpt>
      <trkpt lat="42.88955" lon="0.1075">
        <ele>1661.3</ele>
        <time>2021-03-25T10:54:49Z</time>
      </trkpt>
      <trkpt lat="42.88953" lon="0.10749">
        <ele>1661.5</ele>
        <time>2021-03-25T10:54:50Z</time>
      </trkpt>
      <trkpt lat="42.88951" lon="0.10748">
        <ele>1661.7</ele>
        <time>2021-03-25T10:54:52Z</time>
      </trkpt>
      <trkpt lat="42.8895" lon="0.10748">
        <ele>1661.8</ele>
        <time>2021-03-25T10:54:53Z</time>
      </trkpt>
      <trkpt lat="42.88948" lon="0.10749">
        <ele>1661.9</ele>
        <time>2021-03-25T10:54:54Z</time>
      </trkpt>
      <trkpt lat="42.88947" lon="0.10749">
        <ele>1662</ele>
        <time>2021-03-25T10:54:55Z</time>
      </trkpt>
      <trkpt lat="42.88946" lon="0.1075">
        <ele>1662.1</ele>
        <time>2021-03-25T10:54:56Z</time>
      </trkpt>
      <trkpt lat="42.88945" lon="0.10751">
        <ele>1662.2</ele>
        <time>2021-03-25T10:54:57Z</time>
      </trkpt>
      <trkpt lat="42.88944" lon="0.10752">
        <ele>1662.3</ele>
        <time>2021-03-25T10:54:58Z</time>
      </trkpt>
      <trkpt lat="42.88943" lon="0.10754">
        <ele>1662.4</ele>
        <time>2021-03-25T10:55:00Z</time>
      </trkpt>
      <trkpt lat="42.88942" lon="0.10755">
        <ele>1662.5</ele>
        <time>2021-03-25T10:55:01Z</time>
      </trkpt>
      <trkpt lat="42.88941" lon="0.10756">
        <ele>1662.6</ele>
        <time>2021-03-25T10:55:02Z</time>
      </trkpt>
      <trkpt lat="42.8894" lon="0.10757">
        <ele>1662.7</ele>
        <time>2021-03-25T10:55:03Z</time>
      </trkpt>
      <trkpt lat="42.88939" lon="0.10759">
        <ele>1662.8</ele>
        <time>2021-03-25T10:55:04Z</time>
      </trkpt>
      <trkpt lat="42.88937" lon="0.10761">
        <ele>1663.1</ele>
        <time>2021-03-25T10:55:06Z</time>
      </trkpt>
      <trkpt lat="42.88936" lon="0.10763">
        <ele>1663.2</ele>
        <time>2021-03-25T10:55:08Z</time>
      </trkpt>
      <trkpt lat="42.88935" lon="0.10764">
        <ele>1663.3</ele>
        <time>2021-03-25T10:55:09Z</time>
      </trkpt>
      <trkpt lat="42.88934" lon="0.10765">
        <ele>1663.4</ele>
        <time>2021-03-25T10:55:10Z</time>
      </trkpt>
      <trkpt lat="42.88933" lon="0.10766">
        <ele>1663.5</ele>
        <time>2021-03-25T10:55:12Z</time>
      </trkpt>
      <trkpt lat="42.88932" lon="0.10766">
        <ele>1663.6</ele>
        <time>2021-03-25T10:55:13Z</time>
      </trkpt>
      <trkpt lat="42.8893" lon="0.10766">
        <ele>1663.7</ele>
        <time>2021-03-25T10:55:14Z</time>
      </trkpt>
      <trkpt lat="42.88929" lon="0.10767">
        <ele>1663.8</ele>
        <time>2021-03-25T10:55:15Z</time>
      </trkpt>
      <trkpt lat="42.88926" lon="0.10767">
        <ele>1664.1</ele>
        <time>2021-03-25T10:55:17Z</time>
      </trkpt>
      <trkpt lat="42.88925" lon="0.10767">
        <ele>1664.1</ele>
        <time>2021-03-25T10:55:18Z</time>
      </trkpt>
      <trkpt lat="42.88924" lon="0.10767">
        <ele>1664.2</ele>
        <time>2021-03-25T10:55:19Z</time>
      </trkpt>
      <trkpt lat="42.88921" lon="0.10767">
        <ele>1664.4</ele>
        <time>2021-03-25T10:55:21Z</time>
      </trkpt>
      <trkpt lat="42.8892" lon="0.10768">
        <ele>1664.5</ele>
        <time>2021-03-25T10:55:22Z</time>
      </trkpt>
      <trkpt lat="42.88919" lon="0.10768">
        <ele>1664.6</ele>
        <time>2021-03-25T10:55:23Z</time>
      </trkpt>
      <trkpt lat="42.88917" lon="0.10768">
        <ele>1664.8</ele>
        <time>2021-03-25T10:55:25Z</time>
      </trkpt>
      <trkpt lat="42.88916" lon="0.10769">
        <ele>1664.9</ele>
        <time>2021-03-25T10:55:26Z</time>
      </trkpt>
      <trkpt lat="42.88915" lon="0.10769">
        <ele>1664.9</ele>
        <time>2021-03-25T10:55:27Z</time>
      </trkpt>
      <trkpt lat="42.88913" lon="0.10769">
        <ele>1665.1</ele>
        <time>2021-03-25T10:55:29Z</time>
      </trkpt>
      <trkpt lat="42.88911" lon="0.10769">
        <ele>1665.2</ele>
        <time>2021-03-25T10:55:30Z</time>
      </trkpt>
      <trkpt lat="42.8891" lon="0.10769">
        <ele>1665.4</ele>
        <time>2021-03-25T10:55:31Z</time>
      </trkpt>
      <trkpt lat="42.88908" lon="0.10768">
        <ele>1665.5</ele>
        <time>2021-03-25T10:55:33Z</time>
      </trkpt>
      <trkpt lat="42.88907" lon="0.10769">
        <ele>1665.6</ele>
        <time>2021-03-25T10:55:34Z</time>
      </trkpt>
      <trkpt lat="42.88905" lon="0.10769">
        <ele>1665.7</ele>
        <time>2021-03-25T10:55:35Z</time>
      </trkpt>
      <trkpt lat="42.88903" lon="0.10769">
        <ele>1665.8</ele>
        <time>2021-03-25T10:55:36Z</time>
      </trkpt>
      <trkpt lat="42.88902" lon="0.10768">
        <ele>1666</ele>
        <time>2021-03-25T10:55:38Z</time>
      </trkpt>
      <trkpt lat="42.889" lon="0.10768">
        <ele>1666.1</ele>
        <time>2021-03-25T10:55:39Z</time>
      </trkpt>
      <trkpt lat="42.88898" lon="0.10767">
        <ele>1666.3</ele>
        <time>2021-03-25T10:55:40Z</time>
      </trkpt>
      <trkpt lat="42.88896" lon="0.10767">
        <ele>1666.4</ele>
        <time>2021-03-25T10:55:42Z</time>
      </trkpt>
      <trkpt lat="42.88894" lon="0.10767">
        <ele>1666.6</ele>
        <time>2021-03-25T10:55:43Z</time>
      </trkpt>
      <trkpt lat="42.88893" lon="0.10767">
        <ele>1666.7</ele>
        <time>2021-03-25T10:55:44Z</time>
      </trkpt>
      <trkpt lat="42.88891" lon="0.10767">
        <ele>1666.8</ele>
        <time>2021-03-25T10:55:46Z</time>
      </trkpt>
      <trkpt lat="42.8889" lon="0.10768">
        <ele>1666.9</ele>
        <time>2021-03-25T10:55:47Z</time>
      </trkpt>
      <trkpt lat="42.88889" lon="0.10769">
        <ele>1667</ele>
        <time>2021-03-25T10:55:48Z</time>
      </trkpt>
      <trkpt lat="42.88888" lon="0.10771">
        <ele>1667.2</ele>
        <time>2021-03-25T10:55:50Z</time>
      </trkpt>
      <trkpt lat="42.88886" lon="0.10773">
        <ele>1667.3</ele>
        <time>2021-03-25T10:55:51Z</time>
      </trkpt>
      <trkpt lat="42.88886" lon="0.10776">
        <ele>1667.5</ele>
        <time>2021-03-25T10:55:53Z</time>
      </trkpt>
      <trkpt lat="42.88884" lon="0.10779">
        <ele>1667.7</ele>
        <time>2021-03-25T10:55:54Z</time>
      </trkpt>
      <trkpt lat="42.88883" lon="0.1078">
        <ele>1667.8</ele>
        <time>2021-03-25T10:55:55Z</time>
      </trkpt>
      <trkpt lat="42.88882" lon="0.10782">
        <ele>1667.9</ele>
        <time>2021-03-25T10:55:56Z</time>
      </trkpt>
      <trkpt lat="42.88881" lon="0.10784">
        <ele>1668</ele>
        <time>2021-03-25T10:55:58Z</time>
      </trkpt>
      <trkpt lat="42.8888" lon="0.10786">
        <ele>1668.2</ele>
        <time>2021-03-25T10:55:59Z</time>
      </trkpt>
      <trkpt lat="42.88879" lon="0.10787">
        <ele>1668.3</ele>
        <time>2021-03-25T10:56:00Z</time>
      </trkpt>
      <trkpt lat="42.88877" lon="0.10788">
        <ele>1668.4</ele>
        <time>2021-03-25T10:56:02Z</time>
      </trkpt>
      <trkpt lat="42.88876" lon="0.10789">
        <ele>1668.5</ele>
        <time>2021-03-25T10:56:03Z</time>
      </trkpt>
      <trkpt lat="42.88875" lon="0.1079">
        <ele>1668.6</ele>
        <time>2021-03-25T10:56:04Z</time>
      </trkpt>
      <trkpt lat="42.88873" lon="0.1079">
        <ele>1668.8</ele>
        <time>2021-03-25T10:56:06Z</time>
      </trkpt>
      <trkpt lat="42.88872" lon="0.1079">
        <ele>1668.9</ele>
        <time>2021-03-25T10:56:07Z</time>
      </trkpt>
      <trkpt lat="42.88869" lon="0.1079">
        <ele>1669.1</ele>
        <time>2021-03-25T10:56:09Z</time>
      </trkpt>
      <trkpt lat="42.88867" lon="0.1079">
        <ele>1669.2</ele>
        <time>2021-03-25T10:56:10Z</time>
      </trkpt>
      <trkpt lat="42.88865" lon="0.1079">
        <ele>1669.4</ele>
        <time>2021-03-25T10:56:12Z</time>
      </trkpt>
      <trkpt lat="42.88864" lon="0.1079">
        <ele>1669.5</ele>
        <time>2021-03-25T10:56:13Z</time>
      </trkpt>
      <trkpt lat="42.88862" lon="0.10791">
        <ele>1669.6</ele>
        <time>2021-03-25T10:56:14Z</time>
      </trkpt>
      <trkpt lat="42.8886" lon="0.10791">
        <ele>1669.8</ele>
        <time>2021-03-25T10:56:16Z</time>
      </trkpt>
      <trkpt lat="42.88859" lon="0.10792">
        <ele>1669.9</ele>
        <time>2021-03-25T10:56:17Z</time>
      </trkpt>
      <trkpt lat="42.88857" lon="0.10792">
        <ele>1670.1</ele>
        <time>2021-03-25T10:56:18Z</time>
      </trkpt>
      <trkpt lat="42.88856" lon="0.10793">
        <ele>1670.2</ele>
        <time>2021-03-25T10:56:19Z</time>
      </trkpt>
      <trkpt lat="42.88854" lon="0.10794">
        <ele>1670.3</ele>
        <time>2021-03-25T10:56:21Z</time>
      </trkpt>
      <trkpt lat="42.88853" lon="0.10795">
        <ele>1670.4</ele>
        <time>2021-03-25T10:56:22Z</time>
      </trkpt>
      <trkpt lat="42.88851" lon="0.10796">
        <ele>1670.6</ele>
        <time>2021-03-25T10:56:23Z</time>
      </trkpt>
      <trkpt lat="42.8885" lon="0.10796">
        <ele>1670.7</ele>
        <time>2021-03-25T10:56:25Z</time>
      </trkpt>
      <trkpt lat="42.88849" lon="0.10796">
        <ele>1670.8</ele>
        <time>2021-03-25T10:56:26Z</time>
      </trkpt>
      <trkpt lat="42.88848" lon="0.10796">
        <ele>1670.9</ele>
        <time>2021-03-25T10:56:28Z</time>
      </trkpt>
      <trkpt lat="42.88847" lon="0.10796">
        <ele>1671</ele>
        <time>2021-03-25T10:56:29Z</time>
      </trkpt>
      <trkpt lat="42.88845" lon="0.10796">
        <ele>1671.1</ele>
        <time>2021-03-25T10:56:30Z</time>
      </trkpt>
      <trkpt lat="42.88844" lon="0.10796">
        <ele>1671.2</ele>
        <time>2021-03-25T10:56:31Z</time>
      </trkpt>
      <trkpt lat="42.88843" lon="0.10796">
        <ele>1671.3</ele>
        <time>2021-03-25T10:56:33Z</time>
      </trkpt>
      <trkpt lat="42.88842" lon="0.10797">
        <ele>1671.4</ele>
        <time>2021-03-25T10:56:34Z</time>
      </trkpt>
      <trkpt lat="42.88841" lon="0.10797">
        <ele>1671.5</ele>
        <time>2021-03-25T10:56:36Z</time>
      </trkpt>
      <trkpt lat="42.8884" lon="0.10797">
        <ele>1671.6</ele>
        <time>2021-03-25T10:56:37Z</time>
      </trkpt>
      <trkpt lat="42.88839" lon="0.10797">
        <ele>1671.7</ele>
        <time>2021-03-25T10:56:38Z</time>
      </trkpt>
      <trkpt lat="42.88838" lon="0.10797">
        <ele>1671.7</ele>
        <time>2021-03-25T10:56:40Z</time>
      </trkpt>
      <trkpt lat="42.88837" lon="0.10797">
        <ele>1671.8</ele>
        <time>2021-03-25T10:56:41Z</time>
      </trkpt>
      <trkpt lat="42.88835" lon="0.10798">
        <ele>1672</ele>
        <time>2021-03-25T10:56:42Z</time>
      </trkpt>
      <trkpt lat="42.88834" lon="0.10798">
        <ele>1672.1</ele>
        <time>2021-03-25T10:56:44Z</time>
      </trkpt>
      <trkpt lat="42.88833" lon="0.10799">
        <ele>1672.2</ele>
        <time>2021-03-25T10:56:45Z</time>
      </trkpt>
      <trkpt lat="42.88832" lon="0.108">
        <ele>1672.3</ele>
        <time>2021-03-25T10:56:46Z</time>
      </trkpt>
      <trkpt lat="42.8883" lon="0.10801">
        <ele>1672.4</ele>
        <time>2021-03-25T10:56:48Z</time>
      </trkpt>
      <trkpt lat="42.88829" lon="0.10802">
        <ele>1672.5</ele>
        <time>2021-03-25T10:56:49Z</time>
      </trkpt>
      <trkpt lat="42.88828" lon="0.10803">
        <ele>1672.6</ele>
        <time>2021-03-25T10:56:50Z</time>
      </trkpt>
      <trkpt lat="42.88827" lon="0.10804">
        <ele>1672.8</ele>
        <time>2021-03-25T10:56:51Z</time>
      </trkpt>
      <trkpt lat="42.88824" lon="0.10805">
        <ele>1673</ele>
        <time>2021-03-25T10:56:53Z</time>
      </trkpt>
      <trkpt lat="42.88823" lon="0.10807">
        <ele>1673.1</ele>
        <time>2021-03-25T10:56:54Z</time>
      </trkpt>
      <trkpt lat="42.88821" lon="0.10808">
        <ele>1673.2</ele>
        <time>2021-03-25T10:56:56Z</time>
      </trkpt>
      <trkpt lat="42.8882" lon="0.10809">
        <ele>1673.4</ele>
        <time>2021-03-25T10:56:57Z</time>
      </trkpt>
      <trkpt lat="42.88818" lon="0.10809">
        <ele>1673.5</ele>
        <time>2021-03-25T10:56:58Z</time>
      </trkpt>
      <trkpt lat="42.88817" lon="0.1081">
        <ele>1673.6</ele>
        <time>2021-03-25T10:56:59Z</time>
      </trkpt>
      <trkpt lat="42.88815" lon="0.1081">
        <ele>1673.8</ele>
        <time>2021-03-25T10:57:00Z</time>
      </trkpt>
      <trkpt lat="42.88813" lon="0.10809">
        <ele>1674</ele>
        <time>2021-03-25T10:57:01Z</time>
      </trkpt>
      <trkpt lat="42.88811" lon="0.10808">
        <ele>1674.2</ele>
        <time>2021-03-25T10:57:03Z</time>
      </trkpt>
      <trkpt lat="42.8881" lon="0.10808">
        <ele>1674.3</ele>
        <time>2021-03-25T10:57:04Z</time>
      </trkpt>
      <trkpt lat="42.88808" lon="0.10807">
        <ele>1674.5</ele>
        <time>2021-03-25T10:57:05Z</time>
      </trkpt>
      <trkpt lat="42.88807" lon="0.10806">
        <ele>1674.6</ele>
        <time>2021-03-25T10:57:06Z</time>
      </trkpt>
      <trkpt lat="42.88805" lon="0.10805">
        <ele>1674.9</ele>
        <time>2021-03-25T10:57:08Z</time>
      </trkpt>
      <trkpt lat="42.88803" lon="0.10804">
        <ele>1675.1</ele>
        <time>2021-03-25T10:57:09Z</time>
      </trkpt>
      <trkpt lat="42.88802" lon="0.10803">
        <ele>1675.2</ele>
        <time>2021-03-25T10:57:10Z</time>
      </trkpt>
      <trkpt lat="42.88799" lon="0.10803">
        <ele>1675.5</ele>
        <time>2021-03-25T10:57:12Z</time>
      </trkpt>
      <trkpt lat="42.88798" lon="0.10803">
        <ele>1675.6</ele>
        <time>2021-03-25T10:57:13Z</time>
      </trkpt>
      <trkpt lat="42.88796" lon="0.10802">
        <ele>1675.7</ele>
        <time>2021-03-25T10:57:15Z</time>
      </trkpt>
      <trkpt lat="42.88795" lon="0.10802">
        <ele>1675.9</ele>
        <time>2021-03-25T10:57:16Z</time>
      </trkpt>
      <trkpt lat="42.88793" lon="0.10802">
        <ele>1676.1</ele>
        <time>2021-03-25T10:57:17Z</time>
      </trkpt>
      <trkpt lat="42.88792" lon="0.10802">
        <ele>1676.2</ele>
        <time>2021-03-25T10:57:19Z</time>
      </trkpt>
      <trkpt lat="42.88791" lon="0.10802">
        <ele>1676.3</ele>
        <time>2021-03-25T10:57:20Z</time>
      </trkpt>
      <trkpt lat="42.88789" lon="0.10802">
        <ele>1676.5</ele>
        <time>2021-03-25T10:57:21Z</time>
      </trkpt>
      <trkpt lat="42.88788" lon="0.10803">
        <ele>1676.6</ele>
        <time>2021-03-25T10:57:23Z</time>
      </trkpt>
      <trkpt lat="42.88787" lon="0.10803">
        <ele>1676.7</ele>
        <time>2021-03-25T10:57:24Z</time>
      </trkpt>
      <trkpt lat="42.88786" lon="0.10804">
        <ele>1676.8</ele>
        <time>2021-03-25T10:57:25Z</time>
      </trkpt>
      <trkpt lat="42.88785" lon="0.10805">
        <ele>1676.9</ele>
        <time>2021-03-25T10:57:26Z</time>
      </trkpt>
      <trkpt lat="42.88784" lon="0.10807">
        <ele>1677.2</ele>
        <time>2021-03-25T10:57:28Z</time>
      </trkpt>
      <trkpt lat="42.88782" lon="0.10809">
        <ele>1677.4</ele>
        <time>2021-03-25T10:57:30Z</time>
      </trkpt>
      <trkpt lat="42.88781" lon="0.10811">
        <ele>1677.6</ele>
        <time>2021-03-25T10:57:31Z</time>
      </trkpt>
      <trkpt lat="42.8878" lon="0.10813">
        <ele>1677.8</ele>
        <time>2021-03-25T10:57:33Z</time>
      </trkpt>
      <trkpt lat="42.88779" lon="0.10814">
        <ele>1677.9</ele>
        <time>2021-03-25T10:57:34Z</time>
      </trkpt>
      <trkpt lat="42.88778" lon="0.10815">
        <ele>1678</ele>
        <time>2021-03-25T10:57:35Z</time>
      </trkpt>
      <trkpt lat="42.88777" lon="0.10816">
        <ele>1678.2</ele>
        <time>2021-03-25T10:57:37Z</time>
      </trkpt>
      <trkpt lat="42.88776" lon="0.10817">
        <ele>1678.4</ele>
        <time>2021-03-25T10:57:38Z</time>
      </trkpt>
      <trkpt lat="42.88775" lon="0.10818">
        <ele>1678.5</ele>
        <time>2021-03-25T10:57:39Z</time>
      </trkpt>
      <trkpt lat="42.88773" lon="0.10819">
        <ele>1678.7</ele>
        <time>2021-03-25T10:57:41Z</time>
      </trkpt>
      <trkpt lat="42.88772" lon="0.1082">
        <ele>1678.8</ele>
        <time>2021-03-25T10:57:42Z</time>
      </trkpt>
      <trkpt lat="42.8877" lon="0.10821">
        <ele>1679.1</ele>
        <time>2021-03-25T10:57:43Z</time>
      </trkpt>
      <trkpt lat="42.88769" lon="0.10822">
        <ele>1679.2</ele>
        <time>2021-03-25T10:57:45Z</time>
      </trkpt>
      <trkpt lat="42.88769" lon="0.10823">
        <ele>1679.3</ele>
        <time>2021-03-25T10:57:46Z</time>
      </trkpt>
      <trkpt lat="42.88767" lon="0.10824">
        <ele>1679.4</ele>
        <time>2021-03-25T10:57:48Z</time>
      </trkpt>
      <trkpt lat="42.88766" lon="0.10824">
        <ele>1679.5</ele>
        <time>2021-03-25T10:57:49Z</time>
      </trkpt>
      <trkpt lat="42.88766" lon="0.10825">
        <ele>1679.6</ele>
        <time>2021-03-25T10:57:50Z</time>
      </trkpt>
      <trkpt lat="42.88765" lon="0.10826">
        <ele>1679.8</ele>
        <time>2021-03-25T10:57:52Z</time>
      </trkpt>
      <trkpt lat="42.88764" lon="0.10827">
        <ele>1679.9</ele>
        <time>2021-03-25T10:57:53Z</time>
      </trkpt>
      <trkpt lat="42.88763" lon="0.10827">
        <ele>1680</ele>
        <time>2021-03-25T10:57:54Z</time>
      </trkpt>
      <trkpt lat="42.88762" lon="0.10827">
        <ele>1680.1</ele>
        <time>2021-03-25T10:57:55Z</time>
      </trkpt>
      <trkpt lat="42.88761" lon="0.10827">
        <ele>1680.2</ele>
        <time>2021-03-25T10:57:57Z</time>
      </trkpt>
      <trkpt lat="42.8876" lon="0.10827">
        <ele>1680.3</ele>
        <time>2021-03-25T10:57:58Z</time>
      </trkpt>
      <trkpt lat="42.8876" lon="0.10827">
        <ele>1680.4</ele>
        <time>2021-03-25T10:58:00Z</time>
      </trkpt>
      <trkpt lat="42.88759" lon="0.10827">
        <ele>1680.4</ele>
        <time>2021-03-25T10:58:01Z</time>
      </trkpt>
      <trkpt lat="42.88759" lon="0.10828">
        <ele>1680.5</ele>
        <time>2021-03-25T10:58:03Z</time>
      </trkpt>
      <trkpt lat="42.88758" lon="0.10828">
        <ele>1680.6</ele>
        <time>2021-03-25T10:58:04Z</time>
      </trkpt>
      <trkpt lat="42.88757" lon="0.10829">
        <ele>1680.7</ele>
        <time>2021-03-25T10:58:05Z</time>
      </trkpt>
      <trkpt lat="42.88757" lon="0.10829">
        <ele>1680.7</ele>
        <time>2021-03-25T10:58:07Z</time>
      </trkpt>
      <trkpt lat="42.88756" lon="0.1083">
        <ele>1680.8</ele>
        <time>2021-03-25T10:58:08Z</time>
      </trkpt>
      <trkpt lat="42.88756" lon="0.10831">
        <ele>1680.9</ele>
        <time>2021-03-25T10:58:09Z</time>
      </trkpt>
      <trkpt lat="42.88755" lon="0.10831">
        <ele>1681</ele>
        <time>2021-03-25T10:58:11Z</time>
      </trkpt>
      <trkpt lat="42.88755" lon="0.10832">
        <ele>1681</ele>
        <time>2021-03-25T10:58:12Z</time>
      </trkpt>
      <trkpt lat="42.88754" lon="0.10832">
        <ele>1681.1</ele>
        <time>2021-03-25T10:58:14Z</time>
      </trkpt>
      <trkpt lat="42.88754" lon="0.10832">
        <ele>1681.2</ele>
        <time>2021-03-25T10:58:16Z</time>
      </trkpt>
      <trkpt lat="42.88753" lon="0.10832">
        <ele>1681.3</ele>
        <time>2021-03-25T10:58:17Z</time>
      </trkpt>
      <trkpt lat="42.88752" lon="0.10833">
        <ele>1681.4</ele>
        <time>2021-03-25T10:58:19Z</time>
      </trkpt>
      <trkpt lat="42.88751" lon="0.10833">
        <ele>1681.5</ele>
        <time>2021-03-25T10:58:20Z</time>
      </trkpt>
      <trkpt lat="42.88751" lon="0.10833">
        <ele>1681.5</ele>
        <time>2021-03-25T10:58:21Z</time>
      </trkpt>
      <trkpt lat="42.8875" lon="0.10833">
        <ele>1681.6</ele>
        <time>2021-03-25T10:58:23Z</time>
      </trkpt>
      <trkpt lat="42.88748" lon="0.10834">
        <ele>1681.8</ele>
        <time>2021-03-25T10:58:24Z</time>
      </trkpt>
      <trkpt lat="42.88747" lon="0.10834">
        <ele>1681.9</ele>
        <time>2021-03-25T10:58:25Z</time>
      </trkpt>
      <trkpt lat="42.88747" lon="0.10833">
        <ele>1682</ele>
        <time>2021-03-25T10:58:26Z</time>
      </trkpt>
      <trkpt lat="42.88745" lon="0.10833">
        <ele>1682.1</ele>
        <time>2021-03-25T10:58:28Z</time>
      </trkpt>
      <trkpt lat="42.88744" lon="0.10833">
        <ele>1682.3</ele>
        <time>2021-03-25T10:58:29Z</time>
      </trkpt>
      <trkpt lat="42.88743" lon="0.10832">
        <ele>1682.4</ele>
        <time>2021-03-25T10:58:31Z</time>
      </trkpt>
      <trkpt lat="42.88742" lon="0.10832">
        <ele>1682.5</ele>
        <time>2021-03-25T10:58:32Z</time>
      </trkpt>
      <trkpt lat="42.88741" lon="0.1083">
        <ele>1682.7</ele>
        <time>2021-03-25T10:58:33Z</time>
      </trkpt>
      <trkpt lat="42.88741" lon="0.10829">
        <ele>1682.8</ele>
        <time>2021-03-25T10:58:34Z</time>
      </trkpt>
      <trkpt lat="42.88739" lon="0.1083">
        <ele>1682.9</ele>
        <time>2021-03-25T10:58:36Z</time>
      </trkpt>
      <trkpt lat="42.88739" lon="0.10829">
        <ele>1683</ele>
        <time>2021-03-25T10:58:37Z</time>
      </trkpt>
      <trkpt lat="42.8874" lon="0.10829">
        <ele>1683.1</ele>
        <time>2021-03-25T10:58:39Z</time>
      </trkpt>
      <trkpt lat="42.88739" lon="0.10829">
        <ele>1683.1</ele>
        <time>2021-03-25T10:58:40Z</time>
      </trkpt>
      <trkpt lat="42.8874" lon="0.10829">
        <ele>1683.2</ele>
        <time>2021-03-25T10:58:42Z</time>
      </trkpt>
      <trkpt lat="42.88741" lon="0.10828">
        <ele>1683.3</ele>
        <time>2021-03-25T10:58:43Z</time>
      </trkpt>
      <trkpt lat="42.88742" lon="0.10829">
        <ele>1683.4</ele>
        <time>2021-03-25T10:58:45Z</time>
      </trkpt>
      <trkpt lat="42.88742" lon="0.10829">
        <ele>1683.4</ele>
        <time>2021-03-25T10:58:46Z</time>
      </trkpt>
      <trkpt lat="42.88742" lon="0.1083">
        <ele>1683.5</ele>
        <time>2021-03-25T10:58:47Z</time>
      </trkpt>
      <trkpt lat="42.88742" lon="0.1083">
        <ele>1683.5</ele>
        <time>2021-03-25T10:58:48Z</time>
      </trkpt>
      <trkpt lat="42.88742" lon="0.10831">
        <ele>1683.6</ele>
        <time>2021-03-25T10:58:50Z</time>
      </trkpt>
      <trkpt lat="42.88742" lon="0.10832">
        <ele>1683.7</ele>
        <time>2021-03-25T10:58:51Z</time>
      </trkpt>
      <trkpt lat="42.88741" lon="0.10833">
        <ele>1683.8</ele>
        <time>2021-03-25T10:58:53Z</time>
      </trkpt>
      <trkpt lat="42.8874" lon="0.10834">
        <ele>1683.9</ele>
        <time>2021-03-25T10:58:54Z</time>
      </trkpt>
      <trkpt lat="42.8874" lon="0.10835">
        <ele>1684</ele>
        <time>2021-03-25T10:58:55Z</time>
      </trkpt>
      <trkpt lat="42.88739" lon="0.10835">
        <ele>1684.1</ele>
        <time>2021-03-25T10:58:57Z</time>
      </trkpt>
      <trkpt lat="42.88738" lon="0.10836">
        <ele>1684.2</ele>
        <time>2021-03-25T10:58:58Z</time>
      </trkpt>
      <trkpt lat="42.88738" lon="0.10837">
        <ele>1684.3</ele>
        <time>2021-03-25T10:58:59Z</time>
      </trkpt>
      <trkpt lat="42.88737" lon="0.10837">
        <ele>1684.3</ele>
        <time>2021-03-25T10:59:00Z</time>
      </trkpt>
      <trkpt lat="42.88736" lon="0.10838">
        <ele>1684.4</ele>
        <time>2021-03-25T10:59:02Z</time>
      </trkpt>
      <trkpt lat="42.88735" lon="0.10838">
        <ele>1684.5</ele>
        <time>2021-03-25T10:59:03Z</time>
      </trkpt>
      <trkpt lat="42.88734" lon="0.10838">
        <ele>1684.6</ele>
        <time>2021-03-25T10:59:05Z</time>
      </trkpt>
      <trkpt lat="42.88733" lon="0.10839">
        <ele>1684.8</ele>
        <time>2021-03-25T10:59:06Z</time>
      </trkpt>
      <trkpt lat="42.88733" lon="0.1084">
        <ele>1684.8</ele>
        <time>2021-03-25T10:59:07Z</time>
      </trkpt>
      <trkpt lat="42.88733" lon="0.1084">
        <ele>1684.9</ele>
        <time>2021-03-25T10:59:09Z</time>
      </trkpt>
      <trkpt lat="42.88732" lon="0.10841">
        <ele>1684.9</ele>
        <time>2021-03-25T10:59:10Z</time>
      </trkpt>
      <trkpt lat="42.88732" lon="0.10841">
        <ele>1685</ele>
        <time>2021-03-25T10:59:11Z</time>
      </trkpt>
      <trkpt lat="42.88732" lon="0.10842">
        <ele>1685</ele>
        <time>2021-03-25T10:59:12Z</time>
      </trkpt>
      <trkpt lat="42.88731" lon="0.10842">
        <ele>1685.1</ele>
        <time>2021-03-25T10:59:14Z</time>
      </trkpt>
      <trkpt lat="42.8873" lon="0.10843">
        <ele>1685.2</ele>
        <time>2021-03-25T10:59:15Z</time>
      </trkpt>
      <trkpt lat="42.88729" lon="0.10843">
        <ele>1685.3</ele>
        <time>2021-03-25T10:59:16Z</time>
      </trkpt>
      <trkpt lat="42.88728" lon="0.10844">
        <ele>1685.5</ele>
        <time>2021-03-25T10:59:18Z</time>
      </trkpt>
      <trkpt lat="42.88728" lon="0.10844">
        <ele>1685.5</ele>
        <time>2021-03-25T10:59:19Z</time>
      </trkpt>
      <trkpt lat="42.88728" lon="0.10844">
        <ele>1685.5</ele>
        <time>2021-03-25T10:59:21Z</time>
      </trkpt>
      <trkpt lat="42.88728" lon="0.10845">
        <ele>1685.6</ele>
        <time>2021-03-25T10:59:22Z</time>
      </trkpt>
      <trkpt lat="42.88727" lon="0.10845">
        <ele>1685.6</ele>
        <time>2021-03-25T10:59:23Z</time>
      </trkpt>
      <trkpt lat="42.88726" lon="0.10845">
        <ele>1685.7</ele>
        <time>2021-03-25T10:59:25Z</time>
      </trkpt>
      <trkpt lat="42.88725" lon="0.10845">
        <ele>1685.8</ele>
        <time>2021-03-25T10:59:27Z</time>
      </trkpt>
      <trkpt lat="42.88724" lon="0.10844">
        <ele>1685.9</ele>
        <time>2021-03-25T10:59:28Z</time>
      </trkpt>
      <trkpt lat="42.88724" lon="0.10843">
        <ele>1686</ele>
        <time>2021-03-25T10:59:29Z</time>
      </trkpt>
      <trkpt lat="42.88723" lon="0.10843">
        <ele>1686.1</ele>
        <time>2021-03-25T10:59:30Z</time>
      </trkpt>
      <trkpt lat="42.88722" lon="0.10842">
        <ele>1686.3</ele>
        <time>2021-03-25T10:59:32Z</time>
      </trkpt>
      <trkpt lat="42.88721" lon="0.10843">
        <ele>1686.4</ele>
        <time>2021-03-25T10:59:33Z</time>
      </trkpt>
      <trkpt lat="42.8872" lon="0.10843">
        <ele>1686.5</ele>
        <time>2021-03-25T10:59:35Z</time>
      </trkpt>
      <trkpt lat="42.8872" lon="0.10844">
        <ele>1686.6</ele>
        <time>2021-03-25T10:59:36Z</time>
      </trkpt>
      <trkpt lat="42.88719" lon="0.10845">
        <ele>1686.7</ele>
        <time>2021-03-25T10:59:37Z</time>
      </trkpt>
      <trkpt lat="42.88718" lon="0.10846">
        <ele>1686.8</ele>
        <time>2021-03-25T10:59:39Z</time>
      </trkpt>
      <trkpt lat="42.88717" lon="0.10847">
        <ele>1687</ele>
        <time>2021-03-25T10:59:40Z</time>
      </trkpt>
      <trkpt lat="42.88716" lon="0.10848">
        <ele>1687.1</ele>
        <time>2021-03-25T10:59:41Z</time>
      </trkpt>
      <trkpt lat="42.88715" lon="0.10848">
        <ele>1687.3</ele>
        <time>2021-03-25T10:59:43Z</time>
      </trkpt>
      <trkpt lat="42.88713" lon="0.10849">
        <ele>1687.4</ele>
        <time>2021-03-25T10:59:44Z</time>
      </trkpt>
      <trkpt lat="42.88711" lon="0.1085">
        <ele>1687.6</ele>
        <time>2021-03-25T10:59:45Z</time>
      </trkpt>
      <trkpt lat="42.88711" lon="0.1085">
        <ele>1687.8</ele>
        <time>2021-03-25T10:59:47Z</time>
      </trkpt>
      <trkpt lat="42.8871" lon="0.1085">
        <ele>1687.9</ele>
        <time>2021-03-25T10:59:48Z</time>
      </trkpt>
      <trkpt lat="42.88709" lon="0.1085">
        <ele>1688</ele>
        <time>2021-03-25T10:59:49Z</time>
      </trkpt>
      <trkpt lat="42.88708" lon="0.1085">
        <ele>1688.1</ele>
        <time>2021-03-25T10:59:50Z</time>
      </trkpt>
      <trkpt lat="42.88707" lon="0.10849">
        <ele>1688.2</ele>
        <time>2021-03-25T10:59:52Z</time>
      </trkpt>
      <trkpt lat="42.88705" lon="0.1085">
        <ele>1688.4</ele>
        <time>2021-03-25T10:59:53Z</time>
      </trkpt>
      <trkpt lat="42.88704" lon="0.1085">
        <ele>1688.5</ele>
        <time>2021-03-25T10:59:54Z</time>
      </trkpt>
      <trkpt lat="42.88703" lon="0.1085">
        <ele>1688.6</ele>
        <time>2021-03-25T10:59:55Z</time>
      </trkpt>
      <trkpt lat="42.88702" lon="0.1085">
        <ele>1688.8</ele>
        <time>2021-03-25T10:59:57Z</time>
      </trkpt>
      <trkpt lat="42.887" lon="0.1085">
        <ele>1688.9</ele>
        <time>2021-03-25T10:59:58Z</time>
      </trkpt>
      <trkpt lat="42.88699" lon="0.1085">
        <ele>1689.1</ele>
        <time>2021-03-25T11:00:00Z</time>
      </trkpt>
      <trkpt lat="42.88699" lon="0.1085">
        <ele>1689.2</ele>
        <time>2021-03-25T11:00:01Z</time>
      </trkpt>
      <trkpt lat="42.88698" lon="0.1085">
        <ele>1689.2</ele>
        <time>2021-03-25T11:00:03Z</time>
      </trkpt>
      <trkpt lat="42.88698" lon="0.1085">
        <ele>1689.3</ele>
        <time>2021-03-25T11:00:04Z</time>
      </trkpt>
      <trkpt lat="42.88697" lon="0.10851">
        <ele>1689.4</ele>
        <time>2021-03-25T11:00:05Z</time>
      </trkpt>
      <trkpt lat="42.88697" lon="0.10852">
        <ele>1689.5</ele>
        <time>2021-03-25T11:00:07Z</time>
      </trkpt>
      <trkpt lat="42.88696" lon="0.10853">
        <ele>1689.6</ele>
        <time>2021-03-25T11:00:08Z</time>
      </trkpt>
      <trkpt lat="42.88694" lon="0.10853">
        <ele>1689.8</ele>
        <time>2021-03-25T11:00:10Z</time>
      </trkpt>
      <trkpt lat="42.88693" lon="0.10853">
        <ele>1689.9</ele>
        <time>2021-03-25T11:00:11Z</time>
      </trkpt>
      <trkpt lat="42.88692" lon="0.10853">
        <ele>1690</ele>
        <time>2021-03-25T11:00:12Z</time>
      </trkpt>
      <trkpt lat="42.88691" lon="0.10852">
        <ele>1690.2</ele>
        <time>2021-03-25T11:00:14Z</time>
      </trkpt>
      <trkpt lat="42.8869" lon="0.10852">
        <ele>1690.3</ele>
        <time>2021-03-25T11:00:15Z</time>
      </trkpt>
      <trkpt lat="42.88689" lon="0.10851">
        <ele>1690.4</ele>
        <time>2021-03-25T11:00:16Z</time>
      </trkpt>
      <trkpt lat="42.88688" lon="0.10851">
        <ele>1690.5</ele>
        <time>2021-03-25T11:00:17Z</time>
      </trkpt>
      <trkpt lat="42.88687" lon="0.10851">
        <ele>1690.6</ele>
        <time>2021-03-25T11:00:18Z</time>
      </trkpt>
      <trkpt lat="42.88686" lon="0.10851">
        <ele>1690.8</ele>
        <time>2021-03-25T11:00:20Z</time>
      </trkpt>
      <trkpt lat="42.88685" lon="0.10852">
        <ele>1690.9</ele>
        <time>2021-03-25T11:00:22Z</time>
      </trkpt>
      <trkpt lat="42.88684" lon="0.10851">
        <ele>1691</ele>
        <time>2021-03-25T11:00:23Z</time>
      </trkpt>
      <trkpt lat="42.88683" lon="0.1085">
        <ele>1691.2</ele>
        <time>2021-03-25T11:00:24Z</time>
      </trkpt>
      <trkpt lat="42.88682" lon="0.10849">
        <ele>1691.3</ele>
        <time>2021-03-25T11:00:25Z</time>
      </trkpt>
      <trkpt lat="42.88681" lon="0.10848">
        <ele>1691.4</ele>
        <time>2021-03-25T11:00:27Z</time>
      </trkpt>
      <trkpt lat="42.8868" lon="0.10847">
        <ele>1691.6</ele>
        <time>2021-03-25T11:00:28Z</time>
      </trkpt>
      <trkpt lat="42.88678" lon="0.10846">
        <ele>1691.8</ele>
        <time>2021-03-25T11:00:30Z</time>
      </trkpt>
      <trkpt lat="42.88678" lon="0.10845">
        <ele>1691.9</ele>
        <time>2021-03-25T11:00:31Z</time>
      </trkpt>
      <trkpt lat="42.88676" lon="0.10844">
        <ele>1692</ele>
        <time>2021-03-25T11:00:33Z</time>
      </trkpt>
      <trkpt lat="42.88676" lon="0.10844">
        <ele>1692.1</ele>
        <time>2021-03-25T11:00:35Z</time>
      </trkpt>
      <trkpt lat="42.88675" lon="0.10844">
        <ele>1692.2</ele>
        <time>2021-03-25T11:00:36Z</time>
      </trkpt>
      <trkpt lat="42.88674" lon="0.10845">
        <ele>1692.3</ele>
        <time>2021-03-25T11:00:38Z</time>
      </trkpt>
      <trkpt lat="42.88673" lon="0.10846">
        <ele>1692.4</ele>
        <time>2021-03-25T11:00:39Z</time>
      </trkpt>
      <trkpt lat="42.88673" lon="0.10846">
        <ele>1692.5</ele>
        <time>2021-03-25T11:00:40Z</time>
      </trkpt>
      <trkpt lat="42.88672" lon="0.10847">
        <ele>1692.6</ele>
        <time>2021-03-25T11:00:42Z</time>
      </trkpt>
      <trkpt lat="42.88671" lon="0.10848">
        <ele>1692.7</ele>
        <time>2021-03-25T11:00:43Z</time>
      </trkpt>
      <trkpt lat="42.8867" lon="0.10849">
        <ele>1692.8</ele>
        <time>2021-03-25T11:00:44Z</time>
      </trkpt>
      <trkpt lat="42.88669" lon="0.10849">
        <ele>1693</ele>
        <time>2021-03-25T11:00:46Z</time>
      </trkpt>
      <trkpt lat="42.88668" lon="0.1085">
        <ele>1693.1</ele>
        <time>2021-03-25T11:00:47Z</time>
      </trkpt>
      <trkpt lat="42.88667" lon="0.1085">
        <ele>1693.2</ele>
        <time>2021-03-25T11:00:49Z</time>
      </trkpt>
      <trkpt lat="42.88666" lon="0.10851">
        <ele>1693.4</ele>
        <time>2021-03-25T11:00:51Z</time>
      </trkpt>
      <trkpt lat="42.88664" lon="0.1085">
        <ele>1693.5</ele>
        <time>2021-03-25T11:00:52Z</time>
      </trkpt>
      <trkpt lat="42.88664" lon="0.1085">
        <ele>1693.6</ele>
        <time>2021-03-25T11:00:54Z</time>
      </trkpt>
      <trkpt lat="42.88664" lon="0.10848">
        <ele>1693.8</ele>
        <time>2021-03-25T11:00:55Z</time>
      </trkpt>
      <trkpt lat="42.88664" lon="0.10846">
        <ele>1694</ele>
        <time>2021-03-25T11:00:56Z</time>
      </trkpt>
      <trkpt lat="42.88664" lon="0.10844">
        <ele>1694.1</ele>
        <time>2021-03-25T11:00:58Z</time>
      </trkpt>
      <trkpt lat="42.88664" lon="0.10842">
        <ele>1694.2</ele>
        <time>2021-03-25T11:00:59Z</time>
      </trkpt>
      <trkpt lat="42.88663" lon="0.10841">
        <ele>1694.3</ele>
        <time>2021-03-25T11:01:01Z</time>
      </trkpt>
      <trkpt lat="42.88663" lon="0.10841">
        <ele>1694.4</ele>
        <time>2021-03-25T11:01:02Z</time>
      </trkpt>
      <trkpt lat="42.88663" lon="0.1084">
        <ele>1694.4</ele>
        <time>2021-03-25T11:01:03Z</time>
      </trkpt>
      <trkpt lat="42.88662" lon="0.10839">
        <ele>1694.5</ele>
        <time>2021-03-25T11:01:05Z</time>
      </trkpt>
      <trkpt lat="42.88662" lon="0.10838">
        <ele>1694.6</ele>
        <time>2021-03-25T11:01:06Z</time>
      </trkpt>
      <trkpt lat="42.88661" lon="0.10838">
        <ele>1694.7</ele>
        <time>2021-03-25T11:01:07Z</time>
      </trkpt>
      <trkpt lat="42.8866" lon="0.10838">
        <ele>1694.8</ele>
        <time>2021-03-25T11:01:09Z</time>
      </trkpt>
      <trkpt lat="42.8866" lon="0.10838">
        <ele>1694.9</ele>
        <time>2021-03-25T11:01:10Z</time>
      </trkpt>
      <trkpt lat="42.8866" lon="0.10839">
        <ele>1695</ele>
        <time>2021-03-25T11:01:12Z</time>
      </trkpt>
      <trkpt lat="42.8866" lon="0.1084">
        <ele>1695</ele>
        <time>2021-03-25T11:01:13Z</time>
      </trkpt>
      <trkpt lat="42.8866" lon="0.1084">
        <ele>1695.1</ele>
        <time>2021-03-25T11:01:14Z</time>
      </trkpt>
      <trkpt lat="42.8866" lon="0.1084">
        <ele>1695.1</ele>
        <time>2021-03-25T11:01:15Z</time>
      </trkpt>
      <trkpt lat="42.8866" lon="0.10841">
        <ele>1695.2</ele>
        <time>2021-03-25T11:01:17Z</time>
      </trkpt>
      <trkpt lat="42.88659" lon="0.10842">
        <ele>1695.2</ele>
        <time>2021-03-25T11:01:18Z</time>
      </trkpt>
      <trkpt lat="42.88659" lon="0.10842">
        <ele>1695.3</ele>
        <time>2021-03-25T11:01:19Z</time>
      </trkpt>
      <trkpt lat="42.88658" lon="0.10842">
        <ele>1695.4</ele>
        <time>2021-03-25T11:01:21Z</time>
      </trkpt>
      <trkpt lat="42.88658" lon="0.10842">
        <ele>1695.4</ele>
        <time>2021-03-25T11:01:22Z</time>
      </trkpt>
      <trkpt lat="42.88657" lon="0.10842">
        <ele>1695.6</ele>
        <time>2021-03-25T11:01:23Z</time>
      </trkpt>
      <trkpt lat="42.88656" lon="0.10842">
        <ele>1695.7</ele>
        <time>2021-03-25T11:01:24Z</time>
      </trkpt>
      <trkpt lat="42.88654" lon="0.10843">
        <ele>1696</ele>
        <time>2021-03-25T11:01:26Z</time>
      </trkpt>
      <trkpt lat="42.88652" lon="0.10844">
        <ele>1696.1</ele>
        <time>2021-03-25T11:01:27Z</time>
      </trkpt>
      <trkpt lat="42.88651" lon="0.10845">
        <ele>1696.3</ele>
        <time>2021-03-25T11:01:28Z</time>
      </trkpt>
      <trkpt lat="42.88649" lon="0.10846">
        <ele>1696.5</ele>
        <time>2021-03-25T11:01:29Z</time>
      </trkpt>
      <trkpt lat="42.88647" lon="0.10846">
        <ele>1696.8</ele>
        <time>2021-03-25T11:01:31Z</time>
      </trkpt>
      <trkpt lat="42.88646" lon="0.10848">
        <ele>1697</ele>
        <time>2021-03-25T11:01:32Z</time>
      </trkpt>
      <trkpt lat="42.88645" lon="0.10848">
        <ele>1697.1</ele>
        <time>2021-03-25T11:01:33Z</time>
      </trkpt>
      <trkpt lat="42.88643" lon="0.10849">
        <ele>1698.6</ele>
        <time>2021-03-25T11:01:35Z</time>
      </trkpt>
      <trkpt lat="42.88642" lon="0.10851">
        <ele>1698.7</ele>
        <time>2021-03-25T11:01:36Z</time>
      </trkpt>
      <trkpt lat="42.88641" lon="0.10852">
        <ele>1698.9</ele>
        <time>2021-03-25T11:01:38Z</time>
      </trkpt>
      <trkpt lat="42.8864" lon="0.10852">
        <ele>1699.6</ele>
        <time>2021-03-25T11:01:39Z</time>
      </trkpt>
      <trkpt lat="42.88639" lon="0.10852">
        <ele>1699.8</ele>
        <time>2021-03-25T11:01:41Z</time>
      </trkpt>
      <trkpt lat="42.88639" lon="0.10852">
        <ele>1700</ele>
        <time>2021-03-25T11:01:42Z</time>
      </trkpt>
      <trkpt lat="42.88638" lon="0.10852">
        <ele>1700.2</ele>
        <time>2021-03-25T11:01:44Z</time>
      </trkpt>
      <trkpt lat="42.88637" lon="0.10852">
        <ele>1700.9</ele>
        <time>2021-03-25T11:01:46Z</time>
      </trkpt>
      <trkpt lat="42.88637" lon="0.10853">
        <ele>1701</ele>
        <time>2021-03-25T11:01:47Z</time>
      </trkpt>
      <trkpt lat="42.88637" lon="0.10852">
        <ele>1701.2</ele>
        <time>2021-03-25T11:01:49Z</time>
      </trkpt>
      <trkpt lat="42.88637" lon="0.10852">
        <ele>1701.4</ele>
        <time>2021-03-25T11:01:50Z</time>
      </trkpt>
      <trkpt lat="42.88638" lon="0.10852">
        <ele>1701.1</ele>
        <time>2021-03-25T11:01:51Z</time>
      </trkpt>
      <trkpt lat="42.88638" lon="0.10852">
        <ele>1701.3</ele>
        <time>2021-03-25T11:01:52Z</time>
      </trkpt>
      <trkpt lat="42.88638" lon="0.10851">
        <ele>1701.4</ele>
        <time>2021-03-25T11:01:53Z</time>
      </trkpt>
      <trkpt lat="42.88638" lon="0.10851">
        <ele>1701.6</ele>
        <time>2021-03-25T11:01:55Z</time>
      </trkpt>
      <trkpt lat="42.88638" lon="0.10851">
        <ele>1701.8</ele>
        <time>2021-03-25T11:01:56Z</time>
      </trkpt>
      <trkpt lat="42.88638" lon="0.10852">
        <ele>1702</ele>
        <time>2021-03-25T11:01:58Z</time>
      </trkpt>
      <trkpt lat="42.88638" lon="0.10853">
        <ele>1702.2</ele>
        <time>2021-03-25T11:01:59Z</time>
      </trkpt>
      <trkpt lat="42.88637" lon="0.10854">
        <ele>1703.6</ele>
        <time>2021-03-25T11:02:01Z</time>
      </trkpt>
      <trkpt lat="42.88636" lon="0.10856">
        <ele>1703.8</ele>
        <time>2021-03-25T11:02:02Z</time>
      </trkpt>
      <trkpt lat="42.88634" lon="0.10859">
        <ele>1704.7</ele>
        <time>2021-03-25T11:02:04Z</time>
      </trkpt>
      <trkpt lat="42.88634" lon="0.10862">
        <ele>1705.4</ele>
        <time>2021-03-25T11:02:06Z</time>
      </trkpt>
      <trkpt lat="42.88633" lon="0.10863">
        <ele>1706.4</ele>
        <time>2021-03-25T11:02:07Z</time>
      </trkpt>
      <trkpt lat="42.88633" lon="0.10863">
        <ele>1706.5</ele>
        <time>2021-03-25T11:02:09Z</time>
      </trkpt>
      <trkpt lat="42.88632" lon="0.10864">
        <ele>1706.7</ele>
        <time>2021-03-25T11:02:10Z</time>
      </trkpt>
      <trkpt lat="42.88632" lon="0.10864">
        <ele>1706.9</ele>
        <time>2021-03-25T11:02:12Z</time>
      </trkpt>
      <trkpt lat="42.88631" lon="0.10865">
        <ele>1707.1</ele>
        <time>2021-03-25T11:02:13Z</time>
      </trkpt>
      <trkpt lat="42.8863" lon="0.10865">
        <ele>1707.2</ele>
        <time>2021-03-25T11:02:14Z</time>
      </trkpt>
      <trkpt lat="42.8863" lon="0.10865">
        <ele>1707.3</ele>
        <time>2021-03-25T11:02:16Z</time>
      </trkpt>
      <trkpt lat="42.88629" lon="0.10865">
        <ele>1707.4</ele>
        <time>2021-03-25T11:02:17Z</time>
      </trkpt>
      <trkpt lat="42.88628" lon="0.10865">
        <ele>1707.4</ele>
        <time>2021-03-25T11:02:18Z</time>
      </trkpt>
      <trkpt lat="42.88627" lon="0.10866">
        <ele>1707.5</ele>
        <time>2021-03-25T11:02:20Z</time>
      </trkpt>
      <trkpt lat="42.88627" lon="0.10866">
        <ele>1707.6</ele>
        <time>2021-03-25T11:02:21Z</time>
      </trkpt>
      <trkpt lat="42.88626" lon="0.10867">
        <ele>1707.7</ele>
        <time>2021-03-25T11:02:22Z</time>
      </trkpt>
      <trkpt lat="42.88626" lon="0.10867">
        <ele>1707.7</ele>
        <time>2021-03-25T11:02:23Z</time>
      </trkpt>
      <trkpt lat="42.88626" lon="0.10868">
        <ele>1707.8</ele>
        <time>2021-03-25T11:02:25Z</time>
      </trkpt>
      <trkpt lat="42.88627" lon="0.10869">
        <ele>1707.9</ele>
        <time>2021-03-25T11:02:26Z</time>
      </trkpt>
      <trkpt lat="42.88628" lon="0.10871">
        <ele>1708</ele>
        <time>2021-03-25T11:02:28Z</time>
      </trkpt>
      <trkpt lat="42.88628" lon="0.10871">
        <ele>1708.1</ele>
        <time>2021-03-25T11:02:29Z</time>
      </trkpt>
      <trkpt lat="42.88629" lon="0.10871">
        <ele>1708.2</ele>
        <time>2021-03-25T11:02:30Z</time>
      </trkpt>
      <trkpt lat="42.8863" lon="0.10872">
        <ele>1708.4</ele>
        <time>2021-03-25T11:02:32Z</time>
      </trkpt>
      <trkpt lat="42.88631" lon="0.10873">
        <ele>1708.5</ele>
        <time>2021-03-25T11:02:33Z</time>
      </trkpt>
      <trkpt lat="42.88633" lon="0.10875">
        <ele>1708.7</ele>
        <time>2021-03-25T11:02:35Z</time>
      </trkpt>
      <trkpt lat="42.88634" lon="0.10876">
        <ele>1709</ele>
        <time>2021-03-25T11:02:36Z</time>
      </trkpt>
      <trkpt lat="42.88635" lon="0.10877">
        <ele>1709.1</ele>
        <time>2021-03-25T11:02:38Z</time>
      </trkpt>
      <trkpt lat="42.88636" lon="0.10878">
        <ele>1709.3</ele>
        <time>2021-03-25T11:02:39Z</time>
      </trkpt>
      <trkpt lat="42.88637" lon="0.10879">
        <ele>1709.4</ele>
        <time>2021-03-25T11:02:41Z</time>
      </trkpt>
      <trkpt lat="42.88638" lon="0.1088">
        <ele>1709.5</ele>
        <time>2021-03-25T11:02:42Z</time>
      </trkpt>
      <trkpt lat="42.88639" lon="0.10881">
        <ele>1709.7</ele>
        <time>2021-03-25T11:02:44Z</time>
      </trkpt>
      <trkpt lat="42.8864" lon="0.10882">
        <ele>1709.8</ele>
        <time>2021-03-25T11:02:45Z</time>
      </trkpt>
      <trkpt lat="42.8864" lon="0.10882">
        <ele>1709.9</ele>
        <time>2021-03-25T11:02:47Z</time>
      </trkpt>
      <trkpt lat="42.8864" lon="0.10883">
        <ele>1710</ele>
        <time>2021-03-25T11:02:48Z</time>
      </trkpt>
      <trkpt lat="42.88641" lon="0.10883">
        <ele>1710.1</ele>
        <time>2021-03-25T11:02:50Z</time>
      </trkpt>
      <trkpt lat="42.88641" lon="0.10883">
        <ele>1710.1</ele>
        <time>2021-03-25T11:02:51Z</time>
      </trkpt>
      <trkpt lat="42.88642" lon="0.10884">
        <ele>1710.2</ele>
        <time>2021-03-25T11:02:53Z</time>
      </trkpt>
      <trkpt lat="42.88642" lon="0.10885">
        <ele>1710.3</ele>
        <time>2021-03-25T11:02:55Z</time>
      </trkpt>
      <trkpt lat="42.88643" lon="0.10886">
        <ele>1710.4</ele>
        <time>2021-03-25T11:02:56Z</time>
      </trkpt>
      <trkpt lat="42.88643" lon="0.10888">
        <ele>1710.6</ele>
        <time>2021-03-25T11:02:58Z</time>
      </trkpt>
      <trkpt lat="42.88644" lon="0.10889">
        <ele>1710.8</ele>
        <time>2021-03-25T11:02:59Z</time>
      </trkpt>
      <trkpt lat="42.88645" lon="0.10891">
        <ele>1711</ele>
        <time>2021-03-25T11:03:00Z</time>
      </trkpt>
      <trkpt lat="42.88646" lon="0.10893">
        <ele>1711.2</ele>
        <time>2021-03-25T11:03:02Z</time>
      </trkpt>
      <trkpt lat="42.88647" lon="0.10894">
        <ele>1711.4</ele>
        <time>2021-03-25T11:03:03Z</time>
      </trkpt>
      <trkpt lat="42.88647" lon="0.10897">
        <ele>1711.6</ele>
        <time>2021-03-25T11:03:05Z</time>
      </trkpt>
      <trkpt lat="42.88649" lon="0.10898">
        <ele>1711.8</ele>
        <time>2021-03-25T11:03:06Z</time>
      </trkpt>
      <trkpt lat="42.88649" lon="0.10899">
        <ele>1711.9</ele>
        <time>2021-03-25T11:03:07Z</time>
      </trkpt>
      <trkpt lat="42.8865" lon="0.109">
        <ele>1712</ele>
        <time>2021-03-25T11:03:08Z</time>
      </trkpt>
      <trkpt lat="42.8865" lon="0.10901">
        <ele>1712.2</ele>
        <time>2021-03-25T11:03:10Z</time>
      </trkpt>
      <trkpt lat="42.88651" lon="0.10903">
        <ele>1712.3</ele>
        <time>2021-03-25T11:03:11Z</time>
      </trkpt>
      <trkpt lat="42.88651" lon="0.10906">
        <ele>1712.5</ele>
        <time>2021-03-25T11:03:12Z</time>
      </trkpt>
      <trkpt lat="42.88651" lon="0.10908">
        <ele>1712.7</ele>
        <time>2021-03-25T11:03:14Z</time>
      </trkpt>
      <trkpt lat="42.88651" lon="0.1091">
        <ele>1712.9</ele>
        <time>2021-03-25T11:03:15Z</time>
      </trkpt>
      <trkpt lat="42.88651" lon="0.10912">
        <ele>1713</ele>
        <time>2021-03-25T11:03:17Z</time>
      </trkpt>
      <trkpt lat="42.88652" lon="0.10913">
        <ele>1713.2</ele>
        <time>2021-03-25T11:03:18Z</time>
      </trkpt>
      <trkpt lat="42.88651" lon="0.10916">
        <ele>1713.4</ele>
        <time>2021-03-25T11:03:19Z</time>
      </trkpt>
      <trkpt lat="42.88651" lon="0.10918">
        <ele>1713.6</ele>
        <time>2021-03-25T11:03:21Z</time>
      </trkpt>
      <trkpt lat="42.8865" lon="0.10919">
        <ele>1713.7</ele>
        <time>2021-03-25T11:03:22Z</time>
      </trkpt>
      <trkpt lat="42.88649" lon="0.1092">
        <ele>1713.9</ele>
        <time>2021-03-25T11:03:23Z</time>
      </trkpt>
      <trkpt lat="42.88647" lon="0.10922">
        <ele>1714.1</ele>
        <time>2021-03-25T11:03:25Z</time>
      </trkpt>
      <trkpt lat="42.88646" lon="0.10923">
        <ele>1714.3</ele>
        <time>2021-03-25T11:03:26Z</time>
      </trkpt>
      <trkpt lat="42.88643" lon="0.10923">
        <ele>1714.5</ele>
        <time>2021-03-25T11:03:28Z</time>
      </trkpt>
      <trkpt lat="42.8864" lon="0.10923">
        <ele>1714.9</ele>
        <time>2021-03-25T11:03:29Z</time>
      </trkpt>
      <trkpt lat="42.88639" lon="0.10922">
        <ele>1715</ele>
        <time>2021-03-25T11:03:30Z</time>
      </trkpt>
      <trkpt lat="42.88638" lon="0.10921">
        <ele>1715.2</ele>
        <time>2021-03-25T11:03:31Z</time>
      </trkpt>
      <trkpt lat="42.88636" lon="0.1092">
        <ele>1715.4</ele>
        <time>2021-03-25T11:03:33Z</time>
      </trkpt>
      <trkpt lat="42.88634" lon="0.10918">
        <ele>1715.5</ele>
        <time>2021-03-25T11:03:34Z</time>
      </trkpt>
      <trkpt lat="42.88633" lon="0.10917">
        <ele>1715.7</ele>
        <time>2021-03-25T11:03:36Z</time>
      </trkpt>
      <trkpt lat="42.88632" lon="0.10917">
        <ele>1715.8</ele>
        <time>2021-03-25T11:03:37Z</time>
      </trkpt>
      <trkpt lat="42.88631" lon="0.10916">
        <ele>1715.9</ele>
        <time>2021-03-25T11:03:38Z</time>
      </trkpt>
      <trkpt lat="42.88629" lon="0.10916">
        <ele>1716.1</ele>
        <time>2021-03-25T11:03:40Z</time>
      </trkpt>
      <trkpt lat="42.88628" lon="0.10915">
        <ele>1716.3</ele>
        <time>2021-03-25T11:03:41Z</time>
      </trkpt>
      <trkpt lat="42.88626" lon="0.10913">
        <ele>1716.5</ele>
        <time>2021-03-25T11:03:43Z</time>
      </trkpt>
      <trkpt lat="42.88624" lon="0.10912">
        <ele>1716.6</ele>
        <time>2021-03-25T11:03:44Z</time>
      </trkpt>
      <trkpt lat="42.88623" lon="0.10911">
        <ele>1716.7</ele>
        <time>2021-03-25T11:03:46Z</time>
      </trkpt>
      <trkpt lat="42.88623" lon="0.1091">
        <ele>1716.8</ele>
        <time>2021-03-25T11:03:47Z</time>
      </trkpt>
      <trkpt lat="42.88621" lon="0.10909">
        <ele>1717</ele>
        <time>2021-03-25T11:03:48Z</time>
      </trkpt>
      <trkpt lat="42.8862" lon="0.10908">
        <ele>1717.2</ele>
        <time>2021-03-25T11:03:50Z</time>
      </trkpt>
      <trkpt lat="42.88618" lon="0.10907">
        <ele>1717.3</ele>
        <time>2021-03-25T11:03:51Z</time>
      </trkpt>
      <trkpt lat="42.88617" lon="0.10906">
        <ele>1717.5</ele>
        <time>2021-03-25T11:03:53Z</time>
      </trkpt>
      <trkpt lat="42.88616" lon="0.10905">
        <ele>1717.6</ele>
        <time>2021-03-25T11:03:54Z</time>
      </trkpt>
      <trkpt lat="42.88615" lon="0.10905">
        <ele>1717.7</ele>
        <time>2021-03-25T11:03:55Z</time>
      </trkpt>
      <trkpt lat="42.88614" lon="0.10904">
        <ele>1717.9</ele>
        <time>2021-03-25T11:03:57Z</time>
      </trkpt>
      <trkpt lat="42.88613" lon="0.10903">
        <ele>1718</ele>
        <time>2021-03-25T11:03:58Z</time>
      </trkpt>
      <trkpt lat="42.88612" lon="0.10902">
        <ele>1718.1</ele>
        <time>2021-03-25T11:03:59Z</time>
      </trkpt>
      <trkpt lat="42.8861" lon="0.10901">
        <ele>1718.3</ele>
        <time>2021-03-25T11:04:01Z</time>
      </trkpt>
      <trkpt lat="42.88609" lon="0.10901">
        <ele>1718.4</ele>
        <time>2021-03-25T11:04:02Z</time>
      </trkpt>
      <trkpt lat="42.88608" lon="0.10901">
        <ele>1718.5</ele>
        <time>2021-03-25T11:04:03Z</time>
      </trkpt>
      <trkpt lat="42.88606" lon="0.10901">
        <ele>1718.7</ele>
        <time>2021-03-25T11:04:05Z</time>
      </trkpt>
      <trkpt lat="42.88605" lon="0.10901">
        <ele>1718.8</ele>
        <time>2021-03-25T11:04:06Z</time>
      </trkpt>
      <trkpt lat="42.88604" lon="0.10902">
        <ele>1718.9</ele>
        <time>2021-03-25T11:04:07Z</time>
      </trkpt>
      <trkpt lat="42.88602" lon="0.10902">
        <ele>1719.1</ele>
        <time>2021-03-25T11:04:09Z</time>
      </trkpt>
      <trkpt lat="42.88601" lon="0.10903">
        <ele>1719.3</ele>
        <time>2021-03-25T11:04:10Z</time>
      </trkpt>
      <trkpt lat="42.88601" lon="0.10904">
        <ele>1719.3</ele>
        <time>2021-03-25T11:04:11Z</time>
      </trkpt>
      <trkpt lat="42.88599" lon="0.10906">
        <ele>1719.6</ele>
        <time>2021-03-25T11:04:13Z</time>
      </trkpt>
      <trkpt lat="42.88597" lon="0.10907">
        <ele>1719.8</ele>
        <time>2021-03-25T11:04:15Z</time>
      </trkpt>
      <trkpt lat="42.88596" lon="0.10907">
        <ele>1719.9</ele>
        <time>2021-03-25T11:04:16Z</time>
      </trkpt>
      <trkpt lat="42.88595" lon="0.10908">
        <ele>1720</ele>
        <time>2021-03-25T11:04:17Z</time>
      </trkpt>
      <trkpt lat="42.88594" lon="0.10908">
        <ele>1720.1</ele>
        <time>2021-03-25T11:04:19Z</time>
      </trkpt>
      <trkpt lat="42.88592" lon="0.10908">
        <ele>1720.3</ele>
        <time>2021-03-25T11:04:20Z</time>
      </trkpt>
      <trkpt lat="42.8859" lon="0.1091">
        <ele>1720.5</ele>
        <time>2021-03-25T11:04:21Z</time>
      </trkpt>
      <trkpt lat="42.88589" lon="0.1091">
        <ele>1720.6</ele>
        <time>2021-03-25T11:04:23Z</time>
      </trkpt>
      <trkpt lat="42.88588" lon="0.10911">
        <ele>1720.7</ele>
        <time>2021-03-25T11:04:24Z</time>
      </trkpt>
      <trkpt lat="42.88588" lon="0.10912">
        <ele>1720.8</ele>
        <time>2021-03-25T11:04:25Z</time>
      </trkpt>
      <trkpt lat="42.88587" lon="0.10913">
        <ele>1720.9</ele>
        <time>2021-03-25T11:04:26Z</time>
      </trkpt>
      <trkpt lat="42.88586" lon="0.10914">
        <ele>1721.1</ele>
        <time>2021-03-25T11:04:28Z</time>
      </trkpt>
      <trkpt lat="42.88585" lon="0.10914">
        <ele>1721.1</ele>
        <time>2021-03-25T11:04:29Z</time>
      </trkpt>
      <trkpt lat="42.88584" lon="0.10915">
        <ele>1721.2</ele>
        <time>2021-03-25T11:04:31Z</time>
      </trkpt>
      <trkpt lat="42.88583" lon="0.10916">
        <ele>1721.3</ele>
        <time>2021-03-25T11:04:32Z</time>
      </trkpt>
      <trkpt lat="42.88582" lon="0.10916">
        <ele>1721.4</ele>
        <time>2021-03-25T11:04:33Z</time>
      </trkpt>
      <trkpt lat="42.88582" lon="0.10916">
        <ele>1721.5</ele>
        <time>2021-03-25T11:04:34Z</time>
      </trkpt>
      <trkpt lat="42.88581" lon="0.10916">
        <ele>1721.6</ele>
        <time>2021-03-25T11:04:35Z</time>
      </trkpt>
      <trkpt lat="42.88579" lon="0.10916">
        <ele>1721.7</ele>
        <time>2021-03-25T11:04:37Z</time>
      </trkpt>
      <trkpt lat="42.88578" lon="0.10916">
        <ele>1721.8</ele>
        <time>2021-03-25T11:04:38Z</time>
      </trkpt>
      <trkpt lat="42.88577" lon="0.10916">
        <ele>1721.9</ele>
        <time>2021-03-25T11:04:40Z</time>
      </trkpt>
      <trkpt lat="42.88576" lon="0.10916">
        <ele>1722</ele>
        <time>2021-03-25T11:04:41Z</time>
      </trkpt>
      <trkpt lat="42.88576" lon="0.10916">
        <ele>1722</ele>
        <time>2021-03-25T11:04:42Z</time>
      </trkpt>
      <trkpt lat="42.88577" lon="0.10916">
        <ele>1722.1</ele>
        <time>2021-03-25T11:04:44Z</time>
      </trkpt>
      <trkpt lat="42.88577" lon="0.10917">
        <ele>1722.1</ele>
        <time>2021-03-25T11:04:45Z</time>
      </trkpt>
      <trkpt lat="42.88578" lon="0.10918">
        <ele>1722.3</ele>
        <time>2021-03-25T11:04:47Z</time>
      </trkpt>
      <trkpt lat="42.88579" lon="0.10919">
        <ele>1722.4</ele>
        <time>2021-03-25T11:04:49Z</time>
      </trkpt>
      <trkpt lat="42.8858" lon="0.1092">
        <ele>1722.5</ele>
        <time>2021-03-25T11:04:50Z</time>
      </trkpt>
      <trkpt lat="42.8858" lon="0.10921">
        <ele>1722.6</ele>
        <time>2021-03-25T11:04:51Z</time>
      </trkpt>
      <trkpt lat="42.8858" lon="0.10923">
        <ele>1722.7</ele>
        <time>2021-03-25T11:04:53Z</time>
      </trkpt>
      <trkpt lat="42.8858" lon="0.10925">
        <ele>1722.9</ele>
        <time>2021-03-25T11:04:54Z</time>
      </trkpt>
      <trkpt lat="42.8858" lon="0.10927">
        <ele>1723</ele>
        <time>2021-03-25T11:04:56Z</time>
      </trkpt>
      <trkpt lat="42.8858" lon="0.10929">
        <ele>1723.2</ele>
        <time>2021-03-25T11:04:57Z</time>
      </trkpt>
      <trkpt lat="42.8858" lon="0.10931">
        <ele>1723.3</ele>
        <time>2021-03-25T11:04:58Z</time>
      </trkpt>
      <trkpt lat="42.88579" lon="0.10935">
        <ele>1723.6</ele>
        <time>2021-03-25T11:05:00Z</time>
      </trkpt>
      <trkpt lat="42.88578" lon="0.10936">
        <ele>1723.7</ele>
        <time>2021-03-25T11:05:01Z</time>
      </trkpt>
      <trkpt lat="42.88578" lon="0.10938">
        <ele>1723.8</ele>
        <time>2021-03-25T11:05:02Z</time>
      </trkpt>
      <trkpt lat="42.88577" lon="0.1094">
        <ele>1724</ele>
        <time>2021-03-25T11:05:04Z</time>
      </trkpt>
      <trkpt lat="42.88577" lon="0.10942">
        <ele>1724.1</ele>
        <time>2021-03-25T11:05:05Z</time>
      </trkpt>
      <trkpt lat="42.88576" lon="0.10943">
        <ele>1724.2</ele>
        <time>2021-03-25T11:05:06Z</time>
      </trkpt>
      <trkpt lat="42.88575" lon="0.10946">
        <ele>1724.4</ele>
        <time>2021-03-25T11:05:08Z</time>
      </trkpt>
      <trkpt lat="42.88575" lon="0.10947">
        <ele>1724.5</ele>
        <time>2021-03-25T11:05:09Z</time>
      </trkpt>
      <trkpt lat="42.88574" lon="0.10949">
        <ele>1724.7</ele>
        <time>2021-03-25T11:05:11Z</time>
      </trkpt>
      <trkpt lat="42.88573" lon="0.1095">
        <ele>1724.8</ele>
        <time>2021-03-25T11:05:12Z</time>
      </trkpt>
      <trkpt lat="42.88572" lon="0.1095">
        <ele>1724.9</ele>
        <time>2021-03-25T11:05:13Z</time>
      </trkpt>
      <trkpt lat="42.8857" lon="0.1095">
        <ele>1725.1</ele>
        <time>2021-03-25T11:05:15Z</time>
      </trkpt>
      <trkpt lat="42.88568" lon="0.1095">
        <ele>1725.3</ele>
        <time>2021-03-25T11:05:16Z</time>
      </trkpt>
      <trkpt lat="42.88566" lon="0.1095">
        <ele>1725.4</ele>
        <time>2021-03-25T11:05:17Z</time>
      </trkpt>
      <trkpt lat="42.88564" lon="0.10951">
        <ele>1725.6</ele>
        <time>2021-03-25T11:05:18Z</time>
      </trkpt>
      <trkpt lat="42.88562" lon="0.10951">
        <ele>1725.8</ele>
        <time>2021-03-25T11:05:20Z</time>
      </trkpt>
      <trkpt lat="42.88561" lon="0.10951">
        <ele>1725.9</ele>
        <time>2021-03-25T11:05:26Z</time>
      </trkpt>
      <trkpt lat="42.88559" lon="0.10951">
        <ele>1726.1</ele>
        <time>2021-03-25T11:05:27Z</time>
      </trkpt>
      <trkpt lat="42.88559" lon="0.1095">
        <ele>1726.1</ele>
        <time>2021-03-25T11:05:28Z</time>
      </trkpt>
      <trkpt lat="42.8856" lon="0.1095">
        <ele>1726.1</ele>
        <time>2021-03-25T11:05:29Z</time>
      </trkpt>
      <trkpt lat="42.8856" lon="0.1095">
        <ele>1726.2</ele>
        <time>2021-03-25T11:05:30Z</time>
      </trkpt>
      <trkpt lat="42.8856" lon="0.1095">
        <ele>1726.2</ele>
        <time>2021-03-25T11:05:32Z</time>
      </trkpt>
      <trkpt lat="42.8856" lon="0.1095">
        <ele>1726.2</ele>
        <time>2021-03-25T11:05:33Z</time>
      </trkpt>
      <trkpt lat="42.8856" lon="0.1095">
        <ele>1726.3</ele>
        <time>2021-03-25T11:05:35Z</time>
      </trkpt>
      <trkpt lat="42.8856" lon="0.10951">
        <ele>1726.3</ele>
        <time>2021-03-25T11:05:37Z</time>
      </trkpt>
      <trkpt lat="42.8856" lon="0.10952">
        <ele>1726.4</ele>
        <time>2021-03-25T11:05:38Z</time>
      </trkpt>
      <trkpt lat="42.88559" lon="0.10953">
        <ele>1726.4</ele>
        <time>2021-03-25T11:05:39Z</time>
      </trkpt>
      <trkpt lat="42.88559" lon="0.10954">
        <ele>1726.5</ele>
        <time>2021-03-25T11:05:41Z</time>
      </trkpt>
      <trkpt lat="42.88558" lon="0.10955">
        <ele>1726.6</ele>
        <time>2021-03-25T11:05:42Z</time>
      </trkpt>
      <trkpt lat="42.88557" lon="0.10955">
        <ele>1726.7</ele>
        <time>2021-03-25T11:05:43Z</time>
      </trkpt>
      <trkpt lat="42.88556" lon="0.10956">
        <ele>1726.8</ele>
        <time>2021-03-25T11:05:45Z</time>
      </trkpt>
      <trkpt lat="42.88556" lon="0.10957">
        <ele>1726.9</ele>
        <time>2021-03-25T11:05:46Z</time>
      </trkpt>
      <trkpt lat="42.88555" lon="0.10958">
        <ele>1726.9</ele>
        <time>2021-03-25T11:05:47Z</time>
      </trkpt>
      <trkpt lat="42.88554" lon="0.10959">
        <ele>1727</ele>
        <time>2021-03-25T11:05:49Z</time>
      </trkpt>
      <trkpt lat="42.88553" lon="0.10959">
        <ele>1727.1</ele>
        <time>2021-03-25T11:05:50Z</time>
      </trkpt>
      <trkpt lat="42.88551" lon="0.10959">
        <ele>1727.3</ele>
        <time>2021-03-25T11:05:52Z</time>
      </trkpt>
      <trkpt lat="42.8855" lon="0.10958">
        <ele>1727.4</ele>
        <time>2021-03-25T11:05:53Z</time>
      </trkpt>
      <trkpt lat="42.88549" lon="0.10958">
        <ele>1727.5</ele>
        <time>2021-03-25T11:05:55Z</time>
      </trkpt>
      <trkpt lat="42.88548" lon="0.10957">
        <ele>1727.6</ele>
        <time>2021-03-25T11:05:56Z</time>
      </trkpt>
      <trkpt lat="42.88546" lon="0.10956">
        <ele>1727.8</ele>
        <time>2021-03-25T11:05:58Z</time>
      </trkpt>
      <trkpt lat="42.88545" lon="0.10956">
        <ele>1727.9</ele>
        <time>2021-03-25T11:05:59Z</time>
      </trkpt>
      <trkpt lat="42.88544" lon="0.10955">
        <ele>1728</ele>
        <time>2021-03-25T11:06:00Z</time>
      </trkpt>
      <trkpt lat="42.88543" lon="0.10956">
        <ele>1728</ele>
        <time>2021-03-25T11:06:02Z</time>
      </trkpt>
      <trkpt lat="42.88542" lon="0.10956">
        <ele>1728.1</ele>
        <time>2021-03-25T11:06:03Z</time>
      </trkpt>
      <trkpt lat="42.88541" lon="0.10957">
        <ele>1728.3</ele>
        <time>2021-03-25T11:06:05Z</time>
      </trkpt>
      <trkpt lat="42.8854" lon="0.10958">
        <ele>1728.4</ele>
        <time>2021-03-25T11:06:06Z</time>
      </trkpt>
      <trkpt lat="42.88539" lon="0.10959">
        <ele>1728.5</ele>
        <time>2021-03-25T11:06:07Z</time>
      </trkpt>
      <trkpt lat="42.88538" lon="0.1096">
        <ele>1728.6</ele>
        <time>2021-03-25T11:06:08Z</time>
      </trkpt>
      <trkpt lat="42.88538" lon="0.1096">
        <ele>1728.6</ele>
        <time>2021-03-25T11:06:10Z</time>
      </trkpt>
      <trkpt lat="42.88537" lon="0.10961">
        <ele>1728.7</ele>
        <time>2021-03-25T11:06:11Z</time>
      </trkpt>
      <trkpt lat="42.88536" lon="0.10963">
        <ele>1728.9</ele>
        <time>2021-03-25T11:06:12Z</time>
      </trkpt>
      <trkpt lat="42.88535" lon="0.10964">
        <ele>1729</ele>
        <time>2021-03-25T11:06:14Z</time>
      </trkpt>
      <trkpt lat="42.88535" lon="0.10965">
        <ele>1729</ele>
        <time>2021-03-25T11:06:15Z</time>
      </trkpt>
      <trkpt lat="42.88534" lon="0.10966">
        <ele>1729.1</ele>
        <time>2021-03-25T11:06:16Z</time>
      </trkpt>
      <trkpt lat="42.88534" lon="0.10967">
        <ele>1729.2</ele>
        <time>2021-03-25T11:06:17Z</time>
      </trkpt>
      <trkpt lat="42.88534" lon="0.10969">
        <ele>1729.4</ele>
        <time>2021-03-25T11:06:19Z</time>
      </trkpt>
      <trkpt lat="42.88533" lon="0.10971">
        <ele>1729.5</ele>
        <time>2021-03-25T11:06:20Z</time>
      </trkpt>
      <trkpt lat="42.88533" lon="0.10973">
        <ele>1729.6</ele>
        <time>2021-03-25T11:06:21Z</time>
      </trkpt>
      <trkpt lat="42.88532" lon="0.10975">
        <ele>1729.8</ele>
        <time>2021-03-25T11:06:23Z</time>
      </trkpt>
      <trkpt lat="42.88532" lon="0.10977">
        <ele>1729.9</ele>
        <time>2021-03-25T11:06:24Z</time>
      </trkpt>
      <trkpt lat="42.88531" lon="0.10979">
        <ele>1730.1</ele>
        <time>2021-03-25T11:06:26Z</time>
      </trkpt>
      <trkpt lat="42.88531" lon="0.10981">
        <ele>1730.2</ele>
        <time>2021-03-25T11:06:27Z</time>
      </trkpt>
      <trkpt lat="42.8853" lon="0.10983">
        <ele>1730.3</ele>
        <time>2021-03-25T11:06:28Z</time>
      </trkpt>
      <trkpt lat="42.8853" lon="0.10985">
        <ele>1730.5</ele>
        <time>2021-03-25T11:06:30Z</time>
      </trkpt>
      <trkpt lat="42.8853" lon="0.10987">
        <ele>1730.6</ele>
        <time>2021-03-25T11:06:31Z</time>
      </trkpt>
      <trkpt lat="42.88529" lon="0.10988">
        <ele>1730.7</ele>
        <time>2021-03-25T11:06:32Z</time>
      </trkpt>
      <trkpt lat="42.88529" lon="0.1099">
        <ele>1730.8</ele>
        <time>2021-03-25T11:06:34Z</time>
      </trkpt>
      <trkpt lat="42.88528" lon="0.10991">
        <ele>1730.8</ele>
        <time>2021-03-25T11:06:35Z</time>
      </trkpt>
      <trkpt lat="42.88527" lon="0.10992">
        <ele>1731</ele>
        <time>2021-03-25T11:06:37Z</time>
      </trkpt>
      <trkpt lat="42.88526" lon="0.10993">
        <ele>1731.1</ele>
        <time>2021-03-25T11:06:39Z</time>
      </trkpt>
      <trkpt lat="42.88524" lon="0.10994">
        <ele>1731.2</ele>
        <time>2021-03-25T11:06:40Z</time>
      </trkpt>
      <trkpt lat="42.88522" lon="0.10994">
        <ele>1731.3</ele>
        <time>2021-03-25T11:06:41Z</time>
      </trkpt>
      <trkpt lat="42.88521" lon="0.10994">
        <ele>1731.4</ele>
        <time>2021-03-25T11:06:43Z</time>
      </trkpt>
      <trkpt lat="42.88519" lon="0.10994">
        <ele>1731.5</ele>
        <time>2021-03-25T11:06:44Z</time>
      </trkpt>
      <trkpt lat="42.88516" lon="0.10993">
        <ele>1731.7</ele>
        <time>2021-03-25T11:06:46Z</time>
      </trkpt>
      <trkpt lat="42.88515" lon="0.10993">
        <ele>1731.8</ele>
        <time>2021-03-25T11:06:47Z</time>
      </trkpt>
      <trkpt lat="42.88514" lon="0.10993">
        <ele>1731.9</ele>
        <time>2021-03-25T11:06:48Z</time>
      </trkpt>
      <trkpt lat="42.88512" lon="0.10993">
        <ele>1732</ele>
        <time>2021-03-25T11:06:50Z</time>
      </trkpt>
      <trkpt lat="42.88511" lon="0.10994">
        <ele>1732.1</ele>
        <time>2021-03-25T11:06:51Z</time>
      </trkpt>
      <trkpt lat="42.88509" lon="0.10995">
        <ele>1732.1</ele>
        <time>2021-03-25T11:06:53Z</time>
      </trkpt>
      <trkpt lat="42.88508" lon="0.10997">
        <ele>1732.2</ele>
        <time>2021-03-25T11:06:54Z</time>
      </trkpt>
      <trkpt lat="42.88507" lon="0.10999">
        <ele>1732.3</ele>
        <time>2021-03-25T11:06:55Z</time>
      </trkpt>
      <trkpt lat="42.88506" lon="0.11001">
        <ele>1732.4</ele>
        <time>2021-03-25T11:06:57Z</time>
      </trkpt>
      <trkpt lat="42.88506" lon="0.11003">
        <ele>1732.5</ele>
        <time>2021-03-25T11:06:58Z</time>
      </trkpt>
      <trkpt lat="42.88505" lon="0.11005">
        <ele>1732.6</ele>
        <time>2021-03-25T11:07:00Z</time>
      </trkpt>
      <trkpt lat="42.88505" lon="0.11007">
        <ele>1732.7</ele>
        <time>2021-03-25T11:07:01Z</time>
      </trkpt>
      <trkpt lat="42.88504" lon="0.11009">
        <ele>1732.8</ele>
        <time>2021-03-25T11:07:02Z</time>
      </trkpt>
      <trkpt lat="42.88504" lon="0.1101">
        <ele>1732.8</ele>
        <time>2021-03-25T11:07:04Z</time>
      </trkpt>
      <trkpt lat="42.88504" lon="0.11011">
        <ele>1732.9</ele>
        <time>2021-03-25T11:07:05Z</time>
      </trkpt>
      <trkpt lat="42.88503" lon="0.11014">
        <ele>1733</ele>
        <time>2021-03-25T11:07:06Z</time>
      </trkpt>
      <trkpt lat="42.88503" lon="0.11015">
        <ele>1733</ele>
        <time>2021-03-25T11:07:08Z</time>
      </trkpt>
      <trkpt lat="42.88502" lon="0.11016">
        <ele>1733.1</ele>
        <time>2021-03-25T11:07:09Z</time>
      </trkpt>
      <trkpt lat="42.88501" lon="0.11017">
        <ele>1733.1</ele>
        <time>2021-03-25T11:07:11Z</time>
      </trkpt>
      <trkpt lat="42.885" lon="0.11018">
        <ele>1733.2</ele>
        <time>2021-03-25T11:07:12Z</time>
      </trkpt>
      <trkpt lat="42.88499" lon="0.1102">
        <ele>1733.3</ele>
        <time>2021-03-25T11:07:14Z</time>
      </trkpt>
      <trkpt lat="42.88498" lon="0.11021">
        <ele>1733.4</ele>
        <time>2021-03-25T11:07:16Z</time>
      </trkpt>
      <trkpt lat="42.88497" lon="0.11023">
        <ele>1733.4</ele>
        <time>2021-03-25T11:07:17Z</time>
      </trkpt>
      <trkpt lat="42.88497" lon="0.11024">
        <ele>1733.5</ele>
        <time>2021-03-25T11:07:18Z</time>
      </trkpt>
      <trkpt lat="42.88496" lon="0.11025">
        <ele>1733.5</ele>
        <time>2021-03-25T11:07:19Z</time>
      </trkpt>
      <trkpt lat="42.88495" lon="0.11026">
        <ele>1733.6</ele>
        <time>2021-03-25T11:07:21Z</time>
      </trkpt>
      <trkpt lat="42.88494" lon="0.11027">
        <ele>1733.7</ele>
        <time>2021-03-25T11:07:22Z</time>
      </trkpt>
      <trkpt lat="42.88493" lon="0.11028">
        <ele>1733.8</ele>
        <time>2021-03-25T11:07:23Z</time>
      </trkpt>
      <trkpt lat="42.88491" lon="0.11028">
        <ele>1733.9</ele>
        <time>2021-03-25T11:07:25Z</time>
      </trkpt>
      <trkpt lat="42.8849" lon="0.11028">
        <ele>1734</ele>
        <time>2021-03-25T11:07:26Z</time>
      </trkpt>
      <trkpt lat="42.88488" lon="0.11028">
        <ele>1734.1</ele>
        <time>2021-03-25T11:07:28Z</time>
      </trkpt>
      <trkpt lat="42.88487" lon="0.11028">
        <ele>1734.1</ele>
        <time>2021-03-25T11:07:29Z</time>
      </trkpt>
      <trkpt lat="42.88485" lon="0.11029">
        <ele>1734.2</ele>
        <time>2021-03-25T11:07:30Z</time>
      </trkpt>
      <trkpt lat="42.88485" lon="0.1103">
        <ele>1734.3</ele>
        <time>2021-03-25T11:07:31Z</time>
      </trkpt>
      <trkpt lat="42.88484" lon="0.11031">
        <ele>1734.4</ele>
        <time>2021-03-25T11:07:33Z</time>
      </trkpt>
      <trkpt lat="42.88483" lon="0.11033">
        <ele>1734.4</ele>
        <time>2021-03-25T11:07:34Z</time>
      </trkpt>
      <trkpt lat="42.88482" lon="0.11034">
        <ele>1734.5</ele>
        <time>2021-03-25T11:07:36Z</time>
      </trkpt>
      <trkpt lat="42.88481" lon="0.11035">
        <ele>1734.6</ele>
        <time>2021-03-25T11:07:37Z</time>
      </trkpt>
      <trkpt lat="42.8848" lon="0.11036">
        <ele>1734.6</ele>
        <time>2021-03-25T11:07:38Z</time>
      </trkpt>
      <trkpt lat="42.8848" lon="0.11037">
        <ele>1734.7</ele>
        <time>2021-03-25T11:07:40Z</time>
      </trkpt>
      <trkpt lat="42.88479" lon="0.11038">
        <ele>1734.8</ele>
        <time>2021-03-25T11:07:41Z</time>
      </trkpt>
      <trkpt lat="42.88479" lon="0.11038">
        <ele>1734.8</ele>
        <time>2021-03-25T11:07:42Z</time>
      </trkpt>
      <trkpt lat="42.88478" lon="0.11039">
        <ele>1734.9</ele>
        <time>2021-03-25T11:07:44Z</time>
      </trkpt>
      <trkpt lat="42.88477" lon="0.11039">
        <ele>1734.9</ele>
        <time>2021-03-25T11:07:45Z</time>
      </trkpt>
      <trkpt lat="42.88476" lon="0.11039">
        <ele>1734.9</ele>
        <time>2021-03-25T11:07:46Z</time>
      </trkpt>
      <trkpt lat="42.88476" lon="0.1104">
        <ele>1735</ele>
        <time>2021-03-25T11:07:47Z</time>
      </trkpt>
      <trkpt lat="42.88475" lon="0.11041">
        <ele>1735.1</ele>
        <time>2021-03-25T11:07:49Z</time>
      </trkpt>
      <trkpt lat="42.88475" lon="0.11042">
        <ele>1735.1</ele>
        <time>2021-03-25T11:07:50Z</time>
      </trkpt>
      <trkpt lat="42.88475" lon="0.11044">
        <ele>1735.2</ele>
        <time>2021-03-25T11:07:52Z</time>
      </trkpt>
      <trkpt lat="42.88475" lon="0.11046">
        <ele>1735.3</ele>
        <time>2021-03-25T11:07:53Z</time>
      </trkpt>
      <trkpt lat="42.88475" lon="0.11047">
        <ele>1735.3</ele>
        <time>2021-03-25T11:07:54Z</time>
      </trkpt>
      <trkpt lat="42.88475" lon="0.11048">
        <ele>1735.4</ele>
        <time>2021-03-25T11:07:56Z</time>
      </trkpt>
      <trkpt lat="42.88476" lon="0.11049">
        <ele>1735.4</ele>
        <time>2021-03-25T11:07:57Z</time>
      </trkpt>
      <trkpt lat="42.88476" lon="0.1105">
        <ele>1735.4</ele>
        <time>2021-03-25T11:07:58Z</time>
      </trkpt>
      <trkpt lat="42.88477" lon="0.11049">
        <ele>1735.5</ele>
        <time>2021-03-25T11:07:59Z</time>
      </trkpt>
      <trkpt lat="42.88477" lon="0.11049">
        <ele>1735.5</ele>
        <time>2021-03-25T11:08:01Z</time>
      </trkpt>
      <trkpt lat="42.88478" lon="0.11049">
        <ele>1735.5</ele>
        <time>2021-03-25T11:08:02Z</time>
      </trkpt>
      <trkpt lat="42.88478" lon="0.11049">
        <ele>1735.6</ele>
        <time>2021-03-25T11:08:03Z</time>
      </trkpt>
      <trkpt lat="42.88478" lon="0.1105">
        <ele>1735.6</ele>
        <time>2021-03-25T11:08:05Z</time>
      </trkpt>
      <trkpt lat="42.88477" lon="0.11051">
        <ele>1735.6</ele>
        <time>2021-03-25T11:08:06Z</time>
      </trkpt>
      <trkpt lat="42.88477" lon="0.11052">
        <ele>1735.7</ele>
        <time>2021-03-25T11:08:07Z</time>
      </trkpt>
      <trkpt lat="42.88476" lon="0.11054">
        <ele>1735.8</ele>
        <time>2021-03-25T11:08:09Z</time>
      </trkpt>
      <trkpt lat="42.88474" lon="0.11056">
        <ele>1735.9</ele>
        <time>2021-03-25T11:08:10Z</time>
      </trkpt>
      <trkpt lat="42.88473" lon="0.11056">
        <ele>1736</ele>
        <time>2021-03-25T11:08:11Z</time>
      </trkpt>
      <trkpt lat="42.8847" lon="0.11057">
        <ele>1736.1</ele>
        <time>2021-03-25T11:08:13Z</time>
      </trkpt>
      <trkpt lat="42.88469" lon="0.11057">
        <ele>1736.2</ele>
        <time>2021-03-25T11:08:14Z</time>
      </trkpt>
      <trkpt lat="42.88468" lon="0.11057">
        <ele>1736.2</ele>
        <time>2021-03-25T11:08:15Z</time>
      </trkpt>
      <trkpt lat="42.88467" lon="0.11057">
        <ele>1736.3</ele>
        <time>2021-03-25T11:08:16Z</time>
      </trkpt>
      <trkpt lat="42.88465" lon="0.11057">
        <ele>1736.3</ele>
        <time>2021-03-25T11:08:17Z</time>
      </trkpt>
      <trkpt lat="42.88463" lon="0.11057">
        <ele>1736.4</ele>
        <time>2021-03-25T11:08:19Z</time>
      </trkpt>
      <trkpt lat="42.88462" lon="0.11057">
        <ele>1736.5</ele>
        <time>2021-03-25T11:08:20Z</time>
      </trkpt>
      <trkpt lat="42.88461" lon="0.11056">
        <ele>1736.6</ele>
        <time>2021-03-25T11:08:21Z</time>
      </trkpt>
      <trkpt lat="42.88459" lon="0.11057">
        <ele>1736.6</ele>
        <time>2021-03-25T11:08:23Z</time>
      </trkpt>
      <trkpt lat="42.88458" lon="0.11057">
        <ele>1736.7</ele>
        <time>2021-03-25T11:08:24Z</time>
      </trkpt>
      <trkpt lat="42.88458" lon="0.11058">
        <ele>1736.7</ele>
        <time>2021-03-25T11:08:25Z</time>
      </trkpt>
      <trkpt lat="42.88457" lon="0.11063">
        <ele>1736.9</ele>
        <time>2021-03-25T11:08:27Z</time>
      </trkpt>
      <trkpt lat="42.88456" lon="0.11066">
        <ele>1736.9</ele>
        <time>2021-03-25T11:08:28Z</time>
      </trkpt>
      <trkpt lat="42.88455" lon="0.11068">
        <ele>1737</ele>
        <time>2021-03-25T11:08:29Z</time>
      </trkpt>
      <trkpt lat="42.88454" lon="0.11069">
        <ele>1737.1</ele>
        <time>2021-03-25T11:08:30Z</time>
      </trkpt>
      <trkpt lat="42.88454" lon="0.11071">
        <ele>1737.1</ele>
        <time>2021-03-25T11:08:32Z</time>
      </trkpt>
      <trkpt lat="42.88453" lon="0.11073">
        <ele>1737.2</ele>
        <time>2021-03-25T11:08:33Z</time>
      </trkpt>
      <trkpt lat="42.88452" lon="0.11075">
        <ele>1737.3</ele>
        <time>2021-03-25T11:08:35Z</time>
      </trkpt>
      <trkpt lat="42.88452" lon="0.11076">
        <ele>1737.3</ele>
        <time>2021-03-25T11:08:36Z</time>
      </trkpt>
      <trkpt lat="42.88452" lon="0.11078">
        <ele>1737.3</ele>
        <time>2021-03-25T11:08:37Z</time>
      </trkpt>
      <trkpt lat="42.88451" lon="0.11079">
        <ele>1737.4</ele>
        <time>2021-03-25T11:08:39Z</time>
      </trkpt>
      <trkpt lat="42.88451" lon="0.1108">
        <ele>1737.4</ele>
        <time>2021-03-25T11:08:40Z</time>
      </trkpt>
      <trkpt lat="42.8845" lon="0.11081">
        <ele>1737.5</ele>
        <time>2021-03-25T11:08:41Z</time>
      </trkpt>
      <trkpt lat="42.8845" lon="0.11082">
        <ele>1737.5</ele>
        <time>2021-03-25T11:08:42Z</time>
      </trkpt>
      <trkpt lat="42.88449" lon="0.11083">
        <ele>1737.6</ele>
        <time>2021-03-25T11:08:44Z</time>
      </trkpt>
      <trkpt lat="42.88448" lon="0.11082">
        <ele>1737.6</ele>
        <time>2021-03-25T11:08:45Z</time>
      </trkpt>
      <trkpt lat="42.88447" lon="0.11082">
        <ele>1737.6</ele>
        <time>2021-03-25T11:08:46Z</time>
      </trkpt>
      <trkpt lat="42.88447" lon="0.11083">
        <ele>1737.7</ele>
        <time>2021-03-25T11:08:47Z</time>
      </trkpt>
      <trkpt lat="42.88446" lon="0.11084">
        <ele>1737.7</ele>
        <time>2021-03-25T11:08:49Z</time>
      </trkpt>
      <trkpt lat="42.88445" lon="0.11086">
        <ele>1737.8</ele>
        <time>2021-03-25T11:08:50Z</time>
      </trkpt>
      <trkpt lat="42.88444" lon="0.11087">
        <ele>1737.8</ele>
        <time>2021-03-25T11:08:51Z</time>
      </trkpt>
      <trkpt lat="42.88444" lon="0.11089">
        <ele>1737.9</ele>
        <time>2021-03-25T11:08:53Z</time>
      </trkpt>
      <trkpt lat="42.88443" lon="0.11091">
        <ele>1737.9</ele>
        <time>2021-03-25T11:08:54Z</time>
      </trkpt>
      <trkpt lat="42.88443" lon="0.11092">
        <ele>1738</ele>
        <time>2021-03-25T11:08:55Z</time>
      </trkpt>
      <trkpt lat="42.88443" lon="0.11094">
        <ele>1738</ele>
        <time>2021-03-25T11:08:56Z</time>
      </trkpt>
      <trkpt lat="42.88443" lon="0.11097">
        <ele>1738.1</ele>
        <time>2021-03-25T11:08:58Z</time>
      </trkpt>
      <trkpt lat="42.88443" lon="0.11099">
        <ele>1738.2</ele>
        <time>2021-03-25T11:08:59Z</time>
      </trkpt>
      <trkpt lat="42.88443" lon="0.111">
        <ele>1738.2</ele>
        <time>2021-03-25T11:09:00Z</time>
      </trkpt>
      <trkpt lat="42.88443" lon="0.11102">
        <ele>1738.3</ele>
        <time>2021-03-25T11:09:02Z</time>
      </trkpt>
      <trkpt lat="42.88442" lon="0.11104">
        <ele>1738.3</ele>
        <time>2021-03-25T11:09:03Z</time>
      </trkpt>
      <trkpt lat="42.88441" lon="0.11105">
        <ele>1738.4</ele>
        <time>2021-03-25T11:09:04Z</time>
      </trkpt>
      <trkpt lat="42.88441" lon="0.11106">
        <ele>1738.4</ele>
        <time>2021-03-25T11:09:05Z</time>
      </trkpt>
      <trkpt lat="42.8844" lon="0.11108">
        <ele>1738.5</ele>
        <time>2021-03-25T11:09:07Z</time>
      </trkpt>
      <trkpt lat="42.88438" lon="0.11108">
        <ele>1738.5</ele>
        <time>2021-03-25T11:09:08Z</time>
      </trkpt>
      <trkpt lat="42.88436" lon="0.11109">
        <ele>1738.7</ele>
        <time>2021-03-25T11:09:10Z</time>
      </trkpt>
      <trkpt lat="42.88435" lon="0.11109">
        <ele>1738.7</ele>
        <time>2021-03-25T11:09:11Z</time>
      </trkpt>
      <trkpt lat="42.88433" lon="0.1111">
        <ele>1738.8</ele>
        <time>2021-03-25T11:09:12Z</time>
      </trkpt>
      <trkpt lat="42.88431" lon="0.1111">
        <ele>1738.8</ele>
        <time>2021-03-25T11:09:13Z</time>
      </trkpt>
      <trkpt lat="42.88429" lon="0.1111">
        <ele>1738.9</ele>
        <time>2021-03-25T11:09:15Z</time>
      </trkpt>
      <trkpt lat="42.88428" lon="0.11111">
        <ele>1739</ele>
        <time>2021-03-25T11:09:16Z</time>
      </trkpt>
      <trkpt lat="42.88426" lon="0.11111">
        <ele>1739.1</ele>
        <time>2021-03-25T11:09:17Z</time>
      </trkpt>
      <trkpt lat="42.88425" lon="0.11112">
        <ele>1739.1</ele>
        <time>2021-03-25T11:09:18Z</time>
      </trkpt>
      <trkpt lat="42.88424" lon="0.11113">
        <ele>1739.2</ele>
        <time>2021-03-25T11:09:19Z</time>
      </trkpt>
      <trkpt lat="42.88423" lon="0.11114">
        <ele>1739.2</ele>
        <time>2021-03-25T11:09:20Z</time>
      </trkpt>
      <trkpt lat="42.88422" lon="0.11114">
        <ele>1739.3</ele>
        <time>2021-03-25T11:09:22Z</time>
      </trkpt>
      <trkpt lat="42.8842" lon="0.11116">
        <ele>1739.4</ele>
        <time>2021-03-25T11:09:23Z</time>
      </trkpt>
      <trkpt lat="42.88419" lon="0.11117">
        <ele>1739.4</ele>
        <time>2021-03-25T11:09:24Z</time>
      </trkpt>
      <trkpt lat="42.88418" lon="0.11117">
        <ele>1739.4</ele>
        <time>2021-03-25T11:09:25Z</time>
      </trkpt>
      <trkpt lat="42.88417" lon="0.11119">
        <ele>1739.5</ele>
        <time>2021-03-25T11:09:27Z</time>
      </trkpt>
      <trkpt lat="42.88417" lon="0.11121">
        <ele>1739.6</ele>
        <time>2021-03-25T11:09:28Z</time>
      </trkpt>
      <trkpt lat="42.88415" lon="0.11124">
        <ele>1739.7</ele>
        <time>2021-03-25T11:09:29Z</time>
      </trkpt>
      <trkpt lat="42.88415" lon="0.11125">
        <ele>1739.7</ele>
        <time>2021-03-25T11:09:31Z</time>
      </trkpt>
      <trkpt lat="42.88414" lon="0.11125">
        <ele>1739.7</ele>
        <time>2021-03-25T11:09:32Z</time>
      </trkpt>
      <trkpt lat="42.88413" lon="0.11126">
        <ele>1739.8</ele>
        <time>2021-03-25T11:09:33Z</time>
      </trkpt>
      <trkpt lat="42.88412" lon="0.11127">
        <ele>1739.8</ele>
        <time>2021-03-25T11:09:34Z</time>
      </trkpt>
      <trkpt lat="42.8841" lon="0.11128">
        <ele>1739.9</ele>
        <time>2021-03-25T11:09:35Z</time>
      </trkpt>
      <trkpt lat="42.88409" lon="0.11129">
        <ele>1740</ele>
        <time>2021-03-25T11:09:37Z</time>
      </trkpt>
      <trkpt lat="42.88408" lon="0.11129">
        <ele>1740</ele>
        <time>2021-03-25T11:09:38Z</time>
      </trkpt>
      <trkpt lat="42.88407" lon="0.1113">
        <ele>1740.1</ele>
        <time>2021-03-25T11:09:39Z</time>
      </trkpt>
      <trkpt lat="42.88406" lon="0.1113">
        <ele>1740.1</ele>
        <time>2021-03-25T11:09:40Z</time>
      </trkpt>
      <trkpt lat="42.88405" lon="0.11132">
        <ele>1740.2</ele>
        <time>2021-03-25T11:09:42Z</time>
      </trkpt>
      <trkpt lat="42.88404" lon="0.11133">
        <ele>1740.3</ele>
        <time>2021-03-25T11:09:43Z</time>
      </trkpt>
      <trkpt lat="42.88403" lon="0.11135">
        <ele>1740.3</ele>
        <time>2021-03-25T11:09:44Z</time>
      </trkpt>
      <trkpt lat="42.88403" lon="0.11137">
        <ele>1740.4</ele>
        <time>2021-03-25T11:09:45Z</time>
      </trkpt>
      <trkpt lat="42.88402" lon="0.11139">
        <ele>1740.5</ele>
        <time>2021-03-25T11:09:47Z</time>
      </trkpt>
      <trkpt lat="42.88402" lon="0.1114">
        <ele>1740.5</ele>
        <time>2021-03-25T11:09:48Z</time>
      </trkpt>
      <trkpt lat="42.88401" lon="0.11141">
        <ele>1740.6</ele>
        <time>2021-03-25T11:09:49Z</time>
      </trkpt>
      <trkpt lat="42.884" lon="0.11144">
        <ele>1740.7</ele>
        <time>2021-03-25T11:09:51Z</time>
      </trkpt>
      <trkpt lat="42.88399" lon="0.11145">
        <ele>1740.7</ele>
        <time>2021-03-25T11:09:52Z</time>
      </trkpt>
      <trkpt lat="42.88399" lon="0.11146">
        <ele>1740.8</ele>
        <time>2021-03-25T11:09:53Z</time>
      </trkpt>
      <trkpt lat="42.88399" lon="0.11148">
        <ele>1740.9</ele>
        <time>2021-03-25T11:09:55Z</time>
      </trkpt>
      <trkpt lat="42.88398" lon="0.11151">
        <ele>1740.9</ele>
        <time>2021-03-25T11:09:56Z</time>
      </trkpt>
      <trkpt lat="42.88398" lon="0.11152">
        <ele>1741</ele>
        <time>2021-03-25T11:09:57Z</time>
      </trkpt>
      <trkpt lat="42.88397" lon="0.11154">
        <ele>1741.1</ele>
        <time>2021-03-25T11:09:59Z</time>
      </trkpt>
      <trkpt lat="42.88396" lon="0.11156">
        <ele>1741.1</ele>
        <time>2021-03-25T11:10:00Z</time>
      </trkpt>
      <trkpt lat="42.88395" lon="0.11157">
        <ele>1741.2</ele>
        <time>2021-03-25T11:10:02Z</time>
      </trkpt>
      <trkpt lat="42.88394" lon="0.11159">
        <ele>1741.3</ele>
        <time>2021-03-25T11:10:03Z</time>
      </trkpt>
      <trkpt lat="42.88393" lon="0.11159">
        <ele>1741.3</ele>
        <time>2021-03-25T11:10:04Z</time>
      </trkpt>
      <trkpt lat="42.88393" lon="0.1116">
        <ele>1741.3</ele>
        <time>2021-03-25T11:10:05Z</time>
      </trkpt>
      <trkpt lat="42.88392" lon="0.11161">
        <ele>1741.4</ele>
        <time>2021-03-25T11:10:06Z</time>
      </trkpt>
      <trkpt lat="42.88391" lon="0.11162">
        <ele>1741.5</ele>
        <time>2021-03-25T11:10:08Z</time>
      </trkpt>
      <trkpt lat="42.8839" lon="0.11164">
        <ele>1741.5</ele>
        <time>2021-03-25T11:10:09Z</time>
      </trkpt>
      <trkpt lat="42.8839" lon="0.11166">
        <ele>1741.6</ele>
        <time>2021-03-25T11:10:11Z</time>
      </trkpt>
      <trkpt lat="42.8839" lon="0.11167">
        <ele>1741.6</ele>
        <time>2021-03-25T11:10:13Z</time>
      </trkpt>
      <trkpt lat="42.88391" lon="0.11168">
        <ele>1741.7</ele>
        <time>2021-03-25T11:10:14Z</time>
      </trkpt>
      <trkpt lat="42.8839" lon="0.1117">
        <ele>1741.7</ele>
        <time>2021-03-25T11:10:15Z</time>
      </trkpt>
      <trkpt lat="42.8839" lon="0.11171">
        <ele>1741.7</ele>
        <time>2021-03-25T11:10:16Z</time>
      </trkpt>
      <trkpt lat="42.8839" lon="0.11172">
        <ele>1741.8</ele>
        <time>2021-03-25T11:10:17Z</time>
      </trkpt>
      <trkpt lat="42.88389" lon="0.11172">
        <ele>1741.8</ele>
        <time>2021-03-25T11:10:19Z</time>
      </trkpt>
      <trkpt lat="42.88388" lon="0.11174">
        <ele>1741.8</ele>
        <time>2021-03-25T11:10:20Z</time>
      </trkpt>
      <trkpt lat="42.88387" lon="0.11175">
        <ele>1741.9</ele>
        <time>2021-03-25T11:10:21Z</time>
      </trkpt>
      <trkpt lat="42.88386" lon="0.11177">
        <ele>1742</ele>
        <time>2021-03-25T11:10:23Z</time>
      </trkpt>
      <trkpt lat="42.88382" lon="0.11178">
        <ele>1742.1</ele>
        <time>2021-03-25T11:10:25Z</time>
      </trkpt>
      <trkpt lat="42.88379" lon="0.11178">
        <ele>1742.1</ele>
        <time>2021-03-25T11:10:26Z</time>
      </trkpt>
      <trkpt lat="42.88378" lon="0.11178">
        <ele>1742.2</ele>
        <time>2021-03-25T11:10:27Z</time>
      </trkpt>
      <trkpt lat="42.88377" lon="0.11178">
        <ele>1742.3</ele>
        <time>2021-03-25T11:10:29Z</time>
      </trkpt>
      <trkpt lat="42.88375" lon="0.11178">
        <ele>1742.4</ele>
        <time>2021-03-25T11:10:30Z</time>
      </trkpt>
      <trkpt lat="42.88373" lon="0.11176">
        <ele>1742.5</ele>
        <time>2021-03-25T11:10:31Z</time>
      </trkpt>
      <trkpt lat="42.88372" lon="0.11176">
        <ele>1742.6</ele>
        <time>2021-03-25T11:10:33Z</time>
      </trkpt>
      <trkpt lat="42.88371" lon="0.11175">
        <ele>1742.6</ele>
        <time>2021-03-25T11:10:34Z</time>
      </trkpt>
      <trkpt lat="42.8837" lon="0.11175">
        <ele>1742.7</ele>
        <time>2021-03-25T11:10:35Z</time>
      </trkpt>
      <trkpt lat="42.88369" lon="0.11174">
        <ele>1742.8</ele>
        <time>2021-03-25T11:10:36Z</time>
      </trkpt>
      <trkpt lat="42.88367" lon="0.11173">
        <ele>1742.9</ele>
        <time>2021-03-25T11:10:38Z</time>
      </trkpt>
      <trkpt lat="42.88367" lon="0.11173">
        <ele>1742.9</ele>
        <time>2021-03-25T11:10:39Z</time>
      </trkpt>
      <trkpt lat="42.88365" lon="0.11173">
        <ele>1743</ele>
        <time>2021-03-25T11:10:41Z</time>
      </trkpt>
      <trkpt lat="42.88365" lon="0.11173">
        <ele>1743</ele>
        <time>2021-03-25T11:10:42Z</time>
      </trkpt>
      <trkpt lat="42.88364" lon="0.11173">
        <ele>1743.1</ele>
        <time>2021-03-25T11:10:44Z</time>
      </trkpt>
      <trkpt lat="42.88363" lon="0.11174">
        <ele>1743.2</ele>
        <time>2021-03-25T11:10:46Z</time>
      </trkpt>
      <trkpt lat="42.88362" lon="0.11174">
        <ele>1743.3</ele>
        <time>2021-03-25T11:10:47Z</time>
      </trkpt>
      <trkpt lat="42.88361" lon="0.11175">
        <ele>1743.4</ele>
        <time>2021-03-25T11:10:48Z</time>
      </trkpt>
      <trkpt lat="42.8836" lon="0.11176">
        <ele>1743.4</ele>
        <time>2021-03-25T11:10:49Z</time>
      </trkpt>
      <trkpt lat="42.88359" lon="0.11176">
        <ele>1743.5</ele>
        <time>2021-03-25T11:10:50Z</time>
      </trkpt>
      <trkpt lat="42.88358" lon="0.11177">
        <ele>1743.6</ele>
        <time>2021-03-25T11:10:52Z</time>
      </trkpt>
      <trkpt lat="42.88357" lon="0.11177">
        <ele>1743.7</ele>
        <time>2021-03-25T11:10:53Z</time>
      </trkpt>
      <trkpt lat="42.88355" lon="0.11178">
        <ele>1743.8</ele>
        <time>2021-03-25T11:10:54Z</time>
      </trkpt>
      <trkpt lat="42.88354" lon="0.11178">
        <ele>1743.9</ele>
        <time>2021-03-25T11:10:55Z</time>
      </trkpt>
      <trkpt lat="42.88352" lon="0.11178">
        <ele>1744.1</ele>
        <time>2021-03-25T11:10:57Z</time>
      </trkpt>
      <trkpt lat="42.8835" lon="0.11178">
        <ele>1744.3</ele>
        <time>2021-03-25T11:10:59Z</time>
      </trkpt>
      <trkpt lat="42.88348" lon="0.11176">
        <ele>1744.6</ele>
        <time>2021-03-25T11:11:01Z</time>
      </trkpt>
      <trkpt lat="42.88346" lon="0.11175">
        <ele>1744.8</ele>
        <time>2021-03-25T11:11:02Z</time>
      </trkpt>
      <trkpt lat="42.88344" lon="0.11175">
        <ele>1744.9</ele>
        <time>2021-03-25T11:11:03Z</time>
      </trkpt>
      <trkpt lat="42.88343" lon="0.11174">
        <ele>1745</ele>
        <time>2021-03-25T11:11:05Z</time>
      </trkpt>
      <trkpt lat="42.88341" lon="0.11175">
        <ele>1745.2</ele>
        <time>2021-03-25T11:11:06Z</time>
      </trkpt>
      <trkpt lat="42.88341" lon="0.11175">
        <ele>1745.3</ele>
        <time>2021-03-25T11:11:07Z</time>
      </trkpt>
      <trkpt lat="42.8834" lon="0.11173">
        <ele>1745.4</ele>
        <time>2021-03-25T11:11:08Z</time>
      </trkpt>
      <trkpt lat="42.88339" lon="0.11172">
        <ele>1745.5</ele>
        <time>2021-03-25T11:11:09Z</time>
      </trkpt>
      <trkpt lat="42.88338" lon="0.11171">
        <ele>1745.6</ele>
        <time>2021-03-25T11:11:11Z</time>
      </trkpt>
      <trkpt lat="42.88337" lon="0.11171">
        <ele>1745.8</ele>
        <time>2021-03-25T11:11:12Z</time>
      </trkpt>
      <trkpt lat="42.88335" lon="0.11171">
        <ele>1745.9</ele>
        <time>2021-03-25T11:11:13Z</time>
      </trkpt>
      <trkpt lat="42.88334" lon="0.1117">
        <ele>1746.1</ele>
        <time>2021-03-25T11:11:15Z</time>
      </trkpt>
      <trkpt lat="42.88332" lon="0.11171">
        <ele>1746.2</ele>
        <time>2021-03-25T11:11:17Z</time>
      </trkpt>
      <trkpt lat="42.88331" lon="0.11171">
        <ele>1746.3</ele>
        <time>2021-03-25T11:11:18Z</time>
      </trkpt>
      <trkpt lat="42.8833" lon="0.11173">
        <ele>1746.5</ele>
        <time>2021-03-25T11:11:19Z</time>
      </trkpt>
      <trkpt lat="42.88329" lon="0.11175">
        <ele>1746.7</ele>
        <time>2021-03-25T11:11:20Z</time>
      </trkpt>
      <trkpt lat="42.88329" lon="0.11176">
        <ele>1746.8</ele>
        <time>2021-03-25T11:11:21Z</time>
      </trkpt>
      <trkpt lat="42.88328" lon="0.11177">
        <ele>1746.8</ele>
        <time>2021-03-25T11:11:22Z</time>
      </trkpt>
      <trkpt lat="42.88327" lon="0.1118">
        <ele>1747.1</ele>
        <time>2021-03-25T11:11:24Z</time>
      </trkpt>
      <trkpt lat="42.88327" lon="0.11181">
        <ele>1747.2</ele>
        <time>2021-03-25T11:11:25Z</time>
      </trkpt>
      <trkpt lat="42.88325" lon="0.11184">
        <ele>1747.4</ele>
        <time>2021-03-25T11:11:27Z</time>
      </trkpt>
      <trkpt lat="42.88325" lon="0.11185">
        <ele>1747.6</ele>
        <time>2021-03-25T11:11:28Z</time>
      </trkpt>
      <trkpt lat="42.88323" lon="0.11187">
        <ele>1747.8</ele>
        <time>2021-03-25T11:11:29Z</time>
      </trkpt>
      <trkpt lat="42.88323" lon="0.11188">
        <ele>1747.8</ele>
        <time>2021-03-25T11:11:30Z</time>
      </trkpt>
      <trkpt lat="42.88322" lon="0.11189">
        <ele>1747.9</ele>
        <time>2021-03-25T11:11:31Z</time>
      </trkpt>
      <trkpt lat="42.88322" lon="0.11192">
        <ele>1748.1</ele>
        <time>2021-03-25T11:11:33Z</time>
      </trkpt>
      <trkpt lat="42.88323" lon="0.11194">
        <ele>1748.3</ele>
        <time>2021-03-25T11:11:34Z</time>
      </trkpt>
      <trkpt lat="42.88324" lon="0.11195">
        <ele>1748.4</ele>
        <time>2021-03-25T11:11:35Z</time>
      </trkpt>
      <trkpt lat="42.88323" lon="0.11197">
        <ele>1748.5</ele>
        <time>2021-03-25T11:11:36Z</time>
      </trkpt>
      <trkpt lat="42.88322" lon="0.11198">
        <ele>1748.6</ele>
        <time>2021-03-25T11:11:38Z</time>
      </trkpt>
      <trkpt lat="42.88321" lon="0.11199">
        <ele>1748.7</ele>
        <time>2021-03-25T11:11:39Z</time>
      </trkpt>
      <trkpt lat="42.88319" lon="0.112">
        <ele>1748.9</ele>
        <time>2021-03-25T11:11:40Z</time>
      </trkpt>
      <trkpt lat="42.88318" lon="0.112">
        <ele>1749</ele>
        <time>2021-03-25T11:11:42Z</time>
      </trkpt>
      <trkpt lat="42.88317" lon="0.11201">
        <ele>1749.1</ele>
        <time>2021-03-25T11:11:43Z</time>
      </trkpt>
      <trkpt lat="42.88315" lon="0.11201">
        <ele>1749.3</ele>
        <time>2021-03-25T11:11:44Z</time>
      </trkpt>
      <trkpt lat="42.88313" lon="0.11202">
        <ele>1749.5</ele>
        <time>2021-03-25T11:11:46Z</time>
      </trkpt>
      <trkpt lat="42.88312" lon="0.11203">
        <ele>1749.8</ele>
        <time>2021-03-25T11:11:47Z</time>
      </trkpt>
      <trkpt lat="42.8831" lon="0.11203">
        <ele>1749.9</ele>
        <time>2021-03-25T11:11:48Z</time>
      </trkpt>
      <trkpt lat="42.88308" lon="0.11204">
        <ele>1750.1</ele>
        <time>2021-03-25T11:11:49Z</time>
      </trkpt>
      <trkpt lat="42.88306" lon="0.11204">
        <ele>1750.2</ele>
        <time>2021-03-25T11:11:51Z</time>
      </trkpt>
      <trkpt lat="42.88305" lon="0.11204">
        <ele>1750.3</ele>
        <time>2021-03-25T11:11:52Z</time>
      </trkpt>
      <trkpt lat="42.88303" lon="0.11205">
        <ele>1750.4</ele>
        <time>2021-03-25T11:11:53Z</time>
      </trkpt>
      <trkpt lat="42.88302" lon="0.11205">
        <ele>1750.5</ele>
        <time>2021-03-25T11:11:54Z</time>
      </trkpt>
      <trkpt lat="42.88301" lon="0.11206">
        <ele>1750.5</ele>
        <time>2021-03-25T11:11:55Z</time>
      </trkpt>
      <trkpt lat="42.88299" lon="0.11205">
        <ele>1750.6</ele>
        <time>2021-03-25T11:11:57Z</time>
      </trkpt>
      <trkpt lat="42.88298" lon="0.11205">
        <ele>1750.7</ele>
        <time>2021-03-25T11:11:58Z</time>
      </trkpt>
      <trkpt lat="42.88296" lon="0.11204">
        <ele>1750.8</ele>
        <time>2021-03-25T11:11:59Z</time>
      </trkpt>
      <trkpt lat="42.88295" lon="0.11203">
        <ele>1750.8</ele>
        <time>2021-03-25T11:12:01Z</time>
      </trkpt>
      <trkpt lat="42.88294" lon="0.11203">
        <ele>1750.9</ele>
        <time>2021-03-25T11:12:02Z</time>
      </trkpt>
      <trkpt lat="42.88293" lon="0.11201">
        <ele>1751</ele>
        <time>2021-03-25T11:12:04Z</time>
      </trkpt>
      <trkpt lat="42.88292" lon="0.112">
        <ele>1751</ele>
        <time>2021-03-25T11:12:05Z</time>
      </trkpt>
      <trkpt lat="42.88291" lon="0.11199">
        <ele>1751.1</ele>
        <time>2021-03-25T11:12:06Z</time>
      </trkpt>
      <trkpt lat="42.8829" lon="0.11197">
        <ele>1751.2</ele>
        <time>2021-03-25T11:12:08Z</time>
      </trkpt>
      <trkpt lat="42.88289" lon="0.11197">
        <ele>1751.3</ele>
        <time>2021-03-25T11:12:09Z</time>
      </trkpt>
      <trkpt lat="42.88287" lon="0.11197">
        <ele>1751.4</ele>
        <time>2021-03-25T11:12:11Z</time>
      </trkpt>
      <trkpt lat="42.88286" lon="0.11198">
        <ele>1751.4</ele>
        <time>2021-03-25T11:12:12Z</time>
      </trkpt>
      <trkpt lat="42.88284" lon="0.112">
        <ele>1751.6</ele>
        <time>2021-03-25T11:12:14Z</time>
      </trkpt>
      <trkpt lat="42.88284" lon="0.11201">
        <ele>1751.6</ele>
        <time>2021-03-25T11:12:15Z</time>
      </trkpt>
      <trkpt lat="42.88283" lon="0.11203">
        <ele>1751.7</ele>
        <time>2021-03-25T11:12:16Z</time>
      </trkpt>
      <trkpt lat="42.88284" lon="0.11207">
        <ele>1751.9</ele>
        <time>2021-03-25T11:12:18Z</time>
      </trkpt>
      <trkpt lat="42.88285" lon="0.1121">
        <ele>1752</ele>
        <time>2021-03-25T11:12:19Z</time>
      </trkpt>
      <trkpt lat="42.88285" lon="0.11213">
        <ele>1752.1</ele>
        <time>2021-03-25T11:12:21Z</time>
      </trkpt>
      <trkpt lat="42.88287" lon="0.11217">
        <ele>1752.3</ele>
        <time>2021-03-25T11:12:22Z</time>
      </trkpt>
      <trkpt lat="42.88287" lon="0.11218">
        <ele>1752.4</ele>
        <time>2021-03-25T11:12:23Z</time>
      </trkpt>
      <trkpt lat="42.88289" lon="0.11222">
        <ele>1752.6</ele>
        <time>2021-03-25T11:12:25Z</time>
      </trkpt>
      <trkpt lat="42.8829" lon="0.11223">
        <ele>1752.7</ele>
        <time>2021-03-25T11:12:26Z</time>
      </trkpt>
      <trkpt lat="42.88289" lon="0.11226">
        <ele>1752.8</ele>
        <time>2021-03-25T11:12:27Z</time>
      </trkpt>
      <trkpt lat="42.88289" lon="0.11228">
        <ele>1752.9</ele>
        <time>2021-03-25T11:12:28Z</time>
      </trkpt>
      <trkpt lat="42.88286" lon="0.1123">
        <ele>1753.1</ele>
        <time>2021-03-25T11:12:30Z</time>
      </trkpt>
      <trkpt lat="42.88285" lon="0.11231">
        <ele>1753.2</ele>
        <time>2021-03-25T11:12:31Z</time>
      </trkpt>
      <trkpt lat="42.88284" lon="0.11232">
        <ele>1753.3</ele>
        <time>2021-03-25T11:12:33Z</time>
      </trkpt>
      <trkpt lat="42.88283" lon="0.11233">
        <ele>1753.4</ele>
        <time>2021-03-25T11:12:34Z</time>
      </trkpt>
      <trkpt lat="42.88284" lon="0.11235">
        <ele>1753.4</ele>
        <time>2021-03-25T11:12:36Z</time>
      </trkpt>
      <trkpt lat="42.88285" lon="0.11237">
        <ele>1753.5</ele>
        <time>2021-03-25T11:12:37Z</time>
      </trkpt>
      <trkpt lat="42.88287" lon="0.11239">
        <ele>1753.7</ele>
        <time>2021-03-25T11:12:38Z</time>
      </trkpt>
      <trkpt lat="42.88288" lon="0.1124">
        <ele>1753.8</ele>
        <time>2021-03-25T11:12:39Z</time>
      </trkpt>
      <trkpt lat="42.88291" lon="0.11243">
        <ele>1754.1</ele>
        <time>2021-03-25T11:12:41Z</time>
      </trkpt>
      <trkpt lat="42.88291" lon="0.11244">
        <ele>1754.2</ele>
        <time>2021-03-25T11:12:42Z</time>
      </trkpt>
      <trkpt lat="42.88293" lon="0.11245">
        <ele>1754.3</ele>
        <time>2021-03-25T11:12:43Z</time>
      </trkpt>
      <trkpt lat="42.88295" lon="0.11245">
        <ele>1754.5</ele>
        <time>2021-03-25T11:12:45Z</time>
      </trkpt>
      <trkpt lat="42.88297" lon="0.11246">
        <ele>1754.6</ele>
        <time>2021-03-25T11:12:46Z</time>
      </trkpt>
      <trkpt lat="42.88298" lon="0.11246">
        <ele>1754.7</ele>
        <time>2021-03-25T11:12:47Z</time>
      </trkpt>
      <trkpt lat="42.88298" lon="0.11249">
        <ele>1754.9</ele>
        <time>2021-03-25T11:12:49Z</time>
      </trkpt>
      <trkpt lat="42.88298" lon="0.1125">
        <ele>1755</ele>
        <time>2021-03-25T11:12:50Z</time>
      </trkpt>
      <trkpt lat="42.88298" lon="0.11252">
        <ele>1755.1</ele>
        <time>2021-03-25T11:12:51Z</time>
      </trkpt>
      <trkpt lat="42.88296" lon="0.11254">
        <ele>1755.3</ele>
        <time>2021-03-25T11:12:52Z</time>
      </trkpt>
      <trkpt lat="42.88295" lon="0.11256">
        <ele>1755.5</ele>
        <time>2021-03-25T11:12:54Z</time>
      </trkpt>
      <trkpt lat="42.88294" lon="0.11259">
        <ele>1755.8</ele>
        <time>2021-03-25T11:12:56Z</time>
      </trkpt>
      <trkpt lat="42.88293" lon="0.1126">
        <ele>1755.9</ele>
        <time>2021-03-25T11:12:57Z</time>
      </trkpt>
      <trkpt lat="42.88292" lon="0.11262">
        <ele>1756.1</ele>
        <time>2021-03-25T11:12:59Z</time>
      </trkpt>
      <trkpt lat="42.88292" lon="0.11264">
        <ele>1756.3</ele>
        <time>2021-03-25T11:13:00Z</time>
      </trkpt>
      <trkpt lat="42.88291" lon="0.11265">
        <ele>1756.4</ele>
        <time>2021-03-25T11:13:01Z</time>
      </trkpt>
      <trkpt lat="42.88291" lon="0.11266">
        <ele>1756.5</ele>
        <time>2021-03-25T11:13:02Z</time>
      </trkpt>
      <trkpt lat="42.88291" lon="0.11268">
        <ele>1756.7</ele>
        <time>2021-03-25T11:13:04Z</time>
      </trkpt>
      <trkpt lat="42.8829" lon="0.1127">
        <ele>1756.7</ele>
        <time>2021-03-25T11:13:05Z</time>
      </trkpt>
      <trkpt lat="42.8829" lon="0.11271">
        <ele>1756.9</ele>
        <time>2021-03-25T11:13:06Z</time>
      </trkpt>
      <trkpt lat="42.88289" lon="0.11273">
        <ele>1757</ele>
        <time>2021-03-25T11:13:08Z</time>
      </trkpt>
      <trkpt lat="42.88289" lon="0.11274">
        <ele>1757.2</ele>
        <time>2021-03-25T11:13:09Z</time>
      </trkpt>
      <trkpt lat="42.88288" lon="0.11276">
        <ele>1757.3</ele>
        <time>2021-03-25T11:13:10Z</time>
      </trkpt>
      <trkpt lat="42.88287" lon="0.11277">
        <ele>1757.4</ele>
        <time>2021-03-25T11:13:12Z</time>
      </trkpt>
      <trkpt lat="42.88286" lon="0.11278">
        <ele>1757.5</ele>
        <time>2021-03-25T11:13:13Z</time>
      </trkpt>
      <trkpt lat="42.88286" lon="0.11279">
        <ele>1757.7</ele>
        <time>2021-03-25T11:13:14Z</time>
      </trkpt>
      <trkpt lat="42.88285" lon="0.11279">
        <ele>1757.8</ele>
        <time>2021-03-25T11:13:15Z</time>
      </trkpt>
      <trkpt lat="42.88283" lon="0.1128">
        <ele>1758</ele>
        <time>2021-03-25T11:13:17Z</time>
      </trkpt>
      <trkpt lat="42.88283" lon="0.1128">
        <ele>1758</ele>
        <time>2021-03-25T11:13:18Z</time>
      </trkpt>
      <trkpt lat="42.88282" lon="0.11281">
        <ele>1758.1</ele>
        <time>2021-03-25T11:13:19Z</time>
      </trkpt>
      <trkpt lat="42.88282" lon="0.11283">
        <ele>1758.2</ele>
        <time>2021-03-25T11:13:21Z</time>
      </trkpt>
      <trkpt lat="42.88281" lon="0.11285">
        <ele>1758.4</ele>
        <time>2021-03-25T11:13:22Z</time>
      </trkpt>
      <trkpt lat="42.88281" lon="0.11286">
        <ele>1758.4</ele>
        <time>2021-03-25T11:13:23Z</time>
      </trkpt>
      <trkpt lat="42.88281" lon="0.11286">
        <ele>1758.5</ele>
        <time>2021-03-25T11:13:24Z</time>
      </trkpt>
      <trkpt lat="42.8828" lon="0.11288">
        <ele>1758.6</ele>
        <time>2021-03-25T11:13:26Z</time>
      </trkpt>
      <trkpt lat="42.88279" lon="0.11289">
        <ele>1758.8</ele>
        <time>2021-03-25T11:13:27Z</time>
      </trkpt>
      <trkpt lat="42.88279" lon="0.1129">
        <ele>1758.9</ele>
        <time>2021-03-25T11:13:28Z</time>
      </trkpt>
      <trkpt lat="42.88278" lon="0.11291">
        <ele>1758.9</ele>
        <time>2021-03-25T11:13:29Z</time>
      </trkpt>
      <trkpt lat="42.88278" lon="0.11292">
        <ele>1759.1</ele>
        <time>2021-03-25T11:13:31Z</time>
      </trkpt>
      <trkpt lat="42.88278" lon="0.11295">
        <ele>1759.3</ele>
        <time>2021-03-25T11:13:32Z</time>
      </trkpt>
      <trkpt lat="42.88279" lon="0.11297">
        <ele>1759.5</ele>
        <time>2021-03-25T11:13:33Z</time>
      </trkpt>
      <trkpt lat="42.8828" lon="0.11299">
        <ele>1759.7</ele>
        <time>2021-03-25T11:13:34Z</time>
      </trkpt>
      <trkpt lat="42.88281" lon="0.11301">
        <ele>1759.9</ele>
        <time>2021-03-25T11:13:36Z</time>
      </trkpt>
      <trkpt lat="42.88282" lon="0.11302">
        <ele>1760.1</ele>
        <time>2021-03-25T11:13:37Z</time>
      </trkpt>
      <trkpt lat="42.88283" lon="0.11304">
        <ele>1760.3</ele>
        <time>2021-03-25T11:13:38Z</time>
      </trkpt>
      <trkpt lat="42.88284" lon="0.11305">
        <ele>1760.4</ele>
        <time>2021-03-25T11:13:39Z</time>
      </trkpt>
      <trkpt lat="42.88285" lon="0.11306">
        <ele>1760.6</ele>
        <time>2021-03-25T11:13:41Z</time>
      </trkpt>
      <trkpt lat="42.88287" lon="0.11307">
        <ele>1760.7</ele>
        <time>2021-03-25T11:13:42Z</time>
      </trkpt>
      <trkpt lat="42.88288" lon="0.11308">
        <ele>1760.9</ele>
        <time>2021-03-25T11:13:43Z</time>
      </trkpt>
      <trkpt lat="42.88289" lon="0.1131">
        <ele>1761.1</ele>
        <time>2021-03-25T11:13:45Z</time>
      </trkpt>
      <trkpt lat="42.8829" lon="0.11312">
        <ele>1761.2</ele>
        <time>2021-03-25T11:13:46Z</time>
      </trkpt>
      <trkpt lat="42.8829" lon="0.11314">
        <ele>1761.3</ele>
        <time>2021-03-25T11:13:48Z</time>
      </trkpt>
      <trkpt lat="42.8829" lon="0.11317">
        <ele>1761.5</ele>
        <time>2021-03-25T11:13:49Z</time>
      </trkpt>
      <trkpt lat="42.88291" lon="0.11319">
        <ele>1761.7</ele>
        <time>2021-03-25T11:13:50Z</time>
      </trkpt>
      <trkpt lat="42.88291" lon="0.1132">
        <ele>1761.8</ele>
        <time>2021-03-25T11:13:51Z</time>
      </trkpt>
      <trkpt lat="42.8829" lon="0.11322">
        <ele>1761.9</ele>
        <time>2021-03-25T11:13:53Z</time>
      </trkpt>
      <trkpt lat="42.8829" lon="0.11324">
        <ele>1762</ele>
        <time>2021-03-25T11:13:54Z</time>
      </trkpt>
      <trkpt lat="42.8829" lon="0.11326">
        <ele>1762.1</ele>
        <time>2021-03-25T11:13:55Z</time>
      </trkpt>
      <trkpt lat="42.88291" lon="0.11328">
        <ele>1762.3</ele>
        <time>2021-03-25T11:13:57Z</time>
      </trkpt>
      <trkpt lat="42.88291" lon="0.1133">
        <ele>1762.4</ele>
        <time>2021-03-25T11:13:58Z</time>
      </trkpt>
      <trkpt lat="42.88291" lon="0.11332">
        <ele>1762.5</ele>
        <time>2021-03-25T11:14:00Z</time>
      </trkpt>
      <trkpt lat="42.88292" lon="0.11334">
        <ele>1762.7</ele>
        <time>2021-03-25T11:14:01Z</time>
      </trkpt>
      <trkpt lat="42.88292" lon="0.11337">
        <ele>1762.8</ele>
        <time>2021-03-25T11:14:03Z</time>
      </trkpt>
      <trkpt lat="42.88292" lon="0.11338">
        <ele>1762.9</ele>
        <time>2021-03-25T11:14:04Z</time>
      </trkpt>
      <trkpt lat="42.88292" lon="0.11339">
        <ele>1763</ele>
        <time>2021-03-25T11:14:05Z</time>
      </trkpt>
      <trkpt lat="42.88291" lon="0.1134">
        <ele>1763.1</ele>
        <time>2021-03-25T11:14:07Z</time>
      </trkpt>
      <trkpt lat="42.8829" lon="0.11341">
        <ele>1763.1</ele>
        <time>2021-03-25T11:14:08Z</time>
      </trkpt>
      <trkpt lat="42.88288" lon="0.11342">
        <ele>1763.2</ele>
        <time>2021-03-25T11:14:09Z</time>
      </trkpt>
      <trkpt lat="42.88287" lon="0.11343">
        <ele>1763.3</ele>
        <time>2021-03-25T11:14:11Z</time>
      </trkpt>
      <trkpt lat="42.88287" lon="0.11344">
        <ele>1763.4</ele>
        <time>2021-03-25T11:14:12Z</time>
      </trkpt>
      <trkpt lat="42.88287" lon="0.11345">
        <ele>1763.5</ele>
        <time>2021-03-25T11:14:13Z</time>
      </trkpt>
      <trkpt lat="42.88287" lon="0.11346">
        <ele>1763.5</ele>
        <time>2021-03-25T11:14:15Z</time>
      </trkpt>
      <trkpt lat="42.88286" lon="0.11344">
        <ele>1763.6</ele>
        <time>2021-03-25T11:14:16Z</time>
      </trkpt>
      <trkpt lat="42.88286" lon="0.11343">
        <ele>1763.6</ele>
        <time>2021-03-25T11:14:17Z</time>
      </trkpt>
      <trkpt lat="42.88286" lon="0.11342">
        <ele>1763.7</ele>
        <time>2021-03-25T11:14:19Z</time>
      </trkpt>
      <trkpt lat="42.88286" lon="0.11343">
        <ele>1763.7</ele>
        <time>2021-03-25T11:14:20Z</time>
      </trkpt>
      <trkpt lat="42.88287" lon="0.11343">
        <ele>1763.8</ele>
        <time>2021-03-25T11:14:21Z</time>
      </trkpt>
      <trkpt lat="42.88288" lon="0.11344">
        <ele>1763.9</ele>
        <time>2021-03-25T11:14:23Z</time>
      </trkpt>
      <trkpt lat="42.88288" lon="0.11345">
        <ele>1763.9</ele>
        <time>2021-03-25T11:14:24Z</time>
      </trkpt>
      <trkpt lat="42.88289" lon="0.11346">
        <ele>1763.9</ele>
        <time>2021-03-25T11:14:25Z</time>
      </trkpt>
      <trkpt lat="42.88289" lon="0.11346">
        <ele>1763.9</ele>
        <time>2021-03-25T11:14:27Z</time>
      </trkpt>
      <trkpt lat="42.88289" lon="0.11347">
        <ele>1764</ele>
        <time>2021-03-25T11:14:28Z</time>
      </trkpt>
      <trkpt lat="42.88289" lon="0.11347">
        <ele>1764</ele>
        <time>2021-03-25T11:14:30Z</time>
      </trkpt>
      <trkpt lat="42.88289" lon="0.11348">
        <ele>1764</ele>
        <time>2021-03-25T11:14:31Z</time>
      </trkpt>
      <trkpt lat="42.88289" lon="0.11349">
        <ele>1764.1</ele>
        <time>2021-03-25T11:14:32Z</time>
      </trkpt>
      <trkpt lat="42.88288" lon="0.11351">
        <ele>1764.2</ele>
        <time>2021-03-25T11:14:34Z</time>
      </trkpt>
      <trkpt lat="42.88288" lon="0.11352">
        <ele>1764.2</ele>
        <time>2021-03-25T11:14:35Z</time>
      </trkpt>
      <trkpt lat="42.88287" lon="0.11354">
        <ele>1764.3</ele>
        <time>2021-03-25T11:14:36Z</time>
      </trkpt>
      <trkpt lat="42.88285" lon="0.11357">
        <ele>1764.5</ele>
        <time>2021-03-25T11:14:38Z</time>
      </trkpt>
      <trkpt lat="42.88285" lon="0.11358">
        <ele>1764.6</ele>
        <time>2021-03-25T11:14:39Z</time>
      </trkpt>
      <trkpt lat="42.88284" lon="0.11361">
        <ele>1764.8</ele>
        <time>2021-03-25T11:14:40Z</time>
      </trkpt>
      <trkpt lat="42.88283" lon="0.11362">
        <ele>1764.8</ele>
        <time>2021-03-25T11:14:42Z</time>
      </trkpt>
      <trkpt lat="42.88283" lon="0.11363">
        <ele>1764.9</ele>
        <time>2021-03-25T11:14:43Z</time>
      </trkpt>
      <trkpt lat="42.88283" lon="0.11364">
        <ele>1764.9</ele>
        <time>2021-03-25T11:14:44Z</time>
      </trkpt>
      <trkpt lat="42.88284" lon="0.11366">
        <ele>1765</ele>
        <time>2021-03-25T11:14:46Z</time>
      </trkpt>
      <trkpt lat="42.88284" lon="0.11366">
        <ele>1765.1</ele>
        <time>2021-03-25T11:14:48Z</time>
      </trkpt>
      <trkpt lat="42.88284" lon="0.11367">
        <ele>1765</ele>
        <time>2021-03-25T11:14:49Z</time>
      </trkpt>
      <trkpt lat="42.88283" lon="0.11367">
        <ele>1765</ele>
        <time>2021-03-25T11:14:50Z</time>
      </trkpt>
      <trkpt lat="42.88282" lon="0.11368">
        <ele>1765.1</ele>
        <time>2021-03-25T11:14:52Z</time>
      </trkpt>
      <trkpt lat="42.88282" lon="0.11368">
        <ele>1765.2</ele>
        <time>2021-03-25T11:14:54Z</time>
      </trkpt>
      <trkpt lat="42.88282" lon="0.11369">
        <ele>1765.2</ele>
        <time>2021-03-25T11:14:55Z</time>
      </trkpt>
      <trkpt lat="42.88281" lon="0.11368">
        <ele>1765.2</ele>
        <time>2021-03-25T11:14:57Z</time>
      </trkpt>
      <trkpt lat="42.88281" lon="0.11368">
        <ele>1765.1</ele>
        <time>2021-03-25T11:14:59Z</time>
      </trkpt>
      <trkpt lat="42.88281" lon="0.11368">
        <ele>1765.1</ele>
        <time>2021-03-25T11:15:00Z</time>
      </trkpt>
      <trkpt lat="42.88281" lon="0.11368">
        <ele>1765.1</ele>
        <time>2021-03-25T11:15:02Z</time>
      </trkpt>
      <trkpt lat="42.88281" lon="0.11368">
        <ele>1765.1</ele>
        <time>2021-03-25T11:15:03Z</time>
      </trkpt>
      <trkpt lat="42.88281" lon="0.11369">
        <ele>1765.2</ele>
        <time>2021-03-25T11:15:04Z</time>
      </trkpt>
      <trkpt lat="42.88281" lon="0.11369">
        <ele>1765.2</ele>
        <time>2021-03-25T11:15:06Z</time>
      </trkpt>
      <trkpt lat="42.88281" lon="0.11369">
        <ele>1765.1</ele>
        <time>2021-03-25T11:15:07Z</time>
      </trkpt>
      <trkpt lat="42.88281" lon="0.11369">
        <ele>1765.1</ele>
        <time>2021-03-25T11:15:09Z</time>
      </trkpt>
      <trkpt lat="42.88281" lon="0.11369">
        <ele>1765.1</ele>
        <time>2021-03-25T11:15:10Z</time>
      </trkpt>
      <trkpt lat="42.88281" lon="0.1137">
        <ele>1765.1</ele>
        <time>2021-03-25T11:15:11Z</time>
      </trkpt>
      <trkpt lat="42.88282" lon="0.11371">
        <ele>1765.2</ele>
        <time>2021-03-25T11:15:12Z</time>
      </trkpt>
      <trkpt lat="42.88282" lon="0.11373">
        <ele>1765.3</ele>
        <time>2021-03-25T11:15:14Z</time>
      </trkpt>
      <trkpt lat="42.88283" lon="0.11377">
        <ele>1765.5</ele>
        <time>2021-03-25T11:15:15Z</time>
      </trkpt>
      <trkpt lat="42.88283" lon="0.11379">
        <ele>1765.6</ele>
        <time>2021-03-25T11:15:17Z</time>
      </trkpt>
      <trkpt lat="42.88284" lon="0.11382">
        <ele>1765.8</ele>
        <time>2021-03-25T11:15:18Z</time>
      </trkpt>
      <trkpt lat="42.88284" lon="0.11383">
        <ele>1766</ele>
        <time>2021-03-25T11:15:20Z</time>
      </trkpt>
      <trkpt lat="42.88282" lon="0.11383">
        <ele>1766.1</ele>
        <time>2021-03-25T11:15:21Z</time>
      </trkpt>
      <trkpt lat="42.88282" lon="0.11384">
        <ele>1766.2</ele>
        <time>2021-03-25T11:15:22Z</time>
      </trkpt>
      <trkpt lat="42.88282" lon="0.11385">
        <ele>1766.2</ele>
        <time>2021-03-25T11:15:23Z</time>
      </trkpt>
      <trkpt lat="42.88281" lon="0.11385">
        <ele>1766.3</ele>
        <time>2021-03-25T11:15:24Z</time>
      </trkpt>
      <trkpt lat="42.8828" lon="0.11383">
        <ele>1766.4</ele>
        <time>2021-03-25T11:15:25Z</time>
      </trkpt>
      <trkpt lat="42.88279" lon="0.11382">
        <ele>1766.6</ele>
        <time>2021-03-25T11:15:27Z</time>
      </trkpt>
      <trkpt lat="42.88279" lon="0.11383">
        <ele>1766.6</ele>
        <time>2021-03-25T11:15:28Z</time>
      </trkpt>
      <trkpt lat="42.88279" lon="0.11384">
        <ele>1766.7</ele>
        <time>2021-03-25T11:15:30Z</time>
      </trkpt>
      <trkpt lat="42.88279" lon="0.11385">
        <ele>1766.7</ele>
        <time>2021-03-25T11:15:31Z</time>
      </trkpt>
      <trkpt lat="42.88279" lon="0.11385">
        <ele>1766.8</ele>
        <time>2021-03-25T11:15:33Z</time>
      </trkpt>
      <trkpt lat="42.88279" lon="0.11386">
        <ele>1766.9</ele>
        <time>2021-03-25T11:15:34Z</time>
      </trkpt>
      <trkpt lat="42.88279" lon="0.11388">
        <ele>1767</ele>
        <time>2021-03-25T11:15:36Z</time>
      </trkpt>
      <trkpt lat="42.88279" lon="0.11389">
        <ele>1767.1</ele>
        <time>2021-03-25T11:15:37Z</time>
      </trkpt>
      <trkpt lat="42.8828" lon="0.1139">
        <ele>1767.2</ele>
        <time>2021-03-25T11:15:39Z</time>
      </trkpt>
      <trkpt lat="42.8828" lon="0.11392">
        <ele>1767.3</ele>
        <time>2021-03-25T11:15:40Z</time>
      </trkpt>
      <trkpt lat="42.8828" lon="0.11392">
        <ele>1767.3</ele>
        <time>2021-03-25T11:15:41Z</time>
      </trkpt>
      <trkpt lat="42.8828" lon="0.11393">
        <ele>1767.4</ele>
        <time>2021-03-25T11:15:43Z</time>
      </trkpt>
      <trkpt lat="42.8828" lon="0.11394">
        <ele>1767.5</ele>
        <time>2021-03-25T11:15:44Z</time>
      </trkpt>
      <trkpt lat="42.88281" lon="0.11395">
        <ele>1767.6</ele>
        <time>2021-03-25T11:15:45Z</time>
      </trkpt>
      <trkpt lat="42.88282" lon="0.11397">
        <ele>1767.8</ele>
        <time>2021-03-25T11:15:47Z</time>
      </trkpt>
      <trkpt lat="42.88282" lon="0.11398">
        <ele>1767.9</ele>
        <time>2021-03-25T11:15:48Z</time>
      </trkpt>
      <trkpt lat="42.88283" lon="0.11399">
        <ele>1768</ele>
        <time>2021-03-25T11:15:49Z</time>
      </trkpt>
      <trkpt lat="42.88283" lon="0.11399">
        <ele>1768</ele>
        <time>2021-03-25T11:15:50Z</time>
      </trkpt>
      <trkpt lat="42.88283" lon="0.114">
        <ele>1768.1</ele>
        <time>2021-03-25T11:15:52Z</time>
      </trkpt>
      <trkpt lat="42.88284" lon="0.114">
        <ele>1768.1</ele>
        <time>2021-03-25T11:15:53Z</time>
      </trkpt>
      <trkpt lat="42.88284" lon="0.11401">
        <ele>1768.2</ele>
        <time>2021-03-25T11:15:54Z</time>
      </trkpt>
      <trkpt lat="42.88284" lon="0.11403">
        <ele>1768.3</ele>
        <time>2021-03-25T11:15:56Z</time>
      </trkpt>
      <trkpt lat="42.88285" lon="0.11404">
        <ele>1768.4</ele>
        <time>2021-03-25T11:15:57Z</time>
      </trkpt>
      <trkpt lat="42.88285" lon="0.11404">
        <ele>1768.5</ele>
        <time>2021-03-25T11:15:58Z</time>
      </trkpt>
      <trkpt lat="42.88285" lon="0.11405">
        <ele>1768.6</ele>
        <time>2021-03-25T11:15:59Z</time>
      </trkpt>
      <trkpt lat="42.88285" lon="0.11406">
        <ele>1768.6</ele>
        <time>2021-03-25T11:16:00Z</time>
      </trkpt>
      <trkpt lat="42.88285" lon="0.11407">
        <ele>1768.7</ele>
        <time>2021-03-25T11:16:02Z</time>
      </trkpt>
      <trkpt lat="42.88285" lon="0.11408">
        <ele>1768.8</ele>
        <time>2021-03-25T11:16:04Z</time>
      </trkpt>
      <trkpt lat="42.88285" lon="0.11409">
        <ele>1768.9</ele>
        <time>2021-03-25T11:16:05Z</time>
      </trkpt>
      <trkpt lat="42.88285" lon="0.11411">
        <ele>1769.1</ele>
        <time>2021-03-25T11:16:07Z</time>
      </trkpt>
      <trkpt lat="42.88284" lon="0.11412">
        <ele>1769.2</ele>
        <time>2021-03-25T11:16:08Z</time>
      </trkpt>
      <trkpt lat="42.88284" lon="0.11412">
        <ele>1769.3</ele>
        <time>2021-03-25T11:16:09Z</time>
      </trkpt>
      <trkpt lat="42.88284" lon="0.11413">
        <ele>1769.3</ele>
        <time>2021-03-25T11:16:10Z</time>
      </trkpt>
      <trkpt lat="42.88285" lon="0.11415">
        <ele>1769.5</ele>
        <time>2021-03-25T11:16:12Z</time>
      </trkpt>
      <trkpt lat="42.88285" lon="0.11417">
        <ele>1769.7</ele>
        <time>2021-03-25T11:16:14Z</time>
      </trkpt>
      <trkpt lat="42.88285" lon="0.11419">
        <ele>1769.8</ele>
        <time>2021-03-25T11:16:15Z</time>
      </trkpt>
      <trkpt lat="42.88285" lon="0.1142">
        <ele>1769.9</ele>
        <time>2021-03-25T11:16:16Z</time>
      </trkpt>
      <trkpt lat="42.88285" lon="0.1142">
        <ele>1770</ele>
        <time>2021-03-25T11:16:17Z</time>
      </trkpt>
      <trkpt lat="42.88285" lon="0.11421">
        <ele>1770.1</ele>
        <time>2021-03-25T11:16:18Z</time>
      </trkpt>
      <trkpt lat="42.88285" lon="0.11422">
        <ele>1770.2</ele>
        <time>2021-03-25T11:16:19Z</time>
      </trkpt>
      <trkpt lat="42.88286" lon="0.11422">
        <ele>1770.2</ele>
        <time>2021-03-25T11:16:21Z</time>
      </trkpt>
      <trkpt lat="42.88286" lon="0.11423">
        <ele>1770.3</ele>
        <time>2021-03-25T11:16:23Z</time>
      </trkpt>
      <trkpt lat="42.88286" lon="0.11424">
        <ele>1770.4</ele>
        <time>2021-03-25T11:16:25Z</time>
      </trkpt>
      <trkpt lat="42.88287" lon="0.11425">
        <ele>1770.5</ele>
        <time>2021-03-25T11:16:26Z</time>
      </trkpt>
      <trkpt lat="42.88287" lon="0.11426">
        <ele>1770.6</ele>
        <time>2021-03-25T11:16:27Z</time>
      </trkpt>
      <trkpt lat="42.88286" lon="0.11427">
        <ele>1770.7</ele>
        <time>2021-03-25T11:16:29Z</time>
      </trkpt>
      <trkpt lat="42.88286" lon="0.11428">
        <ele>1770.9</ele>
        <time>2021-03-25T11:16:30Z</time>
      </trkpt>
      <trkpt lat="42.88286" lon="0.11429">
        <ele>1771</ele>
        <time>2021-03-25T11:16:31Z</time>
      </trkpt>
      <trkpt lat="42.88285" lon="0.1143">
        <ele>1771.1</ele>
        <time>2021-03-25T11:16:33Z</time>
      </trkpt>
      <trkpt lat="42.88285" lon="0.11431">
        <ele>1771.2</ele>
        <time>2021-03-25T11:16:34Z</time>
      </trkpt>
      <trkpt lat="42.88284" lon="0.11432">
        <ele>1771.4</ele>
        <time>2021-03-25T11:16:36Z</time>
      </trkpt>
      <trkpt lat="42.88284" lon="0.11433">
        <ele>1771.5</ele>
        <time>2021-03-25T11:16:37Z</time>
      </trkpt>
      <trkpt lat="42.88283" lon="0.11434">
        <ele>1771.6</ele>
        <time>2021-03-25T11:16:38Z</time>
      </trkpt>
      <trkpt lat="42.88283" lon="0.11435">
        <ele>1771.8</ele>
        <time>2021-03-25T11:16:39Z</time>
      </trkpt>
      <trkpt lat="42.88283" lon="0.11436">
        <ele>1771.8</ele>
        <time>2021-03-25T11:16:40Z</time>
      </trkpt>
      <trkpt lat="42.88283" lon="0.11436">
        <ele>1771.9</ele>
        <time>2021-03-25T11:16:42Z</time>
      </trkpt>
      <trkpt lat="42.88283" lon="0.11437">
        <ele>1771.9</ele>
        <time>2021-03-25T11:16:43Z</time>
      </trkpt>
      <trkpt lat="42.88283" lon="0.11438">
        <ele>1772</ele>
        <time>2021-03-25T11:16:45Z</time>
      </trkpt>
      <trkpt lat="42.88283" lon="0.11438">
        <ele>1772.1</ele>
        <time>2021-03-25T11:16:46Z</time>
      </trkpt>
      <trkpt lat="42.88283" lon="0.11439">
        <ele>1772.1</ele>
        <time>2021-03-25T11:16:48Z</time>
      </trkpt>
      <trkpt lat="42.88283" lon="0.11439">
        <ele>1772.2</ele>
        <time>2021-03-25T11:16:49Z</time>
      </trkpt>
      <trkpt lat="42.88283" lon="0.1144">
        <ele>1772.3</ele>
        <time>2021-03-25T11:16:50Z</time>
      </trkpt>
      <trkpt lat="42.88283" lon="0.1144">
        <ele>1772.3</ele>
        <time>2021-03-25T11:16:51Z</time>
      </trkpt>
      <trkpt lat="42.88283" lon="0.11441">
        <ele>1772.4</ele>
        <time>2021-03-25T11:16:53Z</time>
      </trkpt>
      <trkpt lat="42.88283" lon="0.11441">
        <ele>1772.4</ele>
        <time>2021-03-25T11:16:54Z</time>
      </trkpt>
      <trkpt lat="42.88283" lon="0.11442">
        <ele>1772.5</ele>
        <time>2021-03-25T11:16:55Z</time>
      </trkpt>
      <trkpt lat="42.88283" lon="0.11442">
        <ele>1772.6</ele>
        <time>2021-03-25T11:16:57Z</time>
      </trkpt>
      <trkpt lat="42.88283" lon="0.11443">
        <ele>1772.6</ele>
        <time>2021-03-25T11:16:58Z</time>
      </trkpt>
      <trkpt lat="42.88283" lon="0.11448">
        <ele>1773.2</ele>
        <time>2021-03-25T11:17:00Z</time>
      </trkpt>
      <trkpt lat="42.88283" lon="0.1145">
        <ele>1773.4</ele>
        <time>2021-03-25T11:17:01Z</time>
      </trkpt>
      <trkpt lat="42.88282" lon="0.11455">
        <ele>1774</ele>
        <time>2021-03-25T11:17:03Z</time>
      </trkpt>
      <trkpt lat="42.88282" lon="0.1146">
        <ele>1774.6</ele>
        <time>2021-03-25T11:17:05Z</time>
      </trkpt>
      <trkpt lat="42.88281" lon="0.11461">
        <ele>1774.7</ele>
        <time>2021-03-25T11:17:06Z</time>
      </trkpt>
      <trkpt lat="42.88281" lon="0.11462">
        <ele>1774.8</ele>
        <time>2021-03-25T11:17:07Z</time>
      </trkpt>
      <trkpt lat="42.88281" lon="0.11463">
        <ele>1774.9</ele>
        <time>2021-03-25T11:17:09Z</time>
      </trkpt>
      <trkpt lat="42.88281" lon="0.11463">
        <ele>1774.9</ele>
        <time>2021-03-25T11:17:10Z</time>
      </trkpt>
      <trkpt lat="42.88281" lon="0.11463">
        <ele>1775</ele>
        <time>2021-03-25T11:17:12Z</time>
      </trkpt>
      <trkpt lat="42.88281" lon="0.11463">
        <ele>1775</ele>
        <time>2021-03-25T11:17:13Z</time>
      </trkpt>
      <trkpt lat="42.88281" lon="0.11463">
        <ele>1775</ele>
        <time>2021-03-25T11:17:14Z</time>
      </trkpt>
      <trkpt lat="42.8828" lon="0.11463">
        <ele>1775.1</ele>
        <time>2021-03-25T11:17:16Z</time>
      </trkpt>
      <trkpt lat="42.8828" lon="0.11463">
        <ele>1775.1</ele>
        <time>2021-03-25T11:17:17Z</time>
      </trkpt>
      <trkpt lat="42.8828" lon="0.11463">
        <ele>1775.2</ele>
        <time>2021-03-25T11:17:18Z</time>
      </trkpt>
      <trkpt lat="42.88279" lon="0.11464">
        <ele>1775.3</ele>
        <time>2021-03-25T11:17:20Z</time>
      </trkpt>
      <trkpt lat="42.88279" lon="0.11464">
        <ele>1775.4</ele>
        <time>2021-03-25T11:17:21Z</time>
      </trkpt>
      <trkpt lat="42.88279" lon="0.11464">
        <ele>1775.4</ele>
        <time>2021-03-25T11:17:23Z</time>
      </trkpt>
      <trkpt lat="42.88279" lon="0.11465">
        <ele>1775.5</ele>
        <time>2021-03-25T11:17:24Z</time>
      </trkpt>
      <trkpt lat="42.88278" lon="0.11465">
        <ele>1775.5</ele>
        <time>2021-03-25T11:17:25Z</time>
      </trkpt>
      <trkpt lat="42.88278" lon="0.11466">
        <ele>1775.6</ele>
        <time>2021-03-25T11:17:27Z</time>
      </trkpt>
      <trkpt lat="42.88278" lon="0.11466">
        <ele>1775.6</ele>
        <time>2021-03-25T11:17:29Z</time>
      </trkpt>
      <trkpt lat="42.88278" lon="0.11466">
        <ele>1775.7</ele>
        <time>2021-03-25T11:17:30Z</time>
      </trkpt>
      <trkpt lat="42.88278" lon="0.11466">
        <ele>1775.7</ele>
        <time>2021-03-25T11:17:31Z</time>
      </trkpt>
      <trkpt lat="42.88277" lon="0.11467">
        <ele>1775.8</ele>
        <time>2021-03-25T11:17:33Z</time>
      </trkpt>
      <trkpt lat="42.88277" lon="0.11467">
        <ele>1775.9</ele>
        <time>2021-03-25T11:17:34Z</time>
      </trkpt>
      <trkpt lat="42.88276" lon="0.11468">
        <ele>1776</ele>
        <time>2021-03-25T11:17:35Z</time>
      </trkpt>
      <trkpt lat="42.88275" lon="0.11468">
        <ele>1776.1</ele>
        <time>2021-03-25T11:17:37Z</time>
      </trkpt>
      <trkpt lat="42.88275" lon="0.11469">
        <ele>1776.2</ele>
        <time>2021-03-25T11:17:38Z</time>
      </trkpt>
      <trkpt lat="42.88274" lon="0.1147">
        <ele>1776.4</ele>
        <time>2021-03-25T11:17:40Z</time>
      </trkpt>
      <trkpt lat="42.88273" lon="0.11471">
        <ele>1776.6</ele>
        <time>2021-03-25T11:17:42Z</time>
      </trkpt>
      <trkpt lat="42.88273" lon="0.11472">
        <ele>1776.7</ele>
        <time>2021-03-25T11:17:43Z</time>
      </trkpt>
      <trkpt lat="42.88272" lon="0.11473">
        <ele>1776.8</ele>
        <time>2021-03-25T11:17:44Z</time>
      </trkpt>
      <trkpt lat="42.88272" lon="0.11474">
        <ele>1777</ele>
        <time>2021-03-25T11:17:46Z</time>
      </trkpt>
      <trkpt lat="42.88271" lon="0.11476">
        <ele>1777.1</ele>
        <time>2021-03-25T11:17:47Z</time>
      </trkpt>
      <trkpt lat="42.88271" lon="0.11477">
        <ele>1777.3</ele>
        <time>2021-03-25T11:17:48Z</time>
      </trkpt>
      <trkpt lat="42.8827" lon="0.11479">
        <ele>1777.5</ele>
        <time>2021-03-25T11:17:49Z</time>
      </trkpt>
      <trkpt lat="42.8827" lon="0.11481">
        <ele>1777.8</ele>
        <time>2021-03-25T11:17:51Z</time>
      </trkpt>
      <trkpt lat="42.88269" lon="0.11484">
        <ele>1778.1</ele>
        <time>2021-03-25T11:17:52Z</time>
      </trkpt>
      <trkpt lat="42.88268" lon="0.11487">
        <ele>1778.4</ele>
        <time>2021-03-25T11:17:54Z</time>
      </trkpt>
      <trkpt lat="42.88267" lon="0.11489">
        <ele>1778.7</ele>
        <time>2021-03-25T11:17:55Z</time>
      </trkpt>
      <trkpt lat="42.88267" lon="0.11491">
        <ele>1778.8</ele>
        <time>2021-03-25T11:17:56Z</time>
      </trkpt>
      <trkpt lat="42.88267" lon="0.11493">
        <ele>1779.1</ele>
        <time>2021-03-25T11:17:58Z</time>
      </trkpt>
      <trkpt lat="42.88268" lon="0.11495">
        <ele>1779.3</ele>
        <time>2021-03-25T11:18:00Z</time>
      </trkpt>
      <trkpt lat="42.88269" lon="0.11496">
        <ele>1779.4</ele>
        <time>2021-03-25T11:18:02Z</time>
      </trkpt>
      <trkpt lat="42.88269" lon="0.11495">
        <ele>1779.5</ele>
        <time>2021-03-25T11:18:03Z</time>
      </trkpt>
      <trkpt lat="42.88269" lon="0.11494">
        <ele>1779.5</ele>
        <time>2021-03-25T11:18:04Z</time>
      </trkpt>
      <trkpt lat="42.88269" lon="0.11493">
        <ele>1779.7</ele>
        <time>2021-03-25T11:18:06Z</time>
      </trkpt>
      <trkpt lat="42.88268" lon="0.11493">
        <ele>1779.7</ele>
        <time>2021-03-25T11:18:07Z</time>
      </trkpt>
      <trkpt lat="42.88268" lon="0.11493">
        <ele>1779.7</ele>
        <time>2021-03-25T11:18:08Z</time>
      </trkpt>
      <trkpt lat="42.88268" lon="0.11492">
        <ele>1779.8</ele>
        <time>2021-03-25T11:18:10Z</time>
      </trkpt>
      <trkpt lat="42.88268" lon="0.11492">
        <ele>1779.8</ele>
        <time>2021-03-25T11:18:12Z</time>
      </trkpt>
      <trkpt lat="42.88268" lon="0.11492">
        <ele>1779.8</ele>
        <time>2021-03-25T11:18:13Z</time>
      </trkpt>
      <trkpt lat="42.88267" lon="0.11492">
        <ele>1779.9</ele>
        <time>2021-03-25T11:18:15Z</time>
      </trkpt>
      <trkpt lat="42.88267" lon="0.11492">
        <ele>1779.9</ele>
        <time>2021-03-25T11:18:16Z</time>
      </trkpt>
      <trkpt lat="42.88267" lon="0.11492">
        <ele>1779.9</ele>
        <time>2021-03-25T11:18:18Z</time>
      </trkpt>
      <trkpt lat="42.88267" lon="0.11492">
        <ele>1780</ele>
        <time>2021-03-25T11:18:19Z</time>
      </trkpt>
      <trkpt lat="42.88267" lon="0.11492">
        <ele>1780</ele>
        <time>2021-03-25T11:18:20Z</time>
      </trkpt>
      <trkpt lat="42.88266" lon="0.11492">
        <ele>1780</ele>
        <time>2021-03-25T11:18:21Z</time>
      </trkpt>
      <trkpt lat="42.88266" lon="0.11492">
        <ele>1780.1</ele>
        <time>2021-03-25T11:18:23Z</time>
      </trkpt>
      <trkpt lat="42.88267" lon="0.11492">
        <ele>1780.2</ele>
        <time>2021-03-25T11:18:25Z</time>
      </trkpt>
      <trkpt lat="42.88267" lon="0.11493">
        <ele>1780.2</ele>
        <time>2021-03-25T11:18:26Z</time>
      </trkpt>
      <trkpt lat="42.88267" lon="0.11493">
        <ele>1780.3</ele>
        <time>2021-03-25T11:18:27Z</time>
      </trkpt>
      <trkpt lat="42.88267" lon="0.11494">
        <ele>1780.3</ele>
        <time>2021-03-25T11:18:29Z</time>
      </trkpt>
      <trkpt lat="42.88267" lon="0.11494">
        <ele>1780.4</ele>
        <time>2021-03-25T11:18:30Z</time>
      </trkpt>
      <trkpt lat="42.88267" lon="0.11495">
        <ele>1780.5</ele>
        <time>2021-03-25T11:18:32Z</time>
      </trkpt>
      <trkpt lat="42.88268" lon="0.11496">
        <ele>1780.6</ele>
        <time>2021-03-25T11:18:33Z</time>
      </trkpt>
      <trkpt lat="42.88268" lon="0.11496">
        <ele>1780.7</ele>
        <time>2021-03-25T11:18:34Z</time>
      </trkpt>
      <trkpt lat="42.88269" lon="0.11498">
        <ele>1780.8</ele>
        <time>2021-03-25T11:18:36Z</time>
      </trkpt>
      <trkpt lat="42.88269" lon="0.11498">
        <ele>1780.9</ele>
        <time>2021-03-25T11:18:37Z</time>
      </trkpt>
      <trkpt lat="42.88269" lon="0.11499">
        <ele>1780.9</ele>
        <time>2021-03-25T11:18:38Z</time>
      </trkpt>
      <trkpt lat="42.8827" lon="0.11499">
        <ele>1781</ele>
        <time>2021-03-25T11:18:40Z</time>
      </trkpt>
      <trkpt lat="42.8827" lon="0.11499">
        <ele>1781.1</ele>
        <time>2021-03-25T11:18:41Z</time>
      </trkpt>
      <trkpt lat="42.88271" lon="0.11499">
        <ele>1781.2</ele>
        <time>2021-03-25T11:18:42Z</time>
      </trkpt>
      <trkpt lat="42.88272" lon="0.11498">
        <ele>1781.3</ele>
        <time>2021-03-25T11:18:43Z</time>
      </trkpt>
      <trkpt lat="42.88273" lon="0.11499">
        <ele>1781.4</ele>
        <time>2021-03-25T11:18:45Z</time>
      </trkpt>
      <trkpt lat="42.88273" lon="0.115">
        <ele>1781.5</ele>
        <time>2021-03-25T11:18:46Z</time>
      </trkpt>
      <trkpt lat="42.88273" lon="0.11501">
        <ele>1781.6</ele>
        <time>2021-03-25T11:18:47Z</time>
      </trkpt>
      <trkpt lat="42.88273" lon="0.11503">
        <ele>1781.8</ele>
        <time>2021-03-25T11:18:49Z</time>
      </trkpt>
      <trkpt lat="42.88273" lon="0.11506">
        <ele>1782.1</ele>
        <time>2021-03-25T11:18:50Z</time>
      </trkpt>
      <trkpt lat="42.88272" lon="0.11509">
        <ele>1782.4</ele>
        <time>2021-03-25T11:18:52Z</time>
      </trkpt>
      <trkpt lat="42.88272" lon="0.11512">
        <ele>1782.7</ele>
        <time>2021-03-25T11:18:53Z</time>
      </trkpt>
      <trkpt lat="42.88271" lon="0.11513">
        <ele>1782.9</ele>
        <time>2021-03-25T11:18:54Z</time>
      </trkpt>
      <trkpt lat="42.8827" lon="0.11514">
        <ele>1783.1</ele>
        <time>2021-03-25T11:18:55Z</time>
      </trkpt>
      <trkpt lat="42.88269" lon="0.11515">
        <ele>1783.2</ele>
        <time>2021-03-25T11:18:57Z</time>
      </trkpt>
      <trkpt lat="42.88268" lon="0.11516">
        <ele>1783.4</ele>
        <time>2021-03-25T11:18:58Z</time>
      </trkpt>
      <trkpt lat="42.88268" lon="0.11517">
        <ele>1783.6</ele>
        <time>2021-03-25T11:18:59Z</time>
      </trkpt>
      <trkpt lat="42.88268" lon="0.11518">
        <ele>1783.6</ele>
        <time>2021-03-25T11:19:01Z</time>
      </trkpt>
      <trkpt lat="42.88268" lon="0.11519">
        <ele>1783.7</ele>
        <time>2021-03-25T11:19:02Z</time>
      </trkpt>
      <trkpt lat="42.88268" lon="0.1152">
        <ele>1783.8</ele>
        <time>2021-03-25T11:19:03Z</time>
      </trkpt>
      <trkpt lat="42.88269" lon="0.11521">
        <ele>1783.9</ele>
        <time>2021-03-25T11:19:05Z</time>
      </trkpt>
      <trkpt lat="42.88269" lon="0.11521">
        <ele>1784</ele>
        <time>2021-03-25T11:19:06Z</time>
      </trkpt>
      <trkpt lat="42.88269" lon="0.11523">
        <ele>1784.3</ele>
        <time>2021-03-25T11:19:07Z</time>
      </trkpt>
      <trkpt lat="42.88268" lon="0.11527">
        <ele>1784.7</ele>
        <time>2021-03-25T11:19:09Z</time>
      </trkpt>
      <trkpt lat="42.88268" lon="0.11528">
        <ele>1784.8</ele>
        <time>2021-03-25T11:19:10Z</time>
      </trkpt>
      <trkpt lat="42.88267" lon="0.11529">
        <ele>1784.9</ele>
        <time>2021-03-25T11:19:11Z</time>
      </trkpt>
      <trkpt lat="42.88266" lon="0.1153">
        <ele>1785.2</ele>
        <time>2021-03-25T11:19:13Z</time>
      </trkpt>
      <trkpt lat="42.88265" lon="0.11531">
        <ele>1785.4</ele>
        <time>2021-03-25T11:19:14Z</time>
      </trkpt>
      <trkpt lat="42.88264" lon="0.11531">
        <ele>1785.6</ele>
        <time>2021-03-25T11:19:16Z</time>
      </trkpt>
      <trkpt lat="42.88263" lon="0.11532">
        <ele>1785.7</ele>
        <time>2021-03-25T11:19:18Z</time>
      </trkpt>
      <trkpt lat="42.88263" lon="0.11533">
        <ele>1785.8</ele>
        <time>2021-03-25T11:19:19Z</time>
      </trkpt>
      <trkpt lat="42.88263" lon="0.11534">
        <ele>1785.9</ele>
        <time>2021-03-25T11:19:20Z</time>
      </trkpt>
      <trkpt lat="42.88262" lon="0.11534">
        <ele>1786.1</ele>
        <time>2021-03-25T11:19:22Z</time>
      </trkpt>
      <trkpt lat="42.88261" lon="0.11534">
        <ele>1786.2</ele>
        <time>2021-03-25T11:19:23Z</time>
      </trkpt>
      <trkpt lat="42.8826" lon="0.11534">
        <ele>1786.3</ele>
        <time>2021-03-25T11:19:25Z</time>
      </trkpt>
      <trkpt lat="42.8826" lon="0.11534">
        <ele>1786.4</ele>
        <time>2021-03-25T11:19:26Z</time>
      </trkpt>
      <trkpt lat="42.88259" lon="0.11535">
        <ele>1786.4</ele>
        <time>2021-03-25T11:19:27Z</time>
      </trkpt>
      <trkpt lat="42.88259" lon="0.11535">
        <ele>1786.5</ele>
        <time>2021-03-25T11:19:28Z</time>
      </trkpt>
      <trkpt lat="42.88258" lon="0.11536">
        <ele>1786.7</ele>
        <time>2021-03-25T11:19:30Z</time>
      </trkpt>
      <trkpt lat="42.88258" lon="0.11537">
        <ele>1786.8</ele>
        <time>2021-03-25T11:19:32Z</time>
      </trkpt>
      <trkpt lat="42.88258" lon="0.11539">
        <ele>1787</ele>
        <time>2021-03-25T11:19:33Z</time>
      </trkpt>
      <trkpt lat="42.88258" lon="0.1154">
        <ele>1787.2</ele>
        <time>2021-03-25T11:19:34Z</time>
      </trkpt>
      <trkpt lat="42.88258" lon="0.11543">
        <ele>1787.5</ele>
        <time>2021-03-25T11:19:35Z</time>
      </trkpt>
      <trkpt lat="42.88259" lon="0.11545">
        <ele>1787.7</ele>
        <time>2021-03-25T11:19:37Z</time>
      </trkpt>
      <trkpt lat="42.88259" lon="0.11547">
        <ele>1788</ele>
        <time>2021-03-25T11:19:38Z</time>
      </trkpt>
      <trkpt lat="42.88259" lon="0.11549">
        <ele>1788.2</ele>
        <time>2021-03-25T11:19:39Z</time>
      </trkpt>
      <trkpt lat="42.88258" lon="0.1155">
        <ele>1788.4</ele>
        <time>2021-03-25T11:19:41Z</time>
      </trkpt>
      <trkpt lat="42.88257" lon="0.11551">
        <ele>1788.6</ele>
        <time>2021-03-25T11:19:42Z</time>
      </trkpt>
      <trkpt lat="42.88257" lon="0.11552">
        <ele>1788.7</ele>
        <time>2021-03-25T11:19:43Z</time>
      </trkpt>
      <trkpt lat="42.88256" lon="0.11553">
        <ele>1788.8</ele>
        <time>2021-03-25T11:19:45Z</time>
      </trkpt>
      <trkpt lat="42.88256" lon="0.11553">
        <ele>1788.8</ele>
        <time>2021-03-25T11:19:46Z</time>
      </trkpt>
      <trkpt lat="42.88256" lon="0.11554">
        <ele>1788.9</ele>
        <time>2021-03-25T11:19:48Z</time>
      </trkpt>
      <trkpt lat="42.88256" lon="0.11554">
        <ele>1788.9</ele>
        <time>2021-03-25T11:19:49Z</time>
      </trkpt>
      <trkpt lat="42.88256" lon="0.11554">
        <ele>1789</ele>
        <time>2021-03-25T11:19:50Z</time>
      </trkpt>
      <trkpt lat="42.88256" lon="0.11555">
        <ele>1789</ele>
        <time>2021-03-25T11:19:51Z</time>
      </trkpt>
      <trkpt lat="42.88257" lon="0.11554">
        <ele>1789</ele>
        <time>2021-03-25T11:19:52Z</time>
      </trkpt>
      <trkpt lat="42.88257" lon="0.11553">
        <ele>1789.2</ele>
        <time>2021-03-25T11:19:54Z</time>
      </trkpt>
      <trkpt lat="42.88257" lon="0.11553">
        <ele>1789.2</ele>
        <time>2021-03-25T11:19:56Z</time>
      </trkpt>
      <trkpt lat="42.88257" lon="0.11552">
        <ele>1789.3</ele>
        <time>2021-03-25T11:19:57Z</time>
      </trkpt>
      <trkpt lat="42.88257" lon="0.11551">
        <ele>1789.4</ele>
        <time>2021-03-25T11:19:59Z</time>
      </trkpt>
      <trkpt lat="42.88258" lon="0.1155">
        <ele>1789.5</ele>
        <time>2021-03-25T11:20:01Z</time>
      </trkpt>
      <trkpt lat="42.88259" lon="0.11551">
        <ele>1789.6</ele>
        <time>2021-03-25T11:20:03Z</time>
      </trkpt>
      <trkpt lat="42.8826" lon="0.11551">
        <ele>1789.7</ele>
        <time>2021-03-25T11:20:04Z</time>
      </trkpt>
      <trkpt lat="42.88261" lon="0.11551">
        <ele>1789.9</ele>
        <time>2021-03-25T11:20:05Z</time>
      </trkpt>
      <trkpt lat="42.88262" lon="0.1155">
        <ele>1790</ele>
        <time>2021-03-25T11:20:07Z</time>
      </trkpt>
      <trkpt lat="42.88263" lon="0.11551">
        <ele>1790.1</ele>
        <time>2021-03-25T11:20:08Z</time>
      </trkpt>
      <trkpt lat="42.88264" lon="0.11552">
        <ele>1790.3</ele>
        <time>2021-03-25T11:20:10Z</time>
      </trkpt>
      <trkpt lat="42.88264" lon="0.11552">
        <ele>1790.3</ele>
        <time>2021-03-25T11:20:11Z</time>
      </trkpt>
      <trkpt lat="42.88264" lon="0.11552">
        <ele>1790.3</ele>
        <time>2021-03-25T11:20:12Z</time>
      </trkpt>
      <trkpt lat="42.88264" lon="0.11552">
        <ele>1790.4</ele>
        <time>2021-03-25T11:20:14Z</time>
      </trkpt>
      <trkpt lat="42.88264" lon="0.11553">
        <ele>1790.5</ele>
        <time>2021-03-25T11:20:15Z</time>
      </trkpt>
      <trkpt lat="42.88264" lon="0.11555">
        <ele>1790.6</ele>
        <time>2021-03-25T11:20:17Z</time>
      </trkpt>
      <trkpt lat="42.88265" lon="0.11556">
        <ele>1790.7</ele>
        <time>2021-03-25T11:20:18Z</time>
      </trkpt>
      <trkpt lat="42.88265" lon="0.11558">
        <ele>1790.8</ele>
        <time>2021-03-25T11:20:19Z</time>
      </trkpt>
      <trkpt lat="42.88266" lon="0.11559">
        <ele>1790.9</ele>
        <time>2021-03-25T11:20:21Z</time>
      </trkpt>
      <trkpt lat="42.88266" lon="0.1156">
        <ele>1791.1</ele>
        <time>2021-03-25T11:20:22Z</time>
      </trkpt>
      <trkpt lat="42.88266" lon="0.11562">
        <ele>1791.2</ele>
        <time>2021-03-25T11:20:24Z</time>
      </trkpt>
      <trkpt lat="42.88266" lon="0.11564">
        <ele>1791.3</ele>
        <time>2021-03-25T11:20:25Z</time>
      </trkpt>
      <trkpt lat="42.88265" lon="0.11567">
        <ele>1791.5</ele>
        <time>2021-03-25T11:20:26Z</time>
      </trkpt>
      <trkpt lat="42.88265" lon="0.11571">
        <ele>1791.7</ele>
        <time>2021-03-25T11:20:28Z</time>
      </trkpt>
      <trkpt lat="42.88264" lon="0.11576">
        <ele>1792</ele>
        <time>2021-03-25T11:20:30Z</time>
      </trkpt>
      <trkpt lat="42.88264" lon="0.11578">
        <ele>1792.1</ele>
        <time>2021-03-25T11:20:31Z</time>
      </trkpt>
      <trkpt lat="42.88264" lon="0.1158">
        <ele>1792.2</ele>
        <time>2021-03-25T11:20:32Z</time>
      </trkpt>
      <trkpt lat="42.88263" lon="0.11583">
        <ele>1792.3</ele>
        <time>2021-03-25T11:20:34Z</time>
      </trkpt>
      <trkpt lat="42.88261" lon="0.11585">
        <ele>1792.4</ele>
        <time>2021-03-25T11:20:36Z</time>
      </trkpt>
      <trkpt lat="42.88261" lon="0.11587">
        <ele>1792.5</ele>
        <time>2021-03-25T11:20:37Z</time>
      </trkpt>
      <trkpt lat="42.8826" lon="0.11588">
        <ele>1792.6</ele>
        <time>2021-03-25T11:20:38Z</time>
      </trkpt>
      <trkpt lat="42.88258" lon="0.11589">
        <ele>1792.6</ele>
        <time>2021-03-25T11:20:40Z</time>
      </trkpt>
      <trkpt lat="42.88258" lon="0.11591">
        <ele>1792.7</ele>
        <time>2021-03-25T11:20:41Z</time>
      </trkpt>
      <trkpt lat="42.88257" lon="0.11592">
        <ele>1792.7</ele>
        <time>2021-03-25T11:20:42Z</time>
      </trkpt>
      <trkpt lat="42.88257" lon="0.11594">
        <ele>1792.8</ele>
        <time>2021-03-25T11:20:44Z</time>
      </trkpt>
      <trkpt lat="42.88256" lon="0.11595">
        <ele>1792.8</ele>
        <time>2021-03-25T11:20:45Z</time>
      </trkpt>
      <trkpt lat="42.88255" lon="0.11596">
        <ele>1792.9</ele>
        <time>2021-03-25T11:20:46Z</time>
      </trkpt>
      <trkpt lat="42.88254" lon="0.11597">
        <ele>1792.9</ele>
        <time>2021-03-25T11:20:48Z</time>
      </trkpt>
      <trkpt lat="42.88253" lon="0.11598">
        <ele>1793</ele>
        <time>2021-03-25T11:20:49Z</time>
      </trkpt>
      <trkpt lat="42.88253" lon="0.11598">
        <ele>1793</ele>
        <time>2021-03-25T11:20:50Z</time>
      </trkpt>
      <trkpt lat="42.88253" lon="0.11599">
        <ele>1793</ele>
        <time>2021-03-25T11:20:52Z</time>
      </trkpt>
      <trkpt lat="42.88253" lon="0.11601">
        <ele>1793.1</ele>
        <time>2021-03-25T11:20:53Z</time>
      </trkpt>
      <trkpt lat="42.88253" lon="0.11602">
        <ele>1793.1</ele>
        <time>2021-03-25T11:20:54Z</time>
      </trkpt>
      <trkpt lat="42.88254" lon="0.11603">
        <ele>1793.1</ele>
        <time>2021-03-25T11:20:56Z</time>
      </trkpt>
      <trkpt lat="42.88254" lon="0.11605">
        <ele>1793.2</ele>
        <time>2021-03-25T11:20:57Z</time>
      </trkpt>
      <trkpt lat="42.88254" lon="0.11605">
        <ele>1793.2</ele>
        <time>2021-03-25T11:20:58Z</time>
      </trkpt>
      <trkpt lat="42.88254" lon="0.11608">
        <ele>1793.3</ele>
        <time>2021-03-25T11:21:00Z</time>
      </trkpt>
      <trkpt lat="42.88255" lon="0.11611">
        <ele>1793.4</ele>
        <time>2021-03-25T11:21:02Z</time>
      </trkpt>
      <trkpt lat="42.88255" lon="0.11612">
        <ele>1793.4</ele>
        <time>2021-03-25T11:21:03Z</time>
      </trkpt>
      <trkpt lat="42.88256" lon="0.11612">
        <ele>1793.4</ele>
        <time>2021-03-25T11:21:04Z</time>
      </trkpt>
      <trkpt lat="42.88256" lon="0.11612">
        <ele>1793.4</ele>
        <time>2021-03-25T11:21:05Z</time>
      </trkpt>
      <trkpt lat="42.88257" lon="0.11612">
        <ele>1793.4</ele>
        <time>2021-03-25T11:21:06Z</time>
      </trkpt>
      <trkpt lat="42.88258" lon="0.11612">
        <ele>1793.5</ele>
        <time>2021-03-25T11:21:08Z</time>
      </trkpt>
      <trkpt lat="42.88258" lon="0.11612">
        <ele>1793.5</ele>
        <time>2021-03-25T11:21:09Z</time>
      </trkpt>
      <trkpt lat="42.8826" lon="0.11613">
        <ele>1793.6</ele>
        <time>2021-03-25T11:21:11Z</time>
      </trkpt>
      <trkpt lat="42.8826" lon="0.11614">
        <ele>1793.6</ele>
        <time>2021-03-25T11:21:12Z</time>
      </trkpt>
      <trkpt lat="42.88261" lon="0.11615">
        <ele>1793.7</ele>
        <time>2021-03-25T11:21:14Z</time>
      </trkpt>
      <trkpt lat="42.88262" lon="0.11616">
        <ele>1793.7</ele>
        <time>2021-03-25T11:21:15Z</time>
      </trkpt>
      <trkpt lat="42.88263" lon="0.11618">
        <ele>1793.8</ele>
        <time>2021-03-25T11:21:16Z</time>
      </trkpt>
      <trkpt lat="42.88264" lon="0.1162">
        <ele>1794</ele>
        <time>2021-03-25T11:21:18Z</time>
      </trkpt>
      <trkpt lat="42.88265" lon="0.11623">
        <ele>1794.1</ele>
        <time>2021-03-25T11:21:19Z</time>
      </trkpt>
      <trkpt lat="42.88265" lon="0.11624">
        <ele>1794.2</ele>
        <time>2021-03-25T11:21:21Z</time>
      </trkpt>
      <trkpt lat="42.88265" lon="0.11625">
        <ele>1794.2</ele>
        <time>2021-03-25T11:21:22Z</time>
      </trkpt>
      <trkpt lat="42.88266" lon="0.11628">
        <ele>1794.4</ele>
        <time>2021-03-25T11:21:23Z</time>
      </trkpt>
      <trkpt lat="42.88266" lon="0.1163">
        <ele>1794.5</ele>
        <time>2021-03-25T11:21:25Z</time>
      </trkpt>
      <trkpt lat="42.88266" lon="0.11631">
        <ele>1794.6</ele>
        <time>2021-03-25T11:21:26Z</time>
      </trkpt>
      <trkpt lat="42.88268" lon="0.11635">
        <ele>1794.9</ele>
        <time>2021-03-25T11:21:27Z</time>
      </trkpt>
      <trkpt lat="42.88268" lon="0.11637">
        <ele>1795</ele>
        <time>2021-03-25T11:21:28Z</time>
      </trkpt>
      <trkpt lat="42.88269" lon="0.1164">
        <ele>1795.3</ele>
        <time>2021-03-25T11:21:30Z</time>
      </trkpt>
      <trkpt lat="42.8827" lon="0.11643">
        <ele>1795.6</ele>
        <time>2021-03-25T11:21:32Z</time>
      </trkpt>
      <trkpt lat="42.88271" lon="0.11646">
        <ele>1795.9</ele>
        <time>2021-03-25T11:21:33Z</time>
      </trkpt>
      <trkpt lat="42.88272" lon="0.11648">
        <ele>1796.1</ele>
        <time>2021-03-25T11:21:35Z</time>
      </trkpt>
      <trkpt lat="42.88272" lon="0.11648">
        <ele>1796.2</ele>
        <time>2021-03-25T11:21:36Z</time>
      </trkpt>
      <trkpt lat="42.88272" lon="0.11649">
        <ele>1796.2</ele>
        <time>2021-03-25T11:21:37Z</time>
      </trkpt>
      <trkpt lat="42.88273" lon="0.1165">
        <ele>1796.4</ele>
        <time>2021-03-25T11:21:39Z</time>
      </trkpt>
      <trkpt lat="42.88274" lon="0.11651">
        <ele>1796.6</ele>
        <time>2021-03-25T11:21:40Z</time>
      </trkpt>
      <trkpt lat="42.88275" lon="0.11653">
        <ele>1796.7</ele>
        <time>2021-03-25T11:21:41Z</time>
      </trkpt>
      <trkpt lat="42.88276" lon="0.11654">
        <ele>1796.9</ele>
        <time>2021-03-25T11:21:42Z</time>
      </trkpt>
      <trkpt lat="42.88276" lon="0.11655">
        <ele>1797</ele>
        <time>2021-03-25T11:21:44Z</time>
      </trkpt>
      <trkpt lat="42.88277" lon="0.11656">
        <ele>1797.2</ele>
        <time>2021-03-25T11:21:45Z</time>
      </trkpt>
      <trkpt lat="42.88275" lon="0.11655">
        <ele>1797.4</ele>
        <time>2021-03-25T11:21:46Z</time>
      </trkpt>
      <trkpt lat="42.88274" lon="0.11655">
        <ele>1797.6</ele>
        <time>2021-03-25T11:21:48Z</time>
      </trkpt>
      <trkpt lat="42.88273" lon="0.11654">
        <ele>1797.7</ele>
        <time>2021-03-25T11:21:50Z</time>
      </trkpt>
      <trkpt lat="42.88272" lon="0.11654">
        <ele>1797.9</ele>
        <time>2021-03-25T11:21:51Z</time>
      </trkpt>
      <trkpt lat="42.88271" lon="0.11653">
        <ele>1798.1</ele>
        <time>2021-03-25T11:21:53Z</time>
      </trkpt>
      <trkpt lat="42.8827" lon="0.11653">
        <ele>1798.2</ele>
        <time>2021-03-25T11:21:54Z</time>
      </trkpt>
      <trkpt lat="42.88268" lon="0.11656">
        <ele>1798.7</ele>
        <time>2021-03-25T11:21:55Z</time>
      </trkpt>
      <trkpt lat="42.88265" lon="0.11661">
        <ele>1799.2</ele>
        <time>2021-03-25T11:21:57Z</time>
      </trkpt>
      <trkpt lat="42.88263" lon="0.11663">
        <ele>1799.6</ele>
        <time>2021-03-25T11:21:58Z</time>
      </trkpt>
      <trkpt lat="42.8826" lon="0.11668">
        <ele>1800.4</ele>
        <time>2021-03-25T11:22:00Z</time>
      </trkpt>
      <trkpt lat="42.88259" lon="0.1167">
        <ele>1800.6</ele>
        <time>2021-03-25T11:22:02Z</time>
      </trkpt>
      <trkpt lat="42.88257" lon="0.11671">
        <ele>1800.8</ele>
        <time>2021-03-25T11:22:03Z</time>
      </trkpt>
      <trkpt lat="42.88256" lon="0.11672">
        <ele>1801</ele>
        <time>2021-03-25T11:22:05Z</time>
      </trkpt>
      <trkpt lat="42.88255" lon="0.11671">
        <ele>1801.1</ele>
        <time>2021-03-25T11:22:07Z</time>
      </trkpt>
      <trkpt lat="42.88254" lon="0.11671">
        <ele>1801.3</ele>
        <time>2021-03-25T11:22:08Z</time>
      </trkpt>
      <trkpt lat="42.88253" lon="0.11672">
        <ele>1801.5</ele>
        <time>2021-03-25T11:22:10Z</time>
      </trkpt>
      <trkpt lat="42.88252" lon="0.11673">
        <ele>1801.7</ele>
        <time>2021-03-25T11:22:11Z</time>
      </trkpt>
      <trkpt lat="42.8825" lon="0.11675">
        <ele>1802</ele>
        <time>2021-03-25T11:22:13Z</time>
      </trkpt>
      <trkpt lat="42.8825" lon="0.11676">
        <ele>1802.1</ele>
        <time>2021-03-25T11:22:15Z</time>
      </trkpt>
      <trkpt lat="42.88251" lon="0.11674">
        <ele>1802.3</ele>
        <time>2021-03-25T11:22:16Z</time>
      </trkpt>
      <trkpt lat="42.88251" lon="0.11672">
        <ele>1802.5</ele>
        <time>2021-03-25T11:22:17Z</time>
      </trkpt>
      <trkpt lat="42.88251" lon="0.11671">
        <ele>1802.7</ele>
        <time>2021-03-25T11:22:19Z</time>
      </trkpt>
      <trkpt lat="42.88251" lon="0.11669">
        <ele>1802.9</ele>
        <time>2021-03-25T11:22:21Z</time>
      </trkpt>
      <trkpt lat="42.88251" lon="0.11669">
        <ele>1802.9</ele>
        <time>2021-03-25T11:22:22Z</time>
      </trkpt>
      <trkpt lat="42.88251" lon="0.11669">
        <ele>1803</ele>
        <time>2021-03-25T11:22:23Z</time>
      </trkpt>
      <trkpt lat="42.88251" lon="0.11669">
        <ele>1803</ele>
        <time>2021-03-25T11:22:24Z</time>
      </trkpt>
      <trkpt lat="42.88251" lon="0.1167">
        <ele>1803.1</ele>
        <time>2021-03-25T11:22:26Z</time>
      </trkpt>
      <trkpt lat="42.88251" lon="0.1167">
        <ele>1803.1</ele>
        <time>2021-03-25T11:22:27Z</time>
      </trkpt>
      <trkpt lat="42.88251" lon="0.11671">
        <ele>1803.2</ele>
        <time>2021-03-25T11:22:28Z</time>
      </trkpt>
      <trkpt lat="42.88251" lon="0.11671">
        <ele>1803.3</ele>
        <time>2021-03-25T11:22:29Z</time>
      </trkpt>
      <trkpt lat="42.88251" lon="0.11672">
        <ele>1803.4</ele>
        <time>2021-03-25T11:22:31Z</time>
      </trkpt>
      <trkpt lat="42.88251" lon="0.11673">
        <ele>1803.6</ele>
        <time>2021-03-25T11:22:32Z</time>
      </trkpt>
      <trkpt lat="42.88251" lon="0.11675">
        <ele>1803.8</ele>
        <time>2021-03-25T11:22:34Z</time>
      </trkpt>
      <trkpt lat="42.88251" lon="0.11677">
        <ele>1804</ele>
        <time>2021-03-25T11:22:36Z</time>
      </trkpt>
      <trkpt lat="42.88251" lon="0.11678">
        <ele>1804.2</ele>
        <time>2021-03-25T11:22:37Z</time>
      </trkpt>
      <trkpt lat="42.88251" lon="0.1168">
        <ele>1804.4</ele>
        <time>2021-03-25T11:22:39Z</time>
      </trkpt>
      <trkpt lat="42.8825" lon="0.11682">
        <ele>1804.7</ele>
        <time>2021-03-25T11:22:41Z</time>
      </trkpt>
      <trkpt lat="42.8825" lon="0.11684">
        <ele>1804.9</ele>
        <time>2021-03-25T11:22:43Z</time>
      </trkpt>
      <trkpt lat="42.8825" lon="0.11685">
        <ele>1805.2</ele>
        <time>2021-03-25T11:22:45Z</time>
      </trkpt>
      <trkpt lat="42.8825" lon="0.11686">
        <ele>1805.3</ele>
        <time>2021-03-25T11:22:47Z</time>
      </trkpt>
      <trkpt lat="42.8825" lon="0.11687">
        <ele>1805.4</ele>
        <time>2021-03-25T11:22:48Z</time>
      </trkpt>
      <trkpt lat="42.8825" lon="0.11688">
        <ele>1805.5</ele>
        <time>2021-03-25T11:22:49Z</time>
      </trkpt>
      <trkpt lat="42.8825" lon="0.11688">
        <ele>1805.6</ele>
        <time>2021-03-25T11:22:50Z</time>
      </trkpt>
      <trkpt lat="42.8825" lon="0.11689">
        <ele>1805.7</ele>
        <time>2021-03-25T11:22:51Z</time>
      </trkpt>
      <trkpt lat="42.88249" lon="0.1169">
        <ele>1805.9</ele>
        <time>2021-03-25T11:22:53Z</time>
      </trkpt>
      <trkpt lat="42.88249" lon="0.11691">
        <ele>1806</ele>
        <time>2021-03-25T11:22:54Z</time>
      </trkpt>
      <trkpt lat="42.88249" lon="0.11692">
        <ele>1806.1</ele>
        <time>2021-03-25T11:22:55Z</time>
      </trkpt>
      <trkpt lat="42.88249" lon="0.11693">
        <ele>1806.3</ele>
        <time>2021-03-25T11:22:56Z</time>
      </trkpt>
      <trkpt lat="42.88248" lon="0.11694">
        <ele>1806.5</ele>
        <time>2021-03-25T11:22:58Z</time>
      </trkpt>
      <trkpt lat="42.88248" lon="0.11695">
        <ele>1806.7</ele>
        <time>2021-03-25T11:23:00Z</time>
      </trkpt>
      <trkpt lat="42.88247" lon="0.11695">
        <ele>1806.8</ele>
        <time>2021-03-25T11:23:01Z</time>
      </trkpt>
      <trkpt lat="42.88247" lon="0.11696">
        <ele>1807</ele>
        <time>2021-03-25T11:23:03Z</time>
      </trkpt>
      <trkpt lat="42.88246" lon="0.11697">
        <ele>1807.2</ele>
        <time>2021-03-25T11:23:04Z</time>
      </trkpt>
      <trkpt lat="42.88245" lon="0.11698">
        <ele>1807.4</ele>
        <time>2021-03-25T11:23:06Z</time>
      </trkpt>
      <trkpt lat="42.88245" lon="0.11699">
        <ele>1807.6</ele>
        <time>2021-03-25T11:23:07Z</time>
      </trkpt>
      <trkpt lat="42.88244" lon="0.117">
        <ele>1807.8</ele>
        <time>2021-03-25T11:23:08Z</time>
      </trkpt>
      <trkpt lat="42.88243" lon="0.11702">
        <ele>1808.1</ele>
        <time>2021-03-25T11:23:10Z</time>
      </trkpt>
      <trkpt lat="42.88242" lon="0.11704">
        <ele>1808.5</ele>
        <time>2021-03-25T11:23:12Z</time>
      </trkpt>
      <trkpt lat="42.88242" lon="0.11706">
        <ele>1808.8</ele>
        <time>2021-03-25T11:23:14Z</time>
      </trkpt>
      <trkpt lat="42.88242" lon="0.11706">
        <ele>1808.9</ele>
        <time>2021-03-25T11:23:15Z</time>
      </trkpt>
      <trkpt lat="42.88242" lon="0.11707">
        <ele>1809</ele>
        <time>2021-03-25T11:23:17Z</time>
      </trkpt>
      <trkpt lat="42.88243" lon="0.11708">
        <ele>1809.2</ele>
        <time>2021-03-25T11:23:18Z</time>
      </trkpt>
      <trkpt lat="42.88243" lon="0.11709">
        <ele>1809.4</ele>
        <time>2021-03-25T11:23:19Z</time>
      </trkpt>
      <trkpt lat="42.88244" lon="0.1171">
        <ele>1809.6</ele>
        <time>2021-03-25T11:23:20Z</time>
      </trkpt>
      <trkpt lat="42.88244" lon="0.11711">
        <ele>1809.7</ele>
        <time>2021-03-25T11:23:22Z</time>
      </trkpt>
      <trkpt lat="42.88243" lon="0.11708">
        <ele>1810.1</ele>
        <time>2021-03-25T11:23:24Z</time>
      </trkpt>
      <trkpt lat="42.88243" lon="0.11708">
        <ele>1810.2</ele>
        <time>2021-03-25T11:23:25Z</time>
      </trkpt>
      <trkpt lat="42.88242" lon="0.11707">
        <ele>1810.3</ele>
        <time>2021-03-25T11:23:27Z</time>
      </trkpt>
      <trkpt lat="42.88242" lon="0.11706">
        <ele>1810.4</ele>
        <time>2021-03-25T11:23:28Z</time>
      </trkpt>
      <trkpt lat="42.88242" lon="0.11706">
        <ele>1810.4</ele>
        <time>2021-03-25T11:23:29Z</time>
      </trkpt>
      <trkpt lat="42.88242" lon="0.11706">
        <ele>1810.5</ele>
        <time>2021-03-25T11:23:31Z</time>
      </trkpt>
      <trkpt lat="42.88243" lon="0.11707">
        <ele>1810.6</ele>
        <time>2021-03-25T11:23:32Z</time>
      </trkpt>
      <trkpt lat="42.88243" lon="0.11708">
        <ele>1810.8</ele>
        <time>2021-03-25T11:23:34Z</time>
      </trkpt>
      <trkpt lat="42.88243" lon="0.11709">
        <ele>1811</ele>
        <time>2021-03-25T11:23:35Z</time>
      </trkpt>
      <trkpt lat="42.88244" lon="0.1171">
        <ele>1811.1</ele>
        <time>2021-03-25T11:23:36Z</time>
      </trkpt>
      <trkpt lat="42.88244" lon="0.11711">
        <ele>1811.3</ele>
        <time>2021-03-25T11:23:38Z</time>
      </trkpt>
      <trkpt lat="42.88246" lon="0.11712">
        <ele>1811.6</ele>
        <time>2021-03-25T11:23:40Z</time>
      </trkpt>
      <trkpt lat="42.88247" lon="0.11713">
        <ele>1811.8</ele>
        <time>2021-03-25T11:23:42Z</time>
      </trkpt>
      <trkpt lat="42.88247" lon="0.11713">
        <ele>1811.9</ele>
        <time>2021-03-25T11:23:43Z</time>
      </trkpt>
      <trkpt lat="42.88247" lon="0.11712">
        <ele>1812</ele>
        <time>2021-03-25T11:23:45Z</time>
      </trkpt>
      <trkpt lat="42.88247" lon="0.11712">
        <ele>1812.1</ele>
        <time>2021-03-25T11:23:46Z</time>
      </trkpt>
      <trkpt lat="42.88246" lon="0.1171">
        <ele>1812.4</ele>
        <time>2021-03-25T11:23:48Z</time>
      </trkpt>
      <trkpt lat="42.88245" lon="0.11709">
        <ele>1812.6</ele>
        <time>2021-03-25T11:23:50Z</time>
      </trkpt>
      <trkpt lat="42.88245" lon="0.11709">
        <ele>1812.6</ele>
        <time>2021-03-25T11:23:51Z</time>
      </trkpt>
      <trkpt lat="42.88245" lon="0.11709">
        <ele>1812.6</ele>
        <time>2021-03-25T11:23:53Z</time>
      </trkpt>
      <trkpt lat="42.88245" lon="0.11709">
        <ele>1812.7</ele>
        <time>2021-03-25T11:23:54Z</time>
      </trkpt>
      <trkpt lat="42.88246" lon="0.1171">
        <ele>1812.9</ele>
        <time>2021-03-25T11:23:55Z</time>
      </trkpt>
      <trkpt lat="42.88246" lon="0.11712">
        <ele>1813.2</ele>
        <time>2021-03-25T11:23:57Z</time>
      </trkpt>
      <trkpt lat="42.88246" lon="0.11714">
        <ele>1813.4</ele>
        <time>2021-03-25T11:23:58Z</time>
      </trkpt>
      <trkpt lat="42.88245" lon="0.11715">
        <ele>1813.6</ele>
        <time>2021-03-25T11:23:59Z</time>
      </trkpt>
      <trkpt lat="42.88244" lon="0.11717">
        <ele>1813.9</ele>
        <time>2021-03-25T11:24:01Z</time>
      </trkpt>
      <trkpt lat="42.88242" lon="0.11721">
        <ele>1814.4</ele>
        <time>2021-03-25T11:24:02Z</time>
      </trkpt>
      <trkpt lat="42.88242" lon="0.11722">
        <ele>1814.5</ele>
        <time>2021-03-25T11:24:03Z</time>
      </trkpt>
      <trkpt lat="42.88239" lon="0.11729">
        <ele>1815.4</ele>
        <time>2021-03-25T11:24:05Z</time>
      </trkpt>
      <trkpt lat="42.88237" lon="0.11733">
        <ele>1816</ele>
        <time>2021-03-25T11:24:06Z</time>
      </trkpt>
      <trkpt lat="42.88236" lon="0.11738">
        <ele>1816.6</ele>
        <time>2021-03-25T11:24:08Z</time>
      </trkpt>
      <trkpt lat="42.88234" lon="0.11741">
        <ele>1817</ele>
        <time>2021-03-25T11:24:09Z</time>
      </trkpt>
      <trkpt lat="42.88232" lon="0.11745">
        <ele>1817.6</ele>
        <time>2021-03-25T11:24:11Z</time>
      </trkpt>
      <trkpt lat="42.88231" lon="0.11747">
        <ele>1817.8</ele>
        <time>2021-03-25T11:24:12Z</time>
      </trkpt>
      <trkpt lat="42.8823" lon="0.11749">
        <ele>1818.2</ele>
        <time>2021-03-25T11:24:14Z</time>
      </trkpt>
      <trkpt lat="42.88229" lon="0.1175">
        <ele>1818.3</ele>
        <time>2021-03-25T11:24:15Z</time>
      </trkpt>
      <trkpt lat="42.88229" lon="0.11751">
        <ele>1818.4</ele>
        <time>2021-03-25T11:24:17Z</time>
      </trkpt>
      <trkpt lat="42.88229" lon="0.1175">
        <ele>1818.5</ele>
        <time>2021-03-25T11:24:18Z</time>
      </trkpt>
      <trkpt lat="42.88229" lon="0.11749">
        <ele>1818.6</ele>
        <time>2021-03-25T11:24:19Z</time>
      </trkpt>
      <trkpt lat="42.88229" lon="0.11748">
        <ele>1818.7</ele>
        <time>2021-03-25T11:24:21Z</time>
      </trkpt>
      <trkpt lat="42.88229" lon="0.11748">
        <ele>1818.8</ele>
        <time>2021-03-25T11:24:22Z</time>
      </trkpt>
      <trkpt lat="42.8823" lon="0.11747">
        <ele>1818.8</ele>
        <time>2021-03-25T11:24:23Z</time>
      </trkpt>
      <trkpt lat="42.8823" lon="0.11746">
        <ele>1819</ele>
        <time>2021-03-25T11:24:25Z</time>
      </trkpt>
      <trkpt lat="42.88231" lon="0.11745">
        <ele>1819.1</ele>
        <time>2021-03-25T11:24:26Z</time>
      </trkpt>
      <trkpt lat="42.88231" lon="0.11745">
        <ele>1819.2</ele>
        <time>2021-03-25T11:24:27Z</time>
      </trkpt>
      <trkpt lat="42.88232" lon="0.11744">
        <ele>1819.3</ele>
        <time>2021-03-25T11:24:29Z</time>
      </trkpt>
      <trkpt lat="42.88232" lon="0.11744">
        <ele>1819.4</ele>
        <time>2021-03-25T11:24:31Z</time>
      </trkpt>
      <trkpt lat="42.88232" lon="0.11745">
        <ele>1819.4</ele>
        <time>2021-03-25T11:24:32Z</time>
      </trkpt>
      <trkpt lat="42.88233" lon="0.11745">
        <ele>1819.5</ele>
        <time>2021-03-25T11:24:33Z</time>
      </trkpt>
      <trkpt lat="42.88233" lon="0.11745">
        <ele>1819.5</ele>
        <time>2021-03-25T11:24:34Z</time>
      </trkpt>
      <trkpt lat="42.88233" lon="0.11746">
        <ele>1819.6</ele>
        <time>2021-03-25T11:24:35Z</time>
      </trkpt>
      <trkpt lat="42.88233" lon="0.11746">
        <ele>1819.6</ele>
        <time>2021-03-25T11:24:37Z</time>
      </trkpt>
      <trkpt lat="42.88233" lon="0.11746">
        <ele>1819.6</ele>
        <time>2021-03-25T11:24:38Z</time>
      </trkpt>
      <trkpt lat="42.88233" lon="0.11746">
        <ele>1819.6</ele>
        <time>2021-03-25T11:24:39Z</time>
      </trkpt>
      <trkpt lat="42.88233" lon="0.11746">
        <ele>1819.6</ele>
        <time>2021-03-25T11:24:41Z</time>
      </trkpt>
      <trkpt lat="42.88233" lon="0.11746">
        <ele>1819.7</ele>
        <time>2021-03-25T11:24:43Z</time>
      </trkpt>
      <trkpt lat="42.88233" lon="0.11746">
        <ele>1819.7</ele>
        <time>2021-03-25T11:24:44Z</time>
      </trkpt>
      <trkpt lat="42.88233" lon="0.11746">
        <ele>1819.7</ele>
        <time>2021-03-25T11:24:45Z</time>
      </trkpt>
      <trkpt lat="42.88233" lon="0.11746">
        <ele>1819.7</ele>
        <time>2021-03-25T11:24:46Z</time>
      </trkpt>
      <trkpt lat="42.88233" lon="0.11746">
        <ele>1819.7</ele>
        <time>2021-03-25T11:24:48Z</time>
      </trkpt>
      <trkpt lat="42.88233" lon="0.11746">
        <ele>1819.7</ele>
        <time>2021-03-25T11:24:49Z</time>
      </trkpt>
      <trkpt lat="42.88233" lon="0.11746">
        <ele>1819.7</ele>
        <time>2021-03-25T11:24:51Z</time>
      </trkpt>
      <trkpt lat="42.88233" lon="0.11746">
        <ele>1819.7</ele>
        <time>2021-03-25T11:24:52Z</time>
      </trkpt>
      <trkpt lat="42.88233" lon="0.11746">
        <ele>1819.8</ele>
        <time>2021-03-25T11:24:54Z</time>
      </trkpt>
      <trkpt lat="42.88234" lon="0.11746">
        <ele>1819.8</ele>
        <time>2021-03-25T11:24:55Z</time>
      </trkpt>
      <trkpt lat="42.88234" lon="0.11746">
        <ele>1819.8</ele>
        <time>2021-03-25T11:24:56Z</time>
      </trkpt>
      <trkpt lat="42.88233" lon="0.11747">
        <ele>1819.9</ele>
        <time>2021-03-25T11:24:57Z</time>
      </trkpt>
      <trkpt lat="42.88233" lon="0.11747">
        <ele>1820</ele>
        <time>2021-03-25T11:24:59Z</time>
      </trkpt>
      <trkpt lat="42.88232" lon="0.11747">
        <ele>1820.1</ele>
        <time>2021-03-25T11:25:00Z</time>
      </trkpt>
      <trkpt lat="42.88232" lon="0.11748">
        <ele>1820.2</ele>
        <time>2021-03-25T11:25:01Z</time>
      </trkpt>
      <trkpt lat="42.88231" lon="0.11748">
        <ele>1820.2</ele>
        <time>2021-03-25T11:25:02Z</time>
      </trkpt>
      <trkpt lat="42.88231" lon="0.11749">
        <ele>1820.3</ele>
        <time>2021-03-25T11:25:03Z</time>
      </trkpt>
      <trkpt lat="42.88231" lon="0.11749">
        <ele>1820.4</ele>
        <time>2021-03-25T11:25:04Z</time>
      </trkpt>
      <trkpt lat="42.8823" lon="0.1175">
        <ele>1820.5</ele>
        <time>2021-03-25T11:25:06Z</time>
      </trkpt>
      <trkpt lat="42.8823" lon="0.1175">
        <ele>1820.6</ele>
        <time>2021-03-25T11:25:07Z</time>
      </trkpt>
      <trkpt lat="42.8823" lon="0.11751">
        <ele>1820.6</ele>
        <time>2021-03-25T11:25:09Z</time>
      </trkpt>
      <trkpt lat="42.88229" lon="0.11751">
        <ele>1820.7</ele>
        <time>2021-03-25T11:25:10Z</time>
      </trkpt>
      <trkpt lat="42.88229" lon="0.11751">
        <ele>1820.7</ele>
        <time>2021-03-25T11:25:12Z</time>
      </trkpt>
      <trkpt lat="42.88229" lon="0.11752">
        <ele>1820.8</ele>
        <time>2021-03-25T11:25:14Z</time>
      </trkpt>
      <trkpt lat="42.88229" lon="0.11752">
        <ele>1820.8</ele>
        <time>2021-03-25T11:25:15Z</time>
      </trkpt>
      <trkpt lat="42.8823" lon="0.11753">
        <ele>1820.9</ele>
        <time>2021-03-25T11:25:17Z</time>
      </trkpt>
      <trkpt lat="42.8823" lon="0.11753">
        <ele>1821</ele>
        <time>2021-03-25T11:25:18Z</time>
      </trkpt>
      <trkpt lat="42.8823" lon="0.11753">
        <ele>1821</ele>
        <time>2021-03-25T11:25:20Z</time>
      </trkpt>
      <trkpt lat="42.8823" lon="0.11754">
        <ele>1821</ele>
        <time>2021-03-25T11:25:21Z</time>
      </trkpt>
      <trkpt lat="42.8823" lon="0.11754">
        <ele>1821.1</ele>
        <time>2021-03-25T11:25:22Z</time>
      </trkpt>
      <trkpt lat="42.8823" lon="0.11754">
        <ele>1821.1</ele>
        <time>2021-03-25T11:25:24Z</time>
      </trkpt>
      <trkpt lat="42.8823" lon="0.11755">
        <ele>1821.1</ele>
        <time>2021-03-25T11:25:25Z</time>
      </trkpt>
      <trkpt lat="42.8823" lon="0.11755">
        <ele>1821.2</ele>
        <time>2021-03-25T11:25:26Z</time>
      </trkpt>
      <trkpt lat="42.8823" lon="0.11755">
        <ele>1821.2</ele>
        <time>2021-03-25T11:25:28Z</time>
      </trkpt>
      <trkpt lat="42.88229" lon="0.11756">
        <ele>1821.3</ele>
        <time>2021-03-25T11:25:29Z</time>
      </trkpt>
      <trkpt lat="42.88229" lon="0.11756">
        <ele>1821.4</ele>
        <time>2021-03-25T11:25:30Z</time>
      </trkpt>
      <trkpt lat="42.8823" lon="0.11756">
        <ele>1821.4</ele>
        <time>2021-03-25T11:25:32Z</time>
      </trkpt>
      <trkpt lat="42.8823" lon="0.11756">
        <ele>1821.5</ele>
        <time>2021-03-25T11:25:33Z</time>
      </trkpt>
      <trkpt lat="42.8823" lon="0.11757">
        <ele>1821.5</ele>
        <time>2021-03-25T11:25:34Z</time>
      </trkpt>
      <trkpt lat="42.8823" lon="0.11757">
        <ele>1821.6</ele>
        <time>2021-03-25T11:25:35Z</time>
      </trkpt>
      <trkpt lat="42.8823" lon="0.11757">
        <ele>1821.6</ele>
        <time>2021-03-25T11:25:36Z</time>
      </trkpt>
      <trkpt lat="42.88231" lon="0.11758">
        <ele>1821.6</ele>
        <time>2021-03-25T11:25:38Z</time>
      </trkpt>
      <trkpt lat="42.88231" lon="0.11758">
        <ele>1821.7</ele>
        <time>2021-03-25T11:25:39Z</time>
      </trkpt>
      <trkpt lat="42.88231" lon="0.11759">
        <ele>1821.8</ele>
        <time>2021-03-25T11:25:41Z</time>
      </trkpt>
      <trkpt lat="42.88231" lon="0.1176">
        <ele>1821.9</ele>
        <time>2021-03-25T11:25:43Z</time>
      </trkpt>
      <trkpt lat="42.88232" lon="0.11761">
        <ele>1822.1</ele>
        <time>2021-03-25T11:25:44Z</time>
      </trkpt>
      <trkpt lat="42.88233" lon="0.11762">
        <ele>1822.3</ele>
        <time>2021-03-25T11:25:46Z</time>
      </trkpt>
      <trkpt lat="42.88234" lon="0.11763">
        <ele>1822.4</ele>
        <time>2021-03-25T11:25:47Z</time>
      </trkpt>
      <trkpt lat="42.88235" lon="0.11763">
        <ele>1822.5</ele>
        <time>2021-03-25T11:25:49Z</time>
      </trkpt>
      <trkpt lat="42.88235" lon="0.11763">
        <ele>1822.6</ele>
        <time>2021-03-25T11:25:51Z</time>
      </trkpt>
      <trkpt lat="42.88236" lon="0.11763">
        <ele>1822.6</ele>
        <time>2021-03-25T11:25:52Z</time>
      </trkpt>
      <trkpt lat="42.88236" lon="0.11763">
        <ele>1822.7</ele>
        <time>2021-03-25T11:25:53Z</time>
      </trkpt>
      <trkpt lat="42.88236" lon="0.11763">
        <ele>1822.7</ele>
        <time>2021-03-25T11:25:55Z</time>
      </trkpt>
      <trkpt lat="42.88236" lon="0.11763">
        <ele>1822.7</ele>
        <time>2021-03-25T11:25:56Z</time>
      </trkpt>
      <trkpt lat="42.88236" lon="0.11762">
        <ele>1822.8</ele>
        <time>2021-03-25T11:25:58Z</time>
      </trkpt>
      <trkpt lat="42.88235" lon="0.11762">
        <ele>1822.8</ele>
        <time>2021-03-25T11:25:59Z</time>
      </trkpt>
      <trkpt lat="42.88236" lon="0.11762">
        <ele>1822.8</ele>
        <time>2021-03-25T11:26:00Z</time>
      </trkpt>
      <trkpt lat="42.88236" lon="0.11763">
        <ele>1822.9</ele>
        <time>2021-03-25T11:26:01Z</time>
      </trkpt>
      <trkpt lat="42.88236" lon="0.11763">
        <ele>1822.9</ele>
        <time>2021-03-25T11:26:02Z</time>
      </trkpt>
      <trkpt lat="42.88237" lon="0.11764">
        <ele>1823</ele>
        <time>2021-03-25T11:26:04Z</time>
      </trkpt>
      <trkpt lat="42.88237" lon="0.11764">
        <ele>1823.1</ele>
        <time>2021-03-25T11:26:05Z</time>
      </trkpt>
      <trkpt lat="42.88238" lon="0.11765">
        <ele>1823.2</ele>
        <time>2021-03-25T11:26:07Z</time>
      </trkpt>
      <trkpt lat="42.88238" lon="0.11765">
        <ele>1823.2</ele>
        <time>2021-03-25T11:26:08Z</time>
      </trkpt>
      <trkpt lat="42.88238" lon="0.11765">
        <ele>1823.3</ele>
        <time>2021-03-25T11:26:10Z</time>
      </trkpt>
      <trkpt lat="42.88238" lon="0.11766">
        <ele>1823.3</ele>
        <time>2021-03-25T11:26:12Z</time>
      </trkpt>
      <trkpt lat="42.88237" lon="0.11766">
        <ele>1823.4</ele>
        <time>2021-03-25T11:26:13Z</time>
      </trkpt>
      <trkpt lat="42.88237" lon="0.11768">
        <ele>1823.5</ele>
        <time>2021-03-25T11:26:14Z</time>
      </trkpt>
      <trkpt lat="42.88236" lon="0.11769">
        <ele>1823.7</ele>
        <time>2021-03-25T11:26:16Z</time>
      </trkpt>
      <trkpt lat="42.88235" lon="0.11772">
        <ele>1824</ele>
        <time>2021-03-25T11:26:17Z</time>
      </trkpt>
      <trkpt lat="42.88234" lon="0.11774">
        <ele>1824.3</ele>
        <time>2021-03-25T11:26:19Z</time>
      </trkpt>
      <trkpt lat="42.88233" lon="0.11778">
        <ele>1824.7</ele>
        <time>2021-03-25T11:26:21Z</time>
      </trkpt>
      <trkpt lat="42.88233" lon="0.11779">
        <ele>1824.8</ele>
        <time>2021-03-25T11:26:22Z</time>
      </trkpt>
      <trkpt lat="42.88231" lon="0.11783">
        <ele>1825.4</ele>
        <time>2021-03-25T11:26:24Z</time>
      </trkpt>
      <trkpt lat="42.8823" lon="0.11784">
        <ele>1825.5</ele>
        <time>2021-03-25T11:26:25Z</time>
      </trkpt>
      <trkpt lat="42.88229" lon="0.11785">
        <ele>1825.8</ele>
        <time>2021-03-25T11:26:27Z</time>
      </trkpt>
      <trkpt lat="42.88228" lon="0.11787">
        <ele>1826</ele>
        <time>2021-03-25T11:26:28Z</time>
      </trkpt>
      <trkpt lat="42.88227" lon="0.11788">
        <ele>1826.1</ele>
        <time>2021-03-25T11:26:29Z</time>
      </trkpt>
      <trkpt lat="42.88226" lon="0.11789">
        <ele>1826.3</ele>
        <time>2021-03-25T11:26:31Z</time>
      </trkpt>
      <trkpt lat="42.88225" lon="0.11789">
        <ele>1826.4</ele>
        <time>2021-03-25T11:26:33Z</time>
      </trkpt>
      <trkpt lat="42.88225" lon="0.11788">
        <ele>1826.6</ele>
        <time>2021-03-25T11:26:34Z</time>
      </trkpt>
      <trkpt lat="42.88225" lon="0.11788">
        <ele>1826.6</ele>
        <time>2021-03-25T11:26:35Z</time>
      </trkpt>
      <trkpt lat="42.88225" lon="0.11786">
        <ele>1826.8</ele>
        <time>2021-03-25T11:26:36Z</time>
      </trkpt>
      <trkpt lat="42.88225" lon="0.11785">
        <ele>1826.9</ele>
        <time>2021-03-25T11:26:38Z</time>
      </trkpt>
      <trkpt lat="42.88225" lon="0.11785">
        <ele>1827</ele>
        <time>2021-03-25T11:26:39Z</time>
      </trkpt>
      <trkpt lat="42.88225" lon="0.11785">
        <ele>1827</ele>
        <time>2021-03-25T11:26:40Z</time>
      </trkpt>
      <trkpt lat="42.88226" lon="0.11786">
        <ele>1827.1</ele>
        <time>2021-03-25T11:26:42Z</time>
      </trkpt>
      <trkpt lat="42.88226" lon="0.11786">
        <ele>1827.1</ele>
        <time>2021-03-25T11:26:43Z</time>
      </trkpt>
      <trkpt lat="42.88226" lon="0.11787">
        <ele>1827.2</ele>
        <time>2021-03-25T11:26:44Z</time>
      </trkpt>
      <trkpt lat="42.88227" lon="0.11787">
        <ele>1827.3</ele>
        <time>2021-03-25T11:26:46Z</time>
      </trkpt>
      <trkpt lat="42.88227" lon="0.11788">
        <ele>1827.4</ele>
        <time>2021-03-25T11:26:47Z</time>
      </trkpt>
      <trkpt lat="42.88227" lon="0.11789">
        <ele>1827.5</ele>
        <time>2021-03-25T11:26:49Z</time>
      </trkpt>
      <trkpt lat="42.88228" lon="0.1179">
        <ele>1827.7</ele>
        <time>2021-03-25T11:26:50Z</time>
      </trkpt>
      <trkpt lat="42.88228" lon="0.11791">
        <ele>1827.9</ele>
        <time>2021-03-25T11:26:52Z</time>
      </trkpt>
      <trkpt lat="42.88228" lon="0.11792">
        <ele>1828</ele>
        <time>2021-03-25T11:26:53Z</time>
      </trkpt>
      <trkpt lat="42.88229" lon="0.11793">
        <ele>1828.2</ele>
        <time>2021-03-25T11:26:54Z</time>
      </trkpt>
      <trkpt lat="42.8823" lon="0.11794">
        <ele>1828.3</ele>
        <time>2021-03-25T11:26:55Z</time>
      </trkpt>
      <trkpt lat="42.8823" lon="0.11795">
        <ele>1828.5</ele>
        <time>2021-03-25T11:26:57Z</time>
      </trkpt>
      <trkpt lat="42.88231" lon="0.11796">
        <ele>1828.6</ele>
        <time>2021-03-25T11:26:58Z</time>
      </trkpt>
      <trkpt lat="42.88231" lon="0.11797">
        <ele>1828.8</ele>
        <time>2021-03-25T11:26:59Z</time>
      </trkpt>
      <trkpt lat="42.88231" lon="0.11798">
        <ele>1828.9</ele>
        <time>2021-03-25T11:27:00Z</time>
      </trkpt>
      <trkpt lat="42.88231" lon="0.11798">
        <ele>1828.9</ele>
        <time>2021-03-25T11:27:01Z</time>
      </trkpt>
      <trkpt lat="42.88232" lon="0.11799">
        <ele>1829.1</ele>
        <time>2021-03-25T11:27:03Z</time>
      </trkpt>
      <trkpt lat="42.88233" lon="0.118">
        <ele>1829.3</ele>
        <time>2021-03-25T11:27:05Z</time>
      </trkpt>
      <trkpt lat="42.88233" lon="0.11801">
        <ele>1829.4</ele>
        <time>2021-03-25T11:27:06Z</time>
      </trkpt>
      <trkpt lat="42.88233" lon="0.11802">
        <ele>1829.6</ele>
        <time>2021-03-25T11:27:07Z</time>
      </trkpt>
      <trkpt lat="42.88233" lon="0.11803">
        <ele>1829.8</ele>
        <time>2021-03-25T11:27:08Z</time>
      </trkpt>
      <trkpt lat="42.88233" lon="0.11804">
        <ele>1829.9</ele>
        <time>2021-03-25T11:27:09Z</time>
      </trkpt>
      <trkpt lat="42.88233" lon="0.11806">
        <ele>1830.1</ele>
        <time>2021-03-25T11:27:10Z</time>
      </trkpt>
      <trkpt lat="42.88232" lon="0.11807">
        <ele>1830.4</ele>
        <time>2021-03-25T11:27:11Z</time>
      </trkpt>
      <trkpt lat="42.88231" lon="0.11808">
        <ele>1830.6</ele>
        <time>2021-03-25T11:27:13Z</time>
      </trkpt>
      <trkpt lat="42.88231" lon="0.11809">
        <ele>1830.7</ele>
        <time>2021-03-25T11:27:14Z</time>
      </trkpt>
      <trkpt lat="42.8823" lon="0.11809">
        <ele>1830.9</ele>
        <time>2021-03-25T11:27:15Z</time>
      </trkpt>
      <trkpt lat="42.88229" lon="0.11811">
        <ele>1831.2</ele>
        <time>2021-03-25T11:27:17Z</time>
      </trkpt>
      <trkpt lat="42.88229" lon="0.11812">
        <ele>1831.3</ele>
        <time>2021-03-25T11:27:18Z</time>
      </trkpt>
      <trkpt lat="42.88229" lon="0.11813">
        <ele>1831.5</ele>
        <time>2021-03-25T11:27:20Z</time>
      </trkpt>
      <trkpt lat="42.88229" lon="0.11814">
        <ele>1831.6</ele>
        <time>2021-03-25T11:27:21Z</time>
      </trkpt>
      <trkpt lat="42.88229" lon="0.11814">
        <ele>1831.7</ele>
        <time>2021-03-25T11:27:23Z</time>
      </trkpt>
      <trkpt lat="42.88229" lon="0.11815">
        <ele>1831.8</ele>
        <time>2021-03-25T11:27:24Z</time>
      </trkpt>
      <trkpt lat="42.88229" lon="0.11815">
        <ele>1831.8</ele>
        <time>2021-03-25T11:27:25Z</time>
      </trkpt>
      <trkpt lat="42.8823" lon="0.11815">
        <ele>1831.9</ele>
        <time>2021-03-25T11:27:26Z</time>
      </trkpt>
      <trkpt lat="42.8823" lon="0.11814">
        <ele>1831.9</ele>
        <time>2021-03-25T11:27:27Z</time>
      </trkpt>
      <trkpt lat="42.88231" lon="0.11815">
        <ele>1832.1</ele>
        <time>2021-03-25T11:27:29Z</time>
      </trkpt>
      <trkpt lat="42.88231" lon="0.11815">
        <ele>1832.2</ele>
        <time>2021-03-25T11:27:31Z</time>
      </trkpt>
      <trkpt lat="42.88232" lon="0.11815">
        <ele>1832.3</ele>
        <time>2021-03-25T11:27:32Z</time>
      </trkpt>
      <trkpt lat="42.88232" lon="0.11815">
        <ele>1832.4</ele>
        <time>2021-03-25T11:27:33Z</time>
      </trkpt>
      <trkpt lat="42.88232" lon="0.11815">
        <ele>1832.5</ele>
        <time>2021-03-25T11:27:34Z</time>
      </trkpt>
      <trkpt lat="42.88233" lon="0.11814">
        <ele>1832.6</ele>
        <time>2021-03-25T11:27:36Z</time>
      </trkpt>
      <trkpt lat="42.88233" lon="0.11815">
        <ele>1832.6</ele>
        <time>2021-03-25T11:27:37Z</time>
      </trkpt>
      <trkpt lat="42.88233" lon="0.11817">
        <ele>1832.9</ele>
        <time>2021-03-25T11:27:39Z</time>
      </trkpt>
      <trkpt lat="42.88233" lon="0.11818">
        <ele>1833.1</ele>
        <time>2021-03-25T11:27:40Z</time>
      </trkpt>
      <trkpt lat="42.88232" lon="0.11821">
        <ele>1833.5</ele>
        <time>2021-03-25T11:27:41Z</time>
      </trkpt>
      <trkpt lat="42.88232" lon="0.11823">
        <ele>1833.8</ele>
        <time>2021-03-25T11:27:43Z</time>
      </trkpt>
      <trkpt lat="42.88232" lon="0.11825">
        <ele>1834.1</ele>
        <time>2021-03-25T11:27:44Z</time>
      </trkpt>
      <trkpt lat="42.88232" lon="0.11827">
        <ele>1834.3</ele>
        <time>2021-03-25T11:27:45Z</time>
      </trkpt>
      <trkpt lat="42.88232" lon="0.11828">
        <ele>1834.5</ele>
        <time>2021-03-25T11:27:46Z</time>
      </trkpt>
      <trkpt lat="42.88232" lon="0.1183">
        <ele>1834.7</ele>
        <time>2021-03-25T11:27:47Z</time>
      </trkpt>
      <trkpt lat="42.88231" lon="0.11832">
        <ele>1835</ele>
        <time>2021-03-25T11:27:49Z</time>
      </trkpt>
      <trkpt lat="42.8823" lon="0.11834">
        <ele>1835.2</ele>
        <time>2021-03-25T11:27:50Z</time>
      </trkpt>
      <trkpt lat="42.8823" lon="0.11835">
        <ele>1835.5</ele>
        <time>2021-03-25T11:27:52Z</time>
      </trkpt>
      <trkpt lat="42.88229" lon="0.11837">
        <ele>1835.7</ele>
        <time>2021-03-25T11:27:53Z</time>
      </trkpt>
      <trkpt lat="42.88229" lon="0.11838">
        <ele>1835.8</ele>
        <time>2021-03-25T11:27:54Z</time>
      </trkpt>
      <trkpt lat="42.88229" lon="0.11839">
        <ele>1836</ele>
        <time>2021-03-25T11:27:55Z</time>
      </trkpt>
      <trkpt lat="42.8823" lon="0.1184">
        <ele>1836.1</ele>
        <time>2021-03-25T11:27:56Z</time>
      </trkpt>
      <trkpt lat="42.8823" lon="0.1184">
        <ele>1836.1</ele>
        <time>2021-03-25T11:27:58Z</time>
      </trkpt>
      <trkpt lat="42.88229" lon="0.1184">
        <ele>1836.2</ele>
        <time>2021-03-25T11:27:59Z</time>
      </trkpt>
      <trkpt lat="42.88229" lon="0.1184">
        <ele>1836.2</ele>
        <time>2021-03-25T11:28:00Z</time>
      </trkpt>
      <trkpt lat="42.88229" lon="0.11839">
        <ele>1836.4</ele>
        <time>2021-03-25T11:28:02Z</time>
      </trkpt>
      <trkpt lat="42.88228" lon="0.11838">
        <ele>1836.5</ele>
        <time>2021-03-25T11:28:04Z</time>
      </trkpt>
      <trkpt lat="42.88228" lon="0.11838">
        <ele>1836.5</ele>
        <time>2021-03-25T11:28:05Z</time>
      </trkpt>
      <trkpt lat="42.88228" lon="0.11838">
        <ele>1836.6</ele>
        <time>2021-03-25T11:28:07Z</time>
      </trkpt>
      <trkpt lat="42.88228" lon="0.11838">
        <ele>1836.6</ele>
        <time>2021-03-25T11:28:08Z</time>
      </trkpt>
      <trkpt lat="42.88227" lon="0.11839">
        <ele>1836.7</ele>
        <time>2021-03-25T11:28:10Z</time>
      </trkpt>
      <trkpt lat="42.88227" lon="0.1184">
        <ele>1836.8</ele>
        <time>2021-03-25T11:28:11Z</time>
      </trkpt>
      <trkpt lat="42.88227" lon="0.1184">
        <ele>1836.9</ele>
        <time>2021-03-25T11:28:12Z</time>
      </trkpt>
      <trkpt lat="42.88227" lon="0.11842">
        <ele>1837.1</ele>
        <time>2021-03-25T11:28:14Z</time>
      </trkpt>
      <trkpt lat="42.88227" lon="0.11843">
        <ele>1837.2</ele>
        <time>2021-03-25T11:28:15Z</time>
      </trkpt>
      <trkpt lat="42.88226" lon="0.11843">
        <ele>1837.3</ele>
        <time>2021-03-25T11:28:16Z</time>
      </trkpt>
      <trkpt lat="42.88226" lon="0.11843">
        <ele>1837.4</ele>
        <time>2021-03-25T11:28:17Z</time>
      </trkpt>
      <trkpt lat="42.88225" lon="0.11842">
        <ele>1837.5</ele>
        <time>2021-03-25T11:28:19Z</time>
      </trkpt>
      <trkpt lat="42.88225" lon="0.11842">
        <ele>1837.6</ele>
        <time>2021-03-25T11:28:20Z</time>
      </trkpt>
      <trkpt lat="42.88225" lon="0.11842">
        <ele>1837.6</ele>
        <time>2021-03-25T11:28:21Z</time>
      </trkpt>
      <trkpt lat="42.88224" lon="0.11842">
        <ele>1837.6</ele>
        <time>2021-03-25T11:28:23Z</time>
      </trkpt>
      <trkpt lat="42.88224" lon="0.11842">
        <ele>1837.7</ele>
        <time>2021-03-25T11:28:25Z</time>
      </trkpt>
      <trkpt lat="42.88224" lon="0.11842">
        <ele>1837.7</ele>
        <time>2021-03-25T11:28:26Z</time>
      </trkpt>
      <trkpt lat="42.88224" lon="0.11842">
        <ele>1837.7</ele>
        <time>2021-03-25T11:28:28Z</time>
      </trkpt>
      <trkpt lat="42.88224" lon="0.11841">
        <ele>1837.8</ele>
        <time>2021-03-25T11:28:29Z</time>
      </trkpt>
      <trkpt lat="42.88224" lon="0.1184">
        <ele>1838</ele>
        <time>2021-03-25T11:28:30Z</time>
      </trkpt>
      <trkpt lat="42.88224" lon="0.11838">
        <ele>1838.2</ele>
        <time>2021-03-25T11:28:31Z</time>
      </trkpt>
      <trkpt lat="42.88224" lon="0.11836">
        <ele>1838.4</ele>
        <time>2021-03-25T11:28:33Z</time>
      </trkpt>
      <trkpt lat="42.88224" lon="0.11836">
        <ele>1838.5</ele>
        <time>2021-03-25T11:28:35Z</time>
      </trkpt>
      <trkpt lat="42.88224" lon="0.11836">
        <ele>1838.5</ele>
        <time>2021-03-25T11:28:37Z</time>
      </trkpt>
      <trkpt lat="42.88224" lon="0.11836">
        <ele>1838.5</ele>
        <time>2021-03-25T11:28:38Z</time>
      </trkpt>
      <trkpt lat="42.88224" lon="0.11836">
        <ele>1838.5</ele>
        <time>2021-03-25T11:28:39Z</time>
      </trkpt>
      <trkpt lat="42.88224" lon="0.11836">
        <ele>1838.5</ele>
        <time>2021-03-25T11:28:41Z</time>
      </trkpt>
      <trkpt lat="42.88224" lon="0.11836">
        <ele>1838.5</ele>
        <time>2021-03-25T11:28:42Z</time>
      </trkpt>
      <trkpt lat="42.88224" lon="0.11836">
        <ele>1838.5</ele>
        <time>2021-03-25T11:28:44Z</time>
      </trkpt>
      <trkpt lat="42.88224" lon="0.11836">
        <ele>1838.6</ele>
        <time>2021-03-25T11:28:46Z</time>
      </trkpt>
      <trkpt lat="42.88224" lon="0.11836">
        <ele>1838.6</ele>
        <time>2021-03-25T11:28:47Z</time>
      </trkpt>
      <trkpt lat="42.88224" lon="0.11836">
        <ele>1838.6</ele>
        <time>2021-03-25T11:28:49Z</time>
      </trkpt>
      <trkpt lat="42.88224" lon="0.11836">
        <ele>1838.6</ele>
        <time>2021-03-25T11:28:51Z</time>
      </trkpt>
      <trkpt lat="42.88224" lon="0.11836">
        <ele>1838.6</ele>
        <time>2021-03-25T11:28:53Z</time>
      </trkpt>
      <trkpt lat="42.88223" lon="0.11836">
        <ele>1838.7</ele>
        <time>2021-03-25T11:28:54Z</time>
      </trkpt>
      <trkpt lat="42.88223" lon="0.11838">
        <ele>1838.8</ele>
        <time>2021-03-25T11:28:56Z</time>
      </trkpt>
      <trkpt lat="42.88223" lon="0.11839">
        <ele>1839</ele>
        <time>2021-03-25T11:28:57Z</time>
      </trkpt>
      <trkpt lat="42.88223" lon="0.1184">
        <ele>1839.1</ele>
        <time>2021-03-25T11:28:59Z</time>
      </trkpt>
      <trkpt lat="42.88223" lon="0.1184">
        <ele>1839.1</ele>
        <time>2021-03-25T11:29:00Z</time>
      </trkpt>
      <trkpt lat="42.88223" lon="0.11841">
        <ele>1839.2</ele>
        <time>2021-03-25T11:29:02Z</time>
      </trkpt>
      <trkpt lat="42.88223" lon="0.11841">
        <ele>1839.3</ele>
        <time>2021-03-25T11:29:04Z</time>
      </trkpt>
      <trkpt lat="42.88223" lon="0.1184">
        <ele>1839.4</ele>
        <time>2021-03-25T11:29:06Z</time>
      </trkpt>
      <trkpt lat="42.88224" lon="0.1184">
        <ele>1839.5</ele>
        <time>2021-03-25T11:29:08Z</time>
      </trkpt>
      <trkpt lat="42.88224" lon="0.11839">
        <ele>1839.6</ele>
        <time>2021-03-25T11:29:10Z</time>
      </trkpt>
      <trkpt lat="42.88225" lon="0.11839">
        <ele>1839.7</ele>
        <time>2021-03-25T11:29:12Z</time>
      </trkpt>
      <trkpt lat="42.88225" lon="0.11839">
        <ele>1839.7</ele>
        <time>2021-03-25T11:29:13Z</time>
      </trkpt>
      <trkpt lat="42.88225" lon="0.11839">
        <ele>1839.8</ele>
        <time>2021-03-25T11:29:15Z</time>
      </trkpt>
      <trkpt lat="42.88225" lon="0.11839">
        <ele>1839.8</ele>
        <time>2021-03-25T11:29:17Z</time>
      </trkpt>
      <trkpt lat="42.88225" lon="0.11839">
        <ele>1839.9</ele>
        <time>2021-03-25T11:29:18Z</time>
      </trkpt>
      <trkpt lat="42.88225" lon="0.11839">
        <ele>1839.9</ele>
        <time>2021-03-25T11:29:20Z</time>
      </trkpt>
      <trkpt lat="42.88225" lon="0.1184">
        <ele>1839.9</ele>
        <time>2021-03-25T11:29:21Z</time>
      </trkpt>
      <trkpt lat="42.88226" lon="0.11841">
        <ele>1840.1</ele>
        <time>2021-03-25T11:29:23Z</time>
      </trkpt>
      <trkpt lat="42.88226" lon="0.11841">
        <ele>1840.1</ele>
        <time>2021-03-25T11:29:24Z</time>
      </trkpt>
      <trkpt lat="42.88228" lon="0.11841">
        <ele>1840.5</ele>
        <time>2021-03-25T11:29:26Z</time>
      </trkpt>
      <trkpt lat="42.88228" lon="0.11841">
        <ele>1840.7</ele>
        <time>2021-03-25T11:29:28Z</time>
      </trkpt>
      <trkpt lat="42.88227" lon="0.11841">
        <ele>1840.7</ele>
        <time>2021-03-25T11:29:30Z</time>
      </trkpt>
      <trkpt lat="42.88227" lon="0.11841">
        <ele>1840.8</ele>
        <time>2021-03-25T11:29:32Z</time>
      </trkpt>
      <trkpt lat="42.88226" lon="0.1184">
        <ele>1841</ele>
        <time>2021-03-25T11:29:34Z</time>
      </trkpt>
      <trkpt lat="42.88226" lon="0.11841">
        <ele>1841.1</ele>
        <time>2021-03-25T11:29:35Z</time>
      </trkpt>
      <trkpt lat="42.88226" lon="0.11842">
        <ele>1841.2</ele>
        <time>2021-03-25T11:29:36Z</time>
      </trkpt>
      <trkpt lat="42.88226" lon="0.11842">
        <ele>1841.3</ele>
        <time>2021-03-25T11:29:38Z</time>
      </trkpt>
      <trkpt lat="42.88226" lon="0.11842">
        <ele>1841.3</ele>
        <time>2021-03-25T11:29:39Z</time>
      </trkpt>
      <trkpt lat="42.88226" lon="0.11841">
        <ele>1841.4</ele>
        <time>2021-03-25T11:29:40Z</time>
      </trkpt>
      <trkpt lat="42.88226" lon="0.11841">
        <ele>1841.5</ele>
        <time>2021-03-25T11:29:41Z</time>
      </trkpt>
      <trkpt lat="42.88226" lon="0.11841">
        <ele>1841.6</ele>
        <time>2021-03-25T11:29:43Z</time>
      </trkpt>
      <trkpt lat="42.88227" lon="0.1184">
        <ele>1841.7</ele>
        <time>2021-03-25T11:29:45Z</time>
      </trkpt>
      <trkpt lat="42.88229" lon="0.11842">
        <ele>1842</ele>
        <time>2021-03-25T11:29:51Z</time>
      </trkpt>
      <trkpt lat="42.88228" lon="0.11842">
        <ele>1842.1</ele>
        <time>2021-03-25T11:29:52Z</time>
      </trkpt>
      <trkpt lat="42.88228" lon="0.11842">
        <ele>1842.1</ele>
        <time>2021-03-25T11:29:54Z</time>
      </trkpt>
      <trkpt lat="42.88228" lon="0.11841">
        <ele>1842.3</ele>
        <time>2021-03-25T11:29:55Z</time>
      </trkpt>
      <trkpt lat="42.88227" lon="0.11841">
        <ele>1842.4</ele>
        <time>2021-03-25T11:29:56Z</time>
      </trkpt>
      <trkpt lat="42.88227" lon="0.11841">
        <ele>1842.4</ele>
        <time>2021-03-25T11:29:57Z</time>
      </trkpt>
      <trkpt lat="42.88227" lon="0.11841">
        <ele>1842.4</ele>
        <time>2021-03-25T11:29:58Z</time>
      </trkpt>
      <trkpt lat="42.88227" lon="0.11841">
        <ele>1842.5</ele>
        <time>2021-03-25T11:29:59Z</time>
      </trkpt>
      <trkpt lat="42.88227" lon="0.11841">
        <ele>1842.5</ele>
        <time>2021-03-25T11:30:01Z</time>
      </trkpt>
      <trkpt lat="42.88228" lon="0.11841">
        <ele>1842.6</ele>
        <time>2021-03-25T11:30:03Z</time>
      </trkpt>
      <trkpt lat="42.88228" lon="0.11841">
        <ele>1842.6</ele>
        <time>2021-03-25T11:30:04Z</time>
      </trkpt>
      <trkpt lat="42.88228" lon="0.11841">
        <ele>1842.7</ele>
        <time>2021-03-25T11:30:05Z</time>
      </trkpt>
      <trkpt lat="42.88228" lon="0.11841">
        <ele>1842.7</ele>
        <time>2021-03-25T11:30:06Z</time>
      </trkpt>
      <trkpt lat="42.88228" lon="0.11841">
        <ele>1842.7</ele>
        <time>2021-03-25T11:30:07Z</time>
      </trkpt>
      <trkpt lat="42.88228" lon="0.11841">
        <ele>1842.7</ele>
        <time>2021-03-25T11:30:09Z</time>
      </trkpt>
      <trkpt lat="42.88228" lon="0.11841">
        <ele>1842.8</ele>
        <time>2021-03-25T11:30:10Z</time>
      </trkpt>
      <trkpt lat="42.88228" lon="0.11841">
        <ele>1842.8</ele>
        <time>2021-03-25T11:30:12Z</time>
      </trkpt>
      <trkpt lat="42.88228" lon="0.11841">
        <ele>1842.8</ele>
        <time>2021-03-25T11:30:13Z</time>
      </trkpt>
      <trkpt lat="42.88228" lon="0.11841">
        <ele>1842.8</ele>
        <time>2021-03-25T11:30:14Z</time>
      </trkpt>
      <trkpt lat="42.88228" lon="0.11841">
        <ele>1842.8</ele>
        <time>2021-03-25T11:30:16Z</time>
      </trkpt>
      <trkpt lat="42.88228" lon="0.11841">
        <ele>1842.8</ele>
        <time>2021-03-25T11:30:17Z</time>
      </trkpt>
      <trkpt lat="42.88228" lon="0.11841">
        <ele>1842.8</ele>
        <time>2021-03-25T11:30:18Z</time>
      </trkpt>
      <trkpt lat="42.88228" lon="0.11842">
        <ele>1842.9</ele>
        <time>2021-03-25T11:30:20Z</time>
      </trkpt>
      <trkpt lat="42.88228" lon="0.11842">
        <ele>1842.9</ele>
        <time>2021-03-25T11:30:21Z</time>
      </trkpt>
      <trkpt lat="42.88229" lon="0.11842">
        <ele>1843</ele>
        <time>2021-03-25T11:30:23Z</time>
      </trkpt>
      <trkpt lat="42.88229" lon="0.11843">
        <ele>1843.1</ele>
        <time>2021-03-25T11:30:24Z</time>
      </trkpt>
      <trkpt lat="42.88229" lon="0.11843">
        <ele>1843.2</ele>
        <time>2021-03-25T11:30:26Z</time>
      </trkpt>
      <trkpt lat="42.88229" lon="0.11844">
        <ele>1843.2</ele>
        <time>2021-03-25T11:30:27Z</time>
      </trkpt>
      <trkpt lat="42.8823" lon="0.11844">
        <ele>1843.3</ele>
        <time>2021-03-25T11:30:29Z</time>
      </trkpt>
      <trkpt lat="42.8823" lon="0.11846">
        <ele>1843.5</ele>
        <time>2021-03-25T11:30:31Z</time>
      </trkpt>
      <trkpt lat="42.88229" lon="0.11848">
        <ele>1843.8</ele>
        <time>2021-03-25T11:30:32Z</time>
      </trkpt>
      <trkpt lat="42.88229" lon="0.1185">
        <ele>1844.1</ele>
        <time>2021-03-25T11:30:33Z</time>
      </trkpt>
      <trkpt lat="42.88228" lon="0.11855">
        <ele>1844.8</ele>
        <time>2021-03-25T11:30:35Z</time>
      </trkpt>
      <trkpt lat="42.88227" lon="0.11856">
        <ele>1845</ele>
        <time>2021-03-25T11:30:36Z</time>
      </trkpt>
      <trkpt lat="42.88227" lon="0.11857">
        <ele>1845.2</ele>
        <time>2021-03-25T11:30:37Z</time>
      </trkpt>
      <trkpt lat="42.88227" lon="0.1186">
        <ele>1845.5</ele>
        <time>2021-03-25T11:30:39Z</time>
      </trkpt>
      <trkpt lat="42.88226" lon="0.11862">
        <ele>1845.8</ele>
        <time>2021-03-25T11:30:41Z</time>
      </trkpt>
      <trkpt lat="42.88226" lon="0.11864">
        <ele>1846</ele>
        <time>2021-03-25T11:30:42Z</time>
      </trkpt>
      <trkpt lat="42.88226" lon="0.11866">
        <ele>1846.3</ele>
        <time>2021-03-25T11:30:43Z</time>
      </trkpt>
      <trkpt lat="42.88225" lon="0.11868">
        <ele>1846.7</ele>
        <time>2021-03-25T11:30:44Z</time>
      </trkpt>
      <trkpt lat="42.88225" lon="0.11869">
        <ele>1846.9</ele>
        <time>2021-03-25T11:30:45Z</time>
      </trkpt>
      <trkpt lat="42.88224" lon="0.11871">
        <ele>1847.2</ele>
        <time>2021-03-25T11:30:46Z</time>
      </trkpt>
      <trkpt lat="42.88223" lon="0.11875">
        <ele>1847.6</ele>
        <time>2021-03-25T11:30:48Z</time>
      </trkpt>
      <trkpt lat="42.88222" lon="0.11876">
        <ele>1847.9</ele>
        <time>2021-03-25T11:30:49Z</time>
      </trkpt>
      <trkpt lat="42.88222" lon="0.11879">
        <ele>1848.2</ele>
        <time>2021-03-25T11:30:51Z</time>
      </trkpt>
      <trkpt lat="42.88221" lon="0.1188">
        <ele>1848.4</ele>
        <time>2021-03-25T11:30:52Z</time>
      </trkpt>
      <trkpt lat="42.88221" lon="0.11882">
        <ele>1848.6</ele>
        <time>2021-03-25T11:30:54Z</time>
      </trkpt>
      <trkpt lat="42.88221" lon="0.11883">
        <ele>1848.8</ele>
        <time>2021-03-25T11:30:55Z</time>
      </trkpt>
      <trkpt lat="42.8822" lon="0.11885">
        <ele>1849</ele>
        <time>2021-03-25T11:30:57Z</time>
      </trkpt>
      <trkpt lat="42.8822" lon="0.11886">
        <ele>1849.1</ele>
        <time>2021-03-25T11:30:58Z</time>
      </trkpt>
      <trkpt lat="42.8822" lon="0.11887">
        <ele>1849.3</ele>
        <time>2021-03-25T11:30:59Z</time>
      </trkpt>
      <trkpt lat="42.8822" lon="0.11888">
        <ele>1849.4</ele>
        <time>2021-03-25T11:31:00Z</time>
      </trkpt>
      <trkpt lat="42.8822" lon="0.11888">
        <ele>1849.5</ele>
        <time>2021-03-25T11:31:02Z</time>
      </trkpt>
      <trkpt lat="42.8822" lon="0.11889">
        <ele>1849.6</ele>
        <time>2021-03-25T11:31:04Z</time>
      </trkpt>
      <trkpt lat="42.8822" lon="0.1189">
        <ele>1849.7</ele>
        <time>2021-03-25T11:31:05Z</time>
      </trkpt>
      <trkpt lat="42.8822" lon="0.11891">
        <ele>1849.8</ele>
        <time>2021-03-25T11:31:06Z</time>
      </trkpt>
      <trkpt lat="42.8822" lon="0.11892">
        <ele>1849.9</ele>
        <time>2021-03-25T11:31:07Z</time>
      </trkpt>
      <trkpt lat="42.8822" lon="0.11893">
        <ele>1850.1</ele>
        <time>2021-03-25T11:31:09Z</time>
      </trkpt>
      <trkpt lat="42.88219" lon="0.11894">
        <ele>1850.2</ele>
        <time>2021-03-25T11:31:10Z</time>
      </trkpt>
      <trkpt lat="42.88219" lon="0.11894">
        <ele>1850.3</ele>
        <time>2021-03-25T11:31:12Z</time>
      </trkpt>
      <trkpt lat="42.88219" lon="0.11895">
        <ele>1850.4</ele>
        <time>2021-03-25T11:31:13Z</time>
      </trkpt>
      <trkpt lat="42.8822" lon="0.11897">
        <ele>1850.6</ele>
        <time>2021-03-25T11:31:15Z</time>
      </trkpt>
      <trkpt lat="42.88219" lon="0.11898">
        <ele>1850.7</ele>
        <time>2021-03-25T11:31:16Z</time>
      </trkpt>
      <trkpt lat="42.88219" lon="0.11899">
        <ele>1850.9</ele>
        <time>2021-03-25T11:31:17Z</time>
      </trkpt>
      <trkpt lat="42.88219" lon="0.119">
        <ele>1851</ele>
        <time>2021-03-25T11:31:18Z</time>
      </trkpt>
      <trkpt lat="42.88219" lon="0.11901">
        <ele>1851.1</ele>
        <time>2021-03-25T11:31:19Z</time>
      </trkpt>
      <trkpt lat="42.8822" lon="0.11902">
        <ele>1851.2</ele>
        <time>2021-03-25T11:31:20Z</time>
      </trkpt>
      <trkpt lat="42.8822" lon="0.11903">
        <ele>1851.3</ele>
        <time>2021-03-25T11:31:21Z</time>
      </trkpt>
      <trkpt lat="42.88221" lon="0.11904">
        <ele>1851.6</ele>
        <time>2021-03-25T11:31:23Z</time>
      </trkpt>
      <trkpt lat="42.88221" lon="0.11905">
        <ele>1851.7</ele>
        <time>2021-03-25T11:31:24Z</time>
      </trkpt>
      <trkpt lat="42.88222" lon="0.11906">
        <ele>1851.9</ele>
        <time>2021-03-25T11:31:26Z</time>
      </trkpt>
      <trkpt lat="42.88222" lon="0.11907">
        <ele>1852</ele>
        <time>2021-03-25T11:31:27Z</time>
      </trkpt>
      <trkpt lat="42.88223" lon="0.11907">
        <ele>1852.1</ele>
        <time>2021-03-25T11:31:28Z</time>
      </trkpt>
      <trkpt lat="42.88223" lon="0.11907">
        <ele>1852.2</ele>
        <time>2021-03-25T11:31:29Z</time>
      </trkpt>
      <trkpt lat="42.88224" lon="0.11908">
        <ele>1852.3</ele>
        <time>2021-03-25T11:31:31Z</time>
      </trkpt>
      <trkpt lat="42.88224" lon="0.11909">
        <ele>1852.3</ele>
        <time>2021-03-25T11:31:32Z</time>
      </trkpt>
      <trkpt lat="42.88224" lon="0.1191">
        <ele>1852.5</ele>
        <time>2021-03-25T11:31:34Z</time>
      </trkpt>
      <trkpt lat="42.88223" lon="0.11911">
        <ele>1852.6</ele>
        <time>2021-03-25T11:31:35Z</time>
      </trkpt>
      <trkpt lat="42.88223" lon="0.11911">
        <ele>1852.6</ele>
        <time>2021-03-25T11:31:37Z</time>
      </trkpt>
      <trkpt lat="42.88223" lon="0.11911">
        <ele>1852.6</ele>
        <time>2021-03-25T11:31:38Z</time>
      </trkpt>
      <trkpt lat="42.88223" lon="0.11912">
        <ele>1852.6</ele>
        <time>2021-03-25T11:31:40Z</time>
      </trkpt>
      <trkpt lat="42.88223" lon="0.11912">
        <ele>1852.6</ele>
        <time>2021-03-25T11:31:41Z</time>
      </trkpt>
      <trkpt lat="42.88223" lon="0.11912">
        <ele>1852.6</ele>
        <time>2021-03-25T11:31:42Z</time>
      </trkpt>
      <trkpt lat="42.88223" lon="0.11912">
        <ele>1852.6</ele>
        <time>2021-03-25T11:31:43Z</time>
      </trkpt>
      <trkpt lat="42.88223" lon="0.11913">
        <ele>1852.6</ele>
        <time>2021-03-25T11:31:45Z</time>
      </trkpt>
      <trkpt lat="42.88223" lon="0.11913">
        <ele>1852.6</ele>
        <time>2021-03-25T11:31:46Z</time>
      </trkpt>
      <trkpt lat="42.88223" lon="0.11914">
        <ele>1853.2</ele>
        <time>2021-03-25T11:31:48Z</time>
      </trkpt>
      <trkpt lat="42.88223" lon="0.11915">
        <ele>1853.2</ele>
        <time>2021-03-25T11:31:49Z</time>
      </trkpt>
      <trkpt lat="42.88224" lon="0.11915">
        <ele>1853.2</ele>
        <time>2021-03-25T11:31:50Z</time>
      </trkpt>
      <trkpt lat="42.88224" lon="0.11916">
        <ele>1853.2</ele>
        <time>2021-03-25T11:31:52Z</time>
      </trkpt>
      <trkpt lat="42.88224" lon="0.11917">
        <ele>1853.2</ele>
        <time>2021-03-25T11:31:53Z</time>
      </trkpt>
      <trkpt lat="42.88225" lon="0.11918">
        <ele>1853.8</ele>
        <time>2021-03-25T11:31:55Z</time>
      </trkpt>
      <trkpt lat="42.88225" lon="0.11919">
        <ele>1853.8</ele>
        <time>2021-03-25T11:31:56Z</time>
      </trkpt>
      <trkpt lat="42.88225" lon="0.1192">
        <ele>1853.8</ele>
        <time>2021-03-25T11:31:57Z</time>
      </trkpt>
      <trkpt lat="42.88226" lon="0.11921">
        <ele>1853.6</ele>
        <time>2021-03-25T11:31:58Z</time>
      </trkpt>
      <trkpt lat="42.88226" lon="0.11922">
        <ele>1853.6</ele>
        <time>2021-03-25T11:32:00Z</time>
      </trkpt>
      <trkpt lat="42.88226" lon="0.11923">
        <ele>1854.1</ele>
        <time>2021-03-25T11:32:01Z</time>
      </trkpt>
      <trkpt lat="42.88226" lon="0.11923">
        <ele>1854.1</ele>
        <time>2021-03-25T11:32:02Z</time>
      </trkpt>
      <trkpt lat="42.88227" lon="0.11924">
        <ele>1854.1</ele>
        <time>2021-03-25T11:32:04Z</time>
      </trkpt>
      <trkpt lat="42.88227" lon="0.11925">
        <ele>1854.1</ele>
        <time>2021-03-25T11:32:05Z</time>
      </trkpt>
      <trkpt lat="42.88227" lon="0.11926">
        <ele>1854.6</ele>
        <time>2021-03-25T11:32:07Z</time>
      </trkpt>
      <trkpt lat="42.88227" lon="0.11927">
        <ele>1854.6</ele>
        <time>2021-03-25T11:32:08Z</time>
      </trkpt>
      <trkpt lat="42.88227" lon="0.11928">
        <ele>1854.6</ele>
        <time>2021-03-25T11:32:09Z</time>
      </trkpt>
      <trkpt lat="42.88228" lon="0.11929">
        <ele>1854.6</ele>
        <time>2021-03-25T11:32:11Z</time>
      </trkpt>
      <trkpt lat="42.88228" lon="0.11929">
        <ele>1854.6</ele>
        <time>2021-03-25T11:32:12Z</time>
      </trkpt>
      <trkpt lat="42.88228" lon="0.1193">
        <ele>1854.6</ele>
        <time>2021-03-25T11:32:14Z</time>
      </trkpt>
      <trkpt lat="42.88228" lon="0.1193">
        <ele>1854.6</ele>
        <time>2021-03-25T11:32:15Z</time>
      </trkpt>
      <trkpt lat="42.88228" lon="0.11931">
        <ele>1855.1</ele>
        <time>2021-03-25T11:32:16Z</time>
      </trkpt>
      <trkpt lat="42.88228" lon="0.11931">
        <ele>1855.1</ele>
        <time>2021-03-25T11:32:18Z</time>
      </trkpt>
      <trkpt lat="42.88228" lon="0.11931">
        <ele>1855.1</ele>
        <time>2021-03-25T11:32:19Z</time>
      </trkpt>
      <trkpt lat="42.88228" lon="0.11932">
        <ele>1855.1</ele>
        <time>2021-03-25T11:32:20Z</time>
      </trkpt>
      <trkpt lat="42.88228" lon="0.11932">
        <ele>1855.1</ele>
        <time>2021-03-25T11:32:22Z</time>
      </trkpt>
      <trkpt lat="42.88228" lon="0.11932">
        <ele>1855.1</ele>
        <time>2021-03-25T11:32:24Z</time>
      </trkpt>
      <trkpt lat="42.88228" lon="0.11933">
        <ele>1855.1</ele>
        <time>2021-03-25T11:32:25Z</time>
      </trkpt>
      <trkpt lat="42.88228" lon="0.11933">
        <ele>1855.1</ele>
        <time>2021-03-25T11:32:27Z</time>
      </trkpt>
      <trkpt lat="42.88228" lon="0.11933">
        <ele>1855.1</ele>
        <time>2021-03-25T11:32:28Z</time>
      </trkpt>
      <trkpt lat="42.88228" lon="0.11933">
        <ele>1855.1</ele>
        <time>2021-03-25T11:32:30Z</time>
      </trkpt>
      <trkpt lat="42.88228" lon="0.11933">
        <ele>1855.1</ele>
        <time>2021-03-25T11:32:31Z</time>
      </trkpt>
      <trkpt lat="42.88229" lon="0.11933">
        <ele>1854.9</ele>
        <time>2021-03-25T11:32:32Z</time>
      </trkpt>
      <trkpt lat="42.88229" lon="0.11933">
        <ele>1854.9</ele>
        <time>2021-03-25T11:32:33Z</time>
      </trkpt>
      <trkpt lat="42.88229" lon="0.11933">
        <ele>1854.9</ele>
        <time>2021-03-25T11:32:35Z</time>
      </trkpt>
      <trkpt lat="42.88229" lon="0.11933">
        <ele>1854.9</ele>
        <time>2021-03-25T11:32:37Z</time>
      </trkpt>
      <trkpt lat="42.8823" lon="0.11934">
        <ele>1854.9</ele>
        <time>2021-03-25T11:32:39Z</time>
      </trkpt>
      <trkpt lat="42.8823" lon="0.11934">
        <ele>1854.9</ele>
        <time>2021-03-25T11:32:40Z</time>
      </trkpt>
      <trkpt lat="42.8823" lon="0.11935">
        <ele>1854.9</ele>
        <time>2021-03-25T11:32:42Z</time>
      </trkpt>
      <trkpt lat="42.88231" lon="0.11935">
        <ele>1855.4</ele>
        <time>2021-03-25T11:32:43Z</time>
      </trkpt>
      <trkpt lat="42.88231" lon="0.11936">
        <ele>1855.4</ele>
        <time>2021-03-25T11:32:44Z</time>
      </trkpt>
      <trkpt lat="42.88232" lon="0.11936">
        <ele>1855.2</ele>
        <time>2021-03-25T11:32:45Z</time>
      </trkpt>
      <trkpt lat="42.88233" lon="0.11937">
        <ele>1855.2</ele>
        <time>2021-03-25T11:32:47Z</time>
      </trkpt>
      <trkpt lat="42.88233" lon="0.11938">
        <ele>1855.2</ele>
        <time>2021-03-25T11:32:48Z</time>
      </trkpt>
      <trkpt lat="42.88235" lon="0.11939">
        <ele>1855.7</ele>
        <time>2021-03-25T11:32:50Z</time>
      </trkpt>
      <trkpt lat="42.88235" lon="0.11941">
        <ele>1855.6</ele>
        <time>2021-03-25T11:32:51Z</time>
      </trkpt>
      <trkpt lat="42.88236" lon="0.11943">
        <ele>1855.6</ele>
        <time>2021-03-25T11:32:53Z</time>
      </trkpt>
      <trkpt lat="42.88237" lon="0.11944">
        <ele>1856.1</ele>
        <time>2021-03-25T11:32:55Z</time>
      </trkpt>
      <trkpt lat="42.88238" lon="0.11946">
        <ele>1856.1</ele>
        <time>2021-03-25T11:32:56Z</time>
      </trkpt>
      <trkpt lat="42.88239" lon="0.11948">
        <ele>1856.1</ele>
        <time>2021-03-25T11:32:58Z</time>
      </trkpt>
      <trkpt lat="42.8824" lon="0.11949">
        <ele>1856.7</ele>
        <time>2021-03-25T11:32:59Z</time>
      </trkpt>
      <trkpt lat="42.88242" lon="0.11953">
        <ele>1857.2</ele>
        <time>2021-03-25T11:33:00Z</time>
      </trkpt>
      <trkpt lat="42.88243" lon="0.11954">
        <ele>1857.2</ele>
        <time>2021-03-25T11:33:02Z</time>
      </trkpt>
      <trkpt lat="42.88244" lon="0.11955">
        <ele>1857.2</ele>
        <time>2021-03-25T11:33:03Z</time>
      </trkpt>
      <trkpt lat="42.88245" lon="0.11957">
        <ele>1857.8</ele>
        <time>2021-03-25T11:33:04Z</time>
      </trkpt>
      <trkpt lat="42.88245" lon="0.11959">
        <ele>1857.8</ele>
        <time>2021-03-25T11:33:05Z</time>
      </trkpt>
      <trkpt lat="42.88247" lon="0.11961">
        <ele>1858.3</ele>
        <time>2021-03-25T11:33:07Z</time>
      </trkpt>
      <trkpt lat="42.88247" lon="0.11964">
        <ele>1858.3</ele>
        <time>2021-03-25T11:33:08Z</time>
      </trkpt>
      <trkpt lat="42.88247" lon="0.11965">
        <ele>1858.9</ele>
        <time>2021-03-25T11:33:09Z</time>
      </trkpt>
      <trkpt lat="42.88247" lon="0.11967">
        <ele>1858.9</ele>
        <time>2021-03-25T11:33:10Z</time>
      </trkpt>
      <trkpt lat="42.88247" lon="0.11969">
        <ele>1858.9</ele>
        <time>2021-03-25T11:33:12Z</time>
      </trkpt>
      <trkpt lat="42.88247" lon="0.1197">
        <ele>1859.5</ele>
        <time>2021-03-25T11:33:13Z</time>
      </trkpt>
      <trkpt lat="42.88247" lon="0.11972">
        <ele>1859.5</ele>
        <time>2021-03-25T11:33:15Z</time>
      </trkpt>
      <trkpt lat="42.88247" lon="0.11974">
        <ele>1860</ele>
        <time>2021-03-25T11:33:16Z</time>
      </trkpt>
      <trkpt lat="42.88248" lon="0.11976">
        <ele>1860</ele>
        <time>2021-03-25T11:33:18Z</time>
      </trkpt>
      <trkpt lat="42.88248" lon="0.11977">
        <ele>1860</ele>
        <time>2021-03-25T11:33:19Z</time>
      </trkpt>
      <trkpt lat="42.88248" lon="0.11979">
        <ele>1860.6</ele>
        <time>2021-03-25T11:33:20Z</time>
      </trkpt>
      <trkpt lat="42.88248" lon="0.1198">
        <ele>1860.6</ele>
        <time>2021-03-25T11:33:22Z</time>
      </trkpt>
      <trkpt lat="42.88248" lon="0.11981">
        <ele>1860.6</ele>
        <time>2021-03-25T11:33:23Z</time>
      </trkpt>
      <trkpt lat="42.88248" lon="0.11982">
        <ele>1861.2</ele>
        <time>2021-03-25T11:33:24Z</time>
      </trkpt>
      <trkpt lat="42.88248" lon="0.11983">
        <ele>1861.2</ele>
        <time>2021-03-25T11:33:26Z</time>
      </trkpt>
      <trkpt lat="42.88247" lon="0.11985">
        <ele>1861.2</ele>
        <time>2021-03-25T11:33:27Z</time>
      </trkpt>
      <trkpt lat="42.88247" lon="0.11985">
        <ele>1861.2</ele>
        <time>2021-03-25T11:33:29Z</time>
      </trkpt>
      <trkpt lat="42.88247" lon="0.11986">
        <ele>1861.2</ele>
        <time>2021-03-25T11:33:30Z</time>
      </trkpt>
      <trkpt lat="42.88247" lon="0.11987">
        <ele>1861.8</ele>
        <time>2021-03-25T11:33:31Z</time>
      </trkpt>
      <trkpt lat="42.88248" lon="0.11988">
        <ele>1861.8</ele>
        <time>2021-03-25T11:33:33Z</time>
      </trkpt>
      <trkpt lat="42.88248" lon="0.11989">
        <ele>1861.8</ele>
        <time>2021-03-25T11:33:34Z</time>
      </trkpt>
      <trkpt lat="42.88248" lon="0.1199">
        <ele>1861.8</ele>
        <time>2021-03-25T11:33:35Z</time>
      </trkpt>
      <trkpt lat="42.88249" lon="0.11991">
        <ele>1862.4</ele>
        <time>2021-03-25T11:33:37Z</time>
      </trkpt>
      <trkpt lat="42.88249" lon="0.11991">
        <ele>1862.4</ele>
        <time>2021-03-25T11:33:38Z</time>
      </trkpt>
      <trkpt lat="42.8825" lon="0.11992">
        <ele>1862.4</ele>
        <time>2021-03-25T11:33:39Z</time>
      </trkpt>
      <trkpt lat="42.8825" lon="0.11992">
        <ele>1862.4</ele>
        <time>2021-03-25T11:33:41Z</time>
      </trkpt>
      <trkpt lat="42.8825" lon="0.11992">
        <ele>1862.4</ele>
        <time>2021-03-25T11:33:42Z</time>
      </trkpt>
      <trkpt lat="42.8825" lon="0.11993">
        <ele>1862.4</ele>
        <time>2021-03-25T11:33:43Z</time>
      </trkpt>
      <trkpt lat="42.88251" lon="0.11993">
        <ele>1862.4</ele>
        <time>2021-03-25T11:33:45Z</time>
      </trkpt>
      <trkpt lat="42.88251" lon="0.11994">
        <ele>1862.4</ele>
        <time>2021-03-25T11:33:46Z</time>
      </trkpt>
      <trkpt lat="42.88251" lon="0.11994">
        <ele>1862.4</ele>
        <time>2021-03-25T11:33:47Z</time>
      </trkpt>
      <trkpt lat="42.88251" lon="0.11996">
        <ele>1863</ele>
        <time>2021-03-25T11:33:49Z</time>
      </trkpt>
      <trkpt lat="42.88252" lon="0.11996">
        <ele>1863</ele>
        <time>2021-03-25T11:33:50Z</time>
      </trkpt>
      <trkpt lat="42.88252" lon="0.11997">
        <ele>1863</ele>
        <time>2021-03-25T11:33:51Z</time>
      </trkpt>
      <trkpt lat="42.88253" lon="0.11998">
        <ele>1863</ele>
        <time>2021-03-25T11:33:53Z</time>
      </trkpt>
      <trkpt lat="42.88253" lon="0.12">
        <ele>1863.7</ele>
        <time>2021-03-25T11:33:55Z</time>
      </trkpt>
      <trkpt lat="42.88254" lon="0.12001">
        <ele>1863.7</ele>
        <time>2021-03-25T11:33:56Z</time>
      </trkpt>
      <trkpt lat="42.88254" lon="0.12001">
        <ele>1863.7</ele>
        <time>2021-03-25T11:33:57Z</time>
      </trkpt>
      <trkpt lat="42.88254" lon="0.12003">
        <ele>1863.7</ele>
        <time>2021-03-25T11:33:59Z</time>
      </trkpt>
      <trkpt lat="42.88255" lon="0.12004">
        <ele>1864.3</ele>
        <time>2021-03-25T11:34:00Z</time>
      </trkpt>
      <trkpt lat="42.88255" lon="0.12004">
        <ele>1864.3</ele>
        <time>2021-03-25T11:34:01Z</time>
      </trkpt>
      <trkpt lat="42.88256" lon="0.12006">
        <ele>1864.3</ele>
        <time>2021-03-25T11:34:03Z</time>
      </trkpt>
      <trkpt lat="42.88256" lon="0.12007">
        <ele>1864.3</ele>
        <time>2021-03-25T11:34:04Z</time>
      </trkpt>
      <trkpt lat="42.88256" lon="0.12008">
        <ele>1865</ele>
        <time>2021-03-25T11:34:06Z</time>
      </trkpt>
      <trkpt lat="42.88255" lon="0.12009">
        <ele>1865</ele>
        <time>2021-03-25T11:34:07Z</time>
      </trkpt>
      <trkpt lat="42.88255" lon="0.1201">
        <ele>1865</ele>
        <time>2021-03-25T11:34:09Z</time>
      </trkpt>
      <trkpt lat="42.88255" lon="0.1201">
        <ele>1865</ele>
        <time>2021-03-25T11:34:11Z</time>
      </trkpt>
      <trkpt lat="42.88255" lon="0.12011">
        <ele>1865</ele>
        <time>2021-03-25T11:34:12Z</time>
      </trkpt>
      <trkpt lat="42.88254" lon="0.12012">
        <ele>1865</ele>
        <time>2021-03-25T11:34:13Z</time>
      </trkpt>
      <trkpt lat="42.88254" lon="0.12013">
        <ele>1865.6</ele>
        <time>2021-03-25T11:34:15Z</time>
      </trkpt>
      <trkpt lat="42.88253" lon="0.12013">
        <ele>1865.6</ele>
        <time>2021-03-25T11:34:16Z</time>
      </trkpt>
      <trkpt lat="42.88253" lon="0.12013">
        <ele>1865.6</ele>
        <time>2021-03-25T11:34:17Z</time>
      </trkpt>
      <trkpt lat="42.88252" lon="0.12014">
        <ele>1865.6</ele>
        <time>2021-03-25T11:34:18Z</time>
      </trkpt>
      <trkpt lat="42.88251" lon="0.12014">
        <ele>1865.6</ele>
        <time>2021-03-25T11:34:20Z</time>
      </trkpt>
      <trkpt lat="42.88251" lon="0.12014">
        <ele>1865.6</ele>
        <time>2021-03-25T11:34:21Z</time>
      </trkpt>
      <trkpt lat="42.88251" lon="0.12014">
        <ele>1865.6</ele>
        <time>2021-03-25T11:34:22Z</time>
      </trkpt>
      <trkpt lat="42.88251" lon="0.12015">
        <ele>1865.7</ele>
        <time>2021-03-25T11:34:24Z</time>
      </trkpt>
      <trkpt lat="42.88251" lon="0.12016">
        <ele>1865.6</ele>
        <time>2021-03-25T11:34:26Z</time>
      </trkpt>
      <trkpt lat="42.88251" lon="0.12017">
        <ele>1866.2</ele>
        <time>2021-03-25T11:34:27Z</time>
      </trkpt>
      <trkpt lat="42.88251" lon="0.12017">
        <ele>1866.2</ele>
        <time>2021-03-25T11:34:29Z</time>
      </trkpt>
      <trkpt lat="42.88251" lon="0.12017">
        <ele>1866.2</ele>
        <time>2021-03-25T11:34:30Z</time>
      </trkpt>
      <trkpt lat="42.88251" lon="0.12017">
        <ele>1866.2</ele>
        <time>2021-03-25T11:34:32Z</time>
      </trkpt>
      <trkpt lat="42.88251" lon="0.12017">
        <ele>1866.2</ele>
        <time>2021-03-25T11:34:33Z</time>
      </trkpt>
      <trkpt lat="42.88251" lon="0.12018">
        <ele>1866.2</ele>
        <time>2021-03-25T11:34:35Z</time>
      </trkpt>
      <trkpt lat="42.88251" lon="0.12017">
        <ele>1866.2</ele>
        <time>2021-03-25T11:34:37Z</time>
      </trkpt>
      <trkpt lat="42.88252" lon="0.12017">
        <ele>1866.2</ele>
        <time>2021-03-25T11:34:38Z</time>
      </trkpt>
      <trkpt lat="42.88252" lon="0.12017">
        <ele>1866.2</ele>
        <time>2021-03-25T11:34:39Z</time>
      </trkpt>
      <trkpt lat="42.88251" lon="0.12017">
        <ele>1866.2</ele>
        <time>2021-03-25T11:34:41Z</time>
      </trkpt>
      <trkpt lat="42.88251" lon="0.12018">
        <ele>1866.2</ele>
        <time>2021-03-25T11:34:43Z</time>
      </trkpt>
      <trkpt lat="42.88251" lon="0.12018">
        <ele>1866.2</ele>
        <time>2021-03-25T11:34:45Z</time>
      </trkpt>
      <trkpt lat="42.88251" lon="0.1202">
        <ele>1866.2</ele>
        <time>2021-03-25T11:34:46Z</time>
      </trkpt>
      <trkpt lat="42.88251" lon="0.12021">
        <ele>1866.9</ele>
        <time>2021-03-25T11:34:47Z</time>
      </trkpt>
      <trkpt lat="42.8825" lon="0.12023">
        <ele>1866.9</ele>
        <time>2021-03-25T11:34:49Z</time>
      </trkpt>
      <trkpt lat="42.88248" lon="0.12027">
        <ele>1867.5</ele>
        <time>2021-03-25T11:34:50Z</time>
      </trkpt>
      <trkpt lat="42.88248" lon="0.1203">
        <ele>1868.2</ele>
        <time>2021-03-25T11:34:52Z</time>
      </trkpt>
      <trkpt lat="42.88247" lon="0.12032">
        <ele>1868.3</ele>
        <time>2021-03-25T11:34:54Z</time>
      </trkpt>
      <trkpt lat="42.88246" lon="0.12035">
        <ele>1868.9</ele>
        <time>2021-03-25T11:34:55Z</time>
      </trkpt>
      <trkpt lat="42.88246" lon="0.12034">
        <ele>1868.9</ele>
        <time>2021-03-25T11:34:57Z</time>
      </trkpt>
      <trkpt lat="42.88245" lon="0.12035">
        <ele>1868.9</ele>
        <time>2021-03-25T11:34:59Z</time>
      </trkpt>
      <trkpt lat="42.88244" lon="0.12038">
        <ele>1869.6</ele>
        <time>2021-03-25T11:35:01Z</time>
      </trkpt>
      <trkpt lat="42.88244" lon="0.12042">
        <ele>1869.6</ele>
        <time>2021-03-25T11:35:02Z</time>
      </trkpt>
      <trkpt lat="42.88243" lon="0.12046">
        <ele>1870.3</ele>
        <time>2021-03-25T11:35:04Z</time>
      </trkpt>
      <trkpt lat="42.88243" lon="0.12049">
        <ele>1871</ele>
        <time>2021-03-25T11:35:05Z</time>
      </trkpt>
      <trkpt lat="42.88242" lon="0.1205">
        <ele>1871</ele>
        <time>2021-03-25T11:35:07Z</time>
      </trkpt>
      <trkpt lat="42.88242" lon="0.12047">
        <ele>1871</ele>
        <time>2021-03-25T11:35:08Z</time>
      </trkpt>
      <trkpt lat="42.88242" lon="0.12043">
        <ele>1870.3</ele>
        <time>2021-03-25T11:35:10Z</time>
      </trkpt>
      <trkpt lat="42.88243" lon="0.12042">
        <ele>1869.6</ele>
        <time>2021-03-25T11:35:12Z</time>
      </trkpt>
      <trkpt lat="42.88244" lon="0.12042">
        <ele>1869.6</ele>
        <time>2021-03-25T11:35:13Z</time>
      </trkpt>
      <trkpt lat="42.88245" lon="0.12042">
        <ele>1870.3</ele>
        <time>2021-03-25T11:35:15Z</time>
      </trkpt>
      <trkpt lat="42.88245" lon="0.12043">
        <ele>1870.3</ele>
        <time>2021-03-25T11:35:16Z</time>
      </trkpt>
      <trkpt lat="42.88245" lon="0.12043">
        <ele>1870.3</ele>
        <time>2021-03-25T11:35:17Z</time>
      </trkpt>
      <trkpt lat="42.88245" lon="0.12045">
        <ele>1870.3</ele>
        <time>2021-03-25T11:35:19Z</time>
      </trkpt>
      <trkpt lat="42.88245" lon="0.12047">
        <ele>1870.9</ele>
        <time>2021-03-25T11:35:21Z</time>
      </trkpt>
      <trkpt lat="42.88244" lon="0.12051">
        <ele>1871.6</ele>
        <time>2021-03-25T11:35:22Z</time>
      </trkpt>
      <trkpt lat="42.88244" lon="0.12053">
        <ele>1871.6</ele>
        <time>2021-03-25T11:35:23Z</time>
      </trkpt>
      <trkpt lat="42.88243" lon="0.12058">
        <ele>1872.2</ele>
        <time>2021-03-25T11:35:25Z</time>
      </trkpt>
      <trkpt lat="42.88242" lon="0.12062">
        <ele>1872.9</ele>
        <time>2021-03-25T11:35:26Z</time>
      </trkpt>
      <trkpt lat="42.88242" lon="0.12065">
        <ele>1873.5</ele>
        <time>2021-03-25T11:35:27Z</time>
      </trkpt>
      <trkpt lat="42.88242" lon="0.1207">
        <ele>1874</ele>
        <time>2021-03-25T11:35:29Z</time>
      </trkpt>
      <trkpt lat="42.88244" lon="0.12074">
        <ele>1874.6</ele>
        <time>2021-03-25T11:35:31Z</time>
      </trkpt>
      <trkpt lat="42.88246" lon="0.12076">
        <ele>1874.6</ele>
        <time>2021-03-25T11:35:33Z</time>
      </trkpt>
      <trkpt lat="42.88246" lon="0.12077">
        <ele>1875.2</ele>
        <time>2021-03-25T11:35:34Z</time>
      </trkpt>
      <trkpt lat="42.88245" lon="0.12078">
        <ele>1875.2</ele>
        <time>2021-03-25T11:35:36Z</time>
      </trkpt>
      <trkpt lat="42.88245" lon="0.12077">
        <ele>1875.2</ele>
        <time>2021-03-25T11:35:37Z</time>
      </trkpt>
      <trkpt lat="42.88244" lon="0.12075">
        <ele>1874.6</ele>
        <time>2021-03-25T11:35:39Z</time>
      </trkpt>
      <trkpt lat="42.88243" lon="0.12074">
        <ele>1874.6</ele>
        <time>2021-03-25T11:35:40Z</time>
      </trkpt>
      <trkpt lat="42.88243" lon="0.12073">
        <ele>1874.6</ele>
        <time>2021-03-25T11:35:42Z</time>
      </trkpt>
      <trkpt lat="42.88243" lon="0.12072">
        <ele>1874.6</ele>
        <time>2021-03-25T11:35:44Z</time>
      </trkpt>
      <trkpt lat="42.88243" lon="0.12072">
        <ele>1874</ele>
        <time>2021-03-25T11:35:45Z</time>
      </trkpt>
      <trkpt lat="42.88243" lon="0.12071">
        <ele>1874</ele>
        <time>2021-03-25T11:35:47Z</time>
      </trkpt>
      <trkpt lat="42.88243" lon="0.12072">
        <ele>1874</ele>
        <time>2021-03-25T11:35:48Z</time>
      </trkpt>
      <trkpt lat="42.88243" lon="0.12072">
        <ele>1874.6</ele>
        <time>2021-03-25T11:35:49Z</time>
      </trkpt>
      <trkpt lat="42.88244" lon="0.12073">
        <ele>1874.6</ele>
        <time>2021-03-25T11:35:51Z</time>
      </trkpt>
      <trkpt lat="42.88245" lon="0.12075">
        <ele>1874.6</ele>
        <time>2021-03-25T11:35:53Z</time>
      </trkpt>
      <trkpt lat="42.88246" lon="0.12075">
        <ele>1874.6</ele>
        <time>2021-03-25T11:35:55Z</time>
      </trkpt>
      <trkpt lat="42.88247" lon="0.12076">
        <ele>1874.6</ele>
        <time>2021-03-25T11:35:57Z</time>
      </trkpt>
      <trkpt lat="42.88246" lon="0.12077">
        <ele>1875.2</ele>
        <time>2021-03-25T11:35:59Z</time>
      </trkpt>
      <trkpt lat="42.88246" lon="0.12079">
        <ele>1875.2</ele>
        <time>2021-03-25T11:36:00Z</time>
      </trkpt>
      <trkpt lat="42.88245" lon="0.1208">
        <ele>1875.2</ele>
        <time>2021-03-25T11:36:01Z</time>
      </trkpt>
      <trkpt lat="42.88244" lon="0.12081">
        <ele>1875.8</ele>
        <time>2021-03-25T11:36:02Z</time>
      </trkpt>
      <trkpt lat="42.88244" lon="0.12082">
        <ele>1875.9</ele>
        <time>2021-03-25T11:36:03Z</time>
      </trkpt>
      <trkpt lat="42.88243" lon="0.12084">
        <ele>1875.9</ele>
        <time>2021-03-25T11:36:05Z</time>
      </trkpt>
      <trkpt lat="42.88242" lon="0.12086">
        <ele>1876.9</ele>
        <time>2021-03-25T11:36:07Z</time>
      </trkpt>
      <trkpt lat="42.8824" lon="0.12087">
        <ele>1877</ele>
        <time>2021-03-25T11:36:09Z</time>
      </trkpt>
      <trkpt lat="42.88238" lon="0.12088">
        <ele>1877</ele>
        <time>2021-03-25T11:36:11Z</time>
      </trkpt>
      <trkpt lat="42.88237" lon="0.12089">
        <ele>1877.8</ele>
        <time>2021-03-25T11:36:12Z</time>
      </trkpt>
      <trkpt lat="42.88237" lon="0.1209">
        <ele>1877.8</ele>
        <time>2021-03-25T11:36:14Z</time>
      </trkpt>
      <trkpt lat="42.88237" lon="0.12091">
        <ele>1877.8</ele>
        <time>2021-03-25T11:36:15Z</time>
      </trkpt>
      <trkpt lat="42.88236" lon="0.12092">
        <ele>1877.8</ele>
        <time>2021-03-25T11:36:17Z</time>
      </trkpt>
      <trkpt lat="42.88236" lon="0.12093">
        <ele>1877.8</ele>
        <time>2021-03-25T11:36:18Z</time>
      </trkpt>
      <trkpt lat="42.88235" lon="0.12094">
        <ele>1878.5</ele>
        <time>2021-03-25T11:36:19Z</time>
      </trkpt>
      <trkpt lat="42.88233" lon="0.12094">
        <ele>1878.5</ele>
        <time>2021-03-25T11:36:21Z</time>
      </trkpt>
      <trkpt lat="42.88232" lon="0.12095">
        <ele>1878.5</ele>
        <time>2021-03-25T11:36:22Z</time>
      </trkpt>
      <trkpt lat="42.88231" lon="0.12095">
        <ele>1878.8</ele>
        <time>2021-03-25T11:36:23Z</time>
      </trkpt>
      <trkpt lat="42.8823" lon="0.12096">
        <ele>1878.8</ele>
        <time>2021-03-25T11:36:24Z</time>
      </trkpt>
      <trkpt lat="42.88229" lon="0.12096">
        <ele>1878.8</ele>
        <time>2021-03-25T11:36:25Z</time>
      </trkpt>
      <trkpt lat="42.88228" lon="0.12097">
        <ele>1879.1</ele>
        <time>2021-03-25T11:36:26Z</time>
      </trkpt>
      <trkpt lat="42.88226" lon="0.12098">
        <ele>1879.1</ele>
        <time>2021-03-25T11:36:28Z</time>
      </trkpt>
      <trkpt lat="42.88225" lon="0.12098">
        <ele>1880</ele>
        <time>2021-03-25T11:36:30Z</time>
      </trkpt>
      <trkpt lat="42.88224" lon="0.12098">
        <ele>1880</ele>
        <time>2021-03-25T11:36:32Z</time>
      </trkpt>
      <trkpt lat="42.88224" lon="0.12098">
        <ele>1879.4</ele>
        <time>2021-03-25T11:36:33Z</time>
      </trkpt>
      <trkpt lat="42.88225" lon="0.12097">
        <ele>1879.4</ele>
        <time>2021-03-25T11:36:35Z</time>
      </trkpt>
      <trkpt lat="42.88226" lon="0.12096">
        <ele>1879.1</ele>
        <time>2021-03-25T11:36:36Z</time>
      </trkpt>
      <trkpt lat="42.88227" lon="0.12096">
        <ele>1879.1</ele>
        <time>2021-03-25T11:36:37Z</time>
      </trkpt>
      <trkpt lat="42.88227" lon="0.12096">
        <ele>1879.1</ele>
        <time>2021-03-25T11:36:39Z</time>
      </trkpt>
      <trkpt lat="42.88228" lon="0.12096">
        <ele>1879.1</ele>
        <time>2021-03-25T11:36:40Z</time>
      </trkpt>
      <trkpt lat="42.88228" lon="0.12096">
        <ele>1879.1</ele>
        <time>2021-03-25T11:36:41Z</time>
      </trkpt>
      <trkpt lat="42.88227" lon="0.12098">
        <ele>1879.1</ele>
        <time>2021-03-25T11:36:43Z</time>
      </trkpt>
      <trkpt lat="42.88227" lon="0.12098">
        <ele>1879.6</ele>
        <time>2021-03-25T11:36:45Z</time>
      </trkpt>
      <trkpt lat="42.88227" lon="0.12099">
        <ele>1879.6</ele>
        <time>2021-03-25T11:36:46Z</time>
      </trkpt>
      <trkpt lat="42.88227" lon="0.121">
        <ele>1879.6</ele>
        <time>2021-03-25T11:36:47Z</time>
      </trkpt>
      <trkpt lat="42.88227" lon="0.12102">
        <ele>1879.6</ele>
        <time>2021-03-25T11:36:48Z</time>
      </trkpt>
      <trkpt lat="42.88227" lon="0.12103">
        <ele>1880.1</ele>
        <time>2021-03-25T11:36:49Z</time>
      </trkpt>
      <trkpt lat="42.88227" lon="0.12105">
        <ele>1880.1</ele>
        <time>2021-03-25T11:36:51Z</time>
      </trkpt>
      <trkpt lat="42.88227" lon="0.12106">
        <ele>1880.1</ele>
        <time>2021-03-25T11:36:52Z</time>
      </trkpt>
      <trkpt lat="42.88228" lon="0.12107">
        <ele>1880.6</ele>
        <time>2021-03-25T11:36:53Z</time>
      </trkpt>
      <trkpt lat="42.88228" lon="0.12108">
        <ele>1880.6</ele>
        <time>2021-03-25T11:36:54Z</time>
      </trkpt>
      <trkpt lat="42.88229" lon="0.12109">
        <ele>1880.6</ele>
        <time>2021-03-25T11:36:55Z</time>
      </trkpt>
      <trkpt lat="42.88229" lon="0.12109">
        <ele>1880.3</ele>
        <time>2021-03-25T11:36:56Z</time>
      </trkpt>
      <trkpt lat="42.8823" lon="0.1211">
        <ele>1880.3</ele>
        <time>2021-03-25T11:36:58Z</time>
      </trkpt>
      <trkpt lat="42.8823" lon="0.12109">
        <ele>1880.3</ele>
        <time>2021-03-25T11:36:59Z</time>
      </trkpt>
      <trkpt lat="42.88229" lon="0.12108">
        <ele>1880.3</ele>
        <time>2021-03-25T11:37:00Z</time>
      </trkpt>
      <trkpt lat="42.88228" lon="0.12108">
        <ele>1880.6</ele>
        <time>2021-03-25T11:37:02Z</time>
      </trkpt>
      <trkpt lat="42.88227" lon="0.12108">
        <ele>1880.6</ele>
        <time>2021-03-25T11:37:03Z</time>
      </trkpt>
      <trkpt lat="42.88227" lon="0.12109">
        <ele>1880.6</ele>
        <time>2021-03-25T11:37:04Z</time>
      </trkpt>
      <trkpt lat="42.88227" lon="0.12109">
        <ele>1880.6</ele>
        <time>2021-03-25T11:37:06Z</time>
      </trkpt>
      <trkpt lat="42.88227" lon="0.12108">
        <ele>1880.6</ele>
        <time>2021-03-25T11:37:08Z</time>
      </trkpt>
      <trkpt lat="42.88227" lon="0.12108">
        <ele>1880.6</ele>
        <time>2021-03-25T11:37:09Z</time>
      </trkpt>
      <trkpt lat="42.88227" lon="0.12108">
        <ele>1880.6</ele>
        <time>2021-03-25T11:37:10Z</time>
      </trkpt>
      <trkpt lat="42.88227" lon="0.12108">
        <ele>1880.6</ele>
        <time>2021-03-25T11:37:11Z</time>
      </trkpt>
      <trkpt lat="42.88227" lon="0.12109">
        <ele>1880.6</ele>
        <time>2021-03-25T11:37:13Z</time>
      </trkpt>
      <trkpt lat="42.88227" lon="0.12109">
        <ele>1880.6</ele>
        <time>2021-03-25T11:37:14Z</time>
      </trkpt>
      <trkpt lat="42.88228" lon="0.12108">
        <ele>1880.6</ele>
        <time>2021-03-25T11:37:16Z</time>
      </trkpt>
      <trkpt lat="42.88227" lon="0.12108">
        <ele>1880.6</ele>
        <time>2021-03-25T11:37:17Z</time>
      </trkpt>
      <trkpt lat="42.88227" lon="0.12107">
        <ele>1880.6</ele>
        <time>2021-03-25T11:37:18Z</time>
      </trkpt>
      <trkpt lat="42.88227" lon="0.12107">
        <ele>1880.6</ele>
        <time>2021-03-25T11:37:20Z</time>
      </trkpt>
      <trkpt lat="42.88228" lon="0.12108">
        <ele>1880.6</ele>
        <time>2021-03-25T11:37:22Z</time>
      </trkpt>
      <trkpt lat="42.88228" lon="0.12109">
        <ele>1880.6</ele>
        <time>2021-03-25T11:37:23Z</time>
      </trkpt>
      <trkpt lat="42.88228" lon="0.1211">
        <ele>1880.6</ele>
        <time>2021-03-25T11:37:25Z</time>
      </trkpt>
      <trkpt lat="42.88228" lon="0.12111">
        <ele>1881</ele>
        <time>2021-03-25T11:37:26Z</time>
      </trkpt>
      <trkpt lat="42.88227" lon="0.12112">
        <ele>1881</ele>
        <time>2021-03-25T11:37:27Z</time>
      </trkpt>
      <trkpt lat="42.88226" lon="0.12113">
        <ele>1881</ele>
        <time>2021-03-25T11:37:29Z</time>
      </trkpt>
      <trkpt lat="42.88225" lon="0.12114">
        <ele>1881.4</ele>
        <time>2021-03-25T11:37:30Z</time>
      </trkpt>
      <trkpt lat="42.88224" lon="0.12114">
        <ele>1881.4</ele>
        <time>2021-03-25T11:37:31Z</time>
      </trkpt>
      <trkpt lat="42.88223" lon="0.12115">
        <ele>1881.4</ele>
        <time>2021-03-25T11:37:32Z</time>
      </trkpt>
      <trkpt lat="42.88222" lon="0.12115">
        <ele>1881.4</ele>
        <time>2021-03-25T11:37:34Z</time>
      </trkpt>
      <trkpt lat="42.88222" lon="0.12115">
        <ele>1882.2</ele>
        <time>2021-03-25T11:37:35Z</time>
      </trkpt>
      <trkpt lat="42.88222" lon="0.12115">
        <ele>1882.2</ele>
        <time>2021-03-25T11:37:37Z</time>
      </trkpt>
      <trkpt lat="42.88222" lon="0.12115">
        <ele>1881.4</ele>
        <time>2021-03-25T11:37:38Z</time>
      </trkpt>
      <trkpt lat="42.88222" lon="0.12115">
        <ele>1881.8</ele>
        <time>2021-03-25T11:37:40Z</time>
      </trkpt>
      <trkpt lat="42.88222" lon="0.12114">
        <ele>1881.8</ele>
        <time>2021-03-25T11:37:42Z</time>
      </trkpt>
      <trkpt lat="42.88221" lon="0.12114">
        <ele>1881.8</ele>
        <time>2021-03-25T11:37:43Z</time>
      </trkpt>
      <trkpt lat="42.88221" lon="0.12114">
        <ele>1881.8</ele>
        <time>2021-03-25T11:37:45Z</time>
      </trkpt>
      <trkpt lat="42.88221" lon="0.12114">
        <ele>1881.8</ele>
        <time>2021-03-25T11:37:46Z</time>
      </trkpt>
      <trkpt lat="42.88221" lon="0.12115">
        <ele>1881.8</ele>
        <time>2021-03-25T11:37:48Z</time>
      </trkpt>
      <trkpt lat="42.88221" lon="0.12115">
        <ele>1881.8</ele>
        <time>2021-03-25T11:37:49Z</time>
      </trkpt>
      <trkpt lat="42.88221" lon="0.12115">
        <ele>1881.8</ele>
        <time>2021-03-25T11:37:51Z</time>
      </trkpt>
      <trkpt lat="42.88221" lon="0.12115">
        <ele>1881.8</ele>
        <time>2021-03-25T11:37:52Z</time>
      </trkpt>
      <trkpt lat="42.8822" lon="0.12114">
        <ele>1881.8</ele>
        <time>2021-03-25T11:37:53Z</time>
      </trkpt>
      <trkpt lat="42.8822" lon="0.12115">
        <ele>1881.8</ele>
        <time>2021-03-25T11:37:55Z</time>
      </trkpt>
      <trkpt lat="42.8822" lon="0.12115">
        <ele>1882.2</ele>
        <time>2021-03-25T11:37:56Z</time>
      </trkpt>
      <trkpt lat="42.88219" lon="0.12116">
        <ele>1882.2</ele>
        <time>2021-03-25T11:37:57Z</time>
      </trkpt>
      <trkpt lat="42.88218" lon="0.12117">
        <ele>1882.6</ele>
        <time>2021-03-25T11:37:59Z</time>
      </trkpt>
      <trkpt lat="42.88218" lon="0.12119">
        <ele>1882.6</ele>
        <time>2021-03-25T11:38:00Z</time>
      </trkpt>
      <trkpt lat="42.88217" lon="0.1212">
        <ele>1883</ele>
        <time>2021-03-25T11:38:01Z</time>
      </trkpt>
      <trkpt lat="42.88217" lon="0.12121">
        <ele>1883</ele>
        <time>2021-03-25T11:38:02Z</time>
      </trkpt>
      <trkpt lat="42.88217" lon="0.12122">
        <ele>1883</ele>
        <time>2021-03-25T11:38:04Z</time>
      </trkpt>
      <trkpt lat="42.88217" lon="0.12122">
        <ele>1883</ele>
        <time>2021-03-25T11:38:05Z</time>
      </trkpt>
      <trkpt lat="42.88217" lon="0.12122">
        <ele>1883</ele>
        <time>2021-03-25T11:38:06Z</time>
      </trkpt>
      <trkpt lat="42.88217" lon="0.12122">
        <ele>1883</ele>
        <time>2021-03-25T11:38:08Z</time>
      </trkpt>
      <trkpt lat="42.88217" lon="0.12121">
        <ele>1883</ele>
        <time>2021-03-25T11:38:10Z</time>
      </trkpt>
      <trkpt lat="42.88217" lon="0.12121">
        <ele>1883</ele>
        <time>2021-03-25T11:38:12Z</time>
      </trkpt>
      <trkpt lat="42.88217" lon="0.12121">
        <ele>1883</ele>
        <time>2021-03-25T11:38:13Z</time>
      </trkpt>
      <trkpt lat="42.88218" lon="0.12121">
        <ele>1883</ele>
        <time>2021-03-25T11:38:15Z</time>
      </trkpt>
      <trkpt lat="42.88218" lon="0.12121">
        <ele>1883</ele>
        <time>2021-03-25T11:38:16Z</time>
      </trkpt>
      <trkpt lat="42.88218" lon="0.12121">
        <ele>1883</ele>
        <time>2021-03-25T11:38:17Z</time>
      </trkpt>
      <trkpt lat="42.88218" lon="0.12121">
        <ele>1883</ele>
        <time>2021-03-25T11:38:18Z</time>
      </trkpt>
      <trkpt lat="42.88218" lon="0.12121">
        <ele>1883</ele>
        <time>2021-03-25T11:38:19Z</time>
      </trkpt>
      <trkpt lat="42.88218" lon="0.12121">
        <ele>1883</ele>
        <time>2021-03-25T11:38:21Z</time>
      </trkpt>
      <trkpt lat="42.88218" lon="0.12121">
        <ele>1883</ele>
        <time>2021-03-25T11:38:22Z</time>
      </trkpt>
      <trkpt lat="42.88218" lon="0.12121">
        <ele>1883</ele>
        <time>2021-03-25T11:38:23Z</time>
      </trkpt>
      <trkpt lat="42.88218" lon="0.12121">
        <ele>1883</ele>
        <time>2021-03-25T11:38:24Z</time>
      </trkpt>
      <trkpt lat="42.88217" lon="0.1212">
        <ele>1883</ele>
        <time>2021-03-25T11:38:25Z</time>
      </trkpt>
      <trkpt lat="42.88217" lon="0.1212">
        <ele>1883</ele>
        <time>2021-03-25T11:38:27Z</time>
      </trkpt>
      <trkpt lat="42.88217" lon="0.1212">
        <ele>1883</ele>
        <time>2021-03-25T11:38:28Z</time>
      </trkpt>
      <trkpt lat="42.88217" lon="0.1212">
        <ele>1883</ele>
        <time>2021-03-25T11:38:30Z</time>
      </trkpt>
      <trkpt lat="42.88217" lon="0.1212">
        <ele>1883</ele>
        <time>2021-03-25T11:38:31Z</time>
      </trkpt>
      <trkpt lat="42.88217" lon="0.12121">
        <ele>1883</ele>
        <time>2021-03-25T11:38:32Z</time>
      </trkpt>
      <trkpt lat="42.88217" lon="0.12121">
        <ele>1883</ele>
        <time>2021-03-25T11:38:33Z</time>
      </trkpt>
      <trkpt lat="42.88217" lon="0.12121">
        <ele>1883</ele>
        <time>2021-03-25T11:38:35Z</time>
      </trkpt>
      <trkpt lat="42.88217" lon="0.12121">
        <ele>1883</ele>
        <time>2021-03-25T11:38:36Z</time>
      </trkpt>
      <trkpt lat="42.88217" lon="0.12122">
        <ele>1883</ele>
        <time>2021-03-25T11:38:38Z</time>
      </trkpt>
      <trkpt lat="42.88216" lon="0.12122">
        <ele>1883</ele>
        <time>2021-03-25T11:38:39Z</time>
      </trkpt>
      <trkpt lat="42.88216" lon="0.12122">
        <ele>1883</ele>
        <time>2021-03-25T11:38:41Z</time>
      </trkpt>
      <trkpt lat="42.88216" lon="0.12122">
        <ele>1883.4</ele>
        <time>2021-03-25T11:38:42Z</time>
      </trkpt>
      <trkpt lat="42.88216" lon="0.12123">
        <ele>1883.4</ele>
        <time>2021-03-25T11:38:43Z</time>
      </trkpt>
      <trkpt lat="42.88215" lon="0.12125">
        <ele>1883.7</ele>
        <time>2021-03-25T11:38:45Z</time>
      </trkpt>
      <trkpt lat="42.88215" lon="0.12126">
        <ele>1883.7</ele>
        <time>2021-03-25T11:38:46Z</time>
      </trkpt>
      <trkpt lat="42.88215" lon="0.12127">
        <ele>1883.7</ele>
        <time>2021-03-25T11:38:47Z</time>
      </trkpt>
      <trkpt lat="42.88215" lon="0.12129">
        <ele>1884.1</ele>
        <time>2021-03-25T11:38:49Z</time>
      </trkpt>
      <trkpt lat="42.88215" lon="0.1213">
        <ele>1884.1</ele>
        <time>2021-03-25T11:38:50Z</time>
      </trkpt>
      <trkpt lat="42.88215" lon="0.12131">
        <ele>1884.1</ele>
        <time>2021-03-25T11:38:51Z</time>
      </trkpt>
      <trkpt lat="42.88214" lon="0.12133">
        <ele>1884.3</ele>
        <time>2021-03-25T11:38:52Z</time>
      </trkpt>
      <trkpt lat="42.88214" lon="0.12134">
        <ele>1884.3</ele>
        <time>2021-03-25T11:38:53Z</time>
      </trkpt>
      <trkpt lat="42.88214" lon="0.12136">
        <ele>1884.3</ele>
        <time>2021-03-25T11:38:54Z</time>
      </trkpt>
      <trkpt lat="42.88213" lon="0.12138">
        <ele>1884.6</ele>
        <time>2021-03-25T11:38:55Z</time>
      </trkpt>
      <trkpt lat="42.88213" lon="0.1214">
        <ele>1885</ele>
        <time>2021-03-25T11:38:57Z</time>
      </trkpt>
      <trkpt lat="42.88212" lon="0.12142">
        <ele>1885.2</ele>
        <time>2021-03-25T11:38:58Z</time>
      </trkpt>
      <trkpt lat="42.88212" lon="0.12144">
        <ele>1885.2</ele>
        <time>2021-03-25T11:39:00Z</time>
      </trkpt>
      <trkpt lat="42.88211" lon="0.12146">
        <ele>1885.4</ele>
        <time>2021-03-25T11:39:02Z</time>
      </trkpt>
      <trkpt lat="42.88211" lon="0.12147">
        <ele>1885.4</ele>
        <time>2021-03-25T11:39:04Z</time>
      </trkpt>
      <trkpt lat="42.88211" lon="0.12149">
        <ele>1885.4</ele>
        <time>2021-03-25T11:39:06Z</time>
      </trkpt>
      <trkpt lat="42.88211" lon="0.1215">
        <ele>1885.5</ele>
        <time>2021-03-25T11:39:07Z</time>
      </trkpt>
      <trkpt lat="42.88212" lon="0.12152">
        <ele>1885.5</ele>
        <time>2021-03-25T11:39:09Z</time>
      </trkpt>
      <trkpt lat="42.88212" lon="0.12153">
        <ele>1885.5</ele>
        <time>2021-03-25T11:39:10Z</time>
      </trkpt>
      <trkpt lat="42.88213" lon="0.12154">
        <ele>1885.6</ele>
        <time>2021-03-25T11:39:11Z</time>
      </trkpt>
      <trkpt lat="42.88213" lon="0.12155">
        <ele>1885.2</ele>
        <time>2021-03-25T11:39:12Z</time>
      </trkpt>
      <trkpt lat="42.88214" lon="0.12157">
        <ele>1885.2</ele>
        <time>2021-03-25T11:39:14Z</time>
      </trkpt>
      <trkpt lat="42.88214" lon="0.12158">
        <ele>1885.2</ele>
        <time>2021-03-25T11:39:15Z</time>
      </trkpt>
      <trkpt lat="42.88214" lon="0.1216">
        <ele>1885.3</ele>
        <time>2021-03-25T11:39:17Z</time>
      </trkpt>
      <trkpt lat="42.88215" lon="0.12161">
        <ele>1885.3</ele>
        <time>2021-03-25T11:39:18Z</time>
      </trkpt>
      <trkpt lat="42.88216" lon="0.12164">
        <ele>1885.3</ele>
        <time>2021-03-25T11:39:20Z</time>
      </trkpt>
      <trkpt lat="42.88216" lon="0.12166">
        <ele>1885.3</ele>
        <time>2021-03-25T11:39:22Z</time>
      </trkpt>
      <trkpt lat="42.88216" lon="0.12167">
        <ele>1885.4</ele>
        <time>2021-03-25T11:39:24Z</time>
      </trkpt>
      <trkpt lat="42.88216" lon="0.12168">
        <ele>1885.4</ele>
        <time>2021-03-25T11:39:25Z</time>
      </trkpt>
      <trkpt lat="42.88216" lon="0.12169">
        <ele>1885.4</ele>
        <time>2021-03-25T11:39:26Z</time>
      </trkpt>
      <trkpt lat="42.88216" lon="0.1217">
        <ele>1885.4</ele>
        <time>2021-03-25T11:39:27Z</time>
      </trkpt>
      <trkpt lat="42.88216" lon="0.12171">
        <ele>1885.5</ele>
        <time>2021-03-25T11:39:29Z</time>
      </trkpt>
      <trkpt lat="42.88216" lon="0.12172">
        <ele>1885.5</ele>
        <time>2021-03-25T11:39:30Z</time>
      </trkpt>
      <trkpt lat="42.88216" lon="0.12172">
        <ele>1885.5</ele>
        <time>2021-03-25T11:39:32Z</time>
      </trkpt>
      <trkpt lat="42.88215" lon="0.12174">
        <ele>1885.5</ele>
        <time>2021-03-25T11:39:33Z</time>
      </trkpt>
      <trkpt lat="42.88215" lon="0.12174">
        <ele>1885.5</ele>
        <time>2021-03-25T11:39:34Z</time>
      </trkpt>
      <trkpt lat="42.88215" lon="0.12175">
        <ele>1885.5</ele>
        <time>2021-03-25T11:39:36Z</time>
      </trkpt>
      <trkpt lat="42.88215" lon="0.12176">
        <ele>1885.5</ele>
        <time>2021-03-25T11:39:37Z</time>
      </trkpt>
      <trkpt lat="42.88214" lon="0.12177">
        <ele>1885.5</ele>
        <time>2021-03-25T11:39:39Z</time>
      </trkpt>
      <trkpt lat="42.88214" lon="0.12178">
        <ele>1885.5</ele>
        <time>2021-03-25T11:39:40Z</time>
      </trkpt>
      <trkpt lat="42.88213" lon="0.12178">
        <ele>1885.5</ele>
        <time>2021-03-25T11:39:41Z</time>
      </trkpt>
      <trkpt lat="42.88213" lon="0.12179">
        <ele>1885.5</ele>
        <time>2021-03-25T11:39:43Z</time>
      </trkpt>
      <trkpt lat="42.88213" lon="0.12181">
        <ele>1885.9</ele>
        <time>2021-03-25T11:39:44Z</time>
      </trkpt>
      <trkpt lat="42.88212" lon="0.12181">
        <ele>1885.9</ele>
        <time>2021-03-25T11:39:45Z</time>
      </trkpt>
      <trkpt lat="42.88212" lon="0.12183">
        <ele>1885.9</ele>
        <time>2021-03-25T11:39:47Z</time>
      </trkpt>
      <trkpt lat="42.88211" lon="0.12185">
        <ele>1885.9</ele>
        <time>2021-03-25T11:39:48Z</time>
      </trkpt>
      <trkpt lat="42.8821" lon="0.12186">
        <ele>1885.9</ele>
        <time>2021-03-25T11:39:49Z</time>
      </trkpt>
      <trkpt lat="42.8821" lon="0.12187">
        <ele>1885.9</ele>
        <time>2021-03-25T11:39:50Z</time>
      </trkpt>
      <trkpt lat="42.88209" lon="0.12189">
        <ele>1886.2</ele>
        <time>2021-03-25T11:39:52Z</time>
      </trkpt>
      <trkpt lat="42.88208" lon="0.12191">
        <ele>1886.2</ele>
        <time>2021-03-25T11:39:54Z</time>
      </trkpt>
      <trkpt lat="42.88207" lon="0.12193">
        <ele>1886.2</ele>
        <time>2021-03-25T11:39:55Z</time>
      </trkpt>
      <trkpt lat="42.88206" lon="0.12196">
        <ele>1886.6</ele>
        <time>2021-03-25T11:39:57Z</time>
      </trkpt>
      <trkpt lat="42.88205" lon="0.12197">
        <ele>1886.6</ele>
        <time>2021-03-25T11:39:58Z</time>
      </trkpt>
      <trkpt lat="42.88203" lon="0.122">
        <ele>1887</ele>
        <time>2021-03-25T11:40:00Z</time>
      </trkpt>
      <trkpt lat="42.88203" lon="0.12201">
        <ele>1886.9</ele>
        <time>2021-03-25T11:40:01Z</time>
      </trkpt>
      <trkpt lat="42.88202" lon="0.12203">
        <ele>1886.9</ele>
        <time>2021-03-25T11:40:02Z</time>
      </trkpt>
      <trkpt lat="42.88201" lon="0.12205">
        <ele>1886.9</ele>
        <time>2021-03-25T11:40:04Z</time>
      </trkpt>
      <trkpt lat="42.88201" lon="0.12205">
        <ele>1886.8</ele>
        <time>2021-03-25T11:40:05Z</time>
      </trkpt>
      <trkpt lat="42.88201" lon="0.12206">
        <ele>1886.8</ele>
        <time>2021-03-25T11:40:07Z</time>
      </trkpt>
      <trkpt lat="42.882" lon="0.12206">
        <ele>1887.3</ele>
        <time>2021-03-25T11:40:09Z</time>
      </trkpt>
      <trkpt lat="42.882" lon="0.12205">
        <ele>1887.4</ele>
        <time>2021-03-25T11:40:10Z</time>
      </trkpt>
      <trkpt lat="42.88199" lon="0.12204">
        <ele>1887.4</ele>
        <time>2021-03-25T11:40:11Z</time>
      </trkpt>
      <trkpt lat="42.88199" lon="0.12205">
        <ele>1887.4</ele>
        <time>2021-03-25T11:40:13Z</time>
      </trkpt>
      <trkpt lat="42.88198" lon="0.12205">
        <ele>1887.4</ele>
        <time>2021-03-25T11:40:14Z</time>
      </trkpt>
      <trkpt lat="42.88198" lon="0.12206">
        <ele>1887.3</ele>
        <time>2021-03-25T11:40:16Z</time>
      </trkpt>
      <trkpt lat="42.88197" lon="0.12207">
        <ele>1887.9</ele>
        <time>2021-03-25T11:40:17Z</time>
      </trkpt>
      <trkpt lat="42.88196" lon="0.12208">
        <ele>1887.9</ele>
        <time>2021-03-25T11:40:18Z</time>
      </trkpt>
      <trkpt lat="42.88196" lon="0.12209">
        <ele>1887.9</ele>
        <time>2021-03-25T11:40:19Z</time>
      </trkpt>
      <trkpt lat="42.88196" lon="0.1221">
        <ele>1887.7</ele>
        <time>2021-03-25T11:40:20Z</time>
      </trkpt>
      <trkpt lat="42.88196" lon="0.12212">
        <ele>1887.7</ele>
        <time>2021-03-25T11:40:22Z</time>
      </trkpt>
      <trkpt lat="42.88196" lon="0.12213">
        <ele>1887.7</ele>
        <time>2021-03-25T11:40:24Z</time>
      </trkpt>
      <trkpt lat="42.88196" lon="0.12213">
        <ele>1887.7</ele>
        <time>2021-03-25T11:40:25Z</time>
      </trkpt>
      <trkpt lat="42.88196" lon="0.12214">
        <ele>1887.6</ele>
        <time>2021-03-25T11:40:27Z</time>
      </trkpt>
      <trkpt lat="42.88195" lon="0.12215">
        <ele>1887.7</ele>
        <time>2021-03-25T11:40:28Z</time>
      </trkpt>
      <trkpt lat="42.88195" lon="0.12216">
        <ele>1887.8</ele>
        <time>2021-03-25T11:40:30Z</time>
      </trkpt>
      <trkpt lat="42.88195" lon="0.12217">
        <ele>1887.9</ele>
        <time>2021-03-25T11:40:31Z</time>
      </trkpt>
      <trkpt lat="42.88195" lon="0.12217">
        <ele>1888.1</ele>
        <time>2021-03-25T11:40:32Z</time>
      </trkpt>
      <trkpt lat="42.88195" lon="0.12219">
        <ele>1888</ele>
        <time>2021-03-25T11:40:34Z</time>
      </trkpt>
      <trkpt lat="42.88194" lon="0.12221">
        <ele>1888.1</ele>
        <time>2021-03-25T11:40:36Z</time>
      </trkpt>
      <trkpt lat="42.88194" lon="0.12223">
        <ele>1888.5</ele>
        <time>2021-03-25T11:40:38Z</time>
      </trkpt>
      <trkpt lat="42.88193" lon="0.12223">
        <ele>1888.6</ele>
        <time>2021-03-25T11:40:39Z</time>
      </trkpt>
      <trkpt lat="42.88192" lon="0.12224">
        <ele>1888.7</ele>
        <time>2021-03-25T11:40:41Z</time>
      </trkpt>
      <trkpt lat="42.88192" lon="0.12226">
        <ele>1888.8</ele>
        <time>2021-03-25T11:40:42Z</time>
      </trkpt>
      <trkpt lat="42.88192" lon="0.12228">
        <ele>1888.6</ele>
        <time>2021-03-25T11:40:44Z</time>
      </trkpt>
      <trkpt lat="42.88191" lon="0.12229">
        <ele>1888.8</ele>
        <time>2021-03-25T11:40:46Z</time>
      </trkpt>
      <trkpt lat="42.8819" lon="0.12226">
        <ele>1889.7</ele>
        <time>2021-03-25T11:40:48Z</time>
      </trkpt>
      <trkpt lat="42.88189" lon="0.12225">
        <ele>1889.8</ele>
        <time>2021-03-25T11:40:49Z</time>
      </trkpt>
      <trkpt lat="42.88188" lon="0.12224">
        <ele>1889.9</ele>
        <time>2021-03-25T11:40:51Z</time>
      </trkpt>
      <trkpt lat="42.88186" lon="0.12224">
        <ele>1890.6</ele>
        <time>2021-03-25T11:40:53Z</time>
      </trkpt>
      <trkpt lat="42.88185" lon="0.12225">
        <ele>1890.7</ele>
        <time>2021-03-25T11:40:54Z</time>
      </trkpt>
      <trkpt lat="42.88184" lon="0.12225">
        <ele>1891.4</ele>
        <time>2021-03-25T11:40:55Z</time>
      </trkpt>
      <trkpt lat="42.88183" lon="0.12226">
        <ele>1891.5</ele>
        <time>2021-03-25T11:40:57Z</time>
      </trkpt>
      <trkpt lat="42.88181" lon="0.12227">
        <ele>1891.4</ele>
        <time>2021-03-25T11:40:58Z</time>
      </trkpt>
      <trkpt lat="42.8818" lon="0.12228">
        <ele>1892.1</ele>
        <time>2021-03-25T11:40:59Z</time>
      </trkpt>
      <trkpt lat="42.88179" lon="0.1223">
        <ele>1892.3</ele>
        <time>2021-03-25T11:41:00Z</time>
      </trkpt>
      <trkpt lat="42.88178" lon="0.12232">
        <ele>1892.8</ele>
        <time>2021-03-25T11:41:02Z</time>
      </trkpt>
      <trkpt lat="42.88177" lon="0.12234">
        <ele>1892.9</ele>
        <time>2021-03-25T11:41:04Z</time>
      </trkpt>
      <trkpt lat="42.88176" lon="0.12236">
        <ele>1892.7</ele>
        <time>2021-03-25T11:41:05Z</time>
      </trkpt>
      <trkpt lat="42.88176" lon="0.12238">
        <ele>1892.8</ele>
        <time>2021-03-25T11:41:06Z</time>
      </trkpt>
      <trkpt lat="42.88175" lon="0.1224">
        <ele>1892.7</ele>
        <time>2021-03-25T11:41:07Z</time>
      </trkpt>
      <trkpt lat="42.88175" lon="0.12241">
        <ele>1893.5</ele>
        <time>2021-03-25T11:41:08Z</time>
      </trkpt>
      <trkpt lat="42.88175" lon="0.12243">
        <ele>1893.6</ele>
        <time>2021-03-25T11:41:10Z</time>
      </trkpt>
      <trkpt lat="42.88175" lon="0.12244">
        <ele>1893.5</ele>
        <time>2021-03-25T11:41:11Z</time>
      </trkpt>
      <trkpt lat="42.88175" lon="0.12246">
        <ele>1893.6</ele>
        <time>2021-03-25T11:41:13Z</time>
      </trkpt>
      <trkpt lat="42.88175" lon="0.12248">
        <ele>1893.5</ele>
        <time>2021-03-25T11:41:14Z</time>
      </trkpt>
      <trkpt lat="42.88175" lon="0.12251">
        <ele>1892.9</ele>
        <time>2021-03-25T11:41:16Z</time>
      </trkpt>
      <trkpt lat="42.88175" lon="0.12252">
        <ele>1892.8</ele>
        <time>2021-03-25T11:41:18Z</time>
      </trkpt>
      <trkpt lat="42.88175" lon="0.12254">
        <ele>1892.9</ele>
        <time>2021-03-25T11:41:19Z</time>
      </trkpt>
      <trkpt lat="42.88175" lon="0.12256">
        <ele>1893</ele>
        <time>2021-03-25T11:41:21Z</time>
      </trkpt>
      <trkpt lat="42.88176" lon="0.12258">
        <ele>1893</ele>
        <time>2021-03-25T11:41:23Z</time>
      </trkpt>
      <trkpt lat="42.88177" lon="0.12259">
        <ele>1893.1</ele>
        <time>2021-03-25T11:41:25Z</time>
      </trkpt>
      <trkpt lat="42.88177" lon="0.1226">
        <ele>1893.2</ele>
        <time>2021-03-25T11:41:26Z</time>
      </trkpt>
      <trkpt lat="42.88178" lon="0.1226">
        <ele>1893.3</ele>
        <time>2021-03-25T11:41:27Z</time>
      </trkpt>
      <trkpt lat="42.88178" lon="0.12261">
        <ele>1893.2</ele>
        <time>2021-03-25T11:41:29Z</time>
      </trkpt>
      <trkpt lat="42.88178" lon="0.12262">
        <ele>1893.3</ele>
        <time>2021-03-25T11:41:30Z</time>
      </trkpt>
      <trkpt lat="42.88178" lon="0.12263">
        <ele>1893.4</ele>
        <time>2021-03-25T11:41:31Z</time>
      </trkpt>
      <trkpt lat="42.88178" lon="0.12264">
        <ele>1893.5</ele>
        <time>2021-03-25T11:41:32Z</time>
      </trkpt>
      <trkpt lat="42.88178" lon="0.12265">
        <ele>1893.7</ele>
        <time>2021-03-25T11:41:34Z</time>
      </trkpt>
      <trkpt lat="42.88177" lon="0.12265">
        <ele>1893.6</ele>
        <time>2021-03-25T11:41:35Z</time>
      </trkpt>
      <trkpt lat="42.88177" lon="0.12267">
        <ele>1893.7</ele>
        <time>2021-03-25T11:41:36Z</time>
      </trkpt>
      <trkpt lat="42.88177" lon="0.12268">
        <ele>1893.8</ele>
        <time>2021-03-25T11:41:38Z</time>
      </trkpt>
      <trkpt lat="42.88177" lon="0.12271">
        <ele>1893.7</ele>
        <time>2021-03-25T11:41:40Z</time>
      </trkpt>
      <trkpt lat="42.88177" lon="0.12272">
        <ele>1893.8</ele>
        <time>2021-03-25T11:41:41Z</time>
      </trkpt>
      <trkpt lat="42.88177" lon="0.12274">
        <ele>1893.7</ele>
        <time>2021-03-25T11:41:43Z</time>
      </trkpt>
      <trkpt lat="42.88177" lon="0.12275">
        <ele>1893.8</ele>
        <time>2021-03-25T11:41:44Z</time>
      </trkpt>
      <trkpt lat="42.88177" lon="0.12276">
        <ele>1893.9</ele>
        <time>2021-03-25T11:41:46Z</time>
      </trkpt>
      <trkpt lat="42.88178" lon="0.12278">
        <ele>1894.1</ele>
        <time>2021-03-25T11:41:47Z</time>
      </trkpt>
      <trkpt lat="42.88178" lon="0.12279">
        <ele>1894</ele>
        <time>2021-03-25T11:41:48Z</time>
      </trkpt>
      <trkpt lat="42.88179" lon="0.12281">
        <ele>1893.5</ele>
        <time>2021-03-25T11:41:50Z</time>
      </trkpt>
      <trkpt lat="42.88179" lon="0.12283">
        <ele>1893.4</ele>
        <time>2021-03-25T11:41:51Z</time>
      </trkpt>
      <trkpt lat="42.88179" lon="0.12283">
        <ele>1893.5</ele>
        <time>2021-03-25T11:41:52Z</time>
      </trkpt>
      <trkpt lat="42.8818" lon="0.12284">
        <ele>1893.7</ele>
        <time>2021-03-25T11:41:54Z</time>
      </trkpt>
      <trkpt lat="42.8818" lon="0.12285">
        <ele>1893.8</ele>
        <time>2021-03-25T11:41:55Z</time>
      </trkpt>
      <trkpt lat="42.8818" lon="0.12286">
        <ele>1893.9</ele>
        <time>2021-03-25T11:41:56Z</time>
      </trkpt>
      <trkpt lat="42.8818" lon="0.12286">
        <ele>1894</ele>
        <time>2021-03-25T11:41:57Z</time>
      </trkpt>
      <trkpt lat="42.8818" lon="0.12286">
        <ele>1894.1</ele>
        <time>2021-03-25T11:41:58Z</time>
      </trkpt>
      <trkpt lat="42.8818" lon="0.12287">
        <ele>1894</ele>
        <time>2021-03-25T11:42:00Z</time>
      </trkpt>
      <trkpt lat="42.8818" lon="0.12287">
        <ele>1894.1</ele>
        <time>2021-03-25T11:42:01Z</time>
      </trkpt>
      <trkpt lat="42.8818" lon="0.12287">
        <ele>1894.2</ele>
        <time>2021-03-25T11:42:03Z</time>
      </trkpt>
      <trkpt lat="42.88179" lon="0.12287">
        <ele>1894.3</ele>
        <time>2021-03-25T11:42:04Z</time>
      </trkpt>
      <trkpt lat="42.88179" lon="0.12288">
        <ele>1894.5</ele>
        <time>2021-03-25T11:42:06Z</time>
      </trkpt>
      <trkpt lat="42.88179" lon="0.12288">
        <ele>1894.6</ele>
        <time>2021-03-25T11:42:07Z</time>
      </trkpt>
      <trkpt lat="42.88179" lon="0.12288">
        <ele>1894.7</ele>
        <time>2021-03-25T11:42:09Z</time>
      </trkpt>
      <trkpt lat="42.88179" lon="0.12288">
        <ele>1894.8</ele>
        <time>2021-03-25T11:42:11Z</time>
      </trkpt>
      <trkpt lat="42.88179" lon="0.12288">
        <ele>1894.9</ele>
        <time>2021-03-25T11:42:12Z</time>
      </trkpt>
      <trkpt lat="42.88179" lon="0.12288">
        <ele>1895</ele>
        <time>2021-03-25T11:42:14Z</time>
      </trkpt>
      <trkpt lat="42.88179" lon="0.12289">
        <ele>1895.1</ele>
        <time>2021-03-25T11:42:16Z</time>
      </trkpt>
      <trkpt lat="42.88179" lon="0.12289">
        <ele>1895.2</ele>
        <time>2021-03-25T11:42:17Z</time>
      </trkpt>
      <trkpt lat="42.88179" lon="0.12289">
        <ele>1895.3</ele>
        <time>2021-03-25T11:42:18Z</time>
      </trkpt>
      <trkpt lat="42.88179" lon="0.12289">
        <ele>1895.5</ele>
        <time>2021-03-25T11:42:19Z</time>
      </trkpt>
      <trkpt lat="42.88178" lon="0.12289">
        <ele>1895.6</ele>
        <time>2021-03-25T11:42:21Z</time>
      </trkpt>
      <trkpt lat="42.88178" lon="0.1229">
        <ele>1896.2</ele>
        <time>2021-03-25T11:42:23Z</time>
      </trkpt>
      <trkpt lat="42.88178" lon="0.1229">
        <ele>1896.3</ele>
        <time>2021-03-25T11:42:24Z</time>
      </trkpt>
      <trkpt lat="42.88178" lon="0.12291">
        <ele>1896.4</ele>
        <time>2021-03-25T11:42:26Z</time>
      </trkpt>
      <trkpt lat="42.88178" lon="0.12291">
        <ele>1896.3</ele>
        <time>2021-03-25T11:42:27Z</time>
      </trkpt>
      <trkpt lat="42.88178" lon="0.12292">
        <ele>1895.9</ele>
        <time>2021-03-25T11:42:29Z</time>
      </trkpt>
      <trkpt lat="42.88178" lon="0.12292">
        <ele>1896.5</ele>
        <time>2021-03-25T11:42:31Z</time>
      </trkpt>
      <trkpt lat="42.88178" lon="0.12293">
        <ele>1896.6</ele>
        <time>2021-03-25T11:42:33Z</time>
      </trkpt>
      <trkpt lat="42.88178" lon="0.12294">
        <ele>1896.8</ele>
        <time>2021-03-25T11:42:34Z</time>
      </trkpt>
      <trkpt lat="42.88177" lon="0.12295">
        <ele>1896.9</ele>
        <time>2021-03-25T11:42:36Z</time>
      </trkpt>
      <trkpt lat="42.88177" lon="0.12295">
        <ele>1897</ele>
        <time>2021-03-25T11:42:37Z</time>
      </trkpt>
      <trkpt lat="42.88177" lon="0.12295">
        <ele>1897.1</ele>
        <time>2021-03-25T11:42:38Z</time>
      </trkpt>
      <trkpt lat="42.88177" lon="0.12295">
        <ele>1897.2</ele>
        <time>2021-03-25T11:42:40Z</time>
      </trkpt>
      <trkpt lat="42.88176" lon="0.12295">
        <ele>1897.3</ele>
        <time>2021-03-25T11:42:42Z</time>
      </trkpt>
      <trkpt lat="42.88176" lon="0.12294">
        <ele>1897.4</ele>
        <time>2021-03-25T11:42:44Z</time>
      </trkpt>
      <trkpt lat="42.88176" lon="0.12294">
        <ele>1897.5</ele>
        <time>2021-03-25T11:42:45Z</time>
      </trkpt>
      <trkpt lat="42.88175" lon="0.12294">
        <ele>1897.6</ele>
        <time>2021-03-25T11:42:47Z</time>
      </trkpt>
      <trkpt lat="42.88176" lon="0.12294">
        <ele>1897.8</ele>
        <time>2021-03-25T11:42:49Z</time>
      </trkpt>
      <trkpt lat="42.88176" lon="0.12294">
        <ele>1897.9</ele>
        <time>2021-03-25T11:42:50Z</time>
      </trkpt>
      <trkpt lat="42.88176" lon="0.12294">
        <ele>1898</ele>
        <time>2021-03-25T11:42:52Z</time>
      </trkpt>
      <trkpt lat="42.88176" lon="0.12294">
        <ele>1898.1</ele>
        <time>2021-03-25T11:42:54Z</time>
      </trkpt>
      <trkpt lat="42.88176" lon="0.12294">
        <ele>1898.2</ele>
        <time>2021-03-25T11:42:56Z</time>
      </trkpt>
      <trkpt lat="42.88176" lon="0.12294">
        <ele>1898.2</ele>
        <time>2021-03-25T11:42:58Z</time>
      </trkpt>
      <trkpt lat="42.88176" lon="0.12294">
        <ele>1898.2</ele>
        <time>2021-03-25T11:42:59Z</time>
      </trkpt>
      <trkpt lat="42.88176" lon="0.12294">
        <ele>1898.2</ele>
        <time>2021-03-25T11:43:01Z</time>
      </trkpt>
      <trkpt lat="42.88176" lon="0.12294">
        <ele>1898.2</ele>
        <time>2021-03-25T11:43:02Z</time>
      </trkpt>
      <trkpt lat="42.88176" lon="0.12294">
        <ele>1898.2</ele>
        <time>2021-03-25T11:43:03Z</time>
      </trkpt>
      <trkpt lat="42.88176" lon="0.12294">
        <ele>1898.2</ele>
        <time>2021-03-25T11:43:05Z</time>
      </trkpt>
      <trkpt lat="42.88176" lon="0.12294">
        <ele>1898.2</ele>
        <time>2021-03-25T11:43:06Z</time>
      </trkpt>
      <trkpt lat="42.88176" lon="0.12294">
        <ele>1898.2</ele>
        <time>2021-03-25T11:43:07Z</time>
      </trkpt>
      <trkpt lat="42.88176" lon="0.12294">
        <ele>1898.2</ele>
        <time>2021-03-25T11:43:09Z</time>
      </trkpt>
      <trkpt lat="42.88176" lon="0.12294">
        <ele>1898.2</ele>
        <time>2021-03-25T11:43:11Z</time>
      </trkpt>
      <trkpt lat="42.88176" lon="0.12294">
        <ele>1898.2</ele>
        <time>2021-03-25T11:43:12Z</time>
      </trkpt>
      <trkpt lat="42.88176" lon="0.12294">
        <ele>1898.2</ele>
        <time>2021-03-25T11:43:14Z</time>
      </trkpt>
      <trkpt lat="42.88176" lon="0.12294">
        <ele>1898.2</ele>
        <time>2021-03-25T11:43:16Z</time>
      </trkpt>
      <trkpt lat="42.88176" lon="0.12294">
        <ele>1898.2</ele>
        <time>2021-03-25T11:43:17Z</time>
      </trkpt>
      <trkpt lat="42.88176" lon="0.12294">
        <ele>1898.2</ele>
        <time>2021-03-25T11:43:19Z</time>
      </trkpt>
      <trkpt lat="42.88176" lon="0.12294">
        <ele>1898.2</ele>
        <time>2021-03-25T11:43:20Z</time>
      </trkpt>
      <trkpt lat="42.88176" lon="0.12294">
        <ele>1898.2</ele>
        <time>2021-03-25T11:43:22Z</time>
      </trkpt>
      <trkpt lat="42.88176" lon="0.12294">
        <ele>1898.2</ele>
        <time>2021-03-25T11:43:23Z</time>
      </trkpt>
      <trkpt lat="42.88176" lon="0.12294">
        <ele>1898.2</ele>
        <time>2021-03-25T11:43:25Z</time>
      </trkpt>
      <trkpt lat="42.88176" lon="0.12294">
        <ele>1898.2</ele>
        <time>2021-03-25T11:43:26Z</time>
      </trkpt>
      <trkpt lat="42.88176" lon="0.12294">
        <ele>1898.2</ele>
        <time>2021-03-25T11:43:27Z</time>
      </trkpt>
      <trkpt lat="42.88176" lon="0.12294">
        <ele>1898.2</ele>
        <time>2021-03-25T11:43:28Z</time>
      </trkpt>
      <trkpt lat="42.88176" lon="0.12294">
        <ele>1898.2</ele>
        <time>2021-03-25T11:43:29Z</time>
      </trkpt>
      <trkpt lat="42.88176" lon="0.12294">
        <ele>1898.2</ele>
        <time>2021-03-25T11:43:31Z</time>
      </trkpt>
      <trkpt lat="42.88175" lon="0.12295">
        <ele>1898.2</ele>
        <time>2021-03-25T11:43:33Z</time>
      </trkpt>
      <trkpt lat="42.88176" lon="0.12295">
        <ele>1898</ele>
        <time>2021-03-25T11:43:35Z</time>
      </trkpt>
      <trkpt lat="42.88176" lon="0.12296">
        <ele>1898</ele>
        <time>2021-03-25T11:43:36Z</time>
      </trkpt>
      <trkpt lat="42.88176" lon="0.12296">
        <ele>1898</ele>
        <time>2021-03-25T11:43:38Z</time>
      </trkpt>
      <trkpt lat="42.88177" lon="0.12297">
        <ele>1898</ele>
        <time>2021-03-25T11:43:39Z</time>
      </trkpt>
      <trkpt lat="42.88177" lon="0.12297">
        <ele>1898</ele>
        <time>2021-03-25T11:43:41Z</time>
      </trkpt>
      <trkpt lat="42.88178" lon="0.12298">
        <ele>1898</ele>
        <time>2021-03-25T11:43:42Z</time>
      </trkpt>
      <trkpt lat="42.88178" lon="0.12298">
        <ele>1898</ele>
        <time>2021-03-25T11:43:44Z</time>
      </trkpt>
      <trkpt lat="42.88178" lon="0.12298">
        <ele>1898</ele>
        <time>2021-03-25T11:43:45Z</time>
      </trkpt>
      <trkpt lat="42.88178" lon="0.12298">
        <ele>1897.4</ele>
        <time>2021-03-25T11:43:46Z</time>
      </trkpt>
      <trkpt lat="42.88178" lon="0.12298">
        <ele>1897.4</ele>
        <time>2021-03-25T11:43:47Z</time>
      </trkpt>
      <trkpt lat="42.88179" lon="0.12299">
        <ele>1897.4</ele>
        <time>2021-03-25T11:43:49Z</time>
      </trkpt>
      <trkpt lat="42.88179" lon="0.12299">
        <ele>1897.4</ele>
        <time>2021-03-25T11:43:50Z</time>
      </trkpt>
      <trkpt lat="42.88179" lon="0.123">
        <ele>1897.2</ele>
        <time>2021-03-25T11:43:52Z</time>
      </trkpt>
      <trkpt lat="42.88179" lon="0.123">
        <ele>1897.2</ele>
        <time>2021-03-25T11:43:53Z</time>
      </trkpt>
      <trkpt lat="42.88179" lon="0.123">
        <ele>1897.2</ele>
        <time>2021-03-25T11:43:55Z</time>
      </trkpt>
      <trkpt lat="42.88179" lon="0.123">
        <ele>1897.4</ele>
        <time>2021-03-25T11:43:56Z</time>
      </trkpt>
      <trkpt lat="42.88179" lon="0.12299">
        <ele>1897.4</ele>
        <time>2021-03-25T11:43:57Z</time>
      </trkpt>
      <trkpt lat="42.88179" lon="0.12299">
        <ele>1897.4</ele>
        <time>2021-03-25T11:43:59Z</time>
      </trkpt>
      <trkpt lat="42.88179" lon="0.12299">
        <ele>1897.4</ele>
        <time>2021-03-25T11:44:00Z</time>
      </trkpt>
      <trkpt lat="42.88179" lon="0.12299">
        <ele>1897.4</ele>
        <time>2021-03-25T11:44:02Z</time>
      </trkpt>
      <trkpt lat="42.88179" lon="0.12299">
        <ele>1897.4</ele>
        <time>2021-03-25T11:44:04Z</time>
      </trkpt>
      <trkpt lat="42.88179" lon="0.12299">
        <ele>1897.4</ele>
        <time>2021-03-25T11:44:05Z</time>
      </trkpt>
      <trkpt lat="42.88179" lon="0.12297">
        <ele>1897.4</ele>
        <time>2021-03-25T11:44:07Z</time>
      </trkpt>
      <trkpt lat="42.88179" lon="0.12297">
        <ele>1897.4</ele>
        <time>2021-03-25T11:44:08Z</time>
      </trkpt>
      <trkpt lat="42.88179" lon="0.12297">
        <ele>1897.4</ele>
        <time>2021-03-25T11:44:09Z</time>
      </trkpt>
      <trkpt lat="42.88179" lon="0.12297">
        <ele>1897.4</ele>
        <time>2021-03-25T11:44:10Z</time>
      </trkpt>
      <trkpt lat="42.88179" lon="0.12297">
        <ele>1897.4</ele>
        <time>2021-03-25T11:44:12Z</time>
      </trkpt>
      <trkpt lat="42.88179" lon="0.12297">
        <ele>1897.4</ele>
        <time>2021-03-25T11:44:14Z</time>
      </trkpt>
      <trkpt lat="42.88179" lon="0.12297">
        <ele>1897.4</ele>
        <time>2021-03-25T11:44:16Z</time>
      </trkpt>
      <trkpt lat="42.88179" lon="0.12297">
        <ele>1897.4</ele>
        <time>2021-03-25T11:44:17Z</time>
      </trkpt>
      <trkpt lat="42.88179" lon="0.12297">
        <ele>1897.4</ele>
        <time>2021-03-25T11:44:18Z</time>
      </trkpt>
      <trkpt lat="42.88179" lon="0.12297">
        <ele>1897.4</ele>
        <time>2021-03-25T11:44:19Z</time>
      </trkpt>
      <trkpt lat="42.88179" lon="0.12297">
        <ele>1897.4</ele>
        <time>2021-03-25T11:44:21Z</time>
      </trkpt>
      <trkpt lat="42.88179" lon="0.12297">
        <ele>1897.4</ele>
        <time>2021-03-25T11:44:22Z</time>
      </trkpt>
      <trkpt lat="42.88179" lon="0.12297">
        <ele>1897.4</ele>
        <time>2021-03-25T11:44:23Z</time>
      </trkpt>
      <trkpt lat="42.88179" lon="0.12297">
        <ele>1897.4</ele>
        <time>2021-03-25T11:44:25Z</time>
      </trkpt>
      <trkpt lat="42.88179" lon="0.12297">
        <ele>1897.4</ele>
        <time>2021-03-25T11:44:27Z</time>
      </trkpt>
      <trkpt lat="42.88179" lon="0.12297">
        <ele>1897.4</ele>
        <time>2021-03-25T11:44:29Z</time>
      </trkpt>
      <trkpt lat="42.88179" lon="0.12297">
        <ele>1897.4</ele>
        <time>2021-03-25T11:44:31Z</time>
      </trkpt>
      <trkpt lat="42.88179" lon="0.12297">
        <ele>1897.4</ele>
        <time>2021-03-25T11:44:33Z</time>
      </trkpt>
      <trkpt lat="42.88179" lon="0.12297">
        <ele>1897.4</ele>
        <time>2021-03-25T11:44:34Z</time>
      </trkpt>
      <trkpt lat="42.88179" lon="0.12297">
        <ele>1897.4</ele>
        <time>2021-03-25T11:44:35Z</time>
      </trkpt>
      <trkpt lat="42.88179" lon="0.12297">
        <ele>1897.4</ele>
        <time>2021-03-25T11:44:37Z</time>
      </trkpt>
      <trkpt lat="42.88179" lon="0.12297">
        <ele>1897.4</ele>
        <time>2021-03-25T11:44:38Z</time>
      </trkpt>
      <trkpt lat="42.88179" lon="0.12297">
        <ele>1897.4</ele>
        <time>2021-03-25T11:44:40Z</time>
      </trkpt>
      <trkpt lat="42.88179" lon="0.12297">
        <ele>1897.4</ele>
        <time>2021-03-25T11:44:42Z</time>
      </trkpt>
      <trkpt lat="42.88179" lon="0.12297">
        <ele>1897.4</ele>
        <time>2021-03-25T11:44:44Z</time>
      </trkpt>
      <trkpt lat="42.88179" lon="0.12297">
        <ele>1897.4</ele>
        <time>2021-03-25T11:44:46Z</time>
      </trkpt>
      <trkpt lat="42.88179" lon="0.12297">
        <ele>1897.4</ele>
        <time>2021-03-25T11:44:48Z</time>
      </trkpt>
      <trkpt lat="42.88179" lon="0.12297">
        <ele>1897.4</ele>
        <time>2021-03-25T11:44:50Z</time>
      </trkpt>
      <trkpt lat="42.88179" lon="0.12297">
        <ele>1897.4</ele>
        <time>2021-03-25T11:44:52Z</time>
      </trkpt>
      <trkpt lat="42.88179" lon="0.12297">
        <ele>1897.4</ele>
        <time>2021-03-25T11:44:53Z</time>
      </trkpt>
      <trkpt lat="42.88179" lon="0.12297">
        <ele>1897.4</ele>
        <time>2021-03-25T11:44:54Z</time>
      </trkpt>
      <trkpt lat="42.88179" lon="0.12297">
        <ele>1897.4</ele>
        <time>2021-03-25T11:44:55Z</time>
      </trkpt>
      <trkpt lat="42.88179" lon="0.12297">
        <ele>1897.4</ele>
        <time>2021-03-25T11:44:56Z</time>
      </trkpt>
      <trkpt lat="42.88179" lon="0.12297">
        <ele>1897.4</ele>
        <time>2021-03-25T11:44:58Z</time>
      </trkpt>
      <trkpt lat="42.88179" lon="0.12297">
        <ele>1897.4</ele>
        <time>2021-03-25T11:44:59Z</time>
      </trkpt>
      <trkpt lat="42.88179" lon="0.12297">
        <ele>1897.4</ele>
        <time>2021-03-25T11:45:01Z</time>
      </trkpt>
      <trkpt lat="42.88179" lon="0.12297">
        <ele>1897.4</ele>
        <time>2021-03-25T11:45:02Z</time>
      </trkpt>
      <trkpt lat="42.88179" lon="0.12297">
        <ele>1897.4</ele>
        <time>2021-03-25T11:45:03Z</time>
      </trkpt>
      <trkpt lat="42.88179" lon="0.12297">
        <ele>1897.4</ele>
        <time>2021-03-25T11:45:05Z</time>
      </trkpt>
      <trkpt lat="42.88179" lon="0.12296">
        <ele>1897.4</ele>
        <time>2021-03-25T11:45:06Z</time>
      </trkpt>
      <trkpt lat="42.88179" lon="0.12296">
        <ele>1897.4</ele>
        <time>2021-03-25T11:45:08Z</time>
      </trkpt>
      <trkpt lat="42.88179" lon="0.12296">
        <ele>1897.4</ele>
        <time>2021-03-25T11:45:09Z</time>
      </trkpt>
      <trkpt lat="42.88179" lon="0.12296">
        <ele>1897.4</ele>
        <time>2021-03-25T11:45:11Z</time>
      </trkpt>
      <trkpt lat="42.88179" lon="0.12296">
        <ele>1897.4</ele>
        <time>2021-03-25T11:45:13Z</time>
      </trkpt>
      <trkpt lat="42.88179" lon="0.12296">
        <ele>1897.4</ele>
        <time>2021-03-25T11:45:15Z</time>
      </trkpt>
      <trkpt lat="42.88179" lon="0.12296">
        <ele>1897.4</ele>
        <time>2021-03-25T11:45:17Z</time>
      </trkpt>
      <trkpt lat="42.8818" lon="0.12296">
        <ele>1897.4</ele>
        <time>2021-03-25T11:45:18Z</time>
      </trkpt>
      <trkpt lat="42.8818" lon="0.12296">
        <ele>1897.4</ele>
        <time>2021-03-25T11:45:20Z</time>
      </trkpt>
      <trkpt lat="42.8818" lon="0.12296">
        <ele>1897.4</ele>
        <time>2021-03-25T11:45:21Z</time>
      </trkpt>
      <trkpt lat="42.8818" lon="0.12296">
        <ele>1897.4</ele>
        <time>2021-03-25T11:45:23Z</time>
      </trkpt>
      <trkpt lat="42.8818" lon="0.12296">
        <ele>1897.4</ele>
        <time>2021-03-25T11:45:25Z</time>
      </trkpt>
      <trkpt lat="42.88181" lon="0.12296">
        <ele>1897.4</ele>
        <time>2021-03-25T11:45:27Z</time>
      </trkpt>
      <trkpt lat="42.88181" lon="0.12296">
        <ele>1897.4</ele>
        <time>2021-03-25T11:45:29Z</time>
      </trkpt>
      <trkpt lat="42.88181" lon="0.12297">
        <ele>1896.9</ele>
        <time>2021-03-25T11:45:31Z</time>
      </trkpt>
      <trkpt lat="42.88182" lon="0.12297">
        <ele>1896.9</ele>
        <time>2021-03-25T11:45:33Z</time>
      </trkpt>
      <trkpt lat="42.88182" lon="0.12297">
        <ele>1896.9</ele>
        <time>2021-03-25T11:45:34Z</time>
      </trkpt>
      <trkpt lat="42.88182" lon="0.12297">
        <ele>1896.9</ele>
        <time>2021-03-25T11:45:35Z</time>
      </trkpt>
      <trkpt lat="42.88182" lon="0.12297">
        <ele>1896.9</ele>
        <time>2021-03-25T11:45:37Z</time>
      </trkpt>
      <trkpt lat="42.88182" lon="0.12297">
        <ele>1896.9</ele>
        <time>2021-03-25T11:45:38Z</time>
      </trkpt>
      <trkpt lat="42.88181" lon="0.12297">
        <ele>1897.4</ele>
        <time>2021-03-25T11:45:39Z</time>
      </trkpt>
      <trkpt lat="42.88181" lon="0.12297">
        <ele>1897.4</ele>
        <time>2021-03-25T11:45:41Z</time>
      </trkpt>
      <trkpt lat="42.88181" lon="0.12297">
        <ele>1897.4</ele>
        <time>2021-03-25T11:45:43Z</time>
      </trkpt>
      <trkpt lat="42.8818" lon="0.12297">
        <ele>1897.4</ele>
        <time>2021-03-25T11:45:45Z</time>
      </trkpt>
      <trkpt lat="42.88179" lon="0.12297">
        <ele>1897.4</ele>
        <time>2021-03-25T11:45:47Z</time>
      </trkpt>
      <trkpt lat="42.88179" lon="0.12297">
        <ele>1897.4</ele>
        <time>2021-03-25T11:45:48Z</time>
      </trkpt>
      <trkpt lat="42.88179" lon="0.12297">
        <ele>1897.4</ele>
        <time>2021-03-25T11:45:50Z</time>
      </trkpt>
      <trkpt lat="42.88179" lon="0.12297">
        <ele>1897.4</ele>
        <time>2021-03-25T11:45:52Z</time>
      </trkpt>
      <trkpt lat="42.88179" lon="0.12297">
        <ele>1897.4</ele>
        <time>2021-03-25T11:45:53Z</time>
      </trkpt>
      <trkpt lat="42.88178" lon="0.12297">
        <ele>1897.4</ele>
        <time>2021-03-25T11:45:54Z</time>
      </trkpt>
      <trkpt lat="42.88178" lon="0.12297">
        <ele>1898</ele>
        <time>2021-03-25T11:45:56Z</time>
      </trkpt>
      <trkpt lat="42.88178" lon="0.12297">
        <ele>1898</ele>
        <time>2021-03-25T11:45:57Z</time>
      </trkpt>
      <trkpt lat="42.88177" lon="0.12297">
        <ele>1898</ele>
        <time>2021-03-25T11:45:59Z</time>
      </trkpt>
      <trkpt lat="42.88177" lon="0.12298">
        <ele>1898</ele>
        <time>2021-03-25T11:46:01Z</time>
      </trkpt>
      <trkpt lat="42.88177" lon="0.12298">
        <ele>1898</ele>
        <time>2021-03-25T11:46:02Z</time>
      </trkpt>
      <trkpt lat="42.88177" lon="0.12298">
        <ele>1898</ele>
        <time>2021-03-25T11:46:03Z</time>
      </trkpt>
      <trkpt lat="42.88177" lon="0.12297">
        <ele>1898</ele>
        <time>2021-03-25T11:46:05Z</time>
      </trkpt>
      <trkpt lat="42.88177" lon="0.12297">
        <ele>1898</ele>
        <time>2021-03-25T11:46:06Z</time>
      </trkpt>
      <trkpt lat="42.88177" lon="0.12297">
        <ele>1898</ele>
        <time>2021-03-25T11:46:07Z</time>
      </trkpt>
      <trkpt lat="42.88177" lon="0.12297">
        <ele>1898</ele>
        <time>2021-03-25T11:46:09Z</time>
      </trkpt>
      <trkpt lat="42.88177" lon="0.12297">
        <ele>1898</ele>
        <time>2021-03-25T11:46:10Z</time>
      </trkpt>
      <trkpt lat="42.88176" lon="0.12297">
        <ele>1898</ele>
        <time>2021-03-25T11:46:12Z</time>
      </trkpt>
      <trkpt lat="42.88176" lon="0.12297">
        <ele>1898</ele>
        <time>2021-03-25T11:46:14Z</time>
      </trkpt>
      <trkpt lat="42.88176" lon="0.12297">
        <ele>1898</ele>
        <time>2021-03-25T11:46:15Z</time>
      </trkpt>
      <trkpt lat="42.88176" lon="0.12297">
        <ele>1898</ele>
        <time>2021-03-25T11:46:17Z</time>
      </trkpt>
      <trkpt lat="42.88176" lon="0.12297">
        <ele>1898</ele>
        <time>2021-03-25T11:46:18Z</time>
      </trkpt>
      <trkpt lat="42.88176" lon="0.12297">
        <ele>1898</ele>
        <time>2021-03-25T11:46:20Z</time>
      </trkpt>
      <trkpt lat="42.88176" lon="0.12297">
        <ele>1898</ele>
        <time>2021-03-25T11:46:21Z</time>
      </trkpt>
      <trkpt lat="42.88177" lon="0.12297">
        <ele>1898</ele>
        <time>2021-03-25T11:46:23Z</time>
      </trkpt>
      <trkpt lat="42.88177" lon="0.12296">
        <ele>1898</ele>
        <time>2021-03-25T11:46:25Z</time>
      </trkpt>
      <trkpt lat="42.88176" lon="0.12296">
        <ele>1898</ele>
        <time>2021-03-25T11:46:26Z</time>
      </trkpt>
      <trkpt lat="42.88175" lon="0.12297">
        <ele>1898</ele>
        <time>2021-03-25T11:46:28Z</time>
      </trkpt>
      <trkpt lat="42.88173" lon="0.12297">
        <ele>1898.6</ele>
        <time>2021-03-25T11:46:29Z</time>
      </trkpt>
      <trkpt lat="42.88172" lon="0.12298">
        <ele>1899.2</ele>
        <time>2021-03-25T11:46:30Z</time>
      </trkpt>
      <trkpt lat="42.88171" lon="0.123">
        <ele>1899</ele>
        <time>2021-03-25T11:46:32Z</time>
      </trkpt>
      <trkpt lat="42.8817" lon="0.12301">
        <ele>1899</ele>
        <time>2021-03-25T11:46:33Z</time>
      </trkpt>
      <trkpt lat="42.88169" lon="0.12303">
        <ele>1899</ele>
        <time>2021-03-25T11:46:34Z</time>
      </trkpt>
      <trkpt lat="42.88168" lon="0.12304">
        <ele>1899.5</ele>
        <time>2021-03-25T11:46:36Z</time>
      </trkpt>
      <trkpt lat="42.88166" lon="0.12307">
        <ele>1899.5</ele>
        <time>2021-03-25T11:46:37Z</time>
      </trkpt>
      <trkpt lat="42.88165" lon="0.12308">
        <ele>1900.4</ele>
        <time>2021-03-25T11:46:38Z</time>
      </trkpt>
      <trkpt lat="42.88165" lon="0.1231">
        <ele>1900.2</ele>
        <time>2021-03-25T11:46:40Z</time>
      </trkpt>
      <trkpt lat="42.88164" lon="0.12311">
        <ele>1900.2</ele>
        <time>2021-03-25T11:46:41Z</time>
      </trkpt>
      <trkpt lat="42.88163" lon="0.12313">
        <ele>1899.9</ele>
        <time>2021-03-25T11:46:43Z</time>
      </trkpt>
      <trkpt lat="42.88162" lon="0.12314">
        <ele>1900.9</ele>
        <time>2021-03-25T11:46:44Z</time>
      </trkpt>
      <trkpt lat="42.88161" lon="0.12316">
        <ele>1900.9</ele>
        <time>2021-03-25T11:46:45Z</time>
      </trkpt>
      <trkpt lat="42.8816" lon="0.1232">
        <ele>1900.7</ele>
        <time>2021-03-25T11:46:47Z</time>
      </trkpt>
      <trkpt lat="42.8816" lon="0.12322">
        <ele>1900.5</ele>
        <time>2021-03-25T11:46:48Z</time>
      </trkpt>
      <trkpt lat="42.88159" lon="0.12328">
        <ele>1901.5</ele>
        <time>2021-03-25T11:46:50Z</time>
      </trkpt>
      <trkpt lat="42.88158" lon="0.12331">
        <ele>1901.4</ele>
        <time>2021-03-25T11:46:51Z</time>
      </trkpt>
      <trkpt lat="42.88157" lon="0.12332">
        <ele>1901.4</ele>
        <time>2021-03-25T11:46:53Z</time>
      </trkpt>
      <trkpt lat="42.88157" lon="0.12333">
        <ele>1901.4</ele>
        <time>2021-03-25T11:46:54Z</time>
      </trkpt>
      <trkpt lat="42.88157" lon="0.12334">
        <ele>1901.4</ele>
        <time>2021-03-25T11:46:55Z</time>
      </trkpt>
      <trkpt lat="42.88157" lon="0.12335">
        <ele>1901.2</ele>
        <time>2021-03-25T11:46:57Z</time>
      </trkpt>
      <trkpt lat="42.88157" lon="0.12337">
        <ele>1901.2</ele>
        <time>2021-03-25T11:46:59Z</time>
      </trkpt>
      <trkpt lat="42.88157" lon="0.12339">
        <ele>1901.1</ele>
        <time>2021-03-25T11:47:00Z</time>
      </trkpt>
      <trkpt lat="42.88159" lon="0.12341">
        <ele>1901.1</ele>
        <time>2021-03-25T11:47:02Z</time>
      </trkpt>
      <trkpt lat="42.88159" lon="0.12343">
        <ele>1901</ele>
        <time>2021-03-25T11:47:03Z</time>
      </trkpt>
      <trkpt lat="42.88159" lon="0.12344">
        <ele>1899.8</ele>
        <time>2021-03-25T11:47:04Z</time>
      </trkpt>
      <trkpt lat="42.88159" lon="0.12345">
        <ele>1899.8</ele>
        <time>2021-03-25T11:47:06Z</time>
      </trkpt>
      <trkpt lat="42.88159" lon="0.12346">
        <ele>1901</ele>
        <time>2021-03-25T11:47:07Z</time>
      </trkpt>
      <trkpt lat="42.88159" lon="0.12346">
        <ele>1901</ele>
        <time>2021-03-25T11:47:08Z</time>
      </trkpt>
      <trkpt lat="42.88159" lon="0.12347">
        <ele>1901</ele>
        <time>2021-03-25T11:47:09Z</time>
      </trkpt>
      <trkpt lat="42.88159" lon="0.12348">
        <ele>1900.9</ele>
        <time>2021-03-25T11:47:11Z</time>
      </trkpt>
      <trkpt lat="42.88158" lon="0.12348">
        <ele>1900.9</ele>
        <time>2021-03-25T11:47:12Z</time>
      </trkpt>
      <trkpt lat="42.88158" lon="0.12349">
        <ele>1900.9</ele>
        <time>2021-03-25T11:47:14Z</time>
      </trkpt>
      <trkpt lat="42.88157" lon="0.1235">
        <ele>1900.9</ele>
        <time>2021-03-25T11:47:15Z</time>
      </trkpt>
      <trkpt lat="42.88157" lon="0.12351">
        <ele>1900.8</ele>
        <time>2021-03-25T11:47:16Z</time>
      </trkpt>
      <trkpt lat="42.88156" lon="0.12352">
        <ele>1900.8</ele>
        <time>2021-03-25T11:47:17Z</time>
      </trkpt>
      <trkpt lat="42.88156" lon="0.12354">
        <ele>1902</ele>
        <time>2021-03-25T11:47:19Z</time>
      </trkpt>
      <trkpt lat="42.88155" lon="0.12355">
        <ele>1902</ele>
        <time>2021-03-25T11:47:20Z</time>
      </trkpt>
      <trkpt lat="42.88155" lon="0.12356">
        <ele>1901.9</ele>
        <time>2021-03-25T11:47:22Z</time>
      </trkpt>
      <trkpt lat="42.88155" lon="0.12357">
        <ele>1901.9</ele>
        <time>2021-03-25T11:47:23Z</time>
      </trkpt>
      <trkpt lat="42.88154" lon="0.12358">
        <ele>1901.9</ele>
        <time>2021-03-25T11:47:24Z</time>
      </trkpt>
      <trkpt lat="42.88154" lon="0.12358">
        <ele>1901.9</ele>
        <time>2021-03-25T11:47:25Z</time>
      </trkpt>
      <trkpt lat="42.88154" lon="0.12359">
        <ele>1901.9</ele>
        <time>2021-03-25T11:47:26Z</time>
      </trkpt>
      <trkpt lat="42.88154" lon="0.1236">
        <ele>1901.9</ele>
        <time>2021-03-25T11:47:28Z</time>
      </trkpt>
      <trkpt lat="42.88154" lon="0.1236">
        <ele>1901.8</ele>
        <time>2021-03-25T11:47:29Z</time>
      </trkpt>
      <trkpt lat="42.88153" lon="0.12362">
        <ele>1903</ele>
        <time>2021-03-25T11:47:31Z</time>
      </trkpt>
      <trkpt lat="42.88153" lon="0.12362">
        <ele>1903</ele>
        <time>2021-03-25T11:47:32Z</time>
      </trkpt>
      <trkpt lat="42.88152" lon="0.12363">
        <ele>1903</ele>
        <time>2021-03-25T11:47:34Z</time>
      </trkpt>
      <trkpt lat="42.88152" lon="0.12363">
        <ele>1903</ele>
        <time>2021-03-25T11:47:35Z</time>
      </trkpt>
      <trkpt lat="42.88152" lon="0.12363">
        <ele>1903</ele>
        <time>2021-03-25T11:47:37Z</time>
      </trkpt>
      <trkpt lat="42.88152" lon="0.12363">
        <ele>1903</ele>
        <time>2021-03-25T11:47:38Z</time>
      </trkpt>
      <trkpt lat="42.88152" lon="0.12363">
        <ele>1903</ele>
        <time>2021-03-25T11:47:39Z</time>
      </trkpt>
      <trkpt lat="42.88151" lon="0.12363">
        <ele>1903</ele>
        <time>2021-03-25T11:47:41Z</time>
      </trkpt>
      <trkpt lat="42.88151" lon="0.12364">
        <ele>1903</ele>
        <time>2021-03-25T11:47:43Z</time>
      </trkpt>
      <trkpt lat="42.88151" lon="0.12364">
        <ele>1902.9</ele>
        <time>2021-03-25T11:47:44Z</time>
      </trkpt>
      <trkpt lat="42.88151" lon="0.12364">
        <ele>1902.9</ele>
        <time>2021-03-25T11:47:45Z</time>
      </trkpt>
      <trkpt lat="42.88151" lon="0.12365">
        <ele>1902.9</ele>
        <time>2021-03-25T11:47:47Z</time>
      </trkpt>
      <trkpt lat="42.88151" lon="0.12365">
        <ele>1902.9</ele>
        <time>2021-03-25T11:47:49Z</time>
      </trkpt>
      <trkpt lat="42.8815" lon="0.12365">
        <ele>1902.9</ele>
        <time>2021-03-25T11:47:50Z</time>
      </trkpt>
      <trkpt lat="42.8815" lon="0.12366">
        <ele>1902.9</ele>
        <time>2021-03-25T11:47:51Z</time>
      </trkpt>
      <trkpt lat="42.8815" lon="0.12366">
        <ele>1902.9</ele>
        <time>2021-03-25T11:47:53Z</time>
      </trkpt>
      <trkpt lat="42.8815" lon="0.12366">
        <ele>1902.9</ele>
        <time>2021-03-25T11:47:54Z</time>
      </trkpt>
      <trkpt lat="42.8815" lon="0.12366">
        <ele>1902.9</ele>
        <time>2021-03-25T11:47:55Z</time>
      </trkpt>
      <trkpt lat="42.8815" lon="0.12366">
        <ele>1902.9</ele>
        <time>2021-03-25T11:47:57Z</time>
      </trkpt>
      <trkpt lat="42.8815" lon="0.12366">
        <ele>1902.9</ele>
        <time>2021-03-25T11:47:58Z</time>
      </trkpt>
      <trkpt lat="42.8815" lon="0.12367">
        <ele>1902.9</ele>
        <time>2021-03-25T11:47:59Z</time>
      </trkpt>
      <trkpt lat="42.8815" lon="0.12367">
        <ele>1902.9</ele>
        <time>2021-03-25T11:48:00Z</time>
      </trkpt>
      <trkpt lat="42.8815" lon="0.12367">
        <ele>1902.9</ele>
        <time>2021-03-25T11:48:01Z</time>
      </trkpt>
      <trkpt lat="42.8815" lon="0.12367">
        <ele>1902.9</ele>
        <time>2021-03-25T11:48:02Z</time>
      </trkpt>
      <trkpt lat="42.8815" lon="0.12367">
        <ele>1902.9</ele>
        <time>2021-03-25T11:48:03Z</time>
      </trkpt>
      <trkpt lat="42.8815" lon="0.12367">
        <ele>1902.9</ele>
        <time>2021-03-25T11:48:05Z</time>
      </trkpt>
      <trkpt lat="42.8815" lon="0.12368">
        <ele>1902.9</ele>
        <time>2021-03-25T11:48:07Z</time>
      </trkpt>
      <trkpt lat="42.8815" lon="0.12368">
        <ele>1902.9</ele>
        <time>2021-03-25T11:48:08Z</time>
      </trkpt>
      <trkpt lat="42.8815" lon="0.12369">
        <ele>1904</ele>
        <time>2021-03-25T11:48:09Z</time>
      </trkpt>
      <trkpt lat="42.8815" lon="0.1237">
        <ele>1904</ele>
        <time>2021-03-25T11:48:11Z</time>
      </trkpt>
      <trkpt lat="42.88149" lon="0.1237">
        <ele>1904</ele>
        <time>2021-03-25T11:48:13Z</time>
      </trkpt>
      <trkpt lat="42.88149" lon="0.12371">
        <ele>1904</ele>
        <time>2021-03-25T11:48:14Z</time>
      </trkpt>
      <trkpt lat="42.88149" lon="0.12371">
        <ele>1904</ele>
        <time>2021-03-25T11:48:15Z</time>
      </trkpt>
      <trkpt lat="42.88148" lon="0.12373">
        <ele>1903.9</ele>
        <time>2021-03-25T11:48:17Z</time>
      </trkpt>
      <trkpt lat="42.88148" lon="0.12374">
        <ele>1903.9</ele>
        <time>2021-03-25T11:48:18Z</time>
      </trkpt>
      <trkpt lat="42.88147" lon="0.12376">
        <ele>1903.9</ele>
        <time>2021-03-25T11:48:19Z</time>
      </trkpt>
      <trkpt lat="42.88147" lon="0.12377">
        <ele>1903.8</ele>
        <time>2021-03-25T11:48:21Z</time>
      </trkpt>
      <trkpt lat="42.88146" lon="0.12378">
        <ele>1905.1</ele>
        <time>2021-03-25T11:48:22Z</time>
      </trkpt>
      <trkpt lat="42.88146" lon="0.12379">
        <ele>1905.1</ele>
        <time>2021-03-25T11:48:23Z</time>
      </trkpt>
      <trkpt lat="42.88146" lon="0.1238">
        <ele>1905.1</ele>
        <time>2021-03-25T11:48:25Z</time>
      </trkpt>
      <trkpt lat="42.88145" lon="0.12382">
        <ele>1905</ele>
        <time>2021-03-25T11:48:26Z</time>
      </trkpt>
      <trkpt lat="42.88145" lon="0.12383">
        <ele>1905</ele>
        <time>2021-03-25T11:48:27Z</time>
      </trkpt>
      <trkpt lat="42.88144" lon="0.12386">
        <ele>1904.9</ele>
        <time>2021-03-25T11:48:29Z</time>
      </trkpt>
      <trkpt lat="42.88143" lon="0.12389">
        <ele>1906.4</ele>
        <time>2021-03-25T11:48:31Z</time>
      </trkpt>
      <trkpt lat="42.88143" lon="0.1239">
        <ele>1906.3</ele>
        <time>2021-03-25T11:48:32Z</time>
      </trkpt>
      <trkpt lat="42.88143" lon="0.12392">
        <ele>1906.3</ele>
        <time>2021-03-25T11:48:33Z</time>
      </trkpt>
      <trkpt lat="42.88142" lon="0.12393">
        <ele>1906.3</ele>
        <time>2021-03-25T11:48:34Z</time>
      </trkpt>
      <trkpt lat="42.88143" lon="0.12393">
        <ele>1906.3</ele>
        <time>2021-03-25T11:48:35Z</time>
      </trkpt>
      <trkpt lat="42.88143" lon="0.12394">
        <ele>1906.3</ele>
        <time>2021-03-25T11:48:36Z</time>
      </trkpt>
      <trkpt lat="42.88143" lon="0.12396">
        <ele>1906.3</ele>
        <time>2021-03-25T11:48:38Z</time>
      </trkpt>
      <trkpt lat="42.88143" lon="0.12397">
        <ele>1906.3</ele>
        <time>2021-03-25T11:48:39Z</time>
      </trkpt>
      <trkpt lat="42.88143" lon="0.12397">
        <ele>1906.3</ele>
        <time>2021-03-25T11:48:40Z</time>
      </trkpt>
      <trkpt lat="42.88143" lon="0.12397">
        <ele>1906.3</ele>
        <time>2021-03-25T11:48:41Z</time>
      </trkpt>
      <trkpt lat="42.88143" lon="0.12398">
        <ele>1906.3</ele>
        <time>2021-03-25T11:48:42Z</time>
      </trkpt>
      <trkpt lat="42.88143" lon="0.12398">
        <ele>1906.2</ele>
        <time>2021-03-25T11:48:44Z</time>
      </trkpt>
      <trkpt lat="42.88143" lon="0.12399">
        <ele>1906.2</ele>
        <time>2021-03-25T11:48:45Z</time>
      </trkpt>
      <trkpt lat="42.88143" lon="0.12399">
        <ele>1906.2</ele>
        <time>2021-03-25T11:48:47Z</time>
      </trkpt>
      <trkpt lat="42.88143" lon="0.124">
        <ele>1906.2</ele>
        <time>2021-03-25T11:48:49Z</time>
      </trkpt>
      <trkpt lat="42.88143" lon="0.12401">
        <ele>1906.2</ele>
        <time>2021-03-25T11:48:51Z</time>
      </trkpt>
      <trkpt lat="42.88143" lon="0.12402">
        <ele>1906.2</ele>
        <time>2021-03-25T11:48:52Z</time>
      </trkpt>
      <trkpt lat="42.88142" lon="0.12403">
        <ele>1906.2</ele>
        <time>2021-03-25T11:48:54Z</time>
      </trkpt>
      <trkpt lat="42.88142" lon="0.12405">
        <ele>1906.2</ele>
        <time>2021-03-25T11:48:56Z</time>
      </trkpt>
      <trkpt lat="42.88142" lon="0.12405">
        <ele>1906.2</ele>
        <time>2021-03-25T11:48:57Z</time>
      </trkpt>
      <trkpt lat="42.88142" lon="0.12406">
        <ele>1906.2</ele>
        <time>2021-03-25T11:48:58Z</time>
      </trkpt>
      <trkpt lat="42.88141" lon="0.12407">
        <ele>1906.1</ele>
        <time>2021-03-25T11:49:00Z</time>
      </trkpt>
      <trkpt lat="42.88141" lon="0.12408">
        <ele>1906.1</ele>
        <time>2021-03-25T11:49:01Z</time>
      </trkpt>
      <trkpt lat="42.88141" lon="0.12409">
        <ele>1906.1</ele>
        <time>2021-03-25T11:49:02Z</time>
      </trkpt>
      <trkpt lat="42.88141" lon="0.1241">
        <ele>1906.1</ele>
        <time>2021-03-25T11:49:03Z</time>
      </trkpt>
      <trkpt lat="42.88141" lon="0.12411">
        <ele>1906.1</ele>
        <time>2021-03-25T11:49:04Z</time>
      </trkpt>
      <trkpt lat="42.88141" lon="0.12413">
        <ele>1906.1</ele>
        <time>2021-03-25T11:49:06Z</time>
      </trkpt>
      <trkpt lat="42.88141" lon="0.12415">
        <ele>1906.1</ele>
        <time>2021-03-25T11:49:07Z</time>
      </trkpt>
      <trkpt lat="42.88141" lon="0.12417">
        <ele>1906.1</ele>
        <time>2021-03-25T11:49:09Z</time>
      </trkpt>
      <trkpt lat="42.88141" lon="0.12419">
        <ele>1906.1</ele>
        <time>2021-03-25T11:49:10Z</time>
      </trkpt>
      <trkpt lat="42.88141" lon="0.12421">
        <ele>1906.1</ele>
        <time>2021-03-25T11:49:12Z</time>
      </trkpt>
      <trkpt lat="42.88141" lon="0.12423">
        <ele>1906.1</ele>
        <time>2021-03-25T11:49:13Z</time>
      </trkpt>
      <trkpt lat="42.88141" lon="0.12425">
        <ele>1906.1</ele>
        <time>2021-03-25T11:49:14Z</time>
      </trkpt>
      <trkpt lat="42.8814" lon="0.12426">
        <ele>1907.8</ele>
        <time>2021-03-25T11:49:15Z</time>
      </trkpt>
      <trkpt lat="42.8814" lon="0.12428">
        <ele>1907.8</ele>
        <time>2021-03-25T11:49:17Z</time>
      </trkpt>
      <trkpt lat="42.88139" lon="0.12429">
        <ele>1907.8</ele>
        <time>2021-03-25T11:49:18Z</time>
      </trkpt>
      <trkpt lat="42.88138" lon="0.12431">
        <ele>1907.8</ele>
        <time>2021-03-25T11:49:19Z</time>
      </trkpt>
      <trkpt lat="42.88137" lon="0.12433">
        <ele>1907.8</ele>
        <time>2021-03-25T11:49:21Z</time>
      </trkpt>
      <trkpt lat="42.88136" lon="0.12435">
        <ele>1909.6</ele>
        <time>2021-03-25T11:49:22Z</time>
      </trkpt>
      <trkpt lat="42.88131" lon="0.1244">
        <ele>1913.1</ele>
        <time>2021-03-25T11:49:24Z</time>
      </trkpt>
      <trkpt lat="42.88128" lon="0.12442">
        <ele>1912.9</ele>
        <time>2021-03-25T11:49:25Z</time>
      </trkpt>
      <trkpt lat="42.88127" lon="0.12442">
        <ele>1914.6</ele>
        <time>2021-03-25T11:49:26Z</time>
      </trkpt>
      <trkpt lat="42.88127" lon="0.12443">
        <ele>1914.6</ele>
        <time>2021-03-25T11:49:27Z</time>
      </trkpt>
      <trkpt lat="42.88126" lon="0.12443">
        <ele>1914.6</ele>
        <time>2021-03-25T11:49:29Z</time>
      </trkpt>
      <trkpt lat="42.88125" lon="0.12444">
        <ele>1914.6</ele>
        <time>2021-03-25T11:49:30Z</time>
      </trkpt>
      <trkpt lat="42.88125" lon="0.12444">
        <ele>1914.6</ele>
        <time>2021-03-25T11:49:31Z</time>
      </trkpt>
      <trkpt lat="42.88125" lon="0.12445">
        <ele>1916.4</ele>
        <time>2021-03-25T11:49:32Z</time>
      </trkpt>
      <trkpt lat="42.88124" lon="0.12445">
        <ele>1916.4</ele>
        <time>2021-03-25T11:49:33Z</time>
      </trkpt>
      <trkpt lat="42.88124" lon="0.12446">
        <ele>1916.2</ele>
        <time>2021-03-25T11:49:35Z</time>
      </trkpt>
      <trkpt lat="42.88123" lon="0.12446">
        <ele>1916.2</ele>
        <time>2021-03-25T11:49:36Z</time>
      </trkpt>
      <trkpt lat="42.88123" lon="0.12447">
        <ele>1916.2</ele>
        <time>2021-03-25T11:49:37Z</time>
      </trkpt>
      <trkpt lat="42.88122" lon="0.12447">
        <ele>1916.2</ele>
        <time>2021-03-25T11:49:38Z</time>
      </trkpt>
      <trkpt lat="42.88122" lon="0.12448">
        <ele>1916.2</ele>
        <time>2021-03-25T11:49:40Z</time>
      </trkpt>
      <trkpt lat="42.88121" lon="0.12449">
        <ele>1918.1</ele>
        <time>2021-03-25T11:49:42Z</time>
      </trkpt>
      <trkpt lat="42.88121" lon="0.1245">
        <ele>1917.9</ele>
        <time>2021-03-25T11:49:44Z</time>
      </trkpt>
      <trkpt lat="42.88121" lon="0.12451">
        <ele>1917.9</ele>
        <time>2021-03-25T11:49:46Z</time>
      </trkpt>
      <trkpt lat="42.88121" lon="0.12453">
        <ele>1917.9</ele>
        <time>2021-03-25T11:49:48Z</time>
      </trkpt>
      <trkpt lat="42.88121" lon="0.12453">
        <ele>1917.9</ele>
        <time>2021-03-25T11:49:49Z</time>
      </trkpt>
      <trkpt lat="42.88121" lon="0.12455">
        <ele>1917.6</ele>
        <time>2021-03-25T11:49:50Z</time>
      </trkpt>
      <trkpt lat="42.88121" lon="0.12455">
        <ele>1917.6</ele>
        <time>2021-03-25T11:49:51Z</time>
      </trkpt>
      <trkpt lat="42.88122" lon="0.12457">
        <ele>1915.7</ele>
        <time>2021-03-25T11:49:53Z</time>
      </trkpt>
      <trkpt lat="42.88122" lon="0.12459">
        <ele>1915.5</ele>
        <time>2021-03-25T11:49:55Z</time>
      </trkpt>
      <trkpt lat="42.88122" lon="0.1246">
        <ele>1915.5</ele>
        <time>2021-03-25T11:49:57Z</time>
      </trkpt>
      <trkpt lat="42.88122" lon="0.12461">
        <ele>1915.5</ele>
        <time>2021-03-25T11:49:59Z</time>
      </trkpt>
      <trkpt lat="42.88122" lon="0.12463">
        <ele>1915.3</ele>
        <time>2021-03-25T11:50:01Z</time>
      </trkpt>
      <trkpt lat="42.88122" lon="0.12464">
        <ele>1915.3</ele>
        <time>2021-03-25T11:50:02Z</time>
      </trkpt>
      <trkpt lat="42.88123" lon="0.12465">
        <ele>1915.3</ele>
        <time>2021-03-25T11:50:04Z</time>
      </trkpt>
      <trkpt lat="42.88122" lon="0.12467">
        <ele>1915.3</ele>
        <time>2021-03-25T11:50:05Z</time>
      </trkpt>
      <trkpt lat="42.88122" lon="0.12468">
        <ele>1915</ele>
        <time>2021-03-25T11:50:07Z</time>
      </trkpt>
      <trkpt lat="42.88122" lon="0.1247">
        <ele>1915</ele>
        <time>2021-03-25T11:50:08Z</time>
      </trkpt>
      <trkpt lat="42.88122" lon="0.12471">
        <ele>1915</ele>
        <time>2021-03-25T11:50:10Z</time>
      </trkpt>
      <trkpt lat="42.88122" lon="0.12472">
        <ele>1914.8</ele>
        <time>2021-03-25T11:50:12Z</time>
      </trkpt>
      <trkpt lat="42.88123" lon="0.12474">
        <ele>1914.8</ele>
        <time>2021-03-25T11:50:13Z</time>
      </trkpt>
      <trkpt lat="42.88123" lon="0.12476">
        <ele>1914.5</ele>
        <time>2021-03-25T11:50:15Z</time>
      </trkpt>
      <trkpt lat="42.88123" lon="0.12477">
        <ele>1914.5</ele>
        <time>2021-03-25T11:50:16Z</time>
      </trkpt>
      <trkpt lat="42.88123" lon="0.12479">
        <ele>1914.5</ele>
        <time>2021-03-25T11:50:18Z</time>
      </trkpt>
      <trkpt lat="42.88123" lon="0.1248">
        <ele>1914.3</ele>
        <time>2021-03-25T11:50:19Z</time>
      </trkpt>
      <trkpt lat="42.88124" lon="0.12483">
        <ele>1914.3</ele>
        <time>2021-03-25T11:50:21Z</time>
      </trkpt>
      <trkpt lat="42.88125" lon="0.12485">
        <ele>1914.1</ele>
        <time>2021-03-25T11:50:22Z</time>
      </trkpt>
      <trkpt lat="42.88125" lon="0.12486">
        <ele>1912.5</ele>
        <time>2021-03-25T11:50:23Z</time>
      </trkpt>
      <trkpt lat="42.88126" lon="0.12489">
        <ele>1912.4</ele>
        <time>2021-03-25T11:50:25Z</time>
      </trkpt>
      <trkpt lat="42.88126" lon="0.12491">
        <ele>1912.4</ele>
        <time>2021-03-25T11:50:26Z</time>
      </trkpt>
      <trkpt lat="42.88126" lon="0.12493">
        <ele>1912.3</ele>
        <time>2021-03-25T11:50:28Z</time>
      </trkpt>
      <trkpt lat="42.88127" lon="0.12496">
        <ele>1912.3</ele>
        <time>2021-03-25T11:50:29Z</time>
      </trkpt>
      <trkpt lat="42.88129" lon="0.12498">
        <ele>1910.7</ele>
        <time>2021-03-25T11:50:31Z</time>
      </trkpt>
      <trkpt lat="42.88129" lon="0.12502">
        <ele>1910.7</ele>
        <time>2021-03-25T11:50:33Z</time>
      </trkpt>
      <trkpt lat="42.88129" lon="0.12505">
        <ele>1910.7</ele>
        <time>2021-03-25T11:50:34Z</time>
      </trkpt>
      <trkpt lat="42.88129" lon="0.12507">
        <ele>1910.7</ele>
        <time>2021-03-25T11:50:36Z</time>
      </trkpt>
      <trkpt lat="42.88129" lon="0.12509">
        <ele>1910.7</ele>
        <time>2021-03-25T11:50:37Z</time>
      </trkpt>
      <trkpt lat="42.88129" lon="0.1251">
        <ele>1910.7</ele>
        <time>2021-03-25T11:50:39Z</time>
      </trkpt>
      <trkpt lat="42.88129" lon="0.12511">
        <ele>1910.7</ele>
        <time>2021-03-25T11:50:40Z</time>
      </trkpt>
      <trkpt lat="42.88129" lon="0.12512">
        <ele>1910.7</ele>
        <time>2021-03-25T11:50:42Z</time>
      </trkpt>
      <trkpt lat="42.88128" lon="0.12512">
        <ele>1910.7</ele>
        <time>2021-03-25T11:50:43Z</time>
      </trkpt>
      <trkpt lat="42.88128" lon="0.12513">
        <ele>1910.7</ele>
        <time>2021-03-25T11:50:45Z</time>
      </trkpt>
      <trkpt lat="42.88128" lon="0.12513">
        <ele>1910.7</ele>
        <time>2021-03-25T11:50:46Z</time>
      </trkpt>
      <trkpt lat="42.88128" lon="0.12514">
        <ele>1912.2</ele>
        <time>2021-03-25T11:50:47Z</time>
      </trkpt>
      <trkpt lat="42.88127" lon="0.12514">
        <ele>1912.2</ele>
        <time>2021-03-25T11:50:48Z</time>
      </trkpt>
      <trkpt lat="42.88127" lon="0.12514">
        <ele>1912.2</ele>
        <time>2021-03-25T11:50:50Z</time>
      </trkpt>
      <trkpt lat="42.88126" lon="0.12515">
        <ele>1912.2</ele>
        <time>2021-03-25T11:50:51Z</time>
      </trkpt>
      <trkpt lat="42.88126" lon="0.12515">
        <ele>1912.2</ele>
        <time>2021-03-25T11:50:52Z</time>
      </trkpt>
      <trkpt lat="42.88125" lon="0.12516">
        <ele>1912.2</ele>
        <time>2021-03-25T11:50:54Z</time>
      </trkpt>
      <trkpt lat="42.88125" lon="0.12517">
        <ele>1912.2</ele>
        <time>2021-03-25T11:50:55Z</time>
      </trkpt>
      <trkpt lat="42.88125" lon="0.12517">
        <ele>1913.7</ele>
        <time>2021-03-25T11:50:56Z</time>
      </trkpt>
      <trkpt lat="42.88124" lon="0.12518">
        <ele>1913.7</ele>
        <time>2021-03-25T11:50:58Z</time>
      </trkpt>
      <trkpt lat="42.88124" lon="0.12519">
        <ele>1913.8</ele>
        <time>2021-03-25T11:50:59Z</time>
      </trkpt>
      <trkpt lat="42.88124" lon="0.1252">
        <ele>1913.8</ele>
        <time>2021-03-25T11:51:01Z</time>
      </trkpt>
      <trkpt lat="42.88124" lon="0.1252">
        <ele>1913.8</ele>
        <time>2021-03-25T11:51:02Z</time>
      </trkpt>
      <trkpt lat="42.88124" lon="0.12521">
        <ele>1913.8</ele>
        <time>2021-03-25T11:51:03Z</time>
      </trkpt>
      <trkpt lat="42.88124" lon="0.12522">
        <ele>1913.8</ele>
        <time>2021-03-25T11:51:04Z</time>
      </trkpt>
      <trkpt lat="42.88124" lon="0.12523">
        <ele>1913.9</ele>
        <time>2021-03-25T11:51:06Z</time>
      </trkpt>
      <trkpt lat="42.88124" lon="0.12524">
        <ele>1913.9</ele>
        <time>2021-03-25T11:51:07Z</time>
      </trkpt>
      <trkpt lat="42.88123" lon="0.12525">
        <ele>1913.9</ele>
        <time>2021-03-25T11:51:09Z</time>
      </trkpt>
      <trkpt lat="42.88123" lon="0.12526">
        <ele>1913.9</ele>
        <time>2021-03-25T11:51:10Z</time>
      </trkpt>
      <trkpt lat="42.88123" lon="0.12526">
        <ele>1913.9</ele>
        <time>2021-03-25T11:51:11Z</time>
      </trkpt>
      <trkpt lat="42.88123" lon="0.12528">
        <ele>1914</ele>
        <time>2021-03-25T11:51:13Z</time>
      </trkpt>
      <trkpt lat="42.88123" lon="0.12528">
        <ele>1914</ele>
        <time>2021-03-25T11:51:14Z</time>
      </trkpt>
      <trkpt lat="42.88123" lon="0.12529">
        <ele>1914</ele>
        <time>2021-03-25T11:51:15Z</time>
      </trkpt>
      <trkpt lat="42.88123" lon="0.1253">
        <ele>1914</ele>
        <time>2021-03-25T11:51:16Z</time>
      </trkpt>
      <trkpt lat="42.88123" lon="0.12531">
        <ele>1914</ele>
        <time>2021-03-25T11:51:18Z</time>
      </trkpt>
      <trkpt lat="42.88123" lon="0.12533">
        <ele>1914.2</ele>
        <time>2021-03-25T11:51:20Z</time>
      </trkpt>
      <trkpt lat="42.88123" lon="0.12534">
        <ele>1914.2</ele>
        <time>2021-03-25T11:51:22Z</time>
      </trkpt>
      <trkpt lat="42.88123" lon="0.12536">
        <ele>1914.4</ele>
        <time>2021-03-25T11:51:24Z</time>
      </trkpt>
      <trkpt lat="42.88123" lon="0.12537">
        <ele>1914.4</ele>
        <time>2021-03-25T11:51:25Z</time>
      </trkpt>
      <trkpt lat="42.88124" lon="0.12538">
        <ele>1914.4</ele>
        <time>2021-03-25T11:51:26Z</time>
      </trkpt>
      <trkpt lat="42.88124" lon="0.12541">
        <ele>1914.5</ele>
        <time>2021-03-25T11:51:28Z</time>
      </trkpt>
      <trkpt lat="42.88124" lon="0.12544">
        <ele>1914.5</ele>
        <time>2021-03-25T11:51:30Z</time>
      </trkpt>
      <trkpt lat="42.88124" lon="0.12545">
        <ele>1914.7</ele>
        <time>2021-03-25T11:51:31Z</time>
      </trkpt>
      <trkpt lat="42.88123" lon="0.12548">
        <ele>1914.7</ele>
        <time>2021-03-25T11:51:33Z</time>
      </trkpt>
      <trkpt lat="42.88123" lon="0.12549">
        <ele>1914.9</ele>
        <time>2021-03-25T11:51:34Z</time>
      </trkpt>
      <trkpt lat="42.88122" lon="0.1255">
        <ele>1914.9</ele>
        <time>2021-03-25T11:51:35Z</time>
      </trkpt>
      <trkpt lat="42.88122" lon="0.12552">
        <ele>1916.6</ele>
        <time>2021-03-25T11:51:37Z</time>
      </trkpt>
      <trkpt lat="42.88121" lon="0.12553">
        <ele>1916.8</ele>
        <time>2021-03-25T11:51:39Z</time>
      </trkpt>
      <trkpt lat="42.8812" lon="0.12554">
        <ele>1916.8</ele>
        <time>2021-03-25T11:51:41Z</time>
      </trkpt>
      <trkpt lat="42.88119" lon="0.12556">
        <ele>1916.8</ele>
        <time>2021-03-25T11:51:43Z</time>
      </trkpt>
      <trkpt lat="42.88119" lon="0.12558">
        <ele>1917</ele>
        <time>2021-03-25T11:51:45Z</time>
      </trkpt>
      <trkpt lat="42.88119" lon="0.12559">
        <ele>1917</ele>
        <time>2021-03-25T11:51:46Z</time>
      </trkpt>
      <trkpt lat="42.88118" lon="0.1256">
        <ele>1918.9</ele>
        <time>2021-03-25T11:51:47Z</time>
      </trkpt>
      <trkpt lat="42.88116" lon="0.12563">
        <ele>1919.1</ele>
        <time>2021-03-25T11:51:49Z</time>
      </trkpt>
      <trkpt lat="42.88115" lon="0.12564">
        <ele>1921.2</ele>
        <time>2021-03-25T11:51:50Z</time>
      </trkpt>
      <trkpt lat="42.88114" lon="0.12565">
        <ele>1921.2</ele>
        <time>2021-03-25T11:51:51Z</time>
      </trkpt>
      <trkpt lat="42.88113" lon="0.12565">
        <ele>1921.2</ele>
        <time>2021-03-25T11:51:53Z</time>
      </trkpt>
      <trkpt lat="42.88113" lon="0.12566">
        <ele>1921.2</ele>
        <time>2021-03-25T11:51:54Z</time>
      </trkpt>
      <trkpt lat="42.88113" lon="0.12566">
        <ele>1921.4</ele>
        <time>2021-03-25T11:51:55Z</time>
      </trkpt>
      <trkpt lat="42.88113" lon="0.12567">
        <ele>1921.4</ele>
        <time>2021-03-25T11:51:57Z</time>
      </trkpt>
      <trkpt lat="42.88113" lon="0.12567">
        <ele>1921.4</ele>
        <time>2021-03-25T11:51:58Z</time>
      </trkpt>
      <trkpt lat="42.88113" lon="0.12567">
        <ele>1921.4</ele>
        <time>2021-03-25T11:51:59Z</time>
      </trkpt>
      <trkpt lat="42.88113" lon="0.12568">
        <ele>1921.4</ele>
        <time>2021-03-25T11:52:00Z</time>
      </trkpt>
      <trkpt lat="42.88113" lon="0.12568">
        <ele>1921.4</ele>
        <time>2021-03-25T11:52:02Z</time>
      </trkpt>
      <trkpt lat="42.88114" lon="0.12569">
        <ele>1921.4</ele>
        <time>2021-03-25T11:52:04Z</time>
      </trkpt>
      <trkpt lat="42.88114" lon="0.1257">
        <ele>1921.6</ele>
        <time>2021-03-25T11:52:05Z</time>
      </trkpt>
      <trkpt lat="42.88114" lon="0.12572">
        <ele>1921.6</ele>
        <time>2021-03-25T11:52:07Z</time>
      </trkpt>
      <trkpt lat="42.88114" lon="0.12573">
        <ele>1921.6</ele>
        <time>2021-03-25T11:52:08Z</time>
      </trkpt>
      <trkpt lat="42.88114" lon="0.12575">
        <ele>1921.8</ele>
        <time>2021-03-25T11:52:10Z</time>
      </trkpt>
      <trkpt lat="42.88115" lon="0.12579">
        <ele>1922.1</ele>
        <time>2021-03-25T11:52:11Z</time>
      </trkpt>
      <trkpt lat="42.88116" lon="0.1258">
        <ele>1920</ele>
        <time>2021-03-25T11:52:12Z</time>
      </trkpt>
      <trkpt lat="42.88116" lon="0.12582">
        <ele>1920</ele>
        <time>2021-03-25T11:52:13Z</time>
      </trkpt>
      <trkpt lat="42.88116" lon="0.12584">
        <ele>1920.3</ele>
        <time>2021-03-25T11:52:15Z</time>
      </trkpt>
      <trkpt lat="42.88116" lon="0.12585">
        <ele>1920.3</ele>
        <time>2021-03-25T11:52:17Z</time>
      </trkpt>
      <trkpt lat="42.88116" lon="0.12585">
        <ele>1920.3</ele>
        <time>2021-03-25T11:52:18Z</time>
      </trkpt>
      <trkpt lat="42.88116" lon="0.12585">
        <ele>1920.3</ele>
        <time>2021-03-25T11:52:20Z</time>
      </trkpt>
      <trkpt lat="42.88117" lon="0.12585">
        <ele>1920.3</ele>
        <time>2021-03-25T11:52:21Z</time>
      </trkpt>
      <trkpt lat="42.88117" lon="0.12585">
        <ele>1920.3</ele>
        <time>2021-03-25T11:52:23Z</time>
      </trkpt>
      <trkpt lat="42.88117" lon="0.12585">
        <ele>1920.3</ele>
        <time>2021-03-25T11:52:24Z</time>
      </trkpt>
      <trkpt lat="42.88118" lon="0.12585">
        <ele>1920.3</ele>
        <time>2021-03-25T11:52:26Z</time>
      </trkpt>
      <trkpt lat="42.88118" lon="0.12585">
        <ele>1920.3</ele>
        <time>2021-03-25T11:52:28Z</time>
      </trkpt>
      <trkpt lat="42.88119" lon="0.12585">
        <ele>1918.5</ele>
        <time>2021-03-25T11:52:30Z</time>
      </trkpt>
      <trkpt lat="42.88119" lon="0.12585">
        <ele>1918.5</ele>
        <time>2021-03-25T11:52:31Z</time>
      </trkpt>
      <trkpt lat="42.8812" lon="0.12585">
        <ele>1918.5</ele>
        <time>2021-03-25T11:52:33Z</time>
      </trkpt>
      <trkpt lat="42.8812" lon="0.12585">
        <ele>1918.5</ele>
        <time>2021-03-25T11:52:34Z</time>
      </trkpt>
      <trkpt lat="42.8812" lon="0.12586">
        <ele>1918.5</ele>
        <time>2021-03-25T11:52:36Z</time>
      </trkpt>
      <trkpt lat="42.8812" lon="0.12586">
        <ele>1918.5</ele>
        <time>2021-03-25T11:52:37Z</time>
      </trkpt>
      <trkpt lat="42.8812" lon="0.12586">
        <ele>1918.5</ele>
        <time>2021-03-25T11:52:38Z</time>
      </trkpt>
      <trkpt lat="42.8812" lon="0.12586">
        <ele>1918.5</ele>
        <time>2021-03-25T11:52:39Z</time>
      </trkpt>
      <trkpt lat="42.8812" lon="0.12586">
        <ele>1918.5</ele>
        <time>2021-03-25T11:52:40Z</time>
      </trkpt>
      <trkpt lat="42.8812" lon="0.12586">
        <ele>1918.5</ele>
        <time>2021-03-25T11:52:41Z</time>
      </trkpt>
      <trkpt lat="42.88121" lon="0.12586">
        <ele>1918.5</ele>
        <time>2021-03-25T11:52:42Z</time>
      </trkpt>
      <trkpt lat="42.88121" lon="0.12586">
        <ele>1918.5</ele>
        <time>2021-03-25T11:52:43Z</time>
      </trkpt>
      <trkpt lat="42.88121" lon="0.12587">
        <ele>1918.5</ele>
        <time>2021-03-25T11:52:45Z</time>
      </trkpt>
      <trkpt lat="42.88121" lon="0.12587">
        <ele>1918.5</ele>
        <time>2021-03-25T11:52:46Z</time>
      </trkpt>
      <trkpt lat="42.88122" lon="0.12587">
        <ele>1916.9</ele>
        <time>2021-03-25T11:52:48Z</time>
      </trkpt>
      <trkpt lat="42.88122" lon="0.12587">
        <ele>1916.9</ele>
        <time>2021-03-25T11:52:49Z</time>
      </trkpt>
      <trkpt lat="42.88122" lon="0.12587">
        <ele>1917.3</ele>
        <time>2021-03-25T11:52:50Z</time>
      </trkpt>
      <trkpt lat="42.88122" lon="0.12587">
        <ele>1917.3</ele>
        <time>2021-03-25T11:52:51Z</time>
      </trkpt>
      <trkpt lat="42.88122" lon="0.12587">
        <ele>1917.3</ele>
        <time>2021-03-25T11:52:53Z</time>
      </trkpt>
      <trkpt lat="42.88122" lon="0.12587">
        <ele>1917.3</ele>
        <time>2021-03-25T11:52:54Z</time>
      </trkpt>
      <trkpt lat="42.88122" lon="0.12588">
        <ele>1917.3</ele>
        <time>2021-03-25T11:52:55Z</time>
      </trkpt>
      <trkpt lat="42.88123" lon="0.12588">
        <ele>1917.3</ele>
        <time>2021-03-25T11:52:56Z</time>
      </trkpt>
      <trkpt lat="42.88123" lon="0.12589">
        <ele>1917.3</ele>
        <time>2021-03-25T11:52:58Z</time>
      </trkpt>
      <trkpt lat="42.88123" lon="0.12589">
        <ele>1917.3</ele>
        <time>2021-03-25T11:52:59Z</time>
      </trkpt>
      <trkpt lat="42.88124" lon="0.1259">
        <ele>1917.3</ele>
        <time>2021-03-25T11:53:01Z</time>
      </trkpt>
      <trkpt lat="42.88124" lon="0.12591">
        <ele>1917.3</ele>
        <time>2021-03-25T11:53:02Z</time>
      </trkpt>
      <trkpt lat="42.88124" lon="0.1259">
        <ele>1917.3</ele>
        <time>2021-03-25T11:53:03Z</time>
      </trkpt>
      <trkpt lat="42.88124" lon="0.1259">
        <ele>1917.3</ele>
        <time>2021-03-25T11:53:05Z</time>
      </trkpt>
      <trkpt lat="42.88123" lon="0.1259">
        <ele>1917.3</ele>
        <time>2021-03-25T11:53:07Z</time>
      </trkpt>
      <trkpt lat="42.88123" lon="0.1259">
        <ele>1917.3</ele>
        <time>2021-03-25T11:53:08Z</time>
      </trkpt>
      <trkpt lat="42.88123" lon="0.1259">
        <ele>1917.3</ele>
        <time>2021-03-25T11:53:10Z</time>
      </trkpt>
      <trkpt lat="42.88123" lon="0.12591">
        <ele>1917.3</ele>
        <time>2021-03-25T11:53:11Z</time>
      </trkpt>
      <trkpt lat="42.88123" lon="0.12591">
        <ele>1917.3</ele>
        <time>2021-03-25T11:53:13Z</time>
      </trkpt>
      <trkpt lat="42.88123" lon="0.12591">
        <ele>1917.3</ele>
        <time>2021-03-25T11:53:14Z</time>
      </trkpt>
      <trkpt lat="42.88123" lon="0.12591">
        <ele>1917.3</ele>
        <time>2021-03-25T11:53:15Z</time>
      </trkpt>
      <trkpt lat="42.88122" lon="0.12592">
        <ele>1917.6</ele>
        <time>2021-03-25T11:53:17Z</time>
      </trkpt>
      <trkpt lat="42.88121" lon="0.12592">
        <ele>1919.1</ele>
        <time>2021-03-25T11:53:19Z</time>
      </trkpt>
      <trkpt lat="42.8812" lon="0.12592">
        <ele>1919.1</ele>
        <time>2021-03-25T11:53:20Z</time>
      </trkpt>
      <trkpt lat="42.8812" lon="0.12592">
        <ele>1919.1</ele>
        <time>2021-03-25T11:53:22Z</time>
      </trkpt>
      <trkpt lat="42.8812" lon="0.12592">
        <ele>1919.1</ele>
        <time>2021-03-25T11:53:23Z</time>
      </trkpt>
      <trkpt lat="42.88119" lon="0.12592">
        <ele>1919.1</ele>
        <time>2021-03-25T11:53:24Z</time>
      </trkpt>
      <trkpt lat="42.8812" lon="0.12592">
        <ele>1919.1</ele>
        <time>2021-03-25T11:53:26Z</time>
      </trkpt>
      <trkpt lat="42.8812" lon="0.12593">
        <ele>1919.1</ele>
        <time>2021-03-25T11:53:27Z</time>
      </trkpt>
      <trkpt lat="42.88121" lon="0.12594">
        <ele>1919.1</ele>
        <time>2021-03-25T11:53:28Z</time>
      </trkpt>
      <trkpt lat="42.88121" lon="0.12594">
        <ele>1919.1</ele>
        <time>2021-03-25T11:53:29Z</time>
      </trkpt>
      <trkpt lat="42.88121" lon="0.12594">
        <ele>1919.1</ele>
        <time>2021-03-25T11:53:30Z</time>
      </trkpt>
      <trkpt lat="42.88121" lon="0.12594">
        <ele>1919.1</ele>
        <time>2021-03-25T11:53:32Z</time>
      </trkpt>
      <trkpt lat="42.88121" lon="0.12594">
        <ele>1919.1</ele>
        <time>2021-03-25T11:53:33Z</time>
      </trkpt>
      <trkpt lat="42.8812" lon="0.12594">
        <ele>1919.1</ele>
        <time>2021-03-25T11:53:35Z</time>
      </trkpt>
      <trkpt lat="42.8812" lon="0.12594">
        <ele>1919.1</ele>
        <time>2021-03-25T11:53:36Z</time>
      </trkpt>
      <trkpt lat="42.8812" lon="0.12594">
        <ele>1919.1</ele>
        <time>2021-03-25T11:53:37Z</time>
      </trkpt>
      <trkpt lat="42.8812" lon="0.12595">
        <ele>1919.1</ele>
        <time>2021-03-25T11:53:39Z</time>
      </trkpt>
      <trkpt lat="42.8812" lon="0.12595">
        <ele>1919.1</ele>
        <time>2021-03-25T11:53:41Z</time>
      </trkpt>
      <trkpt lat="42.8812" lon="0.12595">
        <ele>1919.1</ele>
        <time>2021-03-25T11:53:42Z</time>
      </trkpt>
      <trkpt lat="42.8812" lon="0.12595">
        <ele>1919.1</ele>
        <time>2021-03-25T11:53:43Z</time>
      </trkpt>
      <trkpt lat="42.8812" lon="0.12595">
        <ele>1919.1</ele>
        <time>2021-03-25T11:53:45Z</time>
      </trkpt>
      <trkpt lat="42.8812" lon="0.12594">
        <ele>1919.1</ele>
        <time>2021-03-25T11:53:46Z</time>
      </trkpt>
      <trkpt lat="42.8812" lon="0.12594">
        <ele>1919.1</ele>
        <time>2021-03-25T11:53:48Z</time>
      </trkpt>
      <trkpt lat="42.8812" lon="0.12594">
        <ele>1919.1</ele>
        <time>2021-03-25T11:53:49Z</time>
      </trkpt>
      <trkpt lat="42.8812" lon="0.12594">
        <ele>1919.1</ele>
        <time>2021-03-25T11:53:51Z</time>
      </trkpt>
      <trkpt lat="42.8812" lon="0.12594">
        <ele>1919.1</ele>
        <time>2021-03-25T11:53:52Z</time>
      </trkpt>
      <trkpt lat="42.8812" lon="0.12594">
        <ele>1919.1</ele>
        <time>2021-03-25T11:53:53Z</time>
      </trkpt>
      <trkpt lat="42.8812" lon="0.12594">
        <ele>1919.1</ele>
        <time>2021-03-25T11:53:55Z</time>
      </trkpt>
      <trkpt lat="42.88119" lon="0.12596">
        <ele>1919.5</ele>
        <time>2021-03-25T11:53:57Z</time>
      </trkpt>
      <trkpt lat="42.88119" lon="0.12597">
        <ele>1919.5</ele>
        <time>2021-03-25T11:53:58Z</time>
      </trkpt>
      <trkpt lat="42.88119" lon="0.12598">
        <ele>1919.5</ele>
        <time>2021-03-25T11:53:59Z</time>
      </trkpt>
      <trkpt lat="42.88119" lon="0.12598">
        <ele>1919.5</ele>
        <time>2021-03-25T11:54:00Z</time>
      </trkpt>
      <trkpt lat="42.88118" lon="0.12599">
        <ele>1921.2</ele>
        <time>2021-03-25T11:54:01Z</time>
      </trkpt>
      <trkpt lat="42.88118" lon="0.12601">
        <ele>1921.5</ele>
        <time>2021-03-25T11:54:03Z</time>
      </trkpt>
      <trkpt lat="42.88118" lon="0.12603">
        <ele>1921.5</ele>
        <time>2021-03-25T11:54:04Z</time>
      </trkpt>
      <trkpt lat="42.88118" lon="0.12605">
        <ele>1921.9</ele>
        <time>2021-03-25T11:54:06Z</time>
      </trkpt>
      <trkpt lat="42.88118" lon="0.12607">
        <ele>1921.9</ele>
        <time>2021-03-25T11:54:07Z</time>
      </trkpt>
      <trkpt lat="42.88118" lon="0.1261">
        <ele>1922.3</ele>
        <time>2021-03-25T11:54:09Z</time>
      </trkpt>
      <trkpt lat="42.88118" lon="0.12612">
        <ele>1922.3</ele>
        <time>2021-03-25T11:54:10Z</time>
      </trkpt>
      <trkpt lat="42.88118" lon="0.12614">
        <ele>1922.8</ele>
        <time>2021-03-25T11:54:11Z</time>
      </trkpt>
      <trkpt lat="42.88118" lon="0.12616">
        <ele>1922.8</ele>
        <time>2021-03-25T11:54:12Z</time>
      </trkpt>
      <trkpt lat="42.88118" lon="0.12618">
        <ele>1923.2</ele>
        <time>2021-03-25T11:54:14Z</time>
      </trkpt>
      <trkpt lat="42.88117" lon="0.12619">
        <ele>1923.2</ele>
        <time>2021-03-25T11:54:15Z</time>
      </trkpt>
      <trkpt lat="42.88117" lon="0.12621">
        <ele>1923.2</ele>
        <time>2021-03-25T11:54:16Z</time>
      </trkpt>
      <trkpt lat="42.88117" lon="0.12623">
        <ele>1923.8</ele>
        <time>2021-03-25T11:54:18Z</time>
      </trkpt>
      <trkpt lat="42.88117" lon="0.12625">
        <ele>1923.8</ele>
        <time>2021-03-25T11:54:20Z</time>
      </trkpt>
      <trkpt lat="42.88116" lon="0.12626">
        <ele>1924.3</ele>
        <time>2021-03-25T11:54:21Z</time>
      </trkpt>
      <trkpt lat="42.88117" lon="0.12628">
        <ele>1924.3</ele>
        <time>2021-03-25T11:54:23Z</time>
      </trkpt>
      <trkpt lat="42.88117" lon="0.1263">
        <ele>1924.3</ele>
        <time>2021-03-25T11:54:24Z</time>
      </trkpt>
      <trkpt lat="42.88117" lon="0.12631">
        <ele>1924.9</ele>
        <time>2021-03-25T11:54:26Z</time>
      </trkpt>
      <trkpt lat="42.88117" lon="0.12633">
        <ele>1924.9</ele>
        <time>2021-03-25T11:54:28Z</time>
      </trkpt>
      <trkpt lat="42.88116" lon="0.12634">
        <ele>1925.4</ele>
        <time>2021-03-25T11:54:29Z</time>
      </trkpt>
      <trkpt lat="42.88116" lon="0.12636">
        <ele>1925.4</ele>
        <time>2021-03-25T11:54:31Z</time>
      </trkpt>
      <trkpt lat="42.88115" lon="0.12638">
        <ele>1925.4</ele>
        <time>2021-03-25T11:54:33Z</time>
      </trkpt>
      <trkpt lat="42.88115" lon="0.12639">
        <ele>1927.6</ele>
        <time>2021-03-25T11:54:34Z</time>
      </trkpt>
      <trkpt lat="42.88115" lon="0.12639">
        <ele>1927.6</ele>
        <time>2021-03-25T11:54:35Z</time>
      </trkpt>
      <trkpt lat="42.88114" lon="0.1264">
        <ele>1927.6</ele>
        <time>2021-03-25T11:54:37Z</time>
      </trkpt>
      <trkpt lat="42.88114" lon="0.12641">
        <ele>1927.6</ele>
        <time>2021-03-25T11:54:38Z</time>
      </trkpt>
      <trkpt lat="42.88114" lon="0.12642">
        <ele>1927.6</ele>
        <time>2021-03-25T11:54:39Z</time>
      </trkpt>
      <trkpt lat="42.88114" lon="0.12642">
        <ele>1927.6</ele>
        <time>2021-03-25T11:54:40Z</time>
      </trkpt>
      <trkpt lat="42.88113" lon="0.12643">
        <ele>1928.1</ele>
        <time>2021-03-25T11:54:42Z</time>
      </trkpt>
      <trkpt lat="42.88113" lon="0.12644">
        <ele>1928.1</ele>
        <time>2021-03-25T11:54:43Z</time>
      </trkpt>
      <trkpt lat="42.88113" lon="0.12645">
        <ele>1928.1</ele>
        <time>2021-03-25T11:54:44Z</time>
      </trkpt>
      <trkpt lat="42.88113" lon="0.12645">
        <ele>1928.1</ele>
        <time>2021-03-25T11:54:45Z</time>
      </trkpt>
      <trkpt lat="42.88112" lon="0.12647">
        <ele>1928.1</ele>
        <time>2021-03-25T11:54:47Z</time>
      </trkpt>
      <trkpt lat="42.88112" lon="0.12648">
        <ele>1930.1</ele>
        <time>2021-03-25T11:54:49Z</time>
      </trkpt>
      <trkpt lat="42.88112" lon="0.12648">
        <ele>1930.1</ele>
        <time>2021-03-25T11:54:50Z</time>
      </trkpt>
      <trkpt lat="42.88111" lon="0.12649">
        <ele>1930.1</ele>
        <time>2021-03-25T11:54:51Z</time>
      </trkpt>
      <trkpt lat="42.88111" lon="0.1265">
        <ele>1930.1</ele>
        <time>2021-03-25T11:54:52Z</time>
      </trkpt>
      <trkpt lat="42.88111" lon="0.1265">
        <ele>1930.1</ele>
        <time>2021-03-25T11:54:54Z</time>
      </trkpt>
      <trkpt lat="42.88111" lon="0.12651">
        <ele>1930.1</ele>
        <time>2021-03-25T11:54:55Z</time>
      </trkpt>
      <trkpt lat="42.88111" lon="0.12652">
        <ele>1930.5</ele>
        <time>2021-03-25T11:54:57Z</time>
      </trkpt>
      <trkpt lat="42.88111" lon="0.12653">
        <ele>1930.5</ele>
        <time>2021-03-25T11:54:58Z</time>
      </trkpt>
      <trkpt lat="42.88111" lon="0.12654">
        <ele>1930.5</ele>
        <time>2021-03-25T11:54:59Z</time>
      </trkpt>
      <trkpt lat="42.88111" lon="0.12656">
        <ele>1931</ele>
        <time>2021-03-25T11:55:01Z</time>
      </trkpt>
      <trkpt lat="42.88111" lon="0.12657">
        <ele>1931</ele>
        <time>2021-03-25T11:55:02Z</time>
      </trkpt>
      <trkpt lat="42.88111" lon="0.12658">
        <ele>1931</ele>
        <time>2021-03-25T11:55:03Z</time>
      </trkpt>
      <trkpt lat="42.88111" lon="0.1266">
        <ele>1931.4</ele>
        <time>2021-03-25T11:55:05Z</time>
      </trkpt>
      <trkpt lat="42.88111" lon="0.12661">
        <ele>1931.4</ele>
        <time>2021-03-25T11:55:06Z</time>
      </trkpt>
      <trkpt lat="42.88111" lon="0.12663">
        <ele>1931.4</ele>
        <time>2021-03-25T11:55:07Z</time>
      </trkpt>
      <trkpt lat="42.88111" lon="0.12664">
        <ele>1931.4</ele>
        <time>2021-03-25T11:55:08Z</time>
      </trkpt>
      <trkpt lat="42.88112" lon="0.12666">
        <ele>1931.8</ele>
        <time>2021-03-25T11:55:10Z</time>
      </trkpt>
      <trkpt lat="42.88113" lon="0.12668">
        <ele>1930.4</ele>
        <time>2021-03-25T11:55:12Z</time>
      </trkpt>
      <trkpt lat="42.88113" lon="0.12669">
        <ele>1930.9</ele>
        <time>2021-03-25T11:55:14Z</time>
      </trkpt>
      <trkpt lat="42.88113" lon="0.1267">
        <ele>1930.9</ele>
        <time>2021-03-25T11:55:15Z</time>
      </trkpt>
      <trkpt lat="42.88113" lon="0.12671">
        <ele>1930.9</ele>
        <time>2021-03-25T11:55:16Z</time>
      </trkpt>
      <trkpt lat="42.88113" lon="0.12672">
        <ele>1930.9</ele>
        <time>2021-03-25T11:55:18Z</time>
      </trkpt>
      <trkpt lat="42.88113" lon="0.12673">
        <ele>1930.9</ele>
        <time>2021-03-25T11:55:19Z</time>
      </trkpt>
      <trkpt lat="42.88112" lon="0.12673">
        <ele>1932.7</ele>
        <time>2021-03-25T11:55:20Z</time>
      </trkpt>
      <trkpt lat="42.88111" lon="0.12675">
        <ele>1932.7</ele>
        <time>2021-03-25T11:55:22Z</time>
      </trkpt>
      <trkpt lat="42.88111" lon="0.12675">
        <ele>1932.7</ele>
        <time>2021-03-25T11:55:23Z</time>
      </trkpt>
      <trkpt lat="42.8811" lon="0.12676">
        <ele>1932.7</ele>
        <time>2021-03-25T11:55:24Z</time>
      </trkpt>
      <trkpt lat="42.88109" lon="0.12677">
        <ele>1932.7</ele>
        <time>2021-03-25T11:55:25Z</time>
      </trkpt>
      <trkpt lat="42.88109" lon="0.12679">
        <ele>1934.5</ele>
        <time>2021-03-25T11:55:27Z</time>
      </trkpt>
      <trkpt lat="42.88108" lon="0.12679">
        <ele>1934.5</ele>
        <time>2021-03-25T11:55:28Z</time>
      </trkpt>
      <trkpt lat="42.88108" lon="0.1268">
        <ele>1934.5</ele>
        <time>2021-03-25T11:55:30Z</time>
      </trkpt>
      <trkpt lat="42.88108" lon="0.12681">
        <ele>1934.5</ele>
        <time>2021-03-25T11:55:31Z</time>
      </trkpt>
      <trkpt lat="42.88107" lon="0.12682">
        <ele>1935</ele>
        <time>2021-03-25T11:55:32Z</time>
      </trkpt>
      <trkpt lat="42.88107" lon="0.12683">
        <ele>1935</ele>
        <time>2021-03-25T11:55:34Z</time>
      </trkpt>
      <trkpt lat="42.88106" lon="0.12685">
        <ele>1935</ele>
        <time>2021-03-25T11:55:35Z</time>
      </trkpt>
      <trkpt lat="42.88106" lon="0.12686">
        <ele>1936.7</ele>
        <time>2021-03-25T11:55:36Z</time>
      </trkpt>
      <trkpt lat="42.88106" lon="0.12687">
        <ele>1936.7</ele>
        <time>2021-03-25T11:55:37Z</time>
      </trkpt>
      <trkpt lat="42.88105" lon="0.12688">
        <ele>1936.7</ele>
        <time>2021-03-25T11:55:38Z</time>
      </trkpt>
      <trkpt lat="42.88105" lon="0.12689">
        <ele>1936.7</ele>
        <time>2021-03-25T11:55:39Z</time>
      </trkpt>
      <trkpt lat="42.88105" lon="0.12689">
        <ele>1936.7</ele>
        <time>2021-03-25T11:55:40Z</time>
      </trkpt>
      <trkpt lat="42.88105" lon="0.1269">
        <ele>1936.7</ele>
        <time>2021-03-25T11:55:41Z</time>
      </trkpt>
      <trkpt lat="42.88105" lon="0.12691">
        <ele>1937.1</ele>
        <time>2021-03-25T11:55:43Z</time>
      </trkpt>
      <trkpt lat="42.88105" lon="0.12691">
        <ele>1937.1</ele>
        <time>2021-03-25T11:55:44Z</time>
      </trkpt>
      <trkpt lat="42.88105" lon="0.12692">
        <ele>1937.1</ele>
        <time>2021-03-25T11:55:45Z</time>
      </trkpt>
      <trkpt lat="42.88105" lon="0.12692">
        <ele>1937.1</ele>
        <time>2021-03-25T11:55:46Z</time>
      </trkpt>
      <trkpt lat="42.88105" lon="0.12692">
        <ele>1937.1</ele>
        <time>2021-03-25T11:55:47Z</time>
      </trkpt>
      <trkpt lat="42.88104" lon="0.12693">
        <ele>1937.1</ele>
        <time>2021-03-25T11:55:48Z</time>
      </trkpt>
      <trkpt lat="42.88104" lon="0.12693">
        <ele>1937.1</ele>
        <time>2021-03-25T11:55:49Z</time>
      </trkpt>
      <trkpt lat="42.88104" lon="0.12693">
        <ele>1937.1</ele>
        <time>2021-03-25T11:55:50Z</time>
      </trkpt>
      <trkpt lat="42.88104" lon="0.12694">
        <ele>1937.1</ele>
        <time>2021-03-25T11:55:51Z</time>
      </trkpt>
      <trkpt lat="42.88104" lon="0.12694">
        <ele>1937.1</ele>
        <time>2021-03-25T11:55:53Z</time>
      </trkpt>
      <trkpt lat="42.88104" lon="0.12694">
        <ele>1937.1</ele>
        <time>2021-03-25T11:55:54Z</time>
      </trkpt>
      <trkpt lat="42.88104" lon="0.12695">
        <ele>1937.6</ele>
        <time>2021-03-25T11:55:55Z</time>
      </trkpt>
      <trkpt lat="42.88104" lon="0.12695">
        <ele>1937.6</ele>
        <time>2021-03-25T11:55:56Z</time>
      </trkpt>
      <trkpt lat="42.88104" lon="0.12695">
        <ele>1937.6</ele>
        <time>2021-03-25T11:55:58Z</time>
      </trkpt>
      <trkpt lat="42.88104" lon="0.12696">
        <ele>1937.6</ele>
        <time>2021-03-25T11:56:00Z</time>
      </trkpt>
      <trkpt lat="42.88104" lon="0.12697">
        <ele>1937.6</ele>
        <time>2021-03-25T11:56:02Z</time>
      </trkpt>
      <trkpt lat="42.88104" lon="0.12697">
        <ele>1937.6</ele>
        <time>2021-03-25T11:56:03Z</time>
      </trkpt>
      <trkpt lat="42.88104" lon="0.12698">
        <ele>1937.6</ele>
        <time>2021-03-25T11:56:04Z</time>
      </trkpt>
      <trkpt lat="42.88104" lon="0.12698">
        <ele>1937.6</ele>
        <time>2021-03-25T11:56:05Z</time>
      </trkpt>
      <trkpt lat="42.88104" lon="0.12699">
        <ele>1938</ele>
        <time>2021-03-25T11:56:06Z</time>
      </trkpt>
      <trkpt lat="42.88104" lon="0.127">
        <ele>1938</ele>
        <time>2021-03-25T11:56:07Z</time>
      </trkpt>
      <trkpt lat="42.88104" lon="0.12701">
        <ele>1938</ele>
        <time>2021-03-25T11:56:08Z</time>
      </trkpt>
      <trkpt lat="42.88103" lon="0.12702">
        <ele>1938</ele>
        <time>2021-03-25T11:56:09Z</time>
      </trkpt>
      <trkpt lat="42.88103" lon="0.12703">
        <ele>1938</ele>
        <time>2021-03-25T11:56:11Z</time>
      </trkpt>
      <trkpt lat="42.88103" lon="0.12704">
        <ele>1938.5</ele>
        <time>2021-03-25T11:56:12Z</time>
      </trkpt>
      <trkpt lat="42.88103" lon="0.12704">
        <ele>1938.5</ele>
        <time>2021-03-25T11:56:13Z</time>
      </trkpt>
      <trkpt lat="42.88103" lon="0.12706">
        <ele>1939.6</ele>
        <time>2021-03-25T11:56:15Z</time>
      </trkpt>
      <trkpt lat="42.88102" lon="0.12707">
        <ele>1939.6</ele>
        <time>2021-03-25T11:56:17Z</time>
      </trkpt>
      <trkpt lat="42.88102" lon="0.12707">
        <ele>1940.1</ele>
        <time>2021-03-25T11:56:19Z</time>
      </trkpt>
      <trkpt lat="42.88102" lon="0.12708">
        <ele>1940.1</ele>
        <time>2021-03-25T11:56:21Z</time>
      </trkpt>
      <trkpt lat="42.88102" lon="0.12709">
        <ele>1940.1</ele>
        <time>2021-03-25T11:56:23Z</time>
      </trkpt>
      <trkpt lat="42.88102" lon="0.12709">
        <ele>1940.1</ele>
        <time>2021-03-25T11:56:25Z</time>
      </trkpt>
      <trkpt lat="42.88102" lon="0.12709">
        <ele>1940.1</ele>
        <time>2021-03-25T11:56:27Z</time>
      </trkpt>
      <trkpt lat="42.88102" lon="0.12709">
        <ele>1940.1</ele>
        <time>2021-03-25T11:56:28Z</time>
      </trkpt>
      <trkpt lat="42.88102" lon="0.12709">
        <ele>1940.1</ele>
        <time>2021-03-25T11:56:29Z</time>
      </trkpt>
      <trkpt lat="42.88101" lon="0.1271">
        <ele>1940.1</ele>
        <time>2021-03-25T11:56:30Z</time>
      </trkpt>
      <trkpt lat="42.88101" lon="0.1271">
        <ele>1940.1</ele>
        <time>2021-03-25T11:56:32Z</time>
      </trkpt>
      <trkpt lat="42.88101" lon="0.12711">
        <ele>1940.1</ele>
        <time>2021-03-25T11:56:33Z</time>
      </trkpt>
      <trkpt lat="42.88101" lon="0.12712">
        <ele>1940.5</ele>
        <time>2021-03-25T11:56:35Z</time>
      </trkpt>
      <trkpt lat="42.88101" lon="0.12713">
        <ele>1940.5</ele>
        <time>2021-03-25T11:56:36Z</time>
      </trkpt>
      <trkpt lat="42.88101" lon="0.12713">
        <ele>1940.5</ele>
        <time>2021-03-25T11:56:37Z</time>
      </trkpt>
      <trkpt lat="42.88101" lon="0.12715">
        <ele>1940.5</ele>
        <time>2021-03-25T11:56:39Z</time>
      </trkpt>
      <trkpt lat="42.88101" lon="0.12716">
        <ele>1940.9</ele>
        <time>2021-03-25T11:56:40Z</time>
      </trkpt>
      <trkpt lat="42.88101" lon="0.12718">
        <ele>1940.9</ele>
        <time>2021-03-25T11:56:42Z</time>
      </trkpt>
      <trkpt lat="42.88101" lon="0.12719">
        <ele>1940.9</ele>
        <time>2021-03-25T11:56:43Z</time>
      </trkpt>
      <trkpt lat="42.88101" lon="0.1272">
        <ele>1940.9</ele>
        <time>2021-03-25T11:56:44Z</time>
      </trkpt>
      <trkpt lat="42.88101" lon="0.12721">
        <ele>1941.3</ele>
        <time>2021-03-25T11:56:45Z</time>
      </trkpt>
      <trkpt lat="42.881" lon="0.12722">
        <ele>1941.3</ele>
        <time>2021-03-25T11:56:46Z</time>
      </trkpt>
      <trkpt lat="42.881" lon="0.12723">
        <ele>1941.3</ele>
        <time>2021-03-25T11:56:47Z</time>
      </trkpt>
      <trkpt lat="42.881" lon="0.12725">
        <ele>1941.7</ele>
        <time>2021-03-25T11:56:49Z</time>
      </trkpt>
      <trkpt lat="42.881" lon="0.12727">
        <ele>1941.7</ele>
        <time>2021-03-25T11:56:51Z</time>
      </trkpt>
      <trkpt lat="42.881" lon="0.12729">
        <ele>1942.1</ele>
        <time>2021-03-25T11:56:52Z</time>
      </trkpt>
      <trkpt lat="42.881" lon="0.12732">
        <ele>1942.1</ele>
        <time>2021-03-25T11:56:53Z</time>
      </trkpt>
      <trkpt lat="42.881" lon="0.12733">
        <ele>1942.4</ele>
        <time>2021-03-25T11:56:55Z</time>
      </trkpt>
      <trkpt lat="42.881" lon="0.12735">
        <ele>1943.5</ele>
        <time>2021-03-25T11:56:56Z</time>
      </trkpt>
      <trkpt lat="42.88099" lon="0.12737">
        <ele>1943.5</ele>
        <time>2021-03-25T11:56:58Z</time>
      </trkpt>
      <trkpt lat="42.88099" lon="0.12739">
        <ele>1943.9</ele>
        <time>2021-03-25T11:56:59Z</time>
      </trkpt>
      <trkpt lat="42.88099" lon="0.1274">
        <ele>1943.9</ele>
        <time>2021-03-25T11:57:00Z</time>
      </trkpt>
      <trkpt lat="42.88098" lon="0.12742">
        <ele>1943.9</ele>
        <time>2021-03-25T11:57:01Z</time>
      </trkpt>
      <trkpt lat="42.88098" lon="0.12742">
        <ele>1944.2</ele>
        <time>2021-03-25T11:57:02Z</time>
      </trkpt>
      <trkpt lat="42.88098" lon="0.12743">
        <ele>1944.2</ele>
        <time>2021-03-25T11:57:03Z</time>
      </trkpt>
      <trkpt lat="42.88098" lon="0.12744">
        <ele>1944.2</ele>
        <time>2021-03-25T11:57:05Z</time>
      </trkpt>
      <trkpt lat="42.88097" lon="0.12745">
        <ele>1944.2</ele>
        <time>2021-03-25T11:57:06Z</time>
      </trkpt>
      <trkpt lat="42.88097" lon="0.12747">
        <ele>1944.5</ele>
        <time>2021-03-25T11:57:08Z</time>
      </trkpt>
      <trkpt lat="42.88096" lon="0.12748">
        <ele>1945.6</ele>
        <time>2021-03-25T11:57:09Z</time>
      </trkpt>
      <trkpt lat="42.88096" lon="0.12749">
        <ele>1945.6</ele>
        <time>2021-03-25T11:57:11Z</time>
      </trkpt>
      <trkpt lat="42.88095" lon="0.1275">
        <ele>1945.6</ele>
        <time>2021-03-25T11:57:12Z</time>
      </trkpt>
      <trkpt lat="42.88095" lon="0.12752">
        <ele>1945.9</ele>
        <time>2021-03-25T11:57:14Z</time>
      </trkpt>
      <trkpt lat="42.88094" lon="0.12752">
        <ele>1945.9</ele>
        <time>2021-03-25T11:57:15Z</time>
      </trkpt>
      <trkpt lat="42.88094" lon="0.12753">
        <ele>1945.9</ele>
        <time>2021-03-25T11:57:16Z</time>
      </trkpt>
      <trkpt lat="42.88094" lon="0.12755">
        <ele>1946.2</ele>
        <time>2021-03-25T11:57:18Z</time>
      </trkpt>
      <trkpt lat="42.88093" lon="0.12756">
        <ele>1946.2</ele>
        <time>2021-03-25T11:57:19Z</time>
      </trkpt>
      <trkpt lat="42.88093" lon="0.12758">
        <ele>1947.5</ele>
        <time>2021-03-25T11:57:21Z</time>
      </trkpt>
      <trkpt lat="42.88093" lon="0.1276">
        <ele>1947.8</ele>
        <time>2021-03-25T11:57:23Z</time>
      </trkpt>
      <trkpt lat="42.88092" lon="0.12762">
        <ele>1947.8</ele>
        <time>2021-03-25T11:57:25Z</time>
      </trkpt>
      <trkpt lat="42.88092" lon="0.12763">
        <ele>1947.8</ele>
        <time>2021-03-25T11:57:26Z</time>
      </trkpt>
      <trkpt lat="42.88092" lon="0.12764">
        <ele>1948.1</ele>
        <time>2021-03-25T11:57:27Z</time>
      </trkpt>
      <trkpt lat="42.88092" lon="0.12765">
        <ele>1948.1</ele>
        <time>2021-03-25T11:57:28Z</time>
      </trkpt>
      <trkpt lat="42.88091" lon="0.12767">
        <ele>1948.1</ele>
        <time>2021-03-25T11:57:30Z</time>
      </trkpt>
      <trkpt lat="42.88091" lon="0.12767">
        <ele>1948.1</ele>
        <time>2021-03-25T11:57:31Z</time>
      </trkpt>
      <trkpt lat="42.88091" lon="0.12768">
        <ele>1948.3</ele>
        <time>2021-03-25T11:57:32Z</time>
      </trkpt>
      <trkpt lat="42.88091" lon="0.12769">
        <ele>1948.3</ele>
        <time>2021-03-25T11:57:34Z</time>
      </trkpt>
      <trkpt lat="42.88091" lon="0.1277">
        <ele>1948.3</ele>
        <time>2021-03-25T11:57:35Z</time>
      </trkpt>
      <trkpt lat="42.88091" lon="0.1277">
        <ele>1948.3</ele>
        <time>2021-03-25T11:57:36Z</time>
      </trkpt>
      <trkpt lat="42.8809" lon="0.12771">
        <ele>1948.3</ele>
        <time>2021-03-25T11:57:38Z</time>
      </trkpt>
      <trkpt lat="42.8809" lon="0.12772">
        <ele>1948.6</ele>
        <time>2021-03-25T11:57:39Z</time>
      </trkpt>
      <trkpt lat="42.8809" lon="0.12773">
        <ele>1948.6</ele>
        <time>2021-03-25T11:57:40Z</time>
      </trkpt>
      <trkpt lat="42.8809" lon="0.12774">
        <ele>1948.6</ele>
        <time>2021-03-25T11:57:42Z</time>
      </trkpt>
      <trkpt lat="42.88091" lon="0.12775">
        <ele>1948.6</ele>
        <time>2021-03-25T11:57:44Z</time>
      </trkpt>
      <trkpt lat="42.88091" lon="0.12776">
        <ele>1948.6</ele>
        <time>2021-03-25T11:57:45Z</time>
      </trkpt>
      <trkpt lat="42.88091" lon="0.12777">
        <ele>1948.8</ele>
        <time>2021-03-25T11:57:46Z</time>
      </trkpt>
      <trkpt lat="42.88091" lon="0.12778">
        <ele>1948.8</ele>
        <time>2021-03-25T11:57:48Z</time>
      </trkpt>
      <trkpt lat="42.88091" lon="0.12779">
        <ele>1948.8</ele>
        <time>2021-03-25T11:57:49Z</time>
      </trkpt>
      <trkpt lat="42.88091" lon="0.1278">
        <ele>1948.8</ele>
        <time>2021-03-25T11:57:50Z</time>
      </trkpt>
      <trkpt lat="42.88091" lon="0.12781">
        <ele>1949</ele>
        <time>2021-03-25T11:57:52Z</time>
      </trkpt>
      <trkpt lat="42.88092" lon="0.12781">
        <ele>1949</ele>
        <time>2021-03-25T11:57:53Z</time>
      </trkpt>
      <trkpt lat="42.88092" lon="0.12782">
        <ele>1949</ele>
        <time>2021-03-25T11:57:54Z</time>
      </trkpt>
      <trkpt lat="42.88092" lon="0.12783">
        <ele>1949</ele>
        <time>2021-03-25T11:57:56Z</time>
      </trkpt>
      <trkpt lat="42.88092" lon="0.12783">
        <ele>1949</ele>
        <time>2021-03-25T11:57:57Z</time>
      </trkpt>
      <trkpt lat="42.88091" lon="0.12784">
        <ele>1949</ele>
        <time>2021-03-25T11:57:59Z</time>
      </trkpt>
      <trkpt lat="42.88091" lon="0.12785">
        <ele>1949.2</ele>
        <time>2021-03-25T11:58:00Z</time>
      </trkpt>
      <trkpt lat="42.88091" lon="0.12786">
        <ele>1949.2</ele>
        <time>2021-03-25T11:58:01Z</time>
      </trkpt>
      <trkpt lat="42.88091" lon="0.12786">
        <ele>1949.2</ele>
        <time>2021-03-25T11:58:02Z</time>
      </trkpt>
      <trkpt lat="42.88091" lon="0.12787">
        <ele>1949.2</ele>
        <time>2021-03-25T11:58:03Z</time>
      </trkpt>
      <trkpt lat="42.88091" lon="0.12788">
        <ele>1949.2</ele>
        <time>2021-03-25T11:58:04Z</time>
      </trkpt>
      <trkpt lat="42.88092" lon="0.12789">
        <ele>1949.4</ele>
        <time>2021-03-25T11:58:06Z</time>
      </trkpt>
      <trkpt lat="42.88092" lon="0.12789">
        <ele>1949.4</ele>
        <time>2021-03-25T11:58:08Z</time>
      </trkpt>
      <trkpt lat="42.88092" lon="0.1279">
        <ele>1949.4</ele>
        <time>2021-03-25T11:58:10Z</time>
      </trkpt>
      <trkpt lat="42.88093" lon="0.1279">
        <ele>1949.4</ele>
        <time>2021-03-25T11:58:11Z</time>
      </trkpt>
      <trkpt lat="42.88093" lon="0.1279">
        <ele>1949.4</ele>
        <time>2021-03-25T11:58:13Z</time>
      </trkpt>
      <trkpt lat="42.88093" lon="0.1279">
        <ele>1949.4</ele>
        <time>2021-03-25T11:58:14Z</time>
      </trkpt>
      <trkpt lat="42.88093" lon="0.12791">
        <ele>1949.4</ele>
        <time>2021-03-25T11:58:15Z</time>
      </trkpt>
      <trkpt lat="42.88093" lon="0.12791">
        <ele>1949.4</ele>
        <time>2021-03-25T11:58:17Z</time>
      </trkpt>
      <trkpt lat="42.88093" lon="0.12791">
        <ele>1949.4</ele>
        <time>2021-03-25T11:58:18Z</time>
      </trkpt>
      <trkpt lat="42.88093" lon="0.12792">
        <ele>1949.4</ele>
        <time>2021-03-25T11:58:20Z</time>
      </trkpt>
      <trkpt lat="42.88093" lon="0.12792">
        <ele>1948.2</ele>
        <time>2021-03-25T11:58:21Z</time>
      </trkpt>
      <trkpt lat="42.88094" lon="0.12792">
        <ele>1948.2</ele>
        <time>2021-03-25T11:58:23Z</time>
      </trkpt>
      <trkpt lat="42.88094" lon="0.12792">
        <ele>1948.2</ele>
        <time>2021-03-25T11:58:24Z</time>
      </trkpt>
      <trkpt lat="42.88094" lon="0.12792">
        <ele>1948.2</ele>
        <time>2021-03-25T11:58:25Z</time>
      </trkpt>
      <trkpt lat="42.88094" lon="0.12793">
        <ele>1948.2</ele>
        <time>2021-03-25T11:58:27Z</time>
      </trkpt>
      <trkpt lat="42.88094" lon="0.12793">
        <ele>1948.2</ele>
        <time>2021-03-25T11:58:28Z</time>
      </trkpt>
      <trkpt lat="42.88094" lon="0.12793">
        <ele>1948.2</ele>
        <time>2021-03-25T11:58:30Z</time>
      </trkpt>
      <trkpt lat="42.88094" lon="0.12793">
        <ele>1948.2</ele>
        <time>2021-03-25T11:58:31Z</time>
      </trkpt>
      <trkpt lat="42.88094" lon="0.12793">
        <ele>1948.2</ele>
        <time>2021-03-25T11:58:32Z</time>
      </trkpt>
      <trkpt lat="42.88094" lon="0.12793">
        <ele>1948.4</ele>
        <time>2021-03-25T11:58:33Z</time>
      </trkpt>
      <trkpt lat="42.88094" lon="0.12795">
        <ele>1948.4</ele>
        <time>2021-03-25T11:58:34Z</time>
      </trkpt>
      <trkpt lat="42.88093" lon="0.12797">
        <ele>1948.4</ele>
        <time>2021-03-25T11:58:36Z</time>
      </trkpt>
      <trkpt lat="42.88093" lon="0.12798">
        <ele>1949.9</ele>
        <time>2021-03-25T11:58:37Z</time>
      </trkpt>
      <trkpt lat="42.88093" lon="0.12799">
        <ele>1949.9</ele>
        <time>2021-03-25T11:58:39Z</time>
      </trkpt>
      <trkpt lat="42.88092" lon="0.128">
        <ele>1949.9</ele>
        <time>2021-03-25T11:58:40Z</time>
      </trkpt>
      <trkpt lat="42.88092" lon="0.12802">
        <ele>1949.9</ele>
        <time>2021-03-25T11:58:42Z</time>
      </trkpt>
      <trkpt lat="42.88092" lon="0.12803">
        <ele>1950.1</ele>
        <time>2021-03-25T11:58:43Z</time>
      </trkpt>
      <trkpt lat="42.88091" lon="0.12804">
        <ele>1950.1</ele>
        <time>2021-03-25T11:58:44Z</time>
      </trkpt>
      <trkpt lat="42.88091" lon="0.12805">
        <ele>1950.1</ele>
        <time>2021-03-25T11:58:45Z</time>
      </trkpt>
      <trkpt lat="42.8809" lon="0.12808">
        <ele>1950.3</ele>
        <time>2021-03-25T11:58:47Z</time>
      </trkpt>
      <trkpt lat="42.8809" lon="0.1281">
        <ele>1951.6</ele>
        <time>2021-03-25T11:58:48Z</time>
      </trkpt>
      <trkpt lat="42.88089" lon="0.1281">
        <ele>1951.8</ele>
        <time>2021-03-25T11:58:49Z</time>
      </trkpt>
      <trkpt lat="42.88089" lon="0.12812">
        <ele>1951.8</ele>
        <time>2021-03-25T11:58:51Z</time>
      </trkpt>
      <trkpt lat="42.88088" lon="0.12814">
        <ele>1951.8</ele>
        <time>2021-03-25T11:58:53Z</time>
      </trkpt>
      <trkpt lat="42.88087" lon="0.12817">
        <ele>1953.3</ele>
        <time>2021-03-25T11:58:54Z</time>
      </trkpt>
      <trkpt lat="42.88087" lon="0.12818">
        <ele>1953.3</ele>
        <time>2021-03-25T11:58:56Z</time>
      </trkpt>
      <trkpt lat="42.88086" lon="0.12819">
        <ele>1953.5</ele>
        <time>2021-03-25T11:58:57Z</time>
      </trkpt>
      <trkpt lat="42.88086" lon="0.1282">
        <ele>1953.5</ele>
        <time>2021-03-25T11:58:58Z</time>
      </trkpt>
      <trkpt lat="42.88086" lon="0.12821">
        <ele>1953.5</ele>
        <time>2021-03-25T11:59:00Z</time>
      </trkpt>
      <trkpt lat="42.88085" lon="0.12823">
        <ele>1953.7</ele>
        <time>2021-03-25T11:59:02Z</time>
      </trkpt>
      <trkpt lat="42.88085" lon="0.12824">
        <ele>1953.7</ele>
        <time>2021-03-25T11:59:03Z</time>
      </trkpt>
      <trkpt lat="42.88085" lon="0.12826">
        <ele>1953.7</ele>
        <time>2021-03-25T11:59:05Z</time>
      </trkpt>
      <trkpt lat="42.88085" lon="0.12827">
        <ele>1953.9</ele>
        <time>2021-03-25T11:59:07Z</time>
      </trkpt>
      <trkpt lat="42.88085" lon="0.12828">
        <ele>1953.9</ele>
        <time>2021-03-25T11:59:08Z</time>
      </trkpt>
      <trkpt lat="42.88085" lon="0.1283">
        <ele>1953.9</ele>
        <time>2021-03-25T11:59:09Z</time>
      </trkpt>
      <trkpt lat="42.88086" lon="0.12831">
        <ele>1953.9</ele>
        <time>2021-03-25T11:59:10Z</time>
      </trkpt>
      <trkpt lat="42.88086" lon="0.12832">
        <ele>1954.1</ele>
        <time>2021-03-25T11:59:12Z</time>
      </trkpt>
      <trkpt lat="42.88086" lon="0.12832">
        <ele>1954.1</ele>
        <time>2021-03-25T11:59:13Z</time>
      </trkpt>
      <trkpt lat="42.88086" lon="0.12834">
        <ele>1954.1</ele>
        <time>2021-03-25T11:59:15Z</time>
      </trkpt>
      <trkpt lat="42.88086" lon="0.12835">
        <ele>1954.1</ele>
        <time>2021-03-25T11:59:16Z</time>
      </trkpt>
      <trkpt lat="42.88086" lon="0.12835">
        <ele>1954.1</ele>
        <time>2021-03-25T11:59:17Z</time>
      </trkpt>
      <trkpt lat="42.88086" lon="0.12837">
        <ele>1954.3</ele>
        <time>2021-03-25T11:59:19Z</time>
      </trkpt>
      <trkpt lat="42.88085" lon="0.12838">
        <ele>1954.3</ele>
        <time>2021-03-25T11:59:21Z</time>
      </trkpt>
      <trkpt lat="42.88085" lon="0.1284">
        <ele>1954.3</ele>
        <time>2021-03-25T11:59:22Z</time>
      </trkpt>
      <trkpt lat="42.88085" lon="0.12841">
        <ele>1954.5</ele>
        <time>2021-03-25T11:59:23Z</time>
      </trkpt>
      <trkpt lat="42.88085" lon="0.12842">
        <ele>1954.5</ele>
        <time>2021-03-25T11:59:25Z</time>
      </trkpt>
      <trkpt lat="42.88085" lon="0.12843">
        <ele>1954.5</ele>
        <time>2021-03-25T11:59:26Z</time>
      </trkpt>
      <trkpt lat="42.88084" lon="0.12844">
        <ele>1954.5</ele>
        <time>2021-03-25T11:59:27Z</time>
      </trkpt>
      <trkpt lat="42.88084" lon="0.12845">
        <ele>1955.8</ele>
        <time>2021-03-25T11:59:28Z</time>
      </trkpt>
      <trkpt lat="42.88084" lon="0.12846">
        <ele>1955.8</ele>
        <time>2021-03-25T11:59:30Z</time>
      </trkpt>
      <trkpt lat="42.88083" lon="0.12847">
        <ele>1955.8</ele>
        <time>2021-03-25T11:59:32Z</time>
      </trkpt>
      <trkpt lat="42.88083" lon="0.12848">
        <ele>1955.8</ele>
        <time>2021-03-25T11:59:33Z</time>
      </trkpt>
      <trkpt lat="42.88082" lon="0.12848">
        <ele>1955.8</ele>
        <time>2021-03-25T11:59:34Z</time>
      </trkpt>
      <trkpt lat="42.88081" lon="0.12849">
        <ele>1955.9</ele>
        <time>2021-03-25T11:59:36Z</time>
      </trkpt>
      <trkpt lat="42.88081" lon="0.1285">
        <ele>1955.9</ele>
        <time>2021-03-25T11:59:37Z</time>
      </trkpt>
      <trkpt lat="42.8808" lon="0.12851">
        <ele>1957.1</ele>
        <time>2021-03-25T11:59:39Z</time>
      </trkpt>
      <trkpt lat="42.8808" lon="0.12852">
        <ele>1957.1</ele>
        <time>2021-03-25T11:59:40Z</time>
      </trkpt>
      <trkpt lat="42.88079" lon="0.12853">
        <ele>1957.1</ele>
        <time>2021-03-25T11:59:41Z</time>
      </trkpt>
      <trkpt lat="42.88079" lon="0.12854">
        <ele>1957.2</ele>
        <time>2021-03-25T11:59:43Z</time>
      </trkpt>
      <trkpt lat="42.88079" lon="0.12854">
        <ele>1957.2</ele>
        <time>2021-03-25T11:59:44Z</time>
      </trkpt>
      <trkpt lat="42.88078" lon="0.12855">
        <ele>1957.2</ele>
        <time>2021-03-25T11:59:46Z</time>
      </trkpt>
      <trkpt lat="42.88078" lon="0.12857">
        <ele>1957.2</ele>
        <time>2021-03-25T11:59:47Z</time>
      </trkpt>
      <trkpt lat="42.88078" lon="0.12858">
        <ele>1957.3</ele>
        <time>2021-03-25T11:59:48Z</time>
      </trkpt>
      <trkpt lat="42.88077" lon="0.12859">
        <ele>1958.4</ele>
        <time>2021-03-25T11:59:50Z</time>
      </trkpt>
      <trkpt lat="42.88077" lon="0.1286">
        <ele>1958.4</ele>
        <time>2021-03-25T11:59:51Z</time>
      </trkpt>
      <trkpt lat="42.88077" lon="0.1286">
        <ele>1958.4</ele>
        <time>2021-03-25T11:59:52Z</time>
      </trkpt>
      <trkpt lat="42.88076" lon="0.12862">
        <ele>1958.4</ele>
        <time>2021-03-25T11:59:54Z</time>
      </trkpt>
      <trkpt lat="42.88075" lon="0.12863">
        <ele>1958.5</ele>
        <time>2021-03-25T11:59:55Z</time>
      </trkpt>
      <trkpt lat="42.88075" lon="0.12864">
        <ele>1958.5</ele>
        <time>2021-03-25T11:59:57Z</time>
      </trkpt>
      <trkpt lat="42.88074" lon="0.12865">
        <ele>1959.7</ele>
        <time>2021-03-25T11:59:59Z</time>
      </trkpt>
      <trkpt lat="42.88074" lon="0.12865">
        <ele>1959.7</ele>
        <time>2021-03-25T12:00:00Z</time>
      </trkpt>
      <trkpt lat="42.88073" lon="0.12866">
        <ele>1959.7</ele>
        <time>2021-03-25T12:00:01Z</time>
      </trkpt>
      <trkpt lat="42.88073" lon="0.12867">
        <ele>1959.7</ele>
        <time>2021-03-25T12:00:03Z</time>
      </trkpt>
      <trkpt lat="42.88072" lon="0.12868">
        <ele>1959.7</ele>
        <time>2021-03-25T12:00:04Z</time>
      </trkpt>
      <trkpt lat="42.88072" lon="0.12869">
        <ele>1959.7</ele>
        <time>2021-03-25T12:00:05Z</time>
      </trkpt>
      <trkpt lat="42.88071" lon="0.1287">
        <ele>1961</ele>
        <time>2021-03-25T12:00:06Z</time>
      </trkpt>
      <trkpt lat="42.88071" lon="0.12871">
        <ele>1961.1</ele>
        <time>2021-03-25T12:00:07Z</time>
      </trkpt>
      <trkpt lat="42.8807" lon="0.12872">
        <ele>1961.1</ele>
        <time>2021-03-25T12:00:09Z</time>
      </trkpt>
      <trkpt lat="42.8807" lon="0.12873">
        <ele>1961.1</ele>
        <time>2021-03-25T12:00:10Z</time>
      </trkpt>
      <trkpt lat="42.8807" lon="0.12874">
        <ele>1961.1</ele>
        <time>2021-03-25T12:00:11Z</time>
      </trkpt>
      <trkpt lat="42.8807" lon="0.12875">
        <ele>1961.1</ele>
        <time>2021-03-25T12:00:13Z</time>
      </trkpt>
      <trkpt lat="42.8807" lon="0.12876">
        <ele>1961.1</ele>
        <time>2021-03-25T12:00:14Z</time>
      </trkpt>
      <trkpt lat="42.8807" lon="0.12877">
        <ele>1961.1</ele>
        <time>2021-03-25T12:00:15Z</time>
      </trkpt>
      <trkpt lat="42.8807" lon="0.12878">
        <ele>1961.1</ele>
        <time>2021-03-25T12:00:17Z</time>
      </trkpt>
      <trkpt lat="42.8807" lon="0.12879">
        <ele>1961.1</ele>
        <time>2021-03-25T12:00:18Z</time>
      </trkpt>
      <trkpt lat="42.88069" lon="0.12881">
        <ele>1961.1</ele>
        <time>2021-03-25T12:00:20Z</time>
      </trkpt>
      <trkpt lat="42.88069" lon="0.12883">
        <ele>1961.1</ele>
        <time>2021-03-25T12:00:22Z</time>
      </trkpt>
      <trkpt lat="42.88068" lon="0.12883">
        <ele>1961.2</ele>
        <time>2021-03-25T12:00:23Z</time>
      </trkpt>
      <trkpt lat="42.88068" lon="0.12885">
        <ele>1962.5</ele>
        <time>2021-03-25T12:00:25Z</time>
      </trkpt>
      <trkpt lat="42.88067" lon="0.12885">
        <ele>1962.5</ele>
        <time>2021-03-25T12:00:26Z</time>
      </trkpt>
      <trkpt lat="42.88067" lon="0.12886">
        <ele>1962.5</ele>
        <time>2021-03-25T12:00:27Z</time>
      </trkpt>
      <trkpt lat="42.88066" lon="0.12888">
        <ele>1962.6</ele>
        <time>2021-03-25T12:00:29Z</time>
      </trkpt>
      <trkpt lat="42.88065" lon="0.12889">
        <ele>1962.6</ele>
        <time>2021-03-25T12:00:30Z</time>
      </trkpt>
      <trkpt lat="42.88065" lon="0.1289">
        <ele>1964</ele>
        <time>2021-03-25T12:00:32Z</time>
      </trkpt>
      <trkpt lat="42.88064" lon="0.12892">
        <ele>1964</ele>
        <time>2021-03-25T12:00:33Z</time>
      </trkpt>
      <trkpt lat="42.88064" lon="0.12893">
        <ele>1964.1</ele>
        <time>2021-03-25T12:00:35Z</time>
      </trkpt>
      <trkpt lat="42.88063" lon="0.12894">
        <ele>1964.1</ele>
        <time>2021-03-25T12:00:37Z</time>
      </trkpt>
      <trkpt lat="42.88063" lon="0.12894">
        <ele>1964.1</ele>
        <time>2021-03-25T12:00:38Z</time>
      </trkpt>
      <trkpt lat="42.88063" lon="0.12895">
        <ele>1964.1</ele>
        <time>2021-03-25T12:00:39Z</time>
      </trkpt>
      <trkpt lat="42.88062" lon="0.12897">
        <ele>1964.2</ele>
        <time>2021-03-25T12:00:40Z</time>
      </trkpt>
      <trkpt lat="42.88062" lon="0.12898">
        <ele>1964.2</ele>
        <time>2021-03-25T12:00:42Z</time>
      </trkpt>
      <trkpt lat="42.88062" lon="0.12899">
        <ele>1965.7</ele>
        <time>2021-03-25T12:00:44Z</time>
      </trkpt>
      <trkpt lat="42.88062" lon="0.129">
        <ele>1965.7</ele>
        <time>2021-03-25T12:00:45Z</time>
      </trkpt>
      <trkpt lat="42.88061" lon="0.12901">
        <ele>1965.8</ele>
        <time>2021-03-25T12:00:46Z</time>
      </trkpt>
      <trkpt lat="42.88061" lon="0.12903">
        <ele>1965.8</ele>
        <time>2021-03-25T12:00:48Z</time>
      </trkpt>
      <trkpt lat="42.8806" lon="0.12905">
        <ele>1965.9</ele>
        <time>2021-03-25T12:00:49Z</time>
      </trkpt>
      <trkpt lat="42.8806" lon="0.12907">
        <ele>1965.9</ele>
        <time>2021-03-25T12:00:51Z</time>
      </trkpt>
      <trkpt lat="42.88059" lon="0.12907">
        <ele>1965.9</ele>
        <time>2021-03-25T12:00:52Z</time>
      </trkpt>
      <trkpt lat="42.88058" lon="0.1291">
        <ele>1967.6</ele>
        <time>2021-03-25T12:00:54Z</time>
      </trkpt>
      <trkpt lat="42.88057" lon="0.12911">
        <ele>1967.6</ele>
        <time>2021-03-25T12:00:55Z</time>
      </trkpt>
      <trkpt lat="42.88056" lon="0.12912">
        <ele>1969.3</ele>
        <time>2021-03-25T12:00:57Z</time>
      </trkpt>
      <trkpt lat="42.88054" lon="0.12913">
        <ele>1969.4</ele>
        <time>2021-03-25T12:00:58Z</time>
      </trkpt>
      <trkpt lat="42.88053" lon="0.12915">
        <ele>1969.4</ele>
        <time>2021-03-25T12:01:00Z</time>
      </trkpt>
      <trkpt lat="42.88053" lon="0.12916">
        <ele>1969.4</ele>
        <time>2021-03-25T12:01:01Z</time>
      </trkpt>
      <trkpt lat="42.88052" lon="0.12917">
        <ele>1971.1</ele>
        <time>2021-03-25T12:01:02Z</time>
      </trkpt>
      <trkpt lat="42.88052" lon="0.12918">
        <ele>1971.3</ele>
        <time>2021-03-25T12:01:04Z</time>
      </trkpt>
      <trkpt lat="42.88052" lon="0.12919">
        <ele>1971.3</ele>
        <time>2021-03-25T12:01:05Z</time>
      </trkpt>
      <trkpt lat="42.88052" lon="0.12919">
        <ele>1971.3</ele>
        <time>2021-03-25T12:01:06Z</time>
      </trkpt>
      <trkpt lat="42.88053" lon="0.1292">
        <ele>1969.5</ele>
        <time>2021-03-25T12:01:08Z</time>
      </trkpt>
      <trkpt lat="42.88053" lon="0.1292">
        <ele>1969.5</ele>
        <time>2021-03-25T12:01:10Z</time>
      </trkpt>
      <trkpt lat="42.88054" lon="0.12921">
        <ele>1969.5</ele>
        <time>2021-03-25T12:01:11Z</time>
      </trkpt>
      <trkpt lat="42.88054" lon="0.12921">
        <ele>1969.5</ele>
        <time>2021-03-25T12:01:12Z</time>
      </trkpt>
      <trkpt lat="42.88055" lon="0.12921">
        <ele>1969.5</ele>
        <time>2021-03-25T12:01:14Z</time>
      </trkpt>
      <trkpt lat="42.88055" lon="0.12922">
        <ele>1969.5</ele>
        <time>2021-03-25T12:01:15Z</time>
      </trkpt>
      <trkpt lat="42.88055" lon="0.12922">
        <ele>1969.7</ele>
        <time>2021-03-25T12:01:17Z</time>
      </trkpt>
      <trkpt lat="42.88056" lon="0.12923">
        <ele>1969.7</ele>
        <time>2021-03-25T12:01:19Z</time>
      </trkpt>
      <trkpt lat="42.88056" lon="0.12923">
        <ele>1967.9</ele>
        <time>2021-03-25T12:01:20Z</time>
      </trkpt>
      <trkpt lat="42.88056" lon="0.12924">
        <ele>1967.9</ele>
        <time>2021-03-25T12:01:22Z</time>
      </trkpt>
      <trkpt lat="42.88056" lon="0.12924">
        <ele>1967.9</ele>
        <time>2021-03-25T12:01:23Z</time>
      </trkpt>
      <trkpt lat="42.88056" lon="0.12925">
        <ele>1967.9</ele>
        <time>2021-03-25T12:01:24Z</time>
      </trkpt>
      <trkpt lat="42.88056" lon="0.12926">
        <ele>1968.1</ele>
        <time>2021-03-25T12:01:26Z</time>
      </trkpt>
      <trkpt lat="42.88056" lon="0.12927">
        <ele>1968.1</ele>
        <time>2021-03-25T12:01:27Z</time>
      </trkpt>
      <trkpt lat="42.88055" lon="0.12929">
        <ele>1969.8</ele>
        <time>2021-03-25T12:01:29Z</time>
      </trkpt>
      <trkpt lat="42.88055" lon="0.12932">
        <ele>1969.9</ele>
        <time>2021-03-25T12:01:30Z</time>
      </trkpt>
      <trkpt lat="42.88055" lon="0.12935">
        <ele>1970</ele>
        <time>2021-03-25T12:01:32Z</time>
      </trkpt>
      <trkpt lat="42.88052" lon="0.12941">
        <ele>1971.9</ele>
        <time>2021-03-25T12:01:34Z</time>
      </trkpt>
      <trkpt lat="42.88051" lon="0.12945">
        <ele>1972</ele>
        <time>2021-03-25T12:01:36Z</time>
      </trkpt>
      <trkpt lat="42.8805" lon="0.12945">
        <ele>1972</ele>
        <time>2021-03-25T12:01:37Z</time>
      </trkpt>
      <trkpt lat="42.8805" lon="0.12946">
        <ele>1972</ele>
        <time>2021-03-25T12:01:39Z</time>
      </trkpt>
      <trkpt lat="42.8805" lon="0.12947">
        <ele>1972</ele>
        <time>2021-03-25T12:01:40Z</time>
      </trkpt>
      <trkpt lat="42.8805" lon="0.12948">
        <ele>1972</ele>
        <time>2021-03-25T12:01:42Z</time>
      </trkpt>
      <trkpt lat="42.88049" lon="0.12949">
        <ele>1972</ele>
        <time>2021-03-25T12:01:43Z</time>
      </trkpt>
      <trkpt lat="42.88049" lon="0.1295">
        <ele>1973.9</ele>
        <time>2021-03-25T12:01:45Z</time>
      </trkpt>
      <trkpt lat="42.88048" lon="0.12952">
        <ele>1973.9</ele>
        <time>2021-03-25T12:01:47Z</time>
      </trkpt>
      <trkpt lat="42.88048" lon="0.12953">
        <ele>1973.9</ele>
        <time>2021-03-25T12:01:48Z</time>
      </trkpt>
      <trkpt lat="42.88047" lon="0.12954">
        <ele>1973.9</ele>
        <time>2021-03-25T12:01:49Z</time>
      </trkpt>
      <trkpt lat="42.88047" lon="0.12955">
        <ele>1973.9</ele>
        <time>2021-03-25T12:01:51Z</time>
      </trkpt>
      <trkpt lat="42.88046" lon="0.12956">
        <ele>1975.9</ele>
        <time>2021-03-25T12:01:52Z</time>
      </trkpt>
      <trkpt lat="42.88045" lon="0.12957">
        <ele>1975.9</ele>
        <time>2021-03-25T12:01:54Z</time>
      </trkpt>
      <trkpt lat="42.88045" lon="0.12958">
        <ele>1975.9</ele>
        <time>2021-03-25T12:01:55Z</time>
      </trkpt>
      <trkpt lat="42.88044" lon="0.12958">
        <ele>1975.9</ele>
        <time>2021-03-25T12:01:56Z</time>
      </trkpt>
      <trkpt lat="42.88044" lon="0.1296">
        <ele>1975.9</ele>
        <time>2021-03-25T12:01:57Z</time>
      </trkpt>
      <trkpt lat="42.88043" lon="0.12961">
        <ele>1975.9</ele>
        <time>2021-03-25T12:01:59Z</time>
      </trkpt>
      <trkpt lat="42.88043" lon="0.12963">
        <ele>1977.9</ele>
        <time>2021-03-25T12:02:01Z</time>
      </trkpt>
      <trkpt lat="42.88042" lon="0.12964">
        <ele>1977.9</ele>
        <time>2021-03-25T12:02:03Z</time>
      </trkpt>
      <trkpt lat="42.88042" lon="0.12965">
        <ele>1977.9</ele>
        <time>2021-03-25T12:02:04Z</time>
      </trkpt>
      <trkpt lat="42.88041" lon="0.12967">
        <ele>1977.9</ele>
        <time>2021-03-25T12:02:06Z</time>
      </trkpt>
      <trkpt lat="42.88041" lon="0.12968">
        <ele>1977.9</ele>
        <time>2021-03-25T12:02:07Z</time>
      </trkpt>
      <trkpt lat="42.8804" lon="0.12969">
        <ele>1977.9</ele>
        <time>2021-03-25T12:02:08Z</time>
      </trkpt>
      <trkpt lat="42.8804" lon="0.12971">
        <ele>1980</ele>
        <time>2021-03-25T12:02:09Z</time>
      </trkpt>
      <trkpt lat="42.88039" lon="0.12975">
        <ele>1980.1</ele>
        <time>2021-03-25T12:02:11Z</time>
      </trkpt>
      <trkpt lat="42.88039" lon="0.12977">
        <ele>1980.1</ele>
        <time>2021-03-25T12:02:12Z</time>
      </trkpt>
      <trkpt lat="42.88039" lon="0.12977">
        <ele>1980.1</ele>
        <time>2021-03-25T12:02:13Z</time>
      </trkpt>
      <trkpt lat="42.88039" lon="0.12979">
        <ele>1980.2</ele>
        <time>2021-03-25T12:02:15Z</time>
      </trkpt>
      <trkpt lat="42.88039" lon="0.12979">
        <ele>1980.2</ele>
        <time>2021-03-25T12:02:16Z</time>
      </trkpt>
      <trkpt lat="42.88039" lon="0.1298">
        <ele>1980.2</ele>
        <time>2021-03-25T12:02:18Z</time>
      </trkpt>
      <trkpt lat="42.88039" lon="0.1298">
        <ele>1980.2</ele>
        <time>2021-03-25T12:02:20Z</time>
      </trkpt>
      <trkpt lat="42.88039" lon="0.12981">
        <ele>1980.2</ele>
        <time>2021-03-25T12:02:21Z</time>
      </trkpt>
      <trkpt lat="42.88039" lon="0.12981">
        <ele>1980.2</ele>
        <time>2021-03-25T12:02:22Z</time>
      </trkpt>
      <trkpt lat="42.88039" lon="0.12983">
        <ele>1980.4</ele>
        <time>2021-03-25T12:02:23Z</time>
      </trkpt>
      <trkpt lat="42.88039" lon="0.12983">
        <ele>1980.4</ele>
        <time>2021-03-25T12:02:24Z</time>
      </trkpt>
      <trkpt lat="42.88039" lon="0.12985">
        <ele>1980.4</ele>
        <time>2021-03-25T12:02:26Z</time>
      </trkpt>
      <trkpt lat="42.88039" lon="0.12986">
        <ele>1980.5</ele>
        <time>2021-03-25T12:02:27Z</time>
      </trkpt>
      <trkpt lat="42.88039" lon="0.12986">
        <ele>1980.5</ele>
        <time>2021-03-25T12:02:28Z</time>
      </trkpt>
      <trkpt lat="42.88039" lon="0.12987">
        <ele>1980.5</ele>
        <time>2021-03-25T12:02:30Z</time>
      </trkpt>
      <trkpt lat="42.88039" lon="0.12988">
        <ele>1980.5</ele>
        <time>2021-03-25T12:02:31Z</time>
      </trkpt>
      <trkpt lat="42.8804" lon="0.12989">
        <ele>1980.5</ele>
        <time>2021-03-25T12:02:32Z</time>
      </trkpt>
      <trkpt lat="42.8804" lon="0.1299">
        <ele>1980.5</ele>
        <time>2021-03-25T12:02:33Z</time>
      </trkpt>
      <trkpt lat="42.8804" lon="0.1299">
        <ele>1980.5</ele>
        <time>2021-03-25T12:02:34Z</time>
      </trkpt>
      <trkpt lat="42.8804" lon="0.12991">
        <ele>1980.7</ele>
        <time>2021-03-25T12:02:35Z</time>
      </trkpt>
      <trkpt lat="42.8804" lon="0.12992">
        <ele>1980.7</ele>
        <time>2021-03-25T12:02:36Z</time>
      </trkpt>
      <trkpt lat="42.8804" lon="0.12992">
        <ele>1980.7</ele>
        <time>2021-03-25T12:02:38Z</time>
      </trkpt>
      <trkpt lat="42.8804" lon="0.12994">
        <ele>1980.7</ele>
        <time>2021-03-25T12:02:39Z</time>
      </trkpt>
      <trkpt lat="42.88039" lon="0.12994">
        <ele>1980.7</ele>
        <time>2021-03-25T12:02:40Z</time>
      </trkpt>
      <trkpt lat="42.88039" lon="0.12995">
        <ele>1980.9</ele>
        <time>2021-03-25T12:02:41Z</time>
      </trkpt>
      <trkpt lat="42.88039" lon="0.12996">
        <ele>1980.9</ele>
        <time>2021-03-25T12:02:42Z</time>
      </trkpt>
      <trkpt lat="42.88038" lon="0.12997">
        <ele>1980.9</ele>
        <time>2021-03-25T12:02:44Z</time>
      </trkpt>
      <trkpt lat="42.88038" lon="0.12998">
        <ele>1980.9</ele>
        <time>2021-03-25T12:02:46Z</time>
      </trkpt>
      <trkpt lat="42.88038" lon="0.12999">
        <ele>1980.9</ele>
        <time>2021-03-25T12:02:47Z</time>
      </trkpt>
      <trkpt lat="42.88037" lon="0.13001">
        <ele>1981.2</ele>
        <time>2021-03-25T12:02:48Z</time>
      </trkpt>
      <trkpt lat="42.88034" lon="0.13006">
        <ele>1983.7</ele>
        <time>2021-03-25T12:02:50Z</time>
      </trkpt>
      <trkpt lat="42.88033" lon="0.13007">
        <ele>1986.1</ele>
        <time>2021-03-25T12:02:51Z</time>
      </trkpt>
      <trkpt lat="42.88031" lon="0.13008">
        <ele>1986.4</ele>
        <time>2021-03-25T12:02:52Z</time>
      </trkpt>
      <trkpt lat="42.8803" lon="0.1301">
        <ele>1989</ele>
        <time>2021-03-25T12:02:54Z</time>
      </trkpt>
      <trkpt lat="42.8803" lon="0.13011">
        <ele>1989</ele>
        <time>2021-03-25T12:02:55Z</time>
      </trkpt>
      <trkpt lat="42.8803" lon="0.13011">
        <ele>1989</ele>
        <time>2021-03-25T12:02:57Z</time>
      </trkpt>
      <trkpt lat="42.8803" lon="0.13011">
        <ele>1989</ele>
        <time>2021-03-25T12:02:58Z</time>
      </trkpt>
      <trkpt lat="42.8803" lon="0.13011">
        <ele>1989</ele>
        <time>2021-03-25T12:03:00Z</time>
      </trkpt>
      <trkpt lat="42.8803" lon="0.13011">
        <ele>1989</ele>
        <time>2021-03-25T12:03:01Z</time>
      </trkpt>
      <trkpt lat="42.88029" lon="0.13011">
        <ele>1989</ele>
        <time>2021-03-25T12:03:03Z</time>
      </trkpt>
      <trkpt lat="42.88029" lon="0.13012">
        <ele>1989</ele>
        <time>2021-03-25T12:03:04Z</time>
      </trkpt>
      <trkpt lat="42.88029" lon="0.13012">
        <ele>1989</ele>
        <time>2021-03-25T12:03:05Z</time>
      </trkpt>
      <trkpt lat="42.88029" lon="0.13012">
        <ele>1989</ele>
        <time>2021-03-25T12:03:07Z</time>
      </trkpt>
      <trkpt lat="42.88029" lon="0.13012">
        <ele>1989.3</ele>
        <time>2021-03-25T12:03:08Z</time>
      </trkpt>
      <trkpt lat="42.88029" lon="0.13012">
        <ele>1989.3</ele>
        <time>2021-03-25T12:03:09Z</time>
      </trkpt>
      <trkpt lat="42.88029" lon="0.13012">
        <ele>1989.3</ele>
        <time>2021-03-25T12:03:10Z</time>
      </trkpt>
      <trkpt lat="42.88028" lon="0.13014">
        <ele>1989.3</ele>
        <time>2021-03-25T12:03:11Z</time>
      </trkpt>
      <trkpt lat="42.88024" lon="0.13017">
        <ele>1995.1</ele>
        <time>2021-03-25T12:03:13Z</time>
      </trkpt>
      <trkpt lat="42.88022" lon="0.13018">
        <ele>1995.1</ele>
        <time>2021-03-25T12:03:14Z</time>
      </trkpt>
      <trkpt lat="42.8802" lon="0.13021">
        <ele>1998.2</ele>
        <time>2021-03-25T12:03:16Z</time>
      </trkpt>
      <trkpt lat="42.88019" lon="0.13022">
        <ele>1998.2</ele>
        <time>2021-03-25T12:03:17Z</time>
      </trkpt>
      <trkpt lat="42.88018" lon="0.13026">
        <ele>2001.1</ele>
        <time>2021-03-25T12:03:19Z</time>
      </trkpt>
      <trkpt lat="42.88017" lon="0.13028">
        <ele>2001.1</ele>
        <time>2021-03-25T12:03:20Z</time>
      </trkpt>
      <trkpt lat="42.88016" lon="0.13029">
        <ele>2001.4</ele>
        <time>2021-03-25T12:03:22Z</time>
      </trkpt>
      <trkpt lat="42.88017" lon="0.1303">
        <ele>2001.4</ele>
        <time>2021-03-25T12:03:23Z</time>
      </trkpt>
      <trkpt lat="42.88017" lon="0.13031">
        <ele>2001.4</ele>
        <time>2021-03-25T12:03:24Z</time>
      </trkpt>
      <trkpt lat="42.88017" lon="0.13032">
        <ele>2001.4</ele>
        <time>2021-03-25T12:03:25Z</time>
      </trkpt>
      <trkpt lat="42.88017" lon="0.13032">
        <ele>2001.4</ele>
        <time>2021-03-25T12:03:27Z</time>
      </trkpt>
      <trkpt lat="42.88018" lon="0.13033">
        <ele>2001.4</ele>
        <time>2021-03-25T12:03:29Z</time>
      </trkpt>
      <trkpt lat="42.88018" lon="0.13033">
        <ele>1998.8</ele>
        <time>2021-03-25T12:03:30Z</time>
      </trkpt>
      <trkpt lat="42.88019" lon="0.13033">
        <ele>1998.8</ele>
        <time>2021-03-25T12:03:31Z</time>
      </trkpt>
      <trkpt lat="42.88019" lon="0.13034">
        <ele>1999.1</ele>
        <time>2021-03-25T12:03:33Z</time>
      </trkpt>
      <trkpt lat="42.88019" lon="0.13034">
        <ele>1999.1</ele>
        <time>2021-03-25T12:03:34Z</time>
      </trkpt>
      <trkpt lat="42.88019" lon="0.13034">
        <ele>1999.1</ele>
        <time>2021-03-25T12:03:35Z</time>
      </trkpt>
      <trkpt lat="42.88019" lon="0.13034">
        <ele>1999.1</ele>
        <time>2021-03-25T12:03:36Z</time>
      </trkpt>
      <trkpt lat="42.88019" lon="0.13034">
        <ele>1999.1</ele>
        <time>2021-03-25T12:03:38Z</time>
      </trkpt>
      <trkpt lat="42.8802" lon="0.13034">
        <ele>1999.1</ele>
        <time>2021-03-25T12:03:39Z</time>
      </trkpt>
      <trkpt lat="42.8802" lon="0.13035">
        <ele>1999.1</ele>
        <time>2021-03-25T12:03:41Z</time>
      </trkpt>
      <trkpt lat="42.88019" lon="0.13035">
        <ele>1999.1</ele>
        <time>2021-03-25T12:03:43Z</time>
      </trkpt>
      <trkpt lat="42.8802" lon="0.13035">
        <ele>1999.1</ele>
        <time>2021-03-25T12:03:44Z</time>
      </trkpt>
      <trkpt lat="42.8802" lon="0.13036">
        <ele>1999.1</ele>
        <time>2021-03-25T12:03:45Z</time>
      </trkpt>
      <trkpt lat="42.88021" lon="0.13036">
        <ele>1999.1</ele>
        <time>2021-03-25T12:03:46Z</time>
      </trkpt>
      <trkpt lat="42.88021" lon="0.13037">
        <ele>1996.3</ele>
        <time>2021-03-25T12:03:47Z</time>
      </trkpt>
      <trkpt lat="42.88021" lon="0.13037">
        <ele>1996.3</ele>
        <time>2021-03-25T12:03:48Z</time>
      </trkpt>
      <trkpt lat="42.88022" lon="0.13037">
        <ele>1996.3</ele>
        <time>2021-03-25T12:03:50Z</time>
      </trkpt>
      <trkpt lat="42.88022" lon="0.13038">
        <ele>1996.3</ele>
        <time>2021-03-25T12:03:51Z</time>
      </trkpt>
      <trkpt lat="42.88023" lon="0.13038">
        <ele>1996.3</ele>
        <time>2021-03-25T12:03:52Z</time>
      </trkpt>
      <trkpt lat="42.88023" lon="0.13038">
        <ele>1996.6</ele>
        <time>2021-03-25T12:03:53Z</time>
      </trkpt>
      <trkpt lat="42.88024" lon="0.13038">
        <ele>1996.6</ele>
        <time>2021-03-25T12:03:55Z</time>
      </trkpt>
      <trkpt lat="42.88024" lon="0.13038">
        <ele>1996.6</ele>
        <time>2021-03-25T12:03:56Z</time>
      </trkpt>
      <trkpt lat="42.88024" lon="0.13038">
        <ele>1996.6</ele>
        <time>2021-03-25T12:03:57Z</time>
      </trkpt>
      <trkpt lat="42.88024" lon="0.13038">
        <ele>1993.7</ele>
        <time>2021-03-25T12:03:58Z</time>
      </trkpt>
      <trkpt lat="42.88025" lon="0.13038">
        <ele>1993.7</ele>
        <time>2021-03-25T12:04:00Z</time>
      </trkpt>
      <trkpt lat="42.88025" lon="0.13038">
        <ele>1993.7</ele>
        <time>2021-03-25T12:04:01Z</time>
      </trkpt>
      <trkpt lat="42.88025" lon="0.13038">
        <ele>1993.7</ele>
        <time>2021-03-25T12:04:02Z</time>
      </trkpt>
      <trkpt lat="42.88025" lon="0.13038">
        <ele>1993.7</ele>
        <time>2021-03-25T12:04:03Z</time>
      </trkpt>
      <trkpt lat="42.88025" lon="0.13038">
        <ele>1993.7</ele>
        <time>2021-03-25T12:04:04Z</time>
      </trkpt>
      <trkpt lat="42.88026" lon="0.13039">
        <ele>1993.7</ele>
        <time>2021-03-25T12:04:05Z</time>
      </trkpt>
      <trkpt lat="42.88026" lon="0.13039">
        <ele>1993.7</ele>
        <time>2021-03-25T12:04:06Z</time>
      </trkpt>
      <trkpt lat="42.88027" lon="0.1304">
        <ele>1993.7</ele>
        <time>2021-03-25T12:04:08Z</time>
      </trkpt>
      <trkpt lat="42.88027" lon="0.1304">
        <ele>1993.7</ele>
        <time>2021-03-25T12:04:09Z</time>
      </trkpt>
      <trkpt lat="42.88027" lon="0.1304">
        <ele>1990.8</ele>
        <time>2021-03-25T12:04:11Z</time>
      </trkpt>
      <trkpt lat="42.88028" lon="0.13041">
        <ele>1990.8</ele>
        <time>2021-03-25T12:04:12Z</time>
      </trkpt>
      <trkpt lat="42.88028" lon="0.13042">
        <ele>1990.8</ele>
        <time>2021-03-25T12:04:14Z</time>
      </trkpt>
      <trkpt lat="42.88028" lon="0.13042">
        <ele>1991</ele>
        <time>2021-03-25T12:04:15Z</time>
      </trkpt>
      <trkpt lat="42.88028" lon="0.13044">
        <ele>1991</ele>
        <time>2021-03-25T12:04:16Z</time>
      </trkpt>
      <trkpt lat="42.88029" lon="0.13046">
        <ele>1991</ele>
        <time>2021-03-25T12:04:18Z</time>
      </trkpt>
      <trkpt lat="42.88029" lon="0.13047">
        <ele>1991.2</ele>
        <time>2021-03-25T12:04:19Z</time>
      </trkpt>
      <trkpt lat="42.88029" lon="0.13048">
        <ele>1991.2</ele>
        <time>2021-03-25T12:04:20Z</time>
      </trkpt>
      <trkpt lat="42.88029" lon="0.1305">
        <ele>1991.2</ele>
        <time>2021-03-25T12:04:21Z</time>
      </trkpt>
      <trkpt lat="42.88029" lon="0.13051">
        <ele>1991.3</ele>
        <time>2021-03-25T12:04:22Z</time>
      </trkpt>
      <trkpt lat="42.88029" lon="0.13053">
        <ele>1991.3</ele>
        <time>2021-03-25T12:04:24Z</time>
      </trkpt>
      <trkpt lat="42.88029" lon="0.13055">
        <ele>1991.3</ele>
        <time>2021-03-25T12:04:25Z</time>
      </trkpt>
      <trkpt lat="42.88029" lon="0.13057">
        <ele>1991.4</ele>
        <time>2021-03-25T12:04:26Z</time>
      </trkpt>
      <trkpt lat="42.88029" lon="0.13059">
        <ele>1991.4</ele>
        <time>2021-03-25T12:04:28Z</time>
      </trkpt>
      <trkpt lat="42.88029" lon="0.1306">
        <ele>1991.5</ele>
        <time>2021-03-25T12:04:29Z</time>
      </trkpt>
      <trkpt lat="42.88029" lon="0.13061">
        <ele>1991.5</ele>
        <time>2021-03-25T12:04:30Z</time>
      </trkpt>
      <trkpt lat="42.88029" lon="0.13063">
        <ele>1991.5</ele>
        <time>2021-03-25T12:04:31Z</time>
      </trkpt>
      <trkpt lat="42.8803" lon="0.13064">
        <ele>1991.6</ele>
        <time>2021-03-25T12:04:32Z</time>
      </trkpt>
      <trkpt lat="42.8803" lon="0.13065">
        <ele>1991.6</ele>
        <time>2021-03-25T12:04:33Z</time>
      </trkpt>
      <trkpt lat="42.8803" lon="0.13066">
        <ele>1991.6</ele>
        <time>2021-03-25T12:04:35Z</time>
      </trkpt>
      <trkpt lat="42.8803" lon="0.13067">
        <ele>1991.6</ele>
        <time>2021-03-25T12:04:36Z</time>
      </trkpt>
      <trkpt lat="42.8803" lon="0.13068">
        <ele>1991.6</ele>
        <time>2021-03-25T12:04:38Z</time>
      </trkpt>
      <trkpt lat="42.8803" lon="0.1307">
        <ele>1988.8</ele>
        <time>2021-03-25T12:04:39Z</time>
      </trkpt>
      <trkpt lat="42.8803" lon="0.1307">
        <ele>1988.8</ele>
        <time>2021-03-25T12:04:40Z</time>
      </trkpt>
      <trkpt lat="42.88031" lon="0.13071">
        <ele>1988.8</ele>
        <time>2021-03-25T12:04:41Z</time>
      </trkpt>
      <trkpt lat="42.88031" lon="0.13071">
        <ele>1988.8</ele>
        <time>2021-03-25T12:04:42Z</time>
      </trkpt>
      <trkpt lat="42.88031" lon="0.13072">
        <ele>1988.8</ele>
        <time>2021-03-25T12:04:43Z</time>
      </trkpt>
      <trkpt lat="42.88031" lon="0.13072">
        <ele>1988.9</ele>
        <time>2021-03-25T12:04:44Z</time>
      </trkpt>
      <trkpt lat="42.88031" lon="0.13073">
        <ele>1988.9</ele>
        <time>2021-03-25T12:04:45Z</time>
      </trkpt>
      <trkpt lat="42.88031" lon="0.13073">
        <ele>1988.9</ele>
        <time>2021-03-25T12:04:47Z</time>
      </trkpt>
      <trkpt lat="42.88031" lon="0.13074">
        <ele>1988.9</ele>
        <time>2021-03-25T12:04:48Z</time>
      </trkpt>
      <trkpt lat="42.88031" lon="0.13076">
        <ele>1988.9</ele>
        <time>2021-03-25T12:04:50Z</time>
      </trkpt>
      <trkpt lat="42.88032" lon="0.13077">
        <ele>1988.9</ele>
        <time>2021-03-25T12:04:52Z</time>
      </trkpt>
      <trkpt lat="42.88032" lon="0.13078">
        <ele>1988.9</ele>
        <time>2021-03-25T12:04:54Z</time>
      </trkpt>
      <trkpt lat="42.88033" lon="0.13078">
        <ele>1988.9</ele>
        <time>2021-03-25T12:04:55Z</time>
      </trkpt>
      <trkpt lat="42.88033" lon="0.13079">
        <ele>1988.9</ele>
        <time>2021-03-25T12:04:56Z</time>
      </trkpt>
      <trkpt lat="42.88035" lon="0.13083">
        <ele>1986.4</ele>
        <time>2021-03-25T12:04:58Z</time>
      </trkpt>
      <trkpt lat="42.88037" lon="0.13087">
        <ele>1984</ele>
        <time>2021-03-25T12:05:00Z</time>
      </trkpt>
      <trkpt lat="42.88039" lon="0.13088">
        <ele>1984</ele>
        <time>2021-03-25T12:05:02Z</time>
      </trkpt>
      <trkpt lat="42.8804" lon="0.1309">
        <ele>1984.1</ele>
        <time>2021-03-25T12:05:03Z</time>
      </trkpt>
      <trkpt lat="42.8804" lon="0.13092">
        <ele>1981.7</ele>
        <time>2021-03-25T12:05:04Z</time>
      </trkpt>
      <trkpt lat="42.8804" lon="0.13093">
        <ele>1981.7</ele>
        <time>2021-03-25T12:05:06Z</time>
      </trkpt>
      <trkpt lat="42.88041" lon="0.13093">
        <ele>1981.7</ele>
        <time>2021-03-25T12:05:07Z</time>
      </trkpt>
      <trkpt lat="42.88041" lon="0.13094">
        <ele>1981.8</ele>
        <time>2021-03-25T12:05:08Z</time>
      </trkpt>
      <trkpt lat="42.88041" lon="0.13094">
        <ele>1981.8</ele>
        <time>2021-03-25T12:05:10Z</time>
      </trkpt>
      <trkpt lat="42.88041" lon="0.13094">
        <ele>1981.8</ele>
        <time>2021-03-25T12:05:11Z</time>
      </trkpt>
      <trkpt lat="42.88041" lon="0.13095">
        <ele>1981.8</ele>
        <time>2021-03-25T12:05:12Z</time>
      </trkpt>
      <trkpt lat="42.88042" lon="0.13096">
        <ele>1981.8</ele>
        <time>2021-03-25T12:05:14Z</time>
      </trkpt>
      <trkpt lat="42.88042" lon="0.13096">
        <ele>1981.8</ele>
        <time>2021-03-25T12:05:15Z</time>
      </trkpt>
      <trkpt lat="42.88041" lon="0.13097">
        <ele>1981.8</ele>
        <time>2021-03-25T12:05:16Z</time>
      </trkpt>
      <trkpt lat="42.88041" lon="0.13098">
        <ele>1981.9</ele>
        <time>2021-03-25T12:05:18Z</time>
      </trkpt>
      <trkpt lat="42.88041" lon="0.13099">
        <ele>1981.9</ele>
        <time>2021-03-25T12:05:19Z</time>
      </trkpt>
      <trkpt lat="42.88041" lon="0.13099">
        <ele>1981.9</ele>
        <time>2021-03-25T12:05:21Z</time>
      </trkpt>
      <trkpt lat="42.88041" lon="0.13101">
        <ele>1981.9</ele>
        <time>2021-03-25T12:05:22Z</time>
      </trkpt>
      <trkpt lat="42.88041" lon="0.13101">
        <ele>1981.9</ele>
        <time>2021-03-25T12:05:23Z</time>
      </trkpt>
      <trkpt lat="42.8804" lon="0.13103">
        <ele>1982</ele>
        <time>2021-03-25T12:05:25Z</time>
      </trkpt>
      <trkpt lat="42.8804" lon="0.13104">
        <ele>1982</ele>
        <time>2021-03-25T12:05:26Z</time>
      </trkpt>
      <trkpt lat="42.8804" lon="0.13105">
        <ele>1982</ele>
        <time>2021-03-25T12:05:27Z</time>
      </trkpt>
      <trkpt lat="42.8804" lon="0.13107">
        <ele>1984.4</ele>
        <time>2021-03-25T12:05:28Z</time>
      </trkpt>
      <trkpt lat="42.88039" lon="0.13108">
        <ele>1984.4</ele>
        <time>2021-03-25T12:05:29Z</time>
      </trkpt>
      <trkpt lat="42.88039" lon="0.13109">
        <ele>1984.4</ele>
        <time>2021-03-25T12:05:31Z</time>
      </trkpt>
      <trkpt lat="42.88039" lon="0.13111">
        <ele>1984.5</ele>
        <time>2021-03-25T12:05:32Z</time>
      </trkpt>
      <trkpt lat="42.88039" lon="0.13112">
        <ele>1984.5</ele>
        <time>2021-03-25T12:05:34Z</time>
      </trkpt>
      <trkpt lat="42.88038" lon="0.13114">
        <ele>1984.5</ele>
        <time>2021-03-25T12:05:35Z</time>
      </trkpt>
      <trkpt lat="42.88038" lon="0.13115">
        <ele>1984.7</ele>
        <time>2021-03-25T12:05:37Z</time>
      </trkpt>
      <trkpt lat="42.88038" lon="0.13117">
        <ele>1984.7</ele>
        <time>2021-03-25T12:05:39Z</time>
      </trkpt>
      <trkpt lat="42.88037" lon="0.13118">
        <ele>1984.7</ele>
        <time>2021-03-25T12:05:40Z</time>
      </trkpt>
      <trkpt lat="42.88037" lon="0.1312">
        <ele>1984.8</ele>
        <time>2021-03-25T12:05:41Z</time>
      </trkpt>
      <trkpt lat="42.88037" lon="0.13121">
        <ele>1987.3</ele>
        <time>2021-03-25T12:05:42Z</time>
      </trkpt>
      <trkpt lat="42.88036" lon="0.13121">
        <ele>1987.3</ele>
        <time>2021-03-25T12:05:44Z</time>
      </trkpt>
      <trkpt lat="42.88036" lon="0.13122">
        <ele>1987.3</ele>
        <time>2021-03-25T12:05:45Z</time>
      </trkpt>
      <trkpt lat="42.88036" lon="0.13123">
        <ele>1987.3</ele>
        <time>2021-03-25T12:05:47Z</time>
      </trkpt>
      <trkpt lat="42.88036" lon="0.13123">
        <ele>1987.3</ele>
        <time>2021-03-25T12:05:48Z</time>
      </trkpt>
      <trkpt lat="42.88037" lon="0.13123">
        <ele>1987.3</ele>
        <time>2021-03-25T12:05:49Z</time>
      </trkpt>
      <trkpt lat="42.88037" lon="0.13124">
        <ele>1985</ele>
        <time>2021-03-25T12:05:51Z</time>
      </trkpt>
      <trkpt lat="42.88037" lon="0.13124">
        <ele>1985</ele>
        <time>2021-03-25T12:05:52Z</time>
      </trkpt>
      <trkpt lat="42.88038" lon="0.13125">
        <ele>1985</ele>
        <time>2021-03-25T12:05:54Z</time>
      </trkpt>
      <trkpt lat="42.88038" lon="0.13125">
        <ele>1985</ele>
        <time>2021-03-25T12:05:56Z</time>
      </trkpt>
      <trkpt lat="42.88038" lon="0.13126">
        <ele>1985</ele>
        <time>2021-03-25T12:05:57Z</time>
      </trkpt>
      <trkpt lat="42.88039" lon="0.13126">
        <ele>1985</ele>
        <time>2021-03-25T12:05:59Z</time>
      </trkpt>
      <trkpt lat="42.88039" lon="0.13126">
        <ele>1985</ele>
        <time>2021-03-25T12:06:00Z</time>
      </trkpt>
      <trkpt lat="42.88039" lon="0.13127">
        <ele>1985</ele>
        <time>2021-03-25T12:06:01Z</time>
      </trkpt>
      <trkpt lat="42.88039" lon="0.13127">
        <ele>1985</ele>
        <time>2021-03-25T12:06:02Z</time>
      </trkpt>
      <trkpt lat="42.8804" lon="0.13127">
        <ele>1985</ele>
        <time>2021-03-25T12:06:04Z</time>
      </trkpt>
      <trkpt lat="42.8804" lon="0.13127">
        <ele>1985</ele>
        <time>2021-03-25T12:06:05Z</time>
      </trkpt>
      <trkpt lat="42.8804" lon="0.13127">
        <ele>1985</ele>
        <time>2021-03-25T12:06:06Z</time>
      </trkpt>
      <trkpt lat="42.8804" lon="0.13127">
        <ele>1985</ele>
        <time>2021-03-25T12:06:07Z</time>
      </trkpt>
      <trkpt lat="42.8804" lon="0.13127">
        <ele>1982.6</ele>
        <time>2021-03-25T12:06:09Z</time>
      </trkpt>
      <trkpt lat="42.8804" lon="0.13128">
        <ele>1982.6</ele>
        <time>2021-03-25T12:06:10Z</time>
      </trkpt>
      <trkpt lat="42.8804" lon="0.13128">
        <ele>1982.6</ele>
        <time>2021-03-25T12:06:11Z</time>
      </trkpt>
      <trkpt lat="42.8804" lon="0.13128">
        <ele>1982.6</ele>
        <time>2021-03-25T12:06:12Z</time>
      </trkpt>
      <trkpt lat="42.8804" lon="0.13128">
        <ele>1982.6</ele>
        <time>2021-03-25T12:06:13Z</time>
      </trkpt>
      <trkpt lat="42.8804" lon="0.13128">
        <ele>1982.6</ele>
        <time>2021-03-25T12:06:14Z</time>
      </trkpt>
      <trkpt lat="42.88041" lon="0.13128">
        <ele>1982.8</ele>
        <time>2021-03-25T12:06:15Z</time>
      </trkpt>
      <trkpt lat="42.88042" lon="0.13131">
        <ele>1982.8</ele>
        <time>2021-03-25T12:06:17Z</time>
      </trkpt>
      <trkpt lat="42.8804" lon="0.13132">
        <ele>1982.8</ele>
        <time>2021-03-25T12:06:18Z</time>
      </trkpt>
      <trkpt lat="42.88037" lon="0.13134">
        <ele>1987.7</ele>
        <time>2021-03-25T12:06:20Z</time>
      </trkpt>
      <trkpt lat="42.88034" lon="0.13136">
        <ele>1987.7</ele>
        <time>2021-03-25T12:06:21Z</time>
      </trkpt>
      <trkpt lat="42.88033" lon="0.13136">
        <ele>1990.3</ele>
        <time>2021-03-25T12:06:22Z</time>
      </trkpt>
      <trkpt lat="42.88032" lon="0.13137">
        <ele>1990.3</ele>
        <time>2021-03-25T12:06:23Z</time>
      </trkpt>
      <trkpt lat="42.88031" lon="0.13138">
        <ele>1990.3</ele>
        <time>2021-03-25T12:06:25Z</time>
      </trkpt>
      <trkpt lat="42.88031" lon="0.13139">
        <ele>1990.3</ele>
        <time>2021-03-25T12:06:26Z</time>
      </trkpt>
      <trkpt lat="42.88031" lon="0.13141">
        <ele>1990.4</ele>
        <time>2021-03-25T12:06:28Z</time>
      </trkpt>
      <trkpt lat="42.8803" lon="0.13142">
        <ele>1993.2</ele>
        <time>2021-03-25T12:06:29Z</time>
      </trkpt>
      <trkpt lat="42.8803" lon="0.13143">
        <ele>1993.2</ele>
        <time>2021-03-25T12:06:30Z</time>
      </trkpt>
      <trkpt lat="42.8803" lon="0.13145">
        <ele>1993.2</ele>
        <time>2021-03-25T12:06:32Z</time>
      </trkpt>
      <trkpt lat="42.8803" lon="0.13146">
        <ele>1993.2</ele>
        <time>2021-03-25T12:06:34Z</time>
      </trkpt>
      <trkpt lat="42.8803" lon="0.13147">
        <ele>1993.2</ele>
        <time>2021-03-25T12:06:35Z</time>
      </trkpt>
      <trkpt lat="42.8803" lon="0.13148">
        <ele>1993.2</ele>
        <time>2021-03-25T12:06:36Z</time>
      </trkpt>
      <trkpt lat="42.88029" lon="0.1315">
        <ele>1993.3</ele>
        <time>2021-03-25T12:06:38Z</time>
      </trkpt>
      <trkpt lat="42.88029" lon="0.13151">
        <ele>1993.3</ele>
        <time>2021-03-25T12:06:39Z</time>
      </trkpt>
      <trkpt lat="42.88029" lon="0.13152">
        <ele>1993.3</ele>
        <time>2021-03-25T12:06:41Z</time>
      </trkpt>
      <trkpt lat="42.88029" lon="0.13154">
        <ele>1993.3</ele>
        <time>2021-03-25T12:06:42Z</time>
      </trkpt>
      <trkpt lat="42.88029" lon="0.13156">
        <ele>1993.3</ele>
        <time>2021-03-25T12:06:44Z</time>
      </trkpt>
      <trkpt lat="42.88029" lon="0.13157">
        <ele>1993.3</ele>
        <time>2021-03-25T12:06:45Z</time>
      </trkpt>
      <trkpt lat="42.88029" lon="0.13158">
        <ele>1993.2</ele>
        <time>2021-03-25T12:06:47Z</time>
      </trkpt>
      <trkpt lat="42.88029" lon="0.1316">
        <ele>1993.2</ele>
        <time>2021-03-25T12:06:49Z</time>
      </trkpt>
      <trkpt lat="42.88029" lon="0.13161">
        <ele>1993.2</ele>
        <time>2021-03-25T12:06:51Z</time>
      </trkpt>
      <trkpt lat="42.88029" lon="0.13162">
        <ele>1993.2</ele>
        <time>2021-03-25T12:06:52Z</time>
      </trkpt>
      <trkpt lat="42.88029" lon="0.13162">
        <ele>1993.2</ele>
        <time>2021-03-25T12:06:54Z</time>
      </trkpt>
      <trkpt lat="42.88029" lon="0.13163">
        <ele>1993.2</ele>
        <time>2021-03-25T12:06:55Z</time>
      </trkpt>
      <trkpt lat="42.8803" lon="0.13163">
        <ele>1993.2</ele>
        <time>2021-03-25T12:06:56Z</time>
      </trkpt>
      <trkpt lat="42.8803" lon="0.13164">
        <ele>1993.2</ele>
        <time>2021-03-25T12:06:58Z</time>
      </trkpt>
      <trkpt lat="42.8803" lon="0.13164">
        <ele>1993.2</ele>
        <time>2021-03-25T12:06:59Z</time>
      </trkpt>
      <trkpt lat="42.8803" lon="0.13167">
        <ele>1993.2</ele>
        <time>2021-03-25T12:07:00Z</time>
      </trkpt>
      <trkpt lat="42.8803" lon="0.13167">
        <ele>1993.2</ele>
        <time>2021-03-25T12:07:02Z</time>
      </trkpt>
      <trkpt lat="42.8803" lon="0.13168">
        <ele>1993.2</ele>
        <time>2021-03-25T12:07:03Z</time>
      </trkpt>
      <trkpt lat="42.8803" lon="0.13169">
        <ele>1993.2</ele>
        <time>2021-03-25T12:07:05Z</time>
      </trkpt>
      <trkpt lat="42.8803" lon="0.1317">
        <ele>1993.2</ele>
        <time>2021-03-25T12:07:07Z</time>
      </trkpt>
      <trkpt lat="42.8803" lon="0.13171">
        <ele>1990.5</ele>
        <time>2021-03-25T12:07:08Z</time>
      </trkpt>
      <trkpt lat="42.88031" lon="0.13173">
        <ele>1990.5</ele>
        <time>2021-03-25T12:07:09Z</time>
      </trkpt>
      <trkpt lat="42.88032" lon="0.13176">
        <ele>1990.5</ele>
        <time>2021-03-25T12:07:11Z</time>
      </trkpt>
      <trkpt lat="42.88032" lon="0.13179">
        <ele>1990.5</ele>
        <time>2021-03-25T12:07:13Z</time>
      </trkpt>
      <trkpt lat="42.88032" lon="0.1318">
        <ele>1990.4</ele>
        <time>2021-03-25T12:07:14Z</time>
      </trkpt>
      <trkpt lat="42.88032" lon="0.1318">
        <ele>1990.4</ele>
        <time>2021-03-25T12:07:15Z</time>
      </trkpt>
      <trkpt lat="42.88032" lon="0.1318">
        <ele>1990.4</ele>
        <time>2021-03-25T12:07:16Z</time>
      </trkpt>
      <trkpt lat="42.88032" lon="0.13181">
        <ele>1990.4</ele>
        <time>2021-03-25T12:07:17Z</time>
      </trkpt>
      <trkpt lat="42.88032" lon="0.13182">
        <ele>1990.4</ele>
        <time>2021-03-25T12:07:19Z</time>
      </trkpt>
      <trkpt lat="42.88032" lon="0.13182">
        <ele>1990.4</ele>
        <time>2021-03-25T12:07:21Z</time>
      </trkpt>
      <trkpt lat="42.88033" lon="0.13182">
        <ele>1990.4</ele>
        <time>2021-03-25T12:07:23Z</time>
      </trkpt>
      <trkpt lat="42.88033" lon="0.13182">
        <ele>1990.4</ele>
        <time>2021-03-25T12:07:25Z</time>
      </trkpt>
      <trkpt lat="42.88033" lon="0.13182">
        <ele>1990.4</ele>
        <time>2021-03-25T12:07:27Z</time>
      </trkpt>
      <trkpt lat="42.88033" lon="0.13182">
        <ele>1990.4</ele>
        <time>2021-03-25T12:07:29Z</time>
      </trkpt>
      <trkpt lat="42.88034" lon="0.13182">
        <ele>1990.4</ele>
        <time>2021-03-25T12:07:30Z</time>
      </trkpt>
      <trkpt lat="42.88034" lon="0.13182">
        <ele>1988</ele>
        <time>2021-03-25T12:07:32Z</time>
      </trkpt>
      <trkpt lat="42.88034" lon="0.13182">
        <ele>1988</ele>
        <time>2021-03-25T12:07:33Z</time>
      </trkpt>
      <trkpt lat="42.88035" lon="0.13181">
        <ele>1988</ele>
        <time>2021-03-25T12:07:35Z</time>
      </trkpt>
      <trkpt lat="42.88038" lon="0.13178">
        <ele>1985.7</ele>
        <time>2021-03-25T12:07:37Z</time>
      </trkpt>
      <trkpt lat="42.88039" lon="0.13178">
        <ele>1985.7</ele>
        <time>2021-03-25T12:07:38Z</time>
      </trkpt>
      <trkpt lat="42.88039" lon="0.13177">
        <ele>1985.7</ele>
        <time>2021-03-25T12:07:40Z</time>
      </trkpt>
      <trkpt lat="42.88038" lon="0.13177">
        <ele>1985.7</ele>
        <time>2021-03-25T12:07:41Z</time>
      </trkpt>
      <trkpt lat="42.88038" lon="0.13178">
        <ele>1985.7</ele>
        <time>2021-03-25T12:07:43Z</time>
      </trkpt>
      <trkpt lat="42.88038" lon="0.13178">
        <ele>1985.7</ele>
        <time>2021-03-25T12:07:44Z</time>
      </trkpt>
      <trkpt lat="42.88036" lon="0.1318">
        <ele>1988</ele>
        <time>2021-03-25T12:07:45Z</time>
      </trkpt>
      <trkpt lat="42.88036" lon="0.13181">
        <ele>1988</ele>
        <time>2021-03-25T12:07:47Z</time>
      </trkpt>
      <trkpt lat="42.88036" lon="0.13181">
        <ele>1988</ele>
        <time>2021-03-25T12:07:49Z</time>
      </trkpt>
      <trkpt lat="42.88036" lon="0.13181">
        <ele>1988</ele>
        <time>2021-03-25T12:07:51Z</time>
      </trkpt>
      <trkpt lat="42.88036" lon="0.13181">
        <ele>1988</ele>
        <time>2021-03-25T12:07:52Z</time>
      </trkpt>
      <trkpt lat="42.88037" lon="0.13181">
        <ele>1988</ele>
        <time>2021-03-25T12:07:53Z</time>
      </trkpt>
      <trkpt lat="42.88037" lon="0.13181">
        <ele>1985.7</ele>
        <time>2021-03-25T12:07:55Z</time>
      </trkpt>
      <trkpt lat="42.88037" lon="0.13183">
        <ele>1988</ele>
        <time>2021-03-25T12:07:56Z</time>
      </trkpt>
      <trkpt lat="42.88034" lon="0.13186">
        <ele>1988</ele>
        <time>2021-03-25T12:07:58Z</time>
      </trkpt>
      <trkpt lat="42.88033" lon="0.13187">
        <ele>1990.4</ele>
        <time>2021-03-25T12:07:59Z</time>
      </trkpt>
      <trkpt lat="42.88033" lon="0.13188">
        <ele>1990.4</ele>
        <time>2021-03-25T12:08:00Z</time>
      </trkpt>
      <trkpt lat="42.88033" lon="0.13188">
        <ele>1990.4</ele>
        <time>2021-03-25T12:08:01Z</time>
      </trkpt>
      <trkpt lat="42.88033" lon="0.13189">
        <ele>1990.4</ele>
        <time>2021-03-25T12:08:03Z</time>
      </trkpt>
      <trkpt lat="42.88033" lon="0.1319">
        <ele>1990.4</ele>
        <time>2021-03-25T12:08:05Z</time>
      </trkpt>
      <trkpt lat="42.88032" lon="0.13191">
        <ele>1990.4</ele>
        <time>2021-03-25T12:08:06Z</time>
      </trkpt>
      <trkpt lat="42.88033" lon="0.13191">
        <ele>1990.4</ele>
        <time>2021-03-25T12:08:07Z</time>
      </trkpt>
      <trkpt lat="42.88033" lon="0.13192">
        <ele>1990.4</ele>
        <time>2021-03-25T12:08:08Z</time>
      </trkpt>
      <trkpt lat="42.88033" lon="0.13192">
        <ele>1990.4</ele>
        <time>2021-03-25T12:08:10Z</time>
      </trkpt>
      <trkpt lat="42.88033" lon="0.13193">
        <ele>1990.4</ele>
        <time>2021-03-25T12:08:12Z</time>
      </trkpt>
      <trkpt lat="42.88033" lon="0.13193">
        <ele>1990.4</ele>
        <time>2021-03-25T12:08:14Z</time>
      </trkpt>
      <trkpt lat="42.88033" lon="0.13194">
        <ele>1990.4</ele>
        <time>2021-03-25T12:08:16Z</time>
      </trkpt>
      <trkpt lat="42.88032" lon="0.13194">
        <ele>1990.4</ele>
        <time>2021-03-25T12:08:18Z</time>
      </trkpt>
      <trkpt lat="42.88032" lon="0.13195">
        <ele>1990.4</ele>
        <time>2021-03-25T12:08:20Z</time>
      </trkpt>
      <trkpt lat="42.88032" lon="0.13195">
        <ele>1990.4</ele>
        <time>2021-03-25T12:08:22Z</time>
      </trkpt>
      <trkpt lat="42.88032" lon="0.13195">
        <ele>1990.4</ele>
        <time>2021-03-25T12:08:23Z</time>
      </trkpt>
      <trkpt lat="42.88032" lon="0.13196">
        <ele>1990.4</ele>
        <time>2021-03-25T12:08:25Z</time>
      </trkpt>
      <trkpt lat="42.88032" lon="0.13197">
        <ele>1990.4</ele>
        <time>2021-03-25T12:08:27Z</time>
      </trkpt>
      <trkpt lat="42.88032" lon="0.13197">
        <ele>1990.4</ele>
        <time>2021-03-25T12:08:28Z</time>
      </trkpt>
      <trkpt lat="42.88032" lon="0.13198">
        <ele>1990.4</ele>
        <time>2021-03-25T12:08:29Z</time>
      </trkpt>
      <trkpt lat="42.88032" lon="0.13198">
        <ele>1990.4</ele>
        <time>2021-03-25T12:08:31Z</time>
      </trkpt>
      <trkpt lat="42.88032" lon="0.13198">
        <ele>1990.4</ele>
        <time>2021-03-25T12:08:32Z</time>
      </trkpt>
      <trkpt lat="42.88032" lon="0.13198">
        <ele>1990.4</ele>
        <time>2021-03-25T12:08:33Z</time>
      </trkpt>
      <trkpt lat="42.88032" lon="0.13198">
        <ele>1990.4</ele>
        <time>2021-03-25T12:08:34Z</time>
      </trkpt>
      <trkpt lat="42.88032" lon="0.13198">
        <ele>1990.4</ele>
        <time>2021-03-25T12:08:35Z</time>
      </trkpt>
      <trkpt lat="42.88032" lon="0.13198">
        <ele>1990.4</ele>
        <time>2021-03-25T12:08:37Z</time>
      </trkpt>
      <trkpt lat="42.88032" lon="0.13198">
        <ele>1990.4</ele>
        <time>2021-03-25T12:08:39Z</time>
      </trkpt>
      <trkpt lat="42.88032" lon="0.13198">
        <ele>1990.4</ele>
        <time>2021-03-25T12:08:40Z</time>
      </trkpt>
      <trkpt lat="42.88032" lon="0.13198">
        <ele>1990.4</ele>
        <time>2021-03-25T12:08:42Z</time>
      </trkpt>
      <trkpt lat="42.88032" lon="0.13199">
        <ele>1990.4</ele>
        <time>2021-03-25T12:08:43Z</time>
      </trkpt>
      <trkpt lat="42.88032" lon="0.13199">
        <ele>1990.4</ele>
        <time>2021-03-25T12:08:44Z</time>
      </trkpt>
      <trkpt lat="42.88032" lon="0.13199">
        <ele>1990.4</ele>
        <time>2021-03-25T12:08:46Z</time>
      </trkpt>
      <trkpt lat="42.88032" lon="0.13199">
        <ele>1990.4</ele>
        <time>2021-03-25T12:08:47Z</time>
      </trkpt>
      <trkpt lat="42.88032" lon="0.13199">
        <ele>1990.4</ele>
        <time>2021-03-25T12:08:48Z</time>
      </trkpt>
      <trkpt lat="42.88032" lon="0.13199">
        <ele>1990.4</ele>
        <time>2021-03-25T12:08:50Z</time>
      </trkpt>
      <trkpt lat="42.88032" lon="0.13199">
        <ele>1990.4</ele>
        <time>2021-03-25T12:08:51Z</time>
      </trkpt>
      <trkpt lat="42.88032" lon="0.132">
        <ele>1990.4</ele>
        <time>2021-03-25T12:08:53Z</time>
      </trkpt>
      <trkpt lat="42.88033" lon="0.132">
        <ele>1990.4</ele>
        <time>2021-03-25T12:08:54Z</time>
      </trkpt>
      <trkpt lat="42.88033" lon="0.13201">
        <ele>1990.4</ele>
        <time>2021-03-25T12:08:56Z</time>
      </trkpt>
      <trkpt lat="42.88033" lon="0.13203">
        <ele>1990.4</ele>
        <time>2021-03-25T12:08:57Z</time>
      </trkpt>
      <trkpt lat="42.88033" lon="0.13203">
        <ele>1990.4</ele>
        <time>2021-03-25T12:08:59Z</time>
      </trkpt>
      <trkpt lat="42.88033" lon="0.13203">
        <ele>1990.4</ele>
        <time>2021-03-25T12:09:00Z</time>
      </trkpt>
      <trkpt lat="42.88032" lon="0.13204">
        <ele>1990.4</ele>
        <time>2021-03-25T12:09:01Z</time>
      </trkpt>
      <trkpt lat="42.88032" lon="0.13205">
        <ele>1990.4</ele>
        <time>2021-03-25T12:09:03Z</time>
      </trkpt>
      <trkpt lat="42.88033" lon="0.13206">
        <ele>1990.4</ele>
        <time>2021-03-25T12:09:04Z</time>
      </trkpt>
      <trkpt lat="42.88033" lon="0.13206">
        <ele>1990.4</ele>
        <time>2021-03-25T12:09:05Z</time>
      </trkpt>
      <trkpt lat="42.88033" lon="0.13208">
        <ele>1990.4</ele>
        <time>2021-03-25T12:09:07Z</time>
      </trkpt>
      <trkpt lat="42.88033" lon="0.13208">
        <ele>1990.4</ele>
        <time>2021-03-25T12:09:08Z</time>
      </trkpt>
      <trkpt lat="42.88033" lon="0.1321">
        <ele>1990.4</ele>
        <time>2021-03-25T12:09:09Z</time>
      </trkpt>
      <trkpt lat="42.88034" lon="0.13211">
        <ele>1988</ele>
        <time>2021-03-25T12:09:11Z</time>
      </trkpt>
      <trkpt lat="42.88034" lon="0.13212">
        <ele>1988</ele>
        <time>2021-03-25T12:09:12Z</time>
      </trkpt>
      <trkpt lat="42.88034" lon="0.13212">
        <ele>1988</ele>
        <time>2021-03-25T12:09:13Z</time>
      </trkpt>
      <trkpt lat="42.88034" lon="0.13213">
        <ele>1988</ele>
        <time>2021-03-25T12:09:14Z</time>
      </trkpt>
      <trkpt lat="42.88034" lon="0.13213">
        <ele>1988</ele>
        <time>2021-03-25T12:09:15Z</time>
      </trkpt>
      <trkpt lat="42.88034" lon="0.13214">
        <ele>1988.1</ele>
        <time>2021-03-25T12:09:16Z</time>
      </trkpt>
      <trkpt lat="42.88034" lon="0.13216">
        <ele>1988.1</ele>
        <time>2021-03-25T12:09:17Z</time>
      </trkpt>
      <trkpt lat="42.88034" lon="0.13219">
        <ele>1988.1</ele>
        <time>2021-03-25T12:09:18Z</time>
      </trkpt>
      <trkpt lat="42.88034" lon="0.1322">
        <ele>1990.4</ele>
        <time>2021-03-25T12:09:19Z</time>
      </trkpt>
      <trkpt lat="42.88033" lon="0.13221">
        <ele>1990.4</ele>
        <time>2021-03-25T12:09:21Z</time>
      </trkpt>
      <trkpt lat="42.88033" lon="0.13222">
        <ele>1990.4</ele>
        <time>2021-03-25T12:09:22Z</time>
      </trkpt>
      <trkpt lat="42.88032" lon="0.13223">
        <ele>1990.4</ele>
        <time>2021-03-25T12:09:23Z</time>
      </trkpt>
      <trkpt lat="42.88032" lon="0.13225">
        <ele>1990.4</ele>
        <time>2021-03-25T12:09:25Z</time>
      </trkpt>
      <trkpt lat="42.88032" lon="0.13226">
        <ele>1990.4</ele>
        <time>2021-03-25T12:09:26Z</time>
      </trkpt>
      <trkpt lat="42.88031" lon="0.13228">
        <ele>1990.3</ele>
        <time>2021-03-25T12:09:27Z</time>
      </trkpt>
      <trkpt lat="42.88029" lon="0.13233">
        <ele>1992.7</ele>
        <time>2021-03-25T12:09:29Z</time>
      </trkpt>
      <trkpt lat="42.88029" lon="0.13236">
        <ele>1992.6</ele>
        <time>2021-03-25T12:09:31Z</time>
      </trkpt>
      <trkpt lat="42.88029" lon="0.13238">
        <ele>1992.6</ele>
        <time>2021-03-25T12:09:32Z</time>
      </trkpt>
      <trkpt lat="42.88028" lon="0.1324">
        <ele>1992.5</ele>
        <time>2021-03-25T12:09:33Z</time>
      </trkpt>
      <trkpt lat="42.88029" lon="0.1324">
        <ele>1992.5</ele>
        <time>2021-03-25T12:09:35Z</time>
      </trkpt>
      <trkpt lat="42.88029" lon="0.13241">
        <ele>1992.5</ele>
        <time>2021-03-25T12:09:36Z</time>
      </trkpt>
      <trkpt lat="42.88029" lon="0.13242">
        <ele>1992.5</ele>
        <time>2021-03-25T12:09:37Z</time>
      </trkpt>
      <trkpt lat="42.88029" lon="0.13242">
        <ele>1992.5</ele>
        <time>2021-03-25T12:09:39Z</time>
      </trkpt>
      <trkpt lat="42.88029" lon="0.13242">
        <ele>1992.5</ele>
        <time>2021-03-25T12:09:41Z</time>
      </trkpt>
      <trkpt lat="42.88029" lon="0.13242">
        <ele>1992.5</ele>
        <time>2021-03-25T12:09:43Z</time>
      </trkpt>
      <trkpt lat="42.88029" lon="0.13242">
        <ele>1992.5</ele>
        <time>2021-03-25T12:09:44Z</time>
      </trkpt>
      <trkpt lat="42.88029" lon="0.13243">
        <ele>1992.5</ele>
        <time>2021-03-25T12:09:45Z</time>
      </trkpt>
      <trkpt lat="42.8803" lon="0.13243">
        <ele>1992.5</ele>
        <time>2021-03-25T12:09:47Z</time>
      </trkpt>
      <trkpt lat="42.8803" lon="0.13243">
        <ele>1992.5</ele>
        <time>2021-03-25T12:09:48Z</time>
      </trkpt>
      <trkpt lat="42.8803" lon="0.13243">
        <ele>1992.5</ele>
        <time>2021-03-25T12:09:50Z</time>
      </trkpt>
      <trkpt lat="42.8803" lon="0.13243">
        <ele>1992.5</ele>
        <time>2021-03-25T12:09:51Z</time>
      </trkpt>
      <trkpt lat="42.8803" lon="0.13243">
        <ele>1992.5</ele>
        <time>2021-03-25T12:09:52Z</time>
      </trkpt>
      <trkpt lat="42.8803" lon="0.13243">
        <ele>1992.5</ele>
        <time>2021-03-25T12:09:53Z</time>
      </trkpt>
      <trkpt lat="42.8803" lon="0.13244">
        <ele>1992.5</ele>
        <time>2021-03-25T12:09:54Z</time>
      </trkpt>
      <trkpt lat="42.8803" lon="0.13244">
        <ele>1992.3</ele>
        <time>2021-03-25T12:09:55Z</time>
      </trkpt>
      <trkpt lat="42.8803" lon="0.13244">
        <ele>1992.3</ele>
        <time>2021-03-25T12:09:57Z</time>
      </trkpt>
      <trkpt lat="42.8803" lon="0.13244">
        <ele>1992.3</ele>
        <time>2021-03-25T12:09:58Z</time>
      </trkpt>
      <trkpt lat="42.8803" lon="0.13244">
        <ele>1989.9</ele>
        <time>2021-03-25T12:10:00Z</time>
      </trkpt>
      <trkpt lat="42.8803" lon="0.13244">
        <ele>1989.9</ele>
        <time>2021-03-25T12:10:01Z</time>
      </trkpt>
      <trkpt lat="42.88031" lon="0.13244">
        <ele>1989.9</ele>
        <time>2021-03-25T12:10:03Z</time>
      </trkpt>
      <trkpt lat="42.88031" lon="0.13244">
        <ele>1989.9</ele>
        <time>2021-03-25T12:10:04Z</time>
      </trkpt>
      <trkpt lat="42.88031" lon="0.13244">
        <ele>1989.9</ele>
        <time>2021-03-25T12:10:05Z</time>
      </trkpt>
      <trkpt lat="42.88031" lon="0.13244">
        <ele>1989.9</ele>
        <time>2021-03-25T12:10:06Z</time>
      </trkpt>
      <trkpt lat="42.88031" lon="0.13245">
        <ele>1989.9</ele>
        <time>2021-03-25T12:10:08Z</time>
      </trkpt>
      <trkpt lat="42.88031" lon="0.13245">
        <ele>1989.9</ele>
        <time>2021-03-25T12:10:10Z</time>
      </trkpt>
      <trkpt lat="42.88031" lon="0.13245">
        <ele>1989.9</ele>
        <time>2021-03-25T12:10:11Z</time>
      </trkpt>
      <trkpt lat="42.88031" lon="0.13245">
        <ele>1989.9</ele>
        <time>2021-03-25T12:10:12Z</time>
      </trkpt>
      <trkpt lat="42.88031" lon="0.13245">
        <ele>1989.9</ele>
        <time>2021-03-25T12:10:13Z</time>
      </trkpt>
      <trkpt lat="42.8803" lon="0.13244">
        <ele>1992.5</ele>
        <time>2021-03-25T12:10:14Z</time>
      </trkpt>
      <trkpt lat="42.88029" lon="0.13242">
        <ele>1992.5</ele>
        <time>2021-03-25T12:10:15Z</time>
      </trkpt>
      <trkpt lat="42.88028" lon="0.13238">
        <ele>1992.6</ele>
        <time>2021-03-25T12:10:17Z</time>
      </trkpt>
      <trkpt lat="42.88028" lon="0.13238">
        <ele>1992.6</ele>
        <time>2021-03-25T12:10:19Z</time>
      </trkpt>
      <trkpt lat="42.88028" lon="0.13238">
        <ele>1992.6</ele>
        <time>2021-03-25T12:10:21Z</time>
      </trkpt>
      <trkpt lat="42.88028" lon="0.13238">
        <ele>1992.6</ele>
        <time>2021-03-25T12:10:22Z</time>
      </trkpt>
      <trkpt lat="42.88028" lon="0.13238">
        <ele>1992.6</ele>
        <time>2021-03-25T12:10:23Z</time>
      </trkpt>
      <trkpt lat="42.88028" lon="0.13239">
        <ele>1992.6</ele>
        <time>2021-03-25T12:10:25Z</time>
      </trkpt>
      <trkpt lat="42.88028" lon="0.13239">
        <ele>1992.6</ele>
        <time>2021-03-25T12:10:27Z</time>
      </trkpt>
      <trkpt lat="42.88028" lon="0.13239">
        <ele>1992.6</ele>
        <time>2021-03-25T12:10:28Z</time>
      </trkpt>
      <trkpt lat="42.88028" lon="0.13238">
        <ele>1992.6</ele>
        <time>2021-03-25T12:10:30Z</time>
      </trkpt>
      <trkpt lat="42.88028" lon="0.13239">
        <ele>1992.6</ele>
        <time>2021-03-25T12:10:32Z</time>
      </trkpt>
      <trkpt lat="42.88028" lon="0.13239">
        <ele>1992.6</ele>
        <time>2021-03-25T12:10:34Z</time>
      </trkpt>
      <trkpt lat="42.88028" lon="0.13239">
        <ele>1992.6</ele>
        <time>2021-03-25T12:10:36Z</time>
      </trkpt>
      <trkpt lat="42.88028" lon="0.13239">
        <ele>1992.6</ele>
        <time>2021-03-25T12:10:37Z</time>
      </trkpt>
      <trkpt lat="42.88028" lon="0.13239">
        <ele>1992.6</ele>
        <time>2021-03-25T12:10:39Z</time>
      </trkpt>
      <trkpt lat="42.88029" lon="0.1324">
        <ele>1992.5</ele>
        <time>2021-03-25T12:10:40Z</time>
      </trkpt>
      <trkpt lat="42.88029" lon="0.1324">
        <ele>1992.5</ele>
        <time>2021-03-25T12:10:41Z</time>
      </trkpt>
      <trkpt lat="42.88029" lon="0.1324">
        <ele>1992.5</ele>
        <time>2021-03-25T12:10:43Z</time>
      </trkpt>
      <trkpt lat="42.8803" lon="0.1324">
        <ele>1992.5</ele>
        <time>2021-03-25T12:10:44Z</time>
      </trkpt>
      <trkpt lat="42.8803" lon="0.1324">
        <ele>1992.5</ele>
        <time>2021-03-25T12:10:45Z</time>
      </trkpt>
      <trkpt lat="42.8803" lon="0.1324">
        <ele>1992.5</ele>
        <time>2021-03-25T12:10:46Z</time>
      </trkpt>
      <trkpt lat="42.8803" lon="0.1324">
        <ele>1992.5</ele>
        <time>2021-03-25T12:10:48Z</time>
      </trkpt>
      <trkpt lat="42.8803" lon="0.1324">
        <ele>1992.5</ele>
        <time>2021-03-25T12:10:49Z</time>
      </trkpt>
      <trkpt lat="42.8803" lon="0.13241">
        <ele>1992.5</ele>
        <time>2021-03-25T12:10:51Z</time>
      </trkpt>
      <trkpt lat="42.8803" lon="0.13241">
        <ele>1992.5</ele>
        <time>2021-03-25T12:10:52Z</time>
      </trkpt>
      <trkpt lat="42.8803" lon="0.13241">
        <ele>1992.5</ele>
        <time>2021-03-25T12:10:53Z</time>
      </trkpt>
      <trkpt lat="42.8803" lon="0.13242">
        <ele>1992.5</ele>
        <time>2021-03-25T12:10:54Z</time>
      </trkpt>
      <trkpt lat="42.8803" lon="0.13242">
        <ele>1992.5</ele>
        <time>2021-03-25T12:10:55Z</time>
      </trkpt>
      <trkpt lat="42.8803" lon="0.13242">
        <ele>1992.5</ele>
        <time>2021-03-25T12:10:56Z</time>
      </trkpt>
      <trkpt lat="42.8803" lon="0.13243">
        <ele>1992.5</ele>
        <time>2021-03-25T12:10:58Z</time>
      </trkpt>
      <trkpt lat="42.8803" lon="0.13243">
        <ele>1992.5</ele>
        <time>2021-03-25T12:11:00Z</time>
      </trkpt>
      <trkpt lat="42.8803" lon="0.13243">
        <ele>1992.5</ele>
        <time>2021-03-25T12:11:01Z</time>
      </trkpt>
      <trkpt lat="42.8803" lon="0.13244">
        <ele>1992.5</ele>
        <time>2021-03-25T12:11:02Z</time>
      </trkpt>
      <trkpt lat="42.8803" lon="0.13244">
        <ele>1992.3</ele>
        <time>2021-03-25T12:11:03Z</time>
      </trkpt>
      <trkpt lat="42.8803" lon="0.13244">
        <ele>1992.3</ele>
        <time>2021-03-25T12:11:05Z</time>
      </trkpt>
      <trkpt lat="42.8803" lon="0.13244">
        <ele>1992.3</ele>
        <time>2021-03-25T12:11:06Z</time>
      </trkpt>
      <trkpt lat="42.8803" lon="0.13245">
        <ele>1992.3</ele>
        <time>2021-03-25T12:11:08Z</time>
      </trkpt>
      <trkpt lat="42.8803" lon="0.13245">
        <ele>1989.9</ele>
        <time>2021-03-25T12:11:10Z</time>
      </trkpt>
      <trkpt lat="42.88031" lon="0.13246">
        <ele>1989.9</ele>
        <time>2021-03-25T12:11:11Z</time>
      </trkpt>
      <trkpt lat="42.88032" lon="0.13248">
        <ele>1989.9</ele>
        <time>2021-03-25T12:11:13Z</time>
      </trkpt>
      <trkpt lat="42.88032" lon="0.13248">
        <ele>1989.9</ele>
        <time>2021-03-25T12:11:14Z</time>
      </trkpt>
      <trkpt lat="42.88032" lon="0.13248">
        <ele>1989.7</ele>
        <time>2021-03-25T12:11:15Z</time>
      </trkpt>
      <trkpt lat="42.88032" lon="0.13249">
        <ele>1989.7</ele>
        <time>2021-03-25T12:11:17Z</time>
      </trkpt>
      <trkpt lat="42.88031" lon="0.13251">
        <ele>1989.7</ele>
        <time>2021-03-25T12:11:19Z</time>
      </trkpt>
      <trkpt lat="42.88031" lon="0.13252">
        <ele>1989.7</ele>
        <time>2021-03-25T12:11:20Z</time>
      </trkpt>
      <trkpt lat="42.88031" lon="0.13254">
        <ele>1989.5</ele>
        <time>2021-03-25T12:11:22Z</time>
      </trkpt>
      <trkpt lat="42.88031" lon="0.13255">
        <ele>1989.5</ele>
        <time>2021-03-25T12:11:23Z</time>
      </trkpt>
      <trkpt lat="42.8803" lon="0.13257">
        <ele>1989.3</ele>
        <time>2021-03-25T12:11:25Z</time>
      </trkpt>
      <trkpt lat="42.8803" lon="0.13259">
        <ele>1991.8</ele>
        <time>2021-03-25T12:11:27Z</time>
      </trkpt>
      <trkpt lat="42.8803" lon="0.13259">
        <ele>1991.8</ele>
        <time>2021-03-25T12:11:28Z</time>
      </trkpt>
      <trkpt lat="42.8803" lon="0.1326">
        <ele>1991.8</ele>
        <time>2021-03-25T12:11:30Z</time>
      </trkpt>
      <trkpt lat="42.8803" lon="0.13261">
        <ele>1991.6</ele>
        <time>2021-03-25T12:11:32Z</time>
      </trkpt>
      <trkpt lat="42.88029" lon="0.13262">
        <ele>1991.6</ele>
        <time>2021-03-25T12:11:34Z</time>
      </trkpt>
      <trkpt lat="42.88029" lon="0.13262">
        <ele>1991.6</ele>
        <time>2021-03-25T12:11:35Z</time>
      </trkpt>
      <trkpt lat="42.88029" lon="0.13263">
        <ele>1991.6</ele>
        <time>2021-03-25T12:11:36Z</time>
      </trkpt>
      <trkpt lat="42.88029" lon="0.13263">
        <ele>1991.6</ele>
        <time>2021-03-25T12:11:38Z</time>
      </trkpt>
      <trkpt lat="42.88029" lon="0.13263">
        <ele>1991.6</ele>
        <time>2021-03-25T12:11:39Z</time>
      </trkpt>
      <trkpt lat="42.88029" lon="0.13264">
        <ele>1991.6</ele>
        <time>2021-03-25T12:11:41Z</time>
      </trkpt>
      <trkpt lat="42.88029" lon="0.13264">
        <ele>1991.6</ele>
        <time>2021-03-25T12:11:42Z</time>
      </trkpt>
      <trkpt lat="42.88029" lon="0.13264">
        <ele>1991.6</ele>
        <time>2021-03-25T12:11:43Z</time>
      </trkpt>
      <trkpt lat="42.88029" lon="0.13264">
        <ele>1991.6</ele>
        <time>2021-03-25T12:11:44Z</time>
      </trkpt>
      <trkpt lat="42.88029" lon="0.13264">
        <ele>1991.6</ele>
        <time>2021-03-25T12:11:46Z</time>
      </trkpt>
      <trkpt lat="42.88029" lon="0.13264">
        <ele>1991.6</ele>
        <time>2021-03-25T12:11:47Z</time>
      </trkpt>
      <trkpt lat="42.88029" lon="0.13265">
        <ele>1991.6</ele>
        <time>2021-03-25T12:11:49Z</time>
      </trkpt>
      <trkpt lat="42.88028" lon="0.13265">
        <ele>1991.4</ele>
        <time>2021-03-25T12:11:50Z</time>
      </trkpt>
      <trkpt lat="42.88028" lon="0.13266">
        <ele>1991.4</ele>
        <time>2021-03-25T12:11:52Z</time>
      </trkpt>
      <trkpt lat="42.88028" lon="0.13266">
        <ele>1991.4</ele>
        <time>2021-03-25T12:11:53Z</time>
      </trkpt>
      <trkpt lat="42.88028" lon="0.13266">
        <ele>1991.4</ele>
        <time>2021-03-25T12:11:54Z</time>
      </trkpt>
      <trkpt lat="42.88027" lon="0.13267">
        <ele>1991.4</ele>
        <time>2021-03-25T12:11:56Z</time>
      </trkpt>
      <trkpt lat="42.88027" lon="0.13267">
        <ele>1994.1</ele>
        <time>2021-03-25T12:11:58Z</time>
      </trkpt>
      <trkpt lat="42.88027" lon="0.13268">
        <ele>1994.1</ele>
        <time>2021-03-25T12:11:59Z</time>
      </trkpt>
      <trkpt lat="42.88027" lon="0.13268">
        <ele>1994.1</ele>
        <time>2021-03-25T12:12:00Z</time>
      </trkpt>
      <trkpt lat="42.88027" lon="0.13268">
        <ele>1994.1</ele>
        <time>2021-03-25T12:12:02Z</time>
      </trkpt>
      <trkpt lat="42.88027" lon="0.13269">
        <ele>1994.1</ele>
        <time>2021-03-25T12:12:03Z</time>
      </trkpt>
      <trkpt lat="42.88027" lon="0.13269">
        <ele>1994.1</ele>
        <time>2021-03-25T12:12:05Z</time>
      </trkpt>
      <trkpt lat="42.88027" lon="0.13269">
        <ele>1994.1</ele>
        <time>2021-03-25T12:12:06Z</time>
      </trkpt>
      <trkpt lat="42.88026" lon="0.1327">
        <ele>1994</ele>
        <time>2021-03-25T12:12:08Z</time>
      </trkpt>
      <trkpt lat="42.88026" lon="0.1327">
        <ele>1994</ele>
        <time>2021-03-25T12:12:09Z</time>
      </trkpt>
      <trkpt lat="42.88026" lon="0.13271">
        <ele>1994</ele>
        <time>2021-03-25T12:12:11Z</time>
      </trkpt>
      <trkpt lat="42.88026" lon="0.13271">
        <ele>1994</ele>
        <time>2021-03-25T12:12:12Z</time>
      </trkpt>
      <trkpt lat="42.88026" lon="0.13271">
        <ele>1994</ele>
        <time>2021-03-25T12:12:14Z</time>
      </trkpt>
      <trkpt lat="42.88026" lon="0.13272">
        <ele>1994</ele>
        <time>2021-03-25T12:12:15Z</time>
      </trkpt>
      <trkpt lat="42.88025" lon="0.13272">
        <ele>1994</ele>
        <time>2021-03-25T12:12:17Z</time>
      </trkpt>
      <trkpt lat="42.88025" lon="0.13272">
        <ele>1994</ele>
        <time>2021-03-25T12:12:18Z</time>
      </trkpt>
      <trkpt lat="42.88025" lon="0.13273">
        <ele>1994</ele>
        <time>2021-03-25T12:12:20Z</time>
      </trkpt>
      <trkpt lat="42.88025" lon="0.13273">
        <ele>1994</ele>
        <time>2021-03-25T12:12:21Z</time>
      </trkpt>
      <trkpt lat="42.88025" lon="0.13274">
        <ele>1994</ele>
        <time>2021-03-25T12:12:22Z</time>
      </trkpt>
      <trkpt lat="42.88025" lon="0.13274">
        <ele>1993.8</ele>
        <time>2021-03-25T12:12:23Z</time>
      </trkpt>
      <trkpt lat="42.88024" lon="0.13274">
        <ele>1993.8</ele>
        <time>2021-03-25T12:12:25Z</time>
      </trkpt>
      <trkpt lat="42.88024" lon="0.13275">
        <ele>1993.8</ele>
        <time>2021-03-25T12:12:26Z</time>
      </trkpt>
      <trkpt lat="42.88024" lon="0.13275">
        <ele>1996.6</ele>
        <time>2021-03-25T12:12:27Z</time>
      </trkpt>
      <trkpt lat="42.88024" lon="0.13275">
        <ele>1996.6</ele>
        <time>2021-03-25T12:12:29Z</time>
      </trkpt>
      <trkpt lat="42.88024" lon="0.13276">
        <ele>1996.6</ele>
        <time>2021-03-25T12:12:31Z</time>
      </trkpt>
      <trkpt lat="42.88024" lon="0.13276">
        <ele>1996.6</ele>
        <time>2021-03-25T12:12:32Z</time>
      </trkpt>
      <trkpt lat="42.88023" lon="0.13277">
        <ele>1996.6</ele>
        <time>2021-03-25T12:12:33Z</time>
      </trkpt>
      <trkpt lat="42.88023" lon="0.13277">
        <ele>1996.6</ele>
        <time>2021-03-25T12:12:34Z</time>
      </trkpt>
      <trkpt lat="42.88023" lon="0.13277">
        <ele>1996.6</ele>
        <time>2021-03-25T12:12:35Z</time>
      </trkpt>
      <trkpt lat="42.88021" lon="0.13279">
        <ele>1999.4</ele>
        <time>2021-03-25T12:12:37Z</time>
      </trkpt>
      <trkpt lat="42.88017" lon="0.13282">
        <ele>2002.1</ele>
        <time>2021-03-25T12:12:39Z</time>
      </trkpt>
      <trkpt lat="42.88016" lon="0.13283">
        <ele>2002</ele>
        <time>2021-03-25T12:12:40Z</time>
      </trkpt>
      <trkpt lat="42.88015" lon="0.13284">
        <ele>2002</ele>
        <time>2021-03-25T12:12:42Z</time>
      </trkpt>
      <trkpt lat="42.88015" lon="0.13285">
        <ele>2002</ele>
        <time>2021-03-25T12:12:43Z</time>
      </trkpt>
      <trkpt lat="42.88015" lon="0.13285">
        <ele>2002</ele>
        <time>2021-03-25T12:12:45Z</time>
      </trkpt>
      <trkpt lat="42.88016" lon="0.13286">
        <ele>2002</ele>
        <time>2021-03-25T12:12:46Z</time>
      </trkpt>
      <trkpt lat="42.88016" lon="0.13286">
        <ele>2002</ele>
        <time>2021-03-25T12:12:47Z</time>
      </trkpt>
      <trkpt lat="42.88016" lon="0.13287">
        <ele>2002</ele>
        <time>2021-03-25T12:12:49Z</time>
      </trkpt>
      <trkpt lat="42.88015" lon="0.13287">
        <ele>2002</ele>
        <time>2021-03-25T12:12:50Z</time>
      </trkpt>
      <trkpt lat="42.88015" lon="0.13288">
        <ele>2002</ele>
        <time>2021-03-25T12:12:52Z</time>
      </trkpt>
      <trkpt lat="42.88015" lon="0.13288">
        <ele>2002</ele>
        <time>2021-03-25T12:12:54Z</time>
      </trkpt>
      <trkpt lat="42.88015" lon="0.13288">
        <ele>2002</ele>
        <time>2021-03-25T12:12:55Z</time>
      </trkpt>
      <trkpt lat="42.88015" lon="0.13289">
        <ele>2002</ele>
        <time>2021-03-25T12:12:57Z</time>
      </trkpt>
      <trkpt lat="42.88015" lon="0.13289">
        <ele>2002</ele>
        <time>2021-03-25T12:12:58Z</time>
      </trkpt>
      <trkpt lat="42.88015" lon="0.13289">
        <ele>2004.6</ele>
        <time>2021-03-25T12:12:59Z</time>
      </trkpt>
      <trkpt lat="42.88015" lon="0.1329">
        <ele>2004.6</ele>
        <time>2021-03-25T12:13:01Z</time>
      </trkpt>
      <trkpt lat="42.88015" lon="0.1329">
        <ele>2004.6</ele>
        <time>2021-03-25T12:13:03Z</time>
      </trkpt>
      <trkpt lat="42.88015" lon="0.1329">
        <ele>2004.6</ele>
        <time>2021-03-25T12:13:04Z</time>
      </trkpt>
      <trkpt lat="42.88015" lon="0.1329">
        <ele>2004.6</ele>
        <time>2021-03-25T12:13:06Z</time>
      </trkpt>
      <trkpt lat="42.88015" lon="0.1329">
        <ele>2004.6</ele>
        <time>2021-03-25T12:13:07Z</time>
      </trkpt>
      <trkpt lat="42.88014" lon="0.13291">
        <ele>2004.6</ele>
        <time>2021-03-25T12:13:09Z</time>
      </trkpt>
      <trkpt lat="42.88014" lon="0.13291">
        <ele>2004.6</ele>
        <time>2021-03-25T12:13:10Z</time>
      </trkpt>
      <trkpt lat="42.88014" lon="0.13291">
        <ele>2004.6</ele>
        <time>2021-03-25T12:13:11Z</time>
      </trkpt>
      <trkpt lat="42.88014" lon="0.13291">
        <ele>2004.6</ele>
        <time>2021-03-25T12:13:13Z</time>
      </trkpt>
      <trkpt lat="42.88014" lon="0.13291">
        <ele>2004.6</ele>
        <time>2021-03-25T12:13:15Z</time>
      </trkpt>
      <trkpt lat="42.88014" lon="0.13291">
        <ele>2004.6</ele>
        <time>2021-03-25T12:13:17Z</time>
      </trkpt>
      <trkpt lat="42.88014" lon="0.13291">
        <ele>2004.6</ele>
        <time>2021-03-25T12:13:19Z</time>
      </trkpt>
      <trkpt lat="42.88014" lon="0.13291">
        <ele>2004.6</ele>
        <time>2021-03-25T12:13:20Z</time>
      </trkpt>
      <trkpt lat="42.88014" lon="0.13291">
        <ele>2004.6</ele>
        <time>2021-03-25T12:13:22Z</time>
      </trkpt>
      <trkpt lat="42.88015" lon="0.13291">
        <ele>2004.6</ele>
        <time>2021-03-25T12:13:23Z</time>
      </trkpt>
      <trkpt lat="42.88015" lon="0.13291">
        <ele>2004.6</ele>
        <time>2021-03-25T12:13:25Z</time>
      </trkpt>
      <trkpt lat="42.88015" lon="0.13291">
        <ele>2004.6</ele>
        <time>2021-03-25T12:13:26Z</time>
      </trkpt>
      <trkpt lat="42.88015" lon="0.13291">
        <ele>2004.6</ele>
        <time>2021-03-25T12:13:27Z</time>
      </trkpt>
      <trkpt lat="42.88015" lon="0.13291">
        <ele>2004.6</ele>
        <time>2021-03-25T12:13:28Z</time>
      </trkpt>
      <trkpt lat="42.88015" lon="0.13291">
        <ele>2004.6</ele>
        <time>2021-03-25T12:13:30Z</time>
      </trkpt>
      <trkpt lat="42.88014" lon="0.13292">
        <ele>2004.6</ele>
        <time>2021-03-25T12:13:32Z</time>
      </trkpt>
      <trkpt lat="42.88014" lon="0.13293">
        <ele>2004.6</ele>
        <time>2021-03-25T12:13:33Z</time>
      </trkpt>
      <trkpt lat="42.88014" lon="0.13293">
        <ele>2004.6</ele>
        <time>2021-03-25T12:13:34Z</time>
      </trkpt>
      <trkpt lat="42.88013" lon="0.13293">
        <ele>2004.6</ele>
        <time>2021-03-25T12:13:35Z</time>
      </trkpt>
      <trkpt lat="42.88013" lon="0.13293">
        <ele>2004.6</ele>
        <time>2021-03-25T12:13:37Z</time>
      </trkpt>
      <trkpt lat="42.88013" lon="0.13294">
        <ele>2004.6</ele>
        <time>2021-03-25T12:13:39Z</time>
      </trkpt>
      <trkpt lat="42.88012" lon="0.13294">
        <ele>2004.6</ele>
        <time>2021-03-25T12:13:40Z</time>
      </trkpt>
      <trkpt lat="42.88012" lon="0.13295">
        <ele>2004.6</ele>
        <time>2021-03-25T12:13:42Z</time>
      </trkpt>
      <trkpt lat="42.88012" lon="0.13296">
        <ele>2004.6</ele>
        <time>2021-03-25T12:13:43Z</time>
      </trkpt>
      <trkpt lat="42.88012" lon="0.13296">
        <ele>2004.6</ele>
        <time>2021-03-25T12:13:45Z</time>
      </trkpt>
      <trkpt lat="42.88012" lon="0.13297">
        <ele>2004.6</ele>
        <time>2021-03-25T12:13:46Z</time>
      </trkpt>
      <trkpt lat="42.88012" lon="0.13298">
        <ele>2004.6</ele>
        <time>2021-03-25T12:13:48Z</time>
      </trkpt>
      <trkpt lat="42.88012" lon="0.13298">
        <ele>2004.6</ele>
        <time>2021-03-25T12:13:49Z</time>
      </trkpt>
      <trkpt lat="42.88012" lon="0.13298">
        <ele>2004.6</ele>
        <time>2021-03-25T12:13:50Z</time>
      </trkpt>
      <trkpt lat="42.88012" lon="0.13299">
        <ele>2004.6</ele>
        <time>2021-03-25T12:13:51Z</time>
      </trkpt>
      <trkpt lat="42.88013" lon="0.13299">
        <ele>2004.6</ele>
        <time>2021-03-25T12:13:53Z</time>
      </trkpt>
      <trkpt lat="42.88013" lon="0.133">
        <ele>2004.6</ele>
        <time>2021-03-25T12:13:54Z</time>
      </trkpt>
      <trkpt lat="42.88013" lon="0.13301">
        <ele>2004.6</ele>
        <time>2021-03-25T12:13:55Z</time>
      </trkpt>
      <trkpt lat="42.88013" lon="0.13301">
        <ele>2004.6</ele>
        <time>2021-03-25T12:13:56Z</time>
      </trkpt>
      <trkpt lat="42.88013" lon="0.13301">
        <ele>2004.6</ele>
        <time>2021-03-25T12:13:57Z</time>
      </trkpt>
      <trkpt lat="42.88013" lon="0.13302">
        <ele>2004.6</ele>
        <time>2021-03-25T12:13:59Z</time>
      </trkpt>
      <trkpt lat="42.88013" lon="0.13303">
        <ele>2004.6</ele>
        <time>2021-03-25T12:14:01Z</time>
      </trkpt>
      <trkpt lat="42.88014" lon="0.13303">
        <ele>2004.6</ele>
        <time>2021-03-25T12:14:03Z</time>
      </trkpt>
      <trkpt lat="42.88014" lon="0.13303">
        <ele>2004.6</ele>
        <time>2021-03-25T12:14:04Z</time>
      </trkpt>
      <trkpt lat="42.88014" lon="0.13303">
        <ele>2004.6</ele>
        <time>2021-03-25T12:14:06Z</time>
      </trkpt>
      <trkpt lat="42.88014" lon="0.13304">
        <ele>2004.6</ele>
        <time>2021-03-25T12:14:07Z</time>
      </trkpt>
      <trkpt lat="42.88014" lon="0.13304">
        <ele>2004.7</ele>
        <time>2021-03-25T12:14:09Z</time>
      </trkpt>
      <trkpt lat="42.88014" lon="0.13305">
        <ele>2004.7</ele>
        <time>2021-03-25T12:14:11Z</time>
      </trkpt>
      <trkpt lat="42.88014" lon="0.13306">
        <ele>2004.7</ele>
        <time>2021-03-25T12:14:12Z</time>
      </trkpt>
      <trkpt lat="42.88013" lon="0.13307">
        <ele>2004.7</ele>
        <time>2021-03-25T12:14:14Z</time>
      </trkpt>
      <trkpt lat="42.88013" lon="0.13307">
        <ele>2004.7</ele>
        <time>2021-03-25T12:14:15Z</time>
      </trkpt>
      <trkpt lat="42.88012" lon="0.13308">
        <ele>2004.7</ele>
        <time>2021-03-25T12:14:17Z</time>
      </trkpt>
      <trkpt lat="42.88011" lon="0.13309">
        <ele>2007.4</ele>
        <time>2021-03-25T12:14:19Z</time>
      </trkpt>
      <trkpt lat="42.88011" lon="0.13309">
        <ele>2007.4</ele>
        <time>2021-03-25T12:14:20Z</time>
      </trkpt>
      <trkpt lat="42.8801" lon="0.1331">
        <ele>2007.4</ele>
        <time>2021-03-25T12:14:22Z</time>
      </trkpt>
      <trkpt lat="42.8801" lon="0.13311">
        <ele>2007.4</ele>
        <time>2021-03-25T12:14:23Z</time>
      </trkpt>
      <trkpt lat="42.88009" lon="0.13311">
        <ele>2007.4</ele>
        <time>2021-03-25T12:14:24Z</time>
      </trkpt>
      <trkpt lat="42.88009" lon="0.13312">
        <ele>2007.4</ele>
        <time>2021-03-25T12:14:25Z</time>
      </trkpt>
      <trkpt lat="42.88009" lon="0.13313">
        <ele>2007.4</ele>
        <time>2021-03-25T12:14:27Z</time>
      </trkpt>
      <trkpt lat="42.88008" lon="0.13313">
        <ele>2010.3</ele>
        <time>2021-03-25T12:14:28Z</time>
      </trkpt>
      <trkpt lat="42.88008" lon="0.13314">
        <ele>2010.3</ele>
        <time>2021-03-25T12:14:30Z</time>
      </trkpt>
      <trkpt lat="42.88008" lon="0.13314">
        <ele>2010.3</ele>
        <time>2021-03-25T12:14:31Z</time>
      </trkpt>
      <trkpt lat="42.88007" lon="0.13314">
        <ele>2010.3</ele>
        <time>2021-03-25T12:14:32Z</time>
      </trkpt>
      <trkpt lat="42.88007" lon="0.13314">
        <ele>2010.3</ele>
        <time>2021-03-25T12:14:33Z</time>
      </trkpt>
      <trkpt lat="42.88007" lon="0.13315">
        <ele>2010.3</ele>
        <time>2021-03-25T12:14:35Z</time>
      </trkpt>
      <trkpt lat="42.88007" lon="0.13315">
        <ele>2010.3</ele>
        <time>2021-03-25T12:14:36Z</time>
      </trkpt>
      <trkpt lat="42.88007" lon="0.13315">
        <ele>2010.3</ele>
        <time>2021-03-25T12:14:38Z</time>
      </trkpt>
      <trkpt lat="42.88007" lon="0.13315">
        <ele>2010.3</ele>
        <time>2021-03-25T12:14:39Z</time>
      </trkpt>
      <trkpt lat="42.88007" lon="0.13316">
        <ele>2010.3</ele>
        <time>2021-03-25T12:14:41Z</time>
      </trkpt>
      <trkpt lat="42.88007" lon="0.13316">
        <ele>2010.3</ele>
        <time>2021-03-25T12:14:43Z</time>
      </trkpt>
      <trkpt lat="42.88007" lon="0.13316">
        <ele>2010.3</ele>
        <time>2021-03-25T12:14:44Z</time>
      </trkpt>
      <trkpt lat="42.88006" lon="0.13316">
        <ele>2010.3</ele>
        <time>2021-03-25T12:14:46Z</time>
      </trkpt>
      <trkpt lat="42.88006" lon="0.13316">
        <ele>2010.3</ele>
        <time>2021-03-25T12:14:47Z</time>
      </trkpt>
      <trkpt lat="42.88006" lon="0.13316">
        <ele>2010.3</ele>
        <time>2021-03-25T12:14:48Z</time>
      </trkpt>
      <trkpt lat="42.88006" lon="0.13316">
        <ele>2010.3</ele>
        <time>2021-03-25T12:14:50Z</time>
      </trkpt>
      <trkpt lat="42.88007" lon="0.13315">
        <ele>2010.3</ele>
        <time>2021-03-25T12:14:51Z</time>
      </trkpt>
      <trkpt lat="42.88007" lon="0.13314">
        <ele>2010.3</ele>
        <time>2021-03-25T12:14:52Z</time>
      </trkpt>
      <trkpt lat="42.88007" lon="0.13314">
        <ele>2010.3</ele>
        <time>2021-03-25T12:14:54Z</time>
      </trkpt>
      <trkpt lat="42.88007" lon="0.13314">
        <ele>2010.3</ele>
        <time>2021-03-25T12:14:55Z</time>
      </trkpt>
      <trkpt lat="42.88007" lon="0.13314">
        <ele>2010.3</ele>
        <time>2021-03-25T12:14:57Z</time>
      </trkpt>
      <trkpt lat="42.88007" lon="0.13314">
        <ele>2010.3</ele>
        <time>2021-03-25T12:14:58Z</time>
      </trkpt>
      <trkpt lat="42.88007" lon="0.13314">
        <ele>2010.3</ele>
        <time>2021-03-25T12:14:59Z</time>
      </trkpt>
      <trkpt lat="42.88007" lon="0.13314">
        <ele>2010.3</ele>
        <time>2021-03-25T12:15:01Z</time>
      </trkpt>
      <trkpt lat="42.88007" lon="0.13314">
        <ele>2010.3</ele>
        <time>2021-03-25T12:15:02Z</time>
      </trkpt>
      <trkpt lat="42.88007" lon="0.13314">
        <ele>2010.3</ele>
        <time>2021-03-25T12:15:03Z</time>
      </trkpt>
      <trkpt lat="42.88007" lon="0.13314">
        <ele>2010.3</ele>
        <time>2021-03-25T12:15:04Z</time>
      </trkpt>
      <trkpt lat="42.88007" lon="0.13314">
        <ele>2010.3</ele>
        <time>2021-03-25T12:15:05Z</time>
      </trkpt>
      <trkpt lat="42.88007" lon="0.13314">
        <ele>2010.3</ele>
        <time>2021-03-25T12:15:07Z</time>
      </trkpt>
      <trkpt lat="42.88007" lon="0.13314">
        <ele>2010.3</ele>
        <time>2021-03-25T12:15:08Z</time>
      </trkpt>
      <trkpt lat="42.88007" lon="0.13314">
        <ele>2010.3</ele>
        <time>2021-03-25T12:15:09Z</time>
      </trkpt>
      <trkpt lat="42.88007" lon="0.13314">
        <ele>2010.3</ele>
        <time>2021-03-25T12:15:11Z</time>
      </trkpt>
      <trkpt lat="42.88007" lon="0.13314">
        <ele>2010.3</ele>
        <time>2021-03-25T12:15:12Z</time>
      </trkpt>
      <trkpt lat="42.88007" lon="0.13314">
        <ele>2010.3</ele>
        <time>2021-03-25T12:15:13Z</time>
      </trkpt>
      <trkpt lat="42.88007" lon="0.13314">
        <ele>2010.3</ele>
        <time>2021-03-25T12:15:14Z</time>
      </trkpt>
      <trkpt lat="42.88007" lon="0.13314">
        <ele>2010.3</ele>
        <time>2021-03-25T12:15:16Z</time>
      </trkpt>
      <trkpt lat="42.88007" lon="0.13314">
        <ele>2010.3</ele>
        <time>2021-03-25T12:15:17Z</time>
      </trkpt>
      <trkpt lat="42.88007" lon="0.13314">
        <ele>2010.3</ele>
        <time>2021-03-25T12:15:18Z</time>
      </trkpt>
      <trkpt lat="42.88007" lon="0.13314">
        <ele>2010.3</ele>
        <time>2021-03-25T12:15:19Z</time>
      </trkpt>
      <trkpt lat="42.88007" lon="0.13314">
        <ele>2010.3</ele>
        <time>2021-03-25T12:15:21Z</time>
      </trkpt>
      <trkpt lat="42.88007" lon="0.13314">
        <ele>2010.3</ele>
        <time>2021-03-25T12:15:22Z</time>
      </trkpt>
      <trkpt lat="42.88007" lon="0.13314">
        <ele>2010.3</ele>
        <time>2021-03-25T12:15:24Z</time>
      </trkpt>
      <trkpt lat="42.88007" lon="0.13315">
        <ele>2010.3</ele>
        <time>2021-03-25T12:15:25Z</time>
      </trkpt>
      <trkpt lat="42.88006" lon="0.13315">
        <ele>2010.3</ele>
        <time>2021-03-25T12:15:27Z</time>
      </trkpt>
      <trkpt lat="42.88006" lon="0.13316">
        <ele>2010.3</ele>
        <time>2021-03-25T12:15:29Z</time>
      </trkpt>
      <trkpt lat="42.88005" lon="0.13316">
        <ele>2010.3</ele>
        <time>2021-03-25T12:15:30Z</time>
      </trkpt>
      <trkpt lat="42.88005" lon="0.13317">
        <ele>2013.5</ele>
        <time>2021-03-25T12:15:32Z</time>
      </trkpt>
      <trkpt lat="42.88005" lon="0.13317">
        <ele>2013.5</ele>
        <time>2021-03-25T12:15:33Z</time>
      </trkpt>
      <trkpt lat="42.88005" lon="0.13318">
        <ele>2013.5</ele>
        <time>2021-03-25T12:15:35Z</time>
      </trkpt>
      <trkpt lat="42.88005" lon="0.13318">
        <ele>2013.5</ele>
        <time>2021-03-25T12:15:36Z</time>
      </trkpt>
      <trkpt lat="42.88005" lon="0.13319">
        <ele>2013.5</ele>
        <time>2021-03-25T12:15:38Z</time>
      </trkpt>
      <trkpt lat="42.88004" lon="0.13319">
        <ele>2013.5</ele>
        <time>2021-03-25T12:15:39Z</time>
      </trkpt>
      <trkpt lat="42.88004" lon="0.13319">
        <ele>2013.5</ele>
        <time>2021-03-25T12:15:41Z</time>
      </trkpt>
      <trkpt lat="42.88004" lon="0.1332">
        <ele>2013.5</ele>
        <time>2021-03-25T12:15:42Z</time>
      </trkpt>
      <trkpt lat="42.88004" lon="0.1332">
        <ele>2013.5</ele>
        <time>2021-03-25T12:15:43Z</time>
      </trkpt>
      <trkpt lat="42.88004" lon="0.1332">
        <ele>2013.5</ele>
        <time>2021-03-25T12:15:45Z</time>
      </trkpt>
      <trkpt lat="42.88004" lon="0.13321">
        <ele>2013.5</ele>
        <time>2021-03-25T12:15:46Z</time>
      </trkpt>
      <trkpt lat="42.88004" lon="0.13322">
        <ele>2013.6</ele>
        <time>2021-03-25T12:15:48Z</time>
      </trkpt>
      <trkpt lat="42.88004" lon="0.13323">
        <ele>2013.6</ele>
        <time>2021-03-25T12:15:50Z</time>
      </trkpt>
      <trkpt lat="42.88004" lon="0.13324">
        <ele>2013.6</ele>
        <time>2021-03-25T12:15:52Z</time>
      </trkpt>
      <trkpt lat="42.88005" lon="0.13326">
        <ele>2013.7</ele>
        <time>2021-03-25T12:15:54Z</time>
      </trkpt>
      <trkpt lat="42.88005" lon="0.13327">
        <ele>2013.7</ele>
        <time>2021-03-25T12:15:55Z</time>
      </trkpt>
      <trkpt lat="42.88005" lon="0.13328">
        <ele>2013.7</ele>
        <time>2021-03-25T12:15:57Z</time>
      </trkpt>
      <trkpt lat="42.88005" lon="0.1333">
        <ele>2013.7</ele>
        <time>2021-03-25T12:15:58Z</time>
      </trkpt>
      <trkpt lat="42.88005" lon="0.13331">
        <ele>2010.6</ele>
        <time>2021-03-25T12:16:00Z</time>
      </trkpt>
      <trkpt lat="42.88005" lon="0.13332">
        <ele>2010.6</ele>
        <time>2021-03-25T12:16:01Z</time>
      </trkpt>
      <trkpt lat="42.88005" lon="0.13333">
        <ele>2010.6</ele>
        <time>2021-03-25T12:16:02Z</time>
      </trkpt>
      <trkpt lat="42.88006" lon="0.13334">
        <ele>2010.6</ele>
        <time>2021-03-25T12:16:03Z</time>
      </trkpt>
      <trkpt lat="42.88006" lon="0.13336">
        <ele>2010.6</ele>
        <time>2021-03-25T12:16:04Z</time>
      </trkpt>
      <trkpt lat="42.88006" lon="0.13337">
        <ele>2010.6</ele>
        <time>2021-03-25T12:16:05Z</time>
      </trkpt>
      <trkpt lat="42.88006" lon="0.13338">
        <ele>2010.6</ele>
        <time>2021-03-25T12:16:07Z</time>
      </trkpt>
      <trkpt lat="42.88006" lon="0.13339">
        <ele>2010.7</ele>
        <time>2021-03-25T12:16:08Z</time>
      </trkpt>
      <trkpt lat="42.88006" lon="0.1334">
        <ele>2010.7</ele>
        <time>2021-03-25T12:16:10Z</time>
      </trkpt>
      <trkpt lat="42.88006" lon="0.13341">
        <ele>2010.7</ele>
        <time>2021-03-25T12:16:11Z</time>
      </trkpt>
      <trkpt lat="42.88007" lon="0.13341">
        <ele>2010.7</ele>
        <time>2021-03-25T12:16:12Z</time>
      </trkpt>
      <trkpt lat="42.88007" lon="0.13342">
        <ele>2010.7</ele>
        <time>2021-03-25T12:16:14Z</time>
      </trkpt>
      <trkpt lat="42.88007" lon="0.13342">
        <ele>2010.7</ele>
        <time>2021-03-25T12:16:15Z</time>
      </trkpt>
      <trkpt lat="42.88008" lon="0.13343">
        <ele>2010.7</ele>
        <time>2021-03-25T12:16:16Z</time>
      </trkpt>
      <trkpt lat="42.88008" lon="0.13344">
        <ele>2010.7</ele>
        <time>2021-03-25T12:16:18Z</time>
      </trkpt>
      <trkpt lat="42.88009" lon="0.13344">
        <ele>2007.8</ele>
        <time>2021-03-25T12:16:19Z</time>
      </trkpt>
      <trkpt lat="42.88009" lon="0.13344">
        <ele>2007.8</ele>
        <time>2021-03-25T12:16:20Z</time>
      </trkpt>
      <trkpt lat="42.8801" lon="0.13345">
        <ele>2007.8</ele>
        <time>2021-03-25T12:16:22Z</time>
      </trkpt>
      <trkpt lat="42.8801" lon="0.13344">
        <ele>2007.8</ele>
        <time>2021-03-25T12:16:23Z</time>
      </trkpt>
      <trkpt lat="42.8801" lon="0.13344">
        <ele>2007.8</ele>
        <time>2021-03-25T12:16:24Z</time>
      </trkpt>
      <trkpt lat="42.8801" lon="0.13345">
        <ele>2007.8</ele>
        <time>2021-03-25T12:16:25Z</time>
      </trkpt>
      <trkpt lat="42.88011" lon="0.13345">
        <ele>2007.8</ele>
        <time>2021-03-25T12:16:27Z</time>
      </trkpt>
      <trkpt lat="42.88011" lon="0.13345">
        <ele>2007.8</ele>
        <time>2021-03-25T12:16:28Z</time>
      </trkpt>
      <trkpt lat="42.88011" lon="0.13345">
        <ele>2007.8</ele>
        <time>2021-03-25T12:16:30Z</time>
      </trkpt>
      <trkpt lat="42.88011" lon="0.13345">
        <ele>2007.8</ele>
        <time>2021-03-25T12:16:31Z</time>
      </trkpt>
      <trkpt lat="42.88011" lon="0.13346">
        <ele>2007.8</ele>
        <time>2021-03-25T12:16:32Z</time>
      </trkpt>
      <trkpt lat="42.88012" lon="0.13346">
        <ele>2007.8</ele>
        <time>2021-03-25T12:16:33Z</time>
      </trkpt>
      <trkpt lat="42.88012" lon="0.13346">
        <ele>2005</ele>
        <time>2021-03-25T12:16:34Z</time>
      </trkpt>
      <trkpt lat="42.88012" lon="0.13346">
        <ele>2005</ele>
        <time>2021-03-25T12:16:35Z</time>
      </trkpt>
      <trkpt lat="42.88012" lon="0.13347">
        <ele>2005</ele>
        <time>2021-03-25T12:16:37Z</time>
      </trkpt>
      <trkpt lat="42.88012" lon="0.13347">
        <ele>2005</ele>
        <time>2021-03-25T12:16:38Z</time>
      </trkpt>
      <trkpt lat="42.88012" lon="0.13347">
        <ele>2005</ele>
        <time>2021-03-25T12:16:39Z</time>
      </trkpt>
      <trkpt lat="42.88012" lon="0.13347">
        <ele>2005</ele>
        <time>2021-03-25T12:16:41Z</time>
      </trkpt>
      <trkpt lat="42.88013" lon="0.13347">
        <ele>2005</ele>
        <time>2021-03-25T12:16:42Z</time>
      </trkpt>
      <trkpt lat="42.88013" lon="0.13347">
        <ele>2005</ele>
        <time>2021-03-25T12:16:43Z</time>
      </trkpt>
      <trkpt lat="42.88013" lon="0.13347">
        <ele>2005</ele>
        <time>2021-03-25T12:16:45Z</time>
      </trkpt>
      <trkpt lat="42.88013" lon="0.13348">
        <ele>2005</ele>
        <time>2021-03-25T12:16:46Z</time>
      </trkpt>
      <trkpt lat="42.88013" lon="0.13348">
        <ele>2005</ele>
        <time>2021-03-25T12:16:48Z</time>
      </trkpt>
      <trkpt lat="42.88013" lon="0.13348">
        <ele>2005</ele>
        <time>2021-03-25T12:16:49Z</time>
      </trkpt>
      <trkpt lat="42.88014" lon="0.13348">
        <ele>2005</ele>
        <time>2021-03-25T12:16:50Z</time>
      </trkpt>
      <trkpt lat="42.88014" lon="0.13349">
        <ele>2005</ele>
        <time>2021-03-25T12:16:51Z</time>
      </trkpt>
      <trkpt lat="42.88014" lon="0.13349">
        <ele>2005</ele>
        <time>2021-03-25T12:16:53Z</time>
      </trkpt>
      <trkpt lat="42.88014" lon="0.13349">
        <ele>2005</ele>
        <time>2021-03-25T12:16:54Z</time>
      </trkpt>
      <trkpt lat="42.88014" lon="0.13349">
        <ele>2005</ele>
        <time>2021-03-25T12:16:55Z</time>
      </trkpt>
      <trkpt lat="42.88014" lon="0.13349">
        <ele>2005</ele>
        <time>2021-03-25T12:16:56Z</time>
      </trkpt>
      <trkpt lat="42.88014" lon="0.13349">
        <ele>2005</ele>
        <time>2021-03-25T12:16:57Z</time>
      </trkpt>
      <trkpt lat="42.88014" lon="0.13349">
        <ele>2005</ele>
        <time>2021-03-25T12:16:59Z</time>
      </trkpt>
      <trkpt lat="42.88013" lon="0.13349">
        <ele>2005</ele>
        <time>2021-03-25T12:17:01Z</time>
      </trkpt>
      <trkpt lat="42.88013" lon="0.13349">
        <ele>2005</ele>
        <time>2021-03-25T12:17:02Z</time>
      </trkpt>
      <trkpt lat="42.88013" lon="0.13349">
        <ele>2005</ele>
        <time>2021-03-25T12:17:03Z</time>
      </trkpt>
      <trkpt lat="42.88013" lon="0.13349">
        <ele>2005</ele>
        <time>2021-03-25T12:17:05Z</time>
      </trkpt>
      <trkpt lat="42.88012" lon="0.13349">
        <ele>2005</ele>
        <time>2021-03-25T12:17:06Z</time>
      </trkpt>
      <trkpt lat="42.88012" lon="0.13349">
        <ele>2005</ele>
        <time>2021-03-25T12:17:07Z</time>
      </trkpt>
      <trkpt lat="42.88012" lon="0.13349">
        <ele>2005</ele>
        <time>2021-03-25T12:17:09Z</time>
      </trkpt>
      <trkpt lat="42.88012" lon="0.13349">
        <ele>2005</ele>
        <time>2021-03-25T12:17:11Z</time>
      </trkpt>
      <trkpt lat="42.88011" lon="0.1335">
        <ele>2007.8</ele>
        <time>2021-03-25T12:17:13Z</time>
      </trkpt>
      <trkpt lat="42.88011" lon="0.1335">
        <ele>2007.8</ele>
        <time>2021-03-25T12:17:15Z</time>
      </trkpt>
      <trkpt lat="42.88011" lon="0.1335">
        <ele>2007.8</ele>
        <time>2021-03-25T12:17:16Z</time>
      </trkpt>
      <trkpt lat="42.88011" lon="0.1335">
        <ele>2007.8</ele>
        <time>2021-03-25T12:17:18Z</time>
      </trkpt>
      <trkpt lat="42.88011" lon="0.13351">
        <ele>2007.8</ele>
        <time>2021-03-25T12:17:19Z</time>
      </trkpt>
      <trkpt lat="42.88011" lon="0.13351">
        <ele>2007.8</ele>
        <time>2021-03-25T12:17:21Z</time>
      </trkpt>
      <trkpt lat="42.8801" lon="0.13351">
        <ele>2007.8</ele>
        <time>2021-03-25T12:17:23Z</time>
      </trkpt>
      <trkpt lat="42.8801" lon="0.13352">
        <ele>2007.8</ele>
        <time>2021-03-25T12:17:24Z</time>
      </trkpt>
      <trkpt lat="42.8801" lon="0.13352">
        <ele>2007.8</ele>
        <time>2021-03-25T12:17:26Z</time>
      </trkpt>
      <trkpt lat="42.8801" lon="0.13352">
        <ele>2007.8</ele>
        <time>2021-03-25T12:17:27Z</time>
      </trkpt>
      <trkpt lat="42.8801" lon="0.13353">
        <ele>2007.8</ele>
        <time>2021-03-25T12:17:28Z</time>
      </trkpt>
      <trkpt lat="42.8801" lon="0.13353">
        <ele>2007.8</ele>
        <time>2021-03-25T12:17:30Z</time>
      </trkpt>
      <trkpt lat="42.88009" lon="0.13353">
        <ele>2007.8</ele>
        <time>2021-03-25T12:17:32Z</time>
      </trkpt>
      <trkpt lat="42.88009" lon="0.13353">
        <ele>2007.8</ele>
        <time>2021-03-25T12:17:34Z</time>
      </trkpt>
      <trkpt lat="42.88009" lon="0.13354">
        <ele>2007.8</ele>
        <time>2021-03-25T12:17:35Z</time>
      </trkpt>
      <trkpt lat="42.88009" lon="0.13354">
        <ele>2007.8</ele>
        <time>2021-03-25T12:17:37Z</time>
      </trkpt>
      <trkpt lat="42.88009" lon="0.13354">
        <ele>2007.8</ele>
        <time>2021-03-25T12:17:38Z</time>
      </trkpt>
      <trkpt lat="42.88009" lon="0.13354">
        <ele>2007.8</ele>
        <time>2021-03-25T12:17:40Z</time>
      </trkpt>
      <trkpt lat="42.88009" lon="0.13354">
        <ele>2007.8</ele>
        <time>2021-03-25T12:17:42Z</time>
      </trkpt>
      <trkpt lat="42.88009" lon="0.13354">
        <ele>2007.8</ele>
        <time>2021-03-25T12:17:44Z</time>
      </trkpt>
      <trkpt lat="42.88009" lon="0.13354">
        <ele>2007.8</ele>
        <time>2021-03-25T12:17:45Z</time>
      </trkpt>
      <trkpt lat="42.88009" lon="0.13354">
        <ele>2007.8</ele>
        <time>2021-03-25T12:17:47Z</time>
      </trkpt>
      <trkpt lat="42.88009" lon="0.13354">
        <ele>2007.8</ele>
        <time>2021-03-25T12:17:48Z</time>
      </trkpt>
      <trkpt lat="42.88009" lon="0.13355">
        <ele>2007.8</ele>
        <time>2021-03-25T12:17:50Z</time>
      </trkpt>
      <trkpt lat="42.88009" lon="0.13355">
        <ele>2007.8</ele>
        <time>2021-03-25T12:17:52Z</time>
      </trkpt>
      <trkpt lat="42.88009" lon="0.13355">
        <ele>2007.8</ele>
        <time>2021-03-25T12:17:53Z</time>
      </trkpt>
      <trkpt lat="42.88009" lon="0.13355">
        <ele>2007.8</ele>
        <time>2021-03-25T12:17:54Z</time>
      </trkpt>
      <trkpt lat="42.88009" lon="0.13355">
        <ele>2007.8</ele>
        <time>2021-03-25T12:17:56Z</time>
      </trkpt>
      <trkpt lat="42.88009" lon="0.13355">
        <ele>2007.8</ele>
        <time>2021-03-25T12:17:58Z</time>
      </trkpt>
      <trkpt lat="42.88009" lon="0.13355">
        <ele>2007.8</ele>
        <time>2021-03-25T12:17:59Z</time>
      </trkpt>
      <trkpt lat="42.88009" lon="0.13355">
        <ele>2007.8</ele>
        <time>2021-03-25T12:18:00Z</time>
      </trkpt>
      <trkpt lat="42.88009" lon="0.13355">
        <ele>2007.8</ele>
        <time>2021-03-25T12:18:01Z</time>
      </trkpt>
      <trkpt lat="42.88009" lon="0.13355">
        <ele>2007.8</ele>
        <time>2021-03-25T12:18:03Z</time>
      </trkpt>
      <trkpt lat="42.88008" lon="0.13355">
        <ele>2007.8</ele>
        <time>2021-03-25T12:18:05Z</time>
      </trkpt>
      <trkpt lat="42.88008" lon="0.13355">
        <ele>2010.8</ele>
        <time>2021-03-25T12:18:06Z</time>
      </trkpt>
      <trkpt lat="42.88008" lon="0.13355">
        <ele>2010.8</ele>
        <time>2021-03-25T12:18:07Z</time>
      </trkpt>
      <trkpt lat="42.88008" lon="0.13355">
        <ele>2010.8</ele>
        <time>2021-03-25T12:18:09Z</time>
      </trkpt>
      <trkpt lat="42.88008" lon="0.13355">
        <ele>2010.8</ele>
        <time>2021-03-25T12:18:11Z</time>
      </trkpt>
      <trkpt lat="42.88008" lon="0.13355">
        <ele>2010.8</ele>
        <time>2021-03-25T12:18:13Z</time>
      </trkpt>
      <trkpt lat="42.88008" lon="0.13355">
        <ele>2010.8</ele>
        <time>2021-03-25T12:18:15Z</time>
      </trkpt>
      <trkpt lat="42.88008" lon="0.13355">
        <ele>2010.8</ele>
        <time>2021-03-25T12:18:17Z</time>
      </trkpt>
      <trkpt lat="42.88008" lon="0.13355">
        <ele>2010.8</ele>
        <time>2021-03-25T12:18:18Z</time>
      </trkpt>
      <trkpt lat="42.88008" lon="0.13355">
        <ele>2010.8</ele>
        <time>2021-03-25T12:18:19Z</time>
      </trkpt>
      <trkpt lat="42.88008" lon="0.13355">
        <ele>2010.8</ele>
        <time>2021-03-25T12:18:21Z</time>
      </trkpt>
      <trkpt lat="42.88008" lon="0.13355">
        <ele>2010.8</ele>
        <time>2021-03-25T12:18:22Z</time>
      </trkpt>
      <trkpt lat="42.88008" lon="0.13353">
        <ele>2010.8</ele>
        <time>2021-03-25T12:18:24Z</time>
      </trkpt>
      <trkpt lat="42.88008" lon="0.13352">
        <ele>2010.8</ele>
        <time>2021-03-25T12:18:25Z</time>
      </trkpt>
      <trkpt lat="42.88008" lon="0.13352">
        <ele>2010.8</ele>
        <time>2021-03-25T12:18:27Z</time>
      </trkpt>
      <trkpt lat="42.88008" lon="0.13352">
        <ele>2010.8</ele>
        <time>2021-03-25T12:18:28Z</time>
      </trkpt>
      <trkpt lat="42.88008" lon="0.13352">
        <ele>2010.8</ele>
        <time>2021-03-25T12:18:29Z</time>
      </trkpt>
      <trkpt lat="42.88008" lon="0.13352">
        <ele>2010.8</ele>
        <time>2021-03-25T12:18:31Z</time>
      </trkpt>
      <trkpt lat="42.88008" lon="0.13352">
        <ele>2010.8</ele>
        <time>2021-03-25T12:18:32Z</time>
      </trkpt>
      <trkpt lat="42.88008" lon="0.13352">
        <ele>2010.8</ele>
        <time>2021-03-25T12:18:34Z</time>
      </trkpt>
      <trkpt lat="42.88008" lon="0.13352">
        <ele>2010.8</ele>
        <time>2021-03-25T12:18:35Z</time>
      </trkpt>
      <trkpt lat="42.88008" lon="0.13352">
        <ele>2010.8</ele>
        <time>2021-03-25T12:18:36Z</time>
      </trkpt>
      <trkpt lat="42.88008" lon="0.13352">
        <ele>2010.8</ele>
        <time>2021-03-25T12:18:38Z</time>
      </trkpt>
      <trkpt lat="42.88008" lon="0.13352">
        <ele>2010.8</ele>
        <time>2021-03-25T12:18:39Z</time>
      </trkpt>
      <trkpt lat="42.88008" lon="0.13352">
        <ele>2010.8</ele>
        <time>2021-03-25T12:18:40Z</time>
      </trkpt>
      <trkpt lat="42.88008" lon="0.13352">
        <ele>2010.8</ele>
        <time>2021-03-25T12:18:41Z</time>
      </trkpt>
      <trkpt lat="42.88008" lon="0.13352">
        <ele>2010.8</ele>
        <time>2021-03-25T12:18:42Z</time>
      </trkpt>
      <trkpt lat="42.88008" lon="0.13352">
        <ele>2010.8</ele>
        <time>2021-03-25T12:18:43Z</time>
      </trkpt>
      <trkpt lat="42.88008" lon="0.13353">
        <ele>2010.8</ele>
        <time>2021-03-25T12:18:45Z</time>
      </trkpt>
      <trkpt lat="42.88008" lon="0.13353">
        <ele>2007.8</ele>
        <time>2021-03-25T12:18:46Z</time>
      </trkpt>
      <trkpt lat="42.88009" lon="0.13353">
        <ele>2007.8</ele>
        <time>2021-03-25T12:18:48Z</time>
      </trkpt>
      <trkpt lat="42.88009" lon="0.13354">
        <ele>2007.8</ele>
        <time>2021-03-25T12:18:50Z</time>
      </trkpt>
      <trkpt lat="42.88009" lon="0.13354">
        <ele>2007.8</ele>
        <time>2021-03-25T12:18:51Z</time>
      </trkpt>
      <trkpt lat="42.88009" lon="0.13355">
        <ele>2007.8</ele>
        <time>2021-03-25T12:18:53Z</time>
      </trkpt>
      <trkpt lat="42.8801" lon="0.13356">
        <ele>2007.8</ele>
        <time>2021-03-25T12:18:55Z</time>
      </trkpt>
      <trkpt lat="42.8801" lon="0.13356">
        <ele>2007.8</ele>
        <time>2021-03-25T12:18:56Z</time>
      </trkpt>
      <trkpt lat="42.8801" lon="0.13357">
        <ele>2007.8</ele>
        <time>2021-03-25T12:18:57Z</time>
      </trkpt>
      <trkpt lat="42.8801" lon="0.13357">
        <ele>2007.8</ele>
        <time>2021-03-25T12:18:58Z</time>
      </trkpt>
      <trkpt lat="42.88011" lon="0.13357">
        <ele>2007.8</ele>
        <time>2021-03-25T12:18:59Z</time>
      </trkpt>
      <trkpt lat="42.88011" lon="0.13358">
        <ele>2007.8</ele>
        <time>2021-03-25T12:19:01Z</time>
      </trkpt>
      <trkpt lat="42.88011" lon="0.13358">
        <ele>2007.8</ele>
        <time>2021-03-25T12:19:02Z</time>
      </trkpt>
      <trkpt lat="42.88011" lon="0.13358">
        <ele>2007.8</ele>
        <time>2021-03-25T12:19:04Z</time>
      </trkpt>
      <trkpt lat="42.88011" lon="0.13359">
        <ele>2007.8</ele>
        <time>2021-03-25T12:19:06Z</time>
      </trkpt>
      <trkpt lat="42.88011" lon="0.1336">
        <ele>2007.8</ele>
        <time>2021-03-25T12:19:07Z</time>
      </trkpt>
      <trkpt lat="42.88011" lon="0.1336">
        <ele>2007.8</ele>
        <time>2021-03-25T12:19:08Z</time>
      </trkpt>
      <trkpt lat="42.88011" lon="0.1336">
        <ele>2007.8</ele>
        <time>2021-03-25T12:19:10Z</time>
      </trkpt>
      <trkpt lat="42.88011" lon="0.13361">
        <ele>2007.8</ele>
        <time>2021-03-25T12:19:11Z</time>
      </trkpt>
      <trkpt lat="42.88011" lon="0.13361">
        <ele>2007.8</ele>
        <time>2021-03-25T12:19:12Z</time>
      </trkpt>
      <trkpt lat="42.88011" lon="0.13361">
        <ele>2007.8</ele>
        <time>2021-03-25T12:19:13Z</time>
      </trkpt>
      <trkpt lat="42.88011" lon="0.13361">
        <ele>2007.8</ele>
        <time>2021-03-25T12:19:15Z</time>
      </trkpt>
      <trkpt lat="42.88011" lon="0.13362">
        <ele>2007.8</ele>
        <time>2021-03-25T12:19:16Z</time>
      </trkpt>
      <trkpt lat="42.88011" lon="0.13362">
        <ele>2007.8</ele>
        <time>2021-03-25T12:19:17Z</time>
      </trkpt>
      <trkpt lat="42.88011" lon="0.13362">
        <ele>2007.8</ele>
        <time>2021-03-25T12:19:19Z</time>
      </trkpt>
      <trkpt lat="42.88011" lon="0.13363">
        <ele>2007.8</ele>
        <time>2021-03-25T12:19:20Z</time>
      </trkpt>
      <trkpt lat="42.88011" lon="0.13364">
        <ele>2007.8</ele>
        <time>2021-03-25T12:19:22Z</time>
      </trkpt>
      <trkpt lat="42.88011" lon="0.13364">
        <ele>2007.8</ele>
        <time>2021-03-25T12:19:23Z</time>
      </trkpt>
      <trkpt lat="42.88012" lon="0.13364">
        <ele>2007.7</ele>
        <time>2021-03-25T12:19:24Z</time>
      </trkpt>
      <trkpt lat="42.88012" lon="0.13365">
        <ele>2004.9</ele>
        <time>2021-03-25T12:19:26Z</time>
      </trkpt>
      <trkpt lat="42.88012" lon="0.13366">
        <ele>2004.9</ele>
        <time>2021-03-25T12:19:27Z</time>
      </trkpt>
      <trkpt lat="42.88012" lon="0.13366">
        <ele>2004.9</ele>
        <time>2021-03-25T12:19:29Z</time>
      </trkpt>
      <trkpt lat="42.88012" lon="0.13367">
        <ele>2004.9</ele>
        <time>2021-03-25T12:19:30Z</time>
      </trkpt>
      <trkpt lat="42.88012" lon="0.13368">
        <ele>2004.9</ele>
        <time>2021-03-25T12:19:32Z</time>
      </trkpt>
      <trkpt lat="42.88012" lon="0.13369">
        <ele>2004.9</ele>
        <time>2021-03-25T12:19:34Z</time>
      </trkpt>
      <trkpt lat="42.88012" lon="0.1337">
        <ele>2004.9</ele>
        <time>2021-03-25T12:19:35Z</time>
      </trkpt>
      <trkpt lat="42.88012" lon="0.1337">
        <ele>2004.9</ele>
        <time>2021-03-25T12:19:36Z</time>
      </trkpt>
      <trkpt lat="42.88012" lon="0.13372">
        <ele>2004.9</ele>
        <time>2021-03-25T12:19:38Z</time>
      </trkpt>
      <trkpt lat="42.88012" lon="0.13373">
        <ele>2004.8</ele>
        <time>2021-03-25T12:19:40Z</time>
      </trkpt>
      <trkpt lat="42.88012" lon="0.13374">
        <ele>2004.8</ele>
        <time>2021-03-25T12:19:41Z</time>
      </trkpt>
      <trkpt lat="42.88012" lon="0.13376">
        <ele>2004.8</ele>
        <time>2021-03-25T12:19:42Z</time>
      </trkpt>
      <trkpt lat="42.88012" lon="0.13378">
        <ele>2004.7</ele>
        <time>2021-03-25T12:19:44Z</time>
      </trkpt>
      <trkpt lat="42.88012" lon="0.13379">
        <ele>2004.7</ele>
        <time>2021-03-25T12:19:45Z</time>
      </trkpt>
      <trkpt lat="42.88012" lon="0.1338">
        <ele>2004.7</ele>
        <time>2021-03-25T12:19:46Z</time>
      </trkpt>
      <trkpt lat="42.88013" lon="0.13381">
        <ele>2004.7</ele>
        <time>2021-03-25T12:19:48Z</time>
      </trkpt>
      <trkpt lat="42.88013" lon="0.13381">
        <ele>2004.6</ele>
        <time>2021-03-25T12:19:49Z</time>
      </trkpt>
      <trkpt lat="42.88013" lon="0.13381">
        <ele>2004.6</ele>
        <time>2021-03-25T12:19:51Z</time>
      </trkpt>
      <trkpt lat="42.88014" lon="0.13382">
        <ele>2004.6</ele>
        <time>2021-03-25T12:19:53Z</time>
      </trkpt>
      <trkpt lat="42.88015" lon="0.13382">
        <ele>2004.6</ele>
        <time>2021-03-25T12:19:55Z</time>
      </trkpt>
      <trkpt lat="42.88015" lon="0.13383">
        <ele>2001.8</ele>
        <time>2021-03-25T12:19:56Z</time>
      </trkpt>
      <trkpt lat="42.88015" lon="0.13384">
        <ele>2001.8</ele>
        <time>2021-03-25T12:19:57Z</time>
      </trkpt>
      <trkpt lat="42.88016" lon="0.13385">
        <ele>2001.8</ele>
        <time>2021-03-25T12:19:58Z</time>
      </trkpt>
      <trkpt lat="42.88015" lon="0.13385">
        <ele>2001.8</ele>
        <time>2021-03-25T12:20:00Z</time>
      </trkpt>
      <trkpt lat="42.88015" lon="0.13385">
        <ele>2001.8</ele>
        <time>2021-03-25T12:20:01Z</time>
      </trkpt>
      <trkpt lat="42.88015" lon="0.13385">
        <ele>2004.6</ele>
        <time>2021-03-25T12:20:02Z</time>
      </trkpt>
      <trkpt lat="42.88014" lon="0.13385">
        <ele>2004.6</ele>
        <time>2021-03-25T12:20:04Z</time>
      </trkpt>
      <trkpt lat="42.88014" lon="0.13385">
        <ele>2004.6</ele>
        <time>2021-03-25T12:20:05Z</time>
      </trkpt>
      <trkpt lat="42.88014" lon="0.13386">
        <ele>2004.5</ele>
        <time>2021-03-25T12:20:06Z</time>
      </trkpt>
      <trkpt lat="42.88014" lon="0.13386">
        <ele>2004.5</ele>
        <time>2021-03-25T12:20:07Z</time>
      </trkpt>
      <trkpt lat="42.88014" lon="0.13386">
        <ele>2004.5</ele>
        <time>2021-03-25T12:20:09Z</time>
      </trkpt>
      <trkpt lat="42.88014" lon="0.13387">
        <ele>2004.5</ele>
        <time>2021-03-25T12:20:10Z</time>
      </trkpt>
      <trkpt lat="42.88014" lon="0.13387">
        <ele>2004.5</ele>
        <time>2021-03-25T12:20:12Z</time>
      </trkpt>
      <trkpt lat="42.88014" lon="0.13387">
        <ele>2004.5</ele>
        <time>2021-03-25T12:20:13Z</time>
      </trkpt>
      <trkpt lat="42.88014" lon="0.13387">
        <ele>2004.5</ele>
        <time>2021-03-25T12:20:15Z</time>
      </trkpt>
      <trkpt lat="42.88013" lon="0.13387">
        <ele>2004.5</ele>
        <time>2021-03-25T12:20:17Z</time>
      </trkpt>
      <trkpt lat="42.88014" lon="0.13387">
        <ele>2004.5</ele>
        <time>2021-03-25T12:20:18Z</time>
      </trkpt>
      <trkpt lat="42.88014" lon="0.13387">
        <ele>2004.5</ele>
        <time>2021-03-25T12:20:19Z</time>
      </trkpt>
      <trkpt lat="42.88014" lon="0.13388">
        <ele>2004.5</ele>
        <time>2021-03-25T12:20:21Z</time>
      </trkpt>
      <trkpt lat="42.88014" lon="0.13388">
        <ele>2004.5</ele>
        <time>2021-03-25T12:20:22Z</time>
      </trkpt>
      <trkpt lat="42.88014" lon="0.13388">
        <ele>2004.5</ele>
        <time>2021-03-25T12:20:24Z</time>
      </trkpt>
      <trkpt lat="42.88014" lon="0.13389">
        <ele>2004.5</ele>
        <time>2021-03-25T12:20:25Z</time>
      </trkpt>
      <trkpt lat="42.88014" lon="0.13389">
        <ele>2004.5</ele>
        <time>2021-03-25T12:20:26Z</time>
      </trkpt>
      <trkpt lat="42.88014" lon="0.13389">
        <ele>2004.5</ele>
        <time>2021-03-25T12:20:28Z</time>
      </trkpt>
      <trkpt lat="42.88014" lon="0.1339">
        <ele>2004.5</ele>
        <time>2021-03-25T12:20:30Z</time>
      </trkpt>
      <trkpt lat="42.88014" lon="0.1339">
        <ele>2004.4</ele>
        <time>2021-03-25T12:20:31Z</time>
      </trkpt>
      <trkpt lat="42.88014" lon="0.1339">
        <ele>2004.4</ele>
        <time>2021-03-25T12:20:32Z</time>
      </trkpt>
      <trkpt lat="42.88014" lon="0.1339">
        <ele>2004.4</ele>
        <time>2021-03-25T12:20:33Z</time>
      </trkpt>
      <trkpt lat="42.88014" lon="0.1339">
        <ele>2004.4</ele>
        <time>2021-03-25T12:20:34Z</time>
      </trkpt>
      <trkpt lat="42.88014" lon="0.1339">
        <ele>2004.4</ele>
        <time>2021-03-25T12:20:35Z</time>
      </trkpt>
      <trkpt lat="42.88014" lon="0.1339">
        <ele>2004.4</ele>
        <time>2021-03-25T12:20:37Z</time>
      </trkpt>
      <trkpt lat="42.88014" lon="0.1339">
        <ele>2004.4</ele>
        <time>2021-03-25T12:20:38Z</time>
      </trkpt>
      <trkpt lat="42.88014" lon="0.1339">
        <ele>2004.4</ele>
        <time>2021-03-25T12:20:39Z</time>
      </trkpt>
      <trkpt lat="42.88014" lon="0.1339">
        <ele>2004.4</ele>
        <time>2021-03-25T12:20:41Z</time>
      </trkpt>
      <trkpt lat="42.88014" lon="0.1339">
        <ele>2004.4</ele>
        <time>2021-03-25T12:20:43Z</time>
      </trkpt>
      <trkpt lat="42.88014" lon="0.1339">
        <ele>2004.4</ele>
        <time>2021-03-25T12:20:44Z</time>
      </trkpt>
      <trkpt lat="42.88013" lon="0.1339">
        <ele>2004.4</ele>
        <time>2021-03-25T12:20:45Z</time>
      </trkpt>
      <trkpt lat="42.88014" lon="0.13391">
        <ele>2004.4</ele>
        <time>2021-03-25T12:20:47Z</time>
      </trkpt>
      <trkpt lat="42.88014" lon="0.13391">
        <ele>2004.4</ele>
        <time>2021-03-25T12:20:48Z</time>
      </trkpt>
      <trkpt lat="42.88014" lon="0.13391">
        <ele>2004.4</ele>
        <time>2021-03-25T12:20:50Z</time>
      </trkpt>
      <trkpt lat="42.88014" lon="0.13391">
        <ele>2004.4</ele>
        <time>2021-03-25T12:20:51Z</time>
      </trkpt>
      <trkpt lat="42.88014" lon="0.13391">
        <ele>2004.4</ele>
        <time>2021-03-25T12:20:52Z</time>
      </trkpt>
      <trkpt lat="42.88014" lon="0.13391">
        <ele>2004.4</ele>
        <time>2021-03-25T12:20:54Z</time>
      </trkpt>
      <trkpt lat="42.88014" lon="0.13391">
        <ele>2004.4</ele>
        <time>2021-03-25T12:20:55Z</time>
      </trkpt>
      <trkpt lat="42.88014" lon="0.1339">
        <ele>2004.4</ele>
        <time>2021-03-25T12:20:57Z</time>
      </trkpt>
      <trkpt lat="42.88014" lon="0.13391">
        <ele>2004.4</ele>
        <time>2021-03-25T12:20:59Z</time>
      </trkpt>
      <trkpt lat="42.88014" lon="0.1339">
        <ele>2004.4</ele>
        <time>2021-03-25T12:21:00Z</time>
      </trkpt>
      <trkpt lat="42.88014" lon="0.1339">
        <ele>2004.4</ele>
        <time>2021-03-25T12:21:02Z</time>
      </trkpt>
      <trkpt lat="42.88014" lon="0.1339">
        <ele>2004.4</ele>
        <time>2021-03-25T12:21:03Z</time>
      </trkpt>
      <trkpt lat="42.88014" lon="0.1339">
        <ele>2004.4</ele>
        <time>2021-03-25T12:21:05Z</time>
      </trkpt>
      <trkpt lat="42.88014" lon="0.1339">
        <ele>2004.4</ele>
        <time>2021-03-25T12:21:07Z</time>
      </trkpt>
      <trkpt lat="42.88014" lon="0.13391">
        <ele>2004.4</ele>
        <time>2021-03-25T12:21:09Z</time>
      </trkpt>
      <trkpt lat="42.88014" lon="0.13391">
        <ele>2004.4</ele>
        <time>2021-03-25T12:21:10Z</time>
      </trkpt>
      <trkpt lat="42.88014" lon="0.13391">
        <ele>2004.4</ele>
        <time>2021-03-25T12:21:12Z</time>
      </trkpt>
      <trkpt lat="42.88014" lon="0.13391">
        <ele>2004.4</ele>
        <time>2021-03-25T12:21:13Z</time>
      </trkpt>
      <trkpt lat="42.88014" lon="0.13392">
        <ele>2004.4</ele>
        <time>2021-03-25T12:21:15Z</time>
      </trkpt>
      <trkpt lat="42.88015" lon="0.13392">
        <ele>2004.4</ele>
        <time>2021-03-25T12:21:16Z</time>
      </trkpt>
      <trkpt lat="42.88015" lon="0.13392">
        <ele>2001.6</ele>
        <time>2021-03-25T12:21:17Z</time>
      </trkpt>
      <trkpt lat="42.88015" lon="0.13392">
        <ele>2001.6</ele>
        <time>2021-03-25T12:21:19Z</time>
      </trkpt>
      <trkpt lat="42.88015" lon="0.13392">
        <ele>2001.6</ele>
        <time>2021-03-25T12:21:21Z</time>
      </trkpt>
      <trkpt lat="42.88015" lon="0.13392">
        <ele>2001.6</ele>
        <time>2021-03-25T12:21:22Z</time>
      </trkpt>
      <trkpt lat="42.88015" lon="0.13392">
        <ele>2001.6</ele>
        <time>2021-03-25T12:21:24Z</time>
      </trkpt>
      <trkpt lat="42.88016" lon="0.13392">
        <ele>2001.6</ele>
        <time>2021-03-25T12:21:25Z</time>
      </trkpt>
      <trkpt lat="42.88016" lon="0.13392">
        <ele>2001.6</ele>
        <time>2021-03-25T12:21:26Z</time>
      </trkpt>
      <trkpt lat="42.88016" lon="0.13392">
        <ele>2001.6</ele>
        <time>2021-03-25T12:21:28Z</time>
      </trkpt>
      <trkpt lat="42.88016" lon="0.13392">
        <ele>2001.6</ele>
        <time>2021-03-25T12:21:29Z</time>
      </trkpt>
      <trkpt lat="42.88016" lon="0.13392">
        <ele>2001.6</ele>
        <time>2021-03-25T12:21:31Z</time>
      </trkpt>
      <trkpt lat="42.88016" lon="0.13392">
        <ele>2001.6</ele>
        <time>2021-03-25T12:21:32Z</time>
      </trkpt>
      <trkpt lat="42.88017" lon="0.13392">
        <ele>2001.6</ele>
        <time>2021-03-25T12:21:33Z</time>
      </trkpt>
      <trkpt lat="42.88017" lon="0.13392">
        <ele>2001.6</ele>
        <time>2021-03-25T12:21:35Z</time>
      </trkpt>
      <trkpt lat="42.88017" lon="0.13392">
        <ele>2001.6</ele>
        <time>2021-03-25T12:21:36Z</time>
      </trkpt>
      <trkpt lat="42.88017" lon="0.13392">
        <ele>2001.6</ele>
        <time>2021-03-25T12:21:37Z</time>
      </trkpt>
      <trkpt lat="42.88017" lon="0.13392">
        <ele>2001.6</ele>
        <time>2021-03-25T12:21:38Z</time>
      </trkpt>
      <trkpt lat="42.88017" lon="0.13391">
        <ele>2001.6</ele>
        <time>2021-03-25T12:21:40Z</time>
      </trkpt>
      <trkpt lat="42.88016" lon="0.13391">
        <ele>2001.6</ele>
        <time>2021-03-25T12:21:42Z</time>
      </trkpt>
      <trkpt lat="42.88016" lon="0.1339">
        <ele>2001.6</ele>
        <time>2021-03-25T12:21:43Z</time>
      </trkpt>
      <trkpt lat="42.88016" lon="0.1339">
        <ele>2001.6</ele>
        <time>2021-03-25T12:21:45Z</time>
      </trkpt>
      <trkpt lat="42.88016" lon="0.1339">
        <ele>2001.6</ele>
        <time>2021-03-25T12:21:47Z</time>
      </trkpt>
      <trkpt lat="42.88016" lon="0.1339">
        <ele>2001.6</ele>
        <time>2021-03-25T12:21:49Z</time>
      </trkpt>
      <trkpt lat="42.88016" lon="0.1339">
        <ele>2001.6</ele>
        <time>2021-03-25T12:21:51Z</time>
      </trkpt>
      <trkpt lat="42.88016" lon="0.1339">
        <ele>2001.6</ele>
        <time>2021-03-25T12:21:52Z</time>
      </trkpt>
      <trkpt lat="42.88016" lon="0.1339">
        <ele>2001.7</ele>
        <time>2021-03-25T12:21:54Z</time>
      </trkpt>
      <trkpt lat="42.88016" lon="0.13389">
        <ele>2001.7</ele>
        <time>2021-03-25T12:21:55Z</time>
      </trkpt>
      <trkpt lat="42.88015" lon="0.13389">
        <ele>2001.7</ele>
        <time>2021-03-25T12:21:57Z</time>
      </trkpt>
      <trkpt lat="42.88015" lon="0.13388">
        <ele>2001.7</ele>
        <time>2021-03-25T12:21:58Z</time>
      </trkpt>
      <trkpt lat="42.88015" lon="0.13388">
        <ele>2001.7</ele>
        <time>2021-03-25T12:21:59Z</time>
      </trkpt>
      <trkpt lat="42.88015" lon="0.13388">
        <ele>2001.7</ele>
        <time>2021-03-25T12:22:01Z</time>
      </trkpt>
      <trkpt lat="42.88015" lon="0.13387">
        <ele>2001.7</ele>
        <time>2021-03-25T12:22:02Z</time>
      </trkpt>
      <trkpt lat="42.88015" lon="0.13387">
        <ele>2001.7</ele>
        <time>2021-03-25T12:22:04Z</time>
      </trkpt>
      <trkpt lat="42.88015" lon="0.13387">
        <ele>2001.7</ele>
        <time>2021-03-25T12:22:06Z</time>
      </trkpt>
      <trkpt lat="42.88015" lon="0.13387">
        <ele>2001.7</ele>
        <time>2021-03-25T12:22:08Z</time>
      </trkpt>
      <trkpt lat="42.88015" lon="0.13387">
        <ele>2001.7</ele>
        <time>2021-03-25T12:22:09Z</time>
      </trkpt>
      <trkpt lat="42.88015" lon="0.13387">
        <ele>2001.7</ele>
        <time>2021-03-25T12:22:10Z</time>
      </trkpt>
      <trkpt lat="42.88015" lon="0.13387">
        <ele>2001.7</ele>
        <time>2021-03-25T12:22:12Z</time>
      </trkpt>
      <trkpt lat="42.88015" lon="0.13387">
        <ele>2001.7</ele>
        <time>2021-03-25T12:22:13Z</time>
      </trkpt>
      <trkpt lat="42.88015" lon="0.13387">
        <ele>2001.7</ele>
        <time>2021-03-25T12:22:15Z</time>
      </trkpt>
      <trkpt lat="42.88015" lon="0.13387">
        <ele>2001.7</ele>
        <time>2021-03-25T12:22:17Z</time>
      </trkpt>
      <trkpt lat="42.88015" lon="0.13387">
        <ele>2001.7</ele>
        <time>2021-03-25T12:22:19Z</time>
      </trkpt>
      <trkpt lat="42.88014" lon="0.13387">
        <ele>2004.5</ele>
        <time>2021-03-25T12:22:21Z</time>
      </trkpt>
      <trkpt lat="42.88014" lon="0.13387">
        <ele>2004.5</ele>
        <time>2021-03-25T12:22:22Z</time>
      </trkpt>
      <trkpt lat="42.88013" lon="0.13388">
        <ele>2004.5</ele>
        <time>2021-03-25T12:22:23Z</time>
      </trkpt>
      <trkpt lat="42.88014" lon="0.13387">
        <ele>2004.5</ele>
        <time>2021-03-25T12:22:25Z</time>
      </trkpt>
      <trkpt lat="42.88015" lon="0.13387">
        <ele>2004.5</ele>
        <time>2021-03-25T12:22:26Z</time>
      </trkpt>
      <trkpt lat="42.88015" lon="0.13387">
        <ele>2004.5</ele>
        <time>2021-03-25T12:22:28Z</time>
      </trkpt>
      <trkpt lat="42.88015" lon="0.13387">
        <ele>2001.7</ele>
        <time>2021-03-25T12:22:29Z</time>
      </trkpt>
      <trkpt lat="42.88015" lon="0.13387">
        <ele>2001.7</ele>
        <time>2021-03-25T12:22:30Z</time>
      </trkpt>
      <trkpt lat="42.88015" lon="0.13387">
        <ele>2001.7</ele>
        <time>2021-03-25T12:22:32Z</time>
      </trkpt>
      <trkpt lat="42.88015" lon="0.13387">
        <ele>2001.7</ele>
        <time>2021-03-25T12:22:33Z</time>
      </trkpt>
      <trkpt lat="42.88015" lon="0.13387">
        <ele>2001.7</ele>
        <time>2021-03-25T12:22:34Z</time>
      </trkpt>
      <trkpt lat="42.88015" lon="0.13387">
        <ele>2001.7</ele>
        <time>2021-03-25T12:22:35Z</time>
      </trkpt>
      <trkpt lat="42.88015" lon="0.13387">
        <ele>2001.7</ele>
        <time>2021-03-25T12:22:37Z</time>
      </trkpt>
      <trkpt lat="42.88015" lon="0.13387">
        <ele>2001.7</ele>
        <time>2021-03-25T12:22:38Z</time>
      </trkpt>
      <trkpt lat="42.88015" lon="0.13387">
        <ele>2001.7</ele>
        <time>2021-03-25T12:22:40Z</time>
      </trkpt>
      <trkpt lat="42.88016" lon="0.13387">
        <ele>2001.7</ele>
        <time>2021-03-25T12:22:41Z</time>
      </trkpt>
      <trkpt lat="42.88016" lon="0.13388">
        <ele>2001.7</ele>
        <time>2021-03-25T12:22:42Z</time>
      </trkpt>
      <trkpt lat="42.88016" lon="0.13388">
        <ele>2001.7</ele>
        <time>2021-03-25T12:22:44Z</time>
      </trkpt>
      <trkpt lat="42.88016" lon="0.13388">
        <ele>2001.7</ele>
        <time>2021-03-25T12:22:45Z</time>
      </trkpt>
      <trkpt lat="42.88017" lon="0.13388">
        <ele>2001.7</ele>
        <time>2021-03-25T12:22:47Z</time>
      </trkpt>
      <trkpt lat="42.88017" lon="0.13388">
        <ele>2001.7</ele>
        <time>2021-03-25T12:22:48Z</time>
      </trkpt>
      <trkpt lat="42.88017" lon="0.13388">
        <ele>2001.7</ele>
        <time>2021-03-25T12:22:49Z</time>
      </trkpt>
      <trkpt lat="42.88017" lon="0.13388">
        <ele>2001.7</ele>
        <time>2021-03-25T12:22:51Z</time>
      </trkpt>
      <trkpt lat="42.88017" lon="0.13388">
        <ele>2001.7</ele>
        <time>2021-03-25T12:22:53Z</time>
      </trkpt>
      <trkpt lat="42.88018" lon="0.13388">
        <ele>2001.7</ele>
        <time>2021-03-25T12:22:54Z</time>
      </trkpt>
      <trkpt lat="42.88018" lon="0.13388">
        <ele>2001.7</ele>
        <time>2021-03-25T12:22:55Z</time>
      </trkpt>
      <trkpt lat="42.88018" lon="0.13388">
        <ele>2001.7</ele>
        <time>2021-03-25T12:22:56Z</time>
      </trkpt>
      <trkpt lat="42.88018" lon="0.13389">
        <ele>1998.8</ele>
        <time>2021-03-25T12:22:58Z</time>
      </trkpt>
      <trkpt lat="42.88018" lon="0.13389">
        <ele>1998.8</ele>
        <time>2021-03-25T12:22:59Z</time>
      </trkpt>
      <trkpt lat="42.88019" lon="0.13389">
        <ele>1998.8</ele>
        <time>2021-03-25T12:23:01Z</time>
      </trkpt>
      <trkpt lat="42.88019" lon="0.13389">
        <ele>1998.8</ele>
        <time>2021-03-25T12:23:02Z</time>
      </trkpt>
      <trkpt lat="42.88019" lon="0.13389">
        <ele>1998.8</ele>
        <time>2021-03-25T12:23:03Z</time>
      </trkpt>
      <trkpt lat="42.8802" lon="0.13389">
        <ele>1998.8</ele>
        <time>2021-03-25T12:23:04Z</time>
      </trkpt>
      <trkpt lat="42.8802" lon="0.13389">
        <ele>1998.8</ele>
        <time>2021-03-25T12:23:06Z</time>
      </trkpt>
      <trkpt lat="42.8802" lon="0.13389">
        <ele>1998.8</ele>
        <time>2021-03-25T12:23:07Z</time>
      </trkpt>
      <trkpt lat="42.8802" lon="0.13389">
        <ele>1998.8</ele>
        <time>2021-03-25T12:23:09Z</time>
      </trkpt>
      <trkpt lat="42.88021" lon="0.13389">
        <ele>1998.8</ele>
        <time>2021-03-25T12:23:10Z</time>
      </trkpt>
      <trkpt lat="42.88021" lon="0.13389">
        <ele>1995.8</ele>
        <time>2021-03-25T12:23:12Z</time>
      </trkpt>
      <trkpt lat="42.88021" lon="0.13389">
        <ele>1998.8</ele>
        <time>2021-03-25T12:23:13Z</time>
      </trkpt>
      <trkpt lat="42.8802" lon="0.13389">
        <ele>1998.8</ele>
        <time>2021-03-25T12:23:14Z</time>
      </trkpt>
      <trkpt lat="42.88019" lon="0.13389">
        <ele>1998.8</ele>
        <time>2021-03-25T12:23:16Z</time>
      </trkpt>
      <trkpt lat="42.88019" lon="0.13389">
        <ele>1998.8</ele>
        <time>2021-03-25T12:23:17Z</time>
      </trkpt>
      <trkpt lat="42.88018" lon="0.1339">
        <ele>1998.8</ele>
        <time>2021-03-25T12:23:19Z</time>
      </trkpt>
      <trkpt lat="42.88018" lon="0.1339">
        <ele>1998.7</ele>
        <time>2021-03-25T12:23:20Z</time>
      </trkpt>
      <trkpt lat="42.88018" lon="0.1339">
        <ele>1998.7</ele>
        <time>2021-03-25T12:23:21Z</time>
      </trkpt>
      <trkpt lat="42.88018" lon="0.1339">
        <ele>2001.6</ele>
        <time>2021-03-25T12:23:22Z</time>
      </trkpt>
      <trkpt lat="42.88018" lon="0.1339">
        <ele>1998.7</ele>
        <time>2021-03-25T12:23:24Z</time>
      </trkpt>
      <trkpt lat="42.88018" lon="0.1339">
        <ele>1998.7</ele>
        <time>2021-03-25T12:23:25Z</time>
      </trkpt>
      <trkpt lat="42.88018" lon="0.13391">
        <ele>1998.7</ele>
        <time>2021-03-25T12:23:27Z</time>
      </trkpt>
      <trkpt lat="42.88019" lon="0.13391">
        <ele>1998.7</ele>
        <time>2021-03-25T12:23:28Z</time>
      </trkpt>
      <trkpt lat="42.88019" lon="0.13391">
        <ele>1998.7</ele>
        <time>2021-03-25T12:23:30Z</time>
      </trkpt>
      <trkpt lat="42.88019" lon="0.13391">
        <ele>1998.7</ele>
        <time>2021-03-25T12:23:32Z</time>
      </trkpt>
      <trkpt lat="42.88019" lon="0.13391">
        <ele>1998.7</ele>
        <time>2021-03-25T12:23:34Z</time>
      </trkpt>
      <trkpt lat="42.8802" lon="0.13391">
        <ele>1998.7</ele>
        <time>2021-03-25T12:23:35Z</time>
      </trkpt>
      <trkpt lat="42.8802" lon="0.13391">
        <ele>1998.7</ele>
        <time>2021-03-25T12:23:37Z</time>
      </trkpt>
      <trkpt lat="42.8802" lon="0.13391">
        <ele>1998.7</ele>
        <time>2021-03-25T12:23:39Z</time>
      </trkpt>
      <trkpt lat="42.8802" lon="0.13391">
        <ele>1998.7</ele>
        <time>2021-03-25T12:23:40Z</time>
      </trkpt>
      <trkpt lat="42.8802" lon="0.13391">
        <ele>1998.7</ele>
        <time>2021-03-25T12:23:42Z</time>
      </trkpt>
      <trkpt lat="42.88021" lon="0.13391">
        <ele>1998.7</ele>
        <time>2021-03-25T12:23:43Z</time>
      </trkpt>
      <trkpt lat="42.88021" lon="0.13391">
        <ele>1998.7</ele>
        <time>2021-03-25T12:23:44Z</time>
      </trkpt>
      <trkpt lat="42.8802" lon="0.1339">
        <ele>1998.7</ele>
        <time>2021-03-25T12:23:46Z</time>
      </trkpt>
      <trkpt lat="42.8802" lon="0.13388">
        <ele>1998.8</ele>
        <time>2021-03-25T12:23:48Z</time>
      </trkpt>
      <trkpt lat="42.88019" lon="0.13388">
        <ele>1998.8</ele>
        <time>2021-03-25T12:23:49Z</time>
      </trkpt>
      <trkpt lat="42.8802" lon="0.13387">
        <ele>1998.8</ele>
        <time>2021-03-25T12:23:50Z</time>
      </trkpt>
      <trkpt lat="42.8802" lon="0.13387">
        <ele>1998.8</ele>
        <time>2021-03-25T12:23:51Z</time>
      </trkpt>
      <trkpt lat="42.8802" lon="0.13386">
        <ele>1998.8</ele>
        <time>2021-03-25T12:23:53Z</time>
      </trkpt>
      <trkpt lat="42.8802" lon="0.13386">
        <ele>1998.8</ele>
        <time>2021-03-25T12:23:54Z</time>
      </trkpt>
      <trkpt lat="42.8802" lon="0.13385">
        <ele>1998.8</ele>
        <time>2021-03-25T12:23:56Z</time>
      </trkpt>
      <trkpt lat="42.8802" lon="0.13385">
        <ele>1998.9</ele>
        <time>2021-03-25T12:23:58Z</time>
      </trkpt>
      <trkpt lat="42.88021" lon="0.13385">
        <ele>1998.9</ele>
        <time>2021-03-25T12:24:00Z</time>
      </trkpt>
      <trkpt lat="42.88021" lon="0.13384">
        <ele>1998.9</ele>
        <time>2021-03-25T12:24:01Z</time>
      </trkpt>
      <trkpt lat="42.88021" lon="0.13384">
        <ele>1998.9</ele>
        <time>2021-03-25T12:24:03Z</time>
      </trkpt>
      <trkpt lat="42.88021" lon="0.13384">
        <ele>1998.9</ele>
        <time>2021-03-25T12:24:04Z</time>
      </trkpt>
      <trkpt lat="42.88021" lon="0.13384">
        <ele>1995.9</ele>
        <time>2021-03-25T12:24:05Z</time>
      </trkpt>
      <trkpt lat="42.88021" lon="0.13384">
        <ele>1995.9</ele>
        <time>2021-03-25T12:24:06Z</time>
      </trkpt>
      <trkpt lat="42.88021" lon="0.13383">
        <ele>1995.9</ele>
        <time>2021-03-25T12:24:08Z</time>
      </trkpt>
      <trkpt lat="42.88021" lon="0.13383">
        <ele>1995.9</ele>
        <time>2021-03-25T12:24:10Z</time>
      </trkpt>
      <trkpt lat="42.88021" lon="0.13383">
        <ele>1995.9</ele>
        <time>2021-03-25T12:24:11Z</time>
      </trkpt>
      <trkpt lat="42.88022" lon="0.13383">
        <ele>1995.9</ele>
        <time>2021-03-25T12:24:13Z</time>
      </trkpt>
      <trkpt lat="42.88022" lon="0.13383">
        <ele>1995.9</ele>
        <time>2021-03-25T12:24:14Z</time>
      </trkpt>
      <trkpt lat="42.88022" lon="0.13383">
        <ele>1995.9</ele>
        <time>2021-03-25T12:24:15Z</time>
      </trkpt>
      <trkpt lat="42.88022" lon="0.13383">
        <ele>1995.9</ele>
        <time>2021-03-25T12:24:16Z</time>
      </trkpt>
      <trkpt lat="42.88022" lon="0.13383">
        <ele>1995.9</ele>
        <time>2021-03-25T12:24:18Z</time>
      </trkpt>
      <trkpt lat="42.88022" lon="0.13383">
        <ele>1995.9</ele>
        <time>2021-03-25T12:24:20Z</time>
      </trkpt>
      <trkpt lat="42.88022" lon="0.13383">
        <ele>1995.9</ele>
        <time>2021-03-25T12:24:21Z</time>
      </trkpt>
      <trkpt lat="42.88022" lon="0.13383">
        <ele>1995.9</ele>
        <time>2021-03-25T12:24:22Z</time>
      </trkpt>
      <trkpt lat="42.88022" lon="0.13383">
        <ele>1995.9</ele>
        <time>2021-03-25T12:24:24Z</time>
      </trkpt>
      <trkpt lat="42.88022" lon="0.13383">
        <ele>1995.9</ele>
        <time>2021-03-25T12:24:25Z</time>
      </trkpt>
      <trkpt lat="42.88022" lon="0.13383">
        <ele>1995.9</ele>
        <time>2021-03-25T12:24:27Z</time>
      </trkpt>
      <trkpt lat="42.88022" lon="0.13383">
        <ele>1995.9</ele>
        <time>2021-03-25T12:24:28Z</time>
      </trkpt>
      <trkpt lat="42.88022" lon="0.13383">
        <ele>1995.9</ele>
        <time>2021-03-25T12:24:29Z</time>
      </trkpt>
      <trkpt lat="42.88022" lon="0.13383">
        <ele>1995.9</ele>
        <time>2021-03-25T12:24:31Z</time>
      </trkpt>
      <trkpt lat="42.88022" lon="0.13383">
        <ele>1995.9</ele>
        <time>2021-03-25T12:24:32Z</time>
      </trkpt>
      <trkpt lat="42.88022" lon="0.13383">
        <ele>1995.9</ele>
        <time>2021-03-25T12:24:34Z</time>
      </trkpt>
      <trkpt lat="42.88022" lon="0.13383">
        <ele>1995.9</ele>
        <time>2021-03-25T12:24:35Z</time>
      </trkpt>
      <trkpt lat="42.88022" lon="0.13383">
        <ele>1995.9</ele>
        <time>2021-03-25T12:24:36Z</time>
      </trkpt>
      <trkpt lat="42.88022" lon="0.13383">
        <ele>1995.9</ele>
        <time>2021-03-25T12:24:37Z</time>
      </trkpt>
      <trkpt lat="42.88022" lon="0.13383">
        <ele>1995.9</ele>
        <time>2021-03-25T12:24:39Z</time>
      </trkpt>
      <trkpt lat="42.88022" lon="0.13383">
        <ele>1995.9</ele>
        <time>2021-03-25T12:24:40Z</time>
      </trkpt>
      <trkpt lat="42.88022" lon="0.13383">
        <ele>1995.9</ele>
        <time>2021-03-25T12:24:41Z</time>
      </trkpt>
      <trkpt lat="42.88022" lon="0.13383">
        <ele>1995.9</ele>
        <time>2021-03-25T12:24:42Z</time>
      </trkpt>
      <trkpt lat="42.88022" lon="0.13382">
        <ele>1995.9</ele>
        <time>2021-03-25T12:24:44Z</time>
      </trkpt>
      <trkpt lat="42.88022" lon="0.13382">
        <ele>1995.9</ele>
        <time>2021-03-25T12:24:45Z</time>
      </trkpt>
      <trkpt lat="42.88022" lon="0.13382">
        <ele>1995.9</ele>
        <time>2021-03-25T12:24:47Z</time>
      </trkpt>
      <trkpt lat="42.88022" lon="0.13382">
        <ele>1995.9</ele>
        <time>2021-03-25T12:24:48Z</time>
      </trkpt>
      <trkpt lat="42.88022" lon="0.13382">
        <ele>1995.9</ele>
        <time>2021-03-25T12:24:50Z</time>
      </trkpt>
      <trkpt lat="42.88022" lon="0.13382">
        <ele>1995.9</ele>
        <time>2021-03-25T12:24:51Z</time>
      </trkpt>
      <trkpt lat="42.88022" lon="0.13382">
        <ele>1995.9</ele>
        <time>2021-03-25T12:24:53Z</time>
      </trkpt>
      <trkpt lat="42.88022" lon="0.13382">
        <ele>1995.9</ele>
        <time>2021-03-25T12:24:54Z</time>
      </trkpt>
      <trkpt lat="42.88022" lon="0.13382">
        <ele>1995.9</ele>
        <time>2021-03-25T12:24:56Z</time>
      </trkpt>
      <trkpt lat="42.88022" lon="0.13382">
        <ele>1995.9</ele>
        <time>2021-03-25T12:24:57Z</time>
      </trkpt>
      <trkpt lat="42.88022" lon="0.13381">
        <ele>1995.9</ele>
        <time>2021-03-25T12:24:58Z</time>
      </trkpt>
      <trkpt lat="42.88022" lon="0.13381">
        <ele>1995.9</ele>
        <time>2021-03-25T12:25:00Z</time>
      </trkpt>
      <trkpt lat="42.88022" lon="0.13381">
        <ele>1995.9</ele>
        <time>2021-03-25T12:25:01Z</time>
      </trkpt>
      <trkpt lat="42.88022" lon="0.13381">
        <ele>1995.9</ele>
        <time>2021-03-25T12:25:02Z</time>
      </trkpt>
      <trkpt lat="42.88022" lon="0.13382">
        <ele>1995.9</ele>
        <time>2021-03-25T12:25:04Z</time>
      </trkpt>
      <trkpt lat="42.88022" lon="0.13382">
        <ele>1995.9</ele>
        <time>2021-03-25T12:25:06Z</time>
      </trkpt>
      <trkpt lat="42.88022" lon="0.13382">
        <ele>1995.9</ele>
        <time>2021-03-25T12:25:07Z</time>
      </trkpt>
      <trkpt lat="42.88022" lon="0.13382">
        <ele>1995.9</ele>
        <time>2021-03-25T12:25:09Z</time>
      </trkpt>
      <trkpt lat="42.88022" lon="0.13382">
        <ele>1995.9</ele>
        <time>2021-03-25T12:25:10Z</time>
      </trkpt>
      <trkpt lat="42.88022" lon="0.13382">
        <ele>1995.9</ele>
        <time>2021-03-25T12:25:12Z</time>
      </trkpt>
      <trkpt lat="42.88022" lon="0.13382">
        <ele>1995.9</ele>
        <time>2021-03-25T12:25:13Z</time>
      </trkpt>
      <trkpt lat="42.88022" lon="0.13381">
        <ele>1995.9</ele>
        <time>2021-03-25T12:25:15Z</time>
      </trkpt>
      <trkpt lat="42.88022" lon="0.13381">
        <ele>1995.9</ele>
        <time>2021-03-25T12:25:16Z</time>
      </trkpt>
      <trkpt lat="42.88022" lon="0.13381">
        <ele>1996</ele>
        <time>2021-03-25T12:25:18Z</time>
      </trkpt>
      <trkpt lat="42.88022" lon="0.1338">
        <ele>1996</ele>
        <time>2021-03-25T12:25:20Z</time>
      </trkpt>
      <trkpt lat="42.88022" lon="0.1338">
        <ele>1996</ele>
        <time>2021-03-25T12:25:22Z</time>
      </trkpt>
      <trkpt lat="42.88022" lon="0.1338">
        <ele>1996</ele>
        <time>2021-03-25T12:25:24Z</time>
      </trkpt>
      <trkpt lat="42.88022" lon="0.13379">
        <ele>1996</ele>
        <time>2021-03-25T12:25:26Z</time>
      </trkpt>
      <trkpt lat="42.88022" lon="0.13379">
        <ele>1996</ele>
        <time>2021-03-25T12:25:28Z</time>
      </trkpt>
      <trkpt lat="42.88022" lon="0.13379">
        <ele>1996</ele>
        <time>2021-03-25T12:25:29Z</time>
      </trkpt>
      <trkpt lat="42.88022" lon="0.13379">
        <ele>1996</ele>
        <time>2021-03-25T12:25:30Z</time>
      </trkpt>
      <trkpt lat="42.88022" lon="0.13379">
        <ele>1996</ele>
        <time>2021-03-25T12:25:32Z</time>
      </trkpt>
      <trkpt lat="42.88022" lon="0.13378">
        <ele>1996</ele>
        <time>2021-03-25T12:25:33Z</time>
      </trkpt>
      <trkpt lat="42.88022" lon="0.13378">
        <ele>1996</ele>
        <time>2021-03-25T12:25:34Z</time>
      </trkpt>
      <trkpt lat="42.88022" lon="0.13378">
        <ele>1996</ele>
        <time>2021-03-25T12:25:36Z</time>
      </trkpt>
      <trkpt lat="42.88022" lon="0.13378">
        <ele>1996</ele>
        <time>2021-03-25T12:25:38Z</time>
      </trkpt>
      <trkpt lat="42.88021" lon="0.13378">
        <ele>1996</ele>
        <time>2021-03-25T12:25:39Z</time>
      </trkpt>
      <trkpt lat="42.88021" lon="0.13378">
        <ele>1996</ele>
        <time>2021-03-25T12:25:40Z</time>
      </trkpt>
      <trkpt lat="42.88021" lon="0.13378">
        <ele>1996</ele>
        <time>2021-03-25T12:25:41Z</time>
      </trkpt>
      <trkpt lat="42.88021" lon="0.13378">
        <ele>1996</ele>
        <time>2021-03-25T12:25:43Z</time>
      </trkpt>
      <trkpt lat="42.88021" lon="0.13378">
        <ele>1999</ele>
        <time>2021-03-25T12:25:44Z</time>
      </trkpt>
      <trkpt lat="42.88021" lon="0.13378">
        <ele>1999</ele>
        <time>2021-03-25T12:25:45Z</time>
      </trkpt>
      <trkpt lat="42.88021" lon="0.13377">
        <ele>1999</ele>
        <time>2021-03-25T12:25:47Z</time>
      </trkpt>
      <trkpt lat="42.88021" lon="0.13377">
        <ele>1999</ele>
        <time>2021-03-25T12:25:48Z</time>
      </trkpt>
      <trkpt lat="42.88021" lon="0.13377">
        <ele>1999</ele>
        <time>2021-03-25T12:25:49Z</time>
      </trkpt>
      <trkpt lat="42.8802" lon="0.13377">
        <ele>1999</ele>
        <time>2021-03-25T12:25:50Z</time>
      </trkpt>
      <trkpt lat="42.8802" lon="0.13377">
        <ele>1999</ele>
        <time>2021-03-25T12:25:51Z</time>
      </trkpt>
      <trkpt lat="42.8802" lon="0.13377">
        <ele>1999</ele>
        <time>2021-03-25T12:25:53Z</time>
      </trkpt>
      <trkpt lat="42.8802" lon="0.13377">
        <ele>1999</ele>
        <time>2021-03-25T12:25:57Z</time>
      </trkpt>
      <trkpt lat="42.8802" lon="0.13377">
        <ele>1999.1</ele>
        <time>2021-03-25T12:25:58Z</time>
      </trkpt>
      <trkpt lat="42.8802" lon="0.13377">
        <ele>1999.1</ele>
        <time>2021-03-25T12:25:59Z</time>
      </trkpt>
      <trkpt lat="42.8802" lon="0.13377">
        <ele>1999</ele>
        <time>2021-03-25T12:26:01Z</time>
      </trkpt>
      <trkpt lat="42.8802" lon="0.13377">
        <ele>1999</ele>
        <time>2021-03-25T12:26:02Z</time>
      </trkpt>
      <trkpt lat="42.8802" lon="0.13377">
        <ele>1999</ele>
        <time>2021-03-25T12:26:03Z</time>
      </trkpt>
      <trkpt lat="42.8802" lon="0.13377">
        <ele>1999</ele>
        <time>2021-03-25T12:26:05Z</time>
      </trkpt>
      <trkpt lat="42.8802" lon="0.13377">
        <ele>1999</ele>
        <time>2021-03-25T12:26:07Z</time>
      </trkpt>
      <trkpt lat="42.8802" lon="0.13377">
        <ele>1999</ele>
        <time>2021-03-25T12:26:08Z</time>
      </trkpt>
      <trkpt lat="42.8802" lon="0.13378">
        <ele>1999</ele>
        <time>2021-03-25T12:26:10Z</time>
      </trkpt>
      <trkpt lat="42.8802" lon="0.13378">
        <ele>1999</ele>
        <time>2021-03-25T12:26:11Z</time>
      </trkpt>
      <trkpt lat="42.8802" lon="0.13378">
        <ele>1999</ele>
        <time>2021-03-25T12:26:13Z</time>
      </trkpt>
      <trkpt lat="42.8802" lon="0.13378">
        <ele>1999</ele>
        <time>2021-03-25T12:26:15Z</time>
      </trkpt>
      <trkpt lat="42.8802" lon="0.13378">
        <ele>1999</ele>
        <time>2021-03-25T12:26:17Z</time>
      </trkpt>
      <trkpt lat="42.8802" lon="0.13378">
        <ele>1999</ele>
        <time>2021-03-25T12:26:18Z</time>
      </trkpt>
      <trkpt lat="42.88019" lon="0.13378">
        <ele>1999</ele>
        <time>2021-03-25T12:26:20Z</time>
      </trkpt>
      <trkpt lat="42.88019" lon="0.13378">
        <ele>1999</ele>
        <time>2021-03-25T12:26:21Z</time>
      </trkpt>
      <trkpt lat="42.88019" lon="0.13378">
        <ele>1999</ele>
        <time>2021-03-25T12:26:22Z</time>
      </trkpt>
      <trkpt lat="42.88019" lon="0.13378">
        <ele>1999</ele>
        <time>2021-03-25T12:26:24Z</time>
      </trkpt>
      <trkpt lat="42.88019" lon="0.13378">
        <ele>1999</ele>
        <time>2021-03-25T12:26:25Z</time>
      </trkpt>
      <trkpt lat="42.88019" lon="0.13378">
        <ele>1999</ele>
        <time>2021-03-25T12:26:26Z</time>
      </trkpt>
      <trkpt lat="42.88019" lon="0.13378">
        <ele>1999</ele>
        <time>2021-03-25T12:26:28Z</time>
      </trkpt>
      <trkpt lat="42.88019" lon="0.13378">
        <ele>1999</ele>
        <time>2021-03-25T12:26:30Z</time>
      </trkpt>
      <trkpt lat="42.88019" lon="0.13378">
        <ele>1999</ele>
        <time>2021-03-25T12:26:31Z</time>
      </trkpt>
      <trkpt lat="42.88019" lon="0.13378">
        <ele>1999</ele>
        <time>2021-03-25T12:26:33Z</time>
      </trkpt>
      <trkpt lat="42.88019" lon="0.13378">
        <ele>1999</ele>
        <time>2021-03-25T12:26:35Z</time>
      </trkpt>
      <trkpt lat="42.88019" lon="0.13378">
        <ele>1999</ele>
        <time>2021-03-25T12:26:36Z</time>
      </trkpt>
      <trkpt lat="42.88019" lon="0.13378">
        <ele>1999</ele>
        <time>2021-03-25T12:26:38Z</time>
      </trkpt>
      <trkpt lat="42.88019" lon="0.13378">
        <ele>1999</ele>
        <time>2021-03-25T12:26:40Z</time>
      </trkpt>
      <trkpt lat="42.88019" lon="0.13377">
        <ele>1999</ele>
        <time>2021-03-25T12:26:41Z</time>
      </trkpt>
      <trkpt lat="42.88019" lon="0.13377">
        <ele>1999</ele>
        <time>2021-03-25T12:26:43Z</time>
      </trkpt>
      <trkpt lat="42.88019" lon="0.13377">
        <ele>1999</ele>
        <time>2021-03-25T12:26:44Z</time>
      </trkpt>
      <trkpt lat="42.88018" lon="0.13377">
        <ele>1999.1</ele>
        <time>2021-03-25T12:26:46Z</time>
      </trkpt>
      <trkpt lat="42.88018" lon="0.13377">
        <ele>1999.1</ele>
        <time>2021-03-25T12:26:47Z</time>
      </trkpt>
      <trkpt lat="42.88018" lon="0.13376">
        <ele>1999.1</ele>
        <time>2021-03-25T12:26:49Z</time>
      </trkpt>
      <trkpt lat="42.88018" lon="0.13376">
        <ele>1999.1</ele>
        <time>2021-03-25T12:26:50Z</time>
      </trkpt>
      <trkpt lat="42.88018" lon="0.13376">
        <ele>2002</ele>
        <time>2021-03-25T12:26:52Z</time>
      </trkpt>
      <trkpt lat="42.88018" lon="0.13376">
        <ele>2002</ele>
        <time>2021-03-25T12:26:54Z</time>
      </trkpt>
      <trkpt lat="42.88017" lon="0.13376">
        <ele>2002</ele>
        <time>2021-03-25T12:26:56Z</time>
      </trkpt>
      <trkpt lat="42.88017" lon="0.13376">
        <ele>2002</ele>
        <time>2021-03-25T12:26:57Z</time>
      </trkpt>
      <trkpt lat="42.88017" lon="0.13376">
        <ele>2002</ele>
        <time>2021-03-25T12:26:58Z</time>
      </trkpt>
      <trkpt lat="42.88017" lon="0.13376">
        <ele>2002</ele>
        <time>2021-03-25T12:26:59Z</time>
      </trkpt>
      <trkpt lat="42.88017" lon="0.13377">
        <ele>2002</ele>
        <time>2021-03-25T12:27:01Z</time>
      </trkpt>
      <trkpt lat="42.88016" lon="0.13377">
        <ele>2002</ele>
        <time>2021-03-25T12:27:02Z</time>
      </trkpt>
      <trkpt lat="42.88016" lon="0.13377">
        <ele>2001.9</ele>
        <time>2021-03-25T12:27:04Z</time>
      </trkpt>
      <trkpt lat="42.88016" lon="0.13377">
        <ele>2001.9</ele>
        <time>2021-03-25T12:27:05Z</time>
      </trkpt>
      <trkpt lat="42.88016" lon="0.13377">
        <ele>2001.9</ele>
        <time>2021-03-25T12:27:06Z</time>
      </trkpt>
      <trkpt lat="42.88016" lon="0.13377">
        <ele>2001.9</ele>
        <time>2021-03-25T12:27:08Z</time>
      </trkpt>
      <trkpt lat="42.88016" lon="0.13378">
        <ele>2001.9</ele>
        <time>2021-03-25T12:27:10Z</time>
      </trkpt>
      <trkpt lat="42.88016" lon="0.13378">
        <ele>2001.9</ele>
        <time>2021-03-25T12:27:11Z</time>
      </trkpt>
      <trkpt lat="42.88016" lon="0.13378">
        <ele>2001.9</ele>
        <time>2021-03-25T12:27:13Z</time>
      </trkpt>
      <trkpt lat="42.88016" lon="0.13378">
        <ele>2001.9</ele>
        <time>2021-03-25T12:27:14Z</time>
      </trkpt>
      <trkpt lat="42.88016" lon="0.13378">
        <ele>2001.9</ele>
        <time>2021-03-25T12:27:15Z</time>
      </trkpt>
      <trkpt lat="42.88016" lon="0.13378">
        <ele>2001.9</ele>
        <time>2021-03-25T12:27:17Z</time>
      </trkpt>
      <trkpt lat="42.88016" lon="0.13378">
        <ele>2001.9</ele>
        <time>2021-03-25T12:27:18Z</time>
      </trkpt>
      <trkpt lat="42.88015" lon="0.13377">
        <ele>2001.9</ele>
        <time>2021-03-25T12:27:20Z</time>
      </trkpt>
      <trkpt lat="42.88015" lon="0.13377">
        <ele>2001.9</ele>
        <time>2021-03-25T12:27:21Z</time>
      </trkpt>
      <trkpt lat="42.88015" lon="0.13377">
        <ele>2001.9</ele>
        <time>2021-03-25T12:27:22Z</time>
      </trkpt>
      <trkpt lat="42.88015" lon="0.13377">
        <ele>2001.9</ele>
        <time>2021-03-25T12:27:24Z</time>
      </trkpt>
      <trkpt lat="42.88015" lon="0.13377">
        <ele>2001.9</ele>
        <time>2021-03-25T12:27:25Z</time>
      </trkpt>
      <trkpt lat="42.88014" lon="0.1338">
        <ele>2004.7</ele>
        <time>2021-03-25T12:27:26Z</time>
      </trkpt>
      <trkpt lat="42.88015" lon="0.13385">
        <ele>2004.6</ele>
        <time>2021-03-25T12:27:28Z</time>
      </trkpt>
      <trkpt lat="42.88015" lon="0.13386">
        <ele>2001.7</ele>
        <time>2021-03-25T12:27:29Z</time>
      </trkpt>
      <trkpt lat="42.88017" lon="0.13389">
        <ele>2001.7</ele>
        <time>2021-03-25T12:27:31Z</time>
      </trkpt>
      <trkpt lat="42.88016" lon="0.1339">
        <ele>2001.6</ele>
        <time>2021-03-25T12:27:32Z</time>
      </trkpt>
      <trkpt lat="42.88015" lon="0.13391">
        <ele>2001.6</ele>
        <time>2021-03-25T12:27:33Z</time>
      </trkpt>
      <trkpt lat="42.88016" lon="0.13392">
        <ele>2001.6</ele>
        <time>2021-03-25T12:27:35Z</time>
      </trkpt>
      <trkpt lat="42.88018" lon="0.13393">
        <ele>2001.6</ele>
        <time>2021-03-25T12:27:36Z</time>
      </trkpt>
      <trkpt lat="42.88019" lon="0.13394">
        <ele>1998.6</ele>
        <time>2021-03-25T12:27:38Z</time>
      </trkpt>
      <trkpt lat="42.8802" lon="0.13395">
        <ele>1998.6</ele>
        <time>2021-03-25T12:27:40Z</time>
      </trkpt>
      <trkpt lat="42.8802" lon="0.13395">
        <ele>1998.6</ele>
        <time>2021-03-25T12:27:41Z</time>
      </trkpt>
      <trkpt lat="42.8802" lon="0.13396">
        <ele>1998.6</ele>
        <time>2021-03-25T12:27:43Z</time>
      </trkpt>
      <trkpt lat="42.8802" lon="0.13396">
        <ele>1998.6</ele>
        <time>2021-03-25T12:27:45Z</time>
      </trkpt>
      <trkpt lat="42.8802" lon="0.13397">
        <ele>1998.6</ele>
        <time>2021-03-25T12:27:46Z</time>
      </trkpt>
      <trkpt lat="42.8802" lon="0.13397">
        <ele>1998.6</ele>
        <time>2021-03-25T12:27:47Z</time>
      </trkpt>
      <trkpt lat="42.88021" lon="0.13397">
        <ele>1998.6</ele>
        <time>2021-03-25T12:27:48Z</time>
      </trkpt>
      <trkpt lat="42.8802" lon="0.13397">
        <ele>1998.6</ele>
        <time>2021-03-25T12:27:50Z</time>
      </trkpt>
      <trkpt lat="42.8802" lon="0.13397">
        <ele>1998.6</ele>
        <time>2021-03-25T12:27:52Z</time>
      </trkpt>
      <trkpt lat="42.88022" lon="0.13397">
        <ele>1995.6</ele>
        <time>2021-03-25T12:27:53Z</time>
      </trkpt>
      <trkpt lat="42.88025" lon="0.13395">
        <ele>1992.7</ele>
        <time>2021-03-25T12:27:55Z</time>
      </trkpt>
      <trkpt lat="42.88026" lon="0.13394">
        <ele>1992.8</ele>
        <time>2021-03-25T12:27:56Z</time>
      </trkpt>
      <trkpt lat="42.88027" lon="0.13394">
        <ele>1992.8</ele>
        <time>2021-03-25T12:27:58Z</time>
      </trkpt>
      <trkpt lat="42.88027" lon="0.13394">
        <ele>1992.8</ele>
        <time>2021-03-25T12:28:00Z</time>
      </trkpt>
      <trkpt lat="42.88026" lon="0.13394">
        <ele>1992.8</ele>
        <time>2021-03-25T12:28:01Z</time>
      </trkpt>
      <trkpt lat="42.88026" lon="0.13394">
        <ele>1992.8</ele>
        <time>2021-03-25T12:28:02Z</time>
      </trkpt>
      <trkpt lat="42.88026" lon="0.13394">
        <ele>1992.8</ele>
        <time>2021-03-25T12:28:04Z</time>
      </trkpt>
      <trkpt lat="42.88026" lon="0.13394">
        <ele>1992.8</ele>
        <time>2021-03-25T12:28:05Z</time>
      </trkpt>
      <trkpt lat="42.88026" lon="0.13394">
        <ele>1992.8</ele>
        <time>2021-03-25T12:28:07Z</time>
      </trkpt>
      <trkpt lat="42.88026" lon="0.13394">
        <ele>1992.8</ele>
        <time>2021-03-25T12:28:09Z</time>
      </trkpt>
      <trkpt lat="42.88026" lon="0.13394">
        <ele>1992.8</ele>
        <time>2021-03-25T12:28:11Z</time>
      </trkpt>
      <trkpt lat="42.88026" lon="0.13394">
        <ele>1992.8</ele>
        <time>2021-03-25T12:28:12Z</time>
      </trkpt>
      <trkpt lat="42.88026" lon="0.13394">
        <ele>1992.8</ele>
        <time>2021-03-25T12:28:13Z</time>
      </trkpt>
      <trkpt lat="42.88026" lon="0.13394">
        <ele>1992.8</ele>
        <time>2021-03-25T12:28:14Z</time>
      </trkpt>
      <trkpt lat="42.88026" lon="0.13394">
        <ele>1992.8</ele>
        <time>2021-03-25T12:28:16Z</time>
      </trkpt>
      <trkpt lat="42.88026" lon="0.13394">
        <ele>1992.8</ele>
        <time>2021-03-25T12:28:18Z</time>
      </trkpt>
      <trkpt lat="42.88026" lon="0.13394">
        <ele>1992.8</ele>
        <time>2021-03-25T12:28:19Z</time>
      </trkpt>
      <trkpt lat="42.88026" lon="0.13394">
        <ele>1992.8</ele>
        <time>2021-03-25T12:28:21Z</time>
      </trkpt>
      <trkpt lat="42.88026" lon="0.13394">
        <ele>1992.7</ele>
        <time>2021-03-25T12:28:22Z</time>
      </trkpt>
      <trkpt lat="42.88026" lon="0.13394">
        <ele>1992.7</ele>
        <time>2021-03-25T12:28:23Z</time>
      </trkpt>
      <trkpt lat="42.88026" lon="0.13394">
        <ele>1992.7</ele>
        <time>2021-03-25T12:28:24Z</time>
      </trkpt>
      <trkpt lat="42.88026" lon="0.13394">
        <ele>1992.7</ele>
        <time>2021-03-25T12:28:26Z</time>
      </trkpt>
      <trkpt lat="42.88026" lon="0.13394">
        <ele>1992.7</ele>
        <time>2021-03-25T12:28:28Z</time>
      </trkpt>
      <trkpt lat="42.88026" lon="0.13394">
        <ele>1992.7</ele>
        <time>2021-03-25T12:28:29Z</time>
      </trkpt>
      <trkpt lat="42.88026" lon="0.13394">
        <ele>1992.7</ele>
        <time>2021-03-25T12:28:30Z</time>
      </trkpt>
      <trkpt lat="42.88026" lon="0.13394">
        <ele>1992.7</ele>
        <time>2021-03-25T12:28:32Z</time>
      </trkpt>
      <trkpt lat="42.88026" lon="0.13394">
        <ele>1992.7</ele>
        <time>2021-03-25T12:28:33Z</time>
      </trkpt>
      <trkpt lat="42.88026" lon="0.13394">
        <ele>1992.7</ele>
        <time>2021-03-25T12:28:34Z</time>
      </trkpt>
      <trkpt lat="42.88026" lon="0.13394">
        <ele>1992.7</ele>
        <time>2021-03-25T12:28:36Z</time>
      </trkpt>
      <trkpt lat="42.88026" lon="0.13394">
        <ele>1992.7</ele>
        <time>2021-03-25T12:28:37Z</time>
      </trkpt>
      <trkpt lat="42.88027" lon="0.13394">
        <ele>1992.7</ele>
        <time>2021-03-25T12:28:38Z</time>
      </trkpt>
      <trkpt lat="42.88027" lon="0.13394">
        <ele>1992.7</ele>
        <time>2021-03-25T12:28:40Z</time>
      </trkpt>
      <trkpt lat="42.88027" lon="0.13394">
        <ele>1992.7</ele>
        <time>2021-03-25T12:28:41Z</time>
      </trkpt>
      <trkpt lat="42.88027" lon="0.13394">
        <ele>1992.7</ele>
        <time>2021-03-25T12:28:43Z</time>
      </trkpt>
      <trkpt lat="42.88027" lon="0.13394">
        <ele>1992.7</ele>
        <time>2021-03-25T12:28:44Z</time>
      </trkpt>
      <trkpt lat="42.88027" lon="0.13394">
        <ele>1992.7</ele>
        <time>2021-03-25T12:28:45Z</time>
      </trkpt>
      <trkpt lat="42.88027" lon="0.13394">
        <ele>1992.7</ele>
        <time>2021-03-25T12:28:46Z</time>
      </trkpt>
      <trkpt lat="42.88027" lon="0.13395">
        <ele>1992.7</ele>
        <time>2021-03-25T12:28:47Z</time>
      </trkpt>
      <trkpt lat="42.88025" lon="0.13396">
        <ele>1992.7</ele>
        <time>2021-03-25T12:28:49Z</time>
      </trkpt>
      <trkpt lat="42.88024" lon="0.13398">
        <ele>1995.6</ele>
        <time>2021-03-25T12:28:50Z</time>
      </trkpt>
      <trkpt lat="42.88023" lon="0.13399">
        <ele>1995.5</ele>
        <time>2021-03-25T12:28:52Z</time>
      </trkpt>
      <trkpt lat="42.88022" lon="0.134">
        <ele>1995.5</ele>
        <time>2021-03-25T12:28:53Z</time>
      </trkpt>
      <trkpt lat="42.88022" lon="0.13401">
        <ele>1995.5</ele>
        <time>2021-03-25T12:28:54Z</time>
      </trkpt>
      <trkpt lat="42.88022" lon="0.13402">
        <ele>1995.5</ele>
        <time>2021-03-25T12:28:56Z</time>
      </trkpt>
      <trkpt lat="42.88023" lon="0.13403">
        <ele>1995.4</ele>
        <time>2021-03-25T12:28:57Z</time>
      </trkpt>
      <trkpt lat="42.88024" lon="0.13404">
        <ele>1995.4</ele>
        <time>2021-03-25T12:28:59Z</time>
      </trkpt>
      <trkpt lat="42.88025" lon="0.13404">
        <ele>1992.5</ele>
        <time>2021-03-25T12:29:01Z</time>
      </trkpt>
      <trkpt lat="42.88025" lon="0.13405">
        <ele>1992.5</ele>
        <time>2021-03-25T12:29:02Z</time>
      </trkpt>
      <trkpt lat="42.88026" lon="0.13405">
        <ele>1992.5</ele>
        <time>2021-03-25T12:29:04Z</time>
      </trkpt>
      <trkpt lat="42.88026" lon="0.13406">
        <ele>1992.5</ele>
        <time>2021-03-25T12:29:06Z</time>
      </trkpt>
      <trkpt lat="42.88026" lon="0.13406">
        <ele>1992.5</ele>
        <time>2021-03-25T12:29:07Z</time>
      </trkpt>
      <trkpt lat="42.88026" lon="0.13406">
        <ele>1992.5</ele>
        <time>2021-03-25T12:29:08Z</time>
      </trkpt>
      <trkpt lat="42.88026" lon="0.13408">
        <ele>1992.4</ele>
        <time>2021-03-25T12:29:10Z</time>
      </trkpt>
      <trkpt lat="42.88025" lon="0.13409">
        <ele>1992.4</ele>
        <time>2021-03-25T12:29:11Z</time>
      </trkpt>
      <trkpt lat="42.88026" lon="0.13411">
        <ele>1992.4</ele>
        <time>2021-03-25T12:29:13Z</time>
      </trkpt>
      <trkpt lat="42.88026" lon="0.13414">
        <ele>1992.3</ele>
        <time>2021-03-25T12:29:15Z</time>
      </trkpt>
      <trkpt lat="42.88027" lon="0.13416">
        <ele>1992.2</ele>
        <time>2021-03-25T12:29:17Z</time>
      </trkpt>
      <trkpt lat="42.88028" lon="0.1342">
        <ele>1989.2</ele>
        <time>2021-03-25T12:29:18Z</time>
      </trkpt>
      <trkpt lat="42.88028" lon="0.13421">
        <ele>1989.2</ele>
        <time>2021-03-25T12:29:19Z</time>
      </trkpt>
      <trkpt lat="42.88029" lon="0.13424">
        <ele>1989.1</ele>
        <time>2021-03-25T12:29:21Z</time>
      </trkpt>
      <trkpt lat="42.88029" lon="0.13426">
        <ele>1989.1</ele>
        <time>2021-03-25T12:29:23Z</time>
      </trkpt>
      <trkpt lat="42.88029" lon="0.13427">
        <ele>1989.1</ele>
        <time>2021-03-25T12:29:24Z</time>
      </trkpt>
      <trkpt lat="42.8803" lon="0.13428">
        <ele>1988.9</ele>
        <time>2021-03-25T12:29:26Z</time>
      </trkpt>
      <trkpt lat="42.88031" lon="0.13429">
        <ele>1986.4</ele>
        <time>2021-03-25T12:29:27Z</time>
      </trkpt>
      <trkpt lat="42.88031" lon="0.1343">
        <ele>1986.4</ele>
        <time>2021-03-25T12:29:29Z</time>
      </trkpt>
      <trkpt lat="42.88031" lon="0.13431">
        <ele>1986.4</ele>
        <time>2021-03-25T12:29:31Z</time>
      </trkpt>
      <trkpt lat="42.88031" lon="0.13432">
        <ele>1986.4</ele>
        <time>2021-03-25T12:29:32Z</time>
      </trkpt>
      <trkpt lat="42.88031" lon="0.13432">
        <ele>1986.4</ele>
        <time>2021-03-25T12:29:33Z</time>
      </trkpt>
      <trkpt lat="42.88031" lon="0.13434">
        <ele>1986.3</ele>
        <time>2021-03-25T12:29:35Z</time>
      </trkpt>
      <trkpt lat="42.88031" lon="0.13436">
        <ele>1986.3</ele>
        <time>2021-03-25T12:29:36Z</time>
      </trkpt>
      <trkpt lat="42.88031" lon="0.13436">
        <ele>1986.3</ele>
        <time>2021-03-25T12:29:37Z</time>
      </trkpt>
      <trkpt lat="42.88031" lon="0.13438">
        <ele>1986.1</ele>
        <time>2021-03-25T12:29:39Z</time>
      </trkpt>
      <trkpt lat="42.8803" lon="0.1344">
        <ele>1988.6</ele>
        <time>2021-03-25T12:29:40Z</time>
      </trkpt>
      <trkpt lat="42.8803" lon="0.13441">
        <ele>1988.6</ele>
        <time>2021-03-25T12:29:41Z</time>
      </trkpt>
      <trkpt lat="42.8803" lon="0.13441">
        <ele>1988.5</ele>
        <time>2021-03-25T12:29:42Z</time>
      </trkpt>
      <trkpt lat="42.88029" lon="0.13442">
        <ele>1988.5</ele>
        <time>2021-03-25T12:29:43Z</time>
      </trkpt>
      <trkpt lat="42.88029" lon="0.13443">
        <ele>1988.5</ele>
        <time>2021-03-25T12:29:45Z</time>
      </trkpt>
      <trkpt lat="42.88029" lon="0.13444">
        <ele>1988.5</ele>
        <time>2021-03-25T12:29:46Z</time>
      </trkpt>
      <trkpt lat="42.88029" lon="0.13445">
        <ele>1988.5</ele>
        <time>2021-03-25T12:29:47Z</time>
      </trkpt>
      <trkpt lat="42.88029" lon="0.13446">
        <ele>1988.3</ele>
        <time>2021-03-25T12:29:48Z</time>
      </trkpt>
      <trkpt lat="42.88029" lon="0.13447">
        <ele>1988.3</ele>
        <time>2021-03-25T12:29:49Z</time>
      </trkpt>
      <trkpt lat="42.88028" lon="0.1345">
        <ele>1988.2</ele>
        <time>2021-03-25T12:29:51Z</time>
      </trkpt>
      <trkpt lat="42.88029" lon="0.13452">
        <ele>1988.2</ele>
        <time>2021-03-25T12:29:53Z</time>
      </trkpt>
      <trkpt lat="42.88029" lon="0.13453">
        <ele>1988.2</ele>
        <time>2021-03-25T12:29:54Z</time>
      </trkpt>
      <trkpt lat="42.88029" lon="0.13455">
        <ele>1988</ele>
        <time>2021-03-25T12:29:55Z</time>
      </trkpt>
      <trkpt lat="42.8803" lon="0.13456">
        <ele>1988</ele>
        <time>2021-03-25T12:29:56Z</time>
      </trkpt>
      <trkpt lat="42.8803" lon="0.13458">
        <ele>1988</ele>
        <time>2021-03-25T12:29:57Z</time>
      </trkpt>
      <trkpt lat="42.8803" lon="0.13458">
        <ele>1987.9</ele>
        <time>2021-03-25T12:29:58Z</time>
      </trkpt>
      <trkpt lat="42.88031" lon="0.13459">
        <ele>1985.5</ele>
        <time>2021-03-25T12:30:00Z</time>
      </trkpt>
      <trkpt lat="42.88031" lon="0.13461">
        <ele>1985.5</ele>
        <time>2021-03-25T12:30:02Z</time>
      </trkpt>
      <trkpt lat="42.88031" lon="0.13461">
        <ele>1985.5</ele>
        <time>2021-03-25T12:30:03Z</time>
      </trkpt>
      <trkpt lat="42.88031" lon="0.13463">
        <ele>1985.5</ele>
        <time>2021-03-25T12:30:04Z</time>
      </trkpt>
      <trkpt lat="42.88031" lon="0.13464">
        <ele>1985.4</ele>
        <time>2021-03-25T12:30:06Z</time>
      </trkpt>
      <trkpt lat="42.88032" lon="0.13465">
        <ele>1985.4</ele>
        <time>2021-03-25T12:30:07Z</time>
      </trkpt>
      <trkpt lat="42.88032" lon="0.13466">
        <ele>1985.4</ele>
        <time>2021-03-25T12:30:08Z</time>
      </trkpt>
      <trkpt lat="42.88032" lon="0.13467">
        <ele>1985.4</ele>
        <time>2021-03-25T12:30:09Z</time>
      </trkpt>
      <trkpt lat="42.88032" lon="0.13468">
        <ele>1985.3</ele>
        <time>2021-03-25T12:30:11Z</time>
      </trkpt>
      <trkpt lat="42.88031" lon="0.1347">
        <ele>1985.3</ele>
        <time>2021-03-25T12:30:12Z</time>
      </trkpt>
      <trkpt lat="42.88031" lon="0.13471">
        <ele>1985.3</ele>
        <time>2021-03-25T12:30:13Z</time>
      </trkpt>
      <trkpt lat="42.88031" lon="0.13472">
        <ele>1985.2</ele>
        <time>2021-03-25T12:30:14Z</time>
      </trkpt>
      <trkpt lat="42.8803" lon="0.13474">
        <ele>1987.5</ele>
        <time>2021-03-25T12:30:15Z</time>
      </trkpt>
      <trkpt lat="42.8803" lon="0.13475">
        <ele>1987.5</ele>
        <time>2021-03-25T12:30:16Z</time>
      </trkpt>
      <trkpt lat="42.88029" lon="0.13477">
        <ele>1987.4</ele>
        <time>2021-03-25T12:30:17Z</time>
      </trkpt>
      <trkpt lat="42.88029" lon="0.13478">
        <ele>1987.4</ele>
        <time>2021-03-25T12:30:18Z</time>
      </trkpt>
      <trkpt lat="42.88028" lon="0.13479">
        <ele>1987.4</ele>
        <time>2021-03-25T12:30:20Z</time>
      </trkpt>
      <trkpt lat="42.88028" lon="0.1348">
        <ele>1987.4</ele>
        <time>2021-03-25T12:30:21Z</time>
      </trkpt>
      <trkpt lat="42.88027" lon="0.13482">
        <ele>1989.8</ele>
        <time>2021-03-25T12:30:22Z</time>
      </trkpt>
      <trkpt lat="42.88027" lon="0.13483">
        <ele>1989.8</ele>
        <time>2021-03-25T12:30:24Z</time>
      </trkpt>
      <trkpt lat="42.88027" lon="0.13484">
        <ele>1989.8</ele>
        <time>2021-03-25T12:30:25Z</time>
      </trkpt>
      <trkpt lat="42.88026" lon="0.13485">
        <ele>1989.7</ele>
        <time>2021-03-25T12:30:27Z</time>
      </trkpt>
      <trkpt lat="42.88026" lon="0.13486">
        <ele>1989.7</ele>
        <time>2021-03-25T12:30:28Z</time>
      </trkpt>
      <trkpt lat="42.88026" lon="0.13486">
        <ele>1989.7</ele>
        <time>2021-03-25T12:30:29Z</time>
      </trkpt>
      <trkpt lat="42.88026" lon="0.13487">
        <ele>1989.7</ele>
        <time>2021-03-25T12:30:31Z</time>
      </trkpt>
      <trkpt lat="42.88026" lon="0.13487">
        <ele>1989.7</ele>
        <time>2021-03-25T12:30:32Z</time>
      </trkpt>
      <trkpt lat="42.88026" lon="0.13488">
        <ele>1989.7</ele>
        <time>2021-03-25T12:30:33Z</time>
      </trkpt>
      <trkpt lat="42.88026" lon="0.1349">
        <ele>1989.7</ele>
        <time>2021-03-25T12:30:34Z</time>
      </trkpt>
      <trkpt lat="42.88026" lon="0.1349">
        <ele>1989.7</ele>
        <time>2021-03-25T12:30:35Z</time>
      </trkpt>
      <trkpt lat="42.88026" lon="0.13491">
        <ele>1989.7</ele>
        <time>2021-03-25T12:30:37Z</time>
      </trkpt>
      <trkpt lat="42.88026" lon="0.13491">
        <ele>1989.7</ele>
        <time>2021-03-25T12:30:38Z</time>
      </trkpt>
      <trkpt lat="42.88026" lon="0.13494">
        <ele>1989.6</ele>
        <time>2021-03-25T12:30:39Z</time>
      </trkpt>
      <trkpt lat="42.88026" lon="0.13494">
        <ele>1989.6</ele>
        <time>2021-03-25T12:30:40Z</time>
      </trkpt>
      <trkpt lat="42.88026" lon="0.13495">
        <ele>1989.6</ele>
        <time>2021-03-25T12:30:41Z</time>
      </trkpt>
      <trkpt lat="42.88025" lon="0.13496">
        <ele>1989.6</ele>
        <time>2021-03-25T12:30:42Z</time>
      </trkpt>
      <trkpt lat="42.88025" lon="0.13497">
        <ele>1989.6</ele>
        <time>2021-03-25T12:30:43Z</time>
      </trkpt>
      <trkpt lat="42.88025" lon="0.13498">
        <ele>1989.6</ele>
        <time>2021-03-25T12:30:44Z</time>
      </trkpt>
      <trkpt lat="42.88024" lon="0.13499">
        <ele>1989.6</ele>
        <time>2021-03-25T12:30:46Z</time>
      </trkpt>
      <trkpt lat="42.88024" lon="0.135">
        <ele>1992</ele>
        <time>2021-03-25T12:30:47Z</time>
      </trkpt>
      <trkpt lat="42.88023" lon="0.13501">
        <ele>1992</ele>
        <time>2021-03-25T12:30:48Z</time>
      </trkpt>
      <trkpt lat="42.88023" lon="0.13502">
        <ele>1992</ele>
        <time>2021-03-25T12:30:49Z</time>
      </trkpt>
      <trkpt lat="42.88022" lon="0.13503">
        <ele>1992</ele>
        <time>2021-03-25T12:30:50Z</time>
      </trkpt>
      <trkpt lat="42.88021" lon="0.13504">
        <ele>1992</ele>
        <time>2021-03-25T12:30:51Z</time>
      </trkpt>
      <trkpt lat="42.88021" lon="0.13505">
        <ele>1994.4</ele>
        <time>2021-03-25T12:30:53Z</time>
      </trkpt>
      <trkpt lat="42.8802" lon="0.13506">
        <ele>1994.4</ele>
        <time>2021-03-25T12:30:54Z</time>
      </trkpt>
      <trkpt lat="42.8802" lon="0.13506">
        <ele>1994.4</ele>
        <time>2021-03-25T12:30:56Z</time>
      </trkpt>
      <trkpt lat="42.8802" lon="0.13507">
        <ele>1994.4</ele>
        <time>2021-03-25T12:30:58Z</time>
      </trkpt>
      <trkpt lat="42.8802" lon="0.13507">
        <ele>1994.4</ele>
        <time>2021-03-25T12:30:59Z</time>
      </trkpt>
      <trkpt lat="42.8802" lon="0.13508">
        <ele>1994.4</ele>
        <time>2021-03-25T12:31:00Z</time>
      </trkpt>
      <trkpt lat="42.88021" lon="0.13508">
        <ele>1994.4</ele>
        <time>2021-03-25T12:31:01Z</time>
      </trkpt>
      <trkpt lat="42.88021" lon="0.13509">
        <ele>1994.4</ele>
        <time>2021-03-25T12:31:03Z</time>
      </trkpt>
      <trkpt lat="42.88021" lon="0.13509">
        <ele>1994.4</ele>
        <time>2021-03-25T12:31:04Z</time>
      </trkpt>
      <trkpt lat="42.8802" lon="0.13509">
        <ele>1994.4</ele>
        <time>2021-03-25T12:31:05Z</time>
      </trkpt>
      <trkpt lat="42.8802" lon="0.13509">
        <ele>1994.4</ele>
        <time>2021-03-25T12:31:06Z</time>
      </trkpt>
      <trkpt lat="42.8802" lon="0.1351">
        <ele>1994.4</ele>
        <time>2021-03-25T12:31:07Z</time>
      </trkpt>
      <trkpt lat="42.8802" lon="0.1351">
        <ele>1994.3</ele>
        <time>2021-03-25T12:31:08Z</time>
      </trkpt>
      <trkpt lat="42.8802" lon="0.1351">
        <ele>1994.3</ele>
        <time>2021-03-25T12:31:10Z</time>
      </trkpt>
      <trkpt lat="42.8802" lon="0.13511">
        <ele>1994.3</ele>
        <time>2021-03-25T12:31:11Z</time>
      </trkpt>
      <trkpt lat="42.8802" lon="0.13511">
        <ele>1994.3</ele>
        <time>2021-03-25T12:31:12Z</time>
      </trkpt>
      <trkpt lat="42.88019" lon="0.13513">
        <ele>1994.3</ele>
        <time>2021-03-25T12:31:13Z</time>
      </trkpt>
      <trkpt lat="42.88019" lon="0.13513">
        <ele>1994.3</ele>
        <time>2021-03-25T12:31:15Z</time>
      </trkpt>
      <trkpt lat="42.88019" lon="0.13515">
        <ele>1994.2</ele>
        <time>2021-03-25T12:31:16Z</time>
      </trkpt>
      <trkpt lat="42.88018" lon="0.13517">
        <ele>1994.2</ele>
        <time>2021-03-25T12:31:17Z</time>
      </trkpt>
      <trkpt lat="42.88018" lon="0.13517">
        <ele>1994.2</ele>
        <time>2021-03-25T12:31:18Z</time>
      </trkpt>
      <trkpt lat="42.88018" lon="0.13518">
        <ele>1994.2</ele>
        <time>2021-03-25T12:31:20Z</time>
      </trkpt>
      <trkpt lat="42.88016" lon="0.13522">
        <ele>1996.4</ele>
        <time>2021-03-25T12:31:22Z</time>
      </trkpt>
      <trkpt lat="42.88014" lon="0.13525">
        <ele>1998.4</ele>
        <time>2021-03-25T12:31:24Z</time>
      </trkpt>
      <trkpt lat="42.88013" lon="0.13527">
        <ele>1998.3</ele>
        <time>2021-03-25T12:31:26Z</time>
      </trkpt>
      <trkpt lat="42.88012" lon="0.13531">
        <ele>2000.4</ele>
        <time>2021-03-25T12:31:27Z</time>
      </trkpt>
      <trkpt lat="42.8801" lon="0.13534">
        <ele>2000.2</ele>
        <time>2021-03-25T12:31:29Z</time>
      </trkpt>
      <trkpt lat="42.8801" lon="0.13535">
        <ele>2000.2</ele>
        <time>2021-03-25T12:31:30Z</time>
      </trkpt>
      <trkpt lat="42.88009" lon="0.13538">
        <ele>2000</ele>
        <time>2021-03-25T12:31:31Z</time>
      </trkpt>
      <trkpt lat="42.88008" lon="0.13539">
        <ele>2000</ele>
        <time>2021-03-25T12:31:33Z</time>
      </trkpt>
      <trkpt lat="42.88008" lon="0.1354">
        <ele>2001.9</ele>
        <time>2021-03-25T12:31:34Z</time>
      </trkpt>
      <trkpt lat="42.88008" lon="0.13541">
        <ele>2001.9</ele>
        <time>2021-03-25T12:31:36Z</time>
      </trkpt>
      <trkpt lat="42.88008" lon="0.13542">
        <ele>2001.9</ele>
        <time>2021-03-25T12:31:37Z</time>
      </trkpt>
      <trkpt lat="42.88008" lon="0.13543">
        <ele>2001.9</ele>
        <time>2021-03-25T12:31:39Z</time>
      </trkpt>
      <trkpt lat="42.88008" lon="0.13544">
        <ele>2001.9</ele>
        <time>2021-03-25T12:31:40Z</time>
      </trkpt>
      <trkpt lat="42.88008" lon="0.13544">
        <ele>2001.9</ele>
        <time>2021-03-25T12:31:41Z</time>
      </trkpt>
      <trkpt lat="42.88008" lon="0.13545">
        <ele>2001.7</ele>
        <time>2021-03-25T12:31:43Z</time>
      </trkpt>
      <trkpt lat="42.88008" lon="0.13545">
        <ele>2001.7</ele>
        <time>2021-03-25T12:31:45Z</time>
      </trkpt>
      <trkpt lat="42.88008" lon="0.13546">
        <ele>2001.7</ele>
        <time>2021-03-25T12:31:46Z</time>
      </trkpt>
      <trkpt lat="42.88007" lon="0.13547">
        <ele>2001.7</ele>
        <time>2021-03-25T12:31:48Z</time>
      </trkpt>
      <trkpt lat="42.88007" lon="0.13548">
        <ele>2001.7</ele>
        <time>2021-03-25T12:31:50Z</time>
      </trkpt>
      <trkpt lat="42.88007" lon="0.13549">
        <ele>2001.4</ele>
        <time>2021-03-25T12:31:51Z</time>
      </trkpt>
      <trkpt lat="42.88007" lon="0.13549">
        <ele>2001.4</ele>
        <time>2021-03-25T12:31:52Z</time>
      </trkpt>
      <trkpt lat="42.88007" lon="0.13551">
        <ele>2001.4</ele>
        <time>2021-03-25T12:31:54Z</time>
      </trkpt>
      <trkpt lat="42.88007" lon="0.13552">
        <ele>2001.4</ele>
        <time>2021-03-25T12:31:55Z</time>
      </trkpt>
      <trkpt lat="42.88006" lon="0.13553">
        <ele>2001.4</ele>
        <time>2021-03-25T12:31:56Z</time>
      </trkpt>
      <trkpt lat="42.88006" lon="0.13554">
        <ele>2001.2</ele>
        <time>2021-03-25T12:31:58Z</time>
      </trkpt>
      <trkpt lat="42.88005" lon="0.13554">
        <ele>2001.2</ele>
        <time>2021-03-25T12:32:00Z</time>
      </trkpt>
      <trkpt lat="42.88005" lon="0.13555">
        <ele>2003.4</ele>
        <time>2021-03-25T12:32:01Z</time>
      </trkpt>
      <trkpt lat="42.88005" lon="0.13555">
        <ele>2003.4</ele>
        <time>2021-03-25T12:32:03Z</time>
      </trkpt>
      <trkpt lat="42.88005" lon="0.13556">
        <ele>2003.4</ele>
        <time>2021-03-25T12:32:04Z</time>
      </trkpt>
      <trkpt lat="42.88005" lon="0.13557">
        <ele>2003.4</ele>
        <time>2021-03-25T12:32:05Z</time>
      </trkpt>
      <trkpt lat="42.88005" lon="0.13558">
        <ele>2003</ele>
        <time>2021-03-25T12:32:07Z</time>
      </trkpt>
      <trkpt lat="42.88005" lon="0.13559">
        <ele>2003</ele>
        <time>2021-03-25T12:32:08Z</time>
      </trkpt>
      <trkpt lat="42.88005" lon="0.1356">
        <ele>2003</ele>
        <time>2021-03-25T12:32:09Z</time>
      </trkpt>
      <trkpt lat="42.88004" lon="0.13561">
        <ele>2003</ele>
        <time>2021-03-25T12:32:11Z</time>
      </trkpt>
      <trkpt lat="42.88004" lon="0.13562">
        <ele>2002.7</ele>
        <time>2021-03-25T12:32:12Z</time>
      </trkpt>
      <trkpt lat="42.88004" lon="0.13563">
        <ele>2002.7</ele>
        <time>2021-03-25T12:32:13Z</time>
      </trkpt>
      <trkpt lat="42.88003" lon="0.13564">
        <ele>2002.7</ele>
        <time>2021-03-25T12:32:15Z</time>
      </trkpt>
      <trkpt lat="42.88002" lon="0.13566">
        <ele>2004.6</ele>
        <time>2021-03-25T12:32:16Z</time>
      </trkpt>
      <trkpt lat="42.88001" lon="0.13567">
        <ele>2004.6</ele>
        <time>2021-03-25T12:32:17Z</time>
      </trkpt>
      <trkpt lat="42.87999" lon="0.1357">
        <ele>2006.5</ele>
        <time>2021-03-25T12:32:19Z</time>
      </trkpt>
      <trkpt lat="42.87998" lon="0.13571">
        <ele>2006.5</ele>
        <time>2021-03-25T12:32:20Z</time>
      </trkpt>
      <trkpt lat="42.87997" lon="0.13572">
        <ele>2006.5</ele>
        <time>2021-03-25T12:32:21Z</time>
      </trkpt>
      <trkpt lat="42.87995" lon="0.13575">
        <ele>2008.3</ele>
        <time>2021-03-25T12:32:23Z</time>
      </trkpt>
      <trkpt lat="42.87995" lon="0.13576">
        <ele>2008.3</ele>
        <time>2021-03-25T12:32:25Z</time>
      </trkpt>
      <trkpt lat="42.87994" lon="0.13576">
        <ele>2008.3</ele>
        <time>2021-03-25T12:32:27Z</time>
      </trkpt>
      <trkpt lat="42.87994" lon="0.13576">
        <ele>2008.3</ele>
        <time>2021-03-25T12:32:28Z</time>
      </trkpt>
      <trkpt lat="42.87994" lon="0.13577">
        <ele>2008.3</ele>
        <time>2021-03-25T12:32:29Z</time>
      </trkpt>
      <trkpt lat="42.87993" lon="0.13578">
        <ele>2008.3</ele>
        <time>2021-03-25T12:32:31Z</time>
      </trkpt>
      <trkpt lat="42.87992" lon="0.13579">
        <ele>2010</ele>
        <time>2021-03-25T12:32:32Z</time>
      </trkpt>
      <trkpt lat="42.87992" lon="0.1358">
        <ele>2010</ele>
        <time>2021-03-25T12:32:33Z</time>
      </trkpt>
      <trkpt lat="42.87991" lon="0.1358">
        <ele>2010</ele>
        <time>2021-03-25T12:32:34Z</time>
      </trkpt>
      <trkpt lat="42.87991" lon="0.13581">
        <ele>2010</ele>
        <time>2021-03-25T12:32:36Z</time>
      </trkpt>
      <trkpt lat="42.8799" lon="0.13581">
        <ele>2010</ele>
        <time>2021-03-25T12:32:37Z</time>
      </trkpt>
      <trkpt lat="42.8799" lon="0.13582">
        <ele>2010</ele>
        <time>2021-03-25T12:32:38Z</time>
      </trkpt>
      <trkpt lat="42.8799" lon="0.13583">
        <ele>2010</ele>
        <time>2021-03-25T12:32:40Z</time>
      </trkpt>
      <trkpt lat="42.8799" lon="0.13583">
        <ele>2009.6</ele>
        <time>2021-03-25T12:32:41Z</time>
      </trkpt>
      <trkpt lat="42.8799" lon="0.13585">
        <ele>2009.6</ele>
        <time>2021-03-25T12:32:43Z</time>
      </trkpt>
      <trkpt lat="42.8799" lon="0.13586">
        <ele>2011.5</ele>
        <time>2021-03-25T12:32:45Z</time>
      </trkpt>
      <trkpt lat="42.87989" lon="0.13586">
        <ele>2011.5</ele>
        <time>2021-03-25T12:32:46Z</time>
      </trkpt>
      <trkpt lat="42.87989" lon="0.13587">
        <ele>2011.1</ele>
        <time>2021-03-25T12:32:47Z</time>
      </trkpt>
      <trkpt lat="42.87989" lon="0.13588">
        <ele>2011.1</ele>
        <time>2021-03-25T12:32:48Z</time>
      </trkpt>
      <trkpt lat="42.87989" lon="0.1359">
        <ele>2011.1</ele>
        <time>2021-03-25T12:32:50Z</time>
      </trkpt>
      <trkpt lat="42.87988" lon="0.13591">
        <ele>2011.1</ele>
        <time>2021-03-25T12:32:52Z</time>
      </trkpt>
      <trkpt lat="42.87988" lon="0.13592">
        <ele>2010.8</ele>
        <time>2021-03-25T12:32:54Z</time>
      </trkpt>
      <trkpt lat="42.87988" lon="0.13593">
        <ele>2010.8</ele>
        <time>2021-03-25T12:32:55Z</time>
      </trkpt>
      <trkpt lat="42.87988" lon="0.13594">
        <ele>2010.8</ele>
        <time>2021-03-25T12:32:56Z</time>
      </trkpt>
      <trkpt lat="42.87988" lon="0.13595">
        <ele>2010.8</ele>
        <time>2021-03-25T12:32:58Z</time>
      </trkpt>
      <trkpt lat="42.87988" lon="0.13596">
        <ele>2010.4</ele>
        <time>2021-03-25T12:32:59Z</time>
      </trkpt>
      <trkpt lat="42.87987" lon="0.13597">
        <ele>2010.4</ele>
        <time>2021-03-25T12:33:00Z</time>
      </trkpt>
      <trkpt lat="42.87987" lon="0.13599">
        <ele>2010.4</ele>
        <time>2021-03-25T12:33:02Z</time>
      </trkpt>
      <trkpt lat="42.87987" lon="0.136">
        <ele>2010.4</ele>
        <time>2021-03-25T12:33:03Z</time>
      </trkpt>
      <trkpt lat="42.87987" lon="0.136">
        <ele>2010.1</ele>
        <time>2021-03-25T12:33:04Z</time>
      </trkpt>
      <trkpt lat="42.87988" lon="0.136">
        <ele>2010.1</ele>
        <time>2021-03-25T12:33:05Z</time>
      </trkpt>
      <trkpt lat="42.87988" lon="0.13601">
        <ele>2010.1</ele>
        <time>2021-03-25T12:33:07Z</time>
      </trkpt>
      <trkpt lat="42.87988" lon="0.13602">
        <ele>2010.1</ele>
        <time>2021-03-25T12:33:08Z</time>
      </trkpt>
      <trkpt lat="42.87989" lon="0.13604">
        <ele>2010.1</ele>
        <time>2021-03-25T12:33:10Z</time>
      </trkpt>
      <trkpt lat="42.8799" lon="0.13605">
        <ele>2009.8</ele>
        <time>2021-03-25T12:33:12Z</time>
      </trkpt>
      <trkpt lat="42.8799" lon="0.13605">
        <ele>2008.1</ele>
        <time>2021-03-25T12:33:13Z</time>
      </trkpt>
      <trkpt lat="42.8799" lon="0.13606">
        <ele>2008.1</ele>
        <time>2021-03-25T12:33:15Z</time>
      </trkpt>
      <trkpt lat="42.87991" lon="0.13606">
        <ele>2008.1</ele>
        <time>2021-03-25T12:33:17Z</time>
      </trkpt>
      <trkpt lat="42.87991" lon="0.13607">
        <ele>2008.1</ele>
        <time>2021-03-25T12:33:19Z</time>
      </trkpt>
      <trkpt lat="42.87991" lon="0.13607">
        <ele>2008.1</ele>
        <time>2021-03-25T12:33:21Z</time>
      </trkpt>
      <trkpt lat="42.87991" lon="0.13607">
        <ele>2008.1</ele>
        <time>2021-03-25T12:33:22Z</time>
      </trkpt>
      <trkpt lat="42.87992" lon="0.13607">
        <ele>2008.1</ele>
        <time>2021-03-25T12:33:23Z</time>
      </trkpt>
      <trkpt lat="42.87992" lon="0.13608">
        <ele>2008.1</ele>
        <time>2021-03-25T12:33:25Z</time>
      </trkpt>
      <trkpt lat="42.87992" lon="0.13608">
        <ele>2008.1</ele>
        <time>2021-03-25T12:33:26Z</time>
      </trkpt>
      <trkpt lat="42.87992" lon="0.13608">
        <ele>2008.1</ele>
        <time>2021-03-25T12:33:28Z</time>
      </trkpt>
      <trkpt lat="42.87992" lon="0.13608">
        <ele>2008.1</ele>
        <time>2021-03-25T12:33:29Z</time>
      </trkpt>
      <trkpt lat="42.87992" lon="0.13608">
        <ele>2008.1</ele>
        <time>2021-03-25T12:33:30Z</time>
      </trkpt>
      <trkpt lat="42.87992" lon="0.13609">
        <ele>2007.8</ele>
        <time>2021-03-25T12:33:31Z</time>
      </trkpt>
      <trkpt lat="42.87992" lon="0.13609">
        <ele>2007.8</ele>
        <time>2021-03-25T12:33:32Z</time>
      </trkpt>
      <trkpt lat="42.87992" lon="0.13609">
        <ele>2007.8</ele>
        <time>2021-03-25T12:33:34Z</time>
      </trkpt>
      <trkpt lat="42.87992" lon="0.13609">
        <ele>2007.8</ele>
        <time>2021-03-25T12:33:35Z</time>
      </trkpt>
      <trkpt lat="42.87992" lon="0.1361">
        <ele>2007.8</ele>
        <time>2021-03-25T12:33:36Z</time>
      </trkpt>
      <trkpt lat="42.87992" lon="0.1361">
        <ele>2007.8</ele>
        <time>2021-03-25T12:33:38Z</time>
      </trkpt>
      <trkpt lat="42.87992" lon="0.1361">
        <ele>2007.8</ele>
        <time>2021-03-25T12:33:40Z</time>
      </trkpt>
      <trkpt lat="42.87992" lon="0.1361">
        <ele>2007.8</ele>
        <time>2021-03-25T12:33:41Z</time>
      </trkpt>
      <trkpt lat="42.87992" lon="0.13611">
        <ele>2007.8</ele>
        <time>2021-03-25T12:33:42Z</time>
      </trkpt>
      <trkpt lat="42.87992" lon="0.13611">
        <ele>2007.8</ele>
        <time>2021-03-25T12:33:43Z</time>
      </trkpt>
      <trkpt lat="42.87992" lon="0.13612">
        <ele>2007.8</ele>
        <time>2021-03-25T12:33:45Z</time>
      </trkpt>
      <trkpt lat="42.87992" lon="0.13612">
        <ele>2007.8</ele>
        <time>2021-03-25T12:33:46Z</time>
      </trkpt>
      <trkpt lat="42.87992" lon="0.13613">
        <ele>2007.5</ele>
        <time>2021-03-25T12:33:48Z</time>
      </trkpt>
      <trkpt lat="42.87991" lon="0.13614">
        <ele>2007.5</ele>
        <time>2021-03-25T12:33:49Z</time>
      </trkpt>
      <trkpt lat="42.87991" lon="0.13615">
        <ele>2007.5</ele>
        <time>2021-03-25T12:33:50Z</time>
      </trkpt>
      <trkpt lat="42.87991" lon="0.13616">
        <ele>2007.5</ele>
        <time>2021-03-25T12:33:52Z</time>
      </trkpt>
      <trkpt lat="42.87991" lon="0.13618">
        <ele>2007.2</ele>
        <time>2021-03-25T12:33:54Z</time>
      </trkpt>
      <trkpt lat="42.8799" lon="0.13619">
        <ele>2007.2</ele>
        <time>2021-03-25T12:33:55Z</time>
      </trkpt>
      <trkpt lat="42.8799" lon="0.1362">
        <ele>2007.2</ele>
        <time>2021-03-25T12:33:56Z</time>
      </trkpt>
      <trkpt lat="42.87989" lon="0.13623">
        <ele>2008.4</ele>
        <time>2021-03-25T12:33:58Z</time>
      </trkpt>
      <trkpt lat="42.87989" lon="0.13625">
        <ele>2008.4</ele>
        <time>2021-03-25T12:33:59Z</time>
      </trkpt>
      <trkpt lat="42.87988" lon="0.13626">
        <ele>2008.1</ele>
        <time>2021-03-25T12:34:00Z</time>
      </trkpt>
      <trkpt lat="42.87986" lon="0.1363">
        <ele>2009.6</ele>
        <time>2021-03-25T12:34:02Z</time>
      </trkpt>
      <trkpt lat="42.87984" lon="0.13634">
        <ele>2009.3</ele>
        <time>2021-03-25T12:34:03Z</time>
      </trkpt>
      <trkpt lat="42.87983" lon="0.13635">
        <ele>2010.5</ele>
        <time>2021-03-25T12:34:04Z</time>
      </trkpt>
      <trkpt lat="42.87981" lon="0.13637">
        <ele>2010.5</ele>
        <time>2021-03-25T12:34:05Z</time>
      </trkpt>
      <trkpt lat="42.8798" lon="0.13639">
        <ele>2010.1</ele>
        <time>2021-03-25T12:34:07Z</time>
      </trkpt>
      <trkpt lat="42.8798" lon="0.1364">
        <ele>2011.8</ele>
        <time>2021-03-25T12:34:08Z</time>
      </trkpt>
      <trkpt lat="42.87979" lon="0.13642">
        <ele>2011.8</ele>
        <time>2021-03-25T12:34:09Z</time>
      </trkpt>
      <trkpt lat="42.87979" lon="0.13644">
        <ele>2011.5</ele>
        <time>2021-03-25T12:34:11Z</time>
      </trkpt>
      <trkpt lat="42.87979" lon="0.13645">
        <ele>2011.5</ele>
        <time>2021-03-25T12:34:13Z</time>
      </trkpt>
      <trkpt lat="42.87979" lon="0.13646">
        <ele>2011.5</ele>
        <time>2021-03-25T12:34:14Z</time>
      </trkpt>
      <trkpt lat="42.87979" lon="0.13648">
        <ele>2011.2</ele>
        <time>2021-03-25T12:34:16Z</time>
      </trkpt>
      <trkpt lat="42.8798" lon="0.13649">
        <ele>2011.2</ele>
        <time>2021-03-25T12:34:17Z</time>
      </trkpt>
      <trkpt lat="42.8798" lon="0.1365">
        <ele>2011.2</ele>
        <time>2021-03-25T12:34:18Z</time>
      </trkpt>
      <trkpt lat="42.8798" lon="0.13651">
        <ele>2010.9</ele>
        <time>2021-03-25T12:34:20Z</time>
      </trkpt>
      <trkpt lat="42.87979" lon="0.13653">
        <ele>2010.9</ele>
        <time>2021-03-25T12:34:21Z</time>
      </trkpt>
      <trkpt lat="42.87979" lon="0.13654">
        <ele>2010.9</ele>
        <time>2021-03-25T12:34:23Z</time>
      </trkpt>
      <trkpt lat="42.87978" lon="0.13656">
        <ele>2010.7</ele>
        <time>2021-03-25T12:34:25Z</time>
      </trkpt>
      <trkpt lat="42.87977" lon="0.13659">
        <ele>2010.7</ele>
        <time>2021-03-25T12:34:26Z</time>
      </trkpt>
      <trkpt lat="42.87976" lon="0.1366">
        <ele>2012.2</ele>
        <time>2021-03-25T12:34:27Z</time>
      </trkpt>
      <trkpt lat="42.87976" lon="0.13661">
        <ele>2012.2</ele>
        <time>2021-03-25T12:34:29Z</time>
      </trkpt>
      <trkpt lat="42.87975" lon="0.13663">
        <ele>2012.2</ele>
        <time>2021-03-25T12:34:30Z</time>
      </trkpt>
      <trkpt lat="42.87974" lon="0.13664">
        <ele>2012.2</ele>
        <time>2021-03-25T12:34:31Z</time>
      </trkpt>
      <trkpt lat="42.87972" lon="0.13666">
        <ele>2013.8</ele>
        <time>2021-03-25T12:34:33Z</time>
      </trkpt>
      <trkpt lat="42.87972" lon="0.13667">
        <ele>2013.8</ele>
        <time>2021-03-25T12:34:34Z</time>
      </trkpt>
      <trkpt lat="42.87971" lon="0.13667">
        <ele>2013.8</ele>
        <time>2021-03-25T12:34:35Z</time>
      </trkpt>
      <trkpt lat="42.87971" lon="0.13672">
        <ele>2015.3</ele>
        <time>2021-03-25T12:34:37Z</time>
      </trkpt>
      <trkpt lat="42.87968" lon="0.13677">
        <ele>2015.1</ele>
        <time>2021-03-25T12:34:39Z</time>
      </trkpt>
      <trkpt lat="42.87967" lon="0.13678">
        <ele>2016.5</ele>
        <time>2021-03-25T12:34:40Z</time>
      </trkpt>
      <trkpt lat="42.87966" lon="0.1368">
        <ele>2016.5</ele>
        <time>2021-03-25T12:34:41Z</time>
      </trkpt>
      <trkpt lat="42.87966" lon="0.1368">
        <ele>2016.5</ele>
        <time>2021-03-25T12:34:43Z</time>
      </trkpt>
      <trkpt lat="42.87966" lon="0.13681">
        <ele>2016.5</ele>
        <time>2021-03-25T12:34:44Z</time>
      </trkpt>
      <trkpt lat="42.87966" lon="0.13681">
        <ele>2016.5</ele>
        <time>2021-03-25T12:34:46Z</time>
      </trkpt>
      <trkpt lat="42.87966" lon="0.13682">
        <ele>2016.3</ele>
        <time>2021-03-25T12:34:48Z</time>
      </trkpt>
      <trkpt lat="42.87967" lon="0.13682">
        <ele>2016.3</ele>
        <time>2021-03-25T12:34:49Z</time>
      </trkpt>
      <trkpt lat="42.87967" lon="0.13683">
        <ele>2016.3</ele>
        <time>2021-03-25T12:34:51Z</time>
      </trkpt>
      <trkpt lat="42.87967" lon="0.13684">
        <ele>2016.3</ele>
        <time>2021-03-25T12:34:52Z</time>
      </trkpt>
      <trkpt lat="42.87967" lon="0.13685">
        <ele>2016.3</ele>
        <time>2021-03-25T12:34:54Z</time>
      </trkpt>
      <trkpt lat="42.87967" lon="0.13686">
        <ele>2016.3</ele>
        <time>2021-03-25T12:34:56Z</time>
      </trkpt>
      <trkpt lat="42.87968" lon="0.13687">
        <ele>2014.5</ele>
        <time>2021-03-25T12:34:58Z</time>
      </trkpt>
      <trkpt lat="42.87971" lon="0.13686">
        <ele>2013.1</ele>
        <time>2021-03-25T12:35:00Z</time>
      </trkpt>
      <trkpt lat="42.87973" lon="0.13686">
        <ele>2013.1</ele>
        <time>2021-03-25T12:35:01Z</time>
      </trkpt>
      <trkpt lat="42.87974" lon="0.13686">
        <ele>2012.9</ele>
        <time>2021-03-25T12:35:03Z</time>
      </trkpt>
      <trkpt lat="42.87974" lon="0.13689">
        <ele>2011.4</ele>
        <time>2021-03-25T12:35:05Z</time>
      </trkpt>
      <trkpt lat="42.87974" lon="0.13692">
        <ele>2011.3</ele>
        <time>2021-03-25T12:35:06Z</time>
      </trkpt>
      <trkpt lat="42.87974" lon="0.13694">
        <ele>2011.3</ele>
        <time>2021-03-25T12:35:07Z</time>
      </trkpt>
      <trkpt lat="42.87975" lon="0.13697">
        <ele>2011.2</ele>
        <time>2021-03-25T12:35:08Z</time>
      </trkpt>
      <trkpt lat="42.87975" lon="0.13698">
        <ele>2011.2</ele>
        <time>2021-03-25T12:35:09Z</time>
      </trkpt>
      <trkpt lat="42.87974" lon="0.13699">
        <ele>2011.2</ele>
        <time>2021-03-25T12:35:10Z</time>
      </trkpt>
      <trkpt lat="42.87974" lon="0.137">
        <ele>2011.2</ele>
        <time>2021-03-25T12:35:11Z</time>
      </trkpt>
      <trkpt lat="42.87974" lon="0.13702">
        <ele>2011.2</ele>
        <time>2021-03-25T12:35:13Z</time>
      </trkpt>
      <trkpt lat="42.87974" lon="0.13703">
        <ele>2011.1</ele>
        <time>2021-03-25T12:35:14Z</time>
      </trkpt>
      <trkpt lat="42.87974" lon="0.13704">
        <ele>2011.1</ele>
        <time>2021-03-25T12:35:15Z</time>
      </trkpt>
      <trkpt lat="42.87974" lon="0.13706">
        <ele>2011.1</ele>
        <time>2021-03-25T12:35:16Z</time>
      </trkpt>
      <trkpt lat="42.87974" lon="0.13707">
        <ele>2012.5</ele>
        <time>2021-03-25T12:35:17Z</time>
      </trkpt>
      <trkpt lat="42.87973" lon="0.13709">
        <ele>2012.4</ele>
        <time>2021-03-25T12:35:19Z</time>
      </trkpt>
      <trkpt lat="42.87972" lon="0.1371">
        <ele>2012.4</ele>
        <time>2021-03-25T12:35:20Z</time>
      </trkpt>
      <trkpt lat="42.87972" lon="0.13712">
        <ele>2012.3</ele>
        <time>2021-03-25T12:35:22Z</time>
      </trkpt>
      <trkpt lat="42.87971" lon="0.13715">
        <ele>2012.3</ele>
        <time>2021-03-25T12:35:23Z</time>
      </trkpt>
      <trkpt lat="42.87971" lon="0.13716">
        <ele>2012.3</ele>
        <time>2021-03-25T12:35:24Z</time>
      </trkpt>
      <trkpt lat="42.8797" lon="0.1372">
        <ele>2013.6</ele>
        <time>2021-03-25T12:35:25Z</time>
      </trkpt>
      <trkpt lat="42.87967" lon="0.13725">
        <ele>2014.6</ele>
        <time>2021-03-25T12:35:27Z</time>
      </trkpt>
      <trkpt lat="42.87966" lon="0.13728">
        <ele>2014.6</ele>
        <time>2021-03-25T12:35:28Z</time>
      </trkpt>
      <trkpt lat="42.87966" lon="0.13729">
        <ele>2014.6</ele>
        <time>2021-03-25T12:35:29Z</time>
      </trkpt>
      <trkpt lat="42.87965" lon="0.1373">
        <ele>2014.6</ele>
        <time>2021-03-25T12:35:31Z</time>
      </trkpt>
      <trkpt lat="42.87965" lon="0.13731">
        <ele>2014.6</ele>
        <time>2021-03-25T12:35:32Z</time>
      </trkpt>
      <trkpt lat="42.87965" lon="0.13732">
        <ele>2014.6</ele>
        <time>2021-03-25T12:35:33Z</time>
      </trkpt>
      <trkpt lat="42.87965" lon="0.13734">
        <ele>2014.6</ele>
        <time>2021-03-25T12:35:35Z</time>
      </trkpt>
      <trkpt lat="42.87965" lon="0.13736">
        <ele>2014.6</ele>
        <time>2021-03-25T12:35:36Z</time>
      </trkpt>
      <trkpt lat="42.87965" lon="0.13739">
        <ele>2014.7</ele>
        <time>2021-03-25T12:35:38Z</time>
      </trkpt>
      <trkpt lat="42.87965" lon="0.1374">
        <ele>2014.7</ele>
        <time>2021-03-25T12:35:39Z</time>
      </trkpt>
      <trkpt lat="42.87965" lon="0.13741">
        <ele>2014.7</ele>
        <time>2021-03-25T12:35:40Z</time>
      </trkpt>
      <trkpt lat="42.87965" lon="0.13742">
        <ele>2014.8</ele>
        <time>2021-03-25T12:35:41Z</time>
      </trkpt>
      <trkpt lat="42.87965" lon="0.13744">
        <ele>2014.8</ele>
        <time>2021-03-25T12:35:43Z</time>
      </trkpt>
      <trkpt lat="42.87965" lon="0.13745">
        <ele>2014.8</ele>
        <time>2021-03-25T12:35:44Z</time>
      </trkpt>
      <trkpt lat="42.87965" lon="0.13746">
        <ele>2014.8</ele>
        <time>2021-03-25T12:35:45Z</time>
      </trkpt>
      <trkpt lat="42.87965" lon="0.13747">
        <ele>2014.9</ele>
        <time>2021-03-25T12:35:46Z</time>
      </trkpt>
      <trkpt lat="42.87964" lon="0.13748">
        <ele>2015.8</ele>
        <time>2021-03-25T12:35:48Z</time>
      </trkpt>
      <trkpt lat="42.87964" lon="0.13749">
        <ele>2015.8</ele>
        <time>2021-03-25T12:35:49Z</time>
      </trkpt>
      <trkpt lat="42.87964" lon="0.13749">
        <ele>2015.8</ele>
        <time>2021-03-25T12:35:51Z</time>
      </trkpt>
      <trkpt lat="42.87963" lon="0.13749">
        <ele>2015.8</ele>
        <time>2021-03-25T12:35:53Z</time>
      </trkpt>
      <trkpt lat="42.87963" lon="0.13748">
        <ele>2015.8</ele>
        <time>2021-03-25T12:35:54Z</time>
      </trkpt>
      <trkpt lat="42.87963" lon="0.13748">
        <ele>2015.8</ele>
        <time>2021-03-25T12:35:55Z</time>
      </trkpt>
      <trkpt lat="42.87963" lon="0.13748">
        <ele>2015.8</ele>
        <time>2021-03-25T12:35:56Z</time>
      </trkpt>
      <trkpt lat="42.87962" lon="0.13748">
        <ele>2015.8</ele>
        <time>2021-03-25T12:35:57Z</time>
      </trkpt>
      <trkpt lat="42.87962" lon="0.13748">
        <ele>2015.8</ele>
        <time>2021-03-25T12:35:59Z</time>
      </trkpt>
      <trkpt lat="42.87961" lon="0.13749">
        <ele>2015.8</ele>
        <time>2021-03-25T12:36:00Z</time>
      </trkpt>
      <trkpt lat="42.87961" lon="0.13749">
        <ele>2015.8</ele>
        <time>2021-03-25T12:36:01Z</time>
      </trkpt>
      <trkpt lat="42.87961" lon="0.13749">
        <ele>2015.8</ele>
        <time>2021-03-25T12:36:02Z</time>
      </trkpt>
      <trkpt lat="42.87962" lon="0.13749">
        <ele>2015.8</ele>
        <time>2021-03-25T12:36:04Z</time>
      </trkpt>
      <trkpt lat="42.87962" lon="0.13749">
        <ele>2015.8</ele>
        <time>2021-03-25T12:36:06Z</time>
      </trkpt>
      <trkpt lat="42.87962" lon="0.13749">
        <ele>2015.8</ele>
        <time>2021-03-25T12:36:07Z</time>
      </trkpt>
      <trkpt lat="42.87963" lon="0.13748">
        <ele>2015.8</ele>
        <time>2021-03-25T12:36:08Z</time>
      </trkpt>
      <trkpt lat="42.87963" lon="0.13748">
        <ele>2015.8</ele>
        <time>2021-03-25T12:36:10Z</time>
      </trkpt>
      <trkpt lat="42.87964" lon="0.13748">
        <ele>2015.8</ele>
        <time>2021-03-25T12:36:11Z</time>
      </trkpt>
      <trkpt lat="42.87964" lon="0.13747">
        <ele>2015.8</ele>
        <time>2021-03-25T12:36:12Z</time>
      </trkpt>
      <trkpt lat="42.87965" lon="0.13747">
        <ele>2014.9</ele>
        <time>2021-03-25T12:36:14Z</time>
      </trkpt>
      <trkpt lat="42.87965" lon="0.13747">
        <ele>2014.9</ele>
        <time>2021-03-25T12:36:15Z</time>
      </trkpt>
      <trkpt lat="42.87967" lon="0.13746">
        <ele>2014.8</ele>
        <time>2021-03-25T12:36:17Z</time>
      </trkpt>
      <trkpt lat="42.87967" lon="0.13745">
        <ele>2014.8</ele>
        <time>2021-03-25T12:36:19Z</time>
      </trkpt>
      <trkpt lat="42.87967" lon="0.13745">
        <ele>2014.8</ele>
        <time>2021-03-25T12:36:20Z</time>
      </trkpt>
      <trkpt lat="42.87967" lon="0.13745">
        <ele>2014.8</ele>
        <time>2021-03-25T12:36:22Z</time>
      </trkpt>
      <trkpt lat="42.87967" lon="0.13745">
        <ele>2014.8</ele>
        <time>2021-03-25T12:36:24Z</time>
      </trkpt>
      <trkpt lat="42.87968" lon="0.13745">
        <ele>2014.8</ele>
        <time>2021-03-25T12:36:26Z</time>
      </trkpt>
      <trkpt lat="42.87967" lon="0.13746">
        <ele>2014.9</ele>
        <time>2021-03-25T12:36:28Z</time>
      </trkpt>
      <trkpt lat="42.87966" lon="0.13747">
        <ele>2014.9</ele>
        <time>2021-03-25T12:36:30Z</time>
      </trkpt>
      <trkpt lat="42.87966" lon="0.13747">
        <ele>2014.9</ele>
        <time>2021-03-25T12:36:32Z</time>
      </trkpt>
      <trkpt lat="42.87966" lon="0.13748">
        <ele>2014.9</ele>
        <time>2021-03-25T12:36:34Z</time>
      </trkpt>
      <trkpt lat="42.87966" lon="0.13749">
        <ele>2014.9</ele>
        <time>2021-03-25T12:36:36Z</time>
      </trkpt>
      <trkpt lat="42.87966" lon="0.13751">
        <ele>2015.1</ele>
        <time>2021-03-25T12:36:38Z</time>
      </trkpt>
      <trkpt lat="42.87968" lon="0.13752">
        <ele>2014.2</ele>
        <time>2021-03-25T12:36:40Z</time>
      </trkpt>
      <trkpt lat="42.87969" lon="0.13753">
        <ele>2014.2</ele>
        <time>2021-03-25T12:36:42Z</time>
      </trkpt>
      <trkpt lat="42.87969" lon="0.13752">
        <ele>2014.2</ele>
        <time>2021-03-25T12:36:44Z</time>
      </trkpt>
      <trkpt lat="42.87969" lon="0.13751">
        <ele>2014.2</ele>
        <time>2021-03-25T12:36:46Z</time>
      </trkpt>
      <trkpt lat="42.87968" lon="0.13751">
        <ele>2014.2</ele>
        <time>2021-03-25T12:36:48Z</time>
      </trkpt>
      <trkpt lat="42.87968" lon="0.13752">
        <ele>2014.2</ele>
        <time>2021-03-25T12:36:50Z</time>
      </trkpt>
      <trkpt lat="42.87969" lon="0.13752">
        <ele>2014.2</ele>
        <time>2021-03-25T12:36:52Z</time>
      </trkpt>
      <trkpt lat="42.8797" lon="0.13751">
        <ele>2014.2</ele>
        <time>2021-03-25T12:36:53Z</time>
      </trkpt>
      <trkpt lat="42.87969" lon="0.13752">
        <ele>2014.2</ele>
        <time>2021-03-25T12:36:55Z</time>
      </trkpt>
      <trkpt lat="42.87968" lon="0.13752">
        <ele>2014.2</ele>
        <time>2021-03-25T12:36:56Z</time>
      </trkpt>
      <trkpt lat="42.87967" lon="0.13752">
        <ele>2015.1</ele>
        <time>2021-03-25T12:36:57Z</time>
      </trkpt>
      <trkpt lat="42.87965" lon="0.13751">
        <ele>2015.1</ele>
        <time>2021-03-25T12:36:58Z</time>
      </trkpt>
      <trkpt lat="42.87964" lon="0.13752">
        <ele>2015.9</ele>
        <time>2021-03-25T12:37:00Z</time>
      </trkpt>
      <trkpt lat="42.87963" lon="0.13752">
        <ele>2015.9</ele>
        <time>2021-03-25T12:37:02Z</time>
      </trkpt>
      <trkpt lat="42.87963" lon="0.13752">
        <ele>2015.9</ele>
        <time>2021-03-25T12:37:04Z</time>
      </trkpt>
      <trkpt lat="42.87964" lon="0.13752">
        <ele>2015.9</ele>
        <time>2021-03-25T12:37:06Z</time>
      </trkpt>
      <trkpt lat="42.87964" lon="0.13752">
        <ele>2015.9</ele>
        <time>2021-03-25T12:37:07Z</time>
      </trkpt>
      <trkpt lat="42.87964" lon="0.13752">
        <ele>2015.9</ele>
        <time>2021-03-25T12:37:08Z</time>
      </trkpt>
      <trkpt lat="42.87964" lon="0.13752">
        <ele>2015.9</ele>
        <time>2021-03-25T12:37:09Z</time>
      </trkpt>
      <trkpt lat="42.87965" lon="0.13752">
        <ele>2015.1</ele>
        <time>2021-03-25T12:37:10Z</time>
      </trkpt>
      <trkpt lat="42.87965" lon="0.13752">
        <ele>2015.1</ele>
        <time>2021-03-25T12:37:11Z</time>
      </trkpt>
      <trkpt lat="42.87965" lon="0.13752">
        <ele>2015.1</ele>
        <time>2021-03-25T12:37:12Z</time>
      </trkpt>
      <trkpt lat="42.87966" lon="0.13751">
        <ele>2015.1</ele>
        <time>2021-03-25T12:37:14Z</time>
      </trkpt>
      <trkpt lat="42.87966" lon="0.13751">
        <ele>2015.1</ele>
        <time>2021-03-25T12:37:16Z</time>
      </trkpt>
      <trkpt lat="42.87967" lon="0.1375">
        <ele>2015.1</ele>
        <time>2021-03-25T12:37:17Z</time>
      </trkpt>
      <trkpt lat="42.87968" lon="0.13749">
        <ele>2014.9</ele>
        <time>2021-03-25T12:37:19Z</time>
      </trkpt>
      <trkpt lat="42.87968" lon="0.13749">
        <ele>2014</ele>
        <time>2021-03-25T12:37:20Z</time>
      </trkpt>
      <trkpt lat="42.87968" lon="0.1375">
        <ele>2014.9</ele>
        <time>2021-03-25T12:37:22Z</time>
      </trkpt>
      <trkpt lat="42.87967" lon="0.1375">
        <ele>2015.1</ele>
        <time>2021-03-25T12:37:24Z</time>
      </trkpt>
      <trkpt lat="42.87967" lon="0.1375">
        <ele>2015.1</ele>
        <time>2021-03-25T12:37:25Z</time>
      </trkpt>
      <trkpt lat="42.87966" lon="0.1375">
        <ele>2014.9</ele>
        <time>2021-03-25T12:37:27Z</time>
      </trkpt>
      <trkpt lat="42.87965" lon="0.1375">
        <ele>2014.9</ele>
        <time>2021-03-25T12:37:28Z</time>
      </trkpt>
      <trkpt lat="42.87965" lon="0.1375">
        <ele>2014.9</ele>
        <time>2021-03-25T12:37:29Z</time>
      </trkpt>
      <trkpt lat="42.87965" lon="0.13749">
        <ele>2014.9</ele>
        <time>2021-03-25T12:37:30Z</time>
      </trkpt>
      <trkpt lat="42.87965" lon="0.13749">
        <ele>2014.9</ele>
        <time>2021-03-25T12:37:31Z</time>
      </trkpt>
      <trkpt lat="42.87965" lon="0.1375">
        <ele>2014.9</ele>
        <time>2021-03-25T12:37:33Z</time>
      </trkpt>
      <trkpt lat="42.87965" lon="0.1375">
        <ele>2014.9</ele>
        <time>2021-03-25T12:37:34Z</time>
      </trkpt>
      <trkpt lat="42.87965" lon="0.1375">
        <ele>2014.9</ele>
        <time>2021-03-25T12:37:35Z</time>
      </trkpt>
      <trkpt lat="42.87964" lon="0.13749">
        <ele>2014.9</ele>
        <time>2021-03-25T12:37:37Z</time>
      </trkpt>
      <trkpt lat="42.87964" lon="0.13748">
        <ele>2015.8</ele>
        <time>2021-03-25T12:37:39Z</time>
      </trkpt>
      <trkpt lat="42.87964" lon="0.13748">
        <ele>2015.8</ele>
        <time>2021-03-25T12:37:40Z</time>
      </trkpt>
      <trkpt lat="42.87964" lon="0.13748">
        <ele>2015.8</ele>
        <time>2021-03-25T12:37:41Z</time>
      </trkpt>
      <trkpt lat="42.87964" lon="0.13748">
        <ele>2015.8</ele>
        <time>2021-03-25T12:37:43Z</time>
      </trkpt>
      <trkpt lat="42.87964" lon="0.13748">
        <ele>2015.8</ele>
        <time>2021-03-25T12:37:44Z</time>
      </trkpt>
      <trkpt lat="42.87964" lon="0.13749">
        <ele>2015.8</ele>
        <time>2021-03-25T12:37:46Z</time>
      </trkpt>
      <trkpt lat="42.87964" lon="0.13749">
        <ele>2015.8</ele>
        <time>2021-03-25T12:37:47Z</time>
      </trkpt>
      <trkpt lat="42.87963" lon="0.13749">
        <ele>2015.8</ele>
        <time>2021-03-25T12:37:49Z</time>
      </trkpt>
      <trkpt lat="42.87963" lon="0.13749">
        <ele>2015.8</ele>
        <time>2021-03-25T12:37:50Z</time>
      </trkpt>
      <trkpt lat="42.87963" lon="0.13749">
        <ele>2015.8</ele>
        <time>2021-03-25T12:37:52Z</time>
      </trkpt>
      <trkpt lat="42.87963" lon="0.13749">
        <ele>2015.8</ele>
        <time>2021-03-25T12:37:53Z</time>
      </trkpt>
      <trkpt lat="42.87964" lon="0.13748">
        <ele>2015.8</ele>
        <time>2021-03-25T12:37:55Z</time>
      </trkpt>
      <trkpt lat="42.87964" lon="0.13748">
        <ele>2015.8</ele>
        <time>2021-03-25T12:37:57Z</time>
      </trkpt>
      <trkpt lat="42.87965" lon="0.13748">
        <ele>2014.9</ele>
        <time>2021-03-25T12:37:58Z</time>
      </trkpt>
      <trkpt lat="42.87965" lon="0.13748">
        <ele>2014.9</ele>
        <time>2021-03-25T12:38:00Z</time>
      </trkpt>
      <trkpt lat="42.87965" lon="0.13748">
        <ele>2014.9</ele>
        <time>2021-03-25T12:38:02Z</time>
      </trkpt>
      <trkpt lat="42.87965" lon="0.13747">
        <ele>2014.9</ele>
        <time>2021-03-25T12:38:03Z</time>
      </trkpt>
      <trkpt lat="42.87966" lon="0.13747">
        <ele>2014.9</ele>
        <time>2021-03-25T12:38:04Z</time>
      </trkpt>
      <trkpt lat="42.87966" lon="0.13747">
        <ele>2014.9</ele>
        <time>2021-03-25T12:38:05Z</time>
      </trkpt>
      <trkpt lat="42.87966" lon="0.13747">
        <ele>2014.9</ele>
        <time>2021-03-25T12:38:07Z</time>
      </trkpt>
      <trkpt lat="42.87966" lon="0.13747">
        <ele>2014.9</ele>
        <time>2021-03-25T12:38:08Z</time>
      </trkpt>
      <trkpt lat="42.87966" lon="0.13746">
        <ele>2014.8</ele>
        <time>2021-03-25T12:38:10Z</time>
      </trkpt>
      <trkpt lat="42.87965" lon="0.13745">
        <ele>2014.8</ele>
        <time>2021-03-25T12:38:12Z</time>
      </trkpt>
      <trkpt lat="42.87965" lon="0.13746">
        <ele>2014.8</ele>
        <time>2021-03-25T12:38:13Z</time>
      </trkpt>
      <trkpt lat="42.87966" lon="0.13747">
        <ele>2014.9</ele>
        <time>2021-03-25T12:38:15Z</time>
      </trkpt>
      <trkpt lat="42.87966" lon="0.13747">
        <ele>2014.9</ele>
        <time>2021-03-25T12:38:16Z</time>
      </trkpt>
      <trkpt lat="42.87966" lon="0.13747">
        <ele>2014.9</ele>
        <time>2021-03-25T12:38:17Z</time>
      </trkpt>
      <trkpt lat="42.87966" lon="0.13747">
        <ele>2014.9</ele>
        <time>2021-03-25T12:38:18Z</time>
      </trkpt>
      <trkpt lat="42.87965" lon="0.13747">
        <ele>2014.9</ele>
        <time>2021-03-25T12:38:20Z</time>
      </trkpt>
      <trkpt lat="42.87965" lon="0.13747">
        <ele>2014.9</ele>
        <time>2021-03-25T12:38:22Z</time>
      </trkpt>
      <trkpt lat="42.87965" lon="0.13747">
        <ele>2014.9</ele>
        <time>2021-03-25T12:38:24Z</time>
      </trkpt>
      <trkpt lat="42.87965" lon="0.13747">
        <ele>2014.9</ele>
        <time>2021-03-25T12:38:26Z</time>
      </trkpt>
      <trkpt lat="42.87965" lon="0.13748">
        <ele>2014.9</ele>
        <time>2021-03-25T12:38:27Z</time>
      </trkpt>
      <trkpt lat="42.87965" lon="0.13748">
        <ele>2014.9</ele>
        <time>2021-03-25T12:38:28Z</time>
      </trkpt>
      <trkpt lat="42.87964" lon="0.13748">
        <ele>2015.8</ele>
        <time>2021-03-25T12:38:30Z</time>
      </trkpt>
      <trkpt lat="42.87964" lon="0.13748">
        <ele>2015.8</ele>
        <time>2021-03-25T12:38:32Z</time>
      </trkpt>
      <trkpt lat="42.87964" lon="0.13748">
        <ele>2015.8</ele>
        <time>2021-03-25T12:38:33Z</time>
      </trkpt>
      <trkpt lat="42.87964" lon="0.13747">
        <ele>2015.8</ele>
        <time>2021-03-25T12:38:35Z</time>
      </trkpt>
      <trkpt lat="42.87964" lon="0.13747">
        <ele>2015.8</ele>
        <time>2021-03-25T12:38:37Z</time>
      </trkpt>
      <trkpt lat="42.87964" lon="0.13747">
        <ele>2014.9</ele>
        <time>2021-03-25T12:38:38Z</time>
      </trkpt>
      <trkpt lat="42.87965" lon="0.13746">
        <ele>2014.9</ele>
        <time>2021-03-25T12:38:40Z</time>
      </trkpt>
      <trkpt lat="42.87965" lon="0.13746">
        <ele>2014.9</ele>
        <time>2021-03-25T12:38:41Z</time>
      </trkpt>
      <trkpt lat="42.87964" lon="0.13746">
        <ele>2015.8</ele>
        <time>2021-03-25T12:38:42Z</time>
      </trkpt>
      <trkpt lat="42.87963" lon="0.13747">
        <ele>2015.8</ele>
        <time>2021-03-25T12:38:43Z</time>
      </trkpt>
      <trkpt lat="42.87962" lon="0.13747">
        <ele>2015.8</ele>
        <time>2021-03-25T12:38:44Z</time>
      </trkpt>
      <trkpt lat="42.87962" lon="0.13748">
        <ele>2015.8</ele>
        <time>2021-03-25T12:38:46Z</time>
      </trkpt>
      <trkpt lat="42.87962" lon="0.13748">
        <ele>2015.8</ele>
        <time>2021-03-25T12:38:47Z</time>
      </trkpt>
      <trkpt lat="42.87962" lon="0.13749">
        <ele>2015.8</ele>
        <time>2021-03-25T12:38:48Z</time>
      </trkpt>
      <trkpt lat="42.87962" lon="0.13749">
        <ele>2015.8</ele>
        <time>2021-03-25T12:38:49Z</time>
      </trkpt>
      <trkpt lat="42.87963" lon="0.13749">
        <ele>2015.8</ele>
        <time>2021-03-25T12:38:51Z</time>
      </trkpt>
      <trkpt lat="42.87963" lon="0.13749">
        <ele>2015.8</ele>
        <time>2021-03-25T12:38:52Z</time>
      </trkpt>
      <trkpt lat="42.87964" lon="0.13749">
        <ele>2015.8</ele>
        <time>2021-03-25T12:38:54Z</time>
      </trkpt>
      <trkpt lat="42.87965" lon="0.1375">
        <ele>2014.9</ele>
        <time>2021-03-25T12:38:55Z</time>
      </trkpt>
      <trkpt lat="42.87966" lon="0.13749">
        <ele>2014.9</ele>
        <time>2021-03-25T12:38:56Z</time>
      </trkpt>
      <trkpt lat="42.87966" lon="0.13749">
        <ele>2014.9</ele>
        <time>2021-03-25T12:38:58Z</time>
      </trkpt>
      <trkpt lat="42.87966" lon="0.13749">
        <ele>2014.9</ele>
        <time>2021-03-25T12:38:59Z</time>
      </trkpt>
      <trkpt lat="42.87966" lon="0.1375">
        <ele>2014.9</ele>
        <time>2021-03-25T12:39:00Z</time>
      </trkpt>
      <trkpt lat="42.87967" lon="0.1375">
        <ele>2014.9</ele>
        <time>2021-03-25T12:39:02Z</time>
      </trkpt>
      <trkpt lat="42.87967" lon="0.1375">
        <ele>2014.9</ele>
        <time>2021-03-25T12:39:03Z</time>
      </trkpt>
      <trkpt lat="42.87966" lon="0.13749">
        <ele>2014.9</ele>
        <time>2021-03-25T12:39:05Z</time>
      </trkpt>
      <trkpt lat="42.87966" lon="0.13749">
        <ele>2014.9</ele>
        <time>2021-03-25T12:39:06Z</time>
      </trkpt>
      <trkpt lat="42.87966" lon="0.13749">
        <ele>2014.9</ele>
        <time>2021-03-25T12:39:07Z</time>
      </trkpt>
      <trkpt lat="42.87966" lon="0.1375">
        <ele>2014.9</ele>
        <time>2021-03-25T12:39:08Z</time>
      </trkpt>
      <trkpt lat="42.87968" lon="0.1375">
        <ele>2014.2</ele>
        <time>2021-03-25T12:39:10Z</time>
      </trkpt>
      <trkpt lat="42.87969" lon="0.1375">
        <ele>2014.2</ele>
        <time>2021-03-25T12:39:12Z</time>
      </trkpt>
      <trkpt lat="42.8797" lon="0.1375">
        <ele>2014.2</ele>
        <time>2021-03-25T12:39:14Z</time>
      </trkpt>
      <trkpt lat="42.87971" lon="0.13751">
        <ele>2013.3</ele>
        <time>2021-03-25T12:39:15Z</time>
      </trkpt>
      <trkpt lat="42.87971" lon="0.13751">
        <ele>2013.3</ele>
        <time>2021-03-25T12:39:17Z</time>
      </trkpt>
      <trkpt lat="42.87971" lon="0.13751">
        <ele>2014.2</ele>
        <time>2021-03-25T12:39:18Z</time>
      </trkpt>
      <trkpt lat="42.8797" lon="0.13751">
        <ele>2014.2</ele>
        <time>2021-03-25T12:39:20Z</time>
      </trkpt>
      <trkpt lat="42.8797" lon="0.13752">
        <ele>2014.2</ele>
        <time>2021-03-25T12:39:22Z</time>
      </trkpt>
      <trkpt lat="42.8797" lon="0.13752">
        <ele>2014.2</ele>
        <time>2021-03-25T12:39:23Z</time>
      </trkpt>
      <trkpt lat="42.8797" lon="0.13752">
        <ele>2014.2</ele>
        <time>2021-03-25T12:39:25Z</time>
      </trkpt>
      <trkpt lat="42.8797" lon="0.13752">
        <ele>2014.2</ele>
        <time>2021-03-25T12:39:26Z</time>
      </trkpt>
      <trkpt lat="42.8797" lon="0.13752">
        <ele>2014.2</ele>
        <time>2021-03-25T12:39:28Z</time>
      </trkpt>
      <trkpt lat="42.8797" lon="0.13752">
        <ele>2014.2</ele>
        <time>2021-03-25T12:39:30Z</time>
      </trkpt>
      <trkpt lat="42.8797" lon="0.13752">
        <ele>2014.2</ele>
        <time>2021-03-25T12:39:32Z</time>
      </trkpt>
      <trkpt lat="42.87969" lon="0.13752">
        <ele>2014.2</ele>
        <time>2021-03-25T12:39:33Z</time>
      </trkpt>
      <trkpt lat="42.87969" lon="0.13752">
        <ele>2014.2</ele>
        <time>2021-03-25T12:39:35Z</time>
      </trkpt>
      <trkpt lat="42.87969" lon="0.13753">
        <ele>2014.2</ele>
        <time>2021-03-25T12:39:37Z</time>
      </trkpt>
      <trkpt lat="42.87969" lon="0.13753">
        <ele>2014.2</ele>
        <time>2021-03-25T12:39:38Z</time>
      </trkpt>
      <trkpt lat="42.87969" lon="0.13753">
        <ele>2014.2</ele>
        <time>2021-03-25T12:39:39Z</time>
      </trkpt>
      <trkpt lat="42.87969" lon="0.13753">
        <ele>2014.2</ele>
        <time>2021-03-25T12:39:41Z</time>
      </trkpt>
      <trkpt lat="42.87969" lon="0.13753">
        <ele>2014.2</ele>
        <time>2021-03-25T12:39:43Z</time>
      </trkpt>
      <trkpt lat="42.87968" lon="0.13753">
        <ele>2014.2</ele>
        <time>2021-03-25T12:39:44Z</time>
      </trkpt>
      <trkpt lat="42.87968" lon="0.13753">
        <ele>2014.2</ele>
        <time>2021-03-25T12:39:46Z</time>
      </trkpt>
      <trkpt lat="42.87968" lon="0.13753">
        <ele>2014.2</ele>
        <time>2021-03-25T12:39:47Z</time>
      </trkpt>
      <trkpt lat="42.87968" lon="0.13753">
        <ele>2014.2</ele>
        <time>2021-03-25T12:39:49Z</time>
      </trkpt>
      <trkpt lat="42.87968" lon="0.13754">
        <ele>2014.2</ele>
        <time>2021-03-25T12:39:50Z</time>
      </trkpt>
      <trkpt lat="42.87968" lon="0.13754">
        <ele>2014.2</ele>
        <time>2021-03-25T12:39:52Z</time>
      </trkpt>
      <trkpt lat="42.87968" lon="0.13754">
        <ele>2014.2</ele>
        <time>2021-03-25T12:39:53Z</time>
      </trkpt>
      <trkpt lat="42.87968" lon="0.13754">
        <ele>2015.1</ele>
        <time>2021-03-25T12:39:54Z</time>
      </trkpt>
      <trkpt lat="42.87967" lon="0.13754">
        <ele>2015.1</ele>
        <time>2021-03-25T12:39:56Z</time>
      </trkpt>
      <trkpt lat="42.87967" lon="0.13754">
        <ele>2015.1</ele>
        <time>2021-03-25T12:39:57Z</time>
      </trkpt>
      <trkpt lat="42.87967" lon="0.13754">
        <ele>2015.1</ele>
        <time>2021-03-25T12:39:59Z</time>
      </trkpt>
      <trkpt lat="42.87967" lon="0.13754">
        <ele>2015.1</ele>
        <time>2021-03-25T12:40:00Z</time>
      </trkpt>
      <trkpt lat="42.87967" lon="0.13754">
        <ele>2015.3</ele>
        <time>2021-03-25T12:40:01Z</time>
      </trkpt>
      <trkpt lat="42.87967" lon="0.13755">
        <ele>2015.3</ele>
        <time>2021-03-25T12:40:02Z</time>
      </trkpt>
      <trkpt lat="42.87967" lon="0.13755">
        <ele>2015.3</ele>
        <time>2021-03-25T12:40:03Z</time>
      </trkpt>
      <trkpt lat="42.87966" lon="0.13755">
        <ele>2015.3</ele>
        <time>2021-03-25T12:40:05Z</time>
      </trkpt>
      <trkpt lat="42.87966" lon="0.13755">
        <ele>2015.3</ele>
        <time>2021-03-25T12:40:07Z</time>
      </trkpt>
      <trkpt lat="42.87966" lon="0.13755">
        <ele>2015.3</ele>
        <time>2021-03-25T12:40:09Z</time>
      </trkpt>
      <trkpt lat="42.87966" lon="0.13755">
        <ele>2015.3</ele>
        <time>2021-03-25T12:40:11Z</time>
      </trkpt>
      <trkpt lat="42.87966" lon="0.13755">
        <ele>2015.3</ele>
        <time>2021-03-25T12:40:12Z</time>
      </trkpt>
      <trkpt lat="42.87966" lon="0.13755">
        <ele>2015.3</ele>
        <time>2021-03-25T12:40:14Z</time>
      </trkpt>
      <trkpt lat="42.87966" lon="0.13755">
        <ele>2015.3</ele>
        <time>2021-03-25T12:40:16Z</time>
      </trkpt>
      <trkpt lat="42.87966" lon="0.13756">
        <ele>2015.3</ele>
        <time>2021-03-25T12:40:17Z</time>
      </trkpt>
      <trkpt lat="42.87965" lon="0.13758">
        <ele>2015.3</ele>
        <time>2021-03-25T12:40:18Z</time>
      </trkpt>
      <trkpt lat="42.87964" lon="0.13762">
        <ele>2016.3</ele>
        <time>2021-03-25T12:40:20Z</time>
      </trkpt>
      <trkpt lat="42.87963" lon="0.13765">
        <ele>2016.5</ele>
        <time>2021-03-25T12:40:21Z</time>
      </trkpt>
      <trkpt lat="42.87961" lon="0.1377">
        <ele>2017.5</ele>
        <time>2021-03-25T12:40:23Z</time>
      </trkpt>
      <trkpt lat="42.87961" lon="0.13771">
        <ele>2017.5</ele>
        <time>2021-03-25T12:40:24Z</time>
      </trkpt>
      <trkpt lat="42.87963" lon="0.13775">
        <ele>2017</ele>
        <time>2021-03-25T12:40:26Z</time>
      </trkpt>
      <trkpt lat="42.87964" lon="0.13775">
        <ele>2017</ele>
        <time>2021-03-25T12:40:27Z</time>
      </trkpt>
      <trkpt lat="42.87964" lon="0.13778">
        <ele>2017.2</ele>
        <time>2021-03-25T12:40:29Z</time>
      </trkpt>
      <trkpt lat="42.87964" lon="0.1378">
        <ele>2017.5</ele>
        <time>2021-03-25T12:40:31Z</time>
      </trkpt>
      <trkpt lat="42.87964" lon="0.13783">
        <ele>2017.5</ele>
        <time>2021-03-25T12:40:32Z</time>
      </trkpt>
      <trkpt lat="42.87965" lon="0.13784">
        <ele>2016.9</ele>
        <time>2021-03-25T12:40:34Z</time>
      </trkpt>
      <trkpt lat="42.87966" lon="0.13782">
        <ele>2016.9</ele>
        <time>2021-03-25T12:40:35Z</time>
      </trkpt>
      <trkpt lat="42.87966" lon="0.1378">
        <ele>2016.6</ele>
        <time>2021-03-25T12:40:36Z</time>
      </trkpt>
      <trkpt lat="42.87965" lon="0.13779">
        <ele>2016.6</ele>
        <time>2021-03-25T12:40:38Z</time>
      </trkpt>
      <trkpt lat="42.87964" lon="0.13781">
        <ele>2017.5</ele>
        <time>2021-03-25T12:40:39Z</time>
      </trkpt>
      <trkpt lat="42.87963" lon="0.13783">
        <ele>2017.5</ele>
        <time>2021-03-25T12:40:41Z</time>
      </trkpt>
      <trkpt lat="42.87963" lon="0.13784">
        <ele>2017.5</ele>
        <time>2021-03-25T12:40:42Z</time>
      </trkpt>
      <trkpt lat="42.87959" lon="0.1379">
        <ele>2018.7</ele>
        <time>2021-03-25T12:40:44Z</time>
      </trkpt>
      <trkpt lat="42.87958" lon="0.13793">
        <ele>2019.3</ele>
        <time>2021-03-25T12:40:45Z</time>
      </trkpt>
      <trkpt lat="42.87956" lon="0.13795">
        <ele>2019.6</ele>
        <time>2021-03-25T12:40:47Z</time>
      </trkpt>
      <trkpt lat="42.87955" lon="0.13797">
        <ele>2019.6</ele>
        <time>2021-03-25T12:40:48Z</time>
      </trkpt>
      <trkpt lat="42.87954" lon="0.13799">
        <ele>2020.5</ele>
        <time>2021-03-25T12:40:49Z</time>
      </trkpt>
      <trkpt lat="42.87953" lon="0.13802">
        <ele>2020.8</ele>
        <time>2021-03-25T12:40:51Z</time>
      </trkpt>
      <trkpt lat="42.87952" lon="0.13803">
        <ele>2020.8</ele>
        <time>2021-03-25T12:40:52Z</time>
      </trkpt>
      <trkpt lat="42.87951" lon="0.13805">
        <ele>2021.5</ele>
        <time>2021-03-25T12:40:53Z</time>
      </trkpt>
      <trkpt lat="42.87951" lon="0.13807">
        <ele>2021.8</ele>
        <time>2021-03-25T12:40:54Z</time>
      </trkpt>
      <trkpt lat="42.8795" lon="0.13809">
        <ele>2021.8</ele>
        <time>2021-03-25T12:40:56Z</time>
      </trkpt>
      <trkpt lat="42.87949" lon="0.13811">
        <ele>2022.1</ele>
        <time>2021-03-25T12:40:57Z</time>
      </trkpt>
      <trkpt lat="42.87948" lon="0.13813">
        <ele>2022.8</ele>
        <time>2021-03-25T12:40:59Z</time>
      </trkpt>
      <trkpt lat="42.87947" lon="0.13815">
        <ele>2023.1</ele>
        <time>2021-03-25T12:41:00Z</time>
      </trkpt>
      <trkpt lat="42.87947" lon="0.13817">
        <ele>2023.1</ele>
        <time>2021-03-25T12:41:01Z</time>
      </trkpt>
      <trkpt lat="42.87946" lon="0.1382">
        <ele>2023.4</ele>
        <time>2021-03-25T12:41:03Z</time>
      </trkpt>
      <trkpt lat="42.87947" lon="0.13822">
        <ele>2023.4</ele>
        <time>2021-03-25T12:41:04Z</time>
      </trkpt>
      <trkpt lat="42.87947" lon="0.13825">
        <ele>2023.7</ele>
        <time>2021-03-25T12:41:06Z</time>
      </trkpt>
      <trkpt lat="42.87948" lon="0.13828">
        <ele>2024.1</ele>
        <time>2021-03-25T12:41:08Z</time>
      </trkpt>
      <trkpt lat="42.87948" lon="0.13829">
        <ele>2024.1</ele>
        <time>2021-03-25T12:41:09Z</time>
      </trkpt>
      <trkpt lat="42.87948" lon="0.1383">
        <ele>2024.1</ele>
        <time>2021-03-25T12:41:11Z</time>
      </trkpt>
      <trkpt lat="42.87948" lon="0.1383">
        <ele>2024.1</ele>
        <time>2021-03-25T12:41:12Z</time>
      </trkpt>
      <trkpt lat="42.87948" lon="0.1383">
        <ele>2024.1</ele>
        <time>2021-03-25T12:41:13Z</time>
      </trkpt>
      <trkpt lat="42.87948" lon="0.1383">
        <ele>2024.1</ele>
        <time>2021-03-25T12:41:15Z</time>
      </trkpt>
      <trkpt lat="42.87948" lon="0.1383">
        <ele>2024.1</ele>
        <time>2021-03-25T12:41:16Z</time>
      </trkpt>
      <trkpt lat="42.87948" lon="0.13829">
        <ele>2024.1</ele>
        <time>2021-03-25T12:41:18Z</time>
      </trkpt>
      <trkpt lat="42.87948" lon="0.13829">
        <ele>2024.1</ele>
        <time>2021-03-25T12:41:19Z</time>
      </trkpt>
      <trkpt lat="42.87948" lon="0.13829">
        <ele>2024.1</ele>
        <time>2021-03-25T12:41:21Z</time>
      </trkpt>
      <trkpt lat="42.87948" lon="0.13828">
        <ele>2024.1</ele>
        <time>2021-03-25T12:41:23Z</time>
      </trkpt>
      <trkpt lat="42.87948" lon="0.13828">
        <ele>2024.1</ele>
        <time>2021-03-25T12:41:24Z</time>
      </trkpt>
      <trkpt lat="42.87948" lon="0.13828">
        <ele>2024.1</ele>
        <time>2021-03-25T12:41:26Z</time>
      </trkpt>
      <trkpt lat="42.87948" lon="0.13828">
        <ele>2024.1</ele>
        <time>2021-03-25T12:41:27Z</time>
      </trkpt>
      <trkpt lat="42.87948" lon="0.13828">
        <ele>2024.1</ele>
        <time>2021-03-25T12:41:28Z</time>
      </trkpt>
      <trkpt lat="42.87948" lon="0.13828">
        <ele>2024.1</ele>
        <time>2021-03-25T12:41:29Z</time>
      </trkpt>
      <trkpt lat="42.87948" lon="0.13828">
        <ele>2024.1</ele>
        <time>2021-03-25T12:41:31Z</time>
      </trkpt>
      <trkpt lat="42.87948" lon="0.13828">
        <ele>2024.1</ele>
        <time>2021-03-25T12:41:32Z</time>
      </trkpt>
      <trkpt lat="42.87948" lon="0.13828">
        <ele>2024.1</ele>
        <time>2021-03-25T12:41:34Z</time>
      </trkpt>
      <trkpt lat="42.87947" lon="0.13828">
        <ele>2024.1</ele>
        <time>2021-03-25T12:41:35Z</time>
      </trkpt>
      <trkpt lat="42.87947" lon="0.13828">
        <ele>2024.1</ele>
        <time>2021-03-25T12:41:36Z</time>
      </trkpt>
      <trkpt lat="42.87947" lon="0.13829">
        <ele>2024.1</ele>
        <time>2021-03-25T12:41:37Z</time>
      </trkpt>
      <trkpt lat="42.87947" lon="0.1383">
        <ele>2024.1</ele>
        <time>2021-03-25T12:41:39Z</time>
      </trkpt>
      <trkpt lat="42.87947" lon="0.13831">
        <ele>2024.1</ele>
        <time>2021-03-25T12:41:40Z</time>
      </trkpt>
      <trkpt lat="42.87946" lon="0.13831">
        <ele>2024.1</ele>
        <time>2021-03-25T12:41:42Z</time>
      </trkpt>
      <trkpt lat="42.87946" lon="0.13832">
        <ele>2024.6</ele>
        <time>2021-03-25T12:41:43Z</time>
      </trkpt>
      <trkpt lat="42.87945" lon="0.13835">
        <ele>2025.1</ele>
        <time>2021-03-25T12:41:45Z</time>
      </trkpt>
      <trkpt lat="42.87944" lon="0.13839">
        <ele>2025.5</ele>
        <time>2021-03-25T12:41:47Z</time>
      </trkpt>
      <trkpt lat="42.87943" lon="0.13844">
        <ele>2026</ele>
        <time>2021-03-25T12:41:48Z</time>
      </trkpt>
      <trkpt lat="42.87942" lon="0.13848">
        <ele>2026.8</ele>
        <time>2021-03-25T12:41:50Z</time>
      </trkpt>
      <trkpt lat="42.87942" lon="0.13851">
        <ele>2027.2</ele>
        <time>2021-03-25T12:41:51Z</time>
      </trkpt>
      <trkpt lat="42.87942" lon="0.13853">
        <ele>2027.2</ele>
        <time>2021-03-25T12:41:52Z</time>
      </trkpt>
      <trkpt lat="42.87941" lon="0.13855">
        <ele>2027.5</ele>
        <time>2021-03-25T12:41:54Z</time>
      </trkpt>
      <trkpt lat="42.87941" lon="0.13857">
        <ele>2027.5</ele>
        <time>2021-03-25T12:41:55Z</time>
      </trkpt>
      <trkpt lat="42.87941" lon="0.13859">
        <ele>2027.9</ele>
        <time>2021-03-25T12:41:56Z</time>
      </trkpt>
      <trkpt lat="42.87941" lon="0.1386">
        <ele>2027.9</ele>
        <time>2021-03-25T12:41:58Z</time>
      </trkpt>
      <trkpt lat="42.87941" lon="0.13862">
        <ele>2028.2</ele>
        <time>2021-03-25T12:41:59Z</time>
      </trkpt>
      <trkpt lat="42.87941" lon="0.13864">
        <ele>2028.2</ele>
        <time>2021-03-25T12:42:01Z</time>
      </trkpt>
      <trkpt lat="42.87941" lon="0.13865">
        <ele>2028.2</ele>
        <time>2021-03-25T12:42:02Z</time>
      </trkpt>
      <trkpt lat="42.87941" lon="0.13866">
        <ele>2028.5</ele>
        <time>2021-03-25T12:42:04Z</time>
      </trkpt>
      <trkpt lat="42.87941" lon="0.13868">
        <ele>2028.5</ele>
        <time>2021-03-25T12:42:06Z</time>
      </trkpt>
      <trkpt lat="42.87941" lon="0.13869">
        <ele>2028.5</ele>
        <time>2021-03-25T12:42:07Z</time>
      </trkpt>
      <trkpt lat="42.87941" lon="0.1387">
        <ele>2028.5</ele>
        <time>2021-03-25T12:42:09Z</time>
      </trkpt>
      <trkpt lat="42.87941" lon="0.13871">
        <ele>2028.8</ele>
        <time>2021-03-25T12:42:10Z</time>
      </trkpt>
      <trkpt lat="42.87941" lon="0.13874">
        <ele>2028.8</ele>
        <time>2021-03-25T12:42:12Z</time>
      </trkpt>
      <trkpt lat="42.8794" lon="0.13876">
        <ele>2029.2</ele>
        <time>2021-03-25T12:42:13Z</time>
      </trkpt>
      <trkpt lat="42.8794" lon="0.13878">
        <ele>2029.2</ele>
        <time>2021-03-25T12:42:14Z</time>
      </trkpt>
      <trkpt lat="42.87939" lon="0.1388">
        <ele>2029.7</ele>
        <time>2021-03-25T12:42:16Z</time>
      </trkpt>
      <trkpt lat="42.87938" lon="0.13882">
        <ele>2029.7</ele>
        <time>2021-03-25T12:42:17Z</time>
      </trkpt>
      <trkpt lat="42.87937" lon="0.13883">
        <ele>2029.7</ele>
        <time>2021-03-25T12:42:19Z</time>
      </trkpt>
      <trkpt lat="42.87936" lon="0.13884">
        <ele>2030.1</ele>
        <time>2021-03-25T12:42:20Z</time>
      </trkpt>
      <trkpt lat="42.87936" lon="0.13885">
        <ele>2030.2</ele>
        <time>2021-03-25T12:42:21Z</time>
      </trkpt>
      <trkpt lat="42.87936" lon="0.13886">
        <ele>2030.2</ele>
        <time>2021-03-25T12:42:23Z</time>
      </trkpt>
      <trkpt lat="42.87936" lon="0.13887">
        <ele>2030.2</ele>
        <time>2021-03-25T12:42:24Z</time>
      </trkpt>
      <trkpt lat="42.87935" lon="0.13888">
        <ele>2030.5</ele>
        <time>2021-03-25T12:42:26Z</time>
      </trkpt>
      <trkpt lat="42.87935" lon="0.13889">
        <ele>2030.5</ele>
        <time>2021-03-25T12:42:27Z</time>
      </trkpt>
      <trkpt lat="42.87935" lon="0.1389">
        <ele>2030.5</ele>
        <time>2021-03-25T12:42:28Z</time>
      </trkpt>
      <trkpt lat="42.87935" lon="0.13892">
        <ele>2030.5</ele>
        <time>2021-03-25T12:42:30Z</time>
      </trkpt>
      <trkpt lat="42.87935" lon="0.13893">
        <ele>2030.9</ele>
        <time>2021-03-25T12:42:32Z</time>
      </trkpt>
      <trkpt lat="42.87935" lon="0.13895">
        <ele>2030.9</ele>
        <time>2021-03-25T12:42:34Z</time>
      </trkpt>
      <trkpt lat="42.87934" lon="0.13895">
        <ele>2030.9</ele>
        <time>2021-03-25T12:42:35Z</time>
      </trkpt>
      <trkpt lat="42.87934" lon="0.13896">
        <ele>2031.3</ele>
        <time>2021-03-25T12:42:36Z</time>
      </trkpt>
      <trkpt lat="42.87933" lon="0.13897">
        <ele>2031.3</ele>
        <time>2021-03-25T12:42:38Z</time>
      </trkpt>
      <trkpt lat="42.87933" lon="0.13899">
        <ele>2031.3</ele>
        <time>2021-03-25T12:42:40Z</time>
      </trkpt>
      <trkpt lat="42.87932" lon="0.13899">
        <ele>2031.3</ele>
        <time>2021-03-25T12:42:41Z</time>
      </trkpt>
      <trkpt lat="42.87932" lon="0.139">
        <ele>2031.3</ele>
        <time>2021-03-25T12:42:42Z</time>
      </trkpt>
      <trkpt lat="42.87932" lon="0.13901">
        <ele>2031.6</ele>
        <time>2021-03-25T12:42:44Z</time>
      </trkpt>
      <trkpt lat="42.87931" lon="0.13903">
        <ele>2031.6</ele>
        <time>2021-03-25T12:42:46Z</time>
      </trkpt>
      <trkpt lat="42.87931" lon="0.13903">
        <ele>2031.6</ele>
        <time>2021-03-25T12:42:47Z</time>
      </trkpt>
      <trkpt lat="42.87931" lon="0.13904">
        <ele>2031.6</ele>
        <time>2021-03-25T12:42:48Z</time>
      </trkpt>
      <trkpt lat="42.8793" lon="0.13905">
        <ele>2031.9</ele>
        <time>2021-03-25T12:42:50Z</time>
      </trkpt>
      <trkpt lat="42.8793" lon="0.13905">
        <ele>2031.9</ele>
        <time>2021-03-25T12:42:51Z</time>
      </trkpt>
      <trkpt lat="42.8793" lon="0.13906">
        <ele>2031.9</ele>
        <time>2021-03-25T12:42:53Z</time>
      </trkpt>
      <trkpt lat="42.8793" lon="0.13907">
        <ele>2031.9</ele>
        <time>2021-03-25T12:42:54Z</time>
      </trkpt>
      <trkpt lat="42.8793" lon="0.13907">
        <ele>2031.9</ele>
        <time>2021-03-25T12:42:55Z</time>
      </trkpt>
      <trkpt lat="42.87929" lon="0.13907">
        <ele>2031.9</ele>
        <time>2021-03-25T12:42:57Z</time>
      </trkpt>
      <trkpt lat="42.87929" lon="0.13908">
        <ele>2031.9</ele>
        <time>2021-03-25T12:42:58Z</time>
      </trkpt>
      <trkpt lat="42.87929" lon="0.13908">
        <ele>2031.9</ele>
        <time>2021-03-25T12:43:00Z</time>
      </trkpt>
      <trkpt lat="42.87929" lon="0.13909">
        <ele>2031.9</ele>
        <time>2021-03-25T12:43:01Z</time>
      </trkpt>
      <trkpt lat="42.87929" lon="0.13909">
        <ele>2032.2</ele>
        <time>2021-03-25T12:43:02Z</time>
      </trkpt>
      <trkpt lat="42.87929" lon="0.13909">
        <ele>2032.2</ele>
        <time>2021-03-25T12:43:04Z</time>
      </trkpt>
      <trkpt lat="42.87929" lon="0.13909">
        <ele>2032.2</ele>
        <time>2021-03-25T12:43:05Z</time>
      </trkpt>
      <trkpt lat="42.87929" lon="0.1391">
        <ele>2032.2</ele>
        <time>2021-03-25T12:43:06Z</time>
      </trkpt>
      <trkpt lat="42.87929" lon="0.1391">
        <ele>2032.2</ele>
        <time>2021-03-25T12:43:07Z</time>
      </trkpt>
      <trkpt lat="42.87928" lon="0.13911">
        <ele>2032.2</ele>
        <time>2021-03-25T12:43:09Z</time>
      </trkpt>
      <trkpt lat="42.87927" lon="0.13911">
        <ele>2032.2</ele>
        <time>2021-03-25T12:43:11Z</time>
      </trkpt>
      <trkpt lat="42.87927" lon="0.13912">
        <ele>2032.2</ele>
        <time>2021-03-25T12:43:12Z</time>
      </trkpt>
      <trkpt lat="42.87926" lon="0.13913">
        <ele>2032.5</ele>
        <time>2021-03-25T12:43:14Z</time>
      </trkpt>
      <trkpt lat="42.87925" lon="0.13915">
        <ele>2032.5</ele>
        <time>2021-03-25T12:43:16Z</time>
      </trkpt>
      <trkpt lat="42.87924" lon="0.13917">
        <ele>2032.5</ele>
        <time>2021-03-25T12:43:17Z</time>
      </trkpt>
      <trkpt lat="42.87923" lon="0.13919">
        <ele>2032.8</ele>
        <time>2021-03-25T12:43:19Z</time>
      </trkpt>
      <trkpt lat="42.87922" lon="0.1392">
        <ele>2032.8</ele>
        <time>2021-03-25T12:43:20Z</time>
      </trkpt>
      <trkpt lat="42.87921" lon="0.13923">
        <ele>2033.2</ele>
        <time>2021-03-25T12:43:21Z</time>
      </trkpt>
      <trkpt lat="42.87921" lon="0.13924">
        <ele>2033.2</ele>
        <time>2021-03-25T12:43:23Z</time>
      </trkpt>
      <trkpt lat="42.8792" lon="0.13925">
        <ele>2033.2</ele>
        <time>2021-03-25T12:43:24Z</time>
      </trkpt>
      <trkpt lat="42.8792" lon="0.13926">
        <ele>2033.5</ele>
        <time>2021-03-25T12:43:25Z</time>
      </trkpt>
      <trkpt lat="42.87919" lon="0.13928">
        <ele>2033.5</ele>
        <time>2021-03-25T12:43:27Z</time>
      </trkpt>
      <trkpt lat="42.87919" lon="0.13929">
        <ele>2033.5</ele>
        <time>2021-03-25T12:43:28Z</time>
      </trkpt>
      <trkpt lat="42.87918" lon="0.13929">
        <ele>2033.5</ele>
        <time>2021-03-25T12:43:29Z</time>
      </trkpt>
      <trkpt lat="42.87917" lon="0.1393">
        <ele>2033.5</ele>
        <time>2021-03-25T12:43:31Z</time>
      </trkpt>
      <trkpt lat="42.87917" lon="0.13931">
        <ele>2033.8</ele>
        <time>2021-03-25T12:43:32Z</time>
      </trkpt>
      <trkpt lat="42.87916" lon="0.13932">
        <ele>2033.8</ele>
        <time>2021-03-25T12:43:34Z</time>
      </trkpt>
      <trkpt lat="42.87915" lon="0.13932">
        <ele>2033.8</ele>
        <time>2021-03-25T12:43:36Z</time>
      </trkpt>
      <trkpt lat="42.87915" lon="0.13933">
        <ele>2033.8</ele>
        <time>2021-03-25T12:43:37Z</time>
      </trkpt>
      <trkpt lat="42.87915" lon="0.13933">
        <ele>2033.8</ele>
        <time>2021-03-25T12:43:38Z</time>
      </trkpt>
      <trkpt lat="42.87914" lon="0.13934">
        <ele>2033.8</ele>
        <time>2021-03-25T12:43:40Z</time>
      </trkpt>
      <trkpt lat="42.87914" lon="0.13934">
        <ele>2033.8</ele>
        <time>2021-03-25T12:43:41Z</time>
      </trkpt>
      <trkpt lat="42.87914" lon="0.13934">
        <ele>2033.9</ele>
        <time>2021-03-25T12:43:42Z</time>
      </trkpt>
      <trkpt lat="42.87914" lon="0.13934">
        <ele>2033.9</ele>
        <time>2021-03-25T12:43:44Z</time>
      </trkpt>
      <trkpt lat="42.87913" lon="0.13934">
        <ele>2033.9</ele>
        <time>2021-03-25T12:43:46Z</time>
      </trkpt>
      <trkpt lat="42.87913" lon="0.13934">
        <ele>2033.9</ele>
        <time>2021-03-25T12:43:48Z</time>
      </trkpt>
      <trkpt lat="42.87913" lon="0.13935">
        <ele>2033.9</ele>
        <time>2021-03-25T12:43:49Z</time>
      </trkpt>
      <trkpt lat="42.87912" lon="0.13935">
        <ele>2034.2</ele>
        <time>2021-03-25T12:43:51Z</time>
      </trkpt>
      <trkpt lat="42.87912" lon="0.13935">
        <ele>2034.2</ele>
        <time>2021-03-25T12:43:52Z</time>
      </trkpt>
      <trkpt lat="42.87912" lon="0.13935">
        <ele>2034.2</ele>
        <time>2021-03-25T12:43:54Z</time>
      </trkpt>
      <trkpt lat="42.87911" lon="0.13936">
        <ele>2034.2</ele>
        <time>2021-03-25T12:43:55Z</time>
      </trkpt>
      <trkpt lat="42.87911" lon="0.13936">
        <ele>2034.2</ele>
        <time>2021-03-25T12:43:56Z</time>
      </trkpt>
      <trkpt lat="42.87911" lon="0.13936">
        <ele>2034.2</ele>
        <time>2021-03-25T12:43:58Z</time>
      </trkpt>
      <trkpt lat="42.8791" lon="0.13937">
        <ele>2034.2</ele>
        <time>2021-03-25T12:43:59Z</time>
      </trkpt>
      <trkpt lat="42.87909" lon="0.13937">
        <ele>2034.2</ele>
        <time>2021-03-25T12:44:00Z</time>
      </trkpt>
      <trkpt lat="42.87909" lon="0.13937">
        <ele>2034.2</ele>
        <time>2021-03-25T12:44:02Z</time>
      </trkpt>
      <trkpt lat="42.87908" lon="0.13937">
        <ele>2034.3</ele>
        <time>2021-03-25T12:44:04Z</time>
      </trkpt>
      <trkpt lat="42.87907" lon="0.13937">
        <ele>2034.3</ele>
        <time>2021-03-25T12:44:05Z</time>
      </trkpt>
      <trkpt lat="42.87907" lon="0.13937">
        <ele>2034.3</ele>
        <time>2021-03-25T12:44:06Z</time>
      </trkpt>
      <trkpt lat="42.87906" lon="0.13937">
        <ele>2034.3</ele>
        <time>2021-03-25T12:44:07Z</time>
      </trkpt>
      <trkpt lat="42.87905" lon="0.13937">
        <ele>2034.3</ele>
        <time>2021-03-25T12:44:09Z</time>
      </trkpt>
      <trkpt lat="42.87905" lon="0.13938">
        <ele>2034.3</ele>
        <time>2021-03-25T12:44:11Z</time>
      </trkpt>
      <trkpt lat="42.87905" lon="0.13938">
        <ele>2034.5</ele>
        <time>2021-03-25T12:44:12Z</time>
      </trkpt>
      <trkpt lat="42.87905" lon="0.13938">
        <ele>2034.5</ele>
        <time>2021-03-25T12:44:13Z</time>
      </trkpt>
      <trkpt lat="42.87904" lon="0.13938">
        <ele>2034.5</ele>
        <time>2021-03-25T12:44:14Z</time>
      </trkpt>
      <trkpt lat="42.87904" lon="0.13938">
        <ele>2034.5</ele>
        <time>2021-03-25T12:44:16Z</time>
      </trkpt>
      <trkpt lat="42.87903" lon="0.13938">
        <ele>2034.5</ele>
        <time>2021-03-25T12:44:17Z</time>
      </trkpt>
      <trkpt lat="42.87903" lon="0.13938">
        <ele>2034.5</ele>
        <time>2021-03-25T12:44:18Z</time>
      </trkpt>
      <trkpt lat="42.87903" lon="0.13938">
        <ele>2034.5</ele>
        <time>2021-03-25T12:44:19Z</time>
      </trkpt>
      <trkpt lat="42.87902" lon="0.13938">
        <ele>2034.5</ele>
        <time>2021-03-25T12:44:21Z</time>
      </trkpt>
      <trkpt lat="42.87902" lon="0.13938">
        <ele>2034.5</ele>
        <time>2021-03-25T12:44:22Z</time>
      </trkpt>
      <trkpt lat="42.87902" lon="0.13938">
        <ele>2034.5</ele>
        <time>2021-03-25T12:44:23Z</time>
      </trkpt>
      <trkpt lat="42.87901" lon="0.13938">
        <ele>2034.6</ele>
        <time>2021-03-25T12:44:24Z</time>
      </trkpt>
      <trkpt lat="42.87901" lon="0.13938">
        <ele>2034.6</ele>
        <time>2021-03-25T12:44:26Z</time>
      </trkpt>
      <trkpt lat="42.87901" lon="0.13938">
        <ele>2034.6</ele>
        <time>2021-03-25T12:44:27Z</time>
      </trkpt>
      <trkpt lat="42.87901" lon="0.13938">
        <ele>2034.6</ele>
        <time>2021-03-25T12:44:28Z</time>
      </trkpt>
      <trkpt lat="42.87901" lon="0.13938">
        <ele>2034.6</ele>
        <time>2021-03-25T12:44:29Z</time>
      </trkpt>
      <trkpt lat="42.879" lon="0.13938">
        <ele>2034.6</ele>
        <time>2021-03-25T12:44:31Z</time>
      </trkpt>
      <trkpt lat="42.879" lon="0.13938">
        <ele>2034.6</ele>
        <time>2021-03-25T12:44:33Z</time>
      </trkpt>
      <trkpt lat="42.879" lon="0.13938">
        <ele>2034.6</ele>
        <time>2021-03-25T12:44:34Z</time>
      </trkpt>
      <trkpt lat="42.879" lon="0.13938">
        <ele>2034.6</ele>
        <time>2021-03-25T12:44:35Z</time>
      </trkpt>
      <trkpt lat="42.879" lon="0.13938">
        <ele>2034.6</ele>
        <time>2021-03-25T12:44:37Z</time>
      </trkpt>
      <trkpt lat="42.879" lon="0.13938">
        <ele>2034.6</ele>
        <time>2021-03-25T12:44:38Z</time>
      </trkpt>
      <trkpt lat="42.879" lon="0.13938">
        <ele>2034.6</ele>
        <time>2021-03-25T12:44:40Z</time>
      </trkpt>
      <trkpt lat="42.87899" lon="0.13938">
        <ele>2034.6</ele>
        <time>2021-03-25T12:44:41Z</time>
      </trkpt>
      <trkpt lat="42.87899" lon="0.13938">
        <ele>2034.6</ele>
        <time>2021-03-25T12:44:42Z</time>
      </trkpt>
      <trkpt lat="42.87899" lon="0.13938">
        <ele>2034.6</ele>
        <time>2021-03-25T12:44:44Z</time>
      </trkpt>
      <trkpt lat="42.87899" lon="0.13939">
        <ele>2034.6</ele>
        <time>2021-03-25T12:44:45Z</time>
      </trkpt>
      <trkpt lat="42.87899" lon="0.13939">
        <ele>2034.6</ele>
        <time>2021-03-25T12:44:46Z</time>
      </trkpt>
      <trkpt lat="42.87898" lon="0.13939">
        <ele>2034.9</ele>
        <time>2021-03-25T12:44:47Z</time>
      </trkpt>
      <trkpt lat="42.87898" lon="0.13938">
        <ele>2034.9</ele>
        <time>2021-03-25T12:44:49Z</time>
      </trkpt>
      <trkpt lat="42.87896" lon="0.13938">
        <ele>2034.9</ele>
        <time>2021-03-25T12:44:51Z</time>
      </trkpt>
      <trkpt lat="42.87896" lon="0.13938">
        <ele>2034.9</ele>
        <time>2021-03-25T12:44:52Z</time>
      </trkpt>
      <trkpt lat="42.87895" lon="0.13938">
        <ele>2034.9</ele>
        <time>2021-03-25T12:44:54Z</time>
      </trkpt>
      <trkpt lat="42.87895" lon="0.13938">
        <ele>2035.2</ele>
        <time>2021-03-25T12:44:56Z</time>
      </trkpt>
      <trkpt lat="42.87895" lon="0.13937">
        <ele>2035.2</ele>
        <time>2021-03-25T12:44:57Z</time>
      </trkpt>
      <trkpt lat="42.87895" lon="0.13937">
        <ele>2035.2</ele>
        <time>2021-03-25T12:44:59Z</time>
      </trkpt>
      <trkpt lat="42.87895" lon="0.13937">
        <ele>2035.2</ele>
        <time>2021-03-25T12:45:00Z</time>
      </trkpt>
      <trkpt lat="42.87895" lon="0.13937">
        <ele>2035.2</ele>
        <time>2021-03-25T12:45:02Z</time>
      </trkpt>
      <trkpt lat="42.87895" lon="0.13937">
        <ele>2035.2</ele>
        <time>2021-03-25T12:45:04Z</time>
      </trkpt>
      <trkpt lat="42.87895" lon="0.13937">
        <ele>2035.2</ele>
        <time>2021-03-25T12:45:05Z</time>
      </trkpt>
      <trkpt lat="42.87895" lon="0.13937">
        <ele>2035.2</ele>
        <time>2021-03-25T12:45:06Z</time>
      </trkpt>
      <trkpt lat="42.87895" lon="0.13937">
        <ele>2035.2</ele>
        <time>2021-03-25T12:45:07Z</time>
      </trkpt>
      <trkpt lat="42.87895" lon="0.13937">
        <ele>2035.2</ele>
        <time>2021-03-25T12:45:09Z</time>
      </trkpt>
      <trkpt lat="42.87895" lon="0.13938">
        <ele>2035.2</ele>
        <time>2021-03-25T12:45:10Z</time>
      </trkpt>
      <trkpt lat="42.87895" lon="0.13938">
        <ele>2035.2</ele>
        <time>2021-03-25T12:45:12Z</time>
      </trkpt>
      <trkpt lat="42.87895" lon="0.13938">
        <ele>2035.2</ele>
        <time>2021-03-25T12:45:13Z</time>
      </trkpt>
      <trkpt lat="42.87895" lon="0.13938">
        <ele>2035.2</ele>
        <time>2021-03-25T12:45:15Z</time>
      </trkpt>
      <trkpt lat="42.87894" lon="0.13938">
        <ele>2035.2</ele>
        <time>2021-03-25T12:45:16Z</time>
      </trkpt>
      <trkpt lat="42.87894" lon="0.13938">
        <ele>2035.2</ele>
        <time>2021-03-25T12:45:17Z</time>
      </trkpt>
      <trkpt lat="42.87891" lon="0.13937">
        <ele>2035.7</ele>
        <time>2021-03-25T12:45:19Z</time>
      </trkpt>
      <trkpt lat="42.87889" lon="0.13938">
        <ele>2036.2</ele>
        <time>2021-03-25T12:45:20Z</time>
      </trkpt>
      <trkpt lat="42.87887" lon="0.13938">
        <ele>2036.2</ele>
        <time>2021-03-25T12:45:21Z</time>
      </trkpt>
      <trkpt lat="42.87886" lon="0.13939">
        <ele>2036.3</ele>
        <time>2021-03-25T12:45:22Z</time>
      </trkpt>
      <trkpt lat="42.87885" lon="0.1394">
        <ele>2036.9</ele>
        <time>2021-03-25T12:45:23Z</time>
      </trkpt>
      <trkpt lat="42.87884" lon="0.13941">
        <ele>2036.9</ele>
        <time>2021-03-25T12:45:24Z</time>
      </trkpt>
      <trkpt lat="42.87883" lon="0.13941">
        <ele>2036.9</ele>
        <time>2021-03-25T12:45:25Z</time>
      </trkpt>
      <trkpt lat="42.87882" lon="0.13942">
        <ele>2037.5</ele>
        <time>2021-03-25T12:45:26Z</time>
      </trkpt>
      <trkpt lat="42.87881" lon="0.13943">
        <ele>2037.5</ele>
        <time>2021-03-25T12:45:27Z</time>
      </trkpt>
      <trkpt lat="42.87881" lon="0.13943">
        <ele>2037.5</ele>
        <time>2021-03-25T12:45:28Z</time>
      </trkpt>
      <trkpt lat="42.8788" lon="0.13944">
        <ele>2037.5</ele>
        <time>2021-03-25T12:45:30Z</time>
      </trkpt>
      <trkpt lat="42.87879" lon="0.13944">
        <ele>2038.1</ele>
        <time>2021-03-25T12:45:31Z</time>
      </trkpt>
      <trkpt lat="42.87879" lon="0.13945">
        <ele>2038.1</ele>
        <time>2021-03-25T12:45:32Z</time>
      </trkpt>
      <trkpt lat="42.87878" lon="0.13945">
        <ele>2038.1</ele>
        <time>2021-03-25T12:45:33Z</time>
      </trkpt>
      <trkpt lat="42.87878" lon="0.13945">
        <ele>2038.1</ele>
        <time>2021-03-25T12:45:34Z</time>
      </trkpt>
      <trkpt lat="42.87877" lon="0.13945">
        <ele>2038.1</ele>
        <time>2021-03-25T12:45:36Z</time>
      </trkpt>
      <trkpt lat="42.87876" lon="0.13946">
        <ele>2038.6</ele>
        <time>2021-03-25T12:45:38Z</time>
      </trkpt>
      <trkpt lat="42.87876" lon="0.13946">
        <ele>2038.6</ele>
        <time>2021-03-25T12:45:39Z</time>
      </trkpt>
      <trkpt lat="42.87876" lon="0.13946">
        <ele>2038.6</ele>
        <time>2021-03-25T12:45:40Z</time>
      </trkpt>
      <trkpt lat="42.87874" lon="0.13947">
        <ele>2038.6</ele>
        <time>2021-03-25T12:45:42Z</time>
      </trkpt>
      <trkpt lat="42.87874" lon="0.13947">
        <ele>2038.6</ele>
        <time>2021-03-25T12:45:43Z</time>
      </trkpt>
      <trkpt lat="42.87874" lon="0.13947">
        <ele>2038.6</ele>
        <time>2021-03-25T12:45:44Z</time>
      </trkpt>
      <trkpt lat="42.87874" lon="0.13947">
        <ele>2038.6</ele>
        <time>2021-03-25T12:45:46Z</time>
      </trkpt>
      <trkpt lat="42.87874" lon="0.13947">
        <ele>2038.6</ele>
        <time>2021-03-25T12:45:47Z</time>
      </trkpt>
      <trkpt lat="42.87874" lon="0.13948">
        <ele>2038.6</ele>
        <time>2021-03-25T12:45:48Z</time>
      </trkpt>
      <trkpt lat="42.87874" lon="0.13948">
        <ele>2038.6</ele>
        <time>2021-03-25T12:45:49Z</time>
      </trkpt>
      <trkpt lat="42.87874" lon="0.13948">
        <ele>2038.6</ele>
        <time>2021-03-25T12:45:50Z</time>
      </trkpt>
      <trkpt lat="42.87874" lon="0.13949">
        <ele>2038.6</ele>
        <time>2021-03-25T12:45:52Z</time>
      </trkpt>
      <trkpt lat="42.87873" lon="0.13949">
        <ele>2038.6</ele>
        <time>2021-03-25T12:45:53Z</time>
      </trkpt>
      <trkpt lat="42.87873" lon="0.1395">
        <ele>2039.2</ele>
        <time>2021-03-25T12:45:54Z</time>
      </trkpt>
      <trkpt lat="42.87872" lon="0.1395">
        <ele>2039.2</ele>
        <time>2021-03-25T12:45:55Z</time>
      </trkpt>
      <trkpt lat="42.87868" lon="0.13948">
        <ele>2039.9</ele>
        <time>2021-03-25T12:45:57Z</time>
      </trkpt>
      <trkpt lat="42.87864" lon="0.13946">
        <ele>2040.8</ele>
        <time>2021-03-25T12:45:59Z</time>
      </trkpt>
      <trkpt lat="42.87863" lon="0.13946">
        <ele>2041.7</ele>
        <time>2021-03-25T12:46:01Z</time>
      </trkpt>
      <trkpt lat="42.87864" lon="0.13946">
        <ele>2041.7</ele>
        <time>2021-03-25T12:46:03Z</time>
      </trkpt>
      <trkpt lat="42.87864" lon="0.13946">
        <ele>2040.8</ele>
        <time>2021-03-25T12:46:04Z</time>
      </trkpt>
      <trkpt lat="42.87864" lon="0.13947">
        <ele>2040.8</ele>
        <time>2021-03-25T12:46:05Z</time>
      </trkpt>
      <trkpt lat="42.87864" lon="0.13947">
        <ele>2040.8</ele>
        <time>2021-03-25T12:46:06Z</time>
      </trkpt>
      <trkpt lat="42.87864" lon="0.13948">
        <ele>2040.7</ele>
        <time>2021-03-25T12:46:07Z</time>
      </trkpt>
      <trkpt lat="42.87865" lon="0.13949">
        <ele>2040.7</ele>
        <time>2021-03-25T12:46:08Z</time>
      </trkpt>
      <trkpt lat="42.87866" lon="0.1395">
        <ele>2040.7</ele>
        <time>2021-03-25T12:46:10Z</time>
      </trkpt>
      <trkpt lat="42.87867" lon="0.13951">
        <ele>2039.9</ele>
        <time>2021-03-25T12:46:12Z</time>
      </trkpt>
      <trkpt lat="42.87867" lon="0.13952">
        <ele>2039.9</ele>
        <time>2021-03-25T12:46:13Z</time>
      </trkpt>
      <trkpt lat="42.87868" lon="0.13952">
        <ele>2039.8</ele>
        <time>2021-03-25T12:46:14Z</time>
      </trkpt>
      <trkpt lat="42.87868" lon="0.13953">
        <ele>2039.8</ele>
        <time>2021-03-25T12:46:16Z</time>
      </trkpt>
      <trkpt lat="42.87868" lon="0.13953">
        <ele>2039.8</ele>
        <time>2021-03-25T12:46:17Z</time>
      </trkpt>
      <trkpt lat="42.87867" lon="0.13953">
        <ele>2039.8</ele>
        <time>2021-03-25T12:46:18Z</time>
      </trkpt>
      <trkpt lat="42.87867" lon="0.13954">
        <ele>2039.8</ele>
        <time>2021-03-25T12:46:19Z</time>
      </trkpt>
      <trkpt lat="42.87867" lon="0.13954">
        <ele>2039.8</ele>
        <time>2021-03-25T12:46:20Z</time>
      </trkpt>
      <trkpt lat="42.87867" lon="0.13954">
        <ele>2039.8</ele>
        <time>2021-03-25T12:46:22Z</time>
      </trkpt>
      <trkpt lat="42.87867" lon="0.13955">
        <ele>2039.8</ele>
        <time>2021-03-25T12:46:23Z</time>
      </trkpt>
      <trkpt lat="42.87867" lon="0.13955">
        <ele>2039.8</ele>
        <time>2021-03-25T12:46:25Z</time>
      </trkpt>
      <trkpt lat="42.87867" lon="0.13955">
        <ele>2040.6</ele>
        <time>2021-03-25T12:46:26Z</time>
      </trkpt>
      <trkpt lat="42.87867" lon="0.13956">
        <ele>2039.8</ele>
        <time>2021-03-25T12:46:27Z</time>
      </trkpt>
      <trkpt lat="42.87867" lon="0.13956">
        <ele>2039.8</ele>
        <time>2021-03-25T12:46:28Z</time>
      </trkpt>
      <trkpt lat="42.87867" lon="0.13957">
        <ele>2039.8</ele>
        <time>2021-03-25T12:46:30Z</time>
      </trkpt>
      <trkpt lat="42.87867" lon="0.13957">
        <ele>2039.8</ele>
        <time>2021-03-25T12:46:31Z</time>
      </trkpt>
      <trkpt lat="42.87867" lon="0.13958">
        <ele>2040.5</ele>
        <time>2021-03-25T12:46:32Z</time>
      </trkpt>
      <trkpt lat="42.87867" lon="0.13958">
        <ele>2040.5</ele>
        <time>2021-03-25T12:46:33Z</time>
      </trkpt>
      <trkpt lat="42.87867" lon="0.13959">
        <ele>2040.5</ele>
        <time>2021-03-25T12:46:35Z</time>
      </trkpt>
      <trkpt lat="42.87867" lon="0.13959">
        <ele>2040.5</ele>
        <time>2021-03-25T12:46:37Z</time>
      </trkpt>
      <trkpt lat="42.87867" lon="0.13959">
        <ele>2039.8</ele>
        <time>2021-03-25T12:46:38Z</time>
      </trkpt>
      <trkpt lat="42.87867" lon="0.1396">
        <ele>2039.8</ele>
        <time>2021-03-25T12:46:39Z</time>
      </trkpt>
      <trkpt lat="42.87868" lon="0.1396">
        <ele>2039.8</ele>
        <time>2021-03-25T12:46:41Z</time>
      </trkpt>
      <trkpt lat="42.87868" lon="0.1396">
        <ele>2039.8</ele>
        <time>2021-03-25T12:46:42Z</time>
      </trkpt>
      <trkpt lat="42.87868" lon="0.13961">
        <ele>2039.8</ele>
        <time>2021-03-25T12:46:44Z</time>
      </trkpt>
      <trkpt lat="42.87868" lon="0.13961">
        <ele>2039.8</ele>
        <time>2021-03-25T12:46:45Z</time>
      </trkpt>
      <trkpt lat="42.87868" lon="0.13961">
        <ele>2039.8</ele>
        <time>2021-03-25T12:46:46Z</time>
      </trkpt>
      <trkpt lat="42.87868" lon="0.13961">
        <ele>2039.8</ele>
        <time>2021-03-25T12:46:48Z</time>
      </trkpt>
      <trkpt lat="42.87868" lon="0.13962">
        <ele>2039.8</ele>
        <time>2021-03-25T12:46:49Z</time>
      </trkpt>
      <trkpt lat="42.87867" lon="0.13962">
        <ele>2039.8</ele>
        <time>2021-03-25T12:46:50Z</time>
      </trkpt>
      <trkpt lat="42.87867" lon="0.13962">
        <ele>2039.8</ele>
        <time>2021-03-25T12:46:52Z</time>
      </trkpt>
      <trkpt lat="42.87867" lon="0.13962">
        <ele>2039.8</ele>
        <time>2021-03-25T12:46:53Z</time>
      </trkpt>
      <trkpt lat="42.87867" lon="0.13963">
        <ele>2039.8</ele>
        <time>2021-03-25T12:46:54Z</time>
      </trkpt>
      <trkpt lat="42.87867" lon="0.13963">
        <ele>2040.5</ele>
        <time>2021-03-25T12:46:56Z</time>
      </trkpt>
      <trkpt lat="42.87867" lon="0.13963">
        <ele>2040.5</ele>
        <time>2021-03-25T12:46:57Z</time>
      </trkpt>
      <trkpt lat="42.87867" lon="0.13963">
        <ele>2040.5</ele>
        <time>2021-03-25T12:46:58Z</time>
      </trkpt>
      <trkpt lat="42.87866" lon="0.13964">
        <ele>2040.5</ele>
        <time>2021-03-25T12:46:59Z</time>
      </trkpt>
      <trkpt lat="42.87866" lon="0.13964">
        <ele>2040.5</ele>
        <time>2021-03-25T12:47:00Z</time>
      </trkpt>
      <trkpt lat="42.87866" lon="0.13964">
        <ele>2040.5</ele>
        <time>2021-03-25T12:47:02Z</time>
      </trkpt>
      <trkpt lat="42.87866" lon="0.13965">
        <ele>2040.5</ele>
        <time>2021-03-25T12:47:03Z</time>
      </trkpt>
      <trkpt lat="42.87866" lon="0.13965">
        <ele>2040.6</ele>
        <time>2021-03-25T12:47:05Z</time>
      </trkpt>
      <trkpt lat="42.87866" lon="0.13965">
        <ele>2040.6</ele>
        <time>2021-03-25T12:47:06Z</time>
      </trkpt>
      <trkpt lat="42.87866" lon="0.13965">
        <ele>2040.6</ele>
        <time>2021-03-25T12:47:08Z</time>
      </trkpt>
      <trkpt lat="42.87867" lon="0.13965">
        <ele>2040.6</ele>
        <time>2021-03-25T12:47:09Z</time>
      </trkpt>
      <trkpt lat="42.87867" lon="0.13966">
        <ele>2039.9</ele>
        <time>2021-03-25T12:47:10Z</time>
      </trkpt>
      <trkpt lat="42.87867" lon="0.13966">
        <ele>2039.9</ele>
        <time>2021-03-25T12:47:11Z</time>
      </trkpt>
      <trkpt lat="42.87867" lon="0.13966">
        <ele>2039.9</ele>
        <time>2021-03-25T12:47:13Z</time>
      </trkpt>
      <trkpt lat="42.87867" lon="0.13966">
        <ele>2039.9</ele>
        <time>2021-03-25T12:47:14Z</time>
      </trkpt>
      <trkpt lat="42.87868" lon="0.13966">
        <ele>2039.9</ele>
        <time>2021-03-25T12:47:16Z</time>
      </trkpt>
      <trkpt lat="42.87868" lon="0.13967">
        <ele>2039.9</ele>
        <time>2021-03-25T12:47:17Z</time>
      </trkpt>
      <trkpt lat="42.87868" lon="0.13965">
        <ele>2039.9</ele>
        <time>2021-03-25T12:47:18Z</time>
      </trkpt>
      <trkpt lat="42.87867" lon="0.13965">
        <ele>2039.8</ele>
        <time>2021-03-25T12:47:20Z</time>
      </trkpt>
      <trkpt lat="42.87866" lon="0.13963">
        <ele>2040.5</ele>
        <time>2021-03-25T12:47:21Z</time>
      </trkpt>
      <trkpt lat="42.87865" lon="0.13961">
        <ele>2040.5</ele>
        <time>2021-03-25T12:47:23Z</time>
      </trkpt>
      <trkpt lat="42.87863" lon="0.13959">
        <ele>2041.4</ele>
        <time>2021-03-25T12:47:25Z</time>
      </trkpt>
      <trkpt lat="42.87861" lon="0.13957">
        <ele>2041.4</ele>
        <time>2021-03-25T12:47:26Z</time>
      </trkpt>
      <trkpt lat="42.8786" lon="0.13955">
        <ele>2042.3</ele>
        <time>2021-03-25T12:47:28Z</time>
      </trkpt>
      <trkpt lat="42.8786" lon="0.13949">
        <ele>2042.5</ele>
        <time>2021-03-25T12:47:29Z</time>
      </trkpt>
      <trkpt lat="42.8786" lon="0.13945">
        <ele>2042.6</ele>
        <time>2021-03-25T12:47:31Z</time>
      </trkpt>
      <trkpt lat="42.8786" lon="0.13943">
        <ele>2042.9</ele>
        <time>2021-03-25T12:47:32Z</time>
      </trkpt>
      <trkpt lat="42.8786" lon="0.13942">
        <ele>2042.9</ele>
        <time>2021-03-25T12:47:33Z</time>
      </trkpt>
      <trkpt lat="42.8786" lon="0.13941">
        <ele>2042.9</ele>
        <time>2021-03-25T12:47:35Z</time>
      </trkpt>
      <trkpt lat="42.8786" lon="0.13941">
        <ele>2042.9</ele>
        <time>2021-03-25T12:47:36Z</time>
      </trkpt>
      <trkpt lat="42.8786" lon="0.13941">
        <ele>2042.9</ele>
        <time>2021-03-25T12:47:37Z</time>
      </trkpt>
      <trkpt lat="42.8786" lon="0.13941">
        <ele>2042.9</ele>
        <time>2021-03-25T12:47:39Z</time>
      </trkpt>
      <trkpt lat="42.8786" lon="0.13941">
        <ele>2042.9</ele>
        <time>2021-03-25T12:47:40Z</time>
      </trkpt>
      <trkpt lat="42.8786" lon="0.1394">
        <ele>2042.9</ele>
        <time>2021-03-25T12:47:41Z</time>
      </trkpt>
      <trkpt lat="42.87859" lon="0.1394">
        <ele>2042.9</ele>
        <time>2021-03-25T12:47:43Z</time>
      </trkpt>
      <trkpt lat="42.87859" lon="0.13939">
        <ele>2042.9</ele>
        <time>2021-03-25T12:47:44Z</time>
      </trkpt>
      <trkpt lat="42.87859" lon="0.13939">
        <ele>2042.9</ele>
        <time>2021-03-25T12:47:46Z</time>
      </trkpt>
      <trkpt lat="42.87859" lon="0.13939">
        <ele>2043.1</ele>
        <time>2021-03-25T12:47:47Z</time>
      </trkpt>
      <trkpt lat="42.87859" lon="0.13939">
        <ele>2043.1</ele>
        <time>2021-03-25T12:47:48Z</time>
      </trkpt>
      <trkpt lat="42.87859" lon="0.13939">
        <ele>2043.1</ele>
        <time>2021-03-25T12:47:49Z</time>
      </trkpt>
      <trkpt lat="42.87859" lon="0.13938">
        <ele>2043.1</ele>
        <time>2021-03-25T12:47:50Z</time>
      </trkpt>
      <trkpt lat="42.87859" lon="0.13938">
        <ele>2043.1</ele>
        <time>2021-03-25T12:47:52Z</time>
      </trkpt>
      <trkpt lat="42.87858" lon="0.13937">
        <ele>2043.1</ele>
        <time>2021-03-25T12:47:54Z</time>
      </trkpt>
      <trkpt lat="42.87857" lon="0.13937">
        <ele>2044.2</ele>
        <time>2021-03-25T12:47:55Z</time>
      </trkpt>
      <trkpt lat="42.87856" lon="0.13936">
        <ele>2044.2</ele>
        <time>2021-03-25T12:47:56Z</time>
      </trkpt>
      <trkpt lat="42.87855" lon="0.13936">
        <ele>2044.2</ele>
        <time>2021-03-25T12:47:57Z</time>
      </trkpt>
      <trkpt lat="42.87855" lon="0.13936">
        <ele>2044.2</ele>
        <time>2021-03-25T12:47:59Z</time>
      </trkpt>
      <trkpt lat="42.87854" lon="0.13935">
        <ele>2044.2</ele>
        <time>2021-03-25T12:48:00Z</time>
      </trkpt>
      <trkpt lat="42.87853" lon="0.13935">
        <ele>2045.2</ele>
        <time>2021-03-25T12:48:02Z</time>
      </trkpt>
      <trkpt lat="42.87853" lon="0.13935">
        <ele>2045.6</ele>
        <time>2021-03-25T12:48:03Z</time>
      </trkpt>
      <trkpt lat="42.87852" lon="0.13934">
        <ele>2045.6</ele>
        <time>2021-03-25T12:48:04Z</time>
      </trkpt>
      <trkpt lat="42.87851" lon="0.13934">
        <ele>2045.6</ele>
        <time>2021-03-25T12:48:05Z</time>
      </trkpt>
      <trkpt lat="42.8785" lon="0.13936">
        <ele>2046.2</ele>
        <time>2021-03-25T12:48:07Z</time>
      </trkpt>
      <trkpt lat="42.8785" lon="0.13938">
        <ele>2046.2</ele>
        <time>2021-03-25T12:48:08Z</time>
      </trkpt>
      <trkpt lat="42.87849" lon="0.13942">
        <ele>2045.9</ele>
        <time>2021-03-25T12:48:09Z</time>
      </trkpt>
      <trkpt lat="42.87848" lon="0.13943">
        <ele>2045.9</ele>
        <time>2021-03-25T12:48:10Z</time>
      </trkpt>
      <trkpt lat="42.87847" lon="0.13942">
        <ele>2046.9</ele>
        <time>2021-03-25T12:48:11Z</time>
      </trkpt>
      <trkpt lat="42.87844" lon="0.13941">
        <ele>2047.9</ele>
        <time>2021-03-25T12:48:13Z</time>
      </trkpt>
      <trkpt lat="42.87843" lon="0.13941">
        <ele>2047.9</ele>
        <time>2021-03-25T12:48:14Z</time>
      </trkpt>
      <trkpt lat="42.87842" lon="0.1394">
        <ele>2047.9</ele>
        <time>2021-03-25T12:48:16Z</time>
      </trkpt>
      <trkpt lat="42.87842" lon="0.13939">
        <ele>2047.9</ele>
        <time>2021-03-25T12:48:17Z</time>
      </trkpt>
      <trkpt lat="42.87842" lon="0.13939">
        <ele>2049.1</ele>
        <time>2021-03-25T12:48:18Z</time>
      </trkpt>
      <trkpt lat="42.87841" lon="0.13939">
        <ele>2049.5</ele>
        <time>2021-03-25T12:48:19Z</time>
      </trkpt>
      <trkpt lat="42.87841" lon="0.13939">
        <ele>2049.5</ele>
        <time>2021-03-25T12:48:20Z</time>
      </trkpt>
      <trkpt lat="42.8784" lon="0.13939">
        <ele>2049.5</ele>
        <time>2021-03-25T12:48:21Z</time>
      </trkpt>
      <trkpt lat="42.8784" lon="0.13938">
        <ele>2049.5</ele>
        <time>2021-03-25T12:48:23Z</time>
      </trkpt>
      <trkpt lat="42.87839" lon="0.13937">
        <ele>2049.5</ele>
        <time>2021-03-25T12:48:24Z</time>
      </trkpt>
      <trkpt lat="42.87838" lon="0.13937">
        <ele>2050.8</ele>
        <time>2021-03-25T12:48:25Z</time>
      </trkpt>
      <trkpt lat="42.87838" lon="0.13937">
        <ele>2050.8</ele>
        <time>2021-03-25T12:48:26Z</time>
      </trkpt>
      <trkpt lat="42.87837" lon="0.13937">
        <ele>2050.8</ele>
        <time>2021-03-25T12:48:27Z</time>
      </trkpt>
      <trkpt lat="42.87837" lon="0.13936">
        <ele>2050.8</ele>
        <time>2021-03-25T12:48:28Z</time>
      </trkpt>
      <trkpt lat="42.87836" lon="0.13937">
        <ele>2050.8</ele>
        <time>2021-03-25T12:48:30Z</time>
      </trkpt>
      <trkpt lat="42.87836" lon="0.13937">
        <ele>2050.8</ele>
        <time>2021-03-25T12:48:31Z</time>
      </trkpt>
      <trkpt lat="42.87835" lon="0.13937">
        <ele>2052.2</ele>
        <time>2021-03-25T12:48:33Z</time>
      </trkpt>
      <trkpt lat="42.87835" lon="0.13938">
        <ele>2052.2</ele>
        <time>2021-03-25T12:48:34Z</time>
      </trkpt>
      <trkpt lat="42.87835" lon="0.13938">
        <ele>2052.2</ele>
        <time>2021-03-25T12:48:35Z</time>
      </trkpt>
      <trkpt lat="42.87834" lon="0.13938">
        <ele>2052.2</ele>
        <time>2021-03-25T12:48:36Z</time>
      </trkpt>
      <trkpt lat="42.87834" lon="0.13938">
        <ele>2052.2</ele>
        <time>2021-03-25T12:48:37Z</time>
      </trkpt>
      <trkpt lat="42.87834" lon="0.13939">
        <ele>2052.2</ele>
        <time>2021-03-25T12:48:39Z</time>
      </trkpt>
      <trkpt lat="42.87833" lon="0.13939">
        <ele>2052.2</ele>
        <time>2021-03-25T12:48:40Z</time>
      </trkpt>
      <trkpt lat="42.87833" lon="0.13939">
        <ele>2052.2</ele>
        <time>2021-03-25T12:48:41Z</time>
      </trkpt>
      <trkpt lat="42.87832" lon="0.13939">
        <ele>2052.2</ele>
        <time>2021-03-25T12:48:42Z</time>
      </trkpt>
      <trkpt lat="42.87832" lon="0.13939">
        <ele>2053.5</ele>
        <time>2021-03-25T12:48:43Z</time>
      </trkpt>
      <trkpt lat="42.87831" lon="0.13939">
        <ele>2053.5</ele>
        <time>2021-03-25T12:48:45Z</time>
      </trkpt>
      <trkpt lat="42.8783" lon="0.13939">
        <ele>2053</ele>
        <time>2021-03-25T12:48:46Z</time>
      </trkpt>
      <trkpt lat="42.8783" lon="0.1394">
        <ele>2053</ele>
        <time>2021-03-25T12:48:47Z</time>
      </trkpt>
      <trkpt lat="42.87829" lon="0.1394">
        <ele>2053</ele>
        <time>2021-03-25T12:48:48Z</time>
      </trkpt>
      <trkpt lat="42.87829" lon="0.1394">
        <ele>2054.3</ele>
        <time>2021-03-25T12:48:49Z</time>
      </trkpt>
      <trkpt lat="42.87829" lon="0.1394">
        <ele>2054.3</ele>
        <time>2021-03-25T12:48:50Z</time>
      </trkpt>
      <trkpt lat="42.87829" lon="0.13941">
        <ele>2054.3</ele>
        <time>2021-03-25T12:48:52Z</time>
      </trkpt>
      <trkpt lat="42.87829" lon="0.13941">
        <ele>2054.3</ele>
        <time>2021-03-25T12:48:53Z</time>
      </trkpt>
      <trkpt lat="42.87829" lon="0.13941">
        <ele>2054.3</ele>
        <time>2021-03-25T12:48:54Z</time>
      </trkpt>
      <trkpt lat="42.87829" lon="0.13942">
        <ele>2054.3</ele>
        <time>2021-03-25T12:48:55Z</time>
      </trkpt>
      <trkpt lat="42.87829" lon="0.13942">
        <ele>2054.3</ele>
        <time>2021-03-25T12:48:56Z</time>
      </trkpt>
      <trkpt lat="42.87828" lon="0.13943">
        <ele>2054.3</ele>
        <time>2021-03-25T12:48:58Z</time>
      </trkpt>
      <trkpt lat="42.87827" lon="0.13943">
        <ele>2054.3</ele>
        <time>2021-03-25T12:49:00Z</time>
      </trkpt>
      <trkpt lat="42.87826" lon="0.13943">
        <ele>2054.3</ele>
        <time>2021-03-25T12:49:01Z</time>
      </trkpt>
      <trkpt lat="42.87825" lon="0.13943">
        <ele>2055.5</ele>
        <time>2021-03-25T12:49:02Z</time>
      </trkpt>
      <trkpt lat="42.87825" lon="0.13942">
        <ele>2055.5</ele>
        <time>2021-03-25T12:49:03Z</time>
      </trkpt>
      <trkpt lat="42.87824" lon="0.13942">
        <ele>2055.5</ele>
        <time>2021-03-25T12:49:04Z</time>
      </trkpt>
      <trkpt lat="42.87823" lon="0.13942">
        <ele>2056.7</ele>
        <time>2021-03-25T12:49:06Z</time>
      </trkpt>
      <trkpt lat="42.87822" lon="0.13943">
        <ele>2056.7</ele>
        <time>2021-03-25T12:49:08Z</time>
      </trkpt>
      <trkpt lat="42.87821" lon="0.13943">
        <ele>2056.7</ele>
        <time>2021-03-25T12:49:09Z</time>
      </trkpt>
      <trkpt lat="42.87819" lon="0.13944">
        <ele>2057.4</ele>
        <time>2021-03-25T12:49:11Z</time>
      </trkpt>
      <trkpt lat="42.87818" lon="0.13945">
        <ele>2057.4</ele>
        <time>2021-03-25T12:49:13Z</time>
      </trkpt>
      <trkpt lat="42.87817" lon="0.13946">
        <ele>2057.4</ele>
        <time>2021-03-25T12:49:14Z</time>
      </trkpt>
      <trkpt lat="42.87817" lon="0.13946">
        <ele>2057.4</ele>
        <time>2021-03-25T12:49:15Z</time>
      </trkpt>
      <trkpt lat="42.87816" lon="0.13946">
        <ele>2058.7</ele>
        <time>2021-03-25T12:49:17Z</time>
      </trkpt>
      <trkpt lat="42.87816" lon="0.13946">
        <ele>2058.7</ele>
        <time>2021-03-25T12:49:18Z</time>
      </trkpt>
      <trkpt lat="42.87816" lon="0.13947">
        <ele>2058.7</ele>
        <time>2021-03-25T12:49:19Z</time>
      </trkpt>
      <trkpt lat="42.87815" lon="0.13947">
        <ele>2058.7</ele>
        <time>2021-03-25T12:49:20Z</time>
      </trkpt>
      <trkpt lat="42.87814" lon="0.13947">
        <ele>2058.7</ele>
        <time>2021-03-25T12:49:21Z</time>
      </trkpt>
      <trkpt lat="42.87812" lon="0.13948">
        <ele>2059.5</ele>
        <time>2021-03-25T12:49:22Z</time>
      </trkpt>
      <trkpt lat="42.87811" lon="0.13948">
        <ele>2059.5</ele>
        <time>2021-03-25T12:49:24Z</time>
      </trkpt>
      <trkpt lat="42.8781" lon="0.13947">
        <ele>2061.3</ele>
        <time>2021-03-25T12:49:25Z</time>
      </trkpt>
      <trkpt lat="42.87809" lon="0.13947">
        <ele>2061.3</ele>
        <time>2021-03-25T12:49:27Z</time>
      </trkpt>
      <trkpt lat="42.87808" lon="0.13946">
        <ele>2061.3</ele>
        <time>2021-03-25T12:49:28Z</time>
      </trkpt>
      <trkpt lat="42.87807" lon="0.13946">
        <ele>2062.6</ele>
        <time>2021-03-25T12:49:29Z</time>
      </trkpt>
      <trkpt lat="42.87805" lon="0.13946">
        <ele>2062.6</ele>
        <time>2021-03-25T12:49:31Z</time>
      </trkpt>
      <trkpt lat="42.87804" lon="0.13946">
        <ele>2062.6</ele>
        <time>2021-03-25T12:49:32Z</time>
      </trkpt>
      <trkpt lat="42.87804" lon="0.13946">
        <ele>2063.9</ele>
        <time>2021-03-25T12:49:33Z</time>
      </trkpt>
      <trkpt lat="42.87803" lon="0.13946">
        <ele>2063.9</ele>
        <time>2021-03-25T12:49:35Z</time>
      </trkpt>
      <trkpt lat="42.87803" lon="0.13946">
        <ele>2063.9</ele>
        <time>2021-03-25T12:49:36Z</time>
      </trkpt>
      <trkpt lat="42.87803" lon="0.13946">
        <ele>2063.9</ele>
        <time>2021-03-25T12:49:37Z</time>
      </trkpt>
      <trkpt lat="42.87803" lon="0.13946">
        <ele>2063.9</ele>
        <time>2021-03-25T12:49:38Z</time>
      </trkpt>
      <trkpt lat="42.87803" lon="0.13947">
        <ele>2063.9</ele>
        <time>2021-03-25T12:49:39Z</time>
      </trkpt>
      <trkpt lat="42.87803" lon="0.13947">
        <ele>2063.9</ele>
        <time>2021-03-25T12:49:40Z</time>
      </trkpt>
      <trkpt lat="42.87803" lon="0.13948">
        <ele>2063.4</ele>
        <time>2021-03-25T12:49:42Z</time>
      </trkpt>
      <trkpt lat="42.87802" lon="0.13949">
        <ele>2063.4</ele>
        <time>2021-03-25T12:49:43Z</time>
      </trkpt>
      <trkpt lat="42.87802" lon="0.1395">
        <ele>2063.4</ele>
        <time>2021-03-25T12:49:44Z</time>
      </trkpt>
      <trkpt lat="42.87802" lon="0.13951">
        <ele>2063.4</ele>
        <time>2021-03-25T12:49:45Z</time>
      </trkpt>
      <trkpt lat="42.87802" lon="0.13952">
        <ele>2063.4</ele>
        <time>2021-03-25T12:49:46Z</time>
      </trkpt>
      <trkpt lat="42.87802" lon="0.13953">
        <ele>2062.9</ele>
        <time>2021-03-25T12:49:47Z</time>
      </trkpt>
      <trkpt lat="42.87802" lon="0.13954">
        <ele>2062.9</ele>
        <time>2021-03-25T12:49:48Z</time>
      </trkpt>
      <trkpt lat="42.87801" lon="0.13956">
        <ele>2062.9</ele>
        <time>2021-03-25T12:49:50Z</time>
      </trkpt>
      <trkpt lat="42.87801" lon="0.13957">
        <ele>2062.6</ele>
        <time>2021-03-25T12:49:51Z</time>
      </trkpt>
      <trkpt lat="42.87801" lon="0.13958">
        <ele>2063.8</ele>
        <time>2021-03-25T12:49:53Z</time>
      </trkpt>
      <trkpt lat="42.878" lon="0.13959">
        <ele>2063.8</ele>
        <time>2021-03-25T12:49:54Z</time>
      </trkpt>
      <trkpt lat="42.878" lon="0.1396">
        <ele>2063.8</ele>
        <time>2021-03-25T12:49:55Z</time>
      </trkpt>
      <trkpt lat="42.878" lon="0.1396">
        <ele>2063.8</ele>
        <time>2021-03-25T12:49:56Z</time>
      </trkpt>
      <trkpt lat="42.87799" lon="0.13961">
        <ele>2063.5</ele>
        <time>2021-03-25T12:49:57Z</time>
      </trkpt>
      <trkpt lat="42.87799" lon="0.13961">
        <ele>2063.5</ele>
        <time>2021-03-25T12:49:58Z</time>
      </trkpt>
      <trkpt lat="42.87799" lon="0.13962">
        <ele>2063.5</ele>
        <time>2021-03-25T12:49:59Z</time>
      </trkpt>
      <trkpt lat="42.87798" lon="0.13962">
        <ele>2063.5</ele>
        <time>2021-03-25T12:50:01Z</time>
      </trkpt>
      <trkpt lat="42.87798" lon="0.13963">
        <ele>2063.5</ele>
        <time>2021-03-25T12:50:02Z</time>
      </trkpt>
      <trkpt lat="42.87798" lon="0.13963">
        <ele>2063.5</ele>
        <time>2021-03-25T12:50:03Z</time>
      </trkpt>
      <trkpt lat="42.87798" lon="0.13963">
        <ele>2064.7</ele>
        <time>2021-03-25T12:50:04Z</time>
      </trkpt>
      <trkpt lat="42.87797" lon="0.13964">
        <ele>2064.7</ele>
        <time>2021-03-25T12:50:05Z</time>
      </trkpt>
      <trkpt lat="42.87797" lon="0.13965">
        <ele>2064.7</ele>
        <time>2021-03-25T12:50:07Z</time>
      </trkpt>
      <trkpt lat="42.87796" lon="0.13965">
        <ele>2064.4</ele>
        <time>2021-03-25T12:50:09Z</time>
      </trkpt>
      <trkpt lat="42.87796" lon="0.13966">
        <ele>2064.4</ele>
        <time>2021-03-25T12:50:10Z</time>
      </trkpt>
      <trkpt lat="42.87795" lon="0.13967">
        <ele>2064.4</ele>
        <time>2021-03-25T12:50:11Z</time>
      </trkpt>
      <trkpt lat="42.87795" lon="0.13967">
        <ele>2064.4</ele>
        <time>2021-03-25T12:50:12Z</time>
      </trkpt>
      <trkpt lat="42.87795" lon="0.13968">
        <ele>2064.4</ele>
        <time>2021-03-25T12:50:14Z</time>
      </trkpt>
      <trkpt lat="42.87794" lon="0.13968">
        <ele>2065.7</ele>
        <time>2021-03-25T12:50:15Z</time>
      </trkpt>
      <trkpt lat="42.87794" lon="0.13969">
        <ele>2065.7</ele>
        <time>2021-03-25T12:50:16Z</time>
      </trkpt>
      <trkpt lat="42.87794" lon="0.13969">
        <ele>2065.5</ele>
        <time>2021-03-25T12:50:17Z</time>
      </trkpt>
      <trkpt lat="42.87793" lon="0.1397">
        <ele>2065.5</ele>
        <time>2021-03-25T12:50:19Z</time>
      </trkpt>
      <trkpt lat="42.87792" lon="0.1397">
        <ele>2065.5</ele>
        <time>2021-03-25T12:50:21Z</time>
      </trkpt>
      <trkpt lat="42.87791" lon="0.1397">
        <ele>2066.7</ele>
        <time>2021-03-25T12:50:23Z</time>
      </trkpt>
      <trkpt lat="42.87789" lon="0.13969">
        <ele>2066.7</ele>
        <time>2021-03-25T12:50:25Z</time>
      </trkpt>
      <trkpt lat="42.87788" lon="0.13967">
        <ele>2068.1</ele>
        <time>2021-03-25T12:50:27Z</time>
      </trkpt>
      <trkpt lat="42.87787" lon="0.13966">
        <ele>2068.1</ele>
        <time>2021-03-25T12:50:29Z</time>
      </trkpt>
      <trkpt lat="42.87786" lon="0.13965">
        <ele>2068.1</ele>
        <time>2021-03-25T12:50:30Z</time>
      </trkpt>
      <trkpt lat="42.87784" lon="0.13964">
        <ele>2069.7</ele>
        <time>2021-03-25T12:50:32Z</time>
      </trkpt>
      <trkpt lat="42.87783" lon="0.13966">
        <ele>2069.4</ele>
        <time>2021-03-25T12:50:34Z</time>
      </trkpt>
      <trkpt lat="42.87782" lon="0.13966">
        <ele>2069.4</ele>
        <time>2021-03-25T12:50:35Z</time>
      </trkpt>
      <trkpt lat="42.87782" lon="0.13966">
        <ele>2069.4</ele>
        <time>2021-03-25T12:50:36Z</time>
      </trkpt>
      <trkpt lat="42.87783" lon="0.13966">
        <ele>2069.4</ele>
        <time>2021-03-25T12:50:38Z</time>
      </trkpt>
      <trkpt lat="42.87784" lon="0.13966">
        <ele>2069.4</ele>
        <time>2021-03-25T12:50:40Z</time>
      </trkpt>
      <trkpt lat="42.87785" lon="0.13965">
        <ele>2069.4</ele>
        <time>2021-03-25T12:50:41Z</time>
      </trkpt>
      <trkpt lat="42.87785" lon="0.13965">
        <ele>2069.4</ele>
        <time>2021-03-25T12:50:43Z</time>
      </trkpt>
      <trkpt lat="42.87785" lon="0.13965">
        <ele>2069.4</ele>
        <time>2021-03-25T12:50:44Z</time>
      </trkpt>
      <trkpt lat="42.87784" lon="0.13965">
        <ele>2069.7</ele>
        <time>2021-03-25T12:50:45Z</time>
      </trkpt>
      <trkpt lat="42.87782" lon="0.13963">
        <ele>2069.7</ele>
        <time>2021-03-25T12:50:47Z</time>
      </trkpt>
      <trkpt lat="42.87782" lon="0.13963">
        <ele>2071</ele>
        <time>2021-03-25T12:50:48Z</time>
      </trkpt>
      <trkpt lat="42.87782" lon="0.13963">
        <ele>2071</ele>
        <time>2021-03-25T12:50:50Z</time>
      </trkpt>
      <trkpt lat="42.87781" lon="0.13963">
        <ele>2071</ele>
        <time>2021-03-25T12:50:51Z</time>
      </trkpt>
      <trkpt lat="42.87781" lon="0.13963">
        <ele>2071</ele>
        <time>2021-03-25T12:50:52Z</time>
      </trkpt>
      <trkpt lat="42.87782" lon="0.13964">
        <ele>2071</ele>
        <time>2021-03-25T12:50:54Z</time>
      </trkpt>
      <trkpt lat="42.87782" lon="0.13964">
        <ele>2071</ele>
        <time>2021-03-25T12:50:55Z</time>
      </trkpt>
      <trkpt lat="42.87782" lon="0.13964">
        <ele>2071</ele>
        <time>2021-03-25T12:50:56Z</time>
      </trkpt>
      <trkpt lat="42.87782" lon="0.13965">
        <ele>2070.7</ele>
        <time>2021-03-25T12:50:58Z</time>
      </trkpt>
      <trkpt lat="42.87782" lon="0.13965">
        <ele>2070.7</ele>
        <time>2021-03-25T12:50:59Z</time>
      </trkpt>
      <trkpt lat="42.87782" lon="0.13965">
        <ele>2070.7</ele>
        <time>2021-03-25T12:51:01Z</time>
      </trkpt>
      <trkpt lat="42.87782" lon="0.13965">
        <ele>2070.7</ele>
        <time>2021-03-25T12:51:02Z</time>
      </trkpt>
      <trkpt lat="42.87782" lon="0.13966">
        <ele>2070.7</ele>
        <time>2021-03-25T12:51:03Z</time>
      </trkpt>
      <trkpt lat="42.87782" lon="0.13966">
        <ele>2070.7</ele>
        <time>2021-03-25T12:51:05Z</time>
      </trkpt>
      <trkpt lat="42.87782" lon="0.13966">
        <ele>2070.7</ele>
        <time>2021-03-25T12:51:06Z</time>
      </trkpt>
      <trkpt lat="42.87782" lon="0.13966">
        <ele>2070.7</ele>
        <time>2021-03-25T12:51:07Z</time>
      </trkpt>
      <trkpt lat="42.87782" lon="0.13966">
        <ele>2070.7</ele>
        <time>2021-03-25T12:51:08Z</time>
      </trkpt>
      <trkpt lat="42.87782" lon="0.13966">
        <ele>2070.7</ele>
        <time>2021-03-25T12:51:09Z</time>
      </trkpt>
      <trkpt lat="42.87782" lon="0.13967">
        <ele>2070.7</ele>
        <time>2021-03-25T12:51:10Z</time>
      </trkpt>
      <trkpt lat="42.87781" lon="0.13967">
        <ele>2070.7</ele>
        <time>2021-03-25T12:51:12Z</time>
      </trkpt>
      <trkpt lat="42.87781" lon="0.13967">
        <ele>2070.7</ele>
        <time>2021-03-25T12:51:13Z</time>
      </trkpt>
      <trkpt lat="42.8778" lon="0.13968">
        <ele>2070.7</ele>
        <time>2021-03-25T12:51:15Z</time>
      </trkpt>
      <trkpt lat="42.8778" lon="0.13968">
        <ele>2070.7</ele>
        <time>2021-03-25T12:51:17Z</time>
      </trkpt>
      <trkpt lat="42.8778" lon="0.13969">
        <ele>2070.7</ele>
        <time>2021-03-25T12:51:18Z</time>
      </trkpt>
      <trkpt lat="42.87779" lon="0.13969">
        <ele>2070.5</ele>
        <time>2021-03-25T12:51:20Z</time>
      </trkpt>
      <trkpt lat="42.87779" lon="0.1397">
        <ele>2070.5</ele>
        <time>2021-03-25T12:51:21Z</time>
      </trkpt>
      <trkpt lat="42.87779" lon="0.1397">
        <ele>2071.8</ele>
        <time>2021-03-25T12:51:23Z</time>
      </trkpt>
      <trkpt lat="42.87778" lon="0.1397">
        <ele>2071.8</ele>
        <time>2021-03-25T12:51:24Z</time>
      </trkpt>
      <trkpt lat="42.87778" lon="0.1397">
        <ele>2071.8</ele>
        <time>2021-03-25T12:51:25Z</time>
      </trkpt>
      <trkpt lat="42.87777" lon="0.1397">
        <ele>2071.8</ele>
        <time>2021-03-25T12:51:27Z</time>
      </trkpt>
      <trkpt lat="42.87776" lon="0.13971">
        <ele>2071.8</ele>
        <time>2021-03-25T12:51:28Z</time>
      </trkpt>
      <trkpt lat="42.87775" lon="0.13971">
        <ele>2073.1</ele>
        <time>2021-03-25T12:51:29Z</time>
      </trkpt>
      <trkpt lat="42.87775" lon="0.13971">
        <ele>2073.1</ele>
        <time>2021-03-25T12:51:30Z</time>
      </trkpt>
      <trkpt lat="42.87773" lon="0.13972">
        <ele>2073.1</ele>
        <time>2021-03-25T12:51:32Z</time>
      </trkpt>
      <trkpt lat="42.87772" lon="0.13973">
        <ele>2074.4</ele>
        <time>2021-03-25T12:51:34Z</time>
      </trkpt>
      <trkpt lat="42.8777" lon="0.13974">
        <ele>2074.2</ele>
        <time>2021-03-25T12:51:36Z</time>
      </trkpt>
      <trkpt lat="42.8777" lon="0.13974">
        <ele>2074.2</ele>
        <time>2021-03-25T12:51:37Z</time>
      </trkpt>
      <trkpt lat="42.87769" lon="0.13975">
        <ele>2075.4</ele>
        <time>2021-03-25T12:51:39Z</time>
      </trkpt>
      <trkpt lat="42.87769" lon="0.13975">
        <ele>2075.4</ele>
        <time>2021-03-25T12:51:40Z</time>
      </trkpt>
      <trkpt lat="42.87769" lon="0.13975">
        <ele>2075.4</ele>
        <time>2021-03-25T12:51:42Z</time>
      </trkpt>
      <trkpt lat="42.87768" lon="0.13975">
        <ele>2075.4</ele>
        <time>2021-03-25T12:51:43Z</time>
      </trkpt>
      <trkpt lat="42.87768" lon="0.13975">
        <ele>2075.4</ele>
        <time>2021-03-25T12:51:44Z</time>
      </trkpt>
      <trkpt lat="42.87768" lon="0.13974">
        <ele>2075.4</ele>
        <time>2021-03-25T12:51:46Z</time>
      </trkpt>
      <trkpt lat="42.87768" lon="0.13974">
        <ele>2075.4</ele>
        <time>2021-03-25T12:51:48Z</time>
      </trkpt>
      <trkpt lat="42.87767" lon="0.13974">
        <ele>2075.4</ele>
        <time>2021-03-25T12:51:49Z</time>
      </trkpt>
      <trkpt lat="42.87767" lon="0.13973">
        <ele>2075.4</ele>
        <time>2021-03-25T12:51:51Z</time>
      </trkpt>
      <trkpt lat="42.87767" lon="0.13973">
        <ele>2075.4</ele>
        <time>2021-03-25T12:51:52Z</time>
      </trkpt>
      <trkpt lat="42.87767" lon="0.13973">
        <ele>2075.4</ele>
        <time>2021-03-25T12:51:54Z</time>
      </trkpt>
      <trkpt lat="42.87767" lon="0.13974">
        <ele>2075.4</ele>
        <time>2021-03-25T12:51:55Z</time>
      </trkpt>
      <trkpt lat="42.87767" lon="0.13974">
        <ele>2075.4</ele>
        <time>2021-03-25T12:51:57Z</time>
      </trkpt>
      <trkpt lat="42.87766" lon="0.13973">
        <ele>2076.8</ele>
        <time>2021-03-25T12:51:58Z</time>
      </trkpt>
      <trkpt lat="42.87766" lon="0.13972">
        <ele>2076.8</ele>
        <time>2021-03-25T12:51:59Z</time>
      </trkpt>
      <trkpt lat="42.87765" lon="0.13971">
        <ele>2076.8</ele>
        <time>2021-03-25T12:52:00Z</time>
      </trkpt>
      <trkpt lat="42.87764" lon="0.13968">
        <ele>2077.1</ele>
        <time>2021-03-25T12:52:02Z</time>
      </trkpt>
      <trkpt lat="42.87764" lon="0.13967">
        <ele>2077.1</ele>
        <time>2021-03-25T12:52:04Z</time>
      </trkpt>
      <trkpt lat="42.87764" lon="0.13967">
        <ele>2077.1</ele>
        <time>2021-03-25T12:52:05Z</time>
      </trkpt>
      <trkpt lat="42.87764" lon="0.13967">
        <ele>2077.1</ele>
        <time>2021-03-25T12:52:07Z</time>
      </trkpt>
      <trkpt lat="42.87764" lon="0.13967">
        <ele>2077.1</ele>
        <time>2021-03-25T12:52:08Z</time>
      </trkpt>
      <trkpt lat="42.87764" lon="0.13967">
        <ele>2077.1</ele>
        <time>2021-03-25T12:52:10Z</time>
      </trkpt>
      <trkpt lat="42.87764" lon="0.13967">
        <ele>2077.1</ele>
        <time>2021-03-25T12:52:11Z</time>
      </trkpt>
      <trkpt lat="42.87765" lon="0.13972">
        <ele>2076.8</ele>
        <time>2021-03-25T12:52:13Z</time>
      </trkpt>
      <trkpt lat="42.87765" lon="0.13974">
        <ele>2076.6</ele>
        <time>2021-03-25T12:52:14Z</time>
      </trkpt>
      <trkpt lat="42.87764" lon="0.13975">
        <ele>2076.6</ele>
        <time>2021-03-25T12:52:16Z</time>
      </trkpt>
      <trkpt lat="42.87764" lon="0.13975">
        <ele>2076.6</ele>
        <time>2021-03-25T12:52:17Z</time>
      </trkpt>
      <trkpt lat="42.87764" lon="0.13975">
        <ele>2076.6</ele>
        <time>2021-03-25T12:52:19Z</time>
      </trkpt>
      <trkpt lat="42.87763" lon="0.13976">
        <ele>2076.6</ele>
        <time>2021-03-25T12:52:21Z</time>
      </trkpt>
      <trkpt lat="42.87763" lon="0.13977">
        <ele>2077.6</ele>
        <time>2021-03-25T12:52:23Z</time>
      </trkpt>
      <trkpt lat="42.87763" lon="0.13977">
        <ele>2077.6</ele>
        <time>2021-03-25T12:52:24Z</time>
      </trkpt>
      <trkpt lat="42.87762" lon="0.13977">
        <ele>2077.6</ele>
        <time>2021-03-25T12:52:25Z</time>
      </trkpt>
      <trkpt lat="42.8776" lon="0.13976">
        <ele>2078.6</ele>
        <time>2021-03-25T12:52:27Z</time>
      </trkpt>
      <trkpt lat="42.87758" lon="0.13974">
        <ele>2078.6</ele>
        <time>2021-03-25T12:52:29Z</time>
      </trkpt>
      <trkpt lat="42.87756" lon="0.13969">
        <ele>2080.3</ele>
        <time>2021-03-25T12:52:31Z</time>
      </trkpt>
      <trkpt lat="42.87755" lon="0.13967">
        <ele>2080.3</ele>
        <time>2021-03-25T12:52:32Z</time>
      </trkpt>
      <trkpt lat="42.87755" lon="0.13966">
        <ele>2080.3</ele>
        <time>2021-03-25T12:52:34Z</time>
      </trkpt>
      <trkpt lat="42.87754" lon="0.13965">
        <ele>2080.3</ele>
        <time>2021-03-25T12:52:35Z</time>
      </trkpt>
      <trkpt lat="42.87753" lon="0.13964">
        <ele>2081.7</ele>
        <time>2021-03-25T12:52:37Z</time>
      </trkpt>
      <trkpt lat="42.87752" lon="0.13963">
        <ele>2081.7</ele>
        <time>2021-03-25T12:52:38Z</time>
      </trkpt>
      <trkpt lat="42.87751" lon="0.13963">
        <ele>2081.7</ele>
        <time>2021-03-25T12:52:40Z</time>
      </trkpt>
      <trkpt lat="42.8775" lon="0.13962">
        <ele>2082.8</ele>
        <time>2021-03-25T12:52:41Z</time>
      </trkpt>
      <trkpt lat="42.8775" lon="0.13961">
        <ele>2082.8</ele>
        <time>2021-03-25T12:52:42Z</time>
      </trkpt>
      <trkpt lat="42.87749" lon="0.1396">
        <ele>2083.2</ele>
        <time>2021-03-25T12:52:43Z</time>
      </trkpt>
      <trkpt lat="42.87748" lon="0.1396">
        <ele>2083.2</ele>
        <time>2021-03-25T12:52:44Z</time>
      </trkpt>
      <trkpt lat="42.87747" lon="0.13958">
        <ele>2084.4</ele>
        <time>2021-03-25T12:52:46Z</time>
      </trkpt>
      <trkpt lat="42.87747" lon="0.13958">
        <ele>2084.4</ele>
        <time>2021-03-25T12:52:47Z</time>
      </trkpt>
      <trkpt lat="42.87747" lon="0.13957">
        <ele>2084.4</ele>
        <time>2021-03-25T12:52:48Z</time>
      </trkpt>
      <trkpt lat="42.87747" lon="0.13956">
        <ele>2084.9</ele>
        <time>2021-03-25T12:52:50Z</time>
      </trkpt>
      <trkpt lat="42.87747" lon="0.13955">
        <ele>2084.9</ele>
        <time>2021-03-25T12:52:51Z</time>
      </trkpt>
      <trkpt lat="42.87747" lon="0.13954">
        <ele>2083.7</ele>
        <time>2021-03-25T12:52:52Z</time>
      </trkpt>
      <trkpt lat="42.87748" lon="0.13953">
        <ele>2083.7</ele>
        <time>2021-03-25T12:52:53Z</time>
      </trkpt>
      <trkpt lat="42.87747" lon="0.13953">
        <ele>2084.9</ele>
        <time>2021-03-25T12:52:55Z</time>
      </trkpt>
      <trkpt lat="42.87747" lon="0.13952">
        <ele>2083.7</ele>
        <time>2021-03-25T12:52:56Z</time>
      </trkpt>
      <trkpt lat="42.87748" lon="0.13952">
        <ele>2083.7</ele>
        <time>2021-03-25T12:52:58Z</time>
      </trkpt>
      <trkpt lat="42.87747" lon="0.13952">
        <ele>2083.7</ele>
        <time>2021-03-25T12:52:59Z</time>
      </trkpt>
      <trkpt lat="42.87747" lon="0.13952">
        <ele>2084.9</ele>
        <time>2021-03-25T12:53:00Z</time>
      </trkpt>
      <trkpt lat="42.87747" lon="0.13952">
        <ele>2084.9</ele>
        <time>2021-03-25T12:53:01Z</time>
      </trkpt>
      <trkpt lat="42.87746" lon="0.13952">
        <ele>2084.9</ele>
        <time>2021-03-25T12:53:03Z</time>
      </trkpt>
      <trkpt lat="42.87745" lon="0.13953">
        <ele>2084.9</ele>
        <time>2021-03-25T12:53:04Z</time>
      </trkpt>
      <trkpt lat="42.87745" lon="0.13953">
        <ele>2084.9</ele>
        <time>2021-03-25T12:53:05Z</time>
      </trkpt>
      <trkpt lat="42.87744" lon="0.13953">
        <ele>2086</ele>
        <time>2021-03-25T12:53:06Z</time>
      </trkpt>
      <trkpt lat="42.87743" lon="0.13953">
        <ele>2086</ele>
        <time>2021-03-25T12:53:08Z</time>
      </trkpt>
      <trkpt lat="42.87742" lon="0.13954">
        <ele>2086</ele>
        <time>2021-03-25T12:53:09Z</time>
      </trkpt>
      <trkpt lat="42.87741" lon="0.13954">
        <ele>2087.1</ele>
        <time>2021-03-25T12:53:11Z</time>
      </trkpt>
      <trkpt lat="42.87741" lon="0.13954">
        <ele>2087.1</ele>
        <time>2021-03-25T12:53:12Z</time>
      </trkpt>
      <trkpt lat="42.8774" lon="0.13955">
        <ele>2087.1</ele>
        <time>2021-03-25T12:53:13Z</time>
      </trkpt>
      <trkpt lat="42.87739" lon="0.13956">
        <ele>2086.6</ele>
        <time>2021-03-25T12:53:14Z</time>
      </trkpt>
      <trkpt lat="42.87738" lon="0.13958">
        <ele>2087.6</ele>
        <time>2021-03-25T12:53:16Z</time>
      </trkpt>
      <trkpt lat="42.87737" lon="0.13959">
        <ele>2087.6</ele>
        <time>2021-03-25T12:53:18Z</time>
      </trkpt>
      <trkpt lat="42.87737" lon="0.1396">
        <ele>2087.6</ele>
        <time>2021-03-25T12:53:19Z</time>
      </trkpt>
      <trkpt lat="42.87736" lon="0.13962">
        <ele>2087.1</ele>
        <time>2021-03-25T12:53:21Z</time>
      </trkpt>
      <trkpt lat="42.87736" lon="0.13962">
        <ele>2087.1</ele>
        <time>2021-03-25T12:53:22Z</time>
      </trkpt>
      <trkpt lat="42.87736" lon="0.13963">
        <ele>2087.1</ele>
        <time>2021-03-25T12:53:24Z</time>
      </trkpt>
      <trkpt lat="42.87735" lon="0.13964">
        <ele>2087.1</ele>
        <time>2021-03-25T12:53:26Z</time>
      </trkpt>
      <trkpt lat="42.87735" lon="0.13964">
        <ele>2087.1</ele>
        <time>2021-03-25T12:53:28Z</time>
      </trkpt>
      <trkpt lat="42.87736" lon="0.13964">
        <ele>2087.1</ele>
        <time>2021-03-25T12:53:30Z</time>
      </trkpt>
      <trkpt lat="42.87736" lon="0.13964">
        <ele>2087.1</ele>
        <time>2021-03-25T12:53:31Z</time>
      </trkpt>
      <trkpt lat="42.87736" lon="0.13964">
        <ele>2087.1</ele>
        <time>2021-03-25T12:53:32Z</time>
      </trkpt>
      <trkpt lat="42.87736" lon="0.13964">
        <ele>2087.1</ele>
        <time>2021-03-25T12:53:34Z</time>
      </trkpt>
      <trkpt lat="42.87737" lon="0.13964">
        <ele>2087.1</ele>
        <time>2021-03-25T12:53:35Z</time>
      </trkpt>
      <trkpt lat="42.87736" lon="0.13964">
        <ele>2087.1</ele>
        <time>2021-03-25T12:53:37Z</time>
      </trkpt>
      <trkpt lat="42.87736" lon="0.13964">
        <ele>2087.1</ele>
        <time>2021-03-25T12:53:39Z</time>
      </trkpt>
      <trkpt lat="42.87736" lon="0.13964">
        <ele>2087.1</ele>
        <time>2021-03-25T12:53:40Z</time>
      </trkpt>
      <trkpt lat="42.87736" lon="0.13963">
        <ele>2087.1</ele>
        <time>2021-03-25T12:53:41Z</time>
      </trkpt>
      <trkpt lat="42.87736" lon="0.13962">
        <ele>2087.1</ele>
        <time>2021-03-25T12:53:43Z</time>
      </trkpt>
      <trkpt lat="42.87735" lon="0.13961">
        <ele>2087.1</ele>
        <time>2021-03-25T12:53:44Z</time>
      </trkpt>
      <trkpt lat="42.87734" lon="0.1396">
        <ele>2088.5</ele>
        <time>2021-03-25T12:53:45Z</time>
      </trkpt>
      <trkpt lat="42.87734" lon="0.13959">
        <ele>2088.5</ele>
        <time>2021-03-25T12:53:46Z</time>
      </trkpt>
      <trkpt lat="42.87733" lon="0.13956">
        <ele>2088.5</ele>
        <time>2021-03-25T12:53:48Z</time>
      </trkpt>
      <trkpt lat="42.87733" lon="0.13955">
        <ele>2089</ele>
        <time>2021-03-25T12:53:49Z</time>
      </trkpt>
      <trkpt lat="42.87733" lon="0.13953">
        <ele>2089</ele>
        <time>2021-03-25T12:53:51Z</time>
      </trkpt>
      <trkpt lat="42.87733" lon="0.13953">
        <ele>2089</ele>
        <time>2021-03-25T12:53:52Z</time>
      </trkpt>
      <trkpt lat="42.87733" lon="0.13952">
        <ele>2089</ele>
        <time>2021-03-25T12:53:53Z</time>
      </trkpt>
      <trkpt lat="42.87733" lon="0.13951">
        <ele>2089.5</ele>
        <time>2021-03-25T12:53:54Z</time>
      </trkpt>
      <trkpt lat="42.87732" lon="0.1395">
        <ele>2089.5</ele>
        <time>2021-03-25T12:53:55Z</time>
      </trkpt>
      <trkpt lat="42.87732" lon="0.13949">
        <ele>2089.5</ele>
        <time>2021-03-25T12:53:56Z</time>
      </trkpt>
      <trkpt lat="42.87732" lon="0.13949">
        <ele>2090.4</ele>
        <time>2021-03-25T12:53:57Z</time>
      </trkpt>
      <trkpt lat="42.87732" lon="0.13948">
        <ele>2089.5</ele>
        <time>2021-03-25T12:53:59Z</time>
      </trkpt>
      <trkpt lat="42.87732" lon="0.13947">
        <ele>2090.1</ele>
        <time>2021-03-25T12:54:00Z</time>
      </trkpt>
      <trkpt lat="42.87732" lon="0.13946">
        <ele>2090.1</ele>
        <time>2021-03-25T12:54:02Z</time>
      </trkpt>
      <trkpt lat="42.87732" lon="0.13945">
        <ele>2090.1</ele>
        <time>2021-03-25T12:54:04Z</time>
      </trkpt>
      <trkpt lat="42.87733" lon="0.13945">
        <ele>2090.1</ele>
        <time>2021-03-25T12:54:05Z</time>
      </trkpt>
      <trkpt lat="42.87733" lon="0.13944">
        <ele>2090.1</ele>
        <time>2021-03-25T12:54:07Z</time>
      </trkpt>
      <trkpt lat="42.87733" lon="0.13944">
        <ele>2090.1</ele>
        <time>2021-03-25T12:54:08Z</time>
      </trkpt>
      <trkpt lat="42.87733" lon="0.13943">
        <ele>2090.1</ele>
        <time>2021-03-25T12:54:10Z</time>
      </trkpt>
      <trkpt lat="42.87733" lon="0.13943">
        <ele>2090.7</ele>
        <time>2021-03-25T12:54:11Z</time>
      </trkpt>
      <trkpt lat="42.87733" lon="0.13943">
        <ele>2090.7</ele>
        <time>2021-03-25T12:54:13Z</time>
      </trkpt>
      <trkpt lat="42.87733" lon="0.13943">
        <ele>2090.7</ele>
        <time>2021-03-25T12:54:15Z</time>
      </trkpt>
      <trkpt lat="42.87733" lon="0.13943">
        <ele>2090.7</ele>
        <time>2021-03-25T12:54:16Z</time>
      </trkpt>
      <trkpt lat="42.87733" lon="0.13942">
        <ele>2090.7</ele>
        <time>2021-03-25T12:54:18Z</time>
      </trkpt>
      <trkpt lat="42.87734" lon="0.13942">
        <ele>2090.7</ele>
        <time>2021-03-25T12:54:19Z</time>
      </trkpt>
      <trkpt lat="42.87734" lon="0.13942">
        <ele>2090.7</ele>
        <time>2021-03-25T12:54:20Z</time>
      </trkpt>
      <trkpt lat="42.87734" lon="0.13942">
        <ele>2090.7</ele>
        <time>2021-03-25T12:54:21Z</time>
      </trkpt>
      <trkpt lat="42.87734" lon="0.13942">
        <ele>2090.7</ele>
        <time>2021-03-25T12:54:22Z</time>
      </trkpt>
      <trkpt lat="42.87734" lon="0.13942">
        <ele>2090.7</ele>
        <time>2021-03-25T12:54:24Z</time>
      </trkpt>
      <trkpt lat="42.87734" lon="0.13941">
        <ele>2090.7</ele>
        <time>2021-03-25T12:54:26Z</time>
      </trkpt>
      <trkpt lat="42.87734" lon="0.13941">
        <ele>2090.7</ele>
        <time>2021-03-25T12:54:27Z</time>
      </trkpt>
      <trkpt lat="42.87733" lon="0.13941">
        <ele>2090.7</ele>
        <time>2021-03-25T12:54:28Z</time>
      </trkpt>
      <trkpt lat="42.87734" lon="0.1394">
        <ele>2090.7</ele>
        <time>2021-03-25T12:54:29Z</time>
      </trkpt>
      <trkpt lat="42.87734" lon="0.1394">
        <ele>2090.7</ele>
        <time>2021-03-25T12:54:31Z</time>
      </trkpt>
      <trkpt lat="42.87734" lon="0.1394">
        <ele>2090.7</ele>
        <time>2021-03-25T12:54:32Z</time>
      </trkpt>
      <trkpt lat="42.87734" lon="0.1394">
        <ele>2090.7</ele>
        <time>2021-03-25T12:54:33Z</time>
      </trkpt>
      <trkpt lat="42.87734" lon="0.1394">
        <ele>2090.7</ele>
        <time>2021-03-25T12:54:35Z</time>
      </trkpt>
      <trkpt lat="42.87733" lon="0.13939">
        <ele>2090.7</ele>
        <time>2021-03-25T12:54:37Z</time>
      </trkpt>
      <trkpt lat="42.87733" lon="0.13939">
        <ele>2090.7</ele>
        <time>2021-03-25T12:54:38Z</time>
      </trkpt>
      <trkpt lat="42.87733" lon="0.13939">
        <ele>2090.7</ele>
        <time>2021-03-25T12:54:40Z</time>
      </trkpt>
      <trkpt lat="42.87733" lon="0.13939">
        <ele>2090.7</ele>
        <time>2021-03-25T12:54:41Z</time>
      </trkpt>
      <trkpt lat="42.87733" lon="0.13939">
        <ele>2090.7</ele>
        <time>2021-03-25T12:54:42Z</time>
      </trkpt>
      <trkpt lat="42.87733" lon="0.13939">
        <ele>2090.7</ele>
        <time>2021-03-25T12:54:44Z</time>
      </trkpt>
      <trkpt lat="42.87733" lon="0.13939">
        <ele>2090.7</ele>
        <time>2021-03-25T12:54:45Z</time>
      </trkpt>
      <trkpt lat="42.87733" lon="0.13939">
        <ele>2090.7</ele>
        <time>2021-03-25T12:54:47Z</time>
      </trkpt>
      <trkpt lat="42.87732" lon="0.13939">
        <ele>2090.7</ele>
        <time>2021-03-25T12:54:48Z</time>
      </trkpt>
      <trkpt lat="42.87732" lon="0.13939">
        <ele>2090.7</ele>
        <time>2021-03-25T12:54:49Z</time>
      </trkpt>
      <trkpt lat="42.87732" lon="0.13939">
        <ele>2090.7</ele>
        <time>2021-03-25T12:54:51Z</time>
      </trkpt>
      <trkpt lat="42.87732" lon="0.1394">
        <ele>2090.7</ele>
        <time>2021-03-25T12:54:52Z</time>
      </trkpt>
      <trkpt lat="42.87732" lon="0.1394">
        <ele>2090.7</ele>
        <time>2021-03-25T12:54:53Z</time>
      </trkpt>
      <trkpt lat="42.87732" lon="0.1394">
        <ele>2090.7</ele>
        <time>2021-03-25T12:54:54Z</time>
      </trkpt>
      <trkpt lat="42.87732" lon="0.13941">
        <ele>2090.7</ele>
        <time>2021-03-25T12:54:55Z</time>
      </trkpt>
      <trkpt lat="42.87732" lon="0.13941">
        <ele>2090.7</ele>
        <time>2021-03-25T12:54:57Z</time>
      </trkpt>
      <trkpt lat="42.87732" lon="0.13942">
        <ele>2090.7</ele>
        <time>2021-03-25T12:54:59Z</time>
      </trkpt>
      <trkpt lat="42.87732" lon="0.13943">
        <ele>2090.7</ele>
        <time>2021-03-25T12:55:01Z</time>
      </trkpt>
      <trkpt lat="42.87732" lon="0.13943">
        <ele>2090.7</ele>
        <time>2021-03-25T12:55:03Z</time>
      </trkpt>
      <trkpt lat="42.87732" lon="0.13944">
        <ele>2090.1</ele>
        <time>2021-03-25T12:55:04Z</time>
      </trkpt>
      <trkpt lat="42.87732" lon="0.13944">
        <ele>2091</ele>
        <time>2021-03-25T12:55:05Z</time>
      </trkpt>
      <trkpt lat="42.87731" lon="0.13944">
        <ele>2091</ele>
        <time>2021-03-25T12:55:06Z</time>
      </trkpt>
      <trkpt lat="42.87731" lon="0.13945">
        <ele>2091</ele>
        <time>2021-03-25T12:55:07Z</time>
      </trkpt>
      <trkpt lat="42.8773" lon="0.13945">
        <ele>2091</ele>
        <time>2021-03-25T12:55:09Z</time>
      </trkpt>
      <trkpt lat="42.8773" lon="0.13946">
        <ele>2091</ele>
        <time>2021-03-25T12:55:10Z</time>
      </trkpt>
      <trkpt lat="42.87729" lon="0.13946">
        <ele>2091</ele>
        <time>2021-03-25T12:55:12Z</time>
      </trkpt>
      <trkpt lat="42.87728" lon="0.13946">
        <ele>2092.1</ele>
        <time>2021-03-25T12:55:13Z</time>
      </trkpt>
      <trkpt lat="42.87728" lon="0.13946">
        <ele>2092.1</ele>
        <time>2021-03-25T12:55:14Z</time>
      </trkpt>
      <trkpt lat="42.87727" lon="0.13946">
        <ele>2092.1</ele>
        <time>2021-03-25T12:55:15Z</time>
      </trkpt>
      <trkpt lat="42.87725" lon="0.13946">
        <ele>2093.2</ele>
        <time>2021-03-25T12:55:17Z</time>
      </trkpt>
      <trkpt lat="42.87724" lon="0.13945">
        <ele>2093.2</ele>
        <time>2021-03-25T12:55:18Z</time>
      </trkpt>
      <trkpt lat="42.87722" lon="0.13944">
        <ele>2094.4</ele>
        <time>2021-03-25T12:55:20Z</time>
      </trkpt>
      <trkpt lat="42.8772" lon="0.13944">
        <ele>2094.4</ele>
        <time>2021-03-25T12:55:21Z</time>
      </trkpt>
      <trkpt lat="42.87718" lon="0.13942">
        <ele>2096.2</ele>
        <time>2021-03-25T12:55:23Z</time>
      </trkpt>
      <trkpt lat="42.87717" lon="0.13941">
        <ele>2096.2</ele>
        <time>2021-03-25T12:55:24Z</time>
      </trkpt>
      <trkpt lat="42.87715" lon="0.13939">
        <ele>2097.9</ele>
        <time>2021-03-25T12:55:26Z</time>
      </trkpt>
      <trkpt lat="42.87711" lon="0.13936">
        <ele>2098.8</ele>
        <time>2021-03-25T12:55:28Z</time>
      </trkpt>
      <trkpt lat="42.87708" lon="0.13933">
        <ele>2100.4</ele>
        <time>2021-03-25T12:55:29Z</time>
      </trkpt>
      <trkpt lat="42.87707" lon="0.13932">
        <ele>2100.4</ele>
        <time>2021-03-25T12:55:30Z</time>
      </trkpt>
      <trkpt lat="42.87704" lon="0.1393">
        <ele>2102.1</ele>
        <time>2021-03-25T12:55:32Z</time>
      </trkpt>
      <trkpt lat="42.87701" lon="0.13928">
        <ele>2103</ele>
        <time>2021-03-25T12:55:33Z</time>
      </trkpt>
      <trkpt lat="42.87699" lon="0.13927">
        <ele>2104</ele>
        <time>2021-03-25T12:55:35Z</time>
      </trkpt>
      <trkpt lat="42.87699" lon="0.13926">
        <ele>2104</ele>
        <time>2021-03-25T12:55:36Z</time>
      </trkpt>
      <trkpt lat="42.877" lon="0.13927">
        <ele>2104</ele>
        <time>2021-03-25T12:55:37Z</time>
      </trkpt>
      <trkpt lat="42.877" lon="0.13927">
        <ele>2104</ele>
        <time>2021-03-25T12:55:39Z</time>
      </trkpt>
      <trkpt lat="42.87701" lon="0.13928">
        <ele>2103</ele>
        <time>2021-03-25T12:55:41Z</time>
      </trkpt>
      <trkpt lat="42.87701" lon="0.13928">
        <ele>2103</ele>
        <time>2021-03-25T12:55:42Z</time>
      </trkpt>
      <trkpt lat="42.87701" lon="0.13927">
        <ele>2103</ele>
        <time>2021-03-25T12:55:44Z</time>
      </trkpt>
      <trkpt lat="42.87701" lon="0.13928">
        <ele>2103</ele>
        <time>2021-03-25T12:55:46Z</time>
      </trkpt>
      <trkpt lat="42.87701" lon="0.13928">
        <ele>2103</ele>
        <time>2021-03-25T12:55:47Z</time>
      </trkpt>
      <trkpt lat="42.87701" lon="0.13928">
        <ele>2103</ele>
        <time>2021-03-25T12:55:48Z</time>
      </trkpt>
      <trkpt lat="42.87701" lon="0.13928">
        <ele>2103</ele>
        <time>2021-03-25T12:55:50Z</time>
      </trkpt>
      <trkpt lat="42.87701" lon="0.13927">
        <ele>2103</ele>
        <time>2021-03-25T12:55:51Z</time>
      </trkpt>
      <trkpt lat="42.87701" lon="0.13927">
        <ele>2103</ele>
        <time>2021-03-25T12:55:52Z</time>
      </trkpt>
      <trkpt lat="42.87701" lon="0.13928">
        <ele>2103</ele>
        <time>2021-03-25T12:55:53Z</time>
      </trkpt>
      <trkpt lat="42.87701" lon="0.13928">
        <ele>2103</ele>
        <time>2021-03-25T12:55:55Z</time>
      </trkpt>
      <trkpt lat="42.87701" lon="0.13928">
        <ele>2103</ele>
        <time>2021-03-25T12:55:56Z</time>
      </trkpt>
      <trkpt lat="42.87701" lon="0.13928">
        <ele>2103</ele>
        <time>2021-03-25T12:55:57Z</time>
      </trkpt>
      <trkpt lat="42.877" lon="0.13928">
        <ele>2103</ele>
        <time>2021-03-25T12:55:58Z</time>
      </trkpt>
      <trkpt lat="42.87699" lon="0.13928">
        <ele>2104</ele>
        <time>2021-03-25T12:56:00Z</time>
      </trkpt>
      <trkpt lat="42.87699" lon="0.13928">
        <ele>2104</ele>
        <time>2021-03-25T12:56:01Z</time>
      </trkpt>
      <trkpt lat="42.87698" lon="0.13929">
        <ele>2104</ele>
        <time>2021-03-25T12:56:02Z</time>
      </trkpt>
      <trkpt lat="42.87698" lon="0.13929">
        <ele>2104</ele>
        <time>2021-03-25T12:56:04Z</time>
      </trkpt>
      <trkpt lat="42.87698" lon="0.13929">
        <ele>2104</ele>
        <time>2021-03-25T12:56:05Z</time>
      </trkpt>
      <trkpt lat="42.87697" lon="0.13929">
        <ele>2104</ele>
        <time>2021-03-25T12:56:06Z</time>
      </trkpt>
      <trkpt lat="42.87697" lon="0.13929">
        <ele>2104</ele>
        <time>2021-03-25T12:56:08Z</time>
      </trkpt>
      <trkpt lat="42.87697" lon="0.13929">
        <ele>2105.1</ele>
        <time>2021-03-25T12:56:09Z</time>
      </trkpt>
      <trkpt lat="42.87696" lon="0.13929">
        <ele>2105.1</ele>
        <time>2021-03-25T12:56:10Z</time>
      </trkpt>
      <trkpt lat="42.87696" lon="0.1393">
        <ele>2105.1</ele>
        <time>2021-03-25T12:56:11Z</time>
      </trkpt>
      <trkpt lat="42.87696" lon="0.1393">
        <ele>2105.1</ele>
        <time>2021-03-25T12:56:13Z</time>
      </trkpt>
      <trkpt lat="42.87695" lon="0.13929">
        <ele>2105.1</ele>
        <time>2021-03-25T12:56:14Z</time>
      </trkpt>
      <trkpt lat="42.87694" lon="0.13929">
        <ele>2105.1</ele>
        <time>2021-03-25T12:56:16Z</time>
      </trkpt>
      <trkpt lat="42.87694" lon="0.13927">
        <ele>2106.2</ele>
        <time>2021-03-25T12:56:18Z</time>
      </trkpt>
      <trkpt lat="42.87694" lon="0.13927">
        <ele>2106.2</ele>
        <time>2021-03-25T12:56:19Z</time>
      </trkpt>
      <trkpt lat="42.87694" lon="0.13927">
        <ele>2106.2</ele>
        <time>2021-03-25T12:56:21Z</time>
      </trkpt>
      <trkpt lat="42.87694" lon="0.13926">
        <ele>2105.1</ele>
        <time>2021-03-25T12:56:22Z</time>
      </trkpt>
      <trkpt lat="42.87694" lon="0.13926">
        <ele>2106</ele>
        <time>2021-03-25T12:56:23Z</time>
      </trkpt>
      <trkpt lat="42.87694" lon="0.13925">
        <ele>2107.1</ele>
        <time>2021-03-25T12:56:24Z</time>
      </trkpt>
      <trkpt lat="42.87693" lon="0.13924">
        <ele>2107.1</ele>
        <time>2021-03-25T12:56:25Z</time>
      </trkpt>
      <trkpt lat="42.87693" lon="0.13924">
        <ele>2107.1</ele>
        <time>2021-03-25T12:56:26Z</time>
      </trkpt>
      <trkpt lat="42.87693" lon="0.13923">
        <ele>2107.1</ele>
        <time>2021-03-25T12:56:28Z</time>
      </trkpt>
      <trkpt lat="42.87693" lon="0.13923">
        <ele>2107.1</ele>
        <time>2021-03-25T12:56:30Z</time>
      </trkpt>
      <trkpt lat="42.87692" lon="0.13922">
        <ele>2107.1</ele>
        <time>2021-03-25T12:56:31Z</time>
      </trkpt>
      <trkpt lat="42.87692" lon="0.13922">
        <ele>2107.1</ele>
        <time>2021-03-25T12:56:32Z</time>
      </trkpt>
      <trkpt lat="42.87692" lon="0.13922">
        <ele>2107.1</ele>
        <time>2021-03-25T12:56:33Z</time>
      </trkpt>
      <trkpt lat="42.87692" lon="0.13922">
        <ele>2108</ele>
        <time>2021-03-25T12:56:34Z</time>
      </trkpt>
      <trkpt lat="42.87692" lon="0.13922">
        <ele>2108</ele>
        <time>2021-03-25T12:56:35Z</time>
      </trkpt>
      <trkpt lat="42.87691" lon="0.13921">
        <ele>2108</ele>
        <time>2021-03-25T12:56:37Z</time>
      </trkpt>
      <trkpt lat="42.87691" lon="0.13921">
        <ele>2109.1</ele>
        <time>2021-03-25T12:56:38Z</time>
      </trkpt>
      <trkpt lat="42.8769" lon="0.13921">
        <ele>2109.1</ele>
        <time>2021-03-25T12:56:39Z</time>
      </trkpt>
      <trkpt lat="42.8769" lon="0.1392">
        <ele>2109.1</ele>
        <time>2021-03-25T12:56:40Z</time>
      </trkpt>
      <trkpt lat="42.87689" lon="0.13921">
        <ele>2109.1</ele>
        <time>2021-03-25T12:56:42Z</time>
      </trkpt>
      <trkpt lat="42.87689" lon="0.13921">
        <ele>2109.1</ele>
        <time>2021-03-25T12:56:43Z</time>
      </trkpt>
      <trkpt lat="42.87687" lon="0.13923">
        <ele>2109.2</ele>
        <time>2021-03-25T12:56:45Z</time>
      </trkpt>
      <trkpt lat="42.87687" lon="0.13923">
        <ele>2109.2</ele>
        <time>2021-03-25T12:56:46Z</time>
      </trkpt>
      <trkpt lat="42.87687" lon="0.13924">
        <ele>2109.2</ele>
        <time>2021-03-25T12:56:47Z</time>
      </trkpt>
      <trkpt lat="42.87686" lon="0.13925">
        <ele>2109.2</ele>
        <time>2021-03-25T12:56:49Z</time>
      </trkpt>
      <trkpt lat="42.87685" lon="0.13925">
        <ele>2109.2</ele>
        <time>2021-03-25T12:56:50Z</time>
      </trkpt>
      <trkpt lat="42.87685" lon="0.13926">
        <ele>2108.3</ele>
        <time>2021-03-25T12:56:51Z</time>
      </trkpt>
      <trkpt lat="42.87685" lon="0.13927">
        <ele>2108.3</ele>
        <time>2021-03-25T12:56:53Z</time>
      </trkpt>
      <trkpt lat="42.87684" lon="0.13927">
        <ele>2109.3</ele>
        <time>2021-03-25T12:56:54Z</time>
      </trkpt>
      <trkpt lat="42.87684" lon="0.13928">
        <ele>2109.3</ele>
        <time>2021-03-25T12:56:55Z</time>
      </trkpt>
      <trkpt lat="42.87684" lon="0.13928">
        <ele>2109.3</ele>
        <time>2021-03-25T12:56:56Z</time>
      </trkpt>
      <trkpt lat="42.87684" lon="0.13929">
        <ele>2109.3</ele>
        <time>2021-03-25T12:56:58Z</time>
      </trkpt>
      <trkpt lat="42.87683" lon="0.1393">
        <ele>2109.3</ele>
        <time>2021-03-25T12:56:59Z</time>
      </trkpt>
      <trkpt lat="42.87683" lon="0.13932">
        <ele>2108.5</ele>
        <time>2021-03-25T12:57:01Z</time>
      </trkpt>
      <trkpt lat="42.87683" lon="0.13932">
        <ele>2108.5</ele>
        <time>2021-03-25T12:57:02Z</time>
      </trkpt>
      <trkpt lat="42.87682" lon="0.13933">
        <ele>2108.5</ele>
        <time>2021-03-25T12:57:03Z</time>
      </trkpt>
      <trkpt lat="42.87682" lon="0.13934">
        <ele>2108.5</ele>
        <time>2021-03-25T12:57:04Z</time>
      </trkpt>
      <trkpt lat="42.87682" lon="0.13935">
        <ele>2108.5</ele>
        <time>2021-03-25T12:57:05Z</time>
      </trkpt>
      <trkpt lat="42.87681" lon="0.13935">
        <ele>2109.5</ele>
        <time>2021-03-25T12:57:06Z</time>
      </trkpt>
      <trkpt lat="42.87681" lon="0.13935">
        <ele>2108.7</ele>
        <time>2021-03-25T12:57:07Z</time>
      </trkpt>
      <trkpt lat="42.8768" lon="0.13936">
        <ele>2108.7</ele>
        <time>2021-03-25T12:57:09Z</time>
      </trkpt>
      <trkpt lat="42.8768" lon="0.13936">
        <ele>2108.7</ele>
        <time>2021-03-25T12:57:10Z</time>
      </trkpt>
      <trkpt lat="42.87679" lon="0.13937">
        <ele>2108.7</ele>
        <time>2021-03-25T12:57:11Z</time>
      </trkpt>
      <trkpt lat="42.87679" lon="0.13937">
        <ele>2108.7</ele>
        <time>2021-03-25T12:57:12Z</time>
      </trkpt>
      <trkpt lat="42.87678" lon="0.13938">
        <ele>2108.7</ele>
        <time>2021-03-25T12:57:13Z</time>
      </trkpt>
      <trkpt lat="42.87678" lon="0.13938">
        <ele>2109.8</ele>
        <time>2021-03-25T12:57:14Z</time>
      </trkpt>
      <trkpt lat="42.87677" lon="0.1394">
        <ele>2108.9</ele>
        <time>2021-03-25T12:57:15Z</time>
      </trkpt>
      <trkpt lat="42.87677" lon="0.1394">
        <ele>2108.9</ele>
        <time>2021-03-25T12:57:16Z</time>
      </trkpt>
      <trkpt lat="42.87677" lon="0.1394">
        <ele>2108.9</ele>
        <time>2021-03-25T12:57:18Z</time>
      </trkpt>
      <trkpt lat="42.87677" lon="0.1394">
        <ele>2108.9</ele>
        <time>2021-03-25T12:57:19Z</time>
      </trkpt>
      <trkpt lat="42.87676" lon="0.13941">
        <ele>2108.9</ele>
        <time>2021-03-25T12:57:20Z</time>
      </trkpt>
      <trkpt lat="42.87675" lon="0.13941">
        <ele>2108.9</ele>
        <time>2021-03-25T12:57:21Z</time>
      </trkpt>
      <trkpt lat="42.87675" lon="0.13941">
        <ele>2108.9</ele>
        <time>2021-03-25T12:57:22Z</time>
      </trkpt>
      <trkpt lat="42.87675" lon="0.13941">
        <ele>2110.1</ele>
        <time>2021-03-25T12:57:24Z</time>
      </trkpt>
      <trkpt lat="42.87675" lon="0.13941">
        <ele>2110.1</ele>
        <time>2021-03-25T12:57:25Z</time>
      </trkpt>
      <trkpt lat="42.87675" lon="0.13941">
        <ele>2110.1</ele>
        <time>2021-03-25T12:57:26Z</time>
      </trkpt>
      <trkpt lat="42.87675" lon="0.13941">
        <ele>2110.1</ele>
        <time>2021-03-25T12:57:27Z</time>
      </trkpt>
      <trkpt lat="42.87675" lon="0.13942">
        <ele>2110.1</ele>
        <time>2021-03-25T12:57:28Z</time>
      </trkpt>
      <trkpt lat="42.87674" lon="0.13942">
        <ele>2110.1</ele>
        <time>2021-03-25T12:57:29Z</time>
      </trkpt>
      <trkpt lat="42.87674" lon="0.13942">
        <ele>2110.1</ele>
        <time>2021-03-25T12:57:31Z</time>
      </trkpt>
      <trkpt lat="42.87674" lon="0.13942">
        <ele>2110.1</ele>
        <time>2021-03-25T12:57:32Z</time>
      </trkpt>
      <trkpt lat="42.87674" lon="0.13942">
        <ele>2110.1</ele>
        <time>2021-03-25T12:57:33Z</time>
      </trkpt>
      <trkpt lat="42.87674" lon="0.13943">
        <ele>2110.1</ele>
        <time>2021-03-25T12:57:34Z</time>
      </trkpt>
      <trkpt lat="42.87674" lon="0.13943">
        <ele>2110.1</ele>
        <time>2021-03-25T12:57:36Z</time>
      </trkpt>
      <trkpt lat="42.87673" lon="0.13943">
        <ele>2110.1</ele>
        <time>2021-03-25T12:57:37Z</time>
      </trkpt>
      <trkpt lat="42.87673" lon="0.13943">
        <ele>2109.4</ele>
        <time>2021-03-25T12:57:38Z</time>
      </trkpt>
      <trkpt lat="42.87673" lon="0.13943">
        <ele>2109.4</ele>
        <time>2021-03-25T12:57:39Z</time>
      </trkpt>
      <trkpt lat="42.87673" lon="0.13944">
        <ele>2109.4</ele>
        <time>2021-03-25T12:57:41Z</time>
      </trkpt>
      <trkpt lat="42.87673" lon="0.13944">
        <ele>2109.4</ele>
        <time>2021-03-25T12:57:43Z</time>
      </trkpt>
      <trkpt lat="42.87673" lon="0.13944">
        <ele>2109.4</ele>
        <time>2021-03-25T12:57:44Z</time>
      </trkpt>
      <trkpt lat="42.87673" lon="0.13944">
        <ele>2109.4</ele>
        <time>2021-03-25T12:57:45Z</time>
      </trkpt>
      <trkpt lat="42.87673" lon="0.13945">
        <ele>2109.4</ele>
        <time>2021-03-25T12:57:47Z</time>
      </trkpt>
      <trkpt lat="42.87673" lon="0.13945">
        <ele>2109.4</ele>
        <time>2021-03-25T12:57:48Z</time>
      </trkpt>
      <trkpt lat="42.87673" lon="0.13945">
        <ele>2109.4</ele>
        <time>2021-03-25T12:57:49Z</time>
      </trkpt>
      <trkpt lat="42.87673" lon="0.13945">
        <ele>2109.4</ele>
        <time>2021-03-25T12:57:50Z</time>
      </trkpt>
      <trkpt lat="42.87672" lon="0.13946">
        <ele>2109.4</ele>
        <time>2021-03-25T12:57:52Z</time>
      </trkpt>
      <trkpt lat="42.87672" lon="0.13946">
        <ele>2109.4</ele>
        <time>2021-03-25T12:57:53Z</time>
      </trkpt>
      <trkpt lat="42.87672" lon="0.13946">
        <ele>2109.4</ele>
        <time>2021-03-25T12:57:54Z</time>
      </trkpt>
      <trkpt lat="42.87672" lon="0.13946">
        <ele>2110.6</ele>
        <time>2021-03-25T12:57:55Z</time>
      </trkpt>
      <trkpt lat="42.87672" lon="0.13946">
        <ele>2110.6</ele>
        <time>2021-03-25T12:57:57Z</time>
      </trkpt>
      <trkpt lat="42.87672" lon="0.13946">
        <ele>2110.6</ele>
        <time>2021-03-25T12:57:59Z</time>
      </trkpt>
      <trkpt lat="42.87672" lon="0.13945">
        <ele>2110.6</ele>
        <time>2021-03-25T12:58:00Z</time>
      </trkpt>
      <trkpt lat="42.87672" lon="0.13944">
        <ele>2109.4</ele>
        <time>2021-03-25T12:58:02Z</time>
      </trkpt>
      <trkpt lat="42.87673" lon="0.13943">
        <ele>2110.1</ele>
        <time>2021-03-25T12:58:03Z</time>
      </trkpt>
      <trkpt lat="42.87673" lon="0.13941">
        <ele>2110.1</ele>
        <time>2021-03-25T12:58:05Z</time>
      </trkpt>
      <trkpt lat="42.87673" lon="0.1394">
        <ele>2110.1</ele>
        <time>2021-03-25T12:58:06Z</time>
      </trkpt>
      <trkpt lat="42.87673" lon="0.1394">
        <ele>2110.1</ele>
        <time>2021-03-25T12:58:07Z</time>
      </trkpt>
      <trkpt lat="42.87673" lon="0.1394">
        <ele>2110.1</ele>
        <time>2021-03-25T12:58:09Z</time>
      </trkpt>
      <trkpt lat="42.87673" lon="0.1394">
        <ele>2110.1</ele>
        <time>2021-03-25T12:58:10Z</time>
      </trkpt>
      <trkpt lat="42.87673" lon="0.13941">
        <ele>2110.1</ele>
        <time>2021-03-25T12:58:12Z</time>
      </trkpt>
      <trkpt lat="42.87673" lon="0.13941">
        <ele>2110.1</ele>
        <time>2021-03-25T12:58:13Z</time>
      </trkpt>
      <trkpt lat="42.87674" lon="0.13941">
        <ele>2110.1</ele>
        <time>2021-03-25T12:58:15Z</time>
      </trkpt>
      <trkpt lat="42.87674" lon="0.13941">
        <ele>2110.1</ele>
        <time>2021-03-25T12:58:16Z</time>
      </trkpt>
      <trkpt lat="42.87674" lon="0.13941">
        <ele>2110.1</ele>
        <time>2021-03-25T12:58:18Z</time>
      </trkpt>
      <trkpt lat="42.87674" lon="0.13941">
        <ele>2110.1</ele>
        <time>2021-03-25T12:58:19Z</time>
      </trkpt>
      <trkpt lat="42.87674" lon="0.13941">
        <ele>2110.1</ele>
        <time>2021-03-25T12:58:20Z</time>
      </trkpt>
      <trkpt lat="42.87674" lon="0.13941">
        <ele>2110.1</ele>
        <time>2021-03-25T12:58:22Z</time>
      </trkpt>
      <trkpt lat="42.87674" lon="0.13942">
        <ele>2110.1</ele>
        <time>2021-03-25T12:58:23Z</time>
      </trkpt>
      <trkpt lat="42.87674" lon="0.13942">
        <ele>2110.1</ele>
        <time>2021-03-25T12:58:25Z</time>
      </trkpt>
      <trkpt lat="42.87674" lon="0.13942">
        <ele>2110.1</ele>
        <time>2021-03-25T12:58:27Z</time>
      </trkpt>
      <trkpt lat="42.87674" lon="0.13942">
        <ele>2110.1</ele>
        <time>2021-03-25T12:58:28Z</time>
      </trkpt>
      <trkpt lat="42.87674" lon="0.13942">
        <ele>2110.1</ele>
        <time>2021-03-25T12:58:29Z</time>
      </trkpt>
      <trkpt lat="42.87674" lon="0.13942">
        <ele>2110.1</ele>
        <time>2021-03-25T12:58:31Z</time>
      </trkpt>
      <trkpt lat="42.87674" lon="0.13942">
        <ele>2110.1</ele>
        <time>2021-03-25T12:58:33Z</time>
      </trkpt>
      <trkpt lat="42.87674" lon="0.13943">
        <ele>2110.1</ele>
        <time>2021-03-25T12:58:35Z</time>
      </trkpt>
      <trkpt lat="42.87674" lon="0.13943">
        <ele>2110.1</ele>
        <time>2021-03-25T12:58:36Z</time>
      </trkpt>
      <trkpt lat="42.87671" lon="0.13946">
        <ele>2110.6</ele>
        <time>2021-03-25T12:58:38Z</time>
      </trkpt>
      <trkpt lat="42.87668" lon="0.13948">
        <ele>2111.1</ele>
        <time>2021-03-25T12:58:39Z</time>
      </trkpt>
      <trkpt lat="42.87666" lon="0.13947">
        <ele>2111.9</ele>
        <time>2021-03-25T12:58:40Z</time>
      </trkpt>
      <trkpt lat="42.87664" lon="0.13945">
        <ele>2113.2</ele>
        <time>2021-03-25T12:58:42Z</time>
      </trkpt>
      <trkpt lat="42.87664" lon="0.13944">
        <ele>2113.2</ele>
        <time>2021-03-25T12:58:43Z</time>
      </trkpt>
      <trkpt lat="42.87663" lon="0.13943">
        <ele>2114.1</ele>
        <time>2021-03-25T12:58:45Z</time>
      </trkpt>
      <trkpt lat="42.87663" lon="0.13943">
        <ele>2114.1</ele>
        <time>2021-03-25T12:58:46Z</time>
      </trkpt>
      <trkpt lat="42.87662" lon="0.13943">
        <ele>2115.4</ele>
        <time>2021-03-25T12:58:48Z</time>
      </trkpt>
      <trkpt lat="42.87662" lon="0.13943">
        <ele>2115.4</ele>
        <time>2021-03-25T12:58:49Z</time>
      </trkpt>
      <trkpt lat="42.87662" lon="0.13943">
        <ele>2115.4</ele>
        <time>2021-03-25T12:58:50Z</time>
      </trkpt>
      <trkpt lat="42.87661" lon="0.13943">
        <ele>2115.4</ele>
        <time>2021-03-25T12:58:51Z</time>
      </trkpt>
      <trkpt lat="42.87661" lon="0.13943">
        <ele>2115.4</ele>
        <time>2021-03-25T12:58:52Z</time>
      </trkpt>
      <trkpt lat="42.87661" lon="0.13943">
        <ele>2115.4</ele>
        <time>2021-03-25T12:58:53Z</time>
      </trkpt>
      <trkpt lat="42.87661" lon="0.13942">
        <ele>2115.4</ele>
        <time>2021-03-25T12:58:54Z</time>
      </trkpt>
      <trkpt lat="42.87661" lon="0.13942">
        <ele>2115.4</ele>
        <time>2021-03-25T12:58:56Z</time>
      </trkpt>
      <trkpt lat="42.87661" lon="0.13942">
        <ele>2115.4</ele>
        <time>2021-03-25T12:58:57Z</time>
      </trkpt>
      <trkpt lat="42.87661" lon="0.13942">
        <ele>2115.4</ele>
        <time>2021-03-25T12:58:58Z</time>
      </trkpt>
      <trkpt lat="42.87661" lon="0.13942">
        <ele>2115.4</ele>
        <time>2021-03-25T12:59:00Z</time>
      </trkpt>
      <trkpt lat="42.8766" lon="0.13942">
        <ele>2115.4</ele>
        <time>2021-03-25T12:59:01Z</time>
      </trkpt>
      <trkpt lat="42.8766" lon="0.13943">
        <ele>2115.4</ele>
        <time>2021-03-25T12:59:02Z</time>
      </trkpt>
      <trkpt lat="42.8766" lon="0.13943">
        <ele>2115.4</ele>
        <time>2021-03-25T12:59:03Z</time>
      </trkpt>
      <trkpt lat="42.8766" lon="0.13943">
        <ele>2114.5</ele>
        <time>2021-03-25T12:59:04Z</time>
      </trkpt>
      <trkpt lat="42.8766" lon="0.13943">
        <ele>2114.5</ele>
        <time>2021-03-25T12:59:06Z</time>
      </trkpt>
      <trkpt lat="42.8766" lon="0.13943">
        <ele>2114.5</ele>
        <time>2021-03-25T12:59:07Z</time>
      </trkpt>
      <trkpt lat="42.8766" lon="0.13943">
        <ele>2114.5</ele>
        <time>2021-03-25T12:59:09Z</time>
      </trkpt>
      <trkpt lat="42.8766" lon="0.13943">
        <ele>2114.5</ele>
        <time>2021-03-25T12:59:10Z</time>
      </trkpt>
      <trkpt lat="42.8766" lon="0.13944">
        <ele>2114.5</ele>
        <time>2021-03-25T12:59:11Z</time>
      </trkpt>
      <trkpt lat="42.87659" lon="0.13944">
        <ele>2115.9</ele>
        <time>2021-03-25T12:59:12Z</time>
      </trkpt>
      <trkpt lat="42.87659" lon="0.13944">
        <ele>2115.9</ele>
        <time>2021-03-25T12:59:13Z</time>
      </trkpt>
      <trkpt lat="42.87659" lon="0.13944">
        <ele>2115.9</ele>
        <time>2021-03-25T12:59:14Z</time>
      </trkpt>
      <trkpt lat="42.87659" lon="0.13945">
        <ele>2115.9</ele>
        <time>2021-03-25T12:59:16Z</time>
      </trkpt>
      <trkpt lat="42.87658" lon="0.13945">
        <ele>2115.9</ele>
        <time>2021-03-25T12:59:17Z</time>
      </trkpt>
      <trkpt lat="42.87658" lon="0.13945">
        <ele>2115.9</ele>
        <time>2021-03-25T12:59:18Z</time>
      </trkpt>
      <trkpt lat="42.87658" lon="0.13946">
        <ele>2115.9</ele>
        <time>2021-03-25T12:59:19Z</time>
      </trkpt>
      <trkpt lat="42.87658" lon="0.13946">
        <ele>2115.9</ele>
        <time>2021-03-25T12:59:21Z</time>
      </trkpt>
      <trkpt lat="42.87657" lon="0.13946">
        <ele>2115.9</ele>
        <time>2021-03-25T12:59:22Z</time>
      </trkpt>
      <trkpt lat="42.87657" lon="0.13947">
        <ele>2115.9</ele>
        <time>2021-03-25T12:59:23Z</time>
      </trkpt>
      <trkpt lat="42.87657" lon="0.13947">
        <ele>2115.9</ele>
        <time>2021-03-25T12:59:24Z</time>
      </trkpt>
      <trkpt lat="42.87657" lon="0.13947">
        <ele>2115.9</ele>
        <time>2021-03-25T12:59:25Z</time>
      </trkpt>
      <trkpt lat="42.87657" lon="0.13948">
        <ele>2115</ele>
        <time>2021-03-25T12:59:26Z</time>
      </trkpt>
      <trkpt lat="42.87656" lon="0.13948">
        <ele>2115</ele>
        <time>2021-03-25T12:59:27Z</time>
      </trkpt>
      <trkpt lat="42.87652" lon="0.13948">
        <ele>2117.7</ele>
        <time>2021-03-25T12:59:29Z</time>
      </trkpt>
      <trkpt lat="42.8765" lon="0.13948">
        <ele>2117.7</ele>
        <time>2021-03-25T12:59:30Z</time>
      </trkpt>
      <trkpt lat="42.87648" lon="0.13948">
        <ele>2119.1</ele>
        <time>2021-03-25T12:59:31Z</time>
      </trkpt>
      <trkpt lat="42.87643" lon="0.13951">
        <ele>2122</ele>
        <time>2021-03-25T12:59:33Z</time>
      </trkpt>
      <trkpt lat="42.87639" lon="0.13953">
        <ele>2122.7</ele>
        <time>2021-03-25T12:59:34Z</time>
      </trkpt>
      <trkpt lat="42.87636" lon="0.13954">
        <ele>2124.3</ele>
        <time>2021-03-25T12:59:36Z</time>
      </trkpt>
      <trkpt lat="42.87636" lon="0.13954">
        <ele>2124.3</ele>
        <time>2021-03-25T12:59:37Z</time>
      </trkpt>
      <trkpt lat="42.87634" lon="0.13955">
        <ele>2126</ele>
        <time>2021-03-25T12:59:38Z</time>
      </trkpt>
      <trkpt lat="42.87633" lon="0.13955">
        <ele>2126</ele>
        <time>2021-03-25T12:59:40Z</time>
      </trkpt>
      <trkpt lat="42.87632" lon="0.13955">
        <ele>2126</ele>
        <time>2021-03-25T12:59:41Z</time>
      </trkpt>
      <trkpt lat="42.87632" lon="0.13955">
        <ele>2126</ele>
        <time>2021-03-25T12:59:43Z</time>
      </trkpt>
      <trkpt lat="42.87631" lon="0.13955">
        <ele>2126</ele>
        <time>2021-03-25T12:59:44Z</time>
      </trkpt>
      <trkpt lat="42.87631" lon="0.13956">
        <ele>2126</ele>
        <time>2021-03-25T12:59:46Z</time>
      </trkpt>
      <trkpt lat="42.87632" lon="0.13956">
        <ele>2125.1</ele>
        <time>2021-03-25T12:59:47Z</time>
      </trkpt>
      <trkpt lat="42.87632" lon="0.13957">
        <ele>2125.1</ele>
        <time>2021-03-25T12:59:48Z</time>
      </trkpt>
      <trkpt lat="42.87632" lon="0.13957">
        <ele>2125.1</ele>
        <time>2021-03-25T12:59:49Z</time>
      </trkpt>
      <trkpt lat="42.87633" lon="0.13957">
        <ele>2125.1</ele>
        <time>2021-03-25T12:59:51Z</time>
      </trkpt>
      <trkpt lat="42.87634" lon="0.13958">
        <ele>2125.1</ele>
        <time>2021-03-25T12:59:52Z</time>
      </trkpt>
      <trkpt lat="42.87634" lon="0.13957">
        <ele>2125.1</ele>
        <time>2021-03-25T12:59:54Z</time>
      </trkpt>
      <trkpt lat="42.87634" lon="0.13957">
        <ele>2125.1</ele>
        <time>2021-03-25T12:59:55Z</time>
      </trkpt>
      <trkpt lat="42.87634" lon="0.13957">
        <ele>2125.1</ele>
        <time>2021-03-25T12:59:56Z</time>
      </trkpt>
      <trkpt lat="42.87634" lon="0.13958">
        <ele>2125.1</ele>
        <time>2021-03-25T12:59:57Z</time>
      </trkpt>
      <trkpt lat="42.87634" lon="0.13959">
        <ele>2123.5</ele>
        <time>2021-03-25T12:59:59Z</time>
      </trkpt>
      <trkpt lat="42.87635" lon="0.1396">
        <ele>2123.5</ele>
        <time>2021-03-25T13:00:00Z</time>
      </trkpt>
      <trkpt lat="42.87635" lon="0.1396">
        <ele>2122.6</ele>
        <time>2021-03-25T13:00:02Z</time>
      </trkpt>
      <trkpt lat="42.87635" lon="0.13961">
        <ele>2122.6</ele>
        <time>2021-03-25T13:00:03Z</time>
      </trkpt>
      <trkpt lat="42.87635" lon="0.13961">
        <ele>2122.6</ele>
        <time>2021-03-25T13:00:04Z</time>
      </trkpt>
      <trkpt lat="42.87636" lon="0.13962">
        <ele>2122.6</ele>
        <time>2021-03-25T13:00:06Z</time>
      </trkpt>
      <trkpt lat="42.87636" lon="0.13962">
        <ele>2122.6</ele>
        <time>2021-03-25T13:00:07Z</time>
      </trkpt>
      <trkpt lat="42.8764" lon="0.13963">
        <ele>2121</ele>
        <time>2021-03-25T13:00:09Z</time>
      </trkpt>
      <trkpt lat="42.87641" lon="0.13963">
        <ele>2119.5</ele>
        <time>2021-03-25T13:00:10Z</time>
      </trkpt>
      <trkpt lat="42.87642" lon="0.13964">
        <ele>2119.5</ele>
        <time>2021-03-25T13:00:11Z</time>
      </trkpt>
      <trkpt lat="42.8764" lon="0.13964">
        <ele>2121</ele>
        <time>2021-03-25T13:00:13Z</time>
      </trkpt>
      <trkpt lat="42.87637" lon="0.13964">
        <ele>2121</ele>
        <time>2021-03-25T13:00:14Z</time>
      </trkpt>
      <trkpt lat="42.87638" lon="0.13965">
        <ele>2120.2</ele>
        <time>2021-03-25T13:00:16Z</time>
      </trkpt>
      <trkpt lat="42.87638" lon="0.13965">
        <ele>2120.2</ele>
        <time>2021-03-25T13:00:17Z</time>
      </trkpt>
      <trkpt lat="42.87639" lon="0.13966">
        <ele>2120.2</ele>
        <time>2021-03-25T13:00:19Z</time>
      </trkpt>
      <trkpt lat="42.87639" lon="0.13966">
        <ele>2120.2</ele>
        <time>2021-03-25T13:00:20Z</time>
      </trkpt>
      <trkpt lat="42.87639" lon="0.13966">
        <ele>2120.2</ele>
        <time>2021-03-25T13:00:21Z</time>
      </trkpt>
      <trkpt lat="42.8764" lon="0.13967">
        <ele>2120.2</ele>
        <time>2021-03-25T13:00:22Z</time>
      </trkpt>
      <trkpt lat="42.87641" lon="0.13967">
        <ele>2118.7</ele>
        <time>2021-03-25T13:00:23Z</time>
      </trkpt>
      <trkpt lat="42.87641" lon="0.13967">
        <ele>2118.7</ele>
        <time>2021-03-25T13:00:25Z</time>
      </trkpt>
      <trkpt lat="42.87642" lon="0.13968">
        <ele>2118.7</ele>
        <time>2021-03-25T13:00:27Z</time>
      </trkpt>
      <trkpt lat="42.87643" lon="0.13968">
        <ele>2118.7</ele>
        <time>2021-03-25T13:00:28Z</time>
      </trkpt>
      <trkpt lat="42.87644" lon="0.13968">
        <ele>2118.7</ele>
        <time>2021-03-25T13:00:30Z</time>
      </trkpt>
      <trkpt lat="42.87644" lon="0.13969">
        <ele>2117.3</ele>
        <time>2021-03-25T13:00:32Z</time>
      </trkpt>
      <trkpt lat="42.87644" lon="0.13969">
        <ele>2117.3</ele>
        <time>2021-03-25T13:00:33Z</time>
      </trkpt>
      <trkpt lat="42.87645" lon="0.13969">
        <ele>2116.5</ele>
        <time>2021-03-25T13:00:34Z</time>
      </trkpt>
      <trkpt lat="42.87645" lon="0.13969">
        <ele>2116.5</ele>
        <time>2021-03-25T13:00:35Z</time>
      </trkpt>
      <trkpt lat="42.87646" lon="0.1397">
        <ele>2116.5</ele>
        <time>2021-03-25T13:00:37Z</time>
      </trkpt>
      <trkpt lat="42.87646" lon="0.1397">
        <ele>2116.5</ele>
        <time>2021-03-25T13:00:38Z</time>
      </trkpt>
      <trkpt lat="42.87647" lon="0.1397">
        <ele>2115.1</ele>
        <time>2021-03-25T13:00:40Z</time>
      </trkpt>
      <trkpt lat="42.87647" lon="0.13969">
        <ele>2115.1</ele>
        <time>2021-03-25T13:00:41Z</time>
      </trkpt>
      <trkpt lat="42.87648" lon="0.13969">
        <ele>2115.1</ele>
        <time>2021-03-25T13:00:42Z</time>
      </trkpt>
      <trkpt lat="42.87648" lon="0.13969">
        <ele>2115.9</ele>
        <time>2021-03-25T13:00:44Z</time>
      </trkpt>
      <trkpt lat="42.87648" lon="0.13969">
        <ele>2115.9</ele>
        <time>2021-03-25T13:00:46Z</time>
      </trkpt>
      <trkpt lat="42.87648" lon="0.13969">
        <ele>2115.9</ele>
        <time>2021-03-25T13:00:48Z</time>
      </trkpt>
      <trkpt lat="42.87648" lon="0.13969">
        <ele>2115.1</ele>
        <time>2021-03-25T13:00:50Z</time>
      </trkpt>
      <trkpt lat="42.87648" lon="0.13969">
        <ele>2115.9</ele>
        <time>2021-03-25T13:00:51Z</time>
      </trkpt>
      <trkpt lat="42.87649" lon="0.13969">
        <ele>2115.9</ele>
        <time>2021-03-25T13:00:52Z</time>
      </trkpt>
      <trkpt lat="42.87649" lon="0.13969">
        <ele>2115.9</ele>
        <time>2021-03-25T13:00:54Z</time>
      </trkpt>
      <trkpt lat="42.87649" lon="0.13969">
        <ele>2115.1</ele>
        <time>2021-03-25T13:00:56Z</time>
      </trkpt>
      <trkpt lat="42.87649" lon="0.13969">
        <ele>2115.1</ele>
        <time>2021-03-25T13:00:57Z</time>
      </trkpt>
      <trkpt lat="42.87649" lon="0.13969">
        <ele>2115.9</ele>
        <time>2021-03-25T13:00:58Z</time>
      </trkpt>
      <trkpt lat="42.87649" lon="0.13969">
        <ele>2115.9</ele>
        <time>2021-03-25T13:00:59Z</time>
      </trkpt>
      <trkpt lat="42.87649" lon="0.13969">
        <ele>2115.9</ele>
        <time>2021-03-25T13:01:00Z</time>
      </trkpt>
      <trkpt lat="42.8765" lon="0.13969">
        <ele>2115.9</ele>
        <time>2021-03-25T13:01:01Z</time>
      </trkpt>
      <trkpt lat="42.8765" lon="0.13969">
        <ele>2115.9</ele>
        <time>2021-03-25T13:01:03Z</time>
      </trkpt>
      <trkpt lat="42.87649" lon="0.13968">
        <ele>2115.9</ele>
        <time>2021-03-25T13:01:05Z</time>
      </trkpt>
      <trkpt lat="42.87648" lon="0.13968">
        <ele>2115.9</ele>
        <time>2021-03-25T13:01:06Z</time>
      </trkpt>
      <trkpt lat="42.87648" lon="0.13967">
        <ele>2115.9</ele>
        <time>2021-03-25T13:01:07Z</time>
      </trkpt>
      <trkpt lat="42.87647" lon="0.13966">
        <ele>2117.3</ele>
        <time>2021-03-25T13:01:09Z</time>
      </trkpt>
      <trkpt lat="42.87646" lon="0.13966">
        <ele>2117.3</ele>
        <time>2021-03-25T13:01:10Z</time>
      </trkpt>
      <trkpt lat="42.87649" lon="0.13968">
        <ele>2115.9</ele>
        <time>2021-03-25T13:01:12Z</time>
      </trkpt>
      <trkpt lat="42.87649" lon="0.13969">
        <ele>2115.9</ele>
        <time>2021-03-25T13:01:13Z</time>
      </trkpt>
      <trkpt lat="42.87648" lon="0.1397">
        <ele>2115.1</ele>
        <time>2021-03-25T13:01:14Z</time>
      </trkpt>
      <trkpt lat="42.87647" lon="0.13971">
        <ele>2115.1</ele>
        <time>2021-03-25T13:01:16Z</time>
      </trkpt>
      <trkpt lat="42.87646" lon="0.13972">
        <ele>2116.5</ele>
        <time>2021-03-25T13:01:17Z</time>
      </trkpt>
      <trkpt lat="42.87645" lon="0.13973">
        <ele>2116.5</ele>
        <time>2021-03-25T13:01:19Z</time>
      </trkpt>
      <trkpt lat="42.87643" lon="0.13974">
        <ele>2117</ele>
        <time>2021-03-25T13:01:20Z</time>
      </trkpt>
      <trkpt lat="42.87642" lon="0.13975">
        <ele>2117</ele>
        <time>2021-03-25T13:01:22Z</time>
      </trkpt>
      <trkpt lat="42.87641" lon="0.13976">
        <ele>2117</ele>
        <time>2021-03-25T13:01:23Z</time>
      </trkpt>
      <trkpt lat="42.87639" lon="0.13977">
        <ele>2118.5</ele>
        <time>2021-03-25T13:01:25Z</time>
      </trkpt>
      <trkpt lat="42.87638" lon="0.13978">
        <ele>2117.7</ele>
        <time>2021-03-25T13:01:26Z</time>
      </trkpt>
      <trkpt lat="42.87637" lon="0.13979">
        <ele>2119.2</ele>
        <time>2021-03-25T13:01:28Z</time>
      </trkpt>
      <trkpt lat="42.87635" lon="0.1398">
        <ele>2119.2</ele>
        <time>2021-03-25T13:01:29Z</time>
      </trkpt>
      <trkpt lat="42.87634" lon="0.13981">
        <ele>2120.8</ele>
        <time>2021-03-25T13:01:30Z</time>
      </trkpt>
      <trkpt lat="42.87631" lon="0.13983">
        <ele>2119.9</ele>
        <time>2021-03-25T13:01:32Z</time>
      </trkpt>
      <trkpt lat="42.8763" lon="0.13985">
        <ele>2121.5</ele>
        <time>2021-03-25T13:01:33Z</time>
      </trkpt>
      <trkpt lat="42.87629" lon="0.13985">
        <ele>2121.5</ele>
        <time>2021-03-25T13:01:34Z</time>
      </trkpt>
      <trkpt lat="42.87628" lon="0.13985">
        <ele>2123</ele>
        <time>2021-03-25T13:01:36Z</time>
      </trkpt>
      <trkpt lat="42.87626" lon="0.13986">
        <ele>2123</ele>
        <time>2021-03-25T13:01:37Z</time>
      </trkpt>
      <trkpt lat="42.87625" lon="0.13987">
        <ele>2122.2</ele>
        <time>2021-03-25T13:01:39Z</time>
      </trkpt>
      <trkpt lat="42.87625" lon="0.13987">
        <ele>2122.2</ele>
        <time>2021-03-25T13:01:41Z</time>
      </trkpt>
      <trkpt lat="42.87625" lon="0.13987">
        <ele>2122.2</ele>
        <time>2021-03-25T13:01:42Z</time>
      </trkpt>
      <trkpt lat="42.87624" lon="0.13988">
        <ele>2123.6</ele>
        <time>2021-03-25T13:01:44Z</time>
      </trkpt>
      <trkpt lat="42.87624" lon="0.13988">
        <ele>2123.6</ele>
        <time>2021-03-25T13:01:46Z</time>
      </trkpt>
      <trkpt lat="42.87622" lon="0.13991">
        <ele>2122.8</ele>
        <time>2021-03-25T13:01:48Z</time>
      </trkpt>
      <trkpt lat="42.87621" lon="0.13993">
        <ele>2124.2</ele>
        <time>2021-03-25T13:01:50Z</time>
      </trkpt>
      <trkpt lat="42.87621" lon="0.13994">
        <ele>2124.2</ele>
        <time>2021-03-25T13:01:51Z</time>
      </trkpt>
      <trkpt lat="42.8762" lon="0.13995">
        <ele>2123.5</ele>
        <time>2021-03-25T13:01:53Z</time>
      </trkpt>
      <trkpt lat="42.8762" lon="0.13996">
        <ele>2123.5</ele>
        <time>2021-03-25T13:01:54Z</time>
      </trkpt>
      <trkpt lat="42.87619" lon="0.13997">
        <ele>2123.5</ele>
        <time>2021-03-25T13:01:56Z</time>
      </trkpt>
      <trkpt lat="42.87619" lon="0.13998">
        <ele>2123.5</ele>
        <time>2021-03-25T13:01:57Z</time>
      </trkpt>
      <trkpt lat="42.87619" lon="0.13999">
        <ele>2123.5</ele>
        <time>2021-03-25T13:01:59Z</time>
      </trkpt>
      <trkpt lat="42.87618" lon="0.13999">
        <ele>2124.1</ele>
        <time>2021-03-25T13:02:01Z</time>
      </trkpt>
      <trkpt lat="42.87617" lon="0.14001">
        <ele>2124.1</ele>
        <time>2021-03-25T13:02:03Z</time>
      </trkpt>
      <trkpt lat="42.87617" lon="0.14002">
        <ele>2124.1</ele>
        <time>2021-03-25T13:02:04Z</time>
      </trkpt>
      <trkpt lat="42.87617" lon="0.14003">
        <ele>2124.1</ele>
        <time>2021-03-25T13:02:06Z</time>
      </trkpt>
      <trkpt lat="42.87617" lon="0.14004">
        <ele>2123.4</ele>
        <time>2021-03-25T13:02:07Z</time>
      </trkpt>
      <trkpt lat="42.87616" lon="0.14006">
        <ele>2123.4</ele>
        <time>2021-03-25T13:02:09Z</time>
      </trkpt>
      <trkpt lat="42.87616" lon="0.14006">
        <ele>2123.4</ele>
        <time>2021-03-25T13:02:10Z</time>
      </trkpt>
      <trkpt lat="42.87615" lon="0.14008">
        <ele>2122.6</ele>
        <time>2021-03-25T13:02:12Z</time>
      </trkpt>
      <trkpt lat="42.87615" lon="0.14009">
        <ele>2124.2</ele>
        <time>2021-03-25T13:02:13Z</time>
      </trkpt>
      <trkpt lat="42.87615" lon="0.1401">
        <ele>2124.2</ele>
        <time>2021-03-25T13:02:14Z</time>
      </trkpt>
      <trkpt lat="42.87615" lon="0.14011">
        <ele>2124.2</ele>
        <time>2021-03-25T13:02:15Z</time>
      </trkpt>
      <trkpt lat="42.87615" lon="0.14012">
        <ele>2124.2</ele>
        <time>2021-03-25T13:02:16Z</time>
      </trkpt>
      <trkpt lat="42.87615" lon="0.14013">
        <ele>2123.4</ele>
        <time>2021-03-25T13:02:18Z</time>
      </trkpt>
      <trkpt lat="42.87615" lon="0.14013">
        <ele>2121.8</ele>
        <time>2021-03-25T13:02:19Z</time>
      </trkpt>
      <trkpt lat="42.87615" lon="0.14015">
        <ele>2123.4</ele>
        <time>2021-03-25T13:02:21Z</time>
      </trkpt>
      <trkpt lat="42.87615" lon="0.14019">
        <ele>2122.6</ele>
        <time>2021-03-25T13:02:23Z</time>
      </trkpt>
      <trkpt lat="42.87615" lon="0.14019">
        <ele>2122.6</ele>
        <time>2021-03-25T13:02:24Z</time>
      </trkpt>
      <trkpt lat="42.87614" lon="0.1402">
        <ele>2122.6</ele>
        <time>2021-03-25T13:02:26Z</time>
      </trkpt>
      <trkpt lat="42.87614" lon="0.14021">
        <ele>2121.8</ele>
        <time>2021-03-25T13:02:27Z</time>
      </trkpt>
      <trkpt lat="42.87614" lon="0.14023">
        <ele>2121.8</ele>
        <time>2021-03-25T13:02:29Z</time>
      </trkpt>
      <trkpt lat="42.87613" lon="0.14025">
        <ele>2121.8</ele>
        <time>2021-03-25T13:02:30Z</time>
      </trkpt>
      <trkpt lat="42.87611" lon="0.14029">
        <ele>2122</ele>
        <time>2021-03-25T13:02:32Z</time>
      </trkpt>
      <trkpt lat="42.87611" lon="0.14031">
        <ele>2122</ele>
        <time>2021-03-25T13:02:33Z</time>
      </trkpt>
      <trkpt lat="42.8761" lon="0.14031">
        <ele>2122</ele>
        <time>2021-03-25T13:02:34Z</time>
      </trkpt>
      <trkpt lat="42.87608" lon="0.14033">
        <ele>2123.7</ele>
        <time>2021-03-25T13:02:36Z</time>
      </trkpt>
      <trkpt lat="42.87607" lon="0.14033">
        <ele>2123</ele>
        <time>2021-03-25T13:02:37Z</time>
      </trkpt>
      <trkpt lat="42.87606" lon="0.14034">
        <ele>2124.7</ele>
        <time>2021-03-25T13:02:38Z</time>
      </trkpt>
      <trkpt lat="42.87605" lon="0.14034">
        <ele>2124.7</ele>
        <time>2021-03-25T13:02:40Z</time>
      </trkpt>
      <trkpt lat="42.87605" lon="0.14034">
        <ele>2124.7</ele>
        <time>2021-03-25T13:02:41Z</time>
      </trkpt>
      <trkpt lat="42.87604" lon="0.14034">
        <ele>2124.7</ele>
        <time>2021-03-25T13:02:42Z</time>
      </trkpt>
      <trkpt lat="42.87603" lon="0.14034">
        <ele>2124.7</ele>
        <time>2021-03-25T13:02:43Z</time>
      </trkpt>
      <trkpt lat="42.87602" lon="0.14034">
        <ele>2126.4</ele>
        <time>2021-03-25T13:02:45Z</time>
      </trkpt>
      <trkpt lat="42.87602" lon="0.14034">
        <ele>2126.4</ele>
        <time>2021-03-25T13:02:46Z</time>
      </trkpt>
      <trkpt lat="42.87601" lon="0.14034">
        <ele>2126.4</ele>
        <time>2021-03-25T13:02:47Z</time>
      </trkpt>
      <trkpt lat="42.876" lon="0.14035">
        <ele>2126.4</ele>
        <time>2021-03-25T13:02:49Z</time>
      </trkpt>
      <trkpt lat="42.876" lon="0.14036">
        <ele>2126.4</ele>
        <time>2021-03-25T13:02:50Z</time>
      </trkpt>
      <trkpt lat="42.87599" lon="0.14036">
        <ele>2127.9</ele>
        <time>2021-03-25T13:02:52Z</time>
      </trkpt>
      <trkpt lat="42.87599" lon="0.14037">
        <ele>2127.9</ele>
        <time>2021-03-25T13:02:53Z</time>
      </trkpt>
      <trkpt lat="42.87599" lon="0.14038">
        <ele>2127.2</ele>
        <time>2021-03-25T13:02:54Z</time>
      </trkpt>
      <trkpt lat="42.87598" lon="0.14039">
        <ele>2127.2</ele>
        <time>2021-03-25T13:02:56Z</time>
      </trkpt>
      <trkpt lat="42.87598" lon="0.1404">
        <ele>2127.2</ele>
        <time>2021-03-25T13:02:57Z</time>
      </trkpt>
      <trkpt lat="42.87597" lon="0.1404">
        <ele>2127.2</ele>
        <time>2021-03-25T13:02:58Z</time>
      </trkpt>
      <trkpt lat="42.87596" lon="0.14042">
        <ele>2129.5</ele>
        <time>2021-03-25T13:03:00Z</time>
      </trkpt>
      <trkpt lat="42.87596" lon="0.14042">
        <ele>2128.8</ele>
        <time>2021-03-25T13:03:02Z</time>
      </trkpt>
      <trkpt lat="42.87596" lon="0.14043">
        <ele>2128.8</ele>
        <time>2021-03-25T13:03:03Z</time>
      </trkpt>
      <trkpt lat="42.87596" lon="0.14043">
        <ele>2128.8</ele>
        <time>2021-03-25T13:03:04Z</time>
      </trkpt>
      <trkpt lat="42.87595" lon="0.14044">
        <ele>2128.8</ele>
        <time>2021-03-25T13:03:05Z</time>
      </trkpt>
      <trkpt lat="42.87595" lon="0.14046">
        <ele>2128.8</ele>
        <time>2021-03-25T13:03:07Z</time>
      </trkpt>
      <trkpt lat="42.87594" lon="0.14047">
        <ele>2128.2</ele>
        <time>2021-03-25T13:03:08Z</time>
      </trkpt>
      <trkpt lat="42.87594" lon="0.14048">
        <ele>2128.2</ele>
        <time>2021-03-25T13:03:09Z</time>
      </trkpt>
      <trkpt lat="42.87594" lon="0.14048">
        <ele>2128.2</ele>
        <time>2021-03-25T13:03:11Z</time>
      </trkpt>
      <trkpt lat="42.87593" lon="0.14049">
        <ele>2128.2</ele>
        <time>2021-03-25T13:03:12Z</time>
      </trkpt>
      <trkpt lat="42.87593" lon="0.1405">
        <ele>2129.7</ele>
        <time>2021-03-25T13:03:13Z</time>
      </trkpt>
      <trkpt lat="42.87593" lon="0.14051">
        <ele>2129</ele>
        <time>2021-03-25T13:03:15Z</time>
      </trkpt>
      <trkpt lat="42.87593" lon="0.14052">
        <ele>2129</ele>
        <time>2021-03-25T13:03:16Z</time>
      </trkpt>
      <trkpt lat="42.87592" lon="0.14053">
        <ele>2129</ele>
        <time>2021-03-25T13:03:18Z</time>
      </trkpt>
      <trkpt lat="42.87592" lon="0.14054">
        <ele>2129</ele>
        <time>2021-03-25T13:03:20Z</time>
      </trkpt>
      <trkpt lat="42.87592" lon="0.14055">
        <ele>2128.3</ele>
        <time>2021-03-25T13:03:21Z</time>
      </trkpt>
      <trkpt lat="42.87592" lon="0.14055">
        <ele>2128.3</ele>
        <time>2021-03-25T13:03:22Z</time>
      </trkpt>
      <trkpt lat="42.87592" lon="0.14056">
        <ele>2128.3</ele>
        <time>2021-03-25T13:03:23Z</time>
      </trkpt>
      <trkpt lat="42.87592" lon="0.14057">
        <ele>2128.3</ele>
        <time>2021-03-25T13:03:24Z</time>
      </trkpt>
      <trkpt lat="42.87592" lon="0.14058">
        <ele>2128.3</ele>
        <time>2021-03-25T13:03:25Z</time>
      </trkpt>
      <trkpt lat="42.87592" lon="0.14058">
        <ele>2128.3</ele>
        <time>2021-03-25T13:03:26Z</time>
      </trkpt>
      <trkpt lat="42.87592" lon="0.14059">
        <ele>2128.3</ele>
        <time>2021-03-25T13:03:28Z</time>
      </trkpt>
      <trkpt lat="42.87591" lon="0.1406">
        <ele>2127.6</ele>
        <time>2021-03-25T13:03:30Z</time>
      </trkpt>
      <trkpt lat="42.87591" lon="0.14061">
        <ele>2127.6</ele>
        <time>2021-03-25T13:03:31Z</time>
      </trkpt>
      <trkpt lat="42.87591" lon="0.14062">
        <ele>2127.6</ele>
        <time>2021-03-25T13:03:32Z</time>
      </trkpt>
      <trkpt lat="42.87591" lon="0.14062">
        <ele>2127.6</ele>
        <time>2021-03-25T13:03:34Z</time>
      </trkpt>
      <trkpt lat="42.8759" lon="0.14063">
        <ele>2129.2</ele>
        <time>2021-03-25T13:03:35Z</time>
      </trkpt>
      <trkpt lat="42.87589" lon="0.14065">
        <ele>2128.4</ele>
        <time>2021-03-25T13:03:36Z</time>
      </trkpt>
      <trkpt lat="42.87588" lon="0.14066">
        <ele>2128.4</ele>
        <time>2021-03-25T13:03:38Z</time>
      </trkpt>
      <trkpt lat="42.87587" lon="0.14068">
        <ele>2128.4</ele>
        <time>2021-03-25T13:03:39Z</time>
      </trkpt>
      <trkpt lat="42.87587" lon="0.14068">
        <ele>2129.4</ele>
        <time>2021-03-25T13:03:40Z</time>
      </trkpt>
      <trkpt lat="42.87586" lon="0.14069">
        <ele>2129.4</ele>
        <time>2021-03-25T13:03:41Z</time>
      </trkpt>
      <trkpt lat="42.87586" lon="0.14069">
        <ele>2129.4</ele>
        <time>2021-03-25T13:03:42Z</time>
      </trkpt>
      <trkpt lat="42.87585" lon="0.1407">
        <ele>2129.4</ele>
        <time>2021-03-25T13:03:44Z</time>
      </trkpt>
      <trkpt lat="42.87584" lon="0.14071">
        <ele>2129.4</ele>
        <time>2021-03-25T13:03:45Z</time>
      </trkpt>
      <trkpt lat="42.87584" lon="0.14072">
        <ele>2131.1</ele>
        <time>2021-03-25T13:03:46Z</time>
      </trkpt>
      <trkpt lat="42.87583" lon="0.14073">
        <ele>2130.4</ele>
        <time>2021-03-25T13:03:47Z</time>
      </trkpt>
      <trkpt lat="42.87582" lon="0.14074">
        <ele>2130.4</ele>
        <time>2021-03-25T13:03:49Z</time>
      </trkpt>
      <trkpt lat="42.87582" lon="0.14075">
        <ele>2130.4</ele>
        <time>2021-03-25T13:03:50Z</time>
      </trkpt>
      <trkpt lat="42.87581" lon="0.14077">
        <ele>2129.8</ele>
        <time>2021-03-25T13:03:51Z</time>
      </trkpt>
      <trkpt lat="42.87581" lon="0.14077">
        <ele>2129.8</ele>
        <time>2021-03-25T13:03:52Z</time>
      </trkpt>
      <trkpt lat="42.87581" lon="0.14078">
        <ele>2131.5</ele>
        <time>2021-03-25T13:03:53Z</time>
      </trkpt>
      <trkpt lat="42.8758" lon="0.14079">
        <ele>2131.5</ele>
        <time>2021-03-25T13:03:54Z</time>
      </trkpt>
      <trkpt lat="42.87581" lon="0.14079">
        <ele>2131.5</ele>
        <time>2021-03-25T13:03:56Z</time>
      </trkpt>
      <trkpt lat="42.87581" lon="0.14079">
        <ele>2131.5</ele>
        <time>2021-03-25T13:03:58Z</time>
      </trkpt>
      <trkpt lat="42.8758" lon="0.14079">
        <ele>2131.5</ele>
        <time>2021-03-25T13:03:59Z</time>
      </trkpt>
      <trkpt lat="42.8758" lon="0.14079">
        <ele>2131.5</ele>
        <time>2021-03-25T13:04:01Z</time>
      </trkpt>
      <trkpt lat="42.8758" lon="0.14079">
        <ele>2131.5</ele>
        <time>2021-03-25T13:04:03Z</time>
      </trkpt>
      <trkpt lat="42.8758" lon="0.14079">
        <ele>2131.5</ele>
        <time>2021-03-25T13:04:05Z</time>
      </trkpt>
      <trkpt lat="42.8758" lon="0.1408">
        <ele>2131.5</ele>
        <time>2021-03-25T13:04:07Z</time>
      </trkpt>
      <trkpt lat="42.8758" lon="0.1408">
        <ele>2131.5</ele>
        <time>2021-03-25T13:04:09Z</time>
      </trkpt>
      <trkpt lat="42.8758" lon="0.1408">
        <ele>2131.5</ele>
        <time>2021-03-25T13:04:10Z</time>
      </trkpt>
      <trkpt lat="42.8758" lon="0.1408">
        <ele>2131.5</ele>
        <time>2021-03-25T13:04:12Z</time>
      </trkpt>
      <trkpt lat="42.8758" lon="0.14081">
        <ele>2130.8</ele>
        <time>2021-03-25T13:04:13Z</time>
      </trkpt>
      <trkpt lat="42.87579" lon="0.14081">
        <ele>2130.8</ele>
        <time>2021-03-25T13:04:15Z</time>
      </trkpt>
      <trkpt lat="42.87579" lon="0.14082">
        <ele>2130.8</ele>
        <time>2021-03-25T13:04:16Z</time>
      </trkpt>
      <trkpt lat="42.87579" lon="0.14082">
        <ele>2130.8</ele>
        <time>2021-03-25T13:04:18Z</time>
      </trkpt>
      <trkpt lat="42.87579" lon="0.14082">
        <ele>2130.8</ele>
        <time>2021-03-25T13:04:19Z</time>
      </trkpt>
      <trkpt lat="42.87579" lon="0.14083">
        <ele>2130.8</ele>
        <time>2021-03-25T13:04:21Z</time>
      </trkpt>
      <trkpt lat="42.87579" lon="0.14083">
        <ele>2130.8</ele>
        <time>2021-03-25T13:04:22Z</time>
      </trkpt>
      <trkpt lat="42.87579" lon="0.14084">
        <ele>2130.8</ele>
        <time>2021-03-25T13:04:24Z</time>
      </trkpt>
      <trkpt lat="42.87579" lon="0.14084">
        <ele>2130.8</ele>
        <time>2021-03-25T13:04:25Z</time>
      </trkpt>
      <trkpt lat="42.87579" lon="0.14084">
        <ele>2130.8</ele>
        <time>2021-03-25T13:04:27Z</time>
      </trkpt>
      <trkpt lat="42.87579" lon="0.14084">
        <ele>2130.8</ele>
        <time>2021-03-25T13:04:29Z</time>
      </trkpt>
      <trkpt lat="42.87578" lon="0.14085">
        <ele>2130.8</ele>
        <time>2021-03-25T13:04:30Z</time>
      </trkpt>
      <trkpt lat="42.87578" lon="0.14085">
        <ele>2130.8</ele>
        <time>2021-03-25T13:04:31Z</time>
      </trkpt>
      <trkpt lat="42.87578" lon="0.14085">
        <ele>2130.8</ele>
        <time>2021-03-25T13:04:32Z</time>
      </trkpt>
      <trkpt lat="42.87578" lon="0.14085">
        <ele>2130.3</ele>
        <time>2021-03-25T13:04:33Z</time>
      </trkpt>
      <trkpt lat="42.87578" lon="0.14086">
        <ele>2130.3</ele>
        <time>2021-03-25T13:04:35Z</time>
      </trkpt>
      <trkpt lat="42.87578" lon="0.14086">
        <ele>2130.3</ele>
        <time>2021-03-25T13:04:36Z</time>
      </trkpt>
      <trkpt lat="42.87578" lon="0.14086">
        <ele>2130.3</ele>
        <time>2021-03-25T13:04:37Z</time>
      </trkpt>
      <trkpt lat="42.87578" lon="0.14087">
        <ele>2130.3</ele>
        <time>2021-03-25T13:04:38Z</time>
      </trkpt>
      <trkpt lat="42.87578" lon="0.14088">
        <ele>2131.9</ele>
        <time>2021-03-25T13:04:39Z</time>
      </trkpt>
      <trkpt lat="42.87577" lon="0.1409">
        <ele>2131.3</ele>
        <time>2021-03-25T13:04:41Z</time>
      </trkpt>
      <trkpt lat="42.87577" lon="0.14091">
        <ele>2131.3</ele>
        <time>2021-03-25T13:04:42Z</time>
      </trkpt>
      <trkpt lat="42.87577" lon="0.14091">
        <ele>2131.3</ele>
        <time>2021-03-25T13:04:44Z</time>
      </trkpt>
      <trkpt lat="42.87577" lon="0.14091">
        <ele>2131.3</ele>
        <time>2021-03-25T13:04:45Z</time>
      </trkpt>
      <trkpt lat="42.87576" lon="0.14092">
        <ele>2131.3</ele>
        <time>2021-03-25T13:04:46Z</time>
      </trkpt>
      <trkpt lat="42.87576" lon="0.14092">
        <ele>2131.3</ele>
        <time>2021-03-25T13:04:47Z</time>
      </trkpt>
      <trkpt lat="42.87576" lon="0.14093">
        <ele>2131.3</ele>
        <time>2021-03-25T13:04:48Z</time>
      </trkpt>
      <trkpt lat="42.87576" lon="0.14094">
        <ele>2130.8</ele>
        <time>2021-03-25T13:04:49Z</time>
      </trkpt>
      <trkpt lat="42.87575" lon="0.14096">
        <ele>2130.8</ele>
        <time>2021-03-25T13:04:51Z</time>
      </trkpt>
      <trkpt lat="42.87575" lon="0.14096">
        <ele>2130.8</ele>
        <time>2021-03-25T13:04:52Z</time>
      </trkpt>
      <trkpt lat="42.87575" lon="0.14097">
        <ele>2130.8</ele>
        <time>2021-03-25T13:04:53Z</time>
      </trkpt>
      <trkpt lat="42.87575" lon="0.14098">
        <ele>2130.8</ele>
        <time>2021-03-25T13:04:55Z</time>
      </trkpt>
      <trkpt lat="42.87575" lon="0.14098">
        <ele>2130.3</ele>
        <time>2021-03-25T13:04:56Z</time>
      </trkpt>
      <trkpt lat="42.87575" lon="0.14099">
        <ele>2130.3</ele>
        <time>2021-03-25T13:04:57Z</time>
      </trkpt>
      <trkpt lat="42.87574" lon="0.141">
        <ele>2131.9</ele>
        <time>2021-03-25T13:04:59Z</time>
      </trkpt>
      <trkpt lat="42.87574" lon="0.14103">
        <ele>2131.4</ele>
        <time>2021-03-25T13:05:01Z</time>
      </trkpt>
      <trkpt lat="42.87574" lon="0.14104">
        <ele>2131.4</ele>
        <time>2021-03-25T13:05:02Z</time>
      </trkpt>
      <trkpt lat="42.87574" lon="0.14105">
        <ele>2131.4</ele>
        <time>2021-03-25T13:05:04Z</time>
      </trkpt>
      <trkpt lat="42.87574" lon="0.14106">
        <ele>2131.4</ele>
        <time>2021-03-25T13:05:05Z</time>
      </trkpt>
      <trkpt lat="42.87574" lon="0.14107">
        <ele>2130.9</ele>
        <time>2021-03-25T13:05:06Z</time>
      </trkpt>
      <trkpt lat="42.87574" lon="0.14111">
        <ele>2130.3</ele>
        <time>2021-03-25T13:05:07Z</time>
      </trkpt>
      <trkpt lat="42.87574" lon="0.14112">
        <ele>2130.3</ele>
        <time>2021-03-25T13:05:09Z</time>
      </trkpt>
      <trkpt lat="42.87574" lon="0.14113">
        <ele>2130.3</ele>
        <time>2021-03-25T13:05:10Z</time>
      </trkpt>
      <trkpt lat="42.87574" lon="0.14114">
        <ele>2130.3</ele>
        <time>2021-03-25T13:05:12Z</time>
      </trkpt>
      <trkpt lat="42.87573" lon="0.14116">
        <ele>2129.8</ele>
        <time>2021-03-25T13:05:13Z</time>
      </trkpt>
      <trkpt lat="42.87572" lon="0.14116">
        <ele>2129.8</ele>
        <time>2021-03-25T13:05:14Z</time>
      </trkpt>
      <trkpt lat="42.87571" lon="0.14117">
        <ele>2131.4</ele>
        <time>2021-03-25T13:05:15Z</time>
      </trkpt>
      <trkpt lat="42.8757" lon="0.14118">
        <ele>2131.4</ele>
        <time>2021-03-25T13:05:16Z</time>
      </trkpt>
      <trkpt lat="42.87568" lon="0.14117">
        <ele>2131.4</ele>
        <time>2021-03-25T13:05:18Z</time>
      </trkpt>
      <trkpt lat="42.87567" lon="0.14117">
        <ele>2133.2</ele>
        <time>2021-03-25T13:05:19Z</time>
      </trkpt>
      <trkpt lat="42.87566" lon="0.14118">
        <ele>2133.2</ele>
        <time>2021-03-25T13:05:20Z</time>
      </trkpt>
      <trkpt lat="42.87565" lon="0.14119">
        <ele>2133.2</ele>
        <time>2021-03-25T13:05:21Z</time>
      </trkpt>
      <trkpt lat="42.87565" lon="0.1412">
        <ele>2134.5</ele>
        <time>2021-03-25T13:05:22Z</time>
      </trkpt>
      <trkpt lat="42.87565" lon="0.14122">
        <ele>2134.5</ele>
        <time>2021-03-25T13:05:24Z</time>
      </trkpt>
      <trkpt lat="42.87564" lon="0.14123">
        <ele>2134.5</ele>
        <time>2021-03-25T13:05:25Z</time>
      </trkpt>
      <trkpt lat="42.87564" lon="0.14124">
        <ele>2134.1</ele>
        <time>2021-03-25T13:05:26Z</time>
      </trkpt>
      <trkpt lat="42.87564" lon="0.14124">
        <ele>2134.1</ele>
        <time>2021-03-25T13:05:28Z</time>
      </trkpt>
      <trkpt lat="42.87563" lon="0.14125">
        <ele>2134.1</ele>
        <time>2021-03-25T13:05:29Z</time>
      </trkpt>
      <trkpt lat="42.87562" lon="0.14126">
        <ele>2134.1</ele>
        <time>2021-03-25T13:05:30Z</time>
      </trkpt>
      <trkpt lat="42.87562" lon="0.14127">
        <ele>2136</ele>
        <time>2021-03-25T13:05:32Z</time>
      </trkpt>
      <trkpt lat="42.87562" lon="0.14128">
        <ele>2135.5</ele>
        <time>2021-03-25T13:05:33Z</time>
      </trkpt>
      <trkpt lat="42.87561" lon="0.14128">
        <ele>2135.5</ele>
        <time>2021-03-25T13:05:34Z</time>
      </trkpt>
      <trkpt lat="42.87561" lon="0.14129">
        <ele>2135.5</ele>
        <time>2021-03-25T13:05:35Z</time>
      </trkpt>
      <trkpt lat="42.87561" lon="0.14131">
        <ele>2135.5</ele>
        <time>2021-03-25T13:05:37Z</time>
      </trkpt>
      <trkpt lat="42.8756" lon="0.14132">
        <ele>2135.5</ele>
        <time>2021-03-25T13:05:38Z</time>
      </trkpt>
      <trkpt lat="42.8756" lon="0.14133">
        <ele>2135.1</ele>
        <time>2021-03-25T13:05:40Z</time>
      </trkpt>
      <trkpt lat="42.8756" lon="0.14134">
        <ele>2135.1</ele>
        <time>2021-03-25T13:05:42Z</time>
      </trkpt>
      <trkpt lat="42.87559" lon="0.14135">
        <ele>2135.1</ele>
        <time>2021-03-25T13:05:43Z</time>
      </trkpt>
      <trkpt lat="42.87559" lon="0.14135">
        <ele>2135.1</ele>
        <time>2021-03-25T13:05:44Z</time>
      </trkpt>
      <trkpt lat="42.87558" lon="0.14137">
        <ele>2136.5</ele>
        <time>2021-03-25T13:05:45Z</time>
      </trkpt>
      <trkpt lat="42.87558" lon="0.14138">
        <ele>2136.5</ele>
        <time>2021-03-25T13:05:46Z</time>
      </trkpt>
      <trkpt lat="42.87557" lon="0.14138">
        <ele>2136.5</ele>
        <time>2021-03-25T13:05:47Z</time>
      </trkpt>
      <trkpt lat="42.87557" lon="0.1414">
        <ele>2136.5</ele>
        <time>2021-03-25T13:05:48Z</time>
      </trkpt>
      <trkpt lat="42.87556" lon="0.1414">
        <ele>2136.5</ele>
        <time>2021-03-25T13:05:49Z</time>
      </trkpt>
      <trkpt lat="42.87556" lon="0.1414">
        <ele>2136.5</ele>
        <time>2021-03-25T13:05:50Z</time>
      </trkpt>
      <trkpt lat="42.87556" lon="0.14141">
        <ele>2136</ele>
        <time>2021-03-25T13:05:51Z</time>
      </trkpt>
      <trkpt lat="42.87555" lon="0.14142">
        <ele>2137.9</ele>
        <time>2021-03-25T13:05:53Z</time>
      </trkpt>
      <trkpt lat="42.87555" lon="0.14143">
        <ele>2137.9</ele>
        <time>2021-03-25T13:05:54Z</time>
      </trkpt>
      <trkpt lat="42.87555" lon="0.14144">
        <ele>2137.9</ele>
        <time>2021-03-25T13:05:56Z</time>
      </trkpt>
      <trkpt lat="42.87555" lon="0.14144">
        <ele>2137.9</ele>
        <time>2021-03-25T13:05:57Z</time>
      </trkpt>
      <trkpt lat="42.87554" lon="0.14145">
        <ele>2137.9</ele>
        <time>2021-03-25T13:05:58Z</time>
      </trkpt>
      <trkpt lat="42.87554" lon="0.14145">
        <ele>2137.4</ele>
        <time>2021-03-25T13:05:59Z</time>
      </trkpt>
      <trkpt lat="42.87554" lon="0.14146">
        <ele>2137.4</ele>
        <time>2021-03-25T13:06:01Z</time>
      </trkpt>
      <trkpt lat="42.87554" lon="0.14147">
        <ele>2137.4</ele>
        <time>2021-03-25T13:06:02Z</time>
      </trkpt>
      <trkpt lat="42.87554" lon="0.14147">
        <ele>2137.4</ele>
        <time>2021-03-25T13:06:03Z</time>
      </trkpt>
      <trkpt lat="42.87554" lon="0.14148">
        <ele>2137.4</ele>
        <time>2021-03-25T13:06:05Z</time>
      </trkpt>
      <trkpt lat="42.87553" lon="0.14148">
        <ele>2137.4</ele>
        <time>2021-03-25T13:06:06Z</time>
      </trkpt>
      <trkpt lat="42.87553" lon="0.14149">
        <ele>2136.8</ele>
        <time>2021-03-25T13:06:07Z</time>
      </trkpt>
      <trkpt lat="42.87553" lon="0.14151">
        <ele>2136.8</ele>
        <time>2021-03-25T13:06:08Z</time>
      </trkpt>
      <trkpt lat="42.87553" lon="0.14152">
        <ele>2136.8</ele>
        <time>2021-03-25T13:06:09Z</time>
      </trkpt>
      <trkpt lat="42.87553" lon="0.14152">
        <ele>2136.8</ele>
        <time>2021-03-25T13:06:10Z</time>
      </trkpt>
      <trkpt lat="42.87552" lon="0.14152">
        <ele>2136.8</ele>
        <time>2021-03-25T13:06:11Z</time>
      </trkpt>
      <trkpt lat="42.87552" lon="0.14153">
        <ele>2138.6</ele>
        <time>2021-03-25T13:06:13Z</time>
      </trkpt>
      <trkpt lat="42.87552" lon="0.14154">
        <ele>2138</ele>
        <time>2021-03-25T13:06:14Z</time>
      </trkpt>
      <trkpt lat="42.87551" lon="0.14154">
        <ele>2138</ele>
        <time>2021-03-25T13:06:16Z</time>
      </trkpt>
      <trkpt lat="42.87551" lon="0.14155">
        <ele>2138</ele>
        <time>2021-03-25T13:06:17Z</time>
      </trkpt>
      <trkpt lat="42.87551" lon="0.14156">
        <ele>2138</ele>
        <time>2021-03-25T13:06:18Z</time>
      </trkpt>
      <trkpt lat="42.8755" lon="0.14158">
        <ele>2137.5</ele>
        <time>2021-03-25T13:06:19Z</time>
      </trkpt>
      <trkpt lat="42.8755" lon="0.14159">
        <ele>2137.5</ele>
        <time>2021-03-25T13:06:20Z</time>
      </trkpt>
      <trkpt lat="42.8755" lon="0.1416">
        <ele>2137.5</ele>
        <time>2021-03-25T13:06:22Z</time>
      </trkpt>
      <trkpt lat="42.8755" lon="0.1416">
        <ele>2137.5</ele>
        <time>2021-03-25T13:06:23Z</time>
      </trkpt>
      <trkpt lat="42.8755" lon="0.14159">
        <ele>2137.5</ele>
        <time>2021-03-25T13:06:24Z</time>
      </trkpt>
      <trkpt lat="42.8755" lon="0.14159">
        <ele>2137.5</ele>
        <time>2021-03-25T13:06:25Z</time>
      </trkpt>
      <trkpt lat="42.8755" lon="0.1416">
        <ele>2137.5</ele>
        <time>2021-03-25T13:06:26Z</time>
      </trkpt>
      <trkpt lat="42.8755" lon="0.14161">
        <ele>2137.5</ele>
        <time>2021-03-25T13:06:27Z</time>
      </trkpt>
      <trkpt lat="42.8755" lon="0.14162">
        <ele>2137.5</ele>
        <time>2021-03-25T13:06:29Z</time>
      </trkpt>
      <trkpt lat="42.8755" lon="0.14163">
        <ele>2136.9</ele>
        <time>2021-03-25T13:06:30Z</time>
      </trkpt>
      <trkpt lat="42.8755" lon="0.14164">
        <ele>2136.9</ele>
        <time>2021-03-25T13:06:31Z</time>
      </trkpt>
      <trkpt lat="42.8755" lon="0.14164">
        <ele>2136.9</ele>
        <time>2021-03-25T13:06:32Z</time>
      </trkpt>
      <trkpt lat="42.8755" lon="0.14166">
        <ele>2136.9</ele>
        <time>2021-03-25T13:06:33Z</time>
      </trkpt>
      <trkpt lat="42.87549" lon="0.14167">
        <ele>2136.3</ele>
        <time>2021-03-25T13:06:34Z</time>
      </trkpt>
      <trkpt lat="42.87549" lon="0.14168">
        <ele>2138</ele>
        <time>2021-03-25T13:06:35Z</time>
      </trkpt>
      <trkpt lat="42.87549" lon="0.14169">
        <ele>2138</ele>
        <time>2021-03-25T13:06:37Z</time>
      </trkpt>
      <trkpt lat="42.87549" lon="0.1417">
        <ele>2138</ele>
        <time>2021-03-25T13:06:38Z</time>
      </trkpt>
      <trkpt lat="42.87549" lon="0.1417">
        <ele>2138</ele>
        <time>2021-03-25T13:06:39Z</time>
      </trkpt>
      <trkpt lat="42.87548" lon="0.14171">
        <ele>2137.5</ele>
        <time>2021-03-25T13:06:40Z</time>
      </trkpt>
      <trkpt lat="42.87548" lon="0.14172">
        <ele>2137.5</ele>
        <time>2021-03-25T13:06:41Z</time>
      </trkpt>
      <trkpt lat="42.87548" lon="0.14173">
        <ele>2137.5</ele>
        <time>2021-03-25T13:06:42Z</time>
      </trkpt>
      <trkpt lat="42.87548" lon="0.14173">
        <ele>2137.5</ele>
        <time>2021-03-25T13:06:43Z</time>
      </trkpt>
      <trkpt lat="42.87547" lon="0.14173">
        <ele>2137.5</ele>
        <time>2021-03-25T13:06:44Z</time>
      </trkpt>
      <trkpt lat="42.87547" lon="0.14174">
        <ele>2137.5</ele>
        <time>2021-03-25T13:06:46Z</time>
      </trkpt>
      <trkpt lat="42.87546" lon="0.14174">
        <ele>2137.5</ele>
        <time>2021-03-25T13:06:47Z</time>
      </trkpt>
      <trkpt lat="42.87546" lon="0.14174">
        <ele>2137.5</ele>
        <time>2021-03-25T13:06:48Z</time>
      </trkpt>
      <trkpt lat="42.87546" lon="0.14175">
        <ele>2138.7</ele>
        <time>2021-03-25T13:06:49Z</time>
      </trkpt>
      <trkpt lat="42.87545" lon="0.14176">
        <ele>2138.7</ele>
        <time>2021-03-25T13:06:50Z</time>
      </trkpt>
      <trkpt lat="42.87545" lon="0.14176">
        <ele>2138.7</ele>
        <time>2021-03-25T13:06:51Z</time>
      </trkpt>
      <trkpt lat="42.87544" lon="0.14177">
        <ele>2138.7</ele>
        <time>2021-03-25T13:06:53Z</time>
      </trkpt>
      <trkpt lat="42.87544" lon="0.14177">
        <ele>2138.7</ele>
        <time>2021-03-25T13:06:54Z</time>
      </trkpt>
      <trkpt lat="42.87544" lon="0.14178">
        <ele>2138.7</ele>
        <time>2021-03-25T13:06:55Z</time>
      </trkpt>
      <trkpt lat="42.87544" lon="0.14179">
        <ele>2138.7</ele>
        <time>2021-03-25T13:06:57Z</time>
      </trkpt>
      <trkpt lat="42.87544" lon="0.14179">
        <ele>2138.7</ele>
        <time>2021-03-25T13:06:58Z</time>
      </trkpt>
      <trkpt lat="42.87544" lon="0.1418">
        <ele>2138.2</ele>
        <time>2021-03-25T13:07:00Z</time>
      </trkpt>
      <trkpt lat="42.87544" lon="0.14181">
        <ele>2138.2</ele>
        <time>2021-03-25T13:07:01Z</time>
      </trkpt>
      <trkpt lat="42.87544" lon="0.14181">
        <ele>2138.2</ele>
        <time>2021-03-25T13:07:02Z</time>
      </trkpt>
      <trkpt lat="42.87544" lon="0.14182">
        <ele>2138.2</ele>
        <time>2021-03-25T13:07:03Z</time>
      </trkpt>
      <trkpt lat="42.87544" lon="0.14182">
        <ele>2138.2</ele>
        <time>2021-03-25T13:07:04Z</time>
      </trkpt>
      <trkpt lat="42.87544" lon="0.14183">
        <ele>2138.2</ele>
        <time>2021-03-25T13:07:05Z</time>
      </trkpt>
      <trkpt lat="42.87544" lon="0.14184">
        <ele>2137.6</ele>
        <time>2021-03-25T13:07:06Z</time>
      </trkpt>
      <trkpt lat="42.87544" lon="0.14184">
        <ele>2137.6</ele>
        <time>2021-03-25T13:07:07Z</time>
      </trkpt>
      <trkpt lat="42.87544" lon="0.14186">
        <ele>2137.6</ele>
        <time>2021-03-25T13:07:09Z</time>
      </trkpt>
      <trkpt lat="42.87544" lon="0.14186">
        <ele>2137.6</ele>
        <time>2021-03-25T13:07:10Z</time>
      </trkpt>
      <trkpt lat="42.87544" lon="0.14187">
        <ele>2137.6</ele>
        <time>2021-03-25T13:07:11Z</time>
      </trkpt>
      <trkpt lat="42.87544" lon="0.14187">
        <ele>2137.6</ele>
        <time>2021-03-25T13:07:12Z</time>
      </trkpt>
      <trkpt lat="42.87543" lon="0.14188">
        <ele>2137.6</ele>
        <time>2021-03-25T13:07:13Z</time>
      </trkpt>
      <trkpt lat="42.87543" lon="0.14188">
        <ele>2137</ele>
        <time>2021-03-25T13:07:15Z</time>
      </trkpt>
      <trkpt lat="42.87543" lon="0.14189">
        <ele>2138.8</ele>
        <time>2021-03-25T13:07:16Z</time>
      </trkpt>
      <trkpt lat="42.87543" lon="0.14189">
        <ele>2138.8</ele>
        <time>2021-03-25T13:07:17Z</time>
      </trkpt>
      <trkpt lat="42.87542" lon="0.14189">
        <ele>2138.8</ele>
        <time>2021-03-25T13:07:18Z</time>
      </trkpt>
      <trkpt lat="42.87542" lon="0.14189">
        <ele>2138.8</ele>
        <time>2021-03-25T13:07:19Z</time>
      </trkpt>
      <trkpt lat="42.87542" lon="0.14189">
        <ele>2138.8</ele>
        <time>2021-03-25T13:07:21Z</time>
      </trkpt>
      <trkpt lat="42.87542" lon="0.1419">
        <ele>2138.8</ele>
        <time>2021-03-25T13:07:23Z</time>
      </trkpt>
      <trkpt lat="42.87541" lon="0.1419">
        <ele>2138.8</ele>
        <time>2021-03-25T13:07:24Z</time>
      </trkpt>
      <trkpt lat="42.87541" lon="0.1419">
        <ele>2138.8</ele>
        <time>2021-03-25T13:07:25Z</time>
      </trkpt>
      <trkpt lat="42.87541" lon="0.1419">
        <ele>2138.8</ele>
        <time>2021-03-25T13:07:26Z</time>
      </trkpt>
      <trkpt lat="42.87541" lon="0.1419">
        <ele>2138.8</ele>
        <time>2021-03-25T13:07:27Z</time>
      </trkpt>
      <trkpt lat="42.87541" lon="0.14191">
        <ele>2138.8</ele>
        <time>2021-03-25T13:07:29Z</time>
      </trkpt>
      <trkpt lat="42.87541" lon="0.14191">
        <ele>2138.8</ele>
        <time>2021-03-25T13:07:30Z</time>
      </trkpt>
      <trkpt lat="42.87541" lon="0.14191">
        <ele>2138.8</ele>
        <time>2021-03-25T13:07:31Z</time>
      </trkpt>
      <trkpt lat="42.87542" lon="0.14191">
        <ele>2138.8</ele>
        <time>2021-03-25T13:07:33Z</time>
      </trkpt>
      <trkpt lat="42.87542" lon="0.14192">
        <ele>2138.8</ele>
        <time>2021-03-25T13:07:34Z</time>
      </trkpt>
      <trkpt lat="42.87542" lon="0.14192">
        <ele>2138.8</ele>
        <time>2021-03-25T13:07:35Z</time>
      </trkpt>
      <trkpt lat="42.87542" lon="0.14192">
        <ele>2138.2</ele>
        <time>2021-03-25T13:07:37Z</time>
      </trkpt>
      <trkpt lat="42.87542" lon="0.14193">
        <ele>2138.2</ele>
        <time>2021-03-25T13:07:38Z</time>
      </trkpt>
      <trkpt lat="42.87543" lon="0.14193">
        <ele>2138.2</ele>
        <time>2021-03-25T13:07:39Z</time>
      </trkpt>
      <trkpt lat="42.87543" lon="0.14193">
        <ele>2138.2</ele>
        <time>2021-03-25T13:07:41Z</time>
      </trkpt>
      <trkpt lat="42.87543" lon="0.14194">
        <ele>2136.4</ele>
        <time>2021-03-25T13:07:42Z</time>
      </trkpt>
      <trkpt lat="42.87543" lon="0.14194">
        <ele>2136.4</ele>
        <time>2021-03-25T13:07:44Z</time>
      </trkpt>
      <trkpt lat="42.87543" lon="0.14194">
        <ele>2136.4</ele>
        <time>2021-03-25T13:07:45Z</time>
      </trkpt>
      <trkpt lat="42.87546" lon="0.14198">
        <ele>2133.9</ele>
        <time>2021-03-25T13:07:47Z</time>
      </trkpt>
      <trkpt lat="42.87547" lon="0.14199">
        <ele>2133.9</ele>
        <time>2021-03-25T13:07:48Z</time>
      </trkpt>
      <trkpt lat="42.87547" lon="0.14199">
        <ele>2133.9</ele>
        <time>2021-03-25T13:07:49Z</time>
      </trkpt>
      <trkpt lat="42.87547" lon="0.14199">
        <ele>2133.9</ele>
        <time>2021-03-25T13:07:50Z</time>
      </trkpt>
      <trkpt lat="42.87547" lon="0.14199">
        <ele>2133.9</ele>
        <time>2021-03-25T13:07:51Z</time>
      </trkpt>
      <trkpt lat="42.87548" lon="0.14199">
        <ele>2133.9</ele>
        <time>2021-03-25T13:07:53Z</time>
      </trkpt>
      <trkpt lat="42.87548" lon="0.14199">
        <ele>2133.9</ele>
        <time>2021-03-25T13:07:54Z</time>
      </trkpt>
      <trkpt lat="42.87549" lon="0.14199">
        <ele>2133.9</ele>
        <time>2021-03-25T13:07:56Z</time>
      </trkpt>
      <trkpt lat="42.87548" lon="0.14199">
        <ele>2133.9</ele>
        <time>2021-03-25T13:07:57Z</time>
      </trkpt>
      <trkpt lat="42.87548" lon="0.14199">
        <ele>2133.9</ele>
        <time>2021-03-25T13:07:59Z</time>
      </trkpt>
      <trkpt lat="42.87548" lon="0.14199">
        <ele>2133.9</ele>
        <time>2021-03-25T13:08:01Z</time>
      </trkpt>
      <trkpt lat="42.87548" lon="0.14199">
        <ele>2133.9</ele>
        <time>2021-03-25T13:08:02Z</time>
      </trkpt>
      <trkpt lat="42.87548" lon="0.14199">
        <ele>2133.9</ele>
        <time>2021-03-25T13:08:04Z</time>
      </trkpt>
      <trkpt lat="42.87549" lon="0.14199">
        <ele>2133.9</ele>
        <time>2021-03-25T13:08:06Z</time>
      </trkpt>
      <trkpt lat="42.87549" lon="0.14198">
        <ele>2133.9</ele>
        <time>2021-03-25T13:08:08Z</time>
      </trkpt>
      <trkpt lat="42.87549" lon="0.14198">
        <ele>2133.9</ele>
        <time>2021-03-25T13:08:09Z</time>
      </trkpt>
      <trkpt lat="42.87548" lon="0.14198">
        <ele>2133.9</ele>
        <time>2021-03-25T13:08:11Z</time>
      </trkpt>
      <trkpt lat="42.87548" lon="0.14198">
        <ele>2133.9</ele>
        <time>2021-03-25T13:08:12Z</time>
      </trkpt>
      <trkpt lat="42.87548" lon="0.14198">
        <ele>2133.9</ele>
        <time>2021-03-25T13:08:14Z</time>
      </trkpt>
      <trkpt lat="42.87548" lon="0.14198">
        <ele>2133.9</ele>
        <time>2021-03-25T13:08:15Z</time>
      </trkpt>
      <trkpt lat="42.87548" lon="0.14198">
        <ele>2133.9</ele>
        <time>2021-03-25T13:08:16Z</time>
      </trkpt>
      <trkpt lat="42.87549" lon="0.14199">
        <ele>2132.1</ele>
        <time>2021-03-25T13:08:18Z</time>
      </trkpt>
      <trkpt lat="42.8755" lon="0.14199">
        <ele>2132.1</ele>
        <time>2021-03-25T13:08:19Z</time>
      </trkpt>
      <trkpt lat="42.8755" lon="0.14199">
        <ele>2132.1</ele>
        <time>2021-03-25T13:08:21Z</time>
      </trkpt>
      <trkpt lat="42.8755" lon="0.14199">
        <ele>2132.1</ele>
        <time>2021-03-25T13:08:23Z</time>
      </trkpt>
      <trkpt lat="42.8755" lon="0.14199">
        <ele>2132.1</ele>
        <time>2021-03-25T13:08:24Z</time>
      </trkpt>
      <trkpt lat="42.8755" lon="0.14199">
        <ele>2132.1</ele>
        <time>2021-03-25T13:08:26Z</time>
      </trkpt>
      <trkpt lat="42.87549" lon="0.14199">
        <ele>2132.1</ele>
        <time>2021-03-25T13:08:27Z</time>
      </trkpt>
      <trkpt lat="42.87549" lon="0.14199">
        <ele>2132.1</ele>
        <time>2021-03-25T13:08:28Z</time>
      </trkpt>
      <trkpt lat="42.87549" lon="0.14199">
        <ele>2132.1</ele>
        <time>2021-03-25T13:08:29Z</time>
      </trkpt>
      <trkpt lat="42.87549" lon="0.14199">
        <ele>2132.1</ele>
        <time>2021-03-25T13:08:30Z</time>
      </trkpt>
      <trkpt lat="42.87549" lon="0.14199">
        <ele>2132.1</ele>
        <time>2021-03-25T13:08:32Z</time>
      </trkpt>
      <trkpt lat="42.87549" lon="0.14199">
        <ele>2132.1</ele>
        <time>2021-03-25T13:08:33Z</time>
      </trkpt>
      <trkpt lat="42.87549" lon="0.14199">
        <ele>2132.1</ele>
        <time>2021-03-25T13:08:34Z</time>
      </trkpt>
      <trkpt lat="42.87549" lon="0.14199">
        <ele>2132.1</ele>
        <time>2021-03-25T13:08:36Z</time>
      </trkpt>
      <trkpt lat="42.87549" lon="0.14199">
        <ele>2132.1</ele>
        <time>2021-03-25T13:08:37Z</time>
      </trkpt>
      <trkpt lat="42.87549" lon="0.142">
        <ele>2133.9</ele>
        <time>2021-03-25T13:08:38Z</time>
      </trkpt>
      <trkpt lat="42.87548" lon="0.14201">
        <ele>2133.2</ele>
        <time>2021-03-25T13:08:40Z</time>
      </trkpt>
      <trkpt lat="42.87548" lon="0.14201">
        <ele>2133.2</ele>
        <time>2021-03-25T13:08:41Z</time>
      </trkpt>
      <trkpt lat="42.87547" lon="0.14201">
        <ele>2133.2</ele>
        <time>2021-03-25T13:08:42Z</time>
      </trkpt>
      <trkpt lat="42.87546" lon="0.14201">
        <ele>2133.2</ele>
        <time>2021-03-25T13:08:44Z</time>
      </trkpt>
      <trkpt lat="42.87546" lon="0.14201">
        <ele>2135</ele>
        <time>2021-03-25T13:08:45Z</time>
      </trkpt>
      <trkpt lat="42.87545" lon="0.14201">
        <ele>2135.7</ele>
        <time>2021-03-25T13:08:46Z</time>
      </trkpt>
      <trkpt lat="42.87545" lon="0.14201">
        <ele>2135</ele>
        <time>2021-03-25T13:08:47Z</time>
      </trkpt>
      <trkpt lat="42.87546" lon="0.14201">
        <ele>2135.7</ele>
        <time>2021-03-25T13:08:49Z</time>
      </trkpt>
      <trkpt lat="42.87548" lon="0.14201">
        <ele>2133.2</ele>
        <time>2021-03-25T13:08:51Z</time>
      </trkpt>
      <trkpt lat="42.87548" lon="0.14201">
        <ele>2133.2</ele>
        <time>2021-03-25T13:08:52Z</time>
      </trkpt>
      <trkpt lat="42.87548" lon="0.14201">
        <ele>2133.2</ele>
        <time>2021-03-25T13:08:54Z</time>
      </trkpt>
      <trkpt lat="42.87548" lon="0.14201">
        <ele>2133.9</ele>
        <time>2021-03-25T13:08:55Z</time>
      </trkpt>
      <trkpt lat="42.87548" lon="0.142">
        <ele>2133.9</ele>
        <time>2021-03-25T13:08:56Z</time>
      </trkpt>
      <trkpt lat="42.87548" lon="0.142">
        <ele>2133.9</ele>
        <time>2021-03-25T13:08:58Z</time>
      </trkpt>
      <trkpt lat="42.87548" lon="0.142">
        <ele>2133.9</ele>
        <time>2021-03-25T13:08:59Z</time>
      </trkpt>
      <trkpt lat="42.87548" lon="0.142">
        <ele>2133.9</ele>
        <time>2021-03-25T13:09:00Z</time>
      </trkpt>
      <trkpt lat="42.87548" lon="0.142">
        <ele>2133.9</ele>
        <time>2021-03-25T13:09:02Z</time>
      </trkpt>
      <trkpt lat="42.87548" lon="0.142">
        <ele>2133.9</ele>
        <time>2021-03-25T13:09:03Z</time>
      </trkpt>
      <trkpt lat="42.87548" lon="0.142">
        <ele>2133.9</ele>
        <time>2021-03-25T13:09:05Z</time>
      </trkpt>
      <trkpt lat="42.87548" lon="0.142">
        <ele>2133.9</ele>
        <time>2021-03-25T13:09:06Z</time>
      </trkpt>
      <trkpt lat="42.87547" lon="0.142">
        <ele>2133.9</ele>
        <time>2021-03-25T13:09:08Z</time>
      </trkpt>
      <trkpt lat="42.87547" lon="0.142">
        <ele>2133.9</ele>
        <time>2021-03-25T13:09:09Z</time>
      </trkpt>
      <trkpt lat="42.87547" lon="0.142">
        <ele>2133.9</ele>
        <time>2021-03-25T13:09:10Z</time>
      </trkpt>
      <trkpt lat="42.87547" lon="0.142">
        <ele>2133.9</ele>
        <time>2021-03-25T13:09:11Z</time>
      </trkpt>
      <trkpt lat="42.87547" lon="0.142">
        <ele>2133.9</ele>
        <time>2021-03-25T13:09:13Z</time>
      </trkpt>
      <trkpt lat="42.87547" lon="0.142">
        <ele>2133.9</ele>
        <time>2021-03-25T13:09:15Z</time>
      </trkpt>
      <trkpt lat="42.87547" lon="0.142">
        <ele>2133.9</ele>
        <time>2021-03-25T13:09:17Z</time>
      </trkpt>
      <trkpt lat="42.87547" lon="0.142">
        <ele>2133.9</ele>
        <time>2021-03-25T13:09:18Z</time>
      </trkpt>
      <trkpt lat="42.87547" lon="0.142">
        <ele>2133.9</ele>
        <time>2021-03-25T13:09:19Z</time>
      </trkpt>
      <trkpt lat="42.87547" lon="0.142">
        <ele>2133.9</ele>
        <time>2021-03-25T13:09:20Z</time>
      </trkpt>
      <trkpt lat="42.87547" lon="0.142">
        <ele>2133.9</ele>
        <time>2021-03-25T13:09:22Z</time>
      </trkpt>
      <trkpt lat="42.87547" lon="0.142">
        <ele>2133.9</ele>
        <time>2021-03-25T13:09:23Z</time>
      </trkpt>
      <trkpt lat="42.87547" lon="0.142">
        <ele>2133.9</ele>
        <time>2021-03-25T13:09:24Z</time>
      </trkpt>
      <trkpt lat="42.87547" lon="0.142">
        <ele>2133.9</ele>
        <time>2021-03-25T13:09:26Z</time>
      </trkpt>
      <trkpt lat="42.87547" lon="0.142">
        <ele>2133.9</ele>
        <time>2021-03-25T13:09:27Z</time>
      </trkpt>
      <trkpt lat="42.87547" lon="0.142">
        <ele>2133.9</ele>
        <time>2021-03-25T13:09:29Z</time>
      </trkpt>
      <trkpt lat="42.87547" lon="0.142">
        <ele>2133.9</ele>
        <time>2021-03-25T13:09:30Z</time>
      </trkpt>
      <trkpt lat="42.87547" lon="0.142">
        <ele>2133.9</ele>
        <time>2021-03-25T13:09:32Z</time>
      </trkpt>
      <trkpt lat="42.87547" lon="0.142">
        <ele>2133.9</ele>
        <time>2021-03-25T13:09:34Z</time>
      </trkpt>
      <trkpt lat="42.87547" lon="0.142">
        <ele>2133.9</ele>
        <time>2021-03-25T13:09:36Z</time>
      </trkpt>
      <trkpt lat="42.87547" lon="0.142">
        <ele>2133.9</ele>
        <time>2021-03-25T13:09:37Z</time>
      </trkpt>
      <trkpt lat="42.87547" lon="0.14199">
        <ele>2133.9</ele>
        <time>2021-03-25T13:09:38Z</time>
      </trkpt>
      <trkpt lat="42.87546" lon="0.14199">
        <ele>2135.7</ele>
        <time>2021-03-25T13:09:39Z</time>
      </trkpt>
      <trkpt lat="42.87545" lon="0.14199">
        <ele>2135.7</ele>
        <time>2021-03-25T13:09:40Z</time>
      </trkpt>
      <trkpt lat="42.87545" lon="0.14198">
        <ele>2135.7</ele>
        <time>2021-03-25T13:09:42Z</time>
      </trkpt>
      <trkpt lat="42.87544" lon="0.14198">
        <ele>2135.7</ele>
        <time>2021-03-25T13:09:43Z</time>
      </trkpt>
      <trkpt lat="42.87543" lon="0.14197">
        <ele>2137.5</ele>
        <time>2021-03-25T13:09:44Z</time>
      </trkpt>
      <trkpt lat="42.87542" lon="0.14197">
        <ele>2137.5</ele>
        <time>2021-03-25T13:09:45Z</time>
      </trkpt>
      <trkpt lat="42.87541" lon="0.14196">
        <ele>2138.2</ele>
        <time>2021-03-25T13:09:47Z</time>
      </trkpt>
      <trkpt lat="42.8754" lon="0.14195">
        <ele>2140</ele>
        <time>2021-03-25T13:09:49Z</time>
      </trkpt>
      <trkpt lat="42.87538" lon="0.14194">
        <ele>2140</ele>
        <time>2021-03-25T13:09:50Z</time>
      </trkpt>
      <trkpt lat="42.87537" lon="0.14194">
        <ele>2140</ele>
        <time>2021-03-25T13:09:52Z</time>
      </trkpt>
      <trkpt lat="42.87537" lon="0.14193">
        <ele>2140</ele>
        <time>2021-03-25T13:09:53Z</time>
      </trkpt>
      <trkpt lat="42.87535" lon="0.14192">
        <ele>2142</ele>
        <time>2021-03-25T13:09:55Z</time>
      </trkpt>
      <trkpt lat="42.87534" lon="0.14192">
        <ele>2142.7</ele>
        <time>2021-03-25T13:09:56Z</time>
      </trkpt>
      <trkpt lat="42.87533" lon="0.14191">
        <ele>2144.6</ele>
        <time>2021-03-25T13:09:58Z</time>
      </trkpt>
      <trkpt lat="42.87532" lon="0.1419">
        <ele>2144.6</ele>
        <time>2021-03-25T13:09:59Z</time>
      </trkpt>
      <trkpt lat="42.87531" lon="0.1419">
        <ele>2144.6</ele>
        <time>2021-03-25T13:10:01Z</time>
      </trkpt>
      <trkpt lat="42.8753" lon="0.14189">
        <ele>2146.6</ele>
        <time>2021-03-25T13:10:02Z</time>
      </trkpt>
      <trkpt lat="42.87529" lon="0.14188">
        <ele>2146.6</ele>
        <time>2021-03-25T13:10:04Z</time>
      </trkpt>
      <trkpt lat="42.87528" lon="0.14188">
        <ele>2147.3</ele>
        <time>2021-03-25T13:10:05Z</time>
      </trkpt>
      <trkpt lat="42.87527" lon="0.14187">
        <ele>2149.3</ele>
        <time>2021-03-25T13:10:06Z</time>
      </trkpt>
      <trkpt lat="42.87526" lon="0.14187">
        <ele>2149.3</ele>
        <time>2021-03-25T13:10:07Z</time>
      </trkpt>
      <trkpt lat="42.87526" lon="0.14186">
        <ele>2149.3</ele>
        <time>2021-03-25T13:10:08Z</time>
      </trkpt>
      <trkpt lat="42.87525" lon="0.14186">
        <ele>2149.3</ele>
        <time>2021-03-25T13:10:09Z</time>
      </trkpt>
      <trkpt lat="42.87524" lon="0.14185">
        <ele>2151.2</ele>
        <time>2021-03-25T13:10:11Z</time>
      </trkpt>
      <trkpt lat="42.87523" lon="0.14185">
        <ele>2151.2</ele>
        <time>2021-03-25T13:10:12Z</time>
      </trkpt>
      <trkpt lat="42.87522" lon="0.14184">
        <ele>2151.2</ele>
        <time>2021-03-25T13:10:13Z</time>
      </trkpt>
      <trkpt lat="42.87528" lon="0.14187">
        <ele>2147.3</ele>
        <time>2021-03-25T13:10:15Z</time>
      </trkpt>
      <trkpt lat="42.87533" lon="0.1419">
        <ele>2144.6</ele>
        <time>2021-03-25T13:10:17Z</time>
      </trkpt>
      <trkpt lat="42.87535" lon="0.14192">
        <ele>2142.7</ele>
        <time>2021-03-25T13:10:18Z</time>
      </trkpt>
      <trkpt lat="42.87536" lon="0.14195">
        <ele>2142</ele>
        <time>2021-03-25T13:10:20Z</time>
      </trkpt>
      <trkpt lat="42.87534" lon="0.142">
        <ele>2141.3</ele>
        <time>2021-03-25T13:10:22Z</time>
      </trkpt>
      <trkpt lat="42.87531" lon="0.14203">
        <ele>2142.5</ele>
        <time>2021-03-25T13:10:24Z</time>
      </trkpt>
      <trkpt lat="42.8753" lon="0.14203">
        <ele>2144.4</ele>
        <time>2021-03-25T13:10:25Z</time>
      </trkpt>
      <trkpt lat="42.87528" lon="0.14207">
        <ele>2143.7</ele>
        <time>2021-03-25T13:10:27Z</time>
      </trkpt>
      <trkpt lat="42.87526" lon="0.1421">
        <ele>2144.8</ele>
        <time>2021-03-25T13:10:28Z</time>
      </trkpt>
      <trkpt lat="42.87526" lon="0.14214">
        <ele>2144.1</ele>
        <time>2021-03-25T13:10:30Z</time>
      </trkpt>
      <trkpt lat="42.87526" lon="0.14219">
        <ele>2143.3</ele>
        <time>2021-03-25T13:10:32Z</time>
      </trkpt>
      <trkpt lat="42.87523" lon="0.14221">
        <ele>2145.2</ele>
        <time>2021-03-25T13:10:34Z</time>
      </trkpt>
      <trkpt lat="42.8752" lon="0.14224">
        <ele>2146.4</ele>
        <time>2021-03-25T13:10:36Z</time>
      </trkpt>
      <trkpt lat="42.8752" lon="0.14226">
        <ele>2146.4</ele>
        <time>2021-03-25T13:10:37Z</time>
      </trkpt>
      <trkpt lat="42.87518" lon="0.14229">
        <ele>2145.6</ele>
        <time>2021-03-25T13:10:39Z</time>
      </trkpt>
      <trkpt lat="42.87517" lon="0.1423">
        <ele>2147.5</ele>
        <time>2021-03-25T13:10:40Z</time>
      </trkpt>
      <trkpt lat="42.87516" lon="0.14231">
        <ele>2146.7</ele>
        <time>2021-03-25T13:10:41Z</time>
      </trkpt>
      <trkpt lat="42.87516" lon="0.14232">
        <ele>2146.7</ele>
        <time>2021-03-25T13:10:43Z</time>
      </trkpt>
      <trkpt lat="42.87515" lon="0.14233">
        <ele>2146.7</ele>
        <time>2021-03-25T13:10:44Z</time>
      </trkpt>
      <trkpt lat="42.87515" lon="0.14233">
        <ele>2146.7</ele>
        <time>2021-03-25T13:10:45Z</time>
      </trkpt>
      <trkpt lat="42.87515" lon="0.14234">
        <ele>2146.7</ele>
        <time>2021-03-25T13:10:46Z</time>
      </trkpt>
      <trkpt lat="42.87514" lon="0.14234">
        <ele>2148.6</ele>
        <time>2021-03-25T13:10:47Z</time>
      </trkpt>
      <trkpt lat="42.87514" lon="0.14234">
        <ele>2148.6</ele>
        <time>2021-03-25T13:10:48Z</time>
      </trkpt>
      <trkpt lat="42.87515" lon="0.14235">
        <ele>2146.7</ele>
        <time>2021-03-25T13:10:50Z</time>
      </trkpt>
      <trkpt lat="42.87515" lon="0.14235">
        <ele>2146.7</ele>
        <time>2021-03-25T13:10:51Z</time>
      </trkpt>
      <trkpt lat="42.87515" lon="0.14235">
        <ele>2145.9</ele>
        <time>2021-03-25T13:10:52Z</time>
      </trkpt>
      <trkpt lat="42.87516" lon="0.14235">
        <ele>2145.9</ele>
        <time>2021-03-25T13:10:54Z</time>
      </trkpt>
      <trkpt lat="42.87516" lon="0.14236">
        <ele>2145.9</ele>
        <time>2021-03-25T13:10:55Z</time>
      </trkpt>
      <trkpt lat="42.87516" lon="0.14236">
        <ele>2145.9</ele>
        <time>2021-03-25T13:10:57Z</time>
      </trkpt>
      <trkpt lat="42.87516" lon="0.14236">
        <ele>2145.9</ele>
        <time>2021-03-25T13:10:59Z</time>
      </trkpt>
      <trkpt lat="42.87516" lon="0.14237">
        <ele>2145.9</ele>
        <time>2021-03-25T13:11:00Z</time>
      </trkpt>
      <trkpt lat="42.87516" lon="0.14237">
        <ele>2145.9</ele>
        <time>2021-03-25T13:11:01Z</time>
      </trkpt>
      <trkpt lat="42.87516" lon="0.14237">
        <ele>2145.9</ele>
        <time>2021-03-25T13:11:03Z</time>
      </trkpt>
      <trkpt lat="42.87515" lon="0.14237">
        <ele>2145.9</ele>
        <time>2021-03-25T13:11:04Z</time>
      </trkpt>
      <trkpt lat="42.87515" lon="0.14237">
        <ele>2145.9</ele>
        <time>2021-03-25T13:11:06Z</time>
      </trkpt>
      <trkpt lat="42.87514" lon="0.14236">
        <ele>2147.8</ele>
        <time>2021-03-25T13:11:07Z</time>
      </trkpt>
      <trkpt lat="42.87514" lon="0.14236">
        <ele>2147.8</ele>
        <time>2021-03-25T13:11:09Z</time>
      </trkpt>
      <trkpt lat="42.87513" lon="0.14236">
        <ele>2147.8</ele>
        <time>2021-03-25T13:11:10Z</time>
      </trkpt>
      <trkpt lat="42.87513" lon="0.14236">
        <ele>2147.8</ele>
        <time>2021-03-25T13:11:12Z</time>
      </trkpt>
      <trkpt lat="42.87512" lon="0.14236">
        <ele>2147.8</ele>
        <time>2021-03-25T13:11:13Z</time>
      </trkpt>
      <trkpt lat="42.87513" lon="0.14237">
        <ele>2147.8</ele>
        <time>2021-03-25T13:11:15Z</time>
      </trkpt>
      <trkpt lat="42.87513" lon="0.14237">
        <ele>2147.8</ele>
        <time>2021-03-25T13:11:16Z</time>
      </trkpt>
      <trkpt lat="42.87513" lon="0.14237">
        <ele>2147.8</ele>
        <time>2021-03-25T13:11:17Z</time>
      </trkpt>
      <trkpt lat="42.87513" lon="0.14237">
        <ele>2147.8</ele>
        <time>2021-03-25T13:11:18Z</time>
      </trkpt>
      <trkpt lat="42.87512" lon="0.14237">
        <ele>2147.8</ele>
        <time>2021-03-25T13:11:20Z</time>
      </trkpt>
      <trkpt lat="42.87512" lon="0.14237">
        <ele>2147.8</ele>
        <time>2021-03-25T13:11:21Z</time>
      </trkpt>
      <trkpt lat="42.87511" lon="0.14237">
        <ele>2149.7</ele>
        <time>2021-03-25T13:11:22Z</time>
      </trkpt>
      <trkpt lat="42.8751" lon="0.14237">
        <ele>2149.7</ele>
        <time>2021-03-25T13:11:24Z</time>
      </trkpt>
      <trkpt lat="42.8751" lon="0.14238">
        <ele>2149.7</ele>
        <time>2021-03-25T13:11:25Z</time>
      </trkpt>
      <trkpt lat="42.87511" lon="0.14239">
        <ele>2149.7</ele>
        <time>2021-03-25T13:11:27Z</time>
      </trkpt>
      <trkpt lat="42.87512" lon="0.1424">
        <ele>2147</ele>
        <time>2021-03-25T13:11:28Z</time>
      </trkpt>
      <trkpt lat="42.87512" lon="0.14241">
        <ele>2147</ele>
        <time>2021-03-25T13:11:29Z</time>
      </trkpt>
      <trkpt lat="42.87511" lon="0.14242">
        <ele>2148.9</ele>
        <time>2021-03-25T13:11:31Z</time>
      </trkpt>
      <trkpt lat="42.87511" lon="0.14243">
        <ele>2148.9</ele>
        <time>2021-03-25T13:11:33Z</time>
      </trkpt>
      <trkpt lat="42.87507" lon="0.14245">
        <ele>2150</ele>
        <time>2021-03-25T13:11:35Z</time>
      </trkpt>
      <trkpt lat="42.87507" lon="0.14246">
        <ele>2150</ele>
        <time>2021-03-25T13:11:36Z</time>
      </trkpt>
      <trkpt lat="42.87508" lon="0.14251">
        <ele>2149.1</ele>
        <time>2021-03-25T13:11:38Z</time>
      </trkpt>
      <trkpt lat="42.87508" lon="0.14255">
        <ele>2146.3</ele>
        <time>2021-03-25T13:11:39Z</time>
      </trkpt>
      <trkpt lat="42.87509" lon="0.14257">
        <ele>2145.5</ele>
        <time>2021-03-25T13:11:41Z</time>
      </trkpt>
      <trkpt lat="42.87509" lon="0.14259">
        <ele>2145.5</ele>
        <time>2021-03-25T13:11:42Z</time>
      </trkpt>
      <trkpt lat="42.87509" lon="0.1426">
        <ele>2145.5</ele>
        <time>2021-03-25T13:11:43Z</time>
      </trkpt>
      <trkpt lat="42.87509" lon="0.14261">
        <ele>2145.5</ele>
        <time>2021-03-25T13:11:44Z</time>
      </trkpt>
      <trkpt lat="42.8751" lon="0.14262">
        <ele>2144.8</ele>
        <time>2021-03-25T13:11:46Z</time>
      </trkpt>
      <trkpt lat="42.87511" lon="0.14264">
        <ele>2144.8</ele>
        <time>2021-03-25T13:11:47Z</time>
      </trkpt>
      <trkpt lat="42.87511" lon="0.14265">
        <ele>2144.8</ele>
        <time>2021-03-25T13:11:48Z</time>
      </trkpt>
      <trkpt lat="42.87511" lon="0.14266">
        <ele>2144.1</ele>
        <time>2021-03-25T13:11:49Z</time>
      </trkpt>
      <trkpt lat="42.87512" lon="0.14267">
        <ele>2142.2</ele>
        <time>2021-03-25T13:11:51Z</time>
      </trkpt>
      <trkpt lat="42.87512" lon="0.14268">
        <ele>2142.2</ele>
        <time>2021-03-25T13:11:53Z</time>
      </trkpt>
      <trkpt lat="42.87512" lon="0.14268">
        <ele>2142.2</ele>
        <time>2021-03-25T13:11:54Z</time>
      </trkpt>
      <trkpt lat="42.87513" lon="0.14269">
        <ele>2142.2</ele>
        <time>2021-03-25T13:11:56Z</time>
      </trkpt>
      <trkpt lat="42.87513" lon="0.14269">
        <ele>2142.2</ele>
        <time>2021-03-25T13:11:58Z</time>
      </trkpt>
      <trkpt lat="42.87514" lon="0.14269">
        <ele>2142.2</ele>
        <time>2021-03-25T13:11:59Z</time>
      </trkpt>
      <trkpt lat="42.87514" lon="0.14269">
        <ele>2142.2</ele>
        <time>2021-03-25T13:12:01Z</time>
      </trkpt>
      <trkpt lat="42.87514" lon="0.14269">
        <ele>2141.5</ele>
        <time>2021-03-25T13:12:03Z</time>
      </trkpt>
      <trkpt lat="42.87513" lon="0.1427">
        <ele>2141.5</ele>
        <time>2021-03-25T13:12:04Z</time>
      </trkpt>
      <trkpt lat="42.87513" lon="0.1427">
        <ele>2141.5</ele>
        <time>2021-03-25T13:12:05Z</time>
      </trkpt>
      <trkpt lat="42.87513" lon="0.1427">
        <ele>2141.5</ele>
        <time>2021-03-25T13:12:07Z</time>
      </trkpt>
      <trkpt lat="42.87512" lon="0.1427">
        <ele>2141.5</ele>
        <time>2021-03-25T13:12:08Z</time>
      </trkpt>
      <trkpt lat="42.87512" lon="0.14271">
        <ele>2141.5</ele>
        <time>2021-03-25T13:12:10Z</time>
      </trkpt>
      <trkpt lat="42.87512" lon="0.14271">
        <ele>2141.5</ele>
        <time>2021-03-25T13:12:11Z</time>
      </trkpt>
      <trkpt lat="42.87512" lon="0.14271">
        <ele>2141.5</ele>
        <time>2021-03-25T13:12:13Z</time>
      </trkpt>
      <trkpt lat="42.87512" lon="0.14271">
        <ele>2141.5</ele>
        <time>2021-03-25T13:12:14Z</time>
      </trkpt>
      <trkpt lat="42.87511" lon="0.14271">
        <ele>2143.3</ele>
        <time>2021-03-25T13:12:15Z</time>
      </trkpt>
      <trkpt lat="42.87511" lon="0.14271">
        <ele>2143.3</ele>
        <time>2021-03-25T13:12:17Z</time>
      </trkpt>
      <trkpt lat="42.87511" lon="0.14272">
        <ele>2143.3</ele>
        <time>2021-03-25T13:12:19Z</time>
      </trkpt>
      <trkpt lat="42.87511" lon="0.14272">
        <ele>2143.3</ele>
        <time>2021-03-25T13:12:20Z</time>
      </trkpt>
      <trkpt lat="42.8751" lon="0.14271">
        <ele>2143.3</ele>
        <time>2021-03-25T13:12:22Z</time>
      </trkpt>
      <trkpt lat="42.8751" lon="0.14271">
        <ele>2143.3</ele>
        <time>2021-03-25T13:12:23Z</time>
      </trkpt>
      <trkpt lat="42.87509" lon="0.14271">
        <ele>2143.3</ele>
        <time>2021-03-25T13:12:25Z</time>
      </trkpt>
      <trkpt lat="42.87509" lon="0.14271">
        <ele>2143.3</ele>
        <time>2021-03-25T13:12:26Z</time>
      </trkpt>
      <trkpt lat="42.87508" lon="0.14271">
        <ele>2143.3</ele>
        <time>2021-03-25T13:12:27Z</time>
      </trkpt>
      <trkpt lat="42.87507" lon="0.14271">
        <ele>2145.2</ele>
        <time>2021-03-25T13:12:29Z</time>
      </trkpt>
      <trkpt lat="42.87506" lon="0.1427">
        <ele>2145.2</ele>
        <time>2021-03-25T13:12:31Z</time>
      </trkpt>
      <trkpt lat="42.87506" lon="0.1427">
        <ele>2145.2</ele>
        <time>2021-03-25T13:12:32Z</time>
      </trkpt>
      <trkpt lat="42.87506" lon="0.1427">
        <ele>2145.2</ele>
        <time>2021-03-25T13:12:33Z</time>
      </trkpt>
      <trkpt lat="42.87505" lon="0.14269">
        <ele>2145.9</ele>
        <time>2021-03-25T13:12:35Z</time>
      </trkpt>
      <trkpt lat="42.87505" lon="0.14269">
        <ele>2145.9</ele>
        <time>2021-03-25T13:12:37Z</time>
      </trkpt>
      <trkpt lat="42.87505" lon="0.14269">
        <ele>2145.9</ele>
        <time>2021-03-25T13:12:38Z</time>
      </trkpt>
      <trkpt lat="42.87505" lon="0.14268">
        <ele>2147.9</ele>
        <time>2021-03-25T13:12:39Z</time>
      </trkpt>
      <trkpt lat="42.87505" lon="0.14268">
        <ele>2147.9</ele>
        <time>2021-03-25T13:12:41Z</time>
      </trkpt>
      <trkpt lat="42.87506" lon="0.14269">
        <ele>2145.9</ele>
        <time>2021-03-25T13:12:42Z</time>
      </trkpt>
      <trkpt lat="42.87505" lon="0.14268">
        <ele>2145.9</ele>
        <time>2021-03-25T13:12:43Z</time>
      </trkpt>
      <trkpt lat="42.87506" lon="0.14269">
        <ele>2145.9</ele>
        <time>2021-03-25T13:12:45Z</time>
      </trkpt>
      <trkpt lat="42.87506" lon="0.14269">
        <ele>2145.9</ele>
        <time>2021-03-25T13:12:46Z</time>
      </trkpt>
      <trkpt lat="42.87505" lon="0.14269">
        <ele>2145.9</ele>
        <time>2021-03-25T13:12:47Z</time>
      </trkpt>
      <trkpt lat="42.87505" lon="0.14268">
        <ele>2147.9</ele>
        <time>2021-03-25T13:12:48Z</time>
      </trkpt>
      <trkpt lat="42.87505" lon="0.14269">
        <ele>2147.9</ele>
        <time>2021-03-25T13:12:50Z</time>
      </trkpt>
      <trkpt lat="42.87505" lon="0.14269">
        <ele>2147.9</ele>
        <time>2021-03-25T13:12:51Z</time>
      </trkpt>
      <trkpt lat="42.87505" lon="0.14269">
        <ele>2145.9</ele>
        <time>2021-03-25T13:12:53Z</time>
      </trkpt>
      <trkpt lat="42.87505" lon="0.14269">
        <ele>2145.9</ele>
        <time>2021-03-25T13:12:54Z</time>
      </trkpt>
      <trkpt lat="42.87506" lon="0.14269">
        <ele>2145.9</ele>
        <time>2021-03-25T13:12:55Z</time>
      </trkpt>
      <trkpt lat="42.87506" lon="0.14269">
        <ele>2145.9</ele>
        <time>2021-03-25T13:12:56Z</time>
      </trkpt>
      <trkpt lat="42.87507" lon="0.14268">
        <ele>2145.9</ele>
        <time>2021-03-25T13:12:58Z</time>
      </trkpt>
      <trkpt lat="42.87507" lon="0.14267">
        <ele>2145.9</ele>
        <time>2021-03-25T13:12:59Z</time>
      </trkpt>
      <trkpt lat="42.87508" lon="0.14267">
        <ele>2145.9</ele>
        <time>2021-03-25T13:13:00Z</time>
      </trkpt>
      <trkpt lat="42.87508" lon="0.14267">
        <ele>2145.9</ele>
        <time>2021-03-25T13:13:01Z</time>
      </trkpt>
      <trkpt lat="42.8751" lon="0.14266">
        <ele>2144.1</ele>
        <time>2021-03-25T13:13:03Z</time>
      </trkpt>
      <trkpt lat="42.87511" lon="0.14266">
        <ele>2144.1</ele>
        <time>2021-03-25T13:13:05Z</time>
      </trkpt>
      <trkpt lat="42.87512" lon="0.14266">
        <ele>2142.2</ele>
        <time>2021-03-25T13:13:07Z</time>
      </trkpt>
      <trkpt lat="42.87512" lon="0.14266">
        <ele>2142.2</ele>
        <time>2021-03-25T13:13:08Z</time>
      </trkpt>
      <trkpt lat="42.87512" lon="0.14266">
        <ele>2142.2</ele>
        <time>2021-03-25T13:13:10Z</time>
      </trkpt>
      <trkpt lat="42.87512" lon="0.14266">
        <ele>2142.2</ele>
        <time>2021-03-25T13:13:11Z</time>
      </trkpt>
      <trkpt lat="42.87512" lon="0.14265">
        <ele>2142.2</ele>
        <time>2021-03-25T13:13:12Z</time>
      </trkpt>
      <trkpt lat="42.87511" lon="0.14264">
        <ele>2144.8</ele>
        <time>2021-03-25T13:13:14Z</time>
      </trkpt>
      <trkpt lat="42.87511" lon="0.14264">
        <ele>2144.8</ele>
        <time>2021-03-25T13:13:15Z</time>
      </trkpt>
      <trkpt lat="42.87511" lon="0.14264">
        <ele>2144.8</ele>
        <time>2021-03-25T13:13:16Z</time>
      </trkpt>
      <trkpt lat="42.87511" lon="0.14264">
        <ele>2144.8</ele>
        <time>2021-03-25T13:13:17Z</time>
      </trkpt>
      <trkpt lat="42.87511" lon="0.14264">
        <ele>2144.8</ele>
        <time>2021-03-25T13:13:19Z</time>
      </trkpt>
      <trkpt lat="42.87511" lon="0.14264">
        <ele>2144.8</ele>
        <time>2021-03-25T13:13:20Z</time>
      </trkpt>
      <trkpt lat="42.8751" lon="0.14264">
        <ele>2144.8</ele>
        <time>2021-03-25T13:13:22Z</time>
      </trkpt>
      <trkpt lat="42.8751" lon="0.14264">
        <ele>2144.8</ele>
        <time>2021-03-25T13:13:24Z</time>
      </trkpt>
      <trkpt lat="42.8751" lon="0.14264">
        <ele>2144.8</ele>
        <time>2021-03-25T13:13:25Z</time>
      </trkpt>
      <trkpt lat="42.8751" lon="0.14264">
        <ele>2144.8</ele>
        <time>2021-03-25T13:13:26Z</time>
      </trkpt>
      <trkpt lat="42.8751" lon="0.14263">
        <ele>2144.8</ele>
        <time>2021-03-25T13:13:28Z</time>
      </trkpt>
      <trkpt lat="42.8751" lon="0.14263">
        <ele>2144.8</ele>
        <time>2021-03-25T13:13:29Z</time>
      </trkpt>
      <trkpt lat="42.8751" lon="0.14263">
        <ele>2144.8</ele>
        <time>2021-03-25T13:13:31Z</time>
      </trkpt>
      <trkpt lat="42.87509" lon="0.14262">
        <ele>2144.8</ele>
        <time>2021-03-25T13:13:32Z</time>
      </trkpt>
      <trkpt lat="42.87509" lon="0.14262">
        <ele>2144.8</ele>
        <time>2021-03-25T13:13:33Z</time>
      </trkpt>
      <trkpt lat="42.87509" lon="0.14261">
        <ele>2144.8</ele>
        <time>2021-03-25T13:13:34Z</time>
      </trkpt>
      <trkpt lat="42.87509" lon="0.1426">
        <ele>2145.5</ele>
        <time>2021-03-25T13:13:35Z</time>
      </trkpt>
      <trkpt lat="42.87509" lon="0.1426">
        <ele>2145.5</ele>
        <time>2021-03-25T13:13:36Z</time>
      </trkpt>
      <trkpt lat="42.87508" lon="0.14258">
        <ele>2147.5</ele>
        <time>2021-03-25T13:13:38Z</time>
      </trkpt>
      <trkpt lat="42.87508" lon="0.14258">
        <ele>2147.5</ele>
        <time>2021-03-25T13:13:40Z</time>
      </trkpt>
      <trkpt lat="42.87507" lon="0.14258">
        <ele>2147.5</ele>
        <time>2021-03-25T13:13:42Z</time>
      </trkpt>
      <trkpt lat="42.87507" lon="0.14258">
        <ele>2147.5</ele>
        <time>2021-03-25T13:13:43Z</time>
      </trkpt>
      <trkpt lat="42.87507" lon="0.14258">
        <ele>2147.5</ele>
        <time>2021-03-25T13:13:44Z</time>
      </trkpt>
      <trkpt lat="42.87506" lon="0.14258">
        <ele>2147.5</ele>
        <time>2021-03-25T13:13:45Z</time>
      </trkpt>
      <trkpt lat="42.87506" lon="0.14258">
        <ele>2147.5</ele>
        <time>2021-03-25T13:13:47Z</time>
      </trkpt>
      <trkpt lat="42.87505" lon="0.14257">
        <ele>2149.5</ele>
        <time>2021-03-25T13:13:48Z</time>
      </trkpt>
      <trkpt lat="42.87503" lon="0.14256">
        <ele>2150.3</ele>
        <time>2021-03-25T13:13:49Z</time>
      </trkpt>
      <trkpt lat="42.87504" lon="0.14256">
        <ele>2150.3</ele>
        <time>2021-03-25T13:13:51Z</time>
      </trkpt>
      <trkpt lat="42.87505" lon="0.14257">
        <ele>2149.5</ele>
        <time>2021-03-25T13:13:52Z</time>
      </trkpt>
      <trkpt lat="42.87506" lon="0.14257">
        <ele>2147.5</ele>
        <time>2021-03-25T13:13:54Z</time>
      </trkpt>
      <trkpt lat="42.87506" lon="0.14256">
        <ele>2148.3</ele>
        <time>2021-03-25T13:13:56Z</time>
      </trkpt>
      <trkpt lat="42.87506" lon="0.14256">
        <ele>2148.3</ele>
        <time>2021-03-25T13:13:57Z</time>
      </trkpt>
      <trkpt lat="42.87506" lon="0.14256">
        <ele>2148.3</ele>
        <time>2021-03-25T13:13:58Z</time>
      </trkpt>
      <trkpt lat="42.87506" lon="0.14255">
        <ele>2148.3</ele>
        <time>2021-03-25T13:13:59Z</time>
      </trkpt>
      <trkpt lat="42.87506" lon="0.14255">
        <ele>2148.3</ele>
        <time>2021-03-25T13:14:00Z</time>
      </trkpt>
      <trkpt lat="42.87506" lon="0.14254">
        <ele>2148.3</ele>
        <time>2021-03-25T13:14:01Z</time>
      </trkpt>
      <trkpt lat="42.87506" lon="0.14253">
        <ele>2148.3</ele>
        <time>2021-03-25T13:14:02Z</time>
      </trkpt>
      <trkpt lat="42.87506" lon="0.14252">
        <ele>2149.1</ele>
        <time>2021-03-25T13:14:04Z</time>
      </trkpt>
      <trkpt lat="42.87506" lon="0.14252">
        <ele>2149.1</ele>
        <time>2021-03-25T13:14:05Z</time>
      </trkpt>
      <trkpt lat="42.87505" lon="0.14251">
        <ele>2151.2</ele>
        <time>2021-03-25T13:14:07Z</time>
      </trkpt>
      <trkpt lat="42.87505" lon="0.1425">
        <ele>2151.2</ele>
        <time>2021-03-25T13:14:08Z</time>
      </trkpt>
      <trkpt lat="42.87505" lon="0.1425">
        <ele>2151.2</ele>
        <time>2021-03-25T13:14:09Z</time>
      </trkpt>
      <trkpt lat="42.87505" lon="0.14249">
        <ele>2151.2</ele>
        <time>2021-03-25T13:14:11Z</time>
      </trkpt>
      <trkpt lat="42.87505" lon="0.14248">
        <ele>2151.2</ele>
        <time>2021-03-25T13:14:12Z</time>
      </trkpt>
      <trkpt lat="42.87505" lon="0.14248">
        <ele>2151.2</ele>
        <time>2021-03-25T13:14:13Z</time>
      </trkpt>
      <trkpt lat="42.87505" lon="0.14248">
        <ele>2152</ele>
        <time>2021-03-25T13:14:15Z</time>
      </trkpt>
      <trkpt lat="42.87505" lon="0.14248">
        <ele>2152</ele>
        <time>2021-03-25T13:14:16Z</time>
      </trkpt>
      <trkpt lat="42.87505" lon="0.14248">
        <ele>2152</ele>
        <time>2021-03-25T13:14:18Z</time>
      </trkpt>
      <trkpt lat="42.87505" lon="0.14248">
        <ele>2152</ele>
        <time>2021-03-25T13:14:20Z</time>
      </trkpt>
      <trkpt lat="42.87505" lon="0.14248">
        <ele>2151.2</ele>
        <time>2021-03-25T13:14:22Z</time>
      </trkpt>
      <trkpt lat="42.87505" lon="0.14249">
        <ele>2151.2</ele>
        <time>2021-03-25T13:14:23Z</time>
      </trkpt>
      <trkpt lat="42.87505" lon="0.14249">
        <ele>2151.2</ele>
        <time>2021-03-25T13:14:24Z</time>
      </trkpt>
      <trkpt lat="42.87505" lon="0.14248">
        <ele>2151.2</ele>
        <time>2021-03-25T13:14:25Z</time>
      </trkpt>
      <trkpt lat="42.87505" lon="0.14248">
        <ele>2151.2</ele>
        <time>2021-03-25T13:14:26Z</time>
      </trkpt>
      <trkpt lat="42.87504" lon="0.14248">
        <ele>2152</ele>
        <time>2021-03-25T13:14:28Z</time>
      </trkpt>
      <trkpt lat="42.87504" lon="0.14247">
        <ele>2152</ele>
        <time>2021-03-25T13:14:29Z</time>
      </trkpt>
      <trkpt lat="42.87503" lon="0.14246">
        <ele>2152</ele>
        <time>2021-03-25T13:14:31Z</time>
      </trkpt>
      <trkpt lat="42.87501" lon="0.14245">
        <ele>2154.2</ele>
        <time>2021-03-25T13:14:32Z</time>
      </trkpt>
      <trkpt lat="42.875" lon="0.14244">
        <ele>2154.2</ele>
        <time>2021-03-25T13:14:33Z</time>
      </trkpt>
      <trkpt lat="42.875" lon="0.14244">
        <ele>2154.2</ele>
        <time>2021-03-25T13:14:34Z</time>
      </trkpt>
      <trkpt lat="42.875" lon="0.14243">
        <ele>2155</ele>
        <time>2021-03-25T13:14:36Z</time>
      </trkpt>
      <trkpt lat="42.87501" lon="0.14241">
        <ele>2155</ele>
        <time>2021-03-25T13:14:37Z</time>
      </trkpt>
      <trkpt lat="42.87501" lon="0.14239">
        <ele>2155</ele>
        <time>2021-03-25T13:14:39Z</time>
      </trkpt>
      <trkpt lat="42.87502" lon="0.14239">
        <ele>2155.8</ele>
        <time>2021-03-25T13:14:40Z</time>
      </trkpt>
      <trkpt lat="42.87502" lon="0.14239">
        <ele>2155.8</ele>
        <time>2021-03-25T13:14:41Z</time>
      </trkpt>
      <trkpt lat="42.87502" lon="0.14239">
        <ele>2153.7</ele>
        <time>2021-03-25T13:14:42Z</time>
      </trkpt>
      <trkpt lat="42.87503" lon="0.14239">
        <ele>2153.7</ele>
        <time>2021-03-25T13:14:43Z</time>
      </trkpt>
      <trkpt lat="42.87503" lon="0.14239">
        <ele>2153.7</ele>
        <time>2021-03-25T13:14:44Z</time>
      </trkpt>
      <trkpt lat="42.87503" lon="0.14238">
        <ele>2153.7</ele>
        <time>2021-03-25T13:14:46Z</time>
      </trkpt>
      <trkpt lat="42.87503" lon="0.14238">
        <ele>2153.7</ele>
        <time>2021-03-25T13:14:47Z</time>
      </trkpt>
      <trkpt lat="42.87503" lon="0.14238">
        <ele>2153.7</ele>
        <time>2021-03-25T13:14:48Z</time>
      </trkpt>
      <trkpt lat="42.87502" lon="0.14237">
        <ele>2153.7</ele>
        <time>2021-03-25T13:14:49Z</time>
      </trkpt>
      <trkpt lat="42.87502" lon="0.14237">
        <ele>2155.8</ele>
        <time>2021-03-25T13:14:50Z</time>
      </trkpt>
      <trkpt lat="42.87502" lon="0.14237">
        <ele>2155.8</ele>
        <time>2021-03-25T13:14:52Z</time>
      </trkpt>
      <trkpt lat="42.87502" lon="0.14236">
        <ele>2155.8</ele>
        <time>2021-03-25T13:14:54Z</time>
      </trkpt>
      <trkpt lat="42.87502" lon="0.14236">
        <ele>2155.8</ele>
        <time>2021-03-25T13:14:55Z</time>
      </trkpt>
      <trkpt lat="42.87501" lon="0.14236">
        <ele>2155.8</ele>
        <time>2021-03-25T13:14:56Z</time>
      </trkpt>
      <trkpt lat="42.87502" lon="0.14236">
        <ele>2155.8</ele>
        <time>2021-03-25T13:14:58Z</time>
      </trkpt>
      <trkpt lat="42.87502" lon="0.14236">
        <ele>2155.8</ele>
        <time>2021-03-25T13:14:59Z</time>
      </trkpt>
      <trkpt lat="42.87502" lon="0.14236">
        <ele>2155.8</ele>
        <time>2021-03-25T13:15:00Z</time>
      </trkpt>
      <trkpt lat="42.87502" lon="0.14236">
        <ele>2155.8</ele>
        <time>2021-03-25T13:15:02Z</time>
      </trkpt>
      <trkpt lat="42.87502" lon="0.14236">
        <ele>2155.8</ele>
        <time>2021-03-25T13:15:03Z</time>
      </trkpt>
      <trkpt lat="42.87501" lon="0.14236">
        <ele>2155.8</ele>
        <time>2021-03-25T13:15:04Z</time>
      </trkpt>
      <trkpt lat="42.87502" lon="0.14236">
        <ele>2155.8</ele>
        <time>2021-03-25T13:15:05Z</time>
      </trkpt>
      <trkpt lat="42.87501" lon="0.14236">
        <ele>2155.8</ele>
        <time>2021-03-25T13:15:07Z</time>
      </trkpt>
      <trkpt lat="42.87501" lon="0.14235">
        <ele>2155.8</ele>
        <time>2021-03-25T13:15:09Z</time>
      </trkpt>
      <trkpt lat="42.87501" lon="0.14235">
        <ele>2155.8</ele>
        <time>2021-03-25T13:15:10Z</time>
      </trkpt>
      <trkpt lat="42.87501" lon="0.14235">
        <ele>2155.8</ele>
        <time>2021-03-25T13:15:11Z</time>
      </trkpt>
      <trkpt lat="42.875" lon="0.14235">
        <ele>2156.6</ele>
        <time>2021-03-25T13:15:12Z</time>
      </trkpt>
      <trkpt lat="42.875" lon="0.14235">
        <ele>2156.6</ele>
        <time>2021-03-25T13:15:14Z</time>
      </trkpt>
      <trkpt lat="42.87499" lon="0.14234">
        <ele>2156.6</ele>
        <time>2021-03-25T13:15:15Z</time>
      </trkpt>
      <trkpt lat="42.87499" lon="0.14234">
        <ele>2158.8</ele>
        <time>2021-03-25T13:15:16Z</time>
      </trkpt>
      <trkpt lat="42.87498" lon="0.14234">
        <ele>2158.8</ele>
        <time>2021-03-25T13:15:18Z</time>
      </trkpt>
      <trkpt lat="42.87497" lon="0.14234">
        <ele>2158.8</ele>
        <time>2021-03-25T13:15:19Z</time>
      </trkpt>
      <trkpt lat="42.87497" lon="0.14233">
        <ele>2158.8</ele>
        <time>2021-03-25T13:15:20Z</time>
      </trkpt>
      <trkpt lat="42.87498" lon="0.14233">
        <ele>2158.8</ele>
        <time>2021-03-25T13:15:22Z</time>
      </trkpt>
      <trkpt lat="42.87498" lon="0.14234">
        <ele>2158.8</ele>
        <time>2021-03-25T13:15:23Z</time>
      </trkpt>
      <trkpt lat="42.87498" lon="0.14234">
        <ele>2158.8</ele>
        <time>2021-03-25T13:15:24Z</time>
      </trkpt>
      <trkpt lat="42.87498" lon="0.14235">
        <ele>2158.8</ele>
        <time>2021-03-25T13:15:26Z</time>
      </trkpt>
      <trkpt lat="42.87498" lon="0.14236">
        <ele>2158</ele>
        <time>2021-03-25T13:15:28Z</time>
      </trkpt>
      <trkpt lat="42.87498" lon="0.14236">
        <ele>2158</ele>
        <time>2021-03-25T13:15:29Z</time>
      </trkpt>
      <trkpt lat="42.87497" lon="0.14236">
        <ele>2158</ele>
        <time>2021-03-25T13:15:30Z</time>
      </trkpt>
      <trkpt lat="42.87495" lon="0.14235">
        <ele>2160.2</ele>
        <time>2021-03-25T13:15:32Z</time>
      </trkpt>
      <trkpt lat="42.87494" lon="0.14236">
        <ele>2160.2</ele>
        <time>2021-03-25T13:15:34Z</time>
      </trkpt>
      <trkpt lat="42.87494" lon="0.14236">
        <ele>2160.2</ele>
        <time>2021-03-25T13:15:35Z</time>
      </trkpt>
      <trkpt lat="42.87494" lon="0.14235">
        <ele>2160.2</ele>
        <time>2021-03-25T13:15:37Z</time>
      </trkpt>
      <trkpt lat="42.87493" lon="0.14234">
        <ele>2161</ele>
        <time>2021-03-25T13:15:38Z</time>
      </trkpt>
      <trkpt lat="42.87492" lon="0.14233">
        <ele>2163.1</ele>
        <time>2021-03-25T13:15:39Z</time>
      </trkpt>
      <trkpt lat="42.87493" lon="0.14231">
        <ele>2161</ele>
        <time>2021-03-25T13:15:41Z</time>
      </trkpt>
      <trkpt lat="42.87493" lon="0.14231">
        <ele>2161</ele>
        <time>2021-03-25T13:15:42Z</time>
      </trkpt>
      <trkpt lat="42.87493" lon="0.14231">
        <ele>2161.7</ele>
        <time>2021-03-25T13:15:43Z</time>
      </trkpt>
      <trkpt lat="42.87493" lon="0.1423">
        <ele>2161.7</ele>
        <time>2021-03-25T13:15:45Z</time>
      </trkpt>
      <trkpt lat="42.87493" lon="0.14229">
        <ele>2161.7</ele>
        <time>2021-03-25T13:15:46Z</time>
      </trkpt>
      <trkpt lat="42.87491" lon="0.14228">
        <ele>2163.8</ele>
        <time>2021-03-25T13:15:47Z</time>
      </trkpt>
      <trkpt lat="42.87491" lon="0.14227">
        <ele>2163.8</ele>
        <time>2021-03-25T13:15:48Z</time>
      </trkpt>
      <trkpt lat="42.8749" lon="0.14227">
        <ele>2163.8</ele>
        <time>2021-03-25T13:15:50Z</time>
      </trkpt>
      <trkpt lat="42.87489" lon="0.14226">
        <ele>2166.4</ele>
        <time>2021-03-25T13:15:51Z</time>
      </trkpt>
      <trkpt lat="42.87487" lon="0.14227">
        <ele>2165.8</ele>
        <time>2021-03-25T13:15:52Z</time>
      </trkpt>
      <trkpt lat="42.87484" lon="0.14228">
        <ele>2167.6</ele>
        <time>2021-03-25T13:15:54Z</time>
      </trkpt>
      <trkpt lat="42.87482" lon="0.14229">
        <ele>2169.5</ele>
        <time>2021-03-25T13:15:55Z</time>
      </trkpt>
      <trkpt lat="42.87481" lon="0.1423">
        <ele>2169.5</ele>
        <time>2021-03-25T13:15:56Z</time>
      </trkpt>
      <trkpt lat="42.87478" lon="0.14232">
        <ele>2170.7</ele>
        <time>2021-03-25T13:15:58Z</time>
      </trkpt>
      <trkpt lat="42.87477" lon="0.14233">
        <ele>2170.7</ele>
        <time>2021-03-25T13:15:59Z</time>
      </trkpt>
      <trkpt lat="42.87477" lon="0.14235">
        <ele>2170.7</ele>
        <time>2021-03-25T13:16:00Z</time>
      </trkpt>
      <trkpt lat="42.87477" lon="0.14237">
        <ele>2169.9</ele>
        <time>2021-03-25T13:16:02Z</time>
      </trkpt>
      <trkpt lat="42.87478" lon="0.14238">
        <ele>2169.9</ele>
        <time>2021-03-25T13:16:03Z</time>
      </trkpt>
      <trkpt lat="42.87478" lon="0.1424">
        <ele>2169</ele>
        <time>2021-03-25T13:16:05Z</time>
      </trkpt>
      <trkpt lat="42.87479" lon="0.14241">
        <ele>2169</ele>
        <time>2021-03-25T13:16:07Z</time>
      </trkpt>
      <trkpt lat="42.87479" lon="0.14242">
        <ele>2169</ele>
        <time>2021-03-25T13:16:09Z</time>
      </trkpt>
      <trkpt lat="42.87479" lon="0.14242">
        <ele>2169</ele>
        <time>2021-03-25T13:16:11Z</time>
      </trkpt>
      <trkpt lat="42.87479" lon="0.14243">
        <ele>2169</ele>
        <time>2021-03-25T13:16:12Z</time>
      </trkpt>
      <trkpt lat="42.87479" lon="0.14243">
        <ele>2169</ele>
        <time>2021-03-25T13:16:13Z</time>
      </trkpt>
      <trkpt lat="42.87479" lon="0.14243">
        <ele>2169</ele>
        <time>2021-03-25T13:16:15Z</time>
      </trkpt>
      <trkpt lat="42.87479" lon="0.14243">
        <ele>2169</ele>
        <time>2021-03-25T13:16:16Z</time>
      </trkpt>
      <trkpt lat="42.87478" lon="0.14243">
        <ele>2169</ele>
        <time>2021-03-25T13:16:17Z</time>
      </trkpt>
      <trkpt lat="42.87478" lon="0.14243">
        <ele>2169</ele>
        <time>2021-03-25T13:16:19Z</time>
      </trkpt>
      <trkpt lat="42.87477" lon="0.14243">
        <ele>2169</ele>
        <time>2021-03-25T13:16:20Z</time>
      </trkpt>
      <trkpt lat="42.87477" lon="0.14243">
        <ele>2171.1</ele>
        <time>2021-03-25T13:16:22Z</time>
      </trkpt>
      <trkpt lat="42.87477" lon="0.14242">
        <ele>2171.1</ele>
        <time>2021-03-25T13:16:24Z</time>
      </trkpt>
      <trkpt lat="42.87477" lon="0.14242">
        <ele>2169</ele>
        <time>2021-03-25T13:16:26Z</time>
      </trkpt>
      <trkpt lat="42.87477" lon="0.14241">
        <ele>2171.1</ele>
        <time>2021-03-25T13:16:27Z</time>
      </trkpt>
      <trkpt lat="42.87476" lon="0.14241">
        <ele>2171.1</ele>
        <time>2021-03-25T13:16:29Z</time>
      </trkpt>
      <trkpt lat="42.87476" lon="0.14241">
        <ele>2171.1</ele>
        <time>2021-03-25T13:16:30Z</time>
      </trkpt>
      <trkpt lat="42.87475" lon="0.1424">
        <ele>2171.1</ele>
        <time>2021-03-25T13:16:32Z</time>
      </trkpt>
      <trkpt lat="42.87476" lon="0.1424">
        <ele>2171.1</ele>
        <time>2021-03-25T13:16:33Z</time>
      </trkpt>
      <trkpt lat="42.87476" lon="0.1424">
        <ele>2171.1</ele>
        <time>2021-03-25T13:16:34Z</time>
      </trkpt>
      <trkpt lat="42.87476" lon="0.1424">
        <ele>2171.1</ele>
        <time>2021-03-25T13:16:35Z</time>
      </trkpt>
      <trkpt lat="42.87476" lon="0.14241">
        <ele>2171.1</ele>
        <time>2021-03-25T13:16:37Z</time>
      </trkpt>
      <trkpt lat="42.87476" lon="0.14241">
        <ele>2171.1</ele>
        <time>2021-03-25T13:16:38Z</time>
      </trkpt>
      <trkpt lat="42.87476" lon="0.14241">
        <ele>2171.1</ele>
        <time>2021-03-25T13:16:40Z</time>
      </trkpt>
      <trkpt lat="42.87476" lon="0.14241">
        <ele>2171.1</ele>
        <time>2021-03-25T13:16:41Z</time>
      </trkpt>
      <trkpt lat="42.87475" lon="0.14241">
        <ele>2171.1</ele>
        <time>2021-03-25T13:16:42Z</time>
      </trkpt>
      <trkpt lat="42.87475" lon="0.14242">
        <ele>2171.1</ele>
        <time>2021-03-25T13:16:43Z</time>
      </trkpt>
      <trkpt lat="42.87475" lon="0.14242">
        <ele>2171.1</ele>
        <time>2021-03-25T13:16:44Z</time>
      </trkpt>
      <trkpt lat="42.87476" lon="0.14241">
        <ele>2171.1</ele>
        <time>2021-03-25T13:16:46Z</time>
      </trkpt>
      <trkpt lat="42.87477" lon="0.14241">
        <ele>2171.1</ele>
        <time>2021-03-25T13:16:47Z</time>
      </trkpt>
      <trkpt lat="42.87477" lon="0.14241">
        <ele>2171.1</ele>
        <time>2021-03-25T13:16:49Z</time>
      </trkpt>
      <trkpt lat="42.87477" lon="0.14241">
        <ele>2171.1</ele>
        <time>2021-03-25T13:16:50Z</time>
      </trkpt>
      <trkpt lat="42.87477" lon="0.14241">
        <ele>2171.1</ele>
        <time>2021-03-25T13:16:52Z</time>
      </trkpt>
      <trkpt lat="42.87476" lon="0.14241">
        <ele>2171.1</ele>
        <time>2021-03-25T13:16:53Z</time>
      </trkpt>
      <trkpt lat="42.87476" lon="0.14241">
        <ele>2171.1</ele>
        <time>2021-03-25T13:16:54Z</time>
      </trkpt>
      <trkpt lat="42.87476" lon="0.1424">
        <ele>2171.1</ele>
        <time>2021-03-25T13:16:55Z</time>
      </trkpt>
      <trkpt lat="42.87475" lon="0.1424">
        <ele>2171.1</ele>
        <time>2021-03-25T13:16:57Z</time>
      </trkpt>
      <trkpt lat="42.87475" lon="0.1424">
        <ele>2171.1</ele>
        <time>2021-03-25T13:16:58Z</time>
      </trkpt>
      <trkpt lat="42.87473" lon="0.1424">
        <ele>2173.2</ele>
        <time>2021-03-25T13:17:00Z</time>
      </trkpt>
      <trkpt lat="42.87472" lon="0.14239">
        <ele>2174.1</ele>
        <time>2021-03-25T13:17:02Z</time>
      </trkpt>
      <trkpt lat="42.87472" lon="0.14239">
        <ele>2174.1</ele>
        <time>2021-03-25T13:17:03Z</time>
      </trkpt>
      <trkpt lat="42.87471" lon="0.14238">
        <ele>2174.1</ele>
        <time>2021-03-25T13:17:04Z</time>
      </trkpt>
      <trkpt lat="42.8747" lon="0.14238">
        <ele>2176.3</ele>
        <time>2021-03-25T13:17:06Z</time>
      </trkpt>
      <trkpt lat="42.8747" lon="0.14238">
        <ele>2176.3</ele>
        <time>2021-03-25T13:17:07Z</time>
      </trkpt>
      <trkpt lat="42.87469" lon="0.14237">
        <ele>2176.3</ele>
        <time>2021-03-25T13:17:08Z</time>
      </trkpt>
      <trkpt lat="42.87468" lon="0.14237">
        <ele>2176.3</ele>
        <time>2021-03-25T13:17:10Z</time>
      </trkpt>
      <trkpt lat="42.87468" lon="0.14236">
        <ele>2176.3</ele>
        <time>2021-03-25T13:17:11Z</time>
      </trkpt>
      <trkpt lat="42.87467" lon="0.14236">
        <ele>2178.3</ele>
        <time>2021-03-25T13:17:13Z</time>
      </trkpt>
      <trkpt lat="42.87466" lon="0.14235">
        <ele>2178.3</ele>
        <time>2021-03-25T13:17:14Z</time>
      </trkpt>
      <trkpt lat="42.87466" lon="0.14235">
        <ele>2179.2</ele>
        <time>2021-03-25T13:17:15Z</time>
      </trkpt>
      <trkpt lat="42.87465" lon="0.14235">
        <ele>2179.2</ele>
        <time>2021-03-25T13:17:17Z</time>
      </trkpt>
      <trkpt lat="42.87464" lon="0.14234">
        <ele>2179.2</ele>
        <time>2021-03-25T13:17:18Z</time>
      </trkpt>
      <trkpt lat="42.87464" lon="0.14234">
        <ele>2181.1</ele>
        <time>2021-03-25T13:17:19Z</time>
      </trkpt>
      <trkpt lat="42.87464" lon="0.14234">
        <ele>2181.1</ele>
        <time>2021-03-25T13:17:20Z</time>
      </trkpt>
      <trkpt lat="42.87463" lon="0.14234">
        <ele>2181.1</ele>
        <time>2021-03-25T13:17:22Z</time>
      </trkpt>
      <trkpt lat="42.87463" lon="0.14233">
        <ele>2181.1</ele>
        <time>2021-03-25T13:17:23Z</time>
      </trkpt>
      <trkpt lat="42.87462" lon="0.14233">
        <ele>2181.1</ele>
        <time>2021-03-25T13:17:25Z</time>
      </trkpt>
      <trkpt lat="42.87462" lon="0.14233">
        <ele>2181.1</ele>
        <time>2021-03-25T13:17:26Z</time>
      </trkpt>
      <trkpt lat="42.87462" lon="0.14233">
        <ele>2181.1</ele>
        <time>2021-03-25T13:17:27Z</time>
      </trkpt>
      <trkpt lat="42.87462" lon="0.14233">
        <ele>2181.1</ele>
        <time>2021-03-25T13:17:29Z</time>
      </trkpt>
      <trkpt lat="42.87462" lon="0.14233">
        <ele>2181.1</ele>
        <time>2021-03-25T13:17:30Z</time>
      </trkpt>
      <trkpt lat="42.87462" lon="0.14233">
        <ele>2181.1</ele>
        <time>2021-03-25T13:17:31Z</time>
      </trkpt>
      <trkpt lat="42.87462" lon="0.14233">
        <ele>2181.1</ele>
        <time>2021-03-25T13:17:33Z</time>
      </trkpt>
      <trkpt lat="42.87462" lon="0.14233">
        <ele>2181.1</ele>
        <time>2021-03-25T13:17:34Z</time>
      </trkpt>
      <trkpt lat="42.87462" lon="0.14232">
        <ele>2181.1</ele>
        <time>2021-03-25T13:17:35Z</time>
      </trkpt>
      <trkpt lat="42.87462" lon="0.14232">
        <ele>2181.1</ele>
        <time>2021-03-25T13:17:36Z</time>
      </trkpt>
      <trkpt lat="42.87462" lon="0.14232">
        <ele>2181.1</ele>
        <time>2021-03-25T13:17:37Z</time>
      </trkpt>
      <trkpt lat="42.87461" lon="0.14231">
        <ele>2181.1</ele>
        <time>2021-03-25T13:17:39Z</time>
      </trkpt>
      <trkpt lat="42.87461" lon="0.14231">
        <ele>2183.7</ele>
        <time>2021-03-25T13:17:41Z</time>
      </trkpt>
      <trkpt lat="42.87461" lon="0.1423">
        <ele>2183.7</ele>
        <time>2021-03-25T13:17:42Z</time>
      </trkpt>
      <trkpt lat="42.87461" lon="0.1423">
        <ele>2183.7</ele>
        <time>2021-03-25T13:17:43Z</time>
      </trkpt>
      <trkpt lat="42.8746" lon="0.1423">
        <ele>2183.7</ele>
        <time>2021-03-25T13:17:44Z</time>
      </trkpt>
      <trkpt lat="42.8746" lon="0.1423">
        <ele>2183.7</ele>
        <time>2021-03-25T13:17:45Z</time>
      </trkpt>
      <trkpt lat="42.8746" lon="0.1423">
        <ele>2183.7</ele>
        <time>2021-03-25T13:17:46Z</time>
      </trkpt>
      <trkpt lat="42.8746" lon="0.1423">
        <ele>2183.7</ele>
        <time>2021-03-25T13:17:47Z</time>
      </trkpt>
      <trkpt lat="42.8746" lon="0.1423">
        <ele>2183.7</ele>
        <time>2021-03-25T13:17:49Z</time>
      </trkpt>
      <trkpt lat="42.8746" lon="0.1423">
        <ele>2183.7</ele>
        <time>2021-03-25T13:17:50Z</time>
      </trkpt>
      <trkpt lat="42.8746" lon="0.14229">
        <ele>2183.7</ele>
        <time>2021-03-25T13:17:52Z</time>
      </trkpt>
      <trkpt lat="42.87459" lon="0.14229">
        <ele>2183.7</ele>
        <time>2021-03-25T13:17:54Z</time>
      </trkpt>
      <trkpt lat="42.87459" lon="0.14229">
        <ele>2183.7</ele>
        <time>2021-03-25T13:17:55Z</time>
      </trkpt>
      <trkpt lat="42.87459" lon="0.14229">
        <ele>2183.7</ele>
        <time>2021-03-25T13:17:56Z</time>
      </trkpt>
      <trkpt lat="42.87459" lon="0.14229">
        <ele>2183.7</ele>
        <time>2021-03-25T13:17:57Z</time>
      </trkpt>
      <trkpt lat="42.87458" lon="0.14228">
        <ele>2183.7</ele>
        <time>2021-03-25T13:17:59Z</time>
      </trkpt>
      <trkpt lat="42.87458" lon="0.14228">
        <ele>2185.4</ele>
        <time>2021-03-25T13:18:01Z</time>
      </trkpt>
      <trkpt lat="42.87457" lon="0.14228">
        <ele>2185.4</ele>
        <time>2021-03-25T13:18:02Z</time>
      </trkpt>
      <trkpt lat="42.87457" lon="0.14227">
        <ele>2185.4</ele>
        <time>2021-03-25T13:18:03Z</time>
      </trkpt>
      <trkpt lat="42.87456" lon="0.14227">
        <ele>2185.4</ele>
        <time>2021-03-25T13:18:04Z</time>
      </trkpt>
      <trkpt lat="42.87456" lon="0.14227">
        <ele>2185.4</ele>
        <time>2021-03-25T13:18:05Z</time>
      </trkpt>
      <trkpt lat="42.87455" lon="0.14226">
        <ele>2188</ele>
        <time>2021-03-25T13:18:07Z</time>
      </trkpt>
      <trkpt lat="42.87454" lon="0.14225">
        <ele>2188</ele>
        <time>2021-03-25T13:18:09Z</time>
      </trkpt>
      <trkpt lat="42.87455" lon="0.14225">
        <ele>2186.2</ele>
        <time>2021-03-25T13:18:10Z</time>
      </trkpt>
      <trkpt lat="42.87457" lon="0.14225">
        <ele>2186.2</ele>
        <time>2021-03-25T13:18:11Z</time>
      </trkpt>
      <trkpt lat="42.87458" lon="0.14225">
        <ele>2184.5</ele>
        <time>2021-03-25T13:18:12Z</time>
      </trkpt>
      <trkpt lat="42.87459" lon="0.14225">
        <ele>2184.5</ele>
        <time>2021-03-25T13:18:13Z</time>
      </trkpt>
      <trkpt lat="42.8746" lon="0.14224">
        <ele>2184.5</ele>
        <time>2021-03-25T13:18:15Z</time>
      </trkpt>
      <trkpt lat="42.8746" lon="0.14224">
        <ele>2184.5</ele>
        <time>2021-03-25T13:18:17Z</time>
      </trkpt>
      <trkpt lat="42.8746" lon="0.14223">
        <ele>2184.5</ele>
        <time>2021-03-25T13:18:18Z</time>
      </trkpt>
      <trkpt lat="42.87459" lon="0.14223">
        <ele>2184.5</ele>
        <time>2021-03-25T13:18:19Z</time>
      </trkpt>
      <trkpt lat="42.87458" lon="0.14223">
        <ele>2184.5</ele>
        <time>2021-03-25T13:18:20Z</time>
      </trkpt>
      <trkpt lat="42.87458" lon="0.14222">
        <ele>2186.9</ele>
        <time>2021-03-25T13:18:22Z</time>
      </trkpt>
      <trkpt lat="42.87456" lon="0.14221">
        <ele>2186.9</ele>
        <time>2021-03-25T13:18:24Z</time>
      </trkpt>
      <trkpt lat="42.87455" lon="0.1422">
        <ele>2186.9</ele>
        <time>2021-03-25T13:18:25Z</time>
      </trkpt>
      <trkpt lat="42.87454" lon="0.1422">
        <ele>2188.7</ele>
        <time>2021-03-25T13:18:27Z</time>
      </trkpt>
      <trkpt lat="42.87453" lon="0.14219">
        <ele>2188.7</ele>
        <time>2021-03-25T13:18:28Z</time>
      </trkpt>
      <trkpt lat="42.87455" lon="0.1422">
        <ele>2186.9</ele>
        <time>2021-03-25T13:18:29Z</time>
      </trkpt>
      <trkpt lat="42.87459" lon="0.14222">
        <ele>2185.2</ele>
        <time>2021-03-25T13:18:31Z</time>
      </trkpt>
      <trkpt lat="42.87462" lon="0.14224">
        <ele>2182.7</ele>
        <time>2021-03-25T13:18:32Z</time>
      </trkpt>
      <trkpt lat="42.87463" lon="0.14227">
        <ele>2181.9</ele>
        <time>2021-03-25T13:18:34Z</time>
      </trkpt>
      <trkpt lat="42.87463" lon="0.14229">
        <ele>2181.9</ele>
        <time>2021-03-25T13:18:35Z</time>
      </trkpt>
      <trkpt lat="42.87463" lon="0.14231">
        <ele>2181.9</ele>
        <time>2021-03-25T13:18:37Z</time>
      </trkpt>
      <trkpt lat="42.87462" lon="0.14231">
        <ele>2181.1</ele>
        <time>2021-03-25T13:18:38Z</time>
      </trkpt>
      <trkpt lat="42.87461" lon="0.14232">
        <ele>2182.9</ele>
        <time>2021-03-25T13:18:39Z</time>
      </trkpt>
      <trkpt lat="42.87461" lon="0.14233">
        <ele>2182.9</ele>
        <time>2021-03-25T13:18:40Z</time>
      </trkpt>
      <trkpt lat="42.87458" lon="0.14235">
        <ele>2184.6</ele>
        <time>2021-03-25T13:18:42Z</time>
      </trkpt>
      <trkpt lat="42.87459" lon="0.14241">
        <ele>2181.1</ele>
        <time>2021-03-25T13:18:43Z</time>
      </trkpt>
      <trkpt lat="42.87461" lon="0.14245">
        <ele>2180.2</ele>
        <time>2021-03-25T13:18:44Z</time>
      </trkpt>
      <trkpt lat="42.87466" lon="0.1426">
        <ele>2173.7</ele>
        <time>2021-03-25T13:18:46Z</time>
      </trkpt>
      <trkpt lat="42.87467" lon="0.14263">
        <ele>2172.9</ele>
        <time>2021-03-25T13:18:47Z</time>
      </trkpt>
      <trkpt lat="42.87467" lon="0.14267">
        <ele>2172.1</ele>
        <time>2021-03-25T13:18:49Z</time>
      </trkpt>
      <trkpt lat="42.87467" lon="0.14268">
        <ele>2172.1</ele>
        <time>2021-03-25T13:18:51Z</time>
      </trkpt>
      <trkpt lat="42.87467" lon="0.14269">
        <ele>2172.1</ele>
        <time>2021-03-25T13:18:52Z</time>
      </trkpt>
      <trkpt lat="42.87466" lon="0.14269">
        <ele>2172.1</ele>
        <time>2021-03-25T13:18:53Z</time>
      </trkpt>
      <trkpt lat="42.87466" lon="0.1427">
        <ele>2171.3</ele>
        <time>2021-03-25T13:18:54Z</time>
      </trkpt>
      <trkpt lat="42.87466" lon="0.14271">
        <ele>2171.3</ele>
        <time>2021-03-25T13:18:56Z</time>
      </trkpt>
      <trkpt lat="42.87465" lon="0.14271">
        <ele>2171.3</ele>
        <time>2021-03-25T13:18:58Z</time>
      </trkpt>
      <trkpt lat="42.87465" lon="0.14272">
        <ele>2171.3</ele>
        <time>2021-03-25T13:18:59Z</time>
      </trkpt>
      <trkpt lat="42.87464" lon="0.14272">
        <ele>2173.3</ele>
        <time>2021-03-25T13:19:01Z</time>
      </trkpt>
      <trkpt lat="42.87464" lon="0.14273">
        <ele>2173.3</ele>
        <time>2021-03-25T13:19:02Z</time>
      </trkpt>
      <trkpt lat="42.87464" lon="0.14274">
        <ele>2172.5</ele>
        <time>2021-03-25T13:19:04Z</time>
      </trkpt>
      <trkpt lat="42.87463" lon="0.14274">
        <ele>2172.5</ele>
        <time>2021-03-25T13:19:06Z</time>
      </trkpt>
      <trkpt lat="42.87463" lon="0.14275">
        <ele>2172.5</ele>
        <time>2021-03-25T13:19:08Z</time>
      </trkpt>
      <trkpt lat="42.87463" lon="0.14276">
        <ele>2172.5</ele>
        <time>2021-03-25T13:19:09Z</time>
      </trkpt>
      <trkpt lat="42.87462" lon="0.14276">
        <ele>2172.5</ele>
        <time>2021-03-25T13:19:10Z</time>
      </trkpt>
      <trkpt lat="42.87462" lon="0.14277">
        <ele>2172.5</ele>
        <time>2021-03-25T13:19:11Z</time>
      </trkpt>
      <trkpt lat="42.87461" lon="0.14278">
        <ele>2172.5</ele>
        <time>2021-03-25T13:19:12Z</time>
      </trkpt>
      <trkpt lat="42.87461" lon="0.14278">
        <ele>2173.5</ele>
        <time>2021-03-25T13:19:14Z</time>
      </trkpt>
      <trkpt lat="42.87461" lon="0.14279">
        <ele>2173.5</ele>
        <time>2021-03-25T13:19:16Z</time>
      </trkpt>
      <trkpt lat="42.8746" lon="0.1428">
        <ele>2173.5</ele>
        <time>2021-03-25T13:19:17Z</time>
      </trkpt>
      <trkpt lat="42.87459" lon="0.14281">
        <ele>2173.5</ele>
        <time>2021-03-25T13:19:18Z</time>
      </trkpt>
      <trkpt lat="42.87459" lon="0.14282">
        <ele>2173.5</ele>
        <time>2021-03-25T13:19:19Z</time>
      </trkpt>
      <trkpt lat="42.87462" lon="0.1428">
        <ele>2171.6</ele>
        <time>2021-03-25T13:19:21Z</time>
      </trkpt>
      <trkpt lat="42.87462" lon="0.1428">
        <ele>2171.6</ele>
        <time>2021-03-25T13:19:22Z</time>
      </trkpt>
      <trkpt lat="42.87459" lon="0.14281">
        <ele>2173.5</ele>
        <time>2021-03-25T13:19:24Z</time>
      </trkpt>
      <trkpt lat="42.87459" lon="0.14281">
        <ele>2173.5</ele>
        <time>2021-03-25T13:19:25Z</time>
      </trkpt>
      <trkpt lat="42.87458" lon="0.14282">
        <ele>2173.5</ele>
        <time>2021-03-25T13:19:26Z</time>
      </trkpt>
      <trkpt lat="42.87457" lon="0.14283">
        <ele>2173.9</ele>
        <time>2021-03-25T13:19:28Z</time>
      </trkpt>
      <trkpt lat="42.87456" lon="0.14284">
        <ele>2173.9</ele>
        <time>2021-03-25T13:19:29Z</time>
      </trkpt>
      <trkpt lat="42.87455" lon="0.14286">
        <ele>2175.8</ele>
        <time>2021-03-25T13:19:30Z</time>
      </trkpt>
      <trkpt lat="42.87453" lon="0.14287">
        <ele>2174.9</ele>
        <time>2021-03-25T13:19:31Z</time>
      </trkpt>
      <trkpt lat="42.87452" lon="0.14288">
        <ele>2177</ele>
        <time>2021-03-25T13:19:33Z</time>
      </trkpt>
      <trkpt lat="42.8745" lon="0.1429">
        <ele>2177</ele>
        <time>2021-03-25T13:19:34Z</time>
      </trkpt>
      <trkpt lat="42.87449" lon="0.14291">
        <ele>2176</ele>
        <time>2021-03-25T13:19:35Z</time>
      </trkpt>
      <trkpt lat="42.87448" lon="0.14292">
        <ele>2178.3</ele>
        <time>2021-03-25T13:19:36Z</time>
      </trkpt>
      <trkpt lat="42.87448" lon="0.14294">
        <ele>2178.3</ele>
        <time>2021-03-25T13:19:38Z</time>
      </trkpt>
      <trkpt lat="42.87449" lon="0.14294">
        <ele>2176</ele>
        <time>2021-03-25T13:19:39Z</time>
      </trkpt>
      <trkpt lat="42.87449" lon="0.14294">
        <ele>2176</ele>
        <time>2021-03-25T13:19:41Z</time>
      </trkpt>
      <trkpt lat="42.87449" lon="0.14294">
        <ele>2176</ele>
        <time>2021-03-25T13:19:42Z</time>
      </trkpt>
      <trkpt lat="42.87449" lon="0.14294">
        <ele>2176</ele>
        <time>2021-03-25T13:19:43Z</time>
      </trkpt>
      <trkpt lat="42.8745" lon="0.14294">
        <ele>2176</ele>
        <time>2021-03-25T13:19:45Z</time>
      </trkpt>
      <trkpt lat="42.87449" lon="0.14294">
        <ele>2176</ele>
        <time>2021-03-25T13:19:46Z</time>
      </trkpt>
      <trkpt lat="42.87449" lon="0.14293">
        <ele>2176</ele>
        <time>2021-03-25T13:19:47Z</time>
      </trkpt>
      <trkpt lat="42.87448" lon="0.14293">
        <ele>2178.3</ele>
        <time>2021-03-25T13:19:49Z</time>
      </trkpt>
      <trkpt lat="42.87448" lon="0.14293">
        <ele>2178.3</ele>
        <time>2021-03-25T13:19:50Z</time>
      </trkpt>
      <trkpt lat="42.87448" lon="0.14292">
        <ele>2178.3</ele>
        <time>2021-03-25T13:19:51Z</time>
      </trkpt>
      <trkpt lat="42.87448" lon="0.14292">
        <ele>2178.3</ele>
        <time>2021-03-25T13:19:52Z</time>
      </trkpt>
      <trkpt lat="42.87448" lon="0.14292">
        <ele>2178.3</ele>
        <time>2021-03-25T13:19:54Z</time>
      </trkpt>
      <trkpt lat="42.87448" lon="0.14292">
        <ele>2178.3</ele>
        <time>2021-03-25T13:19:55Z</time>
      </trkpt>
      <trkpt lat="42.87448" lon="0.14292">
        <ele>2178.3</ele>
        <time>2021-03-25T13:19:56Z</time>
      </trkpt>
      <trkpt lat="42.87448" lon="0.14292">
        <ele>2178.3</ele>
        <time>2021-03-25T13:19:57Z</time>
      </trkpt>
      <trkpt lat="42.87448" lon="0.14291">
        <ele>2178.3</ele>
        <time>2021-03-25T13:19:59Z</time>
      </trkpt>
      <trkpt lat="42.87447" lon="0.14291">
        <ele>2178.3</ele>
        <time>2021-03-25T13:20:01Z</time>
      </trkpt>
      <trkpt lat="42.87446" lon="0.14291">
        <ele>2179.2</ele>
        <time>2021-03-25T13:20:03Z</time>
      </trkpt>
      <trkpt lat="42.87445" lon="0.1429">
        <ele>2181.5</ele>
        <time>2021-03-25T13:20:04Z</time>
      </trkpt>
      <trkpt lat="42.87444" lon="0.1429">
        <ele>2181.5</ele>
        <time>2021-03-25T13:20:06Z</time>
      </trkpt>
      <trkpt lat="42.87442" lon="0.14289">
        <ele>2181.5</ele>
        <time>2021-03-25T13:20:07Z</time>
      </trkpt>
      <trkpt lat="42.87442" lon="0.14289">
        <ele>2183.7</ele>
        <time>2021-03-25T13:20:08Z</time>
      </trkpt>
      <trkpt lat="42.87441" lon="0.14288">
        <ele>2183.7</ele>
        <time>2021-03-25T13:20:10Z</time>
      </trkpt>
      <trkpt lat="42.8744" lon="0.14288">
        <ele>2183.7</ele>
        <time>2021-03-25T13:20:11Z</time>
      </trkpt>
      <trkpt lat="42.87439" lon="0.14287">
        <ele>2185.7</ele>
        <time>2021-03-25T13:20:12Z</time>
      </trkpt>
      <trkpt lat="42.87438" lon="0.14287">
        <ele>2185.7</ele>
        <time>2021-03-25T13:20:13Z</time>
      </trkpt>
      <trkpt lat="42.87438" lon="0.14286">
        <ele>2186.6</ele>
        <time>2021-03-25T13:20:14Z</time>
      </trkpt>
      <trkpt lat="42.87437" lon="0.14286">
        <ele>2186.6</ele>
        <time>2021-03-25T13:20:15Z</time>
      </trkpt>
      <trkpt lat="42.87436" lon="0.14286">
        <ele>2188.5</ele>
        <time>2021-03-25T13:20:16Z</time>
      </trkpt>
      <trkpt lat="42.87435" lon="0.14286">
        <ele>2188.5</ele>
        <time>2021-03-25T13:20:17Z</time>
      </trkpt>
      <trkpt lat="42.87435" lon="0.14285">
        <ele>2188.5</ele>
        <time>2021-03-25T13:20:18Z</time>
      </trkpt>
      <trkpt lat="42.87435" lon="0.14286">
        <ele>2188.5</ele>
        <time>2021-03-25T13:20:19Z</time>
      </trkpt>
      <trkpt lat="42.87436" lon="0.14286">
        <ele>2186.6</ele>
        <time>2021-03-25T13:20:20Z</time>
      </trkpt>
      <trkpt lat="42.87438" lon="0.14288">
        <ele>2185.7</ele>
        <time>2021-03-25T13:20:21Z</time>
      </trkpt>
      <trkpt lat="42.8744" lon="0.14289">
        <ele>2183.7</ele>
        <time>2021-03-25T13:20:23Z</time>
      </trkpt>
      <trkpt lat="42.87442" lon="0.14291">
        <ele>2183.7</ele>
        <time>2021-03-25T13:20:24Z</time>
      </trkpt>
      <trkpt lat="42.87443" lon="0.14291">
        <ele>2180.5</ele>
        <time>2021-03-25T13:20:25Z</time>
      </trkpt>
      <trkpt lat="42.87444" lon="0.14292">
        <ele>2180.5</ele>
        <time>2021-03-25T13:20:26Z</time>
      </trkpt>
      <trkpt lat="42.87444" lon="0.14293">
        <ele>2180.5</ele>
        <time>2021-03-25T13:20:27Z</time>
      </trkpt>
      <trkpt lat="42.87444" lon="0.14294">
        <ele>2180.5</ele>
        <time>2021-03-25T13:20:29Z</time>
      </trkpt>
      <trkpt lat="42.87445" lon="0.14295">
        <ele>2180.5</ele>
        <time>2021-03-25T13:20:30Z</time>
      </trkpt>
      <trkpt lat="42.87445" lon="0.14296">
        <ele>2179.5</ele>
        <time>2021-03-25T13:20:31Z</time>
      </trkpt>
      <trkpt lat="42.87445" lon="0.14298">
        <ele>2179.5</ele>
        <time>2021-03-25T13:20:33Z</time>
      </trkpt>
      <trkpt lat="42.87444" lon="0.14298">
        <ele>2179.5</ele>
        <time>2021-03-25T13:20:34Z</time>
      </trkpt>
      <trkpt lat="42.87444" lon="0.14299">
        <ele>2179.5</ele>
        <time>2021-03-25T13:20:36Z</time>
      </trkpt>
      <trkpt lat="42.87443" lon="0.14299">
        <ele>2179.5</ele>
        <time>2021-03-25T13:20:37Z</time>
      </trkpt>
      <trkpt lat="42.87443" lon="0.143">
        <ele>2178.5</ele>
        <time>2021-03-25T13:20:38Z</time>
      </trkpt>
      <trkpt lat="42.87439" lon="0.14301">
        <ele>2182.7</ele>
        <time>2021-03-25T13:20:40Z</time>
      </trkpt>
      <trkpt lat="42.87437" lon="0.14301">
        <ele>2182.7</ele>
        <time>2021-03-25T13:20:42Z</time>
      </trkpt>
      <trkpt lat="42.87433" lon="0.14301">
        <ele>2184.6</ele>
        <time>2021-03-25T13:20:44Z</time>
      </trkpt>
      <trkpt lat="42.87432" lon="0.14301">
        <ele>2186.3</ele>
        <time>2021-03-25T13:20:45Z</time>
      </trkpt>
      <trkpt lat="42.8743" lon="0.14301">
        <ele>2186.3</ele>
        <time>2021-03-25T13:20:46Z</time>
      </trkpt>
      <trkpt lat="42.87429" lon="0.14301">
        <ele>2188.1</ele>
        <time>2021-03-25T13:20:47Z</time>
      </trkpt>
      <trkpt lat="42.87428" lon="0.14304">
        <ele>2188.1</ele>
        <time>2021-03-25T13:20:49Z</time>
      </trkpt>
      <trkpt lat="42.87429" lon="0.14306">
        <ele>2187.1</ele>
        <time>2021-03-25T13:20:51Z</time>
      </trkpt>
      <trkpt lat="42.8743" lon="0.14307">
        <ele>2185.3</ele>
        <time>2021-03-25T13:20:52Z</time>
      </trkpt>
      <trkpt lat="42.87431" lon="0.14308">
        <ele>2184.3</ele>
        <time>2021-03-25T13:20:54Z</time>
      </trkpt>
      <trkpt lat="42.87431" lon="0.14309">
        <ele>2184.3</ele>
        <time>2021-03-25T13:20:55Z</time>
      </trkpt>
      <trkpt lat="42.87432" lon="0.14309">
        <ele>2184.3</ele>
        <time>2021-03-25T13:20:57Z</time>
      </trkpt>
      <trkpt lat="42.87432" lon="0.14309">
        <ele>2184.3</ele>
        <time>2021-03-25T13:20:58Z</time>
      </trkpt>
      <trkpt lat="42.87432" lon="0.1431">
        <ele>2184.3</ele>
        <time>2021-03-25T13:21:00Z</time>
      </trkpt>
      <trkpt lat="42.87431" lon="0.1431">
        <ele>2184.3</ele>
        <time>2021-03-25T13:21:02Z</time>
      </trkpt>
      <trkpt lat="42.87432" lon="0.1431">
        <ele>2184.3</ele>
        <time>2021-03-25T13:21:04Z</time>
      </trkpt>
      <trkpt lat="42.87433" lon="0.14309">
        <ele>2184.3</ele>
        <time>2021-03-25T13:21:05Z</time>
      </trkpt>
      <trkpt lat="42.87434" lon="0.14309">
        <ele>2182.5</ele>
        <time>2021-03-25T13:21:07Z</time>
      </trkpt>
      <trkpt lat="42.87434" lon="0.14309">
        <ele>2182.5</ele>
        <time>2021-03-25T13:21:09Z</time>
      </trkpt>
      <trkpt lat="42.87434" lon="0.14309">
        <ele>2182.5</ele>
        <time>2021-03-25T13:21:10Z</time>
      </trkpt>
      <trkpt lat="42.87434" lon="0.14309">
        <ele>2182.5</ele>
        <time>2021-03-25T13:21:12Z</time>
      </trkpt>
      <trkpt lat="42.87434" lon="0.14309">
        <ele>2182.5</ele>
        <time>2021-03-25T13:21:13Z</time>
      </trkpt>
      <trkpt lat="42.87433" lon="0.14309">
        <ele>2182.5</ele>
        <time>2021-03-25T13:21:15Z</time>
      </trkpt>
      <trkpt lat="42.87433" lon="0.14309">
        <ele>2182.5</ele>
        <time>2021-03-25T13:21:16Z</time>
      </trkpt>
      <trkpt lat="42.87433" lon="0.14309">
        <ele>2182.5</ele>
        <time>2021-03-25T13:21:18Z</time>
      </trkpt>
      <trkpt lat="42.87433" lon="0.14309">
        <ele>2182.5</ele>
        <time>2021-03-25T13:21:19Z</time>
      </trkpt>
      <trkpt lat="42.87434" lon="0.14309">
        <ele>2182.5</ele>
        <time>2021-03-25T13:21:20Z</time>
      </trkpt>
      <trkpt lat="42.87433" lon="0.14309">
        <ele>2182.5</ele>
        <time>2021-03-25T13:21:21Z</time>
      </trkpt>
      <trkpt lat="42.87433" lon="0.14309">
        <ele>2182.5</ele>
        <time>2021-03-25T13:21:23Z</time>
      </trkpt>
      <trkpt lat="42.87433" lon="0.14308">
        <ele>2182.5</ele>
        <time>2021-03-25T13:21:25Z</time>
      </trkpt>
      <trkpt lat="42.87433" lon="0.14308">
        <ele>2182.5</ele>
        <time>2021-03-25T13:21:27Z</time>
      </trkpt>
      <trkpt lat="42.87433" lon="0.14309">
        <ele>2182.5</ele>
        <time>2021-03-25T13:21:29Z</time>
      </trkpt>
      <trkpt lat="42.87433" lon="0.14309">
        <ele>2182.5</ele>
        <time>2021-03-25T13:21:30Z</time>
      </trkpt>
      <trkpt lat="42.87433" lon="0.14309">
        <ele>2184.3</ele>
        <time>2021-03-25T13:21:32Z</time>
      </trkpt>
      <trkpt lat="42.87433" lon="0.14309">
        <ele>2184.3</ele>
        <time>2021-03-25T13:21:33Z</time>
      </trkpt>
      <trkpt lat="42.87432" lon="0.14309">
        <ele>2184.3</ele>
        <time>2021-03-25T13:21:35Z</time>
      </trkpt>
      <trkpt lat="42.87432" lon="0.14308">
        <ele>2184.3</ele>
        <time>2021-03-25T13:21:36Z</time>
      </trkpt>
      <trkpt lat="42.87431" lon="0.14308">
        <ele>2184.3</ele>
        <time>2021-03-25T13:21:37Z</time>
      </trkpt>
      <trkpt lat="42.8743" lon="0.14308">
        <ele>2184.3</ele>
        <time>2021-03-25T13:21:38Z</time>
      </trkpt>
      <trkpt lat="42.8743" lon="0.14308">
        <ele>2185.3</ele>
        <time>2021-03-25T13:21:39Z</time>
      </trkpt>
      <trkpt lat="42.87429" lon="0.14308">
        <ele>2187.1</ele>
        <time>2021-03-25T13:21:40Z</time>
      </trkpt>
      <trkpt lat="42.87428" lon="0.14308">
        <ele>2187.1</ele>
        <time>2021-03-25T13:21:42Z</time>
      </trkpt>
      <trkpt lat="42.87427" lon="0.14307">
        <ele>2187.1</ele>
        <time>2021-03-25T13:21:44Z</time>
      </trkpt>
      <trkpt lat="42.87427" lon="0.14307">
        <ele>2187.1</ele>
        <time>2021-03-25T13:21:46Z</time>
      </trkpt>
      <trkpt lat="42.87426" lon="0.14307">
        <ele>2188.9</ele>
        <time>2021-03-25T13:21:47Z</time>
      </trkpt>
      <trkpt lat="42.87426" lon="0.14307">
        <ele>2188.9</ele>
        <time>2021-03-25T13:21:48Z</time>
      </trkpt>
      <trkpt lat="42.87425" lon="0.14307">
        <ele>2188.9</ele>
        <time>2021-03-25T13:21:49Z</time>
      </trkpt>
      <trkpt lat="42.87425" lon="0.14306">
        <ele>2188.9</ele>
        <time>2021-03-25T13:21:50Z</time>
      </trkpt>
      <trkpt lat="42.87425" lon="0.14306">
        <ele>2188.9</ele>
        <time>2021-03-25T13:21:51Z</time>
      </trkpt>
      <trkpt lat="42.87424" lon="0.14306">
        <ele>2188.9</ele>
        <time>2021-03-25T13:21:53Z</time>
      </trkpt>
      <trkpt lat="42.87424" lon="0.14306">
        <ele>2188.9</ele>
        <time>2021-03-25T13:21:55Z</time>
      </trkpt>
      <trkpt lat="42.87424" lon="0.14306">
        <ele>2188.9</ele>
        <time>2021-03-25T13:21:57Z</time>
      </trkpt>
      <trkpt lat="42.87424" lon="0.14305">
        <ele>2188.9</ele>
        <time>2021-03-25T13:21:58Z</time>
      </trkpt>
      <trkpt lat="42.87424" lon="0.14305">
        <ele>2188.9</ele>
        <time>2021-03-25T13:21:59Z</time>
      </trkpt>
      <trkpt lat="42.87423" lon="0.14305">
        <ele>2190.9</ele>
        <time>2021-03-25T13:22:01Z</time>
      </trkpt>
      <trkpt lat="42.87422" lon="0.14305">
        <ele>2190.9</ele>
        <time>2021-03-25T13:22:02Z</time>
      </trkpt>
      <trkpt lat="42.87422" lon="0.14305">
        <ele>2190.9</ele>
        <time>2021-03-25T13:22:04Z</time>
      </trkpt>
      <trkpt lat="42.87421" lon="0.14305">
        <ele>2190.9</ele>
        <time>2021-03-25T13:22:05Z</time>
      </trkpt>
      <trkpt lat="42.8742" lon="0.14305">
        <ele>2192.8</ele>
        <time>2021-03-25T13:22:06Z</time>
      </trkpt>
      <trkpt lat="42.87419" lon="0.14305">
        <ele>2192.8</ele>
        <time>2021-03-25T13:22:07Z</time>
      </trkpt>
      <trkpt lat="42.87418" lon="0.14305">
        <ele>2192.8</ele>
        <time>2021-03-25T13:22:09Z</time>
      </trkpt>
      <trkpt lat="42.87417" lon="0.14305">
        <ele>2192.8</ele>
        <time>2021-03-25T13:22:10Z</time>
      </trkpt>
      <trkpt lat="42.87418" lon="0.14305">
        <ele>2192.8</ele>
        <time>2021-03-25T13:22:12Z</time>
      </trkpt>
      <trkpt lat="42.87416" lon="0.14304">
        <ele>2194.6</ele>
        <time>2021-03-25T13:22:14Z</time>
      </trkpt>
      <trkpt lat="42.87413" lon="0.14305">
        <ele>2196.2</ele>
        <time>2021-03-25T13:22:16Z</time>
      </trkpt>
      <trkpt lat="42.87412" lon="0.14305">
        <ele>2196.2</ele>
        <time>2021-03-25T13:22:17Z</time>
      </trkpt>
      <trkpt lat="42.87409" lon="0.14305">
        <ele>2197.7</ele>
        <time>2021-03-25T13:22:19Z</time>
      </trkpt>
      <trkpt lat="42.87407" lon="0.14305">
        <ele>2199.1</ele>
        <time>2021-03-25T13:22:20Z</time>
      </trkpt>
      <trkpt lat="42.87405" lon="0.14306">
        <ele>2199.1</ele>
        <time>2021-03-25T13:22:22Z</time>
      </trkpt>
      <trkpt lat="42.87403" lon="0.14306">
        <ele>2200.5</ele>
        <time>2021-03-25T13:22:23Z</time>
      </trkpt>
      <trkpt lat="42.87402" lon="0.14307">
        <ele>2200.5</ele>
        <time>2021-03-25T13:22:24Z</time>
      </trkpt>
      <trkpt lat="42.874" lon="0.14307">
        <ele>2201.8</ele>
        <time>2021-03-25T13:22:26Z</time>
      </trkpt>
      <trkpt lat="42.87399" lon="0.14307">
        <ele>2201.8</ele>
        <time>2021-03-25T13:22:27Z</time>
      </trkpt>
      <trkpt lat="42.87399" lon="0.14307">
        <ele>2201.8</ele>
        <time>2021-03-25T13:22:28Z</time>
      </trkpt>
      <trkpt lat="42.87397" lon="0.14308">
        <ele>2203.1</ele>
        <time>2021-03-25T13:22:29Z</time>
      </trkpt>
      <trkpt lat="42.87397" lon="0.14308">
        <ele>2202</ele>
        <time>2021-03-25T13:22:30Z</time>
      </trkpt>
      <trkpt lat="42.87396" lon="0.14308">
        <ele>2202</ele>
        <time>2021-03-25T13:22:32Z</time>
      </trkpt>
      <trkpt lat="42.87396" lon="0.14308">
        <ele>2202</ele>
        <time>2021-03-25T13:22:33Z</time>
      </trkpt>
      <trkpt lat="42.87395" lon="0.14308">
        <ele>2202</ele>
        <time>2021-03-25T13:22:35Z</time>
      </trkpt>
      <trkpt lat="42.87394" lon="0.14308">
        <ele>2204.4</ele>
        <time>2021-03-25T13:22:37Z</time>
      </trkpt>
      <trkpt lat="42.87394" lon="0.14308">
        <ele>2204.4</ele>
        <time>2021-03-25T13:22:38Z</time>
      </trkpt>
      <trkpt lat="42.87394" lon="0.14308">
        <ele>2204.4</ele>
        <time>2021-03-25T13:22:39Z</time>
      </trkpt>
      <trkpt lat="42.87394" lon="0.14308">
        <ele>2204.4</ele>
        <time>2021-03-25T13:22:41Z</time>
      </trkpt>
      <trkpt lat="42.87394" lon="0.14308">
        <ele>2204.4</ele>
        <time>2021-03-25T13:22:42Z</time>
      </trkpt>
      <trkpt lat="42.87394" lon="0.14308">
        <ele>2203.3</ele>
        <time>2021-03-25T13:22:43Z</time>
      </trkpt>
      <trkpt lat="42.87394" lon="0.14308">
        <ele>2203.3</ele>
        <time>2021-03-25T13:22:44Z</time>
      </trkpt>
      <trkpt lat="42.87394" lon="0.14309">
        <ele>2203.3</ele>
        <time>2021-03-25T13:22:46Z</time>
      </trkpt>
      <trkpt lat="42.87393" lon="0.14309">
        <ele>2203.3</ele>
        <time>2021-03-25T13:22:47Z</time>
      </trkpt>
      <trkpt lat="42.87393" lon="0.14309">
        <ele>2203.3</ele>
        <time>2021-03-25T13:22:49Z</time>
      </trkpt>
      <trkpt lat="42.87393" lon="0.14309">
        <ele>2203.3</ele>
        <time>2021-03-25T13:22:51Z</time>
      </trkpt>
      <trkpt lat="42.87393" lon="0.14309">
        <ele>2203.3</ele>
        <time>2021-03-25T13:22:52Z</time>
      </trkpt>
      <trkpt lat="42.87392" lon="0.14309">
        <ele>2203.3</ele>
        <time>2021-03-25T13:22:53Z</time>
      </trkpt>
      <trkpt lat="42.87392" lon="0.14309">
        <ele>2204.5</ele>
        <time>2021-03-25T13:22:54Z</time>
      </trkpt>
      <trkpt lat="42.87391" lon="0.14309">
        <ele>2204.5</ele>
        <time>2021-03-25T13:22:56Z</time>
      </trkpt>
      <trkpt lat="42.8739" lon="0.14309">
        <ele>2204.5</ele>
        <time>2021-03-25T13:22:57Z</time>
      </trkpt>
      <trkpt lat="42.8739" lon="0.14309">
        <ele>2204.5</ele>
        <time>2021-03-25T13:22:58Z</time>
      </trkpt>
      <trkpt lat="42.87388" lon="0.1431">
        <ele>2205.7</ele>
        <time>2021-03-25T13:23:00Z</time>
      </trkpt>
      <trkpt lat="42.87388" lon="0.14311">
        <ele>2205.7</ele>
        <time>2021-03-25T13:23:01Z</time>
      </trkpt>
      <trkpt lat="42.87386" lon="0.14312">
        <ele>2205.7</ele>
        <time>2021-03-25T13:23:03Z</time>
      </trkpt>
      <trkpt lat="42.87385" lon="0.14313">
        <ele>2205.6</ele>
        <time>2021-03-25T13:23:04Z</time>
      </trkpt>
      <trkpt lat="42.87383" lon="0.14315">
        <ele>2205.6</ele>
        <time>2021-03-25T13:23:05Z</time>
      </trkpt>
      <trkpt lat="42.87382" lon="0.14316">
        <ele>2206.7</ele>
        <time>2021-03-25T13:23:06Z</time>
      </trkpt>
      <trkpt lat="42.87381" lon="0.14318">
        <ele>2205.4</ele>
        <time>2021-03-25T13:23:08Z</time>
      </trkpt>
      <trkpt lat="42.8738" lon="0.14318">
        <ele>2205.4</ele>
        <time>2021-03-25T13:23:09Z</time>
      </trkpt>
      <trkpt lat="42.87379" lon="0.14319">
        <ele>2206.4</ele>
        <time>2021-03-25T13:23:10Z</time>
      </trkpt>
      <trkpt lat="42.87378" lon="0.1432">
        <ele>2206.4</ele>
        <time>2021-03-25T13:23:11Z</time>
      </trkpt>
      <trkpt lat="42.87378" lon="0.1432">
        <ele>2206.4</ele>
        <time>2021-03-25T13:23:12Z</time>
      </trkpt>
      <trkpt lat="42.87377" lon="0.14321">
        <ele>2206.4</ele>
        <time>2021-03-25T13:23:13Z</time>
      </trkpt>
      <trkpt lat="42.87376" lon="0.14321">
        <ele>2206.4</ele>
        <time>2021-03-25T13:23:14Z</time>
      </trkpt>
      <trkpt lat="42.87375" lon="0.14321">
        <ele>2207.2</ele>
        <time>2021-03-25T13:23:16Z</time>
      </trkpt>
      <trkpt lat="42.87375" lon="0.14321">
        <ele>2207.2</ele>
        <time>2021-03-25T13:23:17Z</time>
      </trkpt>
      <trkpt lat="42.87374" lon="0.14321">
        <ele>2207.2</ele>
        <time>2021-03-25T13:23:18Z</time>
      </trkpt>
      <trkpt lat="42.87374" lon="0.14321">
        <ele>2207.2</ele>
        <time>2021-03-25T13:23:19Z</time>
      </trkpt>
      <trkpt lat="42.87374" lon="0.14321">
        <ele>2207.2</ele>
        <time>2021-03-25T13:23:20Z</time>
      </trkpt>
      <trkpt lat="42.87373" lon="0.1432">
        <ele>2207.2</ele>
        <time>2021-03-25T13:23:22Z</time>
      </trkpt>
      <trkpt lat="42.87373" lon="0.1432">
        <ele>2208</ele>
        <time>2021-03-25T13:23:23Z</time>
      </trkpt>
      <trkpt lat="42.87373" lon="0.1432">
        <ele>2208</ele>
        <time>2021-03-25T13:23:25Z</time>
      </trkpt>
      <trkpt lat="42.87372" lon="0.1432">
        <ele>2208</ele>
        <time>2021-03-25T13:23:26Z</time>
      </trkpt>
      <trkpt lat="42.87372" lon="0.1432">
        <ele>2208</ele>
        <time>2021-03-25T13:23:27Z</time>
      </trkpt>
      <trkpt lat="42.87371" lon="0.1432">
        <ele>2208</ele>
        <time>2021-03-25T13:23:28Z</time>
      </trkpt>
      <trkpt lat="42.87371" lon="0.1432">
        <ele>2208</ele>
        <time>2021-03-25T13:23:29Z</time>
      </trkpt>
      <trkpt lat="42.87371" lon="0.1432">
        <ele>2208</ele>
        <time>2021-03-25T13:23:31Z</time>
      </trkpt>
      <trkpt lat="42.8737" lon="0.1432">
        <ele>2208</ele>
        <time>2021-03-25T13:23:33Z</time>
      </trkpt>
      <trkpt lat="42.8737" lon="0.14319">
        <ele>2208.8</ele>
        <time>2021-03-25T13:23:34Z</time>
      </trkpt>
      <trkpt lat="42.87369" lon="0.14319">
        <ele>2208.8</ele>
        <time>2021-03-25T13:23:35Z</time>
      </trkpt>
      <trkpt lat="42.87369" lon="0.14319">
        <ele>2208.8</ele>
        <time>2021-03-25T13:23:36Z</time>
      </trkpt>
      <trkpt lat="42.87368" lon="0.14319">
        <ele>2208.8</ele>
        <time>2021-03-25T13:23:37Z</time>
      </trkpt>
      <trkpt lat="42.87367" lon="0.14319">
        <ele>2208.8</ele>
        <time>2021-03-25T13:23:39Z</time>
      </trkpt>
      <trkpt lat="42.87367" lon="0.14318">
        <ele>2209.6</ele>
        <time>2021-03-25T13:23:40Z</time>
      </trkpt>
      <trkpt lat="42.87366" lon="0.14318">
        <ele>2209.6</ele>
        <time>2021-03-25T13:23:42Z</time>
      </trkpt>
      <trkpt lat="42.87366" lon="0.14318">
        <ele>2209.6</ele>
        <time>2021-03-25T13:23:43Z</time>
      </trkpt>
      <trkpt lat="42.87366" lon="0.14318">
        <ele>2209.6</ele>
        <time>2021-03-25T13:23:44Z</time>
      </trkpt>
      <trkpt lat="42.87366" lon="0.14318">
        <ele>2209.6</ele>
        <time>2021-03-25T13:23:45Z</time>
      </trkpt>
      <trkpt lat="42.87366" lon="0.14318">
        <ele>2209.6</ele>
        <time>2021-03-25T13:23:46Z</time>
      </trkpt>
      <trkpt lat="42.87366" lon="0.14318">
        <ele>2209.6</ele>
        <time>2021-03-25T13:23:48Z</time>
      </trkpt>
      <trkpt lat="42.87366" lon="0.14317">
        <ele>2209.6</ele>
        <time>2021-03-25T13:23:49Z</time>
      </trkpt>
      <trkpt lat="42.87367" lon="0.14318">
        <ele>2208.8</ele>
        <time>2021-03-25T13:23:51Z</time>
      </trkpt>
      <trkpt lat="42.87367" lon="0.14318">
        <ele>2208.8</ele>
        <time>2021-03-25T13:23:53Z</time>
      </trkpt>
      <trkpt lat="42.87368" lon="0.14318">
        <ele>2208.8</ele>
        <time>2021-03-25T13:23:55Z</time>
      </trkpt>
      <trkpt lat="42.87368" lon="0.14318">
        <ele>2208.8</ele>
        <time>2021-03-25T13:23:57Z</time>
      </trkpt>
      <trkpt lat="42.87369" lon="0.14319">
        <ele>2208.8</ele>
        <time>2021-03-25T13:23:58Z</time>
      </trkpt>
      <trkpt lat="42.87374" lon="0.14322">
        <ele>2205.9</ele>
        <time>2021-03-25T13:24:00Z</time>
      </trkpt>
      <trkpt lat="42.87376" lon="0.14324">
        <ele>2205.9</ele>
        <time>2021-03-25T13:24:02Z</time>
      </trkpt>
      <trkpt lat="42.87376" lon="0.14324">
        <ele>2205.9</ele>
        <time>2021-03-25T13:24:04Z</time>
      </trkpt>
      <trkpt lat="42.87376" lon="0.14324">
        <ele>2205.9</ele>
        <time>2021-03-25T13:24:06Z</time>
      </trkpt>
      <trkpt lat="42.87375" lon="0.14324">
        <ele>2205.9</ele>
        <time>2021-03-25T13:24:08Z</time>
      </trkpt>
      <trkpt lat="42.87375" lon="0.14324">
        <ele>2205.9</ele>
        <time>2021-03-25T13:24:10Z</time>
      </trkpt>
      <trkpt lat="42.87375" lon="0.14324">
        <ele>2205.9</ele>
        <time>2021-03-25T13:24:12Z</time>
      </trkpt>
      <trkpt lat="42.87375" lon="0.14324">
        <ele>2205.9</ele>
        <time>2021-03-25T13:24:14Z</time>
      </trkpt>
      <trkpt lat="42.87375" lon="0.14324">
        <ele>2205.9</ele>
        <time>2021-03-25T13:24:15Z</time>
      </trkpt>
      <trkpt lat="42.87375" lon="0.14324">
        <ele>2205.9</ele>
        <time>2021-03-25T13:24:17Z</time>
      </trkpt>
      <trkpt lat="42.87375" lon="0.14324">
        <ele>2205.9</ele>
        <time>2021-03-25T13:24:18Z</time>
      </trkpt>
      <trkpt lat="42.87374" lon="0.14324">
        <ele>2205.9</ele>
        <time>2021-03-25T13:24:19Z</time>
      </trkpt>
      <trkpt lat="42.87373" lon="0.14324">
        <ele>2206.7</ele>
        <time>2021-03-25T13:24:20Z</time>
      </trkpt>
      <trkpt lat="42.87371" lon="0.14323">
        <ele>2206.7</ele>
        <time>2021-03-25T13:24:22Z</time>
      </trkpt>
      <trkpt lat="42.87368" lon="0.14323">
        <ele>2207.4</ele>
        <time>2021-03-25T13:24:24Z</time>
      </trkpt>
      <trkpt lat="42.87363" lon="0.14324">
        <ele>2209</ele>
        <time>2021-03-25T13:24:26Z</time>
      </trkpt>
      <trkpt lat="42.87362" lon="0.14325">
        <ele>2209</ele>
        <time>2021-03-25T13:24:28Z</time>
      </trkpt>
      <trkpt lat="42.8736" lon="0.14325">
        <ele>2209.9</ele>
        <time>2021-03-25T13:24:30Z</time>
      </trkpt>
      <trkpt lat="42.87358" lon="0.14326">
        <ele>2208.5</ele>
        <time>2021-03-25T13:24:31Z</time>
      </trkpt>
      <trkpt lat="42.87356" lon="0.14327">
        <ele>2209.3</ele>
        <time>2021-03-25T13:24:32Z</time>
      </trkpt>
      <trkpt lat="42.87355" lon="0.14327">
        <ele>2209.3</ele>
        <time>2021-03-25T13:24:33Z</time>
      </trkpt>
      <trkpt lat="42.87354" lon="0.14327">
        <ele>2210.2</ele>
        <time>2021-03-25T13:24:34Z</time>
      </trkpt>
      <trkpt lat="42.87352" lon="0.14329">
        <ele>2210.2</ele>
        <time>2021-03-25T13:24:36Z</time>
      </trkpt>
      <trkpt lat="42.87351" lon="0.1433">
        <ele>2208.7</ele>
        <time>2021-03-25T13:24:37Z</time>
      </trkpt>
      <trkpt lat="42.87351" lon="0.1433">
        <ele>2209.5</ele>
        <time>2021-03-25T13:24:38Z</time>
      </trkpt>
      <trkpt lat="42.8735" lon="0.14331">
        <ele>2209.5</ele>
        <time>2021-03-25T13:24:40Z</time>
      </trkpt>
      <trkpt lat="42.87349" lon="0.14333">
        <ele>2209.5</ele>
        <time>2021-03-25T13:24:41Z</time>
      </trkpt>
      <trkpt lat="42.87349" lon="0.14334">
        <ele>2209.5</ele>
        <time>2021-03-25T13:24:43Z</time>
      </trkpt>
      <trkpt lat="42.87348" lon="0.14334">
        <ele>2207.9</ele>
        <time>2021-03-25T13:24:44Z</time>
      </trkpt>
      <trkpt lat="42.87348" lon="0.14335">
        <ele>2207.9</ele>
        <time>2021-03-25T13:24:46Z</time>
      </trkpt>
      <trkpt lat="42.87349" lon="0.14337">
        <ele>2207.9</ele>
        <time>2021-03-25T13:24:48Z</time>
      </trkpt>
      <trkpt lat="42.87349" lon="0.14338">
        <ele>2207.9</ele>
        <time>2021-03-25T13:24:50Z</time>
      </trkpt>
      <trkpt lat="42.87348" lon="0.14338">
        <ele>2206.3</ele>
        <time>2021-03-25T13:24:51Z</time>
      </trkpt>
      <trkpt lat="42.87348" lon="0.14338">
        <ele>2206.3</ele>
        <time>2021-03-25T13:24:53Z</time>
      </trkpt>
      <trkpt lat="42.87348" lon="0.14338">
        <ele>2208.6</ele>
        <time>2021-03-25T13:24:57Z</time>
      </trkpt>
      <trkpt lat="42.87348" lon="0.14338">
        <ele>2208.6</ele>
        <time>2021-03-25T13:24:58Z</time>
      </trkpt>
      <trkpt lat="42.87348" lon="0.14337">
        <ele>2208.6</ele>
        <time>2021-03-25T13:24:59Z</time>
      </trkpt>
      <trkpt lat="42.87348" lon="0.14337">
        <ele>2208.6</ele>
        <time>2021-03-25T13:25:00Z</time>
      </trkpt>
      <trkpt lat="42.87348" lon="0.14338">
        <ele>2208.6</ele>
        <time>2021-03-25T13:25:01Z</time>
      </trkpt>
      <trkpt lat="42.87348" lon="0.14338">
        <ele>2208.6</ele>
        <time>2021-03-25T13:25:03Z</time>
      </trkpt>
      <trkpt lat="42.87347" lon="0.14337">
        <ele>2208.6</ele>
        <time>2021-03-25T13:25:05Z</time>
      </trkpt>
      <trkpt lat="42.87347" lon="0.14337">
        <ele>2208.6</ele>
        <time>2021-03-25T13:25:07Z</time>
      </trkpt>
      <trkpt lat="42.87347" lon="0.14336">
        <ele>2208.6</ele>
        <time>2021-03-25T13:25:09Z</time>
      </trkpt>
      <trkpt lat="42.87347" lon="0.14335">
        <ele>2208.6</ele>
        <time>2021-03-25T13:25:11Z</time>
      </trkpt>
      <trkpt lat="42.87347" lon="0.14335">
        <ele>2208.6</ele>
        <time>2021-03-25T13:25:12Z</time>
      </trkpt>
      <trkpt lat="42.87347" lon="0.14334">
        <ele>2208.6</ele>
        <time>2021-03-25T13:25:14Z</time>
      </trkpt>
      <trkpt lat="42.87346" lon="0.14333">
        <ele>2210.2</ele>
        <time>2021-03-25T13:25:15Z</time>
      </trkpt>
      <trkpt lat="42.87346" lon="0.14333">
        <ele>2210.2</ele>
        <time>2021-03-25T13:25:16Z</time>
      </trkpt>
      <trkpt lat="42.87346" lon="0.14332">
        <ele>2210.2</ele>
        <time>2021-03-25T13:25:18Z</time>
      </trkpt>
      <trkpt lat="42.87346" lon="0.14331">
        <ele>2210.2</ele>
        <time>2021-03-25T13:25:20Z</time>
      </trkpt>
      <trkpt lat="42.87345" lon="0.1433">
        <ele>2210.2</ele>
        <time>2021-03-25T13:25:21Z</time>
      </trkpt>
      <trkpt lat="42.87345" lon="0.14329">
        <ele>2211.7</ele>
        <time>2021-03-25T13:25:22Z</time>
      </trkpt>
      <trkpt lat="42.87345" lon="0.14329">
        <ele>2212.5</ele>
        <time>2021-03-25T13:25:23Z</time>
      </trkpt>
      <trkpt lat="42.87345" lon="0.14328">
        <ele>2212.5</ele>
        <time>2021-03-25T13:25:24Z</time>
      </trkpt>
      <trkpt lat="42.87344" lon="0.14327">
        <ele>2212.5</ele>
        <time>2021-03-25T13:25:25Z</time>
      </trkpt>
      <trkpt lat="42.87344" lon="0.14326">
        <ele>2212.5</ele>
        <time>2021-03-25T13:25:26Z</time>
      </trkpt>
      <trkpt lat="42.87344" lon="0.14326">
        <ele>2212.5</ele>
        <time>2021-03-25T13:25:28Z</time>
      </trkpt>
      <trkpt lat="42.87344" lon="0.14325">
        <ele>2212.5</ele>
        <time>2021-03-25T13:25:29Z</time>
      </trkpt>
      <trkpt lat="42.87343" lon="0.14325">
        <ele>2213.9</ele>
        <time>2021-03-25T13:25:30Z</time>
      </trkpt>
      <trkpt lat="42.87343" lon="0.14324">
        <ele>2213.9</ele>
        <time>2021-03-25T13:25:31Z</time>
      </trkpt>
      <trkpt lat="42.87343" lon="0.14324">
        <ele>2213.9</ele>
        <time>2021-03-25T13:25:33Z</time>
      </trkpt>
      <trkpt lat="42.87343" lon="0.14323">
        <ele>2213.9</ele>
        <time>2021-03-25T13:25:34Z</time>
      </trkpt>
      <trkpt lat="42.87342" lon="0.14323">
        <ele>2213.9</ele>
        <time>2021-03-25T13:25:35Z</time>
      </trkpt>
      <trkpt lat="42.87342" lon="0.14322">
        <ele>2213.9</ele>
        <time>2021-03-25T13:25:36Z</time>
      </trkpt>
      <trkpt lat="42.87342" lon="0.14322">
        <ele>2213.9</ele>
        <time>2021-03-25T13:25:38Z</time>
      </trkpt>
      <trkpt lat="42.87342" lon="0.14321">
        <ele>2214.7</ele>
        <time>2021-03-25T13:25:39Z</time>
      </trkpt>
      <trkpt lat="42.87342" lon="0.14323">
        <ele>2213.9</ele>
        <time>2021-03-25T13:25:40Z</time>
      </trkpt>
      <trkpt lat="42.87344" lon="0.14326">
        <ele>2212.5</ele>
        <time>2021-03-25T13:25:41Z</time>
      </trkpt>
      <trkpt lat="42.87344" lon="0.14327">
        <ele>2212.5</ele>
        <time>2021-03-25T13:25:43Z</time>
      </trkpt>
      <trkpt lat="42.87345" lon="0.14327">
        <ele>2212.5</ele>
        <time>2021-03-25T13:25:44Z</time>
      </trkpt>
      <trkpt lat="42.87345" lon="0.14328">
        <ele>2211.7</ele>
        <time>2021-03-25T13:25:45Z</time>
      </trkpt>
      <trkpt lat="42.87345" lon="0.14328">
        <ele>2211.7</ele>
        <time>2021-03-25T13:25:46Z</time>
      </trkpt>
      <trkpt lat="42.87346" lon="0.1433">
        <ele>2210.2</ele>
        <time>2021-03-25T13:25:48Z</time>
      </trkpt>
      <trkpt lat="42.87347" lon="0.14331">
        <ele>2210.2</ele>
        <time>2021-03-25T13:25:49Z</time>
      </trkpt>
      <trkpt lat="42.87347" lon="0.14332">
        <ele>2210.2</ele>
        <time>2021-03-25T13:25:51Z</time>
      </trkpt>
      <trkpt lat="42.87347" lon="0.14332">
        <ele>2210.2</ele>
        <time>2021-03-25T13:25:52Z</time>
      </trkpt>
      <trkpt lat="42.87348" lon="0.14333">
        <ele>2210.2</ele>
        <time>2021-03-25T13:25:53Z</time>
      </trkpt>
      <trkpt lat="42.87348" lon="0.14333">
        <ele>2210.2</ele>
        <time>2021-03-25T13:25:55Z</time>
      </trkpt>
      <trkpt lat="42.87348" lon="0.14333">
        <ele>2210.2</ele>
        <time>2021-03-25T13:25:56Z</time>
      </trkpt>
      <trkpt lat="42.87348" lon="0.14333">
        <ele>2210.2</ele>
        <time>2021-03-25T13:25:58Z</time>
      </trkpt>
      <trkpt lat="42.87348" lon="0.14333">
        <ele>2210.2</ele>
        <time>2021-03-25T13:25:59Z</time>
      </trkpt>
      <trkpt lat="42.87347" lon="0.14333">
        <ele>2210.2</ele>
        <time>2021-03-25T13:26:01Z</time>
      </trkpt>
      <trkpt lat="42.87347" lon="0.14333">
        <ele>2210.2</ele>
        <time>2021-03-25T13:26:02Z</time>
      </trkpt>
      <trkpt lat="42.87347" lon="0.14333">
        <ele>2210.2</ele>
        <time>2021-03-25T13:26:03Z</time>
      </trkpt>
      <trkpt lat="42.87347" lon="0.14334">
        <ele>2208.6</ele>
        <time>2021-03-25T13:26:05Z</time>
      </trkpt>
      <trkpt lat="42.87346" lon="0.14335">
        <ele>2208.6</ele>
        <time>2021-03-25T13:26:06Z</time>
      </trkpt>
      <trkpt lat="42.87347" lon="0.14335">
        <ele>2208.6</ele>
        <time>2021-03-25T13:26:08Z</time>
      </trkpt>
      <trkpt lat="42.87347" lon="0.14335">
        <ele>2208.6</ele>
        <time>2021-03-25T13:26:09Z</time>
      </trkpt>
      <trkpt lat="42.87347" lon="0.14336">
        <ele>2208.6</ele>
        <time>2021-03-25T13:26:11Z</time>
      </trkpt>
      <trkpt lat="42.87347" lon="0.14336">
        <ele>2208.6</ele>
        <time>2021-03-25T13:26:12Z</time>
      </trkpt>
      <trkpt lat="42.87348" lon="0.14336">
        <ele>2208.6</ele>
        <time>2021-03-25T13:26:13Z</time>
      </trkpt>
      <trkpt lat="42.87348" lon="0.14336">
        <ele>2208.6</ele>
        <time>2021-03-25T13:26:14Z</time>
      </trkpt>
      <trkpt lat="42.87348" lon="0.14336">
        <ele>2208.6</ele>
        <time>2021-03-25T13:26:16Z</time>
      </trkpt>
      <trkpt lat="42.87348" lon="0.14336">
        <ele>2207.9</ele>
        <time>2021-03-25T13:26:17Z</time>
      </trkpt>
      <trkpt lat="42.87348" lon="0.14336">
        <ele>2207.9</ele>
        <time>2021-03-25T13:26:19Z</time>
      </trkpt>
      <trkpt lat="42.87349" lon="0.14336">
        <ele>2207.9</ele>
        <time>2021-03-25T13:26:21Z</time>
      </trkpt>
      <trkpt lat="42.87349" lon="0.14335">
        <ele>2207.9</ele>
        <time>2021-03-25T13:26:22Z</time>
      </trkpt>
      <trkpt lat="42.87349" lon="0.14335">
        <ele>2207.9</ele>
        <time>2021-03-25T13:26:23Z</time>
      </trkpt>
      <trkpt lat="42.87349" lon="0.14334">
        <ele>2207.9</ele>
        <time>2021-03-25T13:26:25Z</time>
      </trkpt>
      <trkpt lat="42.87348" lon="0.14333">
        <ele>2209.5</ele>
        <time>2021-03-25T13:26:26Z</time>
      </trkpt>
      <trkpt lat="42.87348" lon="0.14333">
        <ele>2209.5</ele>
        <time>2021-03-25T13:26:28Z</time>
      </trkpt>
      <trkpt lat="42.87348" lon="0.14332">
        <ele>2210.2</ele>
        <time>2021-03-25T13:26:29Z</time>
      </trkpt>
      <trkpt lat="42.87347" lon="0.14332">
        <ele>2210.2</ele>
        <time>2021-03-25T13:26:30Z</time>
      </trkpt>
      <trkpt lat="42.87347" lon="0.14331">
        <ele>2210.2</ele>
        <time>2021-03-25T13:26:32Z</time>
      </trkpt>
      <trkpt lat="42.87346" lon="0.1433">
        <ele>2210.2</ele>
        <time>2021-03-25T13:26:33Z</time>
      </trkpt>
      <trkpt lat="42.87346" lon="0.1433">
        <ele>2210.2</ele>
        <time>2021-03-25T13:26:34Z</time>
      </trkpt>
      <trkpt lat="42.87346" lon="0.1433">
        <ele>2210.2</ele>
        <time>2021-03-25T13:26:35Z</time>
      </trkpt>
      <trkpt lat="42.87346" lon="0.1433">
        <ele>2210.2</ele>
        <time>2021-03-25T13:26:36Z</time>
      </trkpt>
      <trkpt lat="42.87345" lon="0.14329">
        <ele>2211.7</ele>
        <time>2021-03-25T13:26:37Z</time>
      </trkpt>
      <trkpt lat="42.87345" lon="0.14329">
        <ele>2211.7</ele>
        <time>2021-03-25T13:26:39Z</time>
      </trkpt>
      <trkpt lat="42.87344" lon="0.14328">
        <ele>2212.5</ele>
        <time>2021-03-25T13:26:40Z</time>
      </trkpt>
      <trkpt lat="42.87344" lon="0.14328">
        <ele>2212.5</ele>
        <time>2021-03-25T13:26:42Z</time>
      </trkpt>
      <trkpt lat="42.87344" lon="0.14328">
        <ele>2212.5</ele>
        <time>2021-03-25T13:26:43Z</time>
      </trkpt>
      <trkpt lat="42.87343" lon="0.14328">
        <ele>2212.5</ele>
        <time>2021-03-25T13:26:44Z</time>
      </trkpt>
      <trkpt lat="42.87343" lon="0.14328">
        <ele>2212.5</ele>
        <time>2021-03-25T13:26:45Z</time>
      </trkpt>
      <trkpt lat="42.87343" lon="0.14327">
        <ele>2212.5</ele>
        <time>2021-03-25T13:26:46Z</time>
      </trkpt>
      <trkpt lat="42.87342" lon="0.14327">
        <ele>2212.5</ele>
        <time>2021-03-25T13:26:47Z</time>
      </trkpt>
      <trkpt lat="42.87342" lon="0.14327">
        <ele>2212.5</ele>
        <time>2021-03-25T13:26:48Z</time>
      </trkpt>
      <trkpt lat="42.87342" lon="0.14327">
        <ele>2213.3</ele>
        <time>2021-03-25T13:26:50Z</time>
      </trkpt>
      <trkpt lat="42.87341" lon="0.14327">
        <ele>2213.3</ele>
        <time>2021-03-25T13:26:51Z</time>
      </trkpt>
      <trkpt lat="42.87341" lon="0.14326">
        <ele>2213.3</ele>
        <time>2021-03-25T13:26:53Z</time>
      </trkpt>
      <trkpt lat="42.8734" lon="0.14326">
        <ele>2213.3</ele>
        <time>2021-03-25T13:26:54Z</time>
      </trkpt>
      <trkpt lat="42.8734" lon="0.14326">
        <ele>2213.3</ele>
        <time>2021-03-25T13:26:55Z</time>
      </trkpt>
      <trkpt lat="42.8734" lon="0.14326">
        <ele>2213.3</ele>
        <time>2021-03-25T13:26:56Z</time>
      </trkpt>
      <trkpt lat="42.87339" lon="0.14325">
        <ele>2213.3</ele>
        <time>2021-03-25T13:26:57Z</time>
      </trkpt>
      <trkpt lat="42.87339" lon="0.14325">
        <ele>2213.3</ele>
        <time>2021-03-25T13:26:58Z</time>
      </trkpt>
      <trkpt lat="42.87338" lon="0.14325">
        <ele>2215.6</ele>
        <time>2021-03-25T13:26:59Z</time>
      </trkpt>
      <trkpt lat="42.87338" lon="0.14325">
        <ele>2215.6</ele>
        <time>2021-03-25T13:27:01Z</time>
      </trkpt>
      <trkpt lat="42.87337" lon="0.14325">
        <ele>2215.6</ele>
        <time>2021-03-25T13:27:02Z</time>
      </trkpt>
      <trkpt lat="42.87337" lon="0.14324">
        <ele>2215.6</ele>
        <time>2021-03-25T13:27:03Z</time>
      </trkpt>
      <trkpt lat="42.87337" lon="0.14324">
        <ele>2215.6</ele>
        <time>2021-03-25T13:27:04Z</time>
      </trkpt>
      <trkpt lat="42.87336" lon="0.14324">
        <ele>2215.6</ele>
        <time>2021-03-25T13:27:05Z</time>
      </trkpt>
      <trkpt lat="42.87335" lon="0.14323">
        <ele>2216.7</ele>
        <time>2021-03-25T13:27:07Z</time>
      </trkpt>
      <trkpt lat="42.87335" lon="0.14323">
        <ele>2216.7</ele>
        <time>2021-03-25T13:27:08Z</time>
      </trkpt>
      <trkpt lat="42.87334" lon="0.14323">
        <ele>2216.7</ele>
        <time>2021-03-25T13:27:10Z</time>
      </trkpt>
      <trkpt lat="42.87333" lon="0.14322">
        <ele>2216.7</ele>
        <time>2021-03-25T13:27:12Z</time>
      </trkpt>
      <trkpt lat="42.87332" lon="0.14322">
        <ele>2216.7</ele>
        <time>2021-03-25T13:27:13Z</time>
      </trkpt>
      <trkpt lat="42.87332" lon="0.14322">
        <ele>2217.7</ele>
        <time>2021-03-25T13:27:14Z</time>
      </trkpt>
      <trkpt lat="42.87331" lon="0.14322">
        <ele>2217.7</ele>
        <time>2021-03-25T13:27:15Z</time>
      </trkpt>
      <trkpt lat="42.87331" lon="0.14321">
        <ele>2217.7</ele>
        <time>2021-03-25T13:27:16Z</time>
      </trkpt>
      <trkpt lat="42.8733" lon="0.14321">
        <ele>2217.7</ele>
        <time>2021-03-25T13:27:17Z</time>
      </trkpt>
      <trkpt lat="42.87329" lon="0.14321">
        <ele>2217.7</ele>
        <time>2021-03-25T13:27:19Z</time>
      </trkpt>
      <trkpt lat="42.87329" lon="0.14321">
        <ele>2220.1</ele>
        <time>2021-03-25T13:27:20Z</time>
      </trkpt>
      <trkpt lat="42.87328" lon="0.14321">
        <ele>2220.1</ele>
        <time>2021-03-25T13:27:21Z</time>
      </trkpt>
      <trkpt lat="42.87328" lon="0.1432">
        <ele>2220.1</ele>
        <time>2021-03-25T13:27:22Z</time>
      </trkpt>
      <trkpt lat="42.87327" lon="0.1432">
        <ele>2220.1</ele>
        <time>2021-03-25T13:27:24Z</time>
      </trkpt>
      <trkpt lat="42.87327" lon="0.1432">
        <ele>2220.1</ele>
        <time>2021-03-25T13:27:25Z</time>
      </trkpt>
      <trkpt lat="42.87326" lon="0.1432">
        <ele>2221.1</ele>
        <time>2021-03-25T13:27:26Z</time>
      </trkpt>
      <trkpt lat="42.87326" lon="0.1432">
        <ele>2221.1</ele>
        <time>2021-03-25T13:27:27Z</time>
      </trkpt>
      <trkpt lat="42.87325" lon="0.14319">
        <ele>2221.1</ele>
        <time>2021-03-25T13:27:29Z</time>
      </trkpt>
      <trkpt lat="42.87325" lon="0.14319">
        <ele>2221.1</ele>
        <time>2021-03-25T13:27:30Z</time>
      </trkpt>
      <trkpt lat="42.87331" lon="0.14327">
        <ele>2216.3</ele>
        <time>2021-03-25T13:27:32Z</time>
      </trkpt>
      <trkpt lat="42.87333" lon="0.14331">
        <ele>2213.7</ele>
        <time>2021-03-25T13:27:33Z</time>
      </trkpt>
      <trkpt lat="42.87336" lon="0.14337">
        <ele>2211.1</ele>
        <time>2021-03-25T13:27:35Z</time>
      </trkpt>
      <trkpt lat="42.87337" lon="0.1434">
        <ele>2209.6</ele>
        <time>2021-03-25T13:27:36Z</time>
      </trkpt>
      <trkpt lat="42.87337" lon="0.14344">
        <ele>2208</ele>
        <time>2021-03-25T13:27:38Z</time>
      </trkpt>
      <trkpt lat="42.87337" lon="0.14345">
        <ele>2208</ele>
        <time>2021-03-25T13:27:39Z</time>
      </trkpt>
      <trkpt lat="42.87336" lon="0.14346">
        <ele>2208</ele>
        <time>2021-03-25T13:27:41Z</time>
      </trkpt>
      <trkpt lat="42.87336" lon="0.14346">
        <ele>2208</ele>
        <time>2021-03-25T13:27:42Z</time>
      </trkpt>
      <trkpt lat="42.87336" lon="0.14347">
        <ele>2206.6</ele>
        <time>2021-03-25T13:27:43Z</time>
      </trkpt>
      <trkpt lat="42.87336" lon="0.14347">
        <ele>2206.6</ele>
        <time>2021-03-25T13:27:44Z</time>
      </trkpt>
      <trkpt lat="42.87336" lon="0.14348">
        <ele>2206.6</ele>
        <time>2021-03-25T13:27:45Z</time>
      </trkpt>
      <trkpt lat="42.87336" lon="0.14348">
        <ele>2206.6</ele>
        <time>2021-03-25T13:27:46Z</time>
      </trkpt>
      <trkpt lat="42.87336" lon="0.14348">
        <ele>2206.6</ele>
        <time>2021-03-25T13:27:47Z</time>
      </trkpt>
      <trkpt lat="42.87336" lon="0.14349">
        <ele>2206.6</ele>
        <time>2021-03-25T13:27:48Z</time>
      </trkpt>
      <trkpt lat="42.87336" lon="0.14351">
        <ele>2205.1</ele>
        <time>2021-03-25T13:27:49Z</time>
      </trkpt>
      <trkpt lat="42.87337" lon="0.14357">
        <ele>2203.6</ele>
        <time>2021-03-25T13:27:51Z</time>
      </trkpt>
      <trkpt lat="42.87337" lon="0.14358">
        <ele>2203.6</ele>
        <time>2021-03-25T13:27:52Z</time>
      </trkpt>
      <trkpt lat="42.87337" lon="0.14359">
        <ele>2203.6</ele>
        <time>2021-03-25T13:27:53Z</time>
      </trkpt>
      <trkpt lat="42.87337" lon="0.14359">
        <ele>2203.6</ele>
        <time>2021-03-25T13:27:54Z</time>
      </trkpt>
      <trkpt lat="42.87337" lon="0.14358">
        <ele>2203.6</ele>
        <time>2021-03-25T13:27:56Z</time>
      </trkpt>
      <trkpt lat="42.87337" lon="0.14358">
        <ele>2203.6</ele>
        <time>2021-03-25T13:27:57Z</time>
      </trkpt>
      <trkpt lat="42.87337" lon="0.14358">
        <ele>2203.6</ele>
        <time>2021-03-25T13:27:58Z</time>
      </trkpt>
      <trkpt lat="42.87337" lon="0.14358">
        <ele>2203.6</ele>
        <time>2021-03-25T13:28:00Z</time>
      </trkpt>
      <trkpt lat="42.87337" lon="0.14358">
        <ele>2203.6</ele>
        <time>2021-03-25T13:28:01Z</time>
      </trkpt>
      <trkpt lat="42.87337" lon="0.14357">
        <ele>2203.6</ele>
        <time>2021-03-25T13:28:02Z</time>
      </trkpt>
      <trkpt lat="42.87337" lon="0.14358">
        <ele>2203.6</ele>
        <time>2021-03-25T13:28:04Z</time>
      </trkpt>
      <trkpt lat="42.87337" lon="0.14358">
        <ele>2203.6</ele>
        <time>2021-03-25T13:28:05Z</time>
      </trkpt>
      <trkpt lat="42.87338" lon="0.14358">
        <ele>2203.6</ele>
        <time>2021-03-25T13:28:06Z</time>
      </trkpt>
      <trkpt lat="42.87338" lon="0.14358">
        <ele>2203.6</ele>
        <time>2021-03-25T13:28:07Z</time>
      </trkpt>
      <trkpt lat="42.87338" lon="0.14358">
        <ele>2203.6</ele>
        <time>2021-03-25T13:28:09Z</time>
      </trkpt>
      <trkpt lat="42.87338" lon="0.14358">
        <ele>2203.6</ele>
        <time>2021-03-25T13:28:10Z</time>
      </trkpt>
      <trkpt lat="42.87338" lon="0.14358">
        <ele>2203.6</ele>
        <time>2021-03-25T13:28:11Z</time>
      </trkpt>
      <trkpt lat="42.87338" lon="0.14358">
        <ele>2203.6</ele>
        <time>2021-03-25T13:28:13Z</time>
      </trkpt>
      <trkpt lat="42.87338" lon="0.14358">
        <ele>2203.6</ele>
        <time>2021-03-25T13:28:14Z</time>
      </trkpt>
      <trkpt lat="42.87337" lon="0.14358">
        <ele>2203.6</ele>
        <time>2021-03-25T13:28:16Z</time>
      </trkpt>
      <trkpt lat="42.87337" lon="0.14358">
        <ele>2203.6</ele>
        <time>2021-03-25T13:28:17Z</time>
      </trkpt>
      <trkpt lat="42.87336" lon="0.14357">
        <ele>2203.6</ele>
        <time>2021-03-25T13:28:19Z</time>
      </trkpt>
      <trkpt lat="42.87336" lon="0.14357">
        <ele>2203.6</ele>
        <time>2021-03-25T13:28:20Z</time>
      </trkpt>
      <trkpt lat="42.87335" lon="0.14356">
        <ele>2204.6</ele>
        <time>2021-03-25T13:28:21Z</time>
      </trkpt>
      <trkpt lat="42.87335" lon="0.14356">
        <ele>2204.6</ele>
        <time>2021-03-25T13:28:22Z</time>
      </trkpt>
      <trkpt lat="42.87334" lon="0.14355">
        <ele>2204.6</ele>
        <time>2021-03-25T13:28:24Z</time>
      </trkpt>
      <trkpt lat="42.87333" lon="0.14355">
        <ele>2206.1</ele>
        <time>2021-03-25T13:28:25Z</time>
      </trkpt>
      <trkpt lat="42.87332" lon="0.14354">
        <ele>2206.1</ele>
        <time>2021-03-25T13:28:26Z</time>
      </trkpt>
      <trkpt lat="42.87332" lon="0.14354">
        <ele>2207.2</ele>
        <time>2021-03-25T13:28:28Z</time>
      </trkpt>
      <trkpt lat="42.87331" lon="0.14354">
        <ele>2207.2</ele>
        <time>2021-03-25T13:28:29Z</time>
      </trkpt>
      <trkpt lat="42.8733" lon="0.14353">
        <ele>2207.2</ele>
        <time>2021-03-25T13:28:30Z</time>
      </trkpt>
      <trkpt lat="42.8733" lon="0.14353">
        <ele>2207.2</ele>
        <time>2021-03-25T13:28:32Z</time>
      </trkpt>
      <trkpt lat="42.87329" lon="0.14353">
        <ele>2208.2</ele>
        <time>2021-03-25T13:28:34Z</time>
      </trkpt>
      <trkpt lat="42.87328" lon="0.14353">
        <ele>2208.2</ele>
        <time>2021-03-25T13:28:35Z</time>
      </trkpt>
      <trkpt lat="42.87327" lon="0.14353">
        <ele>2208.2</ele>
        <time>2021-03-25T13:28:36Z</time>
      </trkpt>
      <trkpt lat="42.87327" lon="0.14353">
        <ele>2208.2</ele>
        <time>2021-03-25T13:28:37Z</time>
      </trkpt>
      <trkpt lat="42.87325" lon="0.14358">
        <ele>2207.7</ele>
        <time>2021-03-25T13:28:39Z</time>
      </trkpt>
      <trkpt lat="42.87322" lon="0.14362">
        <ele>2207.2</ele>
        <time>2021-03-25T13:28:41Z</time>
      </trkpt>
      <trkpt lat="42.87322" lon="0.14364">
        <ele>2205.7</ele>
        <time>2021-03-25T13:28:42Z</time>
      </trkpt>
      <trkpt lat="42.87322" lon="0.14367">
        <ele>2205.7</ele>
        <time>2021-03-25T13:28:44Z</time>
      </trkpt>
      <trkpt lat="42.87322" lon="0.14369">
        <ele>2204.1</ele>
        <time>2021-03-25T13:28:45Z</time>
      </trkpt>
      <trkpt lat="42.87322" lon="0.14371">
        <ele>2204.1</ele>
        <time>2021-03-25T13:28:46Z</time>
      </trkpt>
      <trkpt lat="42.87321" lon="0.14376">
        <ele>2202.6</ele>
        <time>2021-03-25T13:28:48Z</time>
      </trkpt>
      <trkpt lat="42.87321" lon="0.14377">
        <ele>2202.6</ele>
        <time>2021-03-25T13:28:49Z</time>
      </trkpt>
      <trkpt lat="42.87321" lon="0.14378">
        <ele>2201</ele>
        <time>2021-03-25T13:28:50Z</time>
      </trkpt>
      <trkpt lat="42.87321" lon="0.14382">
        <ele>2199.4</ele>
        <time>2021-03-25T13:28:52Z</time>
      </trkpt>
      <trkpt lat="42.8732" lon="0.14384">
        <ele>2199.4</ele>
        <time>2021-03-25T13:28:53Z</time>
      </trkpt>
      <trkpt lat="42.8732" lon="0.14387">
        <ele>2198.9</ele>
        <time>2021-03-25T13:28:55Z</time>
      </trkpt>
      <trkpt lat="42.87319" lon="0.14388">
        <ele>2198.9</ele>
        <time>2021-03-25T13:28:56Z</time>
      </trkpt>
      <trkpt lat="42.87319" lon="0.14388">
        <ele>2198.9</ele>
        <time>2021-03-25T13:28:57Z</time>
      </trkpt>
      <trkpt lat="42.87318" lon="0.14389">
        <ele>2198.9</ele>
        <time>2021-03-25T13:28:59Z</time>
      </trkpt>
      <trkpt lat="42.87317" lon="0.1439">
        <ele>2197.5</ele>
        <time>2021-03-25T13:29:00Z</time>
      </trkpt>
      <trkpt lat="42.87316" lon="0.1439">
        <ele>2198.6</ele>
        <time>2021-03-25T13:29:01Z</time>
      </trkpt>
      <trkpt lat="42.87315" lon="0.1439">
        <ele>2198.6</ele>
        <time>2021-03-25T13:29:02Z</time>
      </trkpt>
      <trkpt lat="42.87314" lon="0.1439">
        <ele>2198.6</ele>
        <time>2021-03-25T13:29:04Z</time>
      </trkpt>
      <trkpt lat="42.87312" lon="0.14391">
        <ele>2199.9</ele>
        <time>2021-03-25T13:29:05Z</time>
      </trkpt>
      <trkpt lat="42.87311" lon="0.1439">
        <ele>2199.9</ele>
        <time>2021-03-25T13:29:06Z</time>
      </trkpt>
      <trkpt lat="42.87307" lon="0.14389">
        <ele>2202.7</ele>
        <time>2021-03-25T13:29:08Z</time>
      </trkpt>
      <trkpt lat="42.87306" lon="0.14389">
        <ele>2204.1</ele>
        <time>2021-03-25T13:29:09Z</time>
      </trkpt>
      <trkpt lat="42.87304" lon="0.14389">
        <ele>2204.1</ele>
        <time>2021-03-25T13:29:10Z</time>
      </trkpt>
      <trkpt lat="42.87303" lon="0.14389">
        <ele>2205.4</ele>
        <time>2021-03-25T13:29:11Z</time>
      </trkpt>
      <trkpt lat="42.87302" lon="0.14389">
        <ele>2205.4</ele>
        <time>2021-03-25T13:29:12Z</time>
      </trkpt>
      <trkpt lat="42.873" lon="0.14389">
        <ele>2206.7</ele>
        <time>2021-03-25T13:29:14Z</time>
      </trkpt>
      <trkpt lat="42.87299" lon="0.14389">
        <ele>2206.7</ele>
        <time>2021-03-25T13:29:15Z</time>
      </trkpt>
      <trkpt lat="42.87297" lon="0.14389">
        <ele>2207.9</ele>
        <time>2021-03-25T13:29:17Z</time>
      </trkpt>
      <trkpt lat="42.87295" lon="0.14389">
        <ele>2207.9</ele>
        <time>2021-03-25T13:29:19Z</time>
      </trkpt>
      <trkpt lat="42.87294" lon="0.14389">
        <ele>2209</ele>
        <time>2021-03-25T13:29:20Z</time>
      </trkpt>
      <trkpt lat="42.87293" lon="0.14389">
        <ele>2209</ele>
        <time>2021-03-25T13:29:22Z</time>
      </trkpt>
      <trkpt lat="42.87292" lon="0.14389">
        <ele>2209</ele>
        <time>2021-03-25T13:29:23Z</time>
      </trkpt>
      <trkpt lat="42.87291" lon="0.14389">
        <ele>2210.1</ele>
        <time>2021-03-25T13:29:25Z</time>
      </trkpt>
      <trkpt lat="42.8729" lon="0.14389">
        <ele>2210.1</ele>
        <time>2021-03-25T13:29:26Z</time>
      </trkpt>
      <trkpt lat="42.8729" lon="0.14389">
        <ele>2210.1</ele>
        <time>2021-03-25T13:29:27Z</time>
      </trkpt>
      <trkpt lat="42.87289" lon="0.14389">
        <ele>2210.1</ele>
        <time>2021-03-25T13:29:29Z</time>
      </trkpt>
      <trkpt lat="42.87288" lon="0.14389">
        <ele>2211.3</ele>
        <time>2021-03-25T13:29:30Z</time>
      </trkpt>
      <trkpt lat="42.87287" lon="0.14389">
        <ele>2211.3</ele>
        <time>2021-03-25T13:29:32Z</time>
      </trkpt>
      <trkpt lat="42.87286" lon="0.14388">
        <ele>2211.3</ele>
        <time>2021-03-25T13:29:33Z</time>
      </trkpt>
      <trkpt lat="42.87285" lon="0.14388">
        <ele>2211.3</ele>
        <time>2021-03-25T13:29:34Z</time>
      </trkpt>
      <trkpt lat="42.87285" lon="0.14388">
        <ele>2211.3</ele>
        <time>2021-03-25T13:29:36Z</time>
      </trkpt>
      <trkpt lat="42.87285" lon="0.14388">
        <ele>2211.3</ele>
        <time>2021-03-25T13:29:37Z</time>
      </trkpt>
      <trkpt lat="42.87285" lon="0.14388">
        <ele>2212.4</ele>
        <time>2021-03-25T13:29:38Z</time>
      </trkpt>
      <trkpt lat="42.87285" lon="0.14388">
        <ele>2212.4</ele>
        <time>2021-03-25T13:29:39Z</time>
      </trkpt>
      <trkpt lat="42.87284" lon="0.14387">
        <ele>2212.4</ele>
        <time>2021-03-25T13:29:41Z</time>
      </trkpt>
      <trkpt lat="42.87284" lon="0.14387">
        <ele>2212.4</ele>
        <time>2021-03-25T13:29:42Z</time>
      </trkpt>
      <trkpt lat="42.87284" lon="0.14387">
        <ele>2212.4</ele>
        <time>2021-03-25T13:29:43Z</time>
      </trkpt>
      <trkpt lat="42.87283" lon="0.14387">
        <ele>2212.4</ele>
        <time>2021-03-25T13:29:44Z</time>
      </trkpt>
      <trkpt lat="42.87283" lon="0.14387">
        <ele>2212.4</ele>
        <time>2021-03-25T13:29:45Z</time>
      </trkpt>
      <trkpt lat="42.87282" lon="0.14386">
        <ele>2212.4</ele>
        <time>2021-03-25T13:29:46Z</time>
      </trkpt>
      <trkpt lat="42.87281" lon="0.14386">
        <ele>2213.6</ele>
        <time>2021-03-25T13:29:47Z</time>
      </trkpt>
      <trkpt lat="42.87281" lon="0.14386">
        <ele>2213.6</ele>
        <time>2021-03-25T13:29:49Z</time>
      </trkpt>
      <trkpt lat="42.8728" lon="0.14386">
        <ele>2213.6</ele>
        <time>2021-03-25T13:29:50Z</time>
      </trkpt>
      <trkpt lat="42.87281" lon="0.14386">
        <ele>2213.6</ele>
        <time>2021-03-25T13:29:51Z</time>
      </trkpt>
      <trkpt lat="42.8728" lon="0.14386">
        <ele>2213.6</ele>
        <time>2021-03-25T13:29:53Z</time>
      </trkpt>
      <trkpt lat="42.8728" lon="0.14386">
        <ele>2213.6</ele>
        <time>2021-03-25T13:29:54Z</time>
      </trkpt>
      <trkpt lat="42.87279" lon="0.14385">
        <ele>2213.6</ele>
        <time>2021-03-25T13:29:55Z</time>
      </trkpt>
      <trkpt lat="42.8728" lon="0.14386">
        <ele>2213.6</ele>
        <time>2021-03-25T13:29:56Z</time>
      </trkpt>
      <trkpt lat="42.8728" lon="0.14386">
        <ele>2213.6</ele>
        <time>2021-03-25T13:29:57Z</time>
      </trkpt>
      <trkpt lat="42.8728" lon="0.14386">
        <ele>2213.6</ele>
        <time>2021-03-25T13:29:58Z</time>
      </trkpt>
      <trkpt lat="42.8728" lon="0.14385">
        <ele>2213.6</ele>
        <time>2021-03-25T13:30:00Z</time>
      </trkpt>
      <trkpt lat="42.8728" lon="0.14385">
        <ele>2214.8</ele>
        <time>2021-03-25T13:30:01Z</time>
      </trkpt>
      <trkpt lat="42.87279" lon="0.14385">
        <ele>2214.8</ele>
        <time>2021-03-25T13:30:02Z</time>
      </trkpt>
      <trkpt lat="42.87279" lon="0.14385">
        <ele>2215.9</ele>
        <time>2021-03-25T13:30:04Z</time>
      </trkpt>
      <trkpt lat="42.87279" lon="0.14385">
        <ele>2215.9</ele>
        <time>2021-03-25T13:30:05Z</time>
      </trkpt>
      <trkpt lat="42.87278" lon="0.14384">
        <ele>2215.9</ele>
        <time>2021-03-25T13:30:07Z</time>
      </trkpt>
      <trkpt lat="42.87278" lon="0.14384">
        <ele>2215.9</ele>
        <time>2021-03-25T13:30:08Z</time>
      </trkpt>
      <trkpt lat="42.87278" lon="0.14384">
        <ele>2215.9</ele>
        <time>2021-03-25T13:30:09Z</time>
      </trkpt>
      <trkpt lat="42.87279" lon="0.14385">
        <ele>2215.9</ele>
        <time>2021-03-25T13:30:11Z</time>
      </trkpt>
      <trkpt lat="42.87279" lon="0.14385">
        <ele>2215.9</ele>
        <time>2021-03-25T13:30:12Z</time>
      </trkpt>
      <trkpt lat="42.87278" lon="0.14385">
        <ele>2215.9</ele>
        <time>2021-03-25T13:30:13Z</time>
      </trkpt>
      <trkpt lat="42.87278" lon="0.14385">
        <ele>2214.7</ele>
        <time>2021-03-25T13:30:14Z</time>
      </trkpt>
      <trkpt lat="42.87277" lon="0.14386">
        <ele>2214.7</ele>
        <time>2021-03-25T13:30:16Z</time>
      </trkpt>
      <trkpt lat="42.87276" lon="0.14387">
        <ele>2214.7</ele>
        <time>2021-03-25T13:30:17Z</time>
      </trkpt>
      <trkpt lat="42.87275" lon="0.14387">
        <ele>2215.8</ele>
        <time>2021-03-25T13:30:18Z</time>
      </trkpt>
      <trkpt lat="42.87273" lon="0.14387">
        <ele>2215.8</ele>
        <time>2021-03-25T13:30:20Z</time>
      </trkpt>
      <trkpt lat="42.87271" lon="0.14388">
        <ele>2216.8</ele>
        <time>2021-03-25T13:30:21Z</time>
      </trkpt>
      <trkpt lat="42.87268" lon="0.14388">
        <ele>2217.8</ele>
        <time>2021-03-25T13:30:23Z</time>
      </trkpt>
      <trkpt lat="42.87265" lon="0.14388">
        <ele>2218.7</ele>
        <time>2021-03-25T13:30:24Z</time>
      </trkpt>
      <trkpt lat="42.87263" lon="0.14388">
        <ele>2219.7</ele>
        <time>2021-03-25T13:30:25Z</time>
      </trkpt>
      <trkpt lat="42.8726" lon="0.14388">
        <ele>2219.7</ele>
        <time>2021-03-25T13:30:27Z</time>
      </trkpt>
      <trkpt lat="42.87257" lon="0.14387">
        <ele>2221.7</ele>
        <time>2021-03-25T13:30:28Z</time>
      </trkpt>
      <trkpt lat="42.87256" lon="0.14387">
        <ele>2221.7</ele>
        <time>2021-03-25T13:30:29Z</time>
      </trkpt>
      <trkpt lat="42.87254" lon="0.14387">
        <ele>2221.7</ele>
        <time>2021-03-25T13:30:31Z</time>
      </trkpt>
      <trkpt lat="42.87253" lon="0.14387">
        <ele>2222.7</ele>
        <time>2021-03-25T13:30:32Z</time>
      </trkpt>
      <trkpt lat="42.87251" lon="0.14387">
        <ele>2222.7</ele>
        <time>2021-03-25T13:30:33Z</time>
      </trkpt>
      <trkpt lat="42.8725" lon="0.14387">
        <ele>2223.8</ele>
        <time>2021-03-25T13:30:34Z</time>
      </trkpt>
      <trkpt lat="42.87248" lon="0.14388">
        <ele>2223.8</ele>
        <time>2021-03-25T13:30:35Z</time>
      </trkpt>
      <trkpt lat="42.87248" lon="0.14388">
        <ele>2223.8</ele>
        <time>2021-03-25T13:30:36Z</time>
      </trkpt>
      <trkpt lat="42.87247" lon="0.14389">
        <ele>2224.9</ele>
        <time>2021-03-25T13:30:38Z</time>
      </trkpt>
      <trkpt lat="42.87247" lon="0.14389">
        <ele>2224.9</ele>
        <time>2021-03-25T13:30:40Z</time>
      </trkpt>
      <trkpt lat="42.87247" lon="0.14389">
        <ele>2224.9</ele>
        <time>2021-03-25T13:30:42Z</time>
      </trkpt>
      <trkpt lat="42.87247" lon="0.1439">
        <ele>2224.9</ele>
        <time>2021-03-25T13:30:44Z</time>
      </trkpt>
      <trkpt lat="42.87247" lon="0.1439">
        <ele>2224.9</ele>
        <time>2021-03-25T13:30:45Z</time>
      </trkpt>
      <trkpt lat="42.87247" lon="0.1439">
        <ele>2224.9</ele>
        <time>2021-03-25T13:30:46Z</time>
      </trkpt>
      <trkpt lat="42.87247" lon="0.1439">
        <ele>2223.9</ele>
        <time>2021-03-25T13:30:48Z</time>
      </trkpt>
      <trkpt lat="42.87247" lon="0.1439">
        <ele>2223.9</ele>
        <time>2021-03-25T13:30:50Z</time>
      </trkpt>
      <trkpt lat="42.87247" lon="0.1439">
        <ele>2223.9</ele>
        <time>2021-03-25T13:30:51Z</time>
      </trkpt>
      <trkpt lat="42.87247" lon="0.1439">
        <ele>2224.9</ele>
        <time>2021-03-25T13:30:53Z</time>
      </trkpt>
      <trkpt lat="42.87246" lon="0.1439">
        <ele>2223.9</ele>
        <time>2021-03-25T13:30:54Z</time>
      </trkpt>
      <trkpt lat="42.87246" lon="0.1439">
        <ele>2223.9</ele>
        <time>2021-03-25T13:30:55Z</time>
      </trkpt>
      <trkpt lat="42.87247" lon="0.1439">
        <ele>2223.9</ele>
        <time>2021-03-25T13:30:56Z</time>
      </trkpt>
      <trkpt lat="42.87248" lon="0.14391">
        <ele>2222.8</ele>
        <time>2021-03-25T13:30:57Z</time>
      </trkpt>
      <trkpt lat="42.87249" lon="0.14392">
        <ele>2222.8</ele>
        <time>2021-03-25T13:30:58Z</time>
      </trkpt>
      <trkpt lat="42.87249" lon="0.14393">
        <ele>2222.8</ele>
        <time>2021-03-25T13:30:59Z</time>
      </trkpt>
      <trkpt lat="42.8725" lon="0.14394">
        <ele>2222.8</ele>
        <time>2021-03-25T13:31:01Z</time>
      </trkpt>
      <trkpt lat="42.8725" lon="0.14394">
        <ele>2222.8</ele>
        <time>2021-03-25T13:31:03Z</time>
      </trkpt>
      <trkpt lat="42.8725" lon="0.14394">
        <ele>2222.8</ele>
        <time>2021-03-25T13:31:05Z</time>
      </trkpt>
      <trkpt lat="42.8725" lon="0.14393">
        <ele>2222.8</ele>
        <time>2021-03-25T13:31:06Z</time>
      </trkpt>
      <trkpt lat="42.8725" lon="0.14393">
        <ele>2222.8</ele>
        <time>2021-03-25T13:31:08Z</time>
      </trkpt>
      <trkpt lat="42.8725" lon="0.14393">
        <ele>2222.8</ele>
        <time>2021-03-25T13:31:09Z</time>
      </trkpt>
      <trkpt lat="42.8725" lon="0.14393">
        <ele>2222.8</ele>
        <time>2021-03-25T13:31:11Z</time>
      </trkpt>
      <trkpt lat="42.8725" lon="0.14393">
        <ele>2222.8</ele>
        <time>2021-03-25T13:31:13Z</time>
      </trkpt>
      <trkpt lat="42.8725" lon="0.14393">
        <ele>2222.8</ele>
        <time>2021-03-25T13:31:14Z</time>
      </trkpt>
      <trkpt lat="42.8725" lon="0.14393">
        <ele>2222.8</ele>
        <time>2021-03-25T13:31:15Z</time>
      </trkpt>
      <trkpt lat="42.8725" lon="0.14393">
        <ele>2222.8</ele>
        <time>2021-03-25T13:31:17Z</time>
      </trkpt>
      <trkpt lat="42.8725" lon="0.14393">
        <ele>2222.8</ele>
        <time>2021-03-25T13:31:18Z</time>
      </trkpt>
      <trkpt lat="42.8725" lon="0.14393">
        <ele>2222.8</ele>
        <time>2021-03-25T13:31:20Z</time>
      </trkpt>
      <trkpt lat="42.8725" lon="0.14393">
        <ele>2222.8</ele>
        <time>2021-03-25T13:31:22Z</time>
      </trkpt>
      <trkpt lat="42.8725" lon="0.14393">
        <ele>2222.8</ele>
        <time>2021-03-25T13:31:23Z</time>
      </trkpt>
      <trkpt lat="42.8725" lon="0.14393">
        <ele>2222.8</ele>
        <time>2021-03-25T13:31:24Z</time>
      </trkpt>
      <trkpt lat="42.8725" lon="0.14393">
        <ele>2222.8</ele>
        <time>2021-03-25T13:31:26Z</time>
      </trkpt>
      <trkpt lat="42.8725" lon="0.14393">
        <ele>2222.8</ele>
        <time>2021-03-25T13:31:27Z</time>
      </trkpt>
      <trkpt lat="42.87249" lon="0.14393">
        <ele>2222.8</ele>
        <time>2021-03-25T13:31:29Z</time>
      </trkpt>
      <trkpt lat="42.87249" lon="0.14393">
        <ele>2222.8</ele>
        <time>2021-03-25T13:31:31Z</time>
      </trkpt>
      <trkpt lat="42.87249" lon="0.14393">
        <ele>2222.8</ele>
        <time>2021-03-25T13:31:32Z</time>
      </trkpt>
      <trkpt lat="42.87249" lon="0.14393">
        <ele>2222.8</ele>
        <time>2021-03-25T13:31:33Z</time>
      </trkpt>
      <trkpt lat="42.87249" lon="0.14393">
        <ele>2222.8</ele>
        <time>2021-03-25T13:31:34Z</time>
      </trkpt>
      <trkpt lat="42.87249" lon="0.14393">
        <ele>2222.8</ele>
        <time>2021-03-25T13:31:36Z</time>
      </trkpt>
      <trkpt lat="42.87248" lon="0.14394">
        <ele>2222.8</ele>
        <time>2021-03-25T13:31:37Z</time>
      </trkpt>
      <trkpt lat="42.87248" lon="0.14394">
        <ele>2222.8</ele>
        <time>2021-03-25T13:31:38Z</time>
      </trkpt>
      <trkpt lat="42.87247" lon="0.14394">
        <ele>2223.9</ele>
        <time>2021-03-25T13:31:40Z</time>
      </trkpt>
      <trkpt lat="42.87247" lon="0.14394">
        <ele>2223.9</ele>
        <time>2021-03-25T13:31:41Z</time>
      </trkpt>
      <trkpt lat="42.87245" lon="0.14393">
        <ele>2223.9</ele>
        <time>2021-03-25T13:31:43Z</time>
      </trkpt>
      <trkpt lat="42.87243" lon="0.14393">
        <ele>2225</ele>
        <time>2021-03-25T13:31:44Z</time>
      </trkpt>
      <trkpt lat="42.87242" lon="0.14393">
        <ele>2225</ele>
        <time>2021-03-25T13:31:45Z</time>
      </trkpt>
      <trkpt lat="42.87241" lon="0.14393">
        <ele>2225</ele>
        <time>2021-03-25T13:31:47Z</time>
      </trkpt>
      <trkpt lat="42.8724" lon="0.14392">
        <ele>2226.1</ele>
        <time>2021-03-25T13:31:48Z</time>
      </trkpt>
      <trkpt lat="42.87239" lon="0.14392">
        <ele>2226.1</ele>
        <time>2021-03-25T13:31:50Z</time>
      </trkpt>
      <trkpt lat="42.87238" lon="0.14392">
        <ele>2226.1</ele>
        <time>2021-03-25T13:31:51Z</time>
      </trkpt>
      <trkpt lat="42.87237" lon="0.14392">
        <ele>2227.2</ele>
        <time>2021-03-25T13:31:52Z</time>
      </trkpt>
      <trkpt lat="42.87235" lon="0.14391">
        <ele>2227.2</ele>
        <time>2021-03-25T13:31:54Z</time>
      </trkpt>
      <trkpt lat="42.87233" lon="0.14391">
        <ele>2228.2</ele>
        <time>2021-03-25T13:31:56Z</time>
      </trkpt>
      <trkpt lat="42.87233" lon="0.1439">
        <ele>2228.2</ele>
        <time>2021-03-25T13:31:57Z</time>
      </trkpt>
      <trkpt lat="42.87232" lon="0.1439">
        <ele>2228.2</ele>
        <time>2021-03-25T13:31:58Z</time>
      </trkpt>
      <trkpt lat="42.87234" lon="0.1439">
        <ele>2228.2</ele>
        <time>2021-03-25T13:32:00Z</time>
      </trkpt>
      <trkpt lat="42.87235" lon="0.1439">
        <ele>2228.2</ele>
        <time>2021-03-25T13:32:01Z</time>
      </trkpt>
      <trkpt lat="42.87236" lon="0.14391">
        <ele>2227.2</ele>
        <time>2021-03-25T13:32:02Z</time>
      </trkpt>
      <trkpt lat="42.87237" lon="0.14391">
        <ele>2227.2</ele>
        <time>2021-03-25T13:32:03Z</time>
      </trkpt>
      <trkpt lat="42.87239" lon="0.14392">
        <ele>2226.1</ele>
        <time>2021-03-25T13:32:05Z</time>
      </trkpt>
      <trkpt lat="42.87239" lon="0.14392">
        <ele>2226.1</ele>
        <time>2021-03-25T13:32:06Z</time>
      </trkpt>
      <trkpt lat="42.87239" lon="0.14392">
        <ele>2226.1</ele>
        <time>2021-03-25T13:32:07Z</time>
      </trkpt>
      <trkpt lat="42.87239" lon="0.14393">
        <ele>2226.1</ele>
        <time>2021-03-25T13:32:08Z</time>
      </trkpt>
      <trkpt lat="42.87238" lon="0.14394">
        <ele>2227.2</ele>
        <time>2021-03-25T13:32:10Z</time>
      </trkpt>
      <trkpt lat="42.87237" lon="0.14394">
        <ele>2226.2</ele>
        <time>2021-03-25T13:32:12Z</time>
      </trkpt>
      <trkpt lat="42.87236" lon="0.14395">
        <ele>2226.2</ele>
        <time>2021-03-25T13:32:13Z</time>
      </trkpt>
      <trkpt lat="42.87235" lon="0.14396">
        <ele>2226.2</ele>
        <time>2021-03-25T13:32:15Z</time>
      </trkpt>
      <trkpt lat="42.87234" lon="0.14397">
        <ele>2227.3</ele>
        <time>2021-03-25T13:32:16Z</time>
      </trkpt>
      <trkpt lat="42.87233" lon="0.14398">
        <ele>2227.3</ele>
        <time>2021-03-25T13:32:18Z</time>
      </trkpt>
      <trkpt lat="42.8723" lon="0.144">
        <ele>2227.5</ele>
        <time>2021-03-25T13:32:19Z</time>
      </trkpt>
      <trkpt lat="42.87229" lon="0.14401">
        <ele>2227.5</ele>
        <time>2021-03-25T13:32:21Z</time>
      </trkpt>
      <trkpt lat="42.87228" lon="0.14402">
        <ele>2228.7</ele>
        <time>2021-03-25T13:32:22Z</time>
      </trkpt>
      <trkpt lat="42.87226" lon="0.14403">
        <ele>2227.8</ele>
        <time>2021-03-25T13:32:23Z</time>
      </trkpt>
      <trkpt lat="42.87223" lon="0.14404">
        <ele>2229</ele>
        <time>2021-03-25T13:32:25Z</time>
      </trkpt>
      <trkpt lat="42.87222" lon="0.14405">
        <ele>2230.3</ele>
        <time>2021-03-25T13:32:26Z</time>
      </trkpt>
      <trkpt lat="42.8722" lon="0.14405">
        <ele>2230.3</ele>
        <time>2021-03-25T13:32:27Z</time>
      </trkpt>
      <trkpt lat="42.87218" lon="0.14405">
        <ele>2231.5</ele>
        <time>2021-03-25T13:32:28Z</time>
      </trkpt>
      <trkpt lat="42.87216" lon="0.14406">
        <ele>2231.5</ele>
        <time>2021-03-25T13:32:29Z</time>
      </trkpt>
      <trkpt lat="42.87215" lon="0.14407">
        <ele>2231.8</ele>
        <time>2021-03-25T13:32:31Z</time>
      </trkpt>
      <trkpt lat="42.87214" lon="0.14409">
        <ele>2231.8</ele>
        <time>2021-03-25T13:32:32Z</time>
      </trkpt>
      <trkpt lat="42.87214" lon="0.14413">
        <ele>2230.8</ele>
        <time>2021-03-25T13:32:34Z</time>
      </trkpt>
      <trkpt lat="42.87213" lon="0.14414">
        <ele>2230.8</ele>
        <time>2021-03-25T13:32:35Z</time>
      </trkpt>
      <trkpt lat="42.87213" lon="0.14414">
        <ele>2231.9</ele>
        <time>2021-03-25T13:32:36Z</time>
      </trkpt>
      <trkpt lat="42.87212" lon="0.14415">
        <ele>2231.9</ele>
        <time>2021-03-25T13:32:38Z</time>
      </trkpt>
      <trkpt lat="42.87211" lon="0.14416">
        <ele>2230.9</ele>
        <time>2021-03-25T13:32:39Z</time>
      </trkpt>
      <trkpt lat="42.8721" lon="0.14416">
        <ele>2230.9</ele>
        <time>2021-03-25T13:32:40Z</time>
      </trkpt>
      <trkpt lat="42.87209" lon="0.14417">
        <ele>2231.9</ele>
        <time>2021-03-25T13:32:42Z</time>
      </trkpt>
      <trkpt lat="42.87208" lon="0.14417">
        <ele>2231.9</ele>
        <time>2021-03-25T13:32:43Z</time>
      </trkpt>
      <trkpt lat="42.87208" lon="0.14417">
        <ele>2231.9</ele>
        <time>2021-03-25T13:32:44Z</time>
      </trkpt>
      <trkpt lat="42.87208" lon="0.14417">
        <ele>2231.9</ele>
        <time>2021-03-25T13:32:45Z</time>
      </trkpt>
      <trkpt lat="42.87208" lon="0.14418">
        <ele>2231.9</ele>
        <time>2021-03-25T13:32:47Z</time>
      </trkpt>
      <trkpt lat="42.87209" lon="0.14418">
        <ele>2231.9</ele>
        <time>2021-03-25T13:32:48Z</time>
      </trkpt>
      <trkpt lat="42.87209" lon="0.14419">
        <ele>2231.9</ele>
        <time>2021-03-25T13:32:49Z</time>
      </trkpt>
      <trkpt lat="42.87209" lon="0.14419">
        <ele>2231.9</ele>
        <time>2021-03-25T13:32:51Z</time>
      </trkpt>
      <trkpt lat="42.87209" lon="0.1442">
        <ele>2230.9</ele>
        <time>2021-03-25T13:32:52Z</time>
      </trkpt>
      <trkpt lat="42.87209" lon="0.1442">
        <ele>2230.9</ele>
        <time>2021-03-25T13:32:54Z</time>
      </trkpt>
      <trkpt lat="42.87208" lon="0.14421">
        <ele>2230.9</ele>
        <time>2021-03-25T13:32:55Z</time>
      </trkpt>
      <trkpt lat="42.87207" lon="0.14421">
        <ele>2230.9</ele>
        <time>2021-03-25T13:32:56Z</time>
      </trkpt>
      <trkpt lat="42.87206" lon="0.14421">
        <ele>2231.8</ele>
        <time>2021-03-25T13:32:58Z</time>
      </trkpt>
      <trkpt lat="42.87205" lon="0.14422">
        <ele>2231.8</ele>
        <time>2021-03-25T13:32:59Z</time>
      </trkpt>
      <trkpt lat="42.87204" lon="0.14422">
        <ele>2231.8</ele>
        <time>2021-03-25T13:33:00Z</time>
      </trkpt>
      <trkpt lat="42.87203" lon="0.14423">
        <ele>2232.8</ele>
        <time>2021-03-25T13:33:02Z</time>
      </trkpt>
      <trkpt lat="42.87202" lon="0.14423">
        <ele>2232.8</ele>
        <time>2021-03-25T13:33:03Z</time>
      </trkpt>
      <trkpt lat="42.87202" lon="0.14423">
        <ele>2232.8</ele>
        <time>2021-03-25T13:33:04Z</time>
      </trkpt>
      <trkpt lat="42.87202" lon="0.14423">
        <ele>2232.8</ele>
        <time>2021-03-25T13:33:05Z</time>
      </trkpt>
      <trkpt lat="42.87202" lon="0.14423">
        <ele>2232.8</ele>
        <time>2021-03-25T13:33:06Z</time>
      </trkpt>
      <trkpt lat="42.87202" lon="0.14423">
        <ele>2232.8</ele>
        <time>2021-03-25T13:33:07Z</time>
      </trkpt>
      <trkpt lat="42.87202" lon="0.14423">
        <ele>2232.8</ele>
        <time>2021-03-25T13:33:09Z</time>
      </trkpt>
      <trkpt lat="42.87202" lon="0.14423">
        <ele>2232.8</ele>
        <time>2021-03-25T13:33:10Z</time>
      </trkpt>
      <trkpt lat="42.87202" lon="0.14423">
        <ele>2232.8</ele>
        <time>2021-03-25T13:33:12Z</time>
      </trkpt>
      <trkpt lat="42.87202" lon="0.14423">
        <ele>2232.8</ele>
        <time>2021-03-25T13:33:13Z</time>
      </trkpt>
      <trkpt lat="42.87202" lon="0.14423">
        <ele>2232.8</ele>
        <time>2021-03-25T13:33:14Z</time>
      </trkpt>
      <trkpt lat="42.87202" lon="0.14423">
        <ele>2232.8</ele>
        <time>2021-03-25T13:33:16Z</time>
      </trkpt>
      <trkpt lat="42.87201" lon="0.14424">
        <ele>2232.8</ele>
        <time>2021-03-25T13:33:23Z</time>
      </trkpt>
      <trkpt lat="42.87201" lon="0.14424">
        <ele>2232.8</ele>
        <time>2021-03-25T13:33:24Z</time>
      </trkpt>
      <trkpt lat="42.872" lon="0.14424">
        <ele>2232.9</ele>
        <time>2021-03-25T13:33:27Z</time>
      </trkpt>
      <trkpt lat="42.872" lon="0.14424">
        <ele>2232.9</ele>
        <time>2021-03-25T13:33:29Z</time>
      </trkpt>
      <trkpt lat="42.872" lon="0.14424">
        <ele>2232.9</ele>
        <time>2021-03-25T13:33:31Z</time>
      </trkpt>
      <trkpt lat="42.872" lon="0.14424">
        <ele>2232.9</ele>
        <time>2021-03-25T13:33:32Z</time>
      </trkpt>
      <trkpt lat="42.872" lon="0.14424">
        <ele>2232.9</ele>
        <time>2021-03-25T13:33:33Z</time>
      </trkpt>
      <trkpt lat="42.872" lon="0.14424">
        <ele>2231.8</ele>
        <time>2021-03-25T13:33:35Z</time>
      </trkpt>
      <trkpt lat="42.87201" lon="0.14424">
        <ele>2231.8</ele>
        <time>2021-03-25T13:33:37Z</time>
      </trkpt>
      <trkpt lat="42.872" lon="0.14424">
        <ele>2231.8</ele>
        <time>2021-03-25T13:33:39Z</time>
      </trkpt>
      <trkpt lat="42.872" lon="0.14424">
        <ele>2231.8</ele>
        <time>2021-03-25T13:33:40Z</time>
      </trkpt>
      <trkpt lat="42.872" lon="0.14424">
        <ele>2231.8</ele>
        <time>2021-03-25T13:33:42Z</time>
      </trkpt>
      <trkpt lat="42.872" lon="0.14424">
        <ele>2231.8</ele>
        <time>2021-03-25T13:33:43Z</time>
      </trkpt>
      <trkpt lat="42.872" lon="0.14424">
        <ele>2231.8</ele>
        <time>2021-03-25T13:33:45Z</time>
      </trkpt>
      <trkpt lat="42.872" lon="0.14424">
        <ele>2231.8</ele>
        <time>2021-03-25T13:33:47Z</time>
      </trkpt>
      <trkpt lat="42.872" lon="0.14424">
        <ele>2232.8</ele>
        <time>2021-03-25T13:33:49Z</time>
      </trkpt>
      <trkpt lat="42.872" lon="0.14424">
        <ele>2233.9</ele>
        <time>2021-03-25T13:33:50Z</time>
      </trkpt>
      <trkpt lat="42.872" lon="0.14424">
        <ele>2233.9</ele>
        <time>2021-03-25T13:33:51Z</time>
      </trkpt>
      <trkpt lat="42.872" lon="0.14423">
        <ele>2233.9</ele>
        <time>2021-03-25T13:33:53Z</time>
      </trkpt>
      <trkpt lat="42.87199" lon="0.14423">
        <ele>2233.9</ele>
        <time>2021-03-25T13:33:54Z</time>
      </trkpt>
      <trkpt lat="42.87199" lon="0.14423">
        <ele>2233.9</ele>
        <time>2021-03-25T13:33:56Z</time>
      </trkpt>
      <trkpt lat="42.87198" lon="0.14422">
        <ele>2233.9</ele>
        <time>2021-03-25T13:33:58Z</time>
      </trkpt>
      <trkpt lat="42.87197" lon="0.1442">
        <ele>2235.1</ele>
        <time>2021-03-25T13:34:00Z</time>
      </trkpt>
      <trkpt lat="42.87196" lon="0.14419">
        <ele>2236.1</ele>
        <time>2021-03-25T13:34:02Z</time>
      </trkpt>
      <trkpt lat="42.87195" lon="0.14419">
        <ele>2236.1</ele>
        <time>2021-03-25T13:34:03Z</time>
      </trkpt>
      <trkpt lat="42.87194" lon="0.14418">
        <ele>2236.1</ele>
        <time>2021-03-25T13:34:04Z</time>
      </trkpt>
      <trkpt lat="42.87194" lon="0.14417">
        <ele>2237.2</ele>
        <time>2021-03-25T13:34:05Z</time>
      </trkpt>
      <trkpt lat="42.87192" lon="0.14417">
        <ele>2237.2</ele>
        <time>2021-03-25T13:34:06Z</time>
      </trkpt>
      <trkpt lat="42.87192" lon="0.14416">
        <ele>2237.2</ele>
        <time>2021-03-25T13:34:08Z</time>
      </trkpt>
      <trkpt lat="42.87191" lon="0.14416">
        <ele>2238.4</ele>
        <time>2021-03-25T13:34:09Z</time>
      </trkpt>
      <trkpt lat="42.87189" lon="0.14415">
        <ele>2239.2</ele>
        <time>2021-03-25T13:34:11Z</time>
      </trkpt>
      <trkpt lat="42.87189" lon="0.14416">
        <ele>2238.4</ele>
        <time>2021-03-25T13:34:13Z</time>
      </trkpt>
      <trkpt lat="42.8719" lon="0.1442">
        <ele>2237.5</ele>
        <time>2021-03-25T13:34:15Z</time>
      </trkpt>
      <trkpt lat="42.87191" lon="0.14422">
        <ele>2236.3</ele>
        <time>2021-03-25T13:34:16Z</time>
      </trkpt>
      <trkpt lat="42.87191" lon="0.14424">
        <ele>2236.3</ele>
        <time>2021-03-25T13:34:17Z</time>
      </trkpt>
      <trkpt lat="42.8719" lon="0.14425">
        <ele>2236.6</ele>
        <time>2021-03-25T13:34:19Z</time>
      </trkpt>
      <trkpt lat="42.87189" lon="0.14426">
        <ele>2236.6</ele>
        <time>2021-03-25T13:34:20Z</time>
      </trkpt>
      <trkpt lat="42.87188" lon="0.14426">
        <ele>2236.6</ele>
        <time>2021-03-25T13:34:21Z</time>
      </trkpt>
      <trkpt lat="42.87187" lon="0.14426">
        <ele>2237.8</ele>
        <time>2021-03-25T13:34:22Z</time>
      </trkpt>
      <trkpt lat="42.87186" lon="0.14427">
        <ele>2237.8</ele>
        <time>2021-03-25T13:34:23Z</time>
      </trkpt>
      <trkpt lat="42.87184" lon="0.14428">
        <ele>2238</ele>
        <time>2021-03-25T13:34:25Z</time>
      </trkpt>
      <trkpt lat="42.87183" lon="0.14429">
        <ele>2238</ele>
        <time>2021-03-25T13:34:26Z</time>
      </trkpt>
      <trkpt lat="42.87182" lon="0.14431">
        <ele>2238</ele>
        <time>2021-03-25T13:34:28Z</time>
      </trkpt>
      <trkpt lat="42.87181" lon="0.14433">
        <ele>2238.2</ele>
        <time>2021-03-25T13:34:29Z</time>
      </trkpt>
      <trkpt lat="42.8718" lon="0.14435">
        <ele>2238.2</ele>
        <time>2021-03-25T13:34:30Z</time>
      </trkpt>
      <trkpt lat="42.87177" lon="0.14439">
        <ele>2238.5</ele>
        <time>2021-03-25T13:34:32Z</time>
      </trkpt>
      <trkpt lat="42.87176" lon="0.1444">
        <ele>2238.5</ele>
        <time>2021-03-25T13:34:33Z</time>
      </trkpt>
      <trkpt lat="42.87174" lon="0.14444">
        <ele>2238.9</ele>
        <time>2021-03-25T13:34:35Z</time>
      </trkpt>
      <trkpt lat="42.87173" lon="0.14446">
        <ele>2238</ele>
        <time>2021-03-25T13:34:36Z</time>
      </trkpt>
      <trkpt lat="42.87172" lon="0.14449">
        <ele>2239.3</ele>
        <time>2021-03-25T13:34:38Z</time>
      </trkpt>
      <trkpt lat="42.8717" lon="0.14451">
        <ele>2238.4</ele>
        <time>2021-03-25T13:34:39Z</time>
      </trkpt>
      <trkpt lat="42.87169" lon="0.14452">
        <ele>2238.4</ele>
        <time>2021-03-25T13:34:41Z</time>
      </trkpt>
      <trkpt lat="42.87168" lon="0.14453">
        <ele>2239.8</ele>
        <time>2021-03-25T13:34:42Z</time>
      </trkpt>
      <trkpt lat="42.87168" lon="0.14453">
        <ele>2239.8</ele>
        <time>2021-03-25T13:34:43Z</time>
      </trkpt>
      <trkpt lat="42.87167" lon="0.14454">
        <ele>2239.8</ele>
        <time>2021-03-25T13:34:44Z</time>
      </trkpt>
      <trkpt lat="42.87167" lon="0.14455">
        <ele>2238.9</ele>
        <time>2021-03-25T13:34:45Z</time>
      </trkpt>
      <trkpt lat="42.87167" lon="0.14455">
        <ele>2238.9</ele>
        <time>2021-03-25T13:34:46Z</time>
      </trkpt>
      <trkpt lat="42.87167" lon="0.14458">
        <ele>2238.9</ele>
        <time>2021-03-25T13:34:48Z</time>
      </trkpt>
      <trkpt lat="42.87168" lon="0.14459">
        <ele>2237.9</ele>
        <time>2021-03-25T13:34:49Z</time>
      </trkpt>
      <trkpt lat="42.8717" lon="0.1446">
        <ele>2236.5</ele>
        <time>2021-03-25T13:34:50Z</time>
      </trkpt>
      <trkpt lat="42.87171" lon="0.14461">
        <ele>2236.5</ele>
        <time>2021-03-25T13:34:51Z</time>
      </trkpt>
      <trkpt lat="42.87171" lon="0.14462">
        <ele>2236.5</ele>
        <time>2021-03-25T13:34:52Z</time>
      </trkpt>
      <trkpt lat="42.87172" lon="0.14465">
        <ele>2234.2</ele>
        <time>2021-03-25T13:34:54Z</time>
      </trkpt>
      <trkpt lat="42.87172" lon="0.14465">
        <ele>2234.2</ele>
        <time>2021-03-25T13:34:55Z</time>
      </trkpt>
      <trkpt lat="42.87172" lon="0.14466">
        <ele>2235.5</ele>
        <time>2021-03-25T13:34:57Z</time>
      </trkpt>
      <trkpt lat="42.87171" lon="0.14466">
        <ele>2235.5</ele>
        <time>2021-03-25T13:34:58Z</time>
      </trkpt>
      <trkpt lat="42.8717" lon="0.14466">
        <ele>2235.5</ele>
        <time>2021-03-25T13:35:00Z</time>
      </trkpt>
      <trkpt lat="42.87169" lon="0.14466">
        <ele>2235.5</ele>
        <time>2021-03-25T13:35:01Z</time>
      </trkpt>
      <trkpt lat="42.87168" lon="0.14466">
        <ele>2236.8</ele>
        <time>2021-03-25T13:35:02Z</time>
      </trkpt>
      <trkpt lat="42.87167" lon="0.14466">
        <ele>2236.8</ele>
        <time>2021-03-25T13:35:03Z</time>
      </trkpt>
      <trkpt lat="42.87166" lon="0.14466">
        <ele>2236.8</ele>
        <time>2021-03-25T13:35:04Z</time>
      </trkpt>
      <trkpt lat="42.87165" lon="0.14466">
        <ele>2238.2</ele>
        <time>2021-03-25T13:35:05Z</time>
      </trkpt>
      <trkpt lat="42.87165" lon="0.14466">
        <ele>2238.2</ele>
        <time>2021-03-25T13:35:06Z</time>
      </trkpt>
      <trkpt lat="42.87164" lon="0.14466">
        <ele>2238.2</ele>
        <time>2021-03-25T13:35:07Z</time>
      </trkpt>
      <trkpt lat="42.87164" lon="0.14467">
        <ele>2237.1</ele>
        <time>2021-03-25T13:35:08Z</time>
      </trkpt>
      <trkpt lat="42.87163" lon="0.14468">
        <ele>2237.1</ele>
        <time>2021-03-25T13:35:10Z</time>
      </trkpt>
      <trkpt lat="42.87163" lon="0.14468">
        <ele>2237.1</ele>
        <time>2021-03-25T13:35:11Z</time>
      </trkpt>
      <trkpt lat="42.87163" lon="0.14468">
        <ele>2237.1</ele>
        <time>2021-03-25T13:35:12Z</time>
      </trkpt>
      <trkpt lat="42.87162" lon="0.14469">
        <ele>2238.3</ele>
        <time>2021-03-25T13:35:14Z</time>
      </trkpt>
      <trkpt lat="42.87162" lon="0.14469">
        <ele>2238.3</ele>
        <time>2021-03-25T13:35:15Z</time>
      </trkpt>
      <trkpt lat="42.87162" lon="0.1447">
        <ele>2238.3</ele>
        <time>2021-03-25T13:35:16Z</time>
      </trkpt>
      <trkpt lat="42.87161" lon="0.1447">
        <ele>2238.3</ele>
        <time>2021-03-25T13:35:17Z</time>
      </trkpt>
      <trkpt lat="42.87161" lon="0.14471">
        <ele>2238.3</ele>
        <time>2021-03-25T13:35:19Z</time>
      </trkpt>
      <trkpt lat="42.87159" lon="0.14471">
        <ele>2239.5</ele>
        <time>2021-03-25T13:35:20Z</time>
      </trkpt>
      <trkpt lat="42.87159" lon="0.14472">
        <ele>2238.4</ele>
        <time>2021-03-25T13:35:21Z</time>
      </trkpt>
      <trkpt lat="42.87158" lon="0.14472">
        <ele>2238.4</ele>
        <time>2021-03-25T13:35:22Z</time>
      </trkpt>
      <trkpt lat="42.87157" lon="0.14473">
        <ele>2238.4</ele>
        <time>2021-03-25T13:35:24Z</time>
      </trkpt>
      <trkpt lat="42.87156" lon="0.14474">
        <ele>2239.5</ele>
        <time>2021-03-25T13:35:25Z</time>
      </trkpt>
      <trkpt lat="42.87155" lon="0.14475">
        <ele>2239.5</ele>
        <time>2021-03-25T13:35:26Z</time>
      </trkpt>
      <trkpt lat="42.87154" lon="0.14475">
        <ele>2239.5</ele>
        <time>2021-03-25T13:35:28Z</time>
      </trkpt>
      <trkpt lat="42.87153" lon="0.14476">
        <ele>2238.5</ele>
        <time>2021-03-25T13:35:30Z</time>
      </trkpt>
      <trkpt lat="42.87153" lon="0.14476">
        <ele>2238.5</ele>
        <time>2021-03-25T13:35:31Z</time>
      </trkpt>
      <trkpt lat="42.87152" lon="0.14477">
        <ele>2239.6</ele>
        <time>2021-03-25T13:35:33Z</time>
      </trkpt>
      <trkpt lat="42.87154" lon="0.14478">
        <ele>2238.5</ele>
        <time>2021-03-25T13:35:34Z</time>
      </trkpt>
      <trkpt lat="42.87157" lon="0.1448">
        <ele>2236.3</ele>
        <time>2021-03-25T13:35:36Z</time>
      </trkpt>
      <trkpt lat="42.8716" lon="0.14483">
        <ele>2235.1</ele>
        <time>2021-03-25T13:35:37Z</time>
      </trkpt>
      <trkpt lat="42.87164" lon="0.14487">
        <ele>2232.8</ele>
        <time>2021-03-25T13:35:38Z</time>
      </trkpt>
      <trkpt lat="42.87165" lon="0.14489">
        <ele>2231.8</ele>
        <time>2021-03-25T13:35:40Z</time>
      </trkpt>
      <trkpt lat="42.87166" lon="0.1449">
        <ele>2230.4</ele>
        <time>2021-03-25T13:35:41Z</time>
      </trkpt>
      <trkpt lat="42.87167" lon="0.14491">
        <ele>2230.4</ele>
        <time>2021-03-25T13:35:42Z</time>
      </trkpt>
      <trkpt lat="42.87167" lon="0.14492">
        <ele>2230.4</ele>
        <time>2021-03-25T13:35:43Z</time>
      </trkpt>
      <trkpt lat="42.87167" lon="0.14492">
        <ele>2230.4</ele>
        <time>2021-03-25T13:35:44Z</time>
      </trkpt>
      <trkpt lat="42.87167" lon="0.14494">
        <ele>2229.4</ele>
        <time>2021-03-25T13:35:46Z</time>
      </trkpt>
      <trkpt lat="42.87166" lon="0.14495">
        <ele>2229.4</ele>
        <time>2021-03-25T13:35:47Z</time>
      </trkpt>
      <trkpt lat="42.87164" lon="0.14496">
        <ele>2230.8</ele>
        <time>2021-03-25T13:35:48Z</time>
      </trkpt>
      <trkpt lat="42.87162" lon="0.14498">
        <ele>2231.1</ele>
        <time>2021-03-25T13:35:50Z</time>
      </trkpt>
      <trkpt lat="42.87159" lon="0.145">
        <ele>2232.3</ele>
        <time>2021-03-25T13:35:51Z</time>
      </trkpt>
      <trkpt lat="42.87157" lon="0.14502">
        <ele>2231.2</ele>
        <time>2021-03-25T13:35:52Z</time>
      </trkpt>
      <trkpt lat="42.87154" lon="0.14504">
        <ele>2232.3</ele>
        <time>2021-03-25T13:35:54Z</time>
      </trkpt>
      <trkpt lat="42.87151" lon="0.14504">
        <ele>2233.5</ele>
        <time>2021-03-25T13:35:55Z</time>
      </trkpt>
      <trkpt lat="42.87149" lon="0.14505">
        <ele>2234.6</ele>
        <time>2021-03-25T13:35:56Z</time>
      </trkpt>
      <trkpt lat="42.87147" lon="0.14504">
        <ele>2234.6</ele>
        <time>2021-03-25T13:35:57Z</time>
      </trkpt>
      <trkpt lat="42.87144" lon="0.14503">
        <ele>2235.8</ele>
        <time>2021-03-25T13:35:59Z</time>
      </trkpt>
      <trkpt lat="42.87144" lon="0.14503">
        <ele>2237</ele>
        <time>2021-03-25T13:36:00Z</time>
      </trkpt>
      <trkpt lat="42.87141" lon="0.14502">
        <ele>2237</ele>
        <time>2021-03-25T13:36:01Z</time>
      </trkpt>
      <trkpt lat="42.8714" lon="0.14502">
        <ele>2238.2</ele>
        <time>2021-03-25T13:36:02Z</time>
      </trkpt>
      <trkpt lat="42.87137" lon="0.14501">
        <ele>2238.2</ele>
        <time>2021-03-25T13:36:04Z</time>
      </trkpt>
      <trkpt lat="42.87134" lon="0.14501">
        <ele>2240.4</ele>
        <time>2021-03-25T13:36:06Z</time>
      </trkpt>
      <trkpt lat="42.87131" lon="0.14501">
        <ele>2240.4</ele>
        <time>2021-03-25T13:36:08Z</time>
      </trkpt>
      <trkpt lat="42.8713" lon="0.14501">
        <ele>2241.4</ele>
        <time>2021-03-25T13:36:09Z</time>
      </trkpt>
      <trkpt lat="42.87129" lon="0.14502">
        <ele>2241.4</ele>
        <time>2021-03-25T13:36:10Z</time>
      </trkpt>
      <trkpt lat="42.87128" lon="0.14502">
        <ele>2241.4</ele>
        <time>2021-03-25T13:36:11Z</time>
      </trkpt>
      <trkpt lat="42.87128" lon="0.14503">
        <ele>2242.4</ele>
        <time>2021-03-25T13:36:12Z</time>
      </trkpt>
      <trkpt lat="42.87126" lon="0.14504">
        <ele>2242.4</ele>
        <time>2021-03-25T13:36:14Z</time>
      </trkpt>
      <trkpt lat="42.87125" lon="0.14504">
        <ele>2242.4</ele>
        <time>2021-03-25T13:36:15Z</time>
      </trkpt>
      <trkpt lat="42.87125" lon="0.14505">
        <ele>2242.4</ele>
        <time>2021-03-25T13:36:16Z</time>
      </trkpt>
      <trkpt lat="42.87123" lon="0.14507">
        <ele>2242.2</ele>
        <time>2021-03-25T13:36:18Z</time>
      </trkpt>
      <trkpt lat="42.87123" lon="0.14507">
        <ele>2242.2</ele>
        <time>2021-03-25T13:36:19Z</time>
      </trkpt>
      <trkpt lat="42.87123" lon="0.14508">
        <ele>2242.2</ele>
        <time>2021-03-25T13:36:20Z</time>
      </trkpt>
      <trkpt lat="42.87121" lon="0.14509">
        <ele>2243.2</ele>
        <time>2021-03-25T13:36:22Z</time>
      </trkpt>
      <trkpt lat="42.87121" lon="0.1451">
        <ele>2242.1</ele>
        <time>2021-03-25T13:36:24Z</time>
      </trkpt>
      <trkpt lat="42.8712" lon="0.14512">
        <ele>2242.1</ele>
        <time>2021-03-25T13:36:26Z</time>
      </trkpt>
      <trkpt lat="42.8712" lon="0.14513">
        <ele>2242.1</ele>
        <time>2021-03-25T13:36:27Z</time>
      </trkpt>
      <trkpt lat="42.8712" lon="0.14514">
        <ele>2240.9</ele>
        <time>2021-03-25T13:36:29Z</time>
      </trkpt>
      <trkpt lat="42.8712" lon="0.14515">
        <ele>2240.9</ele>
        <time>2021-03-25T13:36:30Z</time>
      </trkpt>
      <trkpt lat="42.8712" lon="0.14515">
        <ele>2240.9</ele>
        <time>2021-03-25T13:36:31Z</time>
      </trkpt>
      <trkpt lat="42.87119" lon="0.14515">
        <ele>2240.9</ele>
        <time>2021-03-25T13:36:32Z</time>
      </trkpt>
      <trkpt lat="42.8712" lon="0.14515">
        <ele>2240.9</ele>
        <time>2021-03-25T13:36:33Z</time>
      </trkpt>
      <trkpt lat="42.87121" lon="0.14515">
        <ele>2240.9</ele>
        <time>2021-03-25T13:36:34Z</time>
      </trkpt>
      <trkpt lat="42.87123" lon="0.14515">
        <ele>2239.9</ele>
        <time>2021-03-25T13:36:36Z</time>
      </trkpt>
      <trkpt lat="42.87124" lon="0.14514">
        <ele>2239.9</ele>
        <time>2021-03-25T13:36:37Z</time>
      </trkpt>
      <trkpt lat="42.87124" lon="0.14514">
        <ele>2239.9</ele>
        <time>2021-03-25T13:36:38Z</time>
      </trkpt>
      <trkpt lat="42.87125" lon="0.14514">
        <ele>2238.9</ele>
        <time>2021-03-25T13:36:40Z</time>
      </trkpt>
      <trkpt lat="42.87125" lon="0.14514">
        <ele>2238.9</ele>
        <time>2021-03-25T13:36:41Z</time>
      </trkpt>
      <trkpt lat="42.87125" lon="0.14514">
        <ele>2238.9</ele>
        <time>2021-03-25T13:36:42Z</time>
      </trkpt>
      <trkpt lat="42.87126" lon="0.14514">
        <ele>2238.9</ele>
        <time>2021-03-25T13:36:43Z</time>
      </trkpt>
      <trkpt lat="42.87126" lon="0.14514">
        <ele>2238.9</ele>
        <time>2021-03-25T13:36:44Z</time>
      </trkpt>
      <trkpt lat="42.87126" lon="0.14514">
        <ele>2238.9</ele>
        <time>2021-03-25T13:36:45Z</time>
      </trkpt>
      <trkpt lat="42.87125" lon="0.14514">
        <ele>2238.9</ele>
        <time>2021-03-25T13:36:46Z</time>
      </trkpt>
      <trkpt lat="42.87125" lon="0.14514">
        <ele>2238.9</ele>
        <time>2021-03-25T13:36:47Z</time>
      </trkpt>
      <trkpt lat="42.87125" lon="0.14514">
        <ele>2238.9</ele>
        <time>2021-03-25T13:36:49Z</time>
      </trkpt>
      <trkpt lat="42.87125" lon="0.14514">
        <ele>2240.1</ele>
        <time>2021-03-25T13:36:50Z</time>
      </trkpt>
      <trkpt lat="42.87125" lon="0.14514">
        <ele>2240.1</ele>
        <time>2021-03-25T13:36:51Z</time>
      </trkpt>
      <trkpt lat="42.87124" lon="0.14514">
        <ele>2241.1</ele>
        <time>2021-03-25T13:36:53Z</time>
      </trkpt>
      <trkpt lat="42.87124" lon="0.14513">
        <ele>2241.1</ele>
        <time>2021-03-25T13:36:54Z</time>
      </trkpt>
      <trkpt lat="42.87124" lon="0.14513">
        <ele>2241.1</ele>
        <time>2021-03-25T13:36:55Z</time>
      </trkpt>
      <trkpt lat="42.87123" lon="0.14513">
        <ele>2241.1</ele>
        <time>2021-03-25T13:36:56Z</time>
      </trkpt>
      <trkpt lat="42.87123" lon="0.14513">
        <ele>2241.1</ele>
        <time>2021-03-25T13:36:57Z</time>
      </trkpt>
      <trkpt lat="42.87122" lon="0.14513">
        <ele>2241.1</ele>
        <time>2021-03-25T13:36:59Z</time>
      </trkpt>
      <trkpt lat="42.87121" lon="0.14513">
        <ele>2242.1</ele>
        <time>2021-03-25T13:37:00Z</time>
      </trkpt>
      <trkpt lat="42.87121" lon="0.14512">
        <ele>2242.1</ele>
        <time>2021-03-25T13:37:01Z</time>
      </trkpt>
      <trkpt lat="42.8712" lon="0.14512">
        <ele>2242.1</ele>
        <time>2021-03-25T13:37:03Z</time>
      </trkpt>
      <trkpt lat="42.8712" lon="0.14511">
        <ele>2242.1</ele>
        <time>2021-03-25T13:37:05Z</time>
      </trkpt>
      <trkpt lat="42.8712" lon="0.14511">
        <ele>2242.1</ele>
        <time>2021-03-25T13:37:06Z</time>
      </trkpt>
      <trkpt lat="42.87119" lon="0.1451">
        <ele>2242.1</ele>
        <time>2021-03-25T13:37:08Z</time>
      </trkpt>
      <trkpt lat="42.87119" lon="0.1451">
        <ele>2242.1</ele>
        <time>2021-03-25T13:37:10Z</time>
      </trkpt>
      <trkpt lat="42.87119" lon="0.1451">
        <ele>2242.1</ele>
        <time>2021-03-25T13:37:11Z</time>
      </trkpt>
      <trkpt lat="42.87119" lon="0.1451">
        <ele>2243.2</ele>
        <time>2021-03-25T13:37:12Z</time>
      </trkpt>
      <trkpt lat="42.87119" lon="0.14509">
        <ele>2243.2</ele>
        <time>2021-03-25T13:37:14Z</time>
      </trkpt>
      <trkpt lat="42.87119" lon="0.14509">
        <ele>2243.2</ele>
        <time>2021-03-25T13:37:15Z</time>
      </trkpt>
      <trkpt lat="42.87118" lon="0.14509">
        <ele>2244.3</ele>
        <time>2021-03-25T13:37:17Z</time>
      </trkpt>
      <trkpt lat="42.87118" lon="0.14509">
        <ele>2244.3</ele>
        <time>2021-03-25T13:37:18Z</time>
      </trkpt>
      <trkpt lat="42.87118" lon="0.14509">
        <ele>2244.3</ele>
        <time>2021-03-25T13:37:19Z</time>
      </trkpt>
      <trkpt lat="42.87117" lon="0.14509">
        <ele>2244.3</ele>
        <time>2021-03-25T13:37:21Z</time>
      </trkpt>
      <trkpt lat="42.87117" lon="0.14508">
        <ele>2244.3</ele>
        <time>2021-03-25T13:37:22Z</time>
      </trkpt>
      <trkpt lat="42.87118" lon="0.14509">
        <ele>2244.3</ele>
        <time>2021-03-25T13:37:23Z</time>
      </trkpt>
      <trkpt lat="42.87119" lon="0.1451">
        <ele>2242.1</ele>
        <time>2021-03-25T13:37:24Z</time>
      </trkpt>
      <trkpt lat="42.87119" lon="0.1451">
        <ele>2242.1</ele>
        <time>2021-03-25T13:37:26Z</time>
      </trkpt>
      <trkpt lat="42.87118" lon="0.1451">
        <ele>2242.1</ele>
        <time>2021-03-25T13:37:28Z</time>
      </trkpt>
      <trkpt lat="42.87118" lon="0.1451">
        <ele>2243.1</ele>
        <time>2021-03-25T13:37:29Z</time>
      </trkpt>
      <trkpt lat="42.87117" lon="0.1451">
        <ele>2244.3</ele>
        <time>2021-03-25T13:37:30Z</time>
      </trkpt>
      <trkpt lat="42.87117" lon="0.14509">
        <ele>2244.3</ele>
        <time>2021-03-25T13:37:32Z</time>
      </trkpt>
      <trkpt lat="42.87116" lon="0.14509">
        <ele>2244.3</ele>
        <time>2021-03-25T13:37:33Z</time>
      </trkpt>
      <trkpt lat="42.87116" lon="0.14509">
        <ele>2244.3</ele>
        <time>2021-03-25T13:37:34Z</time>
      </trkpt>
      <trkpt lat="42.87115" lon="0.14509">
        <ele>2244.3</ele>
        <time>2021-03-25T13:37:35Z</time>
      </trkpt>
      <trkpt lat="42.87115" lon="0.14508">
        <ele>2245.3</ele>
        <time>2021-03-25T13:37:37Z</time>
      </trkpt>
      <trkpt lat="42.87114" lon="0.14508">
        <ele>2245.3</ele>
        <time>2021-03-25T13:37:38Z</time>
      </trkpt>
      <trkpt lat="42.87114" lon="0.14507">
        <ele>2245.3</ele>
        <time>2021-03-25T13:37:39Z</time>
      </trkpt>
      <trkpt lat="42.87113" lon="0.14507">
        <ele>2245.3</ele>
        <time>2021-03-25T13:37:40Z</time>
      </trkpt>
      <trkpt lat="42.87113" lon="0.14506">
        <ele>2245.3</ele>
        <time>2021-03-25T13:37:41Z</time>
      </trkpt>
      <trkpt lat="42.87112" lon="0.14506">
        <ele>2246.3</ele>
        <time>2021-03-25T13:37:42Z</time>
      </trkpt>
      <trkpt lat="42.87112" lon="0.14506">
        <ele>2246.3</ele>
        <time>2021-03-25T13:37:43Z</time>
      </trkpt>
      <trkpt lat="42.87111" lon="0.14505">
        <ele>2247.4</ele>
        <time>2021-03-25T13:37:45Z</time>
      </trkpt>
      <trkpt lat="42.8711" lon="0.14505">
        <ele>2247.4</ele>
        <time>2021-03-25T13:37:46Z</time>
      </trkpt>
      <trkpt lat="42.8711" lon="0.14504">
        <ele>2247.4</ele>
        <time>2021-03-25T13:37:47Z</time>
      </trkpt>
      <trkpt lat="42.87109" lon="0.14504">
        <ele>2247.4</ele>
        <time>2021-03-25T13:37:49Z</time>
      </trkpt>
      <trkpt lat="42.87109" lon="0.14503">
        <ele>2248.4</ele>
        <time>2021-03-25T13:37:51Z</time>
      </trkpt>
      <trkpt lat="42.87108" lon="0.14503">
        <ele>2248.4</ele>
        <time>2021-03-25T13:37:52Z</time>
      </trkpt>
      <trkpt lat="42.87108" lon="0.14502">
        <ele>2248.4</ele>
        <time>2021-03-25T13:37:53Z</time>
      </trkpt>
      <trkpt lat="42.87107" lon="0.14502">
        <ele>2248.4</ele>
        <time>2021-03-25T13:37:55Z</time>
      </trkpt>
      <trkpt lat="42.87107" lon="0.14501">
        <ele>2248.4</ele>
        <time>2021-03-25T13:37:56Z</time>
      </trkpt>
      <trkpt lat="42.87106" lon="0.14501">
        <ele>2248.4</ele>
        <time>2021-03-25T13:37:57Z</time>
      </trkpt>
      <trkpt lat="42.87106" lon="0.14501">
        <ele>2249.4</ele>
        <time>2021-03-25T13:37:59Z</time>
      </trkpt>
      <trkpt lat="42.87106" lon="0.145">
        <ele>2250.4</ele>
        <time>2021-03-25T13:38:00Z</time>
      </trkpt>
      <trkpt lat="42.87111" lon="0.14504">
        <ele>2247.4</ele>
        <time>2021-03-25T13:38:02Z</time>
      </trkpt>
      <trkpt lat="42.87117" lon="0.14508">
        <ele>2244.3</ele>
        <time>2021-03-25T13:38:04Z</time>
      </trkpt>
      <trkpt lat="42.8712" lon="0.14511">
        <ele>2242.1</ele>
        <time>2021-03-25T13:38:05Z</time>
      </trkpt>
      <trkpt lat="42.87121" lon="0.14512">
        <ele>2242.1</ele>
        <time>2021-03-25T13:38:06Z</time>
      </trkpt>
      <trkpt lat="42.87122" lon="0.14515">
        <ele>2239.9</ele>
        <time>2021-03-25T13:38:08Z</time>
      </trkpt>
      <trkpt lat="42.87121" lon="0.14516">
        <ele>2240.9</ele>
        <time>2021-03-25T13:38:09Z</time>
      </trkpt>
      <trkpt lat="42.87121" lon="0.14517">
        <ele>2240.9</ele>
        <time>2021-03-25T13:38:10Z</time>
      </trkpt>
      <trkpt lat="42.8712" lon="0.14522">
        <ele>2239.7</ele>
        <time>2021-03-25T13:38:12Z</time>
      </trkpt>
      <trkpt lat="42.87119" lon="0.14524">
        <ele>2238.6</ele>
        <time>2021-03-25T13:38:13Z</time>
      </trkpt>
      <trkpt lat="42.87117" lon="0.14529">
        <ele>2238.5</ele>
        <time>2021-03-25T13:38:15Z</time>
      </trkpt>
      <trkpt lat="42.87116" lon="0.14531">
        <ele>2237.4</ele>
        <time>2021-03-25T13:38:16Z</time>
      </trkpt>
      <trkpt lat="42.87115" lon="0.14533">
        <ele>2238.6</ele>
        <time>2021-03-25T13:38:17Z</time>
      </trkpt>
      <trkpt lat="42.87114" lon="0.14534">
        <ele>2238.6</ele>
        <time>2021-03-25T13:38:18Z</time>
      </trkpt>
      <trkpt lat="42.87113" lon="0.14536">
        <ele>2237.6</ele>
        <time>2021-03-25T13:38:20Z</time>
      </trkpt>
      <trkpt lat="42.87112" lon="0.14537">
        <ele>2238.7</ele>
        <time>2021-03-25T13:38:21Z</time>
      </trkpt>
      <trkpt lat="42.8711" lon="0.14539">
        <ele>2238.7</ele>
        <time>2021-03-25T13:38:23Z</time>
      </trkpt>
      <trkpt lat="42.87109" lon="0.14541">
        <ele>2239</ele>
        <time>2021-03-25T13:38:24Z</time>
      </trkpt>
      <trkpt lat="42.87108" lon="0.14542">
        <ele>2239</ele>
        <time>2021-03-25T13:38:25Z</time>
      </trkpt>
      <trkpt lat="42.87108" lon="0.14543">
        <ele>2239</ele>
        <time>2021-03-25T13:38:26Z</time>
      </trkpt>
      <trkpt lat="42.87107" lon="0.14544">
        <ele>2238</ele>
        <time>2021-03-25T13:38:27Z</time>
      </trkpt>
      <trkpt lat="42.87107" lon="0.14545">
        <ele>2238</ele>
        <time>2021-03-25T13:38:29Z</time>
      </trkpt>
      <trkpt lat="42.87106" lon="0.14545">
        <ele>2238</ele>
        <time>2021-03-25T13:38:30Z</time>
      </trkpt>
      <trkpt lat="42.87106" lon="0.14546">
        <ele>2238</ele>
        <time>2021-03-25T13:38:32Z</time>
      </trkpt>
      <trkpt lat="42.87106" lon="0.14546">
        <ele>2239.2</ele>
        <time>2021-03-25T13:38:33Z</time>
      </trkpt>
      <trkpt lat="42.87106" lon="0.14547">
        <ele>2239.2</ele>
        <time>2021-03-25T13:38:34Z</time>
      </trkpt>
      <trkpt lat="42.87106" lon="0.14547">
        <ele>2239.2</ele>
        <time>2021-03-25T13:38:36Z</time>
      </trkpt>
      <trkpt lat="42.87106" lon="0.14547">
        <ele>2239.2</ele>
        <time>2021-03-25T13:38:37Z</time>
      </trkpt>
      <trkpt lat="42.87106" lon="0.14547">
        <ele>2238</ele>
        <time>2021-03-25T13:38:39Z</time>
      </trkpt>
      <trkpt lat="42.87106" lon="0.14547">
        <ele>2238</ele>
        <time>2021-03-25T13:38:41Z</time>
      </trkpt>
      <trkpt lat="42.87106" lon="0.14547">
        <ele>2238</ele>
        <time>2021-03-25T13:38:43Z</time>
      </trkpt>
      <trkpt lat="42.87106" lon="0.14548">
        <ele>2238</ele>
        <time>2021-03-25T13:38:44Z</time>
      </trkpt>
      <trkpt lat="42.87106" lon="0.14548">
        <ele>2238</ele>
        <time>2021-03-25T13:38:45Z</time>
      </trkpt>
      <trkpt lat="42.87106" lon="0.14548">
        <ele>2238</ele>
        <time>2021-03-25T13:38:47Z</time>
      </trkpt>
      <trkpt lat="42.87106" lon="0.14548">
        <ele>2238</ele>
        <time>2021-03-25T13:38:48Z</time>
      </trkpt>
      <trkpt lat="42.87106" lon="0.14548">
        <ele>2239.2</ele>
        <time>2021-03-25T13:38:49Z</time>
      </trkpt>
      <trkpt lat="42.87106" lon="0.14548">
        <ele>2239.2</ele>
        <time>2021-03-25T13:38:51Z</time>
      </trkpt>
      <trkpt lat="42.87105" lon="0.14548">
        <ele>2239.2</ele>
        <time>2021-03-25T13:38:52Z</time>
      </trkpt>
      <trkpt lat="42.87105" lon="0.14548">
        <ele>2239.2</ele>
        <time>2021-03-25T13:38:53Z</time>
      </trkpt>
      <trkpt lat="42.87105" lon="0.14548">
        <ele>2239.2</ele>
        <time>2021-03-25T13:38:55Z</time>
      </trkpt>
      <trkpt lat="42.87104" lon="0.14548">
        <ele>2239.2</ele>
        <time>2021-03-25T13:38:56Z</time>
      </trkpt>
      <trkpt lat="42.87104" lon="0.14548">
        <ele>2239.2</ele>
        <time>2021-03-25T13:38:57Z</time>
      </trkpt>
      <trkpt lat="42.87104" lon="0.14548">
        <ele>2239.2</ele>
        <time>2021-03-25T13:38:58Z</time>
      </trkpt>
      <trkpt lat="42.87104" lon="0.14548">
        <ele>2239.2</ele>
        <time>2021-03-25T13:39:00Z</time>
      </trkpt>
      <trkpt lat="42.87103" lon="0.14548">
        <ele>2239.2</ele>
        <time>2021-03-25T13:39:01Z</time>
      </trkpt>
      <trkpt lat="42.87103" lon="0.14548">
        <ele>2239.2</ele>
        <time>2021-03-25T13:39:02Z</time>
      </trkpt>
      <trkpt lat="42.87102" lon="0.14548">
        <ele>2240.4</ele>
        <time>2021-03-25T13:39:04Z</time>
      </trkpt>
      <trkpt lat="42.87102" lon="0.14548">
        <ele>2240.4</ele>
        <time>2021-03-25T13:39:05Z</time>
      </trkpt>
      <trkpt lat="42.87102" lon="0.14548">
        <ele>2240.4</ele>
        <time>2021-03-25T13:39:06Z</time>
      </trkpt>
      <trkpt lat="42.87102" lon="0.14548">
        <ele>2240.4</ele>
        <time>2021-03-25T13:39:07Z</time>
      </trkpt>
      <trkpt lat="42.87102" lon="0.14548">
        <ele>2240.4</ele>
        <time>2021-03-25T13:39:08Z</time>
      </trkpt>
      <trkpt lat="42.87101" lon="0.14548">
        <ele>2240.4</ele>
        <time>2021-03-25T13:39:09Z</time>
      </trkpt>
      <trkpt lat="42.87101" lon="0.14548">
        <ele>2240.4</ele>
        <time>2021-03-25T13:39:10Z</time>
      </trkpt>
      <trkpt lat="42.87101" lon="0.14548">
        <ele>2240.4</ele>
        <time>2021-03-25T13:39:11Z</time>
      </trkpt>
      <trkpt lat="42.87101" lon="0.14548">
        <ele>2240.4</ele>
        <time>2021-03-25T13:39:12Z</time>
      </trkpt>
      <trkpt lat="42.871" lon="0.14547">
        <ele>2240.4</ele>
        <time>2021-03-25T13:39:14Z</time>
      </trkpt>
      <trkpt lat="42.871" lon="0.14547">
        <ele>2240.4</ele>
        <time>2021-03-25T13:39:15Z</time>
      </trkpt>
      <trkpt lat="42.87099" lon="0.14547">
        <ele>2241.6</ele>
        <time>2021-03-25T13:39:16Z</time>
      </trkpt>
      <trkpt lat="42.87099" lon="0.14547">
        <ele>2241.6</ele>
        <time>2021-03-25T13:39:17Z</time>
      </trkpt>
      <trkpt lat="42.87099" lon="0.14547">
        <ele>2241.6</ele>
        <time>2021-03-25T13:39:18Z</time>
      </trkpt>
      <trkpt lat="42.87098" lon="0.14547">
        <ele>2241.6</ele>
        <time>2021-03-25T13:39:20Z</time>
      </trkpt>
      <trkpt lat="42.87098" lon="0.14547">
        <ele>2241.6</ele>
        <time>2021-03-25T13:39:21Z</time>
      </trkpt>
      <trkpt lat="42.87098" lon="0.14547">
        <ele>2241.6</ele>
        <time>2021-03-25T13:39:23Z</time>
      </trkpt>
      <trkpt lat="42.87098" lon="0.14547">
        <ele>2241.6</ele>
        <time>2021-03-25T13:39:24Z</time>
      </trkpt>
      <trkpt lat="42.87098" lon="0.14547">
        <ele>2241.6</ele>
        <time>2021-03-25T13:39:25Z</time>
      </trkpt>
      <trkpt lat="42.87097" lon="0.14547">
        <ele>2241.6</ele>
        <time>2021-03-25T13:39:27Z</time>
      </trkpt>
      <trkpt lat="42.87097" lon="0.14547">
        <ele>2241.6</ele>
        <time>2021-03-25T13:39:28Z</time>
      </trkpt>
      <trkpt lat="42.87098" lon="0.14547">
        <ele>2241.6</ele>
        <time>2021-03-25T13:39:30Z</time>
      </trkpt>
      <trkpt lat="42.87098" lon="0.14547">
        <ele>2241.6</ele>
        <time>2021-03-25T13:39:31Z</time>
      </trkpt>
      <trkpt lat="42.87098" lon="0.14548">
        <ele>2241.6</ele>
        <time>2021-03-25T13:39:32Z</time>
      </trkpt>
      <trkpt lat="42.87098" lon="0.14548">
        <ele>2241.6</ele>
        <time>2021-03-25T13:39:33Z</time>
      </trkpt>
      <trkpt lat="42.871" lon="0.14547">
        <ele>2240.4</ele>
        <time>2021-03-25T13:39:35Z</time>
      </trkpt>
      <trkpt lat="42.87102" lon="0.14547">
        <ele>2240.4</ele>
        <time>2021-03-25T13:39:36Z</time>
      </trkpt>
      <trkpt lat="42.87104" lon="0.14547">
        <ele>2239.2</ele>
        <time>2021-03-25T13:39:37Z</time>
      </trkpt>
      <trkpt lat="42.87105" lon="0.14547">
        <ele>2239.2</ele>
        <time>2021-03-25T13:39:39Z</time>
      </trkpt>
      <trkpt lat="42.87102" lon="0.14547">
        <ele>2240.4</ele>
        <time>2021-03-25T13:39:41Z</time>
      </trkpt>
      <trkpt lat="42.871" lon="0.14547">
        <ele>2240.4</ele>
        <time>2021-03-25T13:39:42Z</time>
      </trkpt>
      <trkpt lat="42.87099" lon="0.14547">
        <ele>2241.6</ele>
        <time>2021-03-25T13:39:43Z</time>
      </trkpt>
      <trkpt lat="42.87099" lon="0.14547">
        <ele>2241.6</ele>
        <time>2021-03-25T13:39:44Z</time>
      </trkpt>
      <trkpt lat="42.87098" lon="0.14547">
        <ele>2241.6</ele>
        <time>2021-03-25T13:39:46Z</time>
      </trkpt>
      <trkpt lat="42.87098" lon="0.14546">
        <ele>2241.6</ele>
        <time>2021-03-25T13:39:48Z</time>
      </trkpt>
      <trkpt lat="42.87097" lon="0.14546">
        <ele>2241.6</ele>
        <time>2021-03-25T13:39:49Z</time>
      </trkpt>
      <trkpt lat="42.87097" lon="0.14546">
        <ele>2241.6</ele>
        <time>2021-03-25T13:39:51Z</time>
      </trkpt>
      <trkpt lat="42.87096" lon="0.14546">
        <ele>2242.6</ele>
        <time>2021-03-25T13:39:53Z</time>
      </trkpt>
      <trkpt lat="42.87095" lon="0.14546">
        <ele>2242.6</ele>
        <time>2021-03-25T13:39:54Z</time>
      </trkpt>
      <trkpt lat="42.87095" lon="0.14546">
        <ele>2242.6</ele>
        <time>2021-03-25T13:39:55Z</time>
      </trkpt>
      <trkpt lat="42.87094" lon="0.14546">
        <ele>2242.6</ele>
        <time>2021-03-25T13:39:56Z</time>
      </trkpt>
      <trkpt lat="42.87093" lon="0.14545">
        <ele>2242.6</ele>
        <time>2021-03-25T13:39:58Z</time>
      </trkpt>
      <trkpt lat="42.87093" lon="0.14545">
        <ele>2243.7</ele>
        <time>2021-03-25T13:39:59Z</time>
      </trkpt>
      <trkpt lat="42.87091" lon="0.14545">
        <ele>2243.7</ele>
        <time>2021-03-25T13:40:01Z</time>
      </trkpt>
      <trkpt lat="42.8709" lon="0.14544">
        <ele>2245.6</ele>
        <time>2021-03-25T13:40:03Z</time>
      </trkpt>
      <trkpt lat="42.87089" lon="0.14543">
        <ele>2245.6</ele>
        <time>2021-03-25T13:40:04Z</time>
      </trkpt>
      <trkpt lat="42.87088" lon="0.14543">
        <ele>2245.6</ele>
        <time>2021-03-25T13:40:06Z</time>
      </trkpt>
      <trkpt lat="42.87088" lon="0.14543">
        <ele>2245.6</ele>
        <time>2021-03-25T13:40:07Z</time>
      </trkpt>
      <trkpt lat="42.87088" lon="0.14543">
        <ele>2245.6</ele>
        <time>2021-03-25T13:40:09Z</time>
      </trkpt>
      <trkpt lat="42.87088" lon="0.14543">
        <ele>2245.6</ele>
        <time>2021-03-25T13:40:10Z</time>
      </trkpt>
      <trkpt lat="42.87087" lon="0.14542">
        <ele>2245.6</ele>
        <time>2021-03-25T13:40:12Z</time>
      </trkpt>
      <trkpt lat="42.87086" lon="0.14542">
        <ele>2246.8</ele>
        <time>2021-03-25T13:40:13Z</time>
      </trkpt>
      <trkpt lat="42.87086" lon="0.14542">
        <ele>2246.8</ele>
        <time>2021-03-25T13:40:14Z</time>
      </trkpt>
      <trkpt lat="42.87085" lon="0.14541">
        <ele>2246.8</ele>
        <time>2021-03-25T13:40:15Z</time>
      </trkpt>
      <trkpt lat="42.87084" lon="0.14541">
        <ele>2246.8</ele>
        <time>2021-03-25T13:40:17Z</time>
      </trkpt>
      <trkpt lat="42.87084" lon="0.1454">
        <ele>2247.9</ele>
        <time>2021-03-25T13:40:18Z</time>
      </trkpt>
      <trkpt lat="42.87085" lon="0.14541">
        <ele>2246.8</ele>
        <time>2021-03-25T13:40:19Z</time>
      </trkpt>
      <trkpt lat="42.87089" lon="0.14542">
        <ele>2245.6</ele>
        <time>2021-03-25T13:40:21Z</time>
      </trkpt>
      <trkpt lat="42.8709" lon="0.14544">
        <ele>2244.7</ele>
        <time>2021-03-25T13:40:22Z</time>
      </trkpt>
      <trkpt lat="42.87089" lon="0.14545">
        <ele>2244.7</ele>
        <time>2021-03-25T13:40:23Z</time>
      </trkpt>
      <trkpt lat="42.87089" lon="0.14546">
        <ele>2244.7</ele>
        <time>2021-03-25T13:40:25Z</time>
      </trkpt>
      <trkpt lat="42.87088" lon="0.14546">
        <ele>2244.7</ele>
        <time>2021-03-25T13:40:26Z</time>
      </trkpt>
      <trkpt lat="42.87088" lon="0.14547">
        <ele>2244.7</ele>
        <time>2021-03-25T13:40:28Z</time>
      </trkpt>
      <trkpt lat="42.87088" lon="0.14548">
        <ele>2244.7</ele>
        <time>2021-03-25T13:40:30Z</time>
      </trkpt>
      <trkpt lat="42.87087" lon="0.14548">
        <ele>2243.7</ele>
        <time>2021-03-25T13:40:31Z</time>
      </trkpt>
      <trkpt lat="42.87087" lon="0.14549">
        <ele>2244.9</ele>
        <time>2021-03-25T13:40:33Z</time>
      </trkpt>
      <trkpt lat="42.87087" lon="0.1455">
        <ele>2244.9</ele>
        <time>2021-03-25T13:40:34Z</time>
      </trkpt>
      <trkpt lat="42.87086" lon="0.1455">
        <ele>2244.9</ele>
        <time>2021-03-25T13:40:36Z</time>
      </trkpt>
      <trkpt lat="42.87086" lon="0.14551">
        <ele>2244.9</ele>
        <time>2021-03-25T13:40:37Z</time>
      </trkpt>
      <trkpt lat="42.87085" lon="0.14552">
        <ele>2244.9</ele>
        <time>2021-03-25T13:40:38Z</time>
      </trkpt>
      <trkpt lat="42.87085" lon="0.14553">
        <ele>2244.9</ele>
        <time>2021-03-25T13:40:40Z</time>
      </trkpt>
      <trkpt lat="42.87085" lon="0.14553">
        <ele>2243.9</ele>
        <time>2021-03-25T13:40:41Z</time>
      </trkpt>
      <trkpt lat="42.87084" lon="0.14554">
        <ele>2243.9</ele>
        <time>2021-03-25T13:40:43Z</time>
      </trkpt>
      <trkpt lat="42.87084" lon="0.14555">
        <ele>2243.9</ele>
        <time>2021-03-25T13:40:44Z</time>
      </trkpt>
      <trkpt lat="42.87083" lon="0.14555">
        <ele>2245.1</ele>
        <time>2021-03-25T13:40:45Z</time>
      </trkpt>
      <trkpt lat="42.87079" lon="0.14559">
        <ele>2245.3</ele>
        <time>2021-03-25T13:40:47Z</time>
      </trkpt>
      <trkpt lat="42.87078" lon="0.14559">
        <ele>2245.3</ele>
        <time>2021-03-25T13:40:48Z</time>
      </trkpt>
      <trkpt lat="42.87078" lon="0.14559">
        <ele>2245.3</ele>
        <time>2021-03-25T13:40:50Z</time>
      </trkpt>
      <trkpt lat="42.87078" lon="0.14559">
        <ele>2245.3</ele>
        <time>2021-03-25T13:40:52Z</time>
      </trkpt>
      <trkpt lat="42.87078" lon="0.14559">
        <ele>2245.3</ele>
        <time>2021-03-25T13:40:53Z</time>
      </trkpt>
      <trkpt lat="42.87078" lon="0.14559">
        <ele>2245.3</ele>
        <time>2021-03-25T13:40:55Z</time>
      </trkpt>
      <trkpt lat="42.87078" lon="0.14559">
        <ele>2245.3</ele>
        <time>2021-03-25T13:40:56Z</time>
      </trkpt>
      <trkpt lat="42.87078" lon="0.14559">
        <ele>2245.3</ele>
        <time>2021-03-25T13:40:57Z</time>
      </trkpt>
      <trkpt lat="42.87078" lon="0.14559">
        <ele>2245.3</ele>
        <time>2021-03-25T13:40:59Z</time>
      </trkpt>
      <trkpt lat="42.87078" lon="0.14559">
        <ele>2245.3</ele>
        <time>2021-03-25T13:41:01Z</time>
      </trkpt>
      <trkpt lat="42.87078" lon="0.14559">
        <ele>2245.3</ele>
        <time>2021-03-25T13:41:03Z</time>
      </trkpt>
      <trkpt lat="42.87078" lon="0.14559">
        <ele>2245.3</ele>
        <time>2021-03-25T13:41:04Z</time>
      </trkpt>
      <trkpt lat="42.87078" lon="0.14559">
        <ele>2245.3</ele>
        <time>2021-03-25T13:41:06Z</time>
      </trkpt>
      <trkpt lat="42.87078" lon="0.14559">
        <ele>2245.3</ele>
        <time>2021-03-25T13:41:07Z</time>
      </trkpt>
      <trkpt lat="42.87077" lon="0.14559">
        <ele>2246.4</ele>
        <time>2021-03-25T13:41:09Z</time>
      </trkpt>
      <trkpt lat="42.87077" lon="0.14558">
        <ele>2246.4</ele>
        <time>2021-03-25T13:41:10Z</time>
      </trkpt>
      <trkpt lat="42.87076" lon="0.14558">
        <ele>2246.4</ele>
        <time>2021-03-25T13:41:11Z</time>
      </trkpt>
      <trkpt lat="42.87076" lon="0.14557">
        <ele>2246.4</ele>
        <time>2021-03-25T13:41:13Z</time>
      </trkpt>
      <trkpt lat="42.87075" lon="0.14557">
        <ele>2246.4</ele>
        <time>2021-03-25T13:41:14Z</time>
      </trkpt>
      <trkpt lat="42.87074" lon="0.14557">
        <ele>2247.4</ele>
        <time>2021-03-25T13:41:15Z</time>
      </trkpt>
      <trkpt lat="42.87074" lon="0.14557">
        <ele>2248.5</ele>
        <time>2021-03-25T13:41:17Z</time>
      </trkpt>
      <trkpt lat="42.87072" lon="0.14556">
        <ele>2248.5</ele>
        <time>2021-03-25T13:41:18Z</time>
      </trkpt>
      <trkpt lat="42.87071" lon="0.14557">
        <ele>2248.5</ele>
        <time>2021-03-25T13:41:20Z</time>
      </trkpt>
      <trkpt lat="42.87071" lon="0.14557">
        <ele>2247.5</ele>
        <time>2021-03-25T13:41:21Z</time>
      </trkpt>
      <trkpt lat="42.87071" lon="0.14557">
        <ele>2248.5</ele>
        <time>2021-03-25T13:41:22Z</time>
      </trkpt>
      <trkpt lat="42.87069" lon="0.14559">
        <ele>2248.5</ele>
        <time>2021-03-25T13:41:23Z</time>
      </trkpt>
      <trkpt lat="42.87068" lon="0.1456">
        <ele>2248.5</ele>
        <time>2021-03-25T13:41:25Z</time>
      </trkpt>
      <trkpt lat="42.87067" lon="0.14561">
        <ele>2249.4</ele>
        <time>2021-03-25T13:41:26Z</time>
      </trkpt>
      <trkpt lat="42.87066" lon="0.14562">
        <ele>2248.4</ele>
        <time>2021-03-25T13:41:28Z</time>
      </trkpt>
      <trkpt lat="42.87066" lon="0.14563">
        <ele>2248.4</ele>
        <time>2021-03-25T13:41:29Z</time>
      </trkpt>
      <trkpt lat="42.87064" lon="0.14564">
        <ele>2249.4</ele>
        <time>2021-03-25T13:41:31Z</time>
      </trkpt>
      <trkpt lat="42.87063" lon="0.14566">
        <ele>2248.5</ele>
        <time>2021-03-25T13:41:32Z</time>
      </trkpt>
      <trkpt lat="42.87062" lon="0.14567">
        <ele>2248.5</ele>
        <time>2021-03-25T13:41:33Z</time>
      </trkpt>
      <trkpt lat="42.87062" lon="0.14569">
        <ele>2249.5</ele>
        <time>2021-03-25T13:41:35Z</time>
      </trkpt>
      <trkpt lat="42.87061" lon="0.1457">
        <ele>2248.6</ele>
        <time>2021-03-25T13:41:36Z</time>
      </trkpt>
      <trkpt lat="42.8706" lon="0.14572">
        <ele>2248.6</ele>
        <time>2021-03-25T13:41:38Z</time>
      </trkpt>
      <trkpt lat="42.87059" lon="0.14573">
        <ele>2248.6</ele>
        <time>2021-03-25T13:41:39Z</time>
      </trkpt>
      <trkpt lat="42.87058" lon="0.14574">
        <ele>2249.8</ele>
        <time>2021-03-25T13:41:41Z</time>
      </trkpt>
      <trkpt lat="42.87058" lon="0.14575">
        <ele>2248.9</ele>
        <time>2021-03-25T13:41:42Z</time>
      </trkpt>
      <trkpt lat="42.87057" lon="0.14575">
        <ele>2248.9</ele>
        <time>2021-03-25T13:41:44Z</time>
      </trkpt>
      <trkpt lat="42.87057" lon="0.14576">
        <ele>2248.9</ele>
        <time>2021-03-25T13:41:45Z</time>
      </trkpt>
      <trkpt lat="42.87056" lon="0.14576">
        <ele>2248.9</ele>
        <time>2021-03-25T13:41:47Z</time>
      </trkpt>
      <trkpt lat="42.87056" lon="0.14576">
        <ele>2248.9</ele>
        <time>2021-03-25T13:41:48Z</time>
      </trkpt>
      <trkpt lat="42.87056" lon="0.14576">
        <ele>2248.9</ele>
        <time>2021-03-25T13:41:49Z</time>
      </trkpt>
      <trkpt lat="42.87055" lon="0.14577">
        <ele>2250.1</ele>
        <time>2021-03-25T13:41:51Z</time>
      </trkpt>
      <trkpt lat="42.87055" lon="0.14577">
        <ele>2250.1</ele>
        <time>2021-03-25T13:41:52Z</time>
      </trkpt>
      <trkpt lat="42.87054" lon="0.14578">
        <ele>2250.1</ele>
        <time>2021-03-25T13:41:54Z</time>
      </trkpt>
      <trkpt lat="42.87054" lon="0.14578">
        <ele>2250.1</ele>
        <time>2021-03-25T13:41:55Z</time>
      </trkpt>
      <trkpt lat="42.87054" lon="0.14578">
        <ele>2250.1</ele>
        <time>2021-03-25T13:41:57Z</time>
      </trkpt>
      <trkpt lat="42.87053" lon="0.14578">
        <ele>2250.1</ele>
        <time>2021-03-25T13:41:58Z</time>
      </trkpt>
      <trkpt lat="42.87053" lon="0.14578">
        <ele>2250.1</ele>
        <time>2021-03-25T13:41:59Z</time>
      </trkpt>
      <trkpt lat="42.87053" lon="0.14578">
        <ele>2250.1</ele>
        <time>2021-03-25T13:42:01Z</time>
      </trkpt>
      <trkpt lat="42.87052" lon="0.14578">
        <ele>2251.4</ele>
        <time>2021-03-25T13:42:02Z</time>
      </trkpt>
      <trkpt lat="42.87052" lon="0.14578">
        <ele>2250.5</ele>
        <time>2021-03-25T13:42:04Z</time>
      </trkpt>
      <trkpt lat="42.87051" lon="0.14579">
        <ele>2250.5</ele>
        <time>2021-03-25T13:42:05Z</time>
      </trkpt>
      <trkpt lat="42.8705" lon="0.14579">
        <ele>2250.5</ele>
        <time>2021-03-25T13:42:06Z</time>
      </trkpt>
      <trkpt lat="42.8705" lon="0.14579">
        <ele>2250.5</ele>
        <time>2021-03-25T13:42:08Z</time>
      </trkpt>
      <trkpt lat="42.87049" lon="0.14579">
        <ele>2250.5</ele>
        <time>2021-03-25T13:42:09Z</time>
      </trkpt>
      <trkpt lat="42.87049" lon="0.14579">
        <ele>2251.7</ele>
        <time>2021-03-25T13:42:10Z</time>
      </trkpt>
      <trkpt lat="42.87048" lon="0.14579">
        <ele>2251.7</ele>
        <time>2021-03-25T13:42:11Z</time>
      </trkpt>
      <trkpt lat="42.87048" lon="0.14579">
        <ele>2251.7</ele>
        <time>2021-03-25T13:42:12Z</time>
      </trkpt>
      <trkpt lat="42.87048" lon="0.14579">
        <ele>2251.7</ele>
        <time>2021-03-25T13:42:13Z</time>
      </trkpt>
      <trkpt lat="42.87047" lon="0.14579">
        <ele>2251.7</ele>
        <time>2021-03-25T13:42:15Z</time>
      </trkpt>
      <trkpt lat="42.87046" lon="0.14579">
        <ele>2251.7</ele>
        <time>2021-03-25T13:42:16Z</time>
      </trkpt>
      <trkpt lat="42.87046" lon="0.14579">
        <ele>2252.8</ele>
        <time>2021-03-25T13:42:17Z</time>
      </trkpt>
      <trkpt lat="42.87045" lon="0.14579">
        <ele>2252.8</ele>
        <time>2021-03-25T13:42:19Z</time>
      </trkpt>
      <trkpt lat="42.87045" lon="0.1458">
        <ele>2252.8</ele>
        <time>2021-03-25T13:42:20Z</time>
      </trkpt>
      <trkpt lat="42.87045" lon="0.1458">
        <ele>2252.8</ele>
        <time>2021-03-25T13:42:22Z</time>
      </trkpt>
      <trkpt lat="42.87044" lon="0.1458">
        <ele>2252.8</ele>
        <time>2021-03-25T13:42:23Z</time>
      </trkpt>
      <trkpt lat="42.87044" lon="0.14581">
        <ele>2252.8</ele>
        <time>2021-03-25T13:42:24Z</time>
      </trkpt>
      <trkpt lat="42.87043" lon="0.14581">
        <ele>2252.8</ele>
        <time>2021-03-25T13:42:26Z</time>
      </trkpt>
      <trkpt lat="42.87042" lon="0.14581">
        <ele>2253.8</ele>
        <time>2021-03-25T13:42:27Z</time>
      </trkpt>
      <trkpt lat="42.87042" lon="0.14581">
        <ele>2253.8</ele>
        <time>2021-03-25T13:42:29Z</time>
      </trkpt>
      <trkpt lat="42.87041" lon="0.14582">
        <ele>2253.8</ele>
        <time>2021-03-25T13:42:30Z</time>
      </trkpt>
      <trkpt lat="42.87041" lon="0.14581">
        <ele>2253.8</ele>
        <time>2021-03-25T13:42:31Z</time>
      </trkpt>
      <trkpt lat="42.87041" lon="0.14581">
        <ele>2253.8</ele>
        <time>2021-03-25T13:42:32Z</time>
      </trkpt>
      <trkpt lat="42.8704" lon="0.14581">
        <ele>2253.8</ele>
        <time>2021-03-25T13:42:34Z</time>
      </trkpt>
      <trkpt lat="42.87039" lon="0.14581">
        <ele>2254.9</ele>
        <time>2021-03-25T13:42:35Z</time>
      </trkpt>
      <trkpt lat="42.87039" lon="0.14581">
        <ele>2254.9</ele>
        <time>2021-03-25T13:42:36Z</time>
      </trkpt>
      <trkpt lat="42.87038" lon="0.14581">
        <ele>2254.9</ele>
        <time>2021-03-25T13:42:38Z</time>
      </trkpt>
      <trkpt lat="42.87037" lon="0.14581">
        <ele>2254.9</ele>
        <time>2021-03-25T13:42:40Z</time>
      </trkpt>
      <trkpt lat="42.87037" lon="0.14581">
        <ele>2254.9</ele>
        <time>2021-03-25T13:42:41Z</time>
      </trkpt>
      <trkpt lat="42.87037" lon="0.14582">
        <ele>2256.2</ele>
        <time>2021-03-25T13:42:43Z</time>
      </trkpt>
      <trkpt lat="42.87037" lon="0.14582">
        <ele>2256.2</ele>
        <time>2021-03-25T13:42:44Z</time>
      </trkpt>
      <trkpt lat="42.87037" lon="0.14582">
        <ele>2254.9</ele>
        <time>2021-03-25T13:42:46Z</time>
      </trkpt>
      <trkpt lat="42.87037" lon="0.14582">
        <ele>2256.2</ele>
        <time>2021-03-25T13:42:47Z</time>
      </trkpt>
      <trkpt lat="42.87036" lon="0.14582">
        <ele>2256.2</ele>
        <time>2021-03-25T13:42:48Z</time>
      </trkpt>
      <trkpt lat="42.87036" lon="0.14582">
        <ele>2256.2</ele>
        <time>2021-03-25T13:42:49Z</time>
      </trkpt>
      <trkpt lat="42.87036" lon="0.14583">
        <ele>2256.2</ele>
        <time>2021-03-25T13:42:51Z</time>
      </trkpt>
      <trkpt lat="42.87035" lon="0.14583">
        <ele>2256.2</ele>
        <time>2021-03-25T13:42:52Z</time>
      </trkpt>
      <trkpt lat="42.87035" lon="0.14583">
        <ele>2255.3</ele>
        <time>2021-03-25T13:42:53Z</time>
      </trkpt>
      <trkpt lat="42.87035" lon="0.14583">
        <ele>2255.3</ele>
        <time>2021-03-25T13:42:55Z</time>
      </trkpt>
      <trkpt lat="42.87034" lon="0.14583">
        <ele>2255.3</ele>
        <time>2021-03-25T13:42:57Z</time>
      </trkpt>
      <trkpt lat="42.87034" lon="0.14583">
        <ele>2255.3</ele>
        <time>2021-03-25T13:42:58Z</time>
      </trkpt>
      <trkpt lat="42.87034" lon="0.14583">
        <ele>2255.3</ele>
        <time>2021-03-25T13:43:00Z</time>
      </trkpt>
      <trkpt lat="42.87034" lon="0.14583">
        <ele>2255.3</ele>
        <time>2021-03-25T13:43:01Z</time>
      </trkpt>
      <trkpt lat="42.87035" lon="0.14584">
        <ele>2255.3</ele>
        <time>2021-03-25T13:43:03Z</time>
      </trkpt>
      <trkpt lat="42.87035" lon="0.14584">
        <ele>2255.3</ele>
        <time>2021-03-25T13:43:04Z</time>
      </trkpt>
      <trkpt lat="42.87035" lon="0.14584">
        <ele>2255.3</ele>
        <time>2021-03-25T13:43:05Z</time>
      </trkpt>
      <trkpt lat="42.87035" lon="0.14584">
        <ele>2255.3</ele>
        <time>2021-03-25T13:43:07Z</time>
      </trkpt>
      <trkpt lat="42.87035" lon="0.14584">
        <ele>2255.3</ele>
        <time>2021-03-25T13:43:08Z</time>
      </trkpt>
      <trkpt lat="42.87035" lon="0.14583">
        <ele>2255.3</ele>
        <time>2021-03-25T13:43:10Z</time>
      </trkpt>
      <trkpt lat="42.87035" lon="0.14583">
        <ele>2255.3</ele>
        <time>2021-03-25T13:43:11Z</time>
      </trkpt>
      <trkpt lat="42.87035" lon="0.14584">
        <ele>2255.3</ele>
        <time>2021-03-25T13:43:13Z</time>
      </trkpt>
      <trkpt lat="42.87035" lon="0.14584">
        <ele>2255.3</ele>
        <time>2021-03-25T13:43:14Z</time>
      </trkpt>
      <trkpt lat="42.87037" lon="0.14586">
        <ele>2254.1</ele>
        <time>2021-03-25T13:43:16Z</time>
      </trkpt>
      <trkpt lat="42.87037" lon="0.14586">
        <ele>2254.1</ele>
        <time>2021-03-25T13:43:17Z</time>
      </trkpt>
      <trkpt lat="42.87037" lon="0.14586">
        <ele>2254.1</ele>
        <time>2021-03-25T13:43:19Z</time>
      </trkpt>
      <trkpt lat="42.87037" lon="0.14586">
        <ele>2255.3</ele>
        <time>2021-03-25T13:43:21Z</time>
      </trkpt>
      <trkpt lat="42.87036" lon="0.14586">
        <ele>2255.3</ele>
        <time>2021-03-25T13:43:23Z</time>
      </trkpt>
      <trkpt lat="42.87036" lon="0.14586">
        <ele>2255.3</ele>
        <time>2021-03-25T13:43:24Z</time>
      </trkpt>
      <trkpt lat="42.87036" lon="0.14586">
        <ele>2255.3</ele>
        <time>2021-03-25T13:43:25Z</time>
      </trkpt>
      <trkpt lat="42.87035" lon="0.14585">
        <ele>2255.3</ele>
        <time>2021-03-25T13:43:26Z</time>
      </trkpt>
      <trkpt lat="42.87033" lon="0.14586">
        <ele>2256.7</ele>
        <time>2021-03-25T13:43:28Z</time>
      </trkpt>
      <trkpt lat="42.87032" lon="0.14586">
        <ele>2256.7</ele>
        <time>2021-03-25T13:43:29Z</time>
      </trkpt>
      <trkpt lat="42.87031" lon="0.14586">
        <ele>2256.7</ele>
        <time>2021-03-25T13:43:30Z</time>
      </trkpt>
      <trkpt lat="42.87031" lon="0.14587">
        <ele>2256.7</ele>
        <time>2021-03-25T13:43:31Z</time>
      </trkpt>
      <trkpt lat="42.8703" lon="0.14587">
        <ele>2258.1</ele>
        <time>2021-03-25T13:43:32Z</time>
      </trkpt>
      <trkpt lat="42.87029" lon="0.14587">
        <ele>2258.1</ele>
        <time>2021-03-25T13:43:34Z</time>
      </trkpt>
      <trkpt lat="42.87029" lon="0.14587">
        <ele>2258.1</ele>
        <time>2021-03-25T13:43:35Z</time>
      </trkpt>
      <trkpt lat="42.87028" lon="0.14587">
        <ele>2258.1</ele>
        <time>2021-03-25T13:43:36Z</time>
      </trkpt>
      <trkpt lat="42.87028" lon="0.14587">
        <ele>2258.1</ele>
        <time>2021-03-25T13:43:37Z</time>
      </trkpt>
      <trkpt lat="42.87026" lon="0.14587">
        <ele>2259.6</ele>
        <time>2021-03-25T13:43:39Z</time>
      </trkpt>
      <trkpt lat="42.87024" lon="0.14587">
        <ele>2261</ele>
        <time>2021-03-25T13:43:41Z</time>
      </trkpt>
      <trkpt lat="42.87023" lon="0.14588">
        <ele>2260.2</ele>
        <time>2021-03-25T13:43:43Z</time>
      </trkpt>
      <trkpt lat="42.87022" lon="0.14588">
        <ele>2260.2</ele>
        <time>2021-03-25T13:43:44Z</time>
      </trkpt>
      <trkpt lat="42.87021" lon="0.14588">
        <ele>2260.2</ele>
        <time>2021-03-25T13:43:45Z</time>
      </trkpt>
      <trkpt lat="42.87021" lon="0.14588">
        <ele>2261.6</ele>
        <time>2021-03-25T13:43:46Z</time>
      </trkpt>
      <trkpt lat="42.8702" lon="0.14588">
        <ele>2261.6</ele>
        <time>2021-03-25T13:43:48Z</time>
      </trkpt>
      <trkpt lat="42.87019" lon="0.14589">
        <ele>2261.6</ele>
        <time>2021-03-25T13:43:49Z</time>
      </trkpt>
      <trkpt lat="42.87019" lon="0.14589">
        <ele>2261.6</ele>
        <time>2021-03-25T13:43:50Z</time>
      </trkpt>
      <trkpt lat="42.87018" lon="0.14589">
        <ele>2262.9</ele>
        <time>2021-03-25T13:43:52Z</time>
      </trkpt>
      <trkpt lat="42.87017" lon="0.14589">
        <ele>2262.9</ele>
        <time>2021-03-25T13:43:53Z</time>
      </trkpt>
      <trkpt lat="42.87016" lon="0.1459">
        <ele>2262.9</ele>
        <time>2021-03-25T13:43:55Z</time>
      </trkpt>
      <trkpt lat="42.87016" lon="0.1459">
        <ele>2262.9</ele>
        <time>2021-03-25T13:43:56Z</time>
      </trkpt>
      <trkpt lat="42.87016" lon="0.14591">
        <ele>2262.9</ele>
        <time>2021-03-25T13:43:57Z</time>
      </trkpt>
      <trkpt lat="42.87016" lon="0.14592">
        <ele>2262.1</ele>
        <time>2021-03-25T13:43:59Z</time>
      </trkpt>
      <trkpt lat="42.87015" lon="0.14593">
        <ele>2262.1</ele>
        <time>2021-03-25T13:44:01Z</time>
      </trkpt>
      <trkpt lat="42.87015" lon="0.14593">
        <ele>2262.1</ele>
        <time>2021-03-25T13:44:03Z</time>
      </trkpt>
      <trkpt lat="42.87015" lon="0.14594">
        <ele>2262.1</ele>
        <time>2021-03-25T13:44:04Z</time>
      </trkpt>
      <trkpt lat="42.87015" lon="0.14594">
        <ele>2263.4</ele>
        <time>2021-03-25T13:44:05Z</time>
      </trkpt>
      <trkpt lat="42.87014" lon="0.14594">
        <ele>2263.4</ele>
        <time>2021-03-25T13:44:06Z</time>
      </trkpt>
      <trkpt lat="42.87014" lon="0.14594">
        <ele>2263.4</ele>
        <time>2021-03-25T13:44:08Z</time>
      </trkpt>
      <trkpt lat="42.87014" lon="0.14594">
        <ele>2263.4</ele>
        <time>2021-03-25T13:44:09Z</time>
      </trkpt>
      <trkpt lat="42.87013" lon="0.14594">
        <ele>2263.4</ele>
        <time>2021-03-25T13:44:10Z</time>
      </trkpt>
      <trkpt lat="42.87013" lon="0.14595">
        <ele>2263.4</ele>
        <time>2021-03-25T13:44:12Z</time>
      </trkpt>
      <trkpt lat="42.87013" lon="0.14595">
        <ele>2263.4</ele>
        <time>2021-03-25T13:44:13Z</time>
      </trkpt>
      <trkpt lat="42.87013" lon="0.14595">
        <ele>2263.4</ele>
        <time>2021-03-25T13:44:14Z</time>
      </trkpt>
      <trkpt lat="42.87013" lon="0.14595">
        <ele>2263.4</ele>
        <time>2021-03-25T13:44:15Z</time>
      </trkpt>
      <trkpt lat="42.87013" lon="0.14596">
        <ele>2263.4</ele>
        <time>2021-03-25T13:44:17Z</time>
      </trkpt>
      <trkpt lat="42.87013" lon="0.14596">
        <ele>2262.6</ele>
        <time>2021-03-25T13:44:19Z</time>
      </trkpt>
      <trkpt lat="42.87013" lon="0.14597">
        <ele>2262.6</ele>
        <time>2021-03-25T13:44:20Z</time>
      </trkpt>
      <trkpt lat="42.87013" lon="0.14598">
        <ele>2262.6</ele>
        <time>2021-03-25T13:44:21Z</time>
      </trkpt>
      <trkpt lat="42.87014" lon="0.14598">
        <ele>2262.6</ele>
        <time>2021-03-25T13:44:23Z</time>
      </trkpt>
      <trkpt lat="42.87015" lon="0.14599">
        <ele>2261.3</ele>
        <time>2021-03-25T13:44:25Z</time>
      </trkpt>
      <trkpt lat="42.87016" lon="0.146">
        <ele>2261.3</ele>
        <time>2021-03-25T13:44:27Z</time>
      </trkpt>
      <trkpt lat="42.87017" lon="0.146">
        <ele>2260.4</ele>
        <time>2021-03-25T13:44:29Z</time>
      </trkpt>
      <trkpt lat="42.87017" lon="0.14601">
        <ele>2260.4</ele>
        <time>2021-03-25T13:44:31Z</time>
      </trkpt>
      <trkpt lat="42.87017" lon="0.14601">
        <ele>2260.4</ele>
        <time>2021-03-25T13:44:32Z</time>
      </trkpt>
      <trkpt lat="42.87017" lon="0.14601">
        <ele>2260.4</ele>
        <time>2021-03-25T13:44:34Z</time>
      </trkpt>
      <trkpt lat="42.87017" lon="0.14601">
        <ele>2260.4</ele>
        <time>2021-03-25T13:44:35Z</time>
      </trkpt>
      <trkpt lat="42.87017" lon="0.14601">
        <ele>2260.4</ele>
        <time>2021-03-25T13:44:37Z</time>
      </trkpt>
      <trkpt lat="42.87018" lon="0.14601">
        <ele>2259</ele>
        <time>2021-03-25T13:44:39Z</time>
      </trkpt>
      <trkpt lat="42.87019" lon="0.14602">
        <ele>2259</ele>
        <time>2021-03-25T13:44:40Z</time>
      </trkpt>
      <trkpt lat="42.87021" lon="0.14602">
        <ele>2259</ele>
        <time>2021-03-25T13:44:42Z</time>
      </trkpt>
      <trkpt lat="42.8702" lon="0.14602">
        <ele>2259</ele>
        <time>2021-03-25T13:44:43Z</time>
      </trkpt>
      <trkpt lat="42.87019" lon="0.14602">
        <ele>2259</ele>
        <time>2021-03-25T13:44:45Z</time>
      </trkpt>
      <trkpt lat="42.87019" lon="0.14602">
        <ele>2259</ele>
        <time>2021-03-25T13:44:46Z</time>
      </trkpt>
      <trkpt lat="42.87018" lon="0.14601">
        <ele>2259</ele>
        <time>2021-03-25T13:44:47Z</time>
      </trkpt>
      <trkpt lat="42.87018" lon="0.14601">
        <ele>2259</ele>
        <time>2021-03-25T13:44:49Z</time>
      </trkpt>
      <trkpt lat="42.87018" lon="0.14601">
        <ele>2260.4</ele>
        <time>2021-03-25T13:44:50Z</time>
      </trkpt>
      <trkpt lat="42.87018" lon="0.14601">
        <ele>2260.4</ele>
        <time>2021-03-25T13:44:51Z</time>
      </trkpt>
      <trkpt lat="42.87018" lon="0.14601">
        <ele>2260.4</ele>
        <time>2021-03-25T13:44:52Z</time>
      </trkpt>
      <trkpt lat="42.87018" lon="0.14601">
        <ele>2260.4</ele>
        <time>2021-03-25T13:44:53Z</time>
      </trkpt>
      <trkpt lat="42.87017" lon="0.14602">
        <ele>2260.4</ele>
        <time>2021-03-25T13:44:55Z</time>
      </trkpt>
      <trkpt lat="42.87017" lon="0.14602">
        <ele>2260.4</ele>
        <time>2021-03-25T13:44:56Z</time>
      </trkpt>
      <trkpt lat="42.87017" lon="0.14602">
        <ele>2260.4</ele>
        <time>2021-03-25T13:44:57Z</time>
      </trkpt>
      <trkpt lat="42.87017" lon="0.14602">
        <ele>2260.4</ele>
        <time>2021-03-25T13:44:58Z</time>
      </trkpt>
      <trkpt lat="42.87017" lon="0.14602">
        <ele>2260.4</ele>
        <time>2021-03-25T13:44:59Z</time>
      </trkpt>
      <trkpt lat="42.87017" lon="0.14602">
        <ele>2260.4</ele>
        <time>2021-03-25T13:45:01Z</time>
      </trkpt>
      <trkpt lat="42.87017" lon="0.14602">
        <ele>2260.4</ele>
        <time>2021-03-25T13:45:02Z</time>
      </trkpt>
      <trkpt lat="42.87016" lon="0.14602">
        <ele>2260.4</ele>
        <time>2021-03-25T13:45:04Z</time>
      </trkpt>
      <trkpt lat="42.87014" lon="0.14601">
        <ele>2261.7</ele>
        <time>2021-03-25T13:45:06Z</time>
      </trkpt>
      <trkpt lat="42.87013" lon="0.14601">
        <ele>2261.7</ele>
        <time>2021-03-25T13:45:07Z</time>
      </trkpt>
      <trkpt lat="42.87012" lon="0.14601">
        <ele>2261.7</ele>
        <time>2021-03-25T13:45:08Z</time>
      </trkpt>
      <trkpt lat="42.87011" lon="0.14601">
        <ele>2263.1</ele>
        <time>2021-03-25T13:45:10Z</time>
      </trkpt>
      <trkpt lat="42.87009" lon="0.14601">
        <ele>2263.1</ele>
        <time>2021-03-25T13:45:11Z</time>
      </trkpt>
      <trkpt lat="42.87009" lon="0.14601">
        <ele>2263.1</ele>
        <time>2021-03-25T13:45:12Z</time>
      </trkpt>
      <trkpt lat="42.87008" lon="0.14601">
        <ele>2264.5</ele>
        <time>2021-03-25T13:45:13Z</time>
      </trkpt>
      <trkpt lat="42.87008" lon="0.14602">
        <ele>2264.5</ele>
        <time>2021-03-25T13:45:14Z</time>
      </trkpt>
      <trkpt lat="42.87007" lon="0.14602">
        <ele>2264.5</ele>
        <time>2021-03-25T13:45:15Z</time>
      </trkpt>
      <trkpt lat="42.87006" lon="0.14603">
        <ele>2264.5</ele>
        <time>2021-03-25T13:45:17Z</time>
      </trkpt>
      <trkpt lat="42.87006" lon="0.14603">
        <ele>2264.5</ele>
        <time>2021-03-25T13:45:18Z</time>
      </trkpt>
      <trkpt lat="42.87005" lon="0.14604">
        <ele>2266</ele>
        <time>2021-03-25T13:45:20Z</time>
      </trkpt>
      <trkpt lat="42.87004" lon="0.14604">
        <ele>2266</ele>
        <time>2021-03-25T13:45:21Z</time>
      </trkpt>
      <trkpt lat="42.87003" lon="0.14605">
        <ele>2265</ele>
        <time>2021-03-25T13:45:23Z</time>
      </trkpt>
      <trkpt lat="42.87002" lon="0.14605">
        <ele>2265</ele>
        <time>2021-03-25T13:45:24Z</time>
      </trkpt>
      <trkpt lat="42.87001" lon="0.14605">
        <ele>2266.4</ele>
        <time>2021-03-25T13:45:26Z</time>
      </trkpt>
      <trkpt lat="42.87" lon="0.14606">
        <ele>2266.4</ele>
        <time>2021-03-25T13:45:27Z</time>
      </trkpt>
      <trkpt lat="42.87" lon="0.14606">
        <ele>2266.4</ele>
        <time>2021-03-25T13:45:28Z</time>
      </trkpt>
      <trkpt lat="42.86999" lon="0.14606">
        <ele>2267.8</ele>
        <time>2021-03-25T13:45:30Z</time>
      </trkpt>
      <trkpt lat="42.86998" lon="0.14607">
        <ele>2267.8</ele>
        <time>2021-03-25T13:45:32Z</time>
      </trkpt>
      <trkpt lat="42.86997" lon="0.14607">
        <ele>2267.8</ele>
        <time>2021-03-25T13:45:34Z</time>
      </trkpt>
      <trkpt lat="42.86997" lon="0.14607">
        <ele>2267.8</ele>
        <time>2021-03-25T13:45:35Z</time>
      </trkpt>
      <trkpt lat="42.86996" lon="0.14607">
        <ele>2267.8</ele>
        <time>2021-03-25T13:45:36Z</time>
      </trkpt>
      <trkpt lat="42.86994" lon="0.14607">
        <ele>2269.1</ele>
        <time>2021-03-25T13:45:38Z</time>
      </trkpt>
      <trkpt lat="42.86994" lon="0.14607">
        <ele>2269.1</ele>
        <time>2021-03-25T13:45:39Z</time>
      </trkpt>
      <trkpt lat="42.86994" lon="0.14607">
        <ele>2269.1</ele>
        <time>2021-03-25T13:45:41Z</time>
      </trkpt>
      <trkpt lat="42.86994" lon="0.14608">
        <ele>2269.1</ele>
        <time>2021-03-25T13:45:42Z</time>
      </trkpt>
      <trkpt lat="42.86994" lon="0.14608">
        <ele>2269.1</ele>
        <time>2021-03-25T13:45:44Z</time>
      </trkpt>
      <trkpt lat="42.86994" lon="0.14608">
        <ele>2269.1</ele>
        <time>2021-03-25T13:45:46Z</time>
      </trkpt>
      <trkpt lat="42.86993" lon="0.14608">
        <ele>2268.1</ele>
        <time>2021-03-25T13:45:47Z</time>
      </trkpt>
      <trkpt lat="42.86993" lon="0.14609">
        <ele>2268.1</ele>
        <time>2021-03-25T13:45:48Z</time>
      </trkpt>
      <trkpt lat="42.86993" lon="0.14609">
        <ele>2268.1</ele>
        <time>2021-03-25T13:45:49Z</time>
      </trkpt>
      <trkpt lat="42.86992" lon="0.1461">
        <ele>2269.4</ele>
        <time>2021-03-25T13:45:51Z</time>
      </trkpt>
      <trkpt lat="42.86992" lon="0.1461">
        <ele>2269.4</ele>
        <time>2021-03-25T13:45:52Z</time>
      </trkpt>
      <trkpt lat="42.86991" lon="0.1461">
        <ele>2269.4</ele>
        <time>2021-03-25T13:45:54Z</time>
      </trkpt>
      <trkpt lat="42.86991" lon="0.1461">
        <ele>2269.4</ele>
        <time>2021-03-25T13:45:55Z</time>
      </trkpt>
      <trkpt lat="42.8699" lon="0.14612">
        <ele>2269.4</ele>
        <time>2021-03-25T13:45:57Z</time>
      </trkpt>
      <trkpt lat="42.8699" lon="0.14611">
        <ele>2269.4</ele>
        <time>2021-03-25T13:45:58Z</time>
      </trkpt>
      <trkpt lat="42.8699" lon="0.14611">
        <ele>2269.4</ele>
        <time>2021-03-25T13:46:00Z</time>
      </trkpt>
      <trkpt lat="42.8699" lon="0.14611">
        <ele>2269.4</ele>
        <time>2021-03-25T13:46:01Z</time>
      </trkpt>
      <trkpt lat="42.8699" lon="0.14611">
        <ele>2269.4</ele>
        <time>2021-03-25T13:46:02Z</time>
      </trkpt>
      <trkpt lat="42.86989" lon="0.14611">
        <ele>2270.6</ele>
        <time>2021-03-25T13:46:03Z</time>
      </trkpt>
      <trkpt lat="42.86989" lon="0.1461">
        <ele>2270.6</ele>
        <time>2021-03-25T13:46:05Z</time>
      </trkpt>
      <trkpt lat="42.86989" lon="0.1461">
        <ele>2270.6</ele>
        <time>2021-03-25T13:46:07Z</time>
      </trkpt>
      <trkpt lat="42.86988" lon="0.1461">
        <ele>2270.6</ele>
        <time>2021-03-25T13:46:08Z</time>
      </trkpt>
      <trkpt lat="42.86988" lon="0.14609">
        <ele>2270.6</ele>
        <time>2021-03-25T13:46:09Z</time>
      </trkpt>
      <trkpt lat="42.86988" lon="0.14609">
        <ele>2270.6</ele>
        <time>2021-03-25T13:46:11Z</time>
      </trkpt>
      <trkpt lat="42.86988" lon="0.14608">
        <ele>2270.6</ele>
        <time>2021-03-25T13:46:13Z</time>
      </trkpt>
      <trkpt lat="42.86988" lon="0.14608">
        <ele>2271.6</ele>
        <time>2021-03-25T13:46:14Z</time>
      </trkpt>
      <trkpt lat="42.86987" lon="0.14608">
        <ele>2271.6</ele>
        <time>2021-03-25T13:46:15Z</time>
      </trkpt>
      <trkpt lat="42.86987" lon="0.14607">
        <ele>2271.6</ele>
        <time>2021-03-25T13:46:17Z</time>
      </trkpt>
      <trkpt lat="42.86986" lon="0.14606">
        <ele>2271.6</ele>
        <time>2021-03-25T13:46:18Z</time>
      </trkpt>
      <trkpt lat="42.86986" lon="0.14606">
        <ele>2272.7</ele>
        <time>2021-03-25T13:46:19Z</time>
      </trkpt>
      <trkpt lat="42.86986" lon="0.14605">
        <ele>2272.7</ele>
        <time>2021-03-25T13:46:20Z</time>
      </trkpt>
      <trkpt lat="42.86985" lon="0.14604">
        <ele>2273.7</ele>
        <time>2021-03-25T13:46:22Z</time>
      </trkpt>
      <trkpt lat="42.86984" lon="0.14603">
        <ele>2273.7</ele>
        <time>2021-03-25T13:46:23Z</time>
      </trkpt>
      <trkpt lat="42.86984" lon="0.14601">
        <ele>2273.7</ele>
        <time>2021-03-25T13:46:25Z</time>
      </trkpt>
      <trkpt lat="42.86983" lon="0.14601">
        <ele>2273.7</ele>
        <time>2021-03-25T13:46:26Z</time>
      </trkpt>
      <trkpt lat="42.86983" lon="0.146">
        <ele>2274.8</ele>
        <time>2021-03-25T13:46:27Z</time>
      </trkpt>
      <trkpt lat="42.86982" lon="0.14599">
        <ele>2275.7</ele>
        <time>2021-03-25T13:46:29Z</time>
      </trkpt>
      <trkpt lat="42.86982" lon="0.14599">
        <ele>2275.7</ele>
        <time>2021-03-25T13:46:30Z</time>
      </trkpt>
      <trkpt lat="42.86983" lon="0.14599">
        <ele>2275.7</ele>
        <time>2021-03-25T13:46:31Z</time>
      </trkpt>
      <trkpt lat="42.86983" lon="0.146">
        <ele>2273.7</ele>
        <time>2021-03-25T13:46:32Z</time>
      </trkpt>
      <trkpt lat="42.86985" lon="0.14601">
        <ele>2273.7</ele>
        <time>2021-03-25T13:46:34Z</time>
      </trkpt>
      <trkpt lat="42.86986" lon="0.14602">
        <ele>2273.7</ele>
        <time>2021-03-25T13:46:35Z</time>
      </trkpt>
      <trkpt lat="42.86987" lon="0.14602">
        <ele>2272.5</ele>
        <time>2021-03-25T13:46:36Z</time>
      </trkpt>
      <trkpt lat="42.86987" lon="0.14602">
        <ele>2272.5</ele>
        <time>2021-03-25T13:46:38Z</time>
      </trkpt>
      <trkpt lat="42.86987" lon="0.14601">
        <ele>2272.5</ele>
        <time>2021-03-25T13:46:39Z</time>
      </trkpt>
      <trkpt lat="42.86987" lon="0.146">
        <ele>2272.5</ele>
        <time>2021-03-25T13:46:40Z</time>
      </trkpt>
      <trkpt lat="42.86987" lon="0.14599">
        <ele>2273.4</ele>
        <time>2021-03-25T13:46:41Z</time>
      </trkpt>
      <trkpt lat="42.86987" lon="0.14598">
        <ele>2273.4</ele>
        <time>2021-03-25T13:46:42Z</time>
      </trkpt>
      <trkpt lat="42.86987" lon="0.14597">
        <ele>2273.4</ele>
        <time>2021-03-25T13:46:43Z</time>
      </trkpt>
      <trkpt lat="42.86987" lon="0.14595">
        <ele>2274.2</ele>
        <time>2021-03-25T13:46:45Z</time>
      </trkpt>
      <trkpt lat="42.86987" lon="0.14594">
        <ele>2274.2</ele>
        <time>2021-03-25T13:46:46Z</time>
      </trkpt>
      <trkpt lat="42.86987" lon="0.14593">
        <ele>2274.2</ele>
        <time>2021-03-25T13:46:47Z</time>
      </trkpt>
      <trkpt lat="42.86987" lon="0.14592">
        <ele>2274.2</ele>
        <time>2021-03-25T13:46:49Z</time>
      </trkpt>
      <trkpt lat="42.86987" lon="0.14591">
        <ele>2274.9</ele>
        <time>2021-03-25T13:46:50Z</time>
      </trkpt>
      <trkpt lat="42.86988" lon="0.1459">
        <ele>2274.9</ele>
        <time>2021-03-25T13:46:52Z</time>
      </trkpt>
      <trkpt lat="42.86988" lon="0.14589">
        <ele>2274.9</ele>
        <time>2021-03-25T13:46:53Z</time>
      </trkpt>
      <trkpt lat="42.86988" lon="0.14588">
        <ele>2274.9</ele>
        <time>2021-03-25T13:46:54Z</time>
      </trkpt>
      <trkpt lat="42.86988" lon="0.14587">
        <ele>2275.6</ele>
        <time>2021-03-25T13:46:56Z</time>
      </trkpt>
      <trkpt lat="42.86989" lon="0.14585">
        <ele>2275.6</ele>
        <time>2021-03-25T13:46:57Z</time>
      </trkpt>
      <trkpt lat="42.86989" lon="0.14584">
        <ele>2275.6</ele>
        <time>2021-03-25T13:46:59Z</time>
      </trkpt>
      <trkpt lat="42.86989" lon="0.14583">
        <ele>2276.2</ele>
        <time>2021-03-25T13:47:00Z</time>
      </trkpt>
      <trkpt lat="42.86989" lon="0.14581">
        <ele>2276.2</ele>
        <time>2021-03-25T13:47:02Z</time>
      </trkpt>
      <trkpt lat="42.86989" lon="0.14581">
        <ele>2276.2</ele>
        <time>2021-03-25T13:47:03Z</time>
      </trkpt>
      <trkpt lat="42.86989" lon="0.14581">
        <ele>2276.2</ele>
        <time>2021-03-25T13:47:04Z</time>
      </trkpt>
      <trkpt lat="42.8699" lon="0.14581">
        <ele>2275</ele>
        <time>2021-03-25T13:47:06Z</time>
      </trkpt>
      <trkpt lat="42.8699" lon="0.14581">
        <ele>2275</ele>
        <time>2021-03-25T13:47:08Z</time>
      </trkpt>
      <trkpt lat="42.8699" lon="0.14581">
        <ele>2275</ele>
        <time>2021-03-25T13:47:09Z</time>
      </trkpt>
      <trkpt lat="42.8699" lon="0.14581">
        <ele>2275</ele>
        <time>2021-03-25T13:47:10Z</time>
      </trkpt>
      <trkpt lat="42.8699" lon="0.14581">
        <ele>2275</ele>
        <time>2021-03-25T13:47:12Z</time>
      </trkpt>
      <trkpt lat="42.8699" lon="0.14581">
        <ele>2275</ele>
        <time>2021-03-25T13:47:13Z</time>
      </trkpt>
      <trkpt lat="42.8699" lon="0.14581">
        <ele>2275</ele>
        <time>2021-03-25T13:47:14Z</time>
      </trkpt>
      <trkpt lat="42.86991" lon="0.14581">
        <ele>2275</ele>
        <time>2021-03-25T13:47:16Z</time>
      </trkpt>
      <trkpt lat="42.86992" lon="0.14581">
        <ele>2275</ele>
        <time>2021-03-25T13:47:17Z</time>
      </trkpt>
      <trkpt lat="42.86992" lon="0.14581">
        <ele>2275</ele>
        <time>2021-03-25T13:47:19Z</time>
      </trkpt>
      <trkpt lat="42.86993" lon="0.14581">
        <ele>2275</ele>
        <time>2021-03-25T13:47:20Z</time>
      </trkpt>
      <trkpt lat="42.86993" lon="0.14581">
        <ele>2273.8</ele>
        <time>2021-03-25T13:47:22Z</time>
      </trkpt>
      <trkpt lat="42.86993" lon="0.14581">
        <ele>2273.8</ele>
        <time>2021-03-25T13:47:23Z</time>
      </trkpt>
      <trkpt lat="42.86992" lon="0.14581">
        <ele>2275</ele>
        <time>2021-03-25T13:47:24Z</time>
      </trkpt>
      <trkpt lat="42.86992" lon="0.14581">
        <ele>2275</ele>
        <time>2021-03-25T13:47:25Z</time>
      </trkpt>
      <trkpt lat="42.86992" lon="0.14581">
        <ele>2275</ele>
        <time>2021-03-25T13:47:27Z</time>
      </trkpt>
      <trkpt lat="42.86992" lon="0.14581">
        <ele>2275</ele>
        <time>2021-03-25T13:47:28Z</time>
      </trkpt>
      <trkpt lat="42.86992" lon="0.14581">
        <ele>2275</ele>
        <time>2021-03-25T13:47:29Z</time>
      </trkpt>
      <trkpt lat="42.86992" lon="0.14581">
        <ele>2275</ele>
        <time>2021-03-25T13:47:31Z</time>
      </trkpt>
      <trkpt lat="42.86992" lon="0.1458">
        <ele>2275</ele>
        <time>2021-03-25T13:47:32Z</time>
      </trkpt>
      <trkpt lat="42.86993" lon="0.1458">
        <ele>2273.8</ele>
        <time>2021-03-25T13:47:33Z</time>
      </trkpt>
      <trkpt lat="42.86993" lon="0.1458">
        <ele>2273.8</ele>
        <time>2021-03-25T13:47:35Z</time>
      </trkpt>
      <trkpt lat="42.86993" lon="0.1458">
        <ele>2273.8</ele>
        <time>2021-03-25T13:47:36Z</time>
      </trkpt>
      <trkpt lat="42.86993" lon="0.1458">
        <ele>2273.8</ele>
        <time>2021-03-25T13:47:38Z</time>
      </trkpt>
      <trkpt lat="42.86993" lon="0.1458">
        <ele>2273.8</ele>
        <time>2021-03-25T13:47:39Z</time>
      </trkpt>
      <trkpt lat="42.86993" lon="0.1458">
        <ele>2273.8</ele>
        <time>2021-03-25T13:47:40Z</time>
      </trkpt>
      <trkpt lat="42.86993" lon="0.1458">
        <ele>2273.8</ele>
        <time>2021-03-25T13:47:41Z</time>
      </trkpt>
      <trkpt lat="42.86993" lon="0.1458">
        <ele>2273.8</ele>
        <time>2021-03-25T13:47:43Z</time>
      </trkpt>
      <trkpt lat="42.86993" lon="0.1458">
        <ele>2273.8</ele>
        <time>2021-03-25T13:47:44Z</time>
      </trkpt>
      <trkpt lat="42.86993" lon="0.1458">
        <ele>2273.8</ele>
        <time>2021-03-25T13:47:45Z</time>
      </trkpt>
      <trkpt lat="42.86993" lon="0.1458">
        <ele>2273.8</ele>
        <time>2021-03-25T13:47:46Z</time>
      </trkpt>
      <trkpt lat="42.86993" lon="0.1458">
        <ele>2273.8</ele>
        <time>2021-03-25T13:47:48Z</time>
      </trkpt>
      <trkpt lat="42.86993" lon="0.1458">
        <ele>2273.8</ele>
        <time>2021-03-25T13:47:49Z</time>
      </trkpt>
      <trkpt lat="42.86993" lon="0.1458">
        <ele>2273.8</ele>
        <time>2021-03-25T13:47:50Z</time>
      </trkpt>
      <trkpt lat="42.86993" lon="0.1458">
        <ele>2273.8</ele>
        <time>2021-03-25T13:47:51Z</time>
      </trkpt>
      <trkpt lat="42.86993" lon="0.1458">
        <ele>2273.8</ele>
        <time>2021-03-25T13:47:53Z</time>
      </trkpt>
      <trkpt lat="42.86994" lon="0.1458">
        <ele>2273.8</ele>
        <time>2021-03-25T13:47:55Z</time>
      </trkpt>
      <trkpt lat="42.86994" lon="0.1458">
        <ele>2273.8</ele>
        <time>2021-03-25T13:47:57Z</time>
      </trkpt>
      <trkpt lat="42.86994" lon="0.1458">
        <ele>2273.8</ele>
        <time>2021-03-25T13:47:58Z</time>
      </trkpt>
      <trkpt lat="42.86994" lon="0.1458">
        <ele>2273.8</ele>
        <time>2021-03-25T13:47:59Z</time>
      </trkpt>
      <trkpt lat="42.86994" lon="0.1458">
        <ele>2273.8</ele>
        <time>2021-03-25T13:48:01Z</time>
      </trkpt>
      <trkpt lat="42.86994" lon="0.1458">
        <ele>2273.8</ele>
        <time>2021-03-25T13:48:03Z</time>
      </trkpt>
      <trkpt lat="42.86994" lon="0.1458">
        <ele>2273.8</ele>
        <time>2021-03-25T13:48:05Z</time>
      </trkpt>
      <trkpt lat="42.86994" lon="0.1458">
        <ele>2273.8</ele>
        <time>2021-03-25T13:48:07Z</time>
      </trkpt>
      <trkpt lat="42.86994" lon="0.1458">
        <ele>2273.8</ele>
        <time>2021-03-25T13:48:09Z</time>
      </trkpt>
      <trkpt lat="42.86994" lon="0.1458">
        <ele>2273.8</ele>
        <time>2021-03-25T13:48:10Z</time>
      </trkpt>
      <trkpt lat="42.86996" lon="0.1458">
        <ele>2273.8</ele>
        <time>2021-03-25T13:48:12Z</time>
      </trkpt>
      <trkpt lat="42.86996" lon="0.1458">
        <ele>2272.5</ele>
        <time>2021-03-25T13:48:13Z</time>
      </trkpt>
      <trkpt lat="42.86997" lon="0.1458">
        <ele>2272.5</ele>
        <time>2021-03-25T13:48:14Z</time>
      </trkpt>
      <trkpt lat="42.86997" lon="0.1458">
        <ele>2272.5</ele>
        <time>2021-03-25T13:48:16Z</time>
      </trkpt>
      <trkpt lat="42.86997" lon="0.1458">
        <ele>2272.5</ele>
        <time>2021-03-25T13:48:17Z</time>
      </trkpt>
      <trkpt lat="42.86996" lon="0.1458">
        <ele>2272.5</ele>
        <time>2021-03-25T13:48:19Z</time>
      </trkpt>
      <trkpt lat="42.86996" lon="0.1458">
        <ele>2272.5</ele>
        <time>2021-03-25T13:48:21Z</time>
      </trkpt>
      <trkpt lat="42.86996" lon="0.1458">
        <ele>2272.5</ele>
        <time>2021-03-25T13:48:22Z</time>
      </trkpt>
      <trkpt lat="42.86996" lon="0.1458">
        <ele>2272.5</ele>
        <time>2021-03-25T13:48:23Z</time>
      </trkpt>
      <trkpt lat="42.86996" lon="0.1458">
        <ele>2272.5</ele>
        <time>2021-03-25T13:48:25Z</time>
      </trkpt>
      <trkpt lat="42.86996" lon="0.1458">
        <ele>2272.5</ele>
        <time>2021-03-25T13:48:27Z</time>
      </trkpt>
      <trkpt lat="42.86996" lon="0.1458">
        <ele>2272.5</ele>
        <time>2021-03-25T13:48:28Z</time>
      </trkpt>
      <trkpt lat="42.86996" lon="0.1458">
        <ele>2272.5</ele>
        <time>2021-03-25T13:48:30Z</time>
      </trkpt>
      <trkpt lat="42.86996" lon="0.1458">
        <ele>2272.5</ele>
        <time>2021-03-25T13:48:32Z</time>
      </trkpt>
      <trkpt lat="42.86996" lon="0.1458">
        <ele>2272.5</ele>
        <time>2021-03-25T13:48:33Z</time>
      </trkpt>
      <trkpt lat="42.86996" lon="0.1458">
        <ele>2272.5</ele>
        <time>2021-03-25T13:48:34Z</time>
      </trkpt>
      <trkpt lat="42.86996" lon="0.1458">
        <ele>2272.5</ele>
        <time>2021-03-25T13:48:36Z</time>
      </trkpt>
      <trkpt lat="42.86996" lon="0.1458">
        <ele>2272.5</ele>
        <time>2021-03-25T13:48:38Z</time>
      </trkpt>
      <trkpt lat="42.86996" lon="0.1458">
        <ele>2272.5</ele>
        <time>2021-03-25T13:48:39Z</time>
      </trkpt>
      <trkpt lat="42.86996" lon="0.14579">
        <ele>2272.5</ele>
        <time>2021-03-25T13:48:41Z</time>
      </trkpt>
      <trkpt lat="42.86996" lon="0.14579">
        <ele>2273.8</ele>
        <time>2021-03-25T13:48:42Z</time>
      </trkpt>
      <trkpt lat="42.86995" lon="0.14579">
        <ele>2273.8</ele>
        <time>2021-03-25T13:48:43Z</time>
      </trkpt>
      <trkpt lat="42.86995" lon="0.14579">
        <ele>2273.8</ele>
        <time>2021-03-25T13:48:45Z</time>
      </trkpt>
      <trkpt lat="42.86994" lon="0.14578">
        <ele>2273.8</ele>
        <time>2021-03-25T13:48:47Z</time>
      </trkpt>
      <trkpt lat="42.86994" lon="0.14578">
        <ele>2274.4</ele>
        <time>2021-03-25T13:48:49Z</time>
      </trkpt>
      <trkpt lat="42.86993" lon="0.14578">
        <ele>2274.4</ele>
        <time>2021-03-25T13:48:50Z</time>
      </trkpt>
      <trkpt lat="42.86993" lon="0.14579">
        <ele>2273.8</ele>
        <time>2021-03-25T13:48:52Z</time>
      </trkpt>
      <trkpt lat="42.86992" lon="0.14579">
        <ele>2275</ele>
        <time>2021-03-25T13:48:53Z</time>
      </trkpt>
      <trkpt lat="42.86992" lon="0.1458">
        <ele>2275</ele>
        <time>2021-03-25T13:48:54Z</time>
      </trkpt>
      <trkpt lat="42.86991" lon="0.1458">
        <ele>2275</ele>
        <time>2021-03-25T13:48:55Z</time>
      </trkpt>
      <trkpt lat="42.86991" lon="0.1458">
        <ele>2275</ele>
        <time>2021-03-25T13:48:56Z</time>
      </trkpt>
      <trkpt lat="42.8699" lon="0.14581">
        <ele>2275</ele>
        <time>2021-03-25T13:48:57Z</time>
      </trkpt>
      <trkpt lat="42.8699" lon="0.14581">
        <ele>2275</ele>
        <time>2021-03-25T13:48:58Z</time>
      </trkpt>
      <trkpt lat="42.86989" lon="0.14582">
        <ele>2276.2</ele>
        <time>2021-03-25T13:49:00Z</time>
      </trkpt>
      <trkpt lat="42.86989" lon="0.14582">
        <ele>2276.2</ele>
        <time>2021-03-25T13:49:01Z</time>
      </trkpt>
      <trkpt lat="42.86988" lon="0.14583">
        <ele>2275.6</ele>
        <time>2021-03-25T13:49:02Z</time>
      </trkpt>
      <trkpt lat="42.86988" lon="0.14583">
        <ele>2275.6</ele>
        <time>2021-03-25T13:49:04Z</time>
      </trkpt>
      <trkpt lat="42.86987" lon="0.14584">
        <ele>2275.6</ele>
        <time>2021-03-25T13:49:05Z</time>
      </trkpt>
      <trkpt lat="42.86987" lon="0.14584">
        <ele>2275.6</ele>
        <time>2021-03-25T13:49:06Z</time>
      </trkpt>
      <trkpt lat="42.86987" lon="0.14584">
        <ele>2275.6</ele>
        <time>2021-03-25T13:49:07Z</time>
      </trkpt>
      <trkpt lat="42.86986" lon="0.14584">
        <ele>2275.6</ele>
        <time>2021-03-25T13:49:08Z</time>
      </trkpt>
      <trkpt lat="42.86986" lon="0.14584">
        <ele>2276.8</ele>
        <time>2021-03-25T13:49:10Z</time>
      </trkpt>
      <trkpt lat="42.86985" lon="0.14584">
        <ele>2276.8</ele>
        <time>2021-03-25T13:49:11Z</time>
      </trkpt>
      <trkpt lat="42.86985" lon="0.14585">
        <ele>2276.8</ele>
        <time>2021-03-25T13:49:12Z</time>
      </trkpt>
      <trkpt lat="42.86985" lon="0.14585">
        <ele>2276.8</ele>
        <time>2021-03-25T13:49:13Z</time>
      </trkpt>
      <trkpt lat="42.86985" lon="0.14585">
        <ele>2276.8</ele>
        <time>2021-03-25T13:49:15Z</time>
      </trkpt>
      <trkpt lat="42.86984" lon="0.14585">
        <ele>2276.8</ele>
        <time>2021-03-25T13:49:16Z</time>
      </trkpt>
      <trkpt lat="42.86984" lon="0.14586">
        <ele>2276.8</ele>
        <time>2021-03-25T13:49:17Z</time>
      </trkpt>
      <trkpt lat="42.86984" lon="0.14587">
        <ele>2276.8</ele>
        <time>2021-03-25T13:49:18Z</time>
      </trkpt>
      <trkpt lat="42.86983" lon="0.14588">
        <ele>2277.2</ele>
        <time>2021-03-25T13:49:20Z</time>
      </trkpt>
      <trkpt lat="42.86983" lon="0.14588">
        <ele>2277.2</ele>
        <time>2021-03-25T13:49:21Z</time>
      </trkpt>
      <trkpt lat="42.86983" lon="0.14589">
        <ele>2277.2</ele>
        <time>2021-03-25T13:49:22Z</time>
      </trkpt>
      <trkpt lat="42.86982" lon="0.1459">
        <ele>2277.2</ele>
        <time>2021-03-25T13:49:24Z</time>
      </trkpt>
      <trkpt lat="42.86981" lon="0.14591">
        <ele>2277.2</ele>
        <time>2021-03-25T13:49:25Z</time>
      </trkpt>
      <trkpt lat="42.86981" lon="0.14592">
        <ele>2276.5</ele>
        <time>2021-03-25T13:49:26Z</time>
      </trkpt>
      <trkpt lat="42.8698" lon="0.14593">
        <ele>2277.6</ele>
        <time>2021-03-25T13:49:27Z</time>
      </trkpt>
      <trkpt lat="42.86978" lon="0.14595">
        <ele>2277.6</ele>
        <time>2021-03-25T13:49:29Z</time>
      </trkpt>
      <trkpt lat="42.86978" lon="0.14596">
        <ele>2276.8</ele>
        <time>2021-03-25T13:49:30Z</time>
      </trkpt>
      <trkpt lat="42.86976" lon="0.14598">
        <ele>2277.9</ele>
        <time>2021-03-25T13:49:32Z</time>
      </trkpt>
      <trkpt lat="42.86975" lon="0.14599">
        <ele>2277.9</ele>
        <time>2021-03-25T13:49:33Z</time>
      </trkpt>
      <trkpt lat="42.86975" lon="0.146">
        <ele>2277</ele>
        <time>2021-03-25T13:49:34Z</time>
      </trkpt>
      <trkpt lat="42.86974" lon="0.14601">
        <ele>2277</ele>
        <time>2021-03-25T13:49:36Z</time>
      </trkpt>
      <trkpt lat="42.86973" lon="0.14602">
        <ele>2278</ele>
        <time>2021-03-25T13:49:37Z</time>
      </trkpt>
      <trkpt lat="42.86972" lon="0.14602">
        <ele>2278</ele>
        <time>2021-03-25T13:49:38Z</time>
      </trkpt>
      <trkpt lat="42.86972" lon="0.14603">
        <ele>2278</ele>
        <time>2021-03-25T13:49:39Z</time>
      </trkpt>
      <trkpt lat="42.86971" lon="0.14603">
        <ele>2278</ele>
        <time>2021-03-25T13:49:40Z</time>
      </trkpt>
      <trkpt lat="42.86971" lon="0.14603">
        <ele>2278</ele>
        <time>2021-03-25T13:49:41Z</time>
      </trkpt>
      <trkpt lat="42.86971" lon="0.14604">
        <ele>2278</ele>
        <time>2021-03-25T13:49:43Z</time>
      </trkpt>
      <trkpt lat="42.86971" lon="0.14604">
        <ele>2278</ele>
        <time>2021-03-25T13:49:44Z</time>
      </trkpt>
      <trkpt lat="42.86971" lon="0.14604">
        <ele>2278</ele>
        <time>2021-03-25T13:49:45Z</time>
      </trkpt>
      <trkpt lat="42.8697" lon="0.14604">
        <ele>2278.2</ele>
        <time>2021-03-25T13:49:46Z</time>
      </trkpt>
      <trkpt lat="42.8697" lon="0.14604">
        <ele>2278.2</ele>
        <time>2021-03-25T13:49:47Z</time>
      </trkpt>
      <trkpt lat="42.86969" lon="0.14605">
        <ele>2278.2</ele>
        <time>2021-03-25T13:49:48Z</time>
      </trkpt>
      <trkpt lat="42.86968" lon="0.14605">
        <ele>2278.2</ele>
        <time>2021-03-25T13:49:50Z</time>
      </trkpt>
      <trkpt lat="42.86968" lon="0.14606">
        <ele>2278.2</ele>
        <time>2021-03-25T13:49:51Z</time>
      </trkpt>
      <trkpt lat="42.86967" lon="0.14606">
        <ele>2279.1</ele>
        <time>2021-03-25T13:49:52Z</time>
      </trkpt>
      <trkpt lat="42.86966" lon="0.14606">
        <ele>2279.1</ele>
        <time>2021-03-25T13:49:54Z</time>
      </trkpt>
      <trkpt lat="42.86966" lon="0.14607">
        <ele>2279.1</ele>
        <time>2021-03-25T13:49:55Z</time>
      </trkpt>
      <trkpt lat="42.86966" lon="0.14607">
        <ele>2279.1</ele>
        <time>2021-03-25T13:49:57Z</time>
      </trkpt>
      <trkpt lat="42.86966" lon="0.14607">
        <ele>2279.1</ele>
        <time>2021-03-25T13:49:58Z</time>
      </trkpt>
      <trkpt lat="42.86966" lon="0.14608">
        <ele>2279.1</ele>
        <time>2021-03-25T13:50:00Z</time>
      </trkpt>
      <trkpt lat="42.86966" lon="0.14608">
        <ele>2279.1</ele>
        <time>2021-03-25T13:50:02Z</time>
      </trkpt>
      <trkpt lat="42.86966" lon="0.14608">
        <ele>2279.1</ele>
        <time>2021-03-25T13:50:03Z</time>
      </trkpt>
      <trkpt lat="42.86966" lon="0.14608">
        <ele>2279.1</ele>
        <time>2021-03-25T13:50:04Z</time>
      </trkpt>
      <trkpt lat="42.86966" lon="0.14608">
        <ele>2279.1</ele>
        <time>2021-03-25T13:50:05Z</time>
      </trkpt>
      <trkpt lat="42.86966" lon="0.14608">
        <ele>2278.2</ele>
        <time>2021-03-25T13:50:07Z</time>
      </trkpt>
      <trkpt lat="42.86966" lon="0.14609">
        <ele>2278.2</ele>
        <time>2021-03-25T13:50:08Z</time>
      </trkpt>
      <trkpt lat="42.86966" lon="0.14609">
        <ele>2278.2</ele>
        <time>2021-03-25T13:50:10Z</time>
      </trkpt>
      <trkpt lat="42.86966" lon="0.14609">
        <ele>2278.2</ele>
        <time>2021-03-25T13:50:11Z</time>
      </trkpt>
      <trkpt lat="42.86966" lon="0.14608">
        <ele>2278.2</ele>
        <time>2021-03-25T13:50:12Z</time>
      </trkpt>
      <trkpt lat="42.86966" lon="0.14608">
        <ele>2279.1</ele>
        <time>2021-03-25T13:50:14Z</time>
      </trkpt>
      <trkpt lat="42.86966" lon="0.14608">
        <ele>2279.1</ele>
        <time>2021-03-25T13:50:16Z</time>
      </trkpt>
      <trkpt lat="42.86966" lon="0.14608">
        <ele>2279.1</ele>
        <time>2021-03-25T13:50:17Z</time>
      </trkpt>
      <trkpt lat="42.86966" lon="0.14607">
        <ele>2279.1</ele>
        <time>2021-03-25T13:50:19Z</time>
      </trkpt>
      <trkpt lat="42.86966" lon="0.14607">
        <ele>2279.1</ele>
        <time>2021-03-25T13:50:20Z</time>
      </trkpt>
      <trkpt lat="42.86966" lon="0.14607">
        <ele>2279.1</ele>
        <time>2021-03-25T13:50:21Z</time>
      </trkpt>
      <trkpt lat="42.86965" lon="0.14607">
        <ele>2279.1</ele>
        <time>2021-03-25T13:50:23Z</time>
      </trkpt>
      <trkpt lat="42.86965" lon="0.14606">
        <ele>2279.1</ele>
        <time>2021-03-25T13:50:24Z</time>
      </trkpt>
      <trkpt lat="42.86965" lon="0.14606">
        <ele>2279.1</ele>
        <time>2021-03-25T13:50:25Z</time>
      </trkpt>
      <trkpt lat="42.86965" lon="0.14606">
        <ele>2279.1</ele>
        <time>2021-03-25T13:50:26Z</time>
      </trkpt>
      <trkpt lat="42.86966" lon="0.14607">
        <ele>2279.1</ele>
        <time>2021-03-25T13:50:28Z</time>
      </trkpt>
      <trkpt lat="42.86966" lon="0.14607">
        <ele>2279.1</ele>
        <time>2021-03-25T13:50:29Z</time>
      </trkpt>
      <trkpt lat="42.86965" lon="0.14608">
        <ele>2279.1</ele>
        <time>2021-03-25T13:50:31Z</time>
      </trkpt>
      <trkpt lat="42.86965" lon="0.14608">
        <ele>2279.1</ele>
        <time>2021-03-25T13:50:32Z</time>
      </trkpt>
      <trkpt lat="42.86965" lon="0.14608">
        <ele>2279.1</ele>
        <time>2021-03-25T13:50:33Z</time>
      </trkpt>
      <trkpt lat="42.86965" lon="0.14607">
        <ele>2279.1</ele>
        <time>2021-03-25T13:50:34Z</time>
      </trkpt>
      <trkpt lat="42.86964" lon="0.14607">
        <ele>2279.1</ele>
        <time>2021-03-25T13:50:36Z</time>
      </trkpt>
      <trkpt lat="42.86964" lon="0.14607">
        <ele>2280</ele>
        <time>2021-03-25T13:50:37Z</time>
      </trkpt>
      <trkpt lat="42.86964" lon="0.14607">
        <ele>2280</ele>
        <time>2021-03-25T13:50:38Z</time>
      </trkpt>
      <trkpt lat="42.86964" lon="0.14607">
        <ele>2280</ele>
        <time>2021-03-25T13:50:39Z</time>
      </trkpt>
      <trkpt lat="42.86964" lon="0.14607">
        <ele>2280</ele>
        <time>2021-03-25T13:50:41Z</time>
      </trkpt>
      <trkpt lat="42.86964" lon="0.14607">
        <ele>2280</ele>
        <time>2021-03-25T13:50:42Z</time>
      </trkpt>
      <trkpt lat="42.86964" lon="0.14607">
        <ele>2280</ele>
        <time>2021-03-25T13:50:43Z</time>
      </trkpt>
      <trkpt lat="42.86964" lon="0.14607">
        <ele>2280</ele>
        <time>2021-03-25T13:50:45Z</time>
      </trkpt>
      <trkpt lat="42.86964" lon="0.14607">
        <ele>2279.1</ele>
        <time>2021-03-25T13:50:47Z</time>
      </trkpt>
      <trkpt lat="42.86964" lon="0.14607">
        <ele>2279.1</ele>
        <time>2021-03-25T13:50:48Z</time>
      </trkpt>
      <trkpt lat="42.86964" lon="0.14607">
        <ele>2279.1</ele>
        <time>2021-03-25T13:50:49Z</time>
      </trkpt>
      <trkpt lat="42.86964" lon="0.14607">
        <ele>2279.1</ele>
        <time>2021-03-25T13:50:51Z</time>
      </trkpt>
      <trkpt lat="42.86964" lon="0.14607">
        <ele>2280</ele>
        <time>2021-03-25T13:50:52Z</time>
      </trkpt>
      <trkpt lat="42.86964" lon="0.14608">
        <ele>2280</ele>
        <time>2021-03-25T13:50:54Z</time>
      </trkpt>
      <trkpt lat="42.86964" lon="0.14607">
        <ele>2280</ele>
        <time>2021-03-25T13:50:55Z</time>
      </trkpt>
      <trkpt lat="42.86964" lon="0.14607">
        <ele>2279.1</ele>
        <time>2021-03-25T13:50:57Z</time>
      </trkpt>
      <trkpt lat="42.86964" lon="0.14607">
        <ele>2280</ele>
        <time>2021-03-25T13:50:58Z</time>
      </trkpt>
      <trkpt lat="42.86964" lon="0.14607">
        <ele>2279.1</ele>
        <time>2021-03-25T13:50:59Z</time>
      </trkpt>
      <trkpt lat="42.86964" lon="0.14607">
        <ele>2280</ele>
        <time>2021-03-25T13:51:01Z</time>
      </trkpt>
      <trkpt lat="42.86964" lon="0.14608">
        <ele>2280</ele>
        <time>2021-03-25T13:51:03Z</time>
      </trkpt>
      <trkpt lat="42.86963" lon="0.1461">
        <ele>2279.1</ele>
        <time>2021-03-25T13:51:05Z</time>
      </trkpt>
      <trkpt lat="42.86964" lon="0.14611">
        <ele>2279.1</ele>
        <time>2021-03-25T13:51:06Z</time>
      </trkpt>
      <trkpt lat="42.86963" lon="0.1461">
        <ele>2279.1</ele>
        <time>2021-03-25T13:51:08Z</time>
      </trkpt>
      <trkpt lat="42.86962" lon="0.1461">
        <ele>2279.1</ele>
        <time>2021-03-25T13:51:10Z</time>
      </trkpt>
      <trkpt lat="42.86962" lon="0.1461">
        <ele>2279.1</ele>
        <time>2021-03-25T13:51:11Z</time>
      </trkpt>
      <trkpt lat="42.86961" lon="0.14609">
        <ele>2279.1</ele>
        <time>2021-03-25T13:51:12Z</time>
      </trkpt>
      <trkpt lat="42.86962" lon="0.14609">
        <ele>2279.1</ele>
        <time>2021-03-25T13:51:14Z</time>
      </trkpt>
      <trkpt lat="42.86962" lon="0.14609">
        <ele>2279.1</ele>
        <time>2021-03-25T13:51:16Z</time>
      </trkpt>
      <trkpt lat="42.86962" lon="0.14609">
        <ele>2279.1</ele>
        <time>2021-03-25T13:51:18Z</time>
      </trkpt>
      <trkpt lat="42.86962" lon="0.14609">
        <ele>2279.1</ele>
        <time>2021-03-25T13:51:20Z</time>
      </trkpt>
      <trkpt lat="42.86963" lon="0.14609">
        <ele>2279.1</ele>
        <time>2021-03-25T13:51:22Z</time>
      </trkpt>
      <trkpt lat="42.86963" lon="0.14609">
        <ele>2279.1</ele>
        <time>2021-03-25T13:51:23Z</time>
      </trkpt>
      <trkpt lat="42.86963" lon="0.14609">
        <ele>2279.1</ele>
        <time>2021-03-25T13:51:25Z</time>
      </trkpt>
      <trkpt lat="42.86964" lon="0.14609">
        <ele>2279.1</ele>
        <time>2021-03-25T13:51:26Z</time>
      </trkpt>
      <trkpt lat="42.86964" lon="0.14608">
        <ele>2279.1</ele>
        <time>2021-03-25T13:51:28Z</time>
      </trkpt>
      <trkpt lat="42.86964" lon="0.14608">
        <ele>2280</ele>
        <time>2021-03-25T13:51:29Z</time>
      </trkpt>
      <trkpt lat="42.86964" lon="0.14608">
        <ele>2280</ele>
        <time>2021-03-25T13:51:30Z</time>
      </trkpt>
      <trkpt lat="42.86964" lon="0.14608">
        <ele>2280</ele>
        <time>2021-03-25T13:51:32Z</time>
      </trkpt>
      <trkpt lat="42.86964" lon="0.14608">
        <ele>2280</ele>
        <time>2021-03-25T13:51:33Z</time>
      </trkpt>
      <trkpt lat="42.86964" lon="0.14608">
        <ele>2280</ele>
        <time>2021-03-25T13:51:34Z</time>
      </trkpt>
      <trkpt lat="42.86964" lon="0.14608">
        <ele>2280</ele>
        <time>2021-03-25T13:51:36Z</time>
      </trkpt>
      <trkpt lat="42.86963" lon="0.14608">
        <ele>2280</ele>
        <time>2021-03-25T13:51:37Z</time>
      </trkpt>
      <trkpt lat="42.86963" lon="0.14608">
        <ele>2280</ele>
        <time>2021-03-25T13:51:38Z</time>
      </trkpt>
      <trkpt lat="42.86963" lon="0.14608">
        <ele>2280</ele>
        <time>2021-03-25T13:51:40Z</time>
      </trkpt>
      <trkpt lat="42.86963" lon="0.14608">
        <ele>2280</ele>
        <time>2021-03-25T13:51:42Z</time>
      </trkpt>
      <trkpt lat="42.86963" lon="0.14608">
        <ele>2280</ele>
        <time>2021-03-25T13:51:44Z</time>
      </trkpt>
      <trkpt lat="42.86964" lon="0.14608">
        <ele>2279.1</ele>
        <time>2021-03-25T13:51:46Z</time>
      </trkpt>
      <trkpt lat="42.86965" lon="0.14608">
        <ele>2279.1</ele>
        <time>2021-03-25T13:51:48Z</time>
      </trkpt>
      <trkpt lat="42.86965" lon="0.14608">
        <ele>2279.1</ele>
        <time>2021-03-25T13:51:50Z</time>
      </trkpt>
      <trkpt lat="42.86965" lon="0.14608">
        <ele>2279.1</ele>
        <time>2021-03-25T13:51:52Z</time>
      </trkpt>
      <trkpt lat="42.86965" lon="0.14608">
        <ele>2279.1</ele>
        <time>2021-03-25T13:51:53Z</time>
      </trkpt>
      <trkpt lat="42.86965" lon="0.14608">
        <ele>2279.1</ele>
        <time>2021-03-25T13:51:55Z</time>
      </trkpt>
      <trkpt lat="42.86964" lon="0.14608">
        <ele>2280</ele>
        <time>2021-03-25T13:51:56Z</time>
      </trkpt>
      <trkpt lat="42.86964" lon="0.14607">
        <ele>2280</ele>
        <time>2021-03-25T13:51:58Z</time>
      </trkpt>
      <trkpt lat="42.86964" lon="0.14607">
        <ele>2280</ele>
        <time>2021-03-25T13:51:59Z</time>
      </trkpt>
      <trkpt lat="42.86963" lon="0.14607">
        <ele>2280</ele>
        <time>2021-03-25T13:52:01Z</time>
      </trkpt>
      <trkpt lat="42.86963" lon="0.14607">
        <ele>2280</ele>
        <time>2021-03-25T13:52:02Z</time>
      </trkpt>
      <trkpt lat="42.86963" lon="0.14606">
        <ele>2280</ele>
        <time>2021-03-25T13:52:03Z</time>
      </trkpt>
      <trkpt lat="42.86962" lon="0.14606">
        <ele>2280</ele>
        <time>2021-03-25T13:52:05Z</time>
      </trkpt>
      <trkpt lat="42.86962" lon="0.14607">
        <ele>2280</ele>
        <time>2021-03-25T13:52:06Z</time>
      </trkpt>
      <trkpt lat="42.86962" lon="0.14607">
        <ele>2280</ele>
        <time>2021-03-25T13:52:08Z</time>
      </trkpt>
      <trkpt lat="42.86962" lon="0.14607">
        <ele>2280</ele>
        <time>2021-03-25T13:52:09Z</time>
      </trkpt>
      <trkpt lat="42.86962" lon="0.14607">
        <ele>2280</ele>
        <time>2021-03-25T13:52:11Z</time>
      </trkpt>
      <trkpt lat="42.86962" lon="0.14607">
        <ele>2280</ele>
        <time>2021-03-25T13:52:12Z</time>
      </trkpt>
      <trkpt lat="42.86962" lon="0.14607">
        <ele>2280</ele>
        <time>2021-03-25T13:52:13Z</time>
      </trkpt>
      <trkpt lat="42.86962" lon="0.14607">
        <ele>2280</ele>
        <time>2021-03-25T13:52:14Z</time>
      </trkpt>
      <trkpt lat="42.86962" lon="0.14608">
        <ele>2280</ele>
        <time>2021-03-25T13:52:15Z</time>
      </trkpt>
      <trkpt lat="42.86962" lon="0.14608">
        <ele>2280</ele>
        <time>2021-03-25T13:52:17Z</time>
      </trkpt>
      <trkpt lat="42.86962" lon="0.14608">
        <ele>2280</ele>
        <time>2021-03-25T13:52:19Z</time>
      </trkpt>
      <trkpt lat="42.86962" lon="0.14608">
        <ele>2280</ele>
        <time>2021-03-25T13:52:21Z</time>
      </trkpt>
      <trkpt lat="42.86962" lon="0.14607">
        <ele>2280</ele>
        <time>2021-03-25T13:52:23Z</time>
      </trkpt>
      <trkpt lat="42.86962" lon="0.14607">
        <ele>2280</ele>
        <time>2021-03-25T13:52:24Z</time>
      </trkpt>
      <trkpt lat="42.86962" lon="0.14607">
        <ele>2280</ele>
        <time>2021-03-25T13:52:26Z</time>
      </trkpt>
      <trkpt lat="42.86962" lon="0.14607">
        <ele>2280</ele>
        <time>2021-03-25T13:52:27Z</time>
      </trkpt>
      <trkpt lat="42.86963" lon="0.14607">
        <ele>2280</ele>
        <time>2021-03-25T13:52:29Z</time>
      </trkpt>
      <trkpt lat="42.86963" lon="0.14607">
        <ele>2280</ele>
        <time>2021-03-25T13:52:30Z</time>
      </trkpt>
      <trkpt lat="42.86963" lon="0.14607">
        <ele>2280</ele>
        <time>2021-03-25T13:52:32Z</time>
      </trkpt>
      <trkpt lat="42.86963" lon="0.14607">
        <ele>2280</ele>
        <time>2021-03-25T13:52:34Z</time>
      </trkpt>
      <trkpt lat="42.86963" lon="0.14607">
        <ele>2280</ele>
        <time>2021-03-25T13:52:36Z</time>
      </trkpt>
      <trkpt lat="42.86963" lon="0.14607">
        <ele>2280</ele>
        <time>2021-03-25T13:52:38Z</time>
      </trkpt>
      <trkpt lat="42.86963" lon="0.14607">
        <ele>2280</ele>
        <time>2021-03-25T13:52:39Z</time>
      </trkpt>
      <trkpt lat="42.86962" lon="0.14607">
        <ele>2280</ele>
        <time>2021-03-25T13:52:41Z</time>
      </trkpt>
      <trkpt lat="42.86961" lon="0.14607">
        <ele>2280</ele>
        <time>2021-03-25T13:52:43Z</time>
      </trkpt>
      <trkpt lat="42.86961" lon="0.14607">
        <ele>2280</ele>
        <time>2021-03-25T13:52:44Z</time>
      </trkpt>
      <trkpt lat="42.86961" lon="0.14607">
        <ele>2280.8</ele>
        <time>2021-03-25T13:52:46Z</time>
      </trkpt>
      <trkpt lat="42.8696" lon="0.14607">
        <ele>2280.8</ele>
        <time>2021-03-25T13:52:48Z</time>
      </trkpt>
      <trkpt lat="42.8696" lon="0.14607">
        <ele>2280.8</ele>
        <time>2021-03-25T13:52:49Z</time>
      </trkpt>
      <trkpt lat="42.8696" lon="0.14606">
        <ele>2280.8</ele>
        <time>2021-03-25T13:52:50Z</time>
      </trkpt>
      <trkpt lat="42.8696" lon="0.14606">
        <ele>2280.8</ele>
        <time>2021-03-25T13:52:52Z</time>
      </trkpt>
      <trkpt lat="42.8696" lon="0.14606">
        <ele>2280.8</ele>
        <time>2021-03-25T13:52:53Z</time>
      </trkpt>
      <trkpt lat="42.8696" lon="0.14606">
        <ele>2280.8</ele>
        <time>2021-03-25T13:52:54Z</time>
      </trkpt>
      <trkpt lat="42.8696" lon="0.14606">
        <ele>2280.8</ele>
        <time>2021-03-25T13:52:55Z</time>
      </trkpt>
      <trkpt lat="42.8696" lon="0.14606">
        <ele>2280.8</ele>
        <time>2021-03-25T13:52:56Z</time>
      </trkpt>
      <trkpt lat="42.8696" lon="0.14606">
        <ele>2280.8</ele>
        <time>2021-03-25T13:52:57Z</time>
      </trkpt>
      <trkpt lat="42.86961" lon="0.14606">
        <ele>2280.8</ele>
        <time>2021-03-25T13:52:59Z</time>
      </trkpt>
      <trkpt lat="42.86961" lon="0.14606">
        <ele>2280</ele>
        <time>2021-03-25T13:53:01Z</time>
      </trkpt>
      <trkpt lat="42.86962" lon="0.14606">
        <ele>2280</ele>
        <time>2021-03-25T13:53:03Z</time>
      </trkpt>
      <trkpt lat="42.86963" lon="0.14605">
        <ele>2280</ele>
        <time>2021-03-25T13:53:05Z</time>
      </trkpt>
      <trkpt lat="42.86964" lon="0.14604">
        <ele>2280.9</ele>
        <time>2021-03-25T13:53:07Z</time>
      </trkpt>
      <trkpt lat="42.86964" lon="0.14604">
        <ele>2279.1</ele>
        <time>2021-03-25T13:53:08Z</time>
      </trkpt>
      <trkpt lat="42.86965" lon="0.14605">
        <ele>2279.1</ele>
        <time>2021-03-25T13:53:09Z</time>
      </trkpt>
      <trkpt lat="42.86966" lon="0.14605">
        <ele>2279.1</ele>
        <time>2021-03-25T13:53:11Z</time>
      </trkpt>
      <trkpt lat="42.86966" lon="0.14605">
        <ele>2279.1</ele>
        <time>2021-03-25T13:53:12Z</time>
      </trkpt>
      <trkpt lat="42.86967" lon="0.14605">
        <ele>2279.1</ele>
        <time>2021-03-25T13:53:14Z</time>
      </trkpt>
      <trkpt lat="42.86968" lon="0.14605">
        <ele>2278.2</ele>
        <time>2021-03-25T13:53:16Z</time>
      </trkpt>
      <trkpt lat="42.86968" lon="0.14605">
        <ele>2278.2</ele>
        <time>2021-03-25T13:53:18Z</time>
      </trkpt>
      <trkpt lat="42.86968" lon="0.14605">
        <ele>2278.2</ele>
        <time>2021-03-25T13:53:19Z</time>
      </trkpt>
      <trkpt lat="42.86968" lon="0.14605">
        <ele>2278.2</ele>
        <time>2021-03-25T13:53:20Z</time>
      </trkpt>
      <trkpt lat="42.86968" lon="0.14606">
        <ele>2278.2</ele>
        <time>2021-03-25T13:53:21Z</time>
      </trkpt>
      <trkpt lat="42.86967" lon="0.14606">
        <ele>2279.1</ele>
        <time>2021-03-25T13:53:22Z</time>
      </trkpt>
      <trkpt lat="42.86967" lon="0.14606">
        <ele>2279.1</ele>
        <time>2021-03-25T13:53:24Z</time>
      </trkpt>
      <trkpt lat="42.86967" lon="0.14606">
        <ele>2279.1</ele>
        <time>2021-03-25T13:53:26Z</time>
      </trkpt>
      <trkpt lat="42.86967" lon="0.14606">
        <ele>2279.1</ele>
        <time>2021-03-25T13:53:28Z</time>
      </trkpt>
      <trkpt lat="42.86967" lon="0.14606">
        <ele>2279.1</ele>
        <time>2021-03-25T13:53:29Z</time>
      </trkpt>
      <trkpt lat="42.86967" lon="0.14606">
        <ele>2279.1</ele>
        <time>2021-03-25T13:53:30Z</time>
      </trkpt>
      <trkpt lat="42.86967" lon="0.14606">
        <ele>2279.1</ele>
        <time>2021-03-25T13:53:32Z</time>
      </trkpt>
      <trkpt lat="42.86967" lon="0.14605">
        <ele>2279.1</ele>
        <time>2021-03-25T13:53:33Z</time>
      </trkpt>
      <trkpt lat="42.86967" lon="0.14605">
        <ele>2279.1</ele>
        <time>2021-03-25T13:53:34Z</time>
      </trkpt>
      <trkpt lat="42.86966" lon="0.14606">
        <ele>2279.1</ele>
        <time>2021-03-25T13:53:36Z</time>
      </trkpt>
      <trkpt lat="42.86966" lon="0.14606">
        <ele>2279.1</ele>
        <time>2021-03-25T13:53:37Z</time>
      </trkpt>
      <trkpt lat="42.86967" lon="0.14606">
        <ele>2279.1</ele>
        <time>2021-03-25T13:53:39Z</time>
      </trkpt>
      <trkpt lat="42.86967" lon="0.14606">
        <ele>2279.1</ele>
        <time>2021-03-25T13:53:40Z</time>
      </trkpt>
      <trkpt lat="42.86967" lon="0.14606">
        <ele>2279.1</ele>
        <time>2021-03-25T13:53:42Z</time>
      </trkpt>
      <trkpt lat="42.86966" lon="0.14606">
        <ele>2279.1</ele>
        <time>2021-03-25T13:53:43Z</time>
      </trkpt>
      <trkpt lat="42.86966" lon="0.14606">
        <ele>2279.1</ele>
        <time>2021-03-25T13:53:45Z</time>
      </trkpt>
      <trkpt lat="42.86966" lon="0.14606">
        <ele>2279.1</ele>
        <time>2021-03-25T13:53:47Z</time>
      </trkpt>
      <trkpt lat="42.86966" lon="0.14606">
        <ele>2279.1</ele>
        <time>2021-03-25T13:53:48Z</time>
      </trkpt>
      <trkpt lat="42.86966" lon="0.14606">
        <ele>2279.1</ele>
        <time>2021-03-25T13:53:49Z</time>
      </trkpt>
      <trkpt lat="42.86966" lon="0.14606">
        <ele>2279.1</ele>
        <time>2021-03-25T13:53:51Z</time>
      </trkpt>
      <trkpt lat="42.86966" lon="0.14606">
        <ele>2279.1</ele>
        <time>2021-03-25T13:53:53Z</time>
      </trkpt>
      <trkpt lat="42.86967" lon="0.14606">
        <ele>2279.1</ele>
        <time>2021-03-25T13:53:54Z</time>
      </trkpt>
      <trkpt lat="42.86967" lon="0.14606">
        <ele>2279.1</ele>
        <time>2021-03-25T13:53:55Z</time>
      </trkpt>
      <trkpt lat="42.86967" lon="0.14606">
        <ele>2279.1</ele>
        <time>2021-03-25T13:53:57Z</time>
      </trkpt>
      <trkpt lat="42.86967" lon="0.14606">
        <ele>2279.1</ele>
        <time>2021-03-25T13:53:58Z</time>
      </trkpt>
      <trkpt lat="42.86967" lon="0.14606">
        <ele>2279.1</ele>
        <time>2021-03-25T13:53:59Z</time>
      </trkpt>
      <trkpt lat="42.86967" lon="0.14606">
        <ele>2279.1</ele>
        <time>2021-03-25T13:54:01Z</time>
      </trkpt>
      <trkpt lat="42.86967" lon="0.14606">
        <ele>2279.1</ele>
        <time>2021-03-25T13:54:03Z</time>
      </trkpt>
      <trkpt lat="42.86967" lon="0.14606">
        <ele>2279.1</ele>
        <time>2021-03-25T13:54:05Z</time>
      </trkpt>
      <trkpt lat="42.86967" lon="0.14606">
        <ele>2279.1</ele>
        <time>2021-03-25T13:54:06Z</time>
      </trkpt>
      <trkpt lat="42.86967" lon="0.14606">
        <ele>2279.1</ele>
        <time>2021-03-25T13:54:08Z</time>
      </trkpt>
      <trkpt lat="42.86967" lon="0.14606">
        <ele>2279.1</ele>
        <time>2021-03-25T13:54:09Z</time>
      </trkpt>
      <trkpt lat="42.86966" lon="0.14606">
        <ele>2279.1</ele>
        <time>2021-03-25T13:54:11Z</time>
      </trkpt>
      <trkpt lat="42.86967" lon="0.14607">
        <ele>2279.1</ele>
        <time>2021-03-25T13:54:13Z</time>
      </trkpt>
      <trkpt lat="42.86966" lon="0.14607">
        <ele>2279.1</ele>
        <time>2021-03-25T13:54:14Z</time>
      </trkpt>
      <trkpt lat="42.86967" lon="0.14607">
        <ele>2279.1</ele>
        <time>2021-03-25T13:54:15Z</time>
      </trkpt>
      <trkpt lat="42.86966" lon="0.14607">
        <ele>2279.1</ele>
        <time>2021-03-25T13:54:16Z</time>
      </trkpt>
      <trkpt lat="42.86966" lon="0.14607">
        <ele>2279.1</ele>
        <time>2021-03-25T13:54:17Z</time>
      </trkpt>
      <trkpt lat="42.86965" lon="0.14608">
        <ele>2279.1</ele>
        <time>2021-03-25T13:54:19Z</time>
      </trkpt>
      <trkpt lat="42.86964" lon="0.14608">
        <ele>2279.1</ele>
        <time>2021-03-25T13:54:20Z</time>
      </trkpt>
      <trkpt lat="42.86964" lon="0.14608">
        <ele>2280</ele>
        <time>2021-03-25T13:54:21Z</time>
      </trkpt>
      <trkpt lat="42.86963" lon="0.14607">
        <ele>2280</ele>
        <time>2021-03-25T13:54:23Z</time>
      </trkpt>
      <trkpt lat="42.86963" lon="0.14607">
        <ele>2280</ele>
        <time>2021-03-25T13:54:25Z</time>
      </trkpt>
      <trkpt lat="42.86963" lon="0.14607">
        <ele>2280</ele>
        <time>2021-03-25T13:54:26Z</time>
      </trkpt>
      <trkpt lat="42.86963" lon="0.14607">
        <ele>2280</ele>
        <time>2021-03-25T13:54:28Z</time>
      </trkpt>
      <trkpt lat="42.86963" lon="0.14607">
        <ele>2280</ele>
        <time>2021-03-25T13:54:29Z</time>
      </trkpt>
      <trkpt lat="42.86963" lon="0.14608">
        <ele>2280</ele>
        <time>2021-03-25T13:54:31Z</time>
      </trkpt>
      <trkpt lat="42.86963" lon="0.14607">
        <ele>2280</ele>
        <time>2021-03-25T13:54:33Z</time>
      </trkpt>
      <trkpt lat="42.86964" lon="0.14609">
        <ele>2279.1</ele>
        <time>2021-03-25T13:54:35Z</time>
      </trkpt>
      <trkpt lat="42.86964" lon="0.14609">
        <ele>2279.1</ele>
        <time>2021-03-25T13:54:36Z</time>
      </trkpt>
      <trkpt lat="42.86964" lon="0.14609">
        <ele>2279.1</ele>
        <time>2021-03-25T13:54:37Z</time>
      </trkpt>
      <trkpt lat="42.86963" lon="0.14608">
        <ele>2279.1</ele>
        <time>2021-03-25T13:54:39Z</time>
      </trkpt>
      <trkpt lat="42.86963" lon="0.14608">
        <ele>2280</ele>
        <time>2021-03-25T13:54:40Z</time>
      </trkpt>
      <trkpt lat="42.86963" lon="0.14608">
        <ele>2280</ele>
        <time>2021-03-25T13:54:41Z</time>
      </trkpt>
      <trkpt lat="42.86963" lon="0.14608">
        <ele>2280</ele>
        <time>2021-03-25T13:54:42Z</time>
      </trkpt>
      <trkpt lat="42.86963" lon="0.14607">
        <ele>2280</ele>
        <time>2021-03-25T13:54:44Z</time>
      </trkpt>
      <trkpt lat="42.86962" lon="0.14607">
        <ele>2280</ele>
        <time>2021-03-25T13:54:46Z</time>
      </trkpt>
      <trkpt lat="42.86963" lon="0.14607">
        <ele>2280</ele>
        <time>2021-03-25T13:54:47Z</time>
      </trkpt>
      <trkpt lat="42.86963" lon="0.14607">
        <ele>2280</ele>
        <time>2021-03-25T13:54:49Z</time>
      </trkpt>
      <trkpt lat="42.86964" lon="0.14606">
        <ele>2280</ele>
        <time>2021-03-25T13:54:51Z</time>
      </trkpt>
      <trkpt lat="42.86964" lon="0.14606">
        <ele>2280</ele>
        <time>2021-03-25T13:54:52Z</time>
      </trkpt>
      <trkpt lat="42.86964" lon="0.14606">
        <ele>2280</ele>
        <time>2021-03-25T13:54:53Z</time>
      </trkpt>
      <trkpt lat="42.86964" lon="0.14605">
        <ele>2280</ele>
        <time>2021-03-25T13:54:54Z</time>
      </trkpt>
      <trkpt lat="42.86963" lon="0.14605">
        <ele>2280</ele>
        <time>2021-03-25T13:54:55Z</time>
      </trkpt>
      <trkpt lat="42.86964" lon="0.14605">
        <ele>2280</ele>
        <time>2021-03-25T13:54:56Z</time>
      </trkpt>
      <trkpt lat="42.86963" lon="0.14605">
        <ele>2280</ele>
        <time>2021-03-25T13:54:58Z</time>
      </trkpt>
      <trkpt lat="42.86963" lon="0.14605">
        <ele>2280</ele>
        <time>2021-03-25T13:54:59Z</time>
      </trkpt>
      <trkpt lat="42.86963" lon="0.14605">
        <ele>2280</ele>
        <time>2021-03-25T13:55:00Z</time>
      </trkpt>
      <trkpt lat="42.86964" lon="0.14606">
        <ele>2280</ele>
        <time>2021-03-25T13:55:02Z</time>
      </trkpt>
      <trkpt lat="42.86963" lon="0.14606">
        <ele>2280</ele>
        <time>2021-03-25T13:55:03Z</time>
      </trkpt>
      <trkpt lat="42.86963" lon="0.14606">
        <ele>2280</ele>
        <time>2021-03-25T13:55:04Z</time>
      </trkpt>
      <trkpt lat="42.86963" lon="0.14606">
        <ele>2280</ele>
        <time>2021-03-25T13:55:06Z</time>
      </trkpt>
      <trkpt lat="42.86963" lon="0.14606">
        <ele>2280</ele>
        <time>2021-03-25T13:55:08Z</time>
      </trkpt>
      <trkpt lat="42.86963" lon="0.14606">
        <ele>2280</ele>
        <time>2021-03-25T13:55:09Z</time>
      </trkpt>
      <trkpt lat="42.86963" lon="0.14606">
        <ele>2280</ele>
        <time>2021-03-25T13:55:11Z</time>
      </trkpt>
      <trkpt lat="42.86963" lon="0.14606">
        <ele>2280</ele>
        <time>2021-03-25T13:55:12Z</time>
      </trkpt>
      <trkpt lat="42.86963" lon="0.14606">
        <ele>2280</ele>
        <time>2021-03-25T13:55:13Z</time>
      </trkpt>
      <trkpt lat="42.86964" lon="0.14606">
        <ele>2280</ele>
        <time>2021-03-25T13:55:14Z</time>
      </trkpt>
      <trkpt lat="42.86963" lon="0.14606">
        <ele>2280</ele>
        <time>2021-03-25T13:55:16Z</time>
      </trkpt>
      <trkpt lat="42.86963" lon="0.14606">
        <ele>2280</ele>
        <time>2021-03-25T13:55:17Z</time>
      </trkpt>
      <trkpt lat="42.86963" lon="0.14606">
        <ele>2280</ele>
        <time>2021-03-25T13:55:19Z</time>
      </trkpt>
      <trkpt lat="42.86963" lon="0.14606">
        <ele>2280</ele>
        <time>2021-03-25T13:55:20Z</time>
      </trkpt>
      <trkpt lat="42.86963" lon="0.14606">
        <ele>2280</ele>
        <time>2021-03-25T13:55:22Z</time>
      </trkpt>
      <trkpt lat="42.86963" lon="0.14605">
        <ele>2280</ele>
        <time>2021-03-25T13:55:23Z</time>
      </trkpt>
      <trkpt lat="42.86963" lon="0.14605">
        <ele>2280</ele>
        <time>2021-03-25T13:55:24Z</time>
      </trkpt>
      <trkpt lat="42.86963" lon="0.14605">
        <ele>2280</ele>
        <time>2021-03-25T13:55:26Z</time>
      </trkpt>
      <trkpt lat="42.86963" lon="0.14603">
        <ele>2280.9</ele>
        <time>2021-03-25T13:55:27Z</time>
      </trkpt>
      <trkpt lat="42.86963" lon="0.14602">
        <ele>2280.9</ele>
        <time>2021-03-25T13:55:28Z</time>
      </trkpt>
      <trkpt lat="42.86963" lon="0.14601">
        <ele>2280.9</ele>
        <time>2021-03-25T13:55:30Z</time>
      </trkpt>
      <trkpt lat="42.86964" lon="0.146">
        <ele>2281.8</ele>
        <time>2021-03-25T13:55:31Z</time>
      </trkpt>
      <trkpt lat="42.86964" lon="0.14598">
        <ele>2281.8</ele>
        <time>2021-03-25T13:55:32Z</time>
      </trkpt>
      <trkpt lat="42.86965" lon="0.14597">
        <ele>2280.9</ele>
        <time>2021-03-25T13:55:34Z</time>
      </trkpt>
      <trkpt lat="42.86965" lon="0.14595">
        <ele>2281.7</ele>
        <time>2021-03-25T13:55:35Z</time>
      </trkpt>
      <trkpt lat="42.86966" lon="0.14593">
        <ele>2281.7</ele>
        <time>2021-03-25T13:55:36Z</time>
      </trkpt>
      <trkpt lat="42.86966" lon="0.14591">
        <ele>2282.4</ele>
        <time>2021-03-25T13:55:38Z</time>
      </trkpt>
      <trkpt lat="42.86966" lon="0.14588">
        <ele>2282.4</ele>
        <time>2021-03-25T13:55:39Z</time>
      </trkpt>
      <trkpt lat="42.86968" lon="0.14582">
        <ele>2282.8</ele>
        <time>2021-03-25T13:55:41Z</time>
      </trkpt>
      <trkpt lat="42.86968" lon="0.14581">
        <ele>2282.8</ele>
        <time>2021-03-25T13:55:43Z</time>
      </trkpt>
      <trkpt lat="42.86968" lon="0.14579">
        <ele>2282.8</ele>
        <time>2021-03-25T13:55:44Z</time>
      </trkpt>
      <trkpt lat="42.86969" lon="0.14577">
        <ele>2283.4</ele>
        <time>2021-03-25T13:55:46Z</time>
      </trkpt>
      <trkpt lat="42.8697" lon="0.14576">
        <ele>2283.4</ele>
        <time>2021-03-25T13:55:47Z</time>
      </trkpt>
      <trkpt lat="42.86973" lon="0.14573">
        <ele>2282.9</ele>
        <time>2021-03-25T13:55:48Z</time>
      </trkpt>
      <trkpt lat="42.86975" lon="0.14571">
        <ele>2281.9</ele>
        <time>2021-03-25T13:55:50Z</time>
      </trkpt>
      <trkpt lat="42.86976" lon="0.1457">
        <ele>2282.5</ele>
        <time>2021-03-25T13:55:51Z</time>
      </trkpt>
      <trkpt lat="42.86977" lon="0.14569">
        <ele>2282.5</ele>
        <time>2021-03-25T13:55:53Z</time>
      </trkpt>
      <trkpt lat="42.86977" lon="0.14568">
        <ele>2282.5</ele>
        <time>2021-03-25T13:55:54Z</time>
      </trkpt>
      <trkpt lat="42.86977" lon="0.14567">
        <ele>2281.4</ele>
        <time>2021-03-25T13:55:55Z</time>
      </trkpt>
      <trkpt lat="42.86977" lon="0.14567">
        <ele>2281.4</ele>
        <time>2021-03-25T13:55:56Z</time>
      </trkpt>
      <trkpt lat="42.86977" lon="0.14565">
        <ele>2283.1</ele>
        <time>2021-03-25T13:55:58Z</time>
      </trkpt>
      <trkpt lat="42.86976" lon="0.14564">
        <ele>2283.1</ele>
        <time>2021-03-25T13:55:59Z</time>
      </trkpt>
      <trkpt lat="42.86976" lon="0.14563">
        <ele>2283.1</ele>
        <time>2021-03-25T13:56:01Z</time>
      </trkpt>
      <trkpt lat="42.86975" lon="0.14561">
        <ele>2283.7</ele>
        <time>2021-03-25T13:56:03Z</time>
      </trkpt>
      <trkpt lat="42.86975" lon="0.1456">
        <ele>2283.7</ele>
        <time>2021-03-25T13:56:04Z</time>
      </trkpt>
      <trkpt lat="42.86975" lon="0.14559">
        <ele>2283.7</ele>
        <time>2021-03-25T13:56:06Z</time>
      </trkpt>
      <trkpt lat="42.86975" lon="0.14558">
        <ele>2283.7</ele>
        <time>2021-03-25T13:56:07Z</time>
      </trkpt>
      <trkpt lat="42.86974" lon="0.14556">
        <ele>2284.3</ele>
        <time>2021-03-25T13:56:09Z</time>
      </trkpt>
      <trkpt lat="42.86974" lon="0.14555">
        <ele>2284.3</ele>
        <time>2021-03-25T13:56:10Z</time>
      </trkpt>
      <trkpt lat="42.86974" lon="0.14553">
        <ele>2284.3</ele>
        <time>2021-03-25T13:56:12Z</time>
      </trkpt>
      <trkpt lat="42.86974" lon="0.14552">
        <ele>2284.9</ele>
        <time>2021-03-25T13:56:13Z</time>
      </trkpt>
      <trkpt lat="42.86974" lon="0.14551">
        <ele>2284.9</ele>
        <time>2021-03-25T13:56:14Z</time>
      </trkpt>
      <trkpt lat="42.86974" lon="0.1455">
        <ele>2284.9</ele>
        <time>2021-03-25T13:56:16Z</time>
      </trkpt>
      <trkpt lat="42.86974" lon="0.14549">
        <ele>2284.9</ele>
        <time>2021-03-25T13:56:17Z</time>
      </trkpt>
      <trkpt lat="42.86974" lon="0.14548">
        <ele>2285.5</ele>
        <time>2021-03-25T13:56:19Z</time>
      </trkpt>
      <trkpt lat="42.86975" lon="0.14547">
        <ele>2285.5</ele>
        <time>2021-03-25T13:56:20Z</time>
      </trkpt>
      <trkpt lat="42.86975" lon="0.14546">
        <ele>2285.5</ele>
        <time>2021-03-25T13:56:22Z</time>
      </trkpt>
      <trkpt lat="42.86975" lon="0.14545">
        <ele>2285.5</ele>
        <time>2021-03-25T13:56:23Z</time>
      </trkpt>
      <trkpt lat="42.86975" lon="0.14544">
        <ele>2286.1</ele>
        <time>2021-03-25T13:56:24Z</time>
      </trkpt>
      <trkpt lat="42.86975" lon="0.14543">
        <ele>2286.1</ele>
        <time>2021-03-25T13:56:25Z</time>
      </trkpt>
      <trkpt lat="42.86975" lon="0.14541">
        <ele>2286.1</ele>
        <time>2021-03-25T13:56:27Z</time>
      </trkpt>
      <trkpt lat="42.86974" lon="0.1454">
        <ele>2286.1</ele>
        <time>2021-03-25T13:56:28Z</time>
      </trkpt>
      <trkpt lat="42.86974" lon="0.1454">
        <ele>2286.6</ele>
        <time>2021-03-25T13:56:29Z</time>
      </trkpt>
      <trkpt lat="42.86974" lon="0.14539">
        <ele>2286.6</ele>
        <time>2021-03-25T13:56:30Z</time>
      </trkpt>
      <trkpt lat="42.86974" lon="0.14538">
        <ele>2287.7</ele>
        <time>2021-03-25T13:56:31Z</time>
      </trkpt>
      <trkpt lat="42.86973" lon="0.14538">
        <ele>2287.7</ele>
        <time>2021-03-25T13:56:32Z</time>
      </trkpt>
      <trkpt lat="42.86973" lon="0.14537">
        <ele>2287.7</ele>
        <time>2021-03-25T13:56:33Z</time>
      </trkpt>
      <trkpt lat="42.86972" lon="0.14537">
        <ele>2287.7</ele>
        <time>2021-03-25T13:56:35Z</time>
      </trkpt>
      <trkpt lat="42.86972" lon="0.14536">
        <ele>2287.7</ele>
        <time>2021-03-25T13:56:36Z</time>
      </trkpt>
      <trkpt lat="42.8697" lon="0.14535">
        <ele>2289.2</ele>
        <time>2021-03-25T13:56:38Z</time>
      </trkpt>
      <trkpt lat="42.8697" lon="0.14534">
        <ele>2289.2</ele>
        <time>2021-03-25T13:56:39Z</time>
      </trkpt>
      <trkpt lat="42.86969" lon="0.14533">
        <ele>2289.2</ele>
        <time>2021-03-25T13:56:41Z</time>
      </trkpt>
      <trkpt lat="42.86968" lon="0.14533">
        <ele>2289.2</ele>
        <time>2021-03-25T13:56:42Z</time>
      </trkpt>
      <trkpt lat="42.86968" lon="0.14533">
        <ele>2289.2</ele>
        <time>2021-03-25T13:56:44Z</time>
      </trkpt>
      <trkpt lat="42.86968" lon="0.14532">
        <ele>2289.2</ele>
        <time>2021-03-25T13:56:45Z</time>
      </trkpt>
      <trkpt lat="42.86968" lon="0.14532">
        <ele>2289.2</ele>
        <time>2021-03-25T13:56:46Z</time>
      </trkpt>
      <trkpt lat="42.86968" lon="0.14532">
        <ele>2289.2</ele>
        <time>2021-03-25T13:56:47Z</time>
      </trkpt>
      <trkpt lat="42.86968" lon="0.14532">
        <ele>2289.2</ele>
        <time>2021-03-25T13:56:49Z</time>
      </trkpt>
      <trkpt lat="42.86968" lon="0.14532">
        <ele>2289.2</ele>
        <time>2021-03-25T13:56:50Z</time>
      </trkpt>
      <trkpt lat="42.86968" lon="0.14532">
        <ele>2289.2</ele>
        <time>2021-03-25T13:56:51Z</time>
      </trkpt>
      <trkpt lat="42.86968" lon="0.14532">
        <ele>2289.2</ele>
        <time>2021-03-25T13:56:52Z</time>
      </trkpt>
      <trkpt lat="42.86968" lon="0.14532">
        <ele>2289.2</ele>
        <time>2021-03-25T13:56:53Z</time>
      </trkpt>
      <trkpt lat="42.86968" lon="0.14531">
        <ele>2289.2</ele>
        <time>2021-03-25T13:56:54Z</time>
      </trkpt>
      <trkpt lat="42.86968" lon="0.14531">
        <ele>2289.2</ele>
        <time>2021-03-25T13:56:56Z</time>
      </trkpt>
      <trkpt lat="42.86968" lon="0.14532">
        <ele>2289.2</ele>
        <time>2021-03-25T13:56:57Z</time>
      </trkpt>
      <trkpt lat="42.86968" lon="0.14532">
        <ele>2289.2</ele>
        <time>2021-03-25T13:56:58Z</time>
      </trkpt>
      <trkpt lat="42.86968" lon="0.14532">
        <ele>2289.2</ele>
        <time>2021-03-25T13:56:59Z</time>
      </trkpt>
      <trkpt lat="42.86968" lon="0.14532">
        <ele>2289.2</ele>
        <time>2021-03-25T13:57:00Z</time>
      </trkpt>
      <trkpt lat="42.86967" lon="0.14532">
        <ele>2289.2</ele>
        <time>2021-03-25T13:57:01Z</time>
      </trkpt>
      <trkpt lat="42.86967" lon="0.14532">
        <ele>2290.2</ele>
        <time>2021-03-25T13:57:02Z</time>
      </trkpt>
      <trkpt lat="42.86967" lon="0.14532">
        <ele>2290.2</ele>
        <time>2021-03-25T13:57:04Z</time>
      </trkpt>
      <trkpt lat="42.86966" lon="0.14531">
        <ele>2290.2</ele>
        <time>2021-03-25T13:57:05Z</time>
      </trkpt>
      <trkpt lat="42.86965" lon="0.14531">
        <ele>2290.8</ele>
        <time>2021-03-25T13:57:07Z</time>
      </trkpt>
      <trkpt lat="42.86964" lon="0.14531">
        <ele>2291.7</ele>
        <time>2021-03-25T13:57:08Z</time>
      </trkpt>
      <trkpt lat="42.86963" lon="0.14531">
        <ele>2291.7</ele>
        <time>2021-03-25T13:57:09Z</time>
      </trkpt>
      <trkpt lat="42.86962" lon="0.1453">
        <ele>2291.7</ele>
        <time>2021-03-25T13:57:11Z</time>
      </trkpt>
      <trkpt lat="42.86961" lon="0.1453">
        <ele>2291.7</ele>
        <time>2021-03-25T13:57:12Z</time>
      </trkpt>
      <trkpt lat="42.86959" lon="0.14529">
        <ele>2292.5</ele>
        <time>2021-03-25T13:57:14Z</time>
      </trkpt>
      <trkpt lat="42.86958" lon="0.14528">
        <ele>2293.3</ele>
        <time>2021-03-25T13:57:15Z</time>
      </trkpt>
      <trkpt lat="42.86956" lon="0.14526">
        <ele>2293.8</ele>
        <time>2021-03-25T13:57:17Z</time>
      </trkpt>
      <trkpt lat="42.86956" lon="0.14525">
        <ele>2293.8</ele>
        <time>2021-03-25T13:57:18Z</time>
      </trkpt>
      <trkpt lat="42.86955" lon="0.14524">
        <ele>2293.8</ele>
        <time>2021-03-25T13:57:19Z</time>
      </trkpt>
      <trkpt lat="42.86955" lon="0.14523">
        <ele>2294.5</ele>
        <time>2021-03-25T13:57:21Z</time>
      </trkpt>
      <trkpt lat="42.86955" lon="0.14523">
        <ele>2295</ele>
        <time>2021-03-25T13:57:22Z</time>
      </trkpt>
      <trkpt lat="42.86954" lon="0.14522">
        <ele>2295</ele>
        <time>2021-03-25T13:57:24Z</time>
      </trkpt>
      <trkpt lat="42.86953" lon="0.14521">
        <ele>2295</ele>
        <time>2021-03-25T13:57:26Z</time>
      </trkpt>
      <trkpt lat="42.86952" lon="0.1452">
        <ele>2295</ele>
        <time>2021-03-25T13:57:28Z</time>
      </trkpt>
      <trkpt lat="42.8695" lon="0.14517">
        <ele>2296.2</ele>
        <time>2021-03-25T13:57:30Z</time>
      </trkpt>
      <trkpt lat="42.86948" lon="0.14514">
        <ele>2297.3</ele>
        <time>2021-03-25T13:57:32Z</time>
      </trkpt>
      <trkpt lat="42.86948" lon="0.14512">
        <ele>2297.3</ele>
        <time>2021-03-25T13:57:33Z</time>
      </trkpt>
      <trkpt lat="42.86947" lon="0.14511">
        <ele>2297.3</ele>
        <time>2021-03-25T13:57:35Z</time>
      </trkpt>
      <trkpt lat="42.86947" lon="0.14511">
        <ele>2297.3</ele>
        <time>2021-03-25T13:57:36Z</time>
      </trkpt>
      <trkpt lat="42.86947" lon="0.1451">
        <ele>2297.3</ele>
        <time>2021-03-25T13:57:37Z</time>
      </trkpt>
      <trkpt lat="42.86947" lon="0.1451">
        <ele>2297.3</ele>
        <time>2021-03-25T13:57:38Z</time>
      </trkpt>
      <trkpt lat="42.86947" lon="0.14509">
        <ele>2297.8</ele>
        <time>2021-03-25T13:57:40Z</time>
      </trkpt>
      <trkpt lat="42.86947" lon="0.14508">
        <ele>2297.8</ele>
        <time>2021-03-25T13:57:41Z</time>
      </trkpt>
      <trkpt lat="42.86946" lon="0.14507">
        <ele>2297.8</ele>
        <time>2021-03-25T13:57:43Z</time>
      </trkpt>
      <trkpt lat="42.86945" lon="0.14506">
        <ele>2297.8</ele>
        <time>2021-03-25T13:57:44Z</time>
      </trkpt>
      <trkpt lat="42.86945" lon="0.14505">
        <ele>2298.9</ele>
        <time>2021-03-25T13:57:45Z</time>
      </trkpt>
      <trkpt lat="42.86945" lon="0.14504">
        <ele>2298.9</ele>
        <time>2021-03-25T13:57:46Z</time>
      </trkpt>
      <trkpt lat="42.86944" lon="0.14502">
        <ele>2298.9</ele>
        <time>2021-03-25T13:57:48Z</time>
      </trkpt>
      <trkpt lat="42.86944" lon="0.14501">
        <ele>2298.9</ele>
        <time>2021-03-25T13:57:49Z</time>
      </trkpt>
      <trkpt lat="42.86943" lon="0.145">
        <ele>2299.3</ele>
        <time>2021-03-25T13:57:51Z</time>
      </trkpt>
      <trkpt lat="42.86942" lon="0.14499">
        <ele>2299.3</ele>
        <time>2021-03-25T13:57:52Z</time>
      </trkpt>
      <trkpt lat="42.86942" lon="0.14499">
        <ele>2300</ele>
        <time>2021-03-25T13:57:54Z</time>
      </trkpt>
      <trkpt lat="42.86942" lon="0.14498">
        <ele>2300</ele>
        <time>2021-03-25T13:57:56Z</time>
      </trkpt>
      <trkpt lat="42.86942" lon="0.14498">
        <ele>2300</ele>
        <time>2021-03-25T13:57:57Z</time>
      </trkpt>
      <trkpt lat="42.86942" lon="0.14498">
        <ele>2300</ele>
        <time>2021-03-25T13:57:58Z</time>
      </trkpt>
      <trkpt lat="42.86942" lon="0.14497">
        <ele>2300</ele>
        <time>2021-03-25T13:58:00Z</time>
      </trkpt>
      <trkpt lat="42.86942" lon="0.14497">
        <ele>2300.4</ele>
        <time>2021-03-25T13:58:01Z</time>
      </trkpt>
      <trkpt lat="42.86942" lon="0.14496">
        <ele>2300.4</ele>
        <time>2021-03-25T13:58:03Z</time>
      </trkpt>
      <trkpt lat="42.86942" lon="0.14496">
        <ele>2300.4</ele>
        <time>2021-03-25T13:58:04Z</time>
      </trkpt>
      <trkpt lat="42.86942" lon="0.14496">
        <ele>2300.4</ele>
        <time>2021-03-25T13:58:05Z</time>
      </trkpt>
      <trkpt lat="42.86942" lon="0.14496">
        <ele>2300.4</ele>
        <time>2021-03-25T13:58:07Z</time>
      </trkpt>
      <trkpt lat="42.86942" lon="0.14495">
        <ele>2300.4</ele>
        <time>2021-03-25T13:58:08Z</time>
      </trkpt>
      <trkpt lat="42.86942" lon="0.14495">
        <ele>2299.7</ele>
        <time>2021-03-25T13:58:10Z</time>
      </trkpt>
      <trkpt lat="42.86943" lon="0.14494">
        <ele>2299.7</ele>
        <time>2021-03-25T13:58:12Z</time>
      </trkpt>
      <trkpt lat="42.86943" lon="0.14494">
        <ele>2299.7</ele>
        <time>2021-03-25T13:58:13Z</time>
      </trkpt>
      <trkpt lat="42.86943" lon="0.14493">
        <ele>2299.7</ele>
        <time>2021-03-25T13:58:15Z</time>
      </trkpt>
      <trkpt lat="42.86943" lon="0.14493">
        <ele>2299.7</ele>
        <time>2021-03-25T13:58:16Z</time>
      </trkpt>
      <trkpt lat="42.86943" lon="0.14492">
        <ele>2300</ele>
        <time>2021-03-25T13:58:18Z</time>
      </trkpt>
      <trkpt lat="42.86943" lon="0.14492">
        <ele>2300</ele>
        <time>2021-03-25T13:58:19Z</time>
      </trkpt>
      <trkpt lat="42.86943" lon="0.14492">
        <ele>2300</ele>
        <time>2021-03-25T13:58:21Z</time>
      </trkpt>
      <trkpt lat="42.86943" lon="0.14492">
        <ele>2300</ele>
        <time>2021-03-25T13:58:22Z</time>
      </trkpt>
      <trkpt lat="42.86943" lon="0.14491">
        <ele>2300</ele>
        <time>2021-03-25T13:58:24Z</time>
      </trkpt>
      <trkpt lat="42.86943" lon="0.14491">
        <ele>2300</ele>
        <time>2021-03-25T13:58:25Z</time>
      </trkpt>
      <trkpt lat="42.86943" lon="0.1449">
        <ele>2300</ele>
        <time>2021-03-25T13:58:27Z</time>
      </trkpt>
      <trkpt lat="42.86943" lon="0.1449">
        <ele>2300</ele>
        <time>2021-03-25T13:58:28Z</time>
      </trkpt>
      <trkpt lat="42.86942" lon="0.14489">
        <ele>2300</ele>
        <time>2021-03-25T13:58:29Z</time>
      </trkpt>
      <trkpt lat="42.86942" lon="0.14488">
        <ele>2301</ele>
        <time>2021-03-25T13:58:31Z</time>
      </trkpt>
      <trkpt lat="42.86941" lon="0.14486">
        <ele>2301</ele>
        <time>2021-03-25T13:58:33Z</time>
      </trkpt>
      <trkpt lat="42.86941" lon="0.14484">
        <ele>2301</ele>
        <time>2021-03-25T13:58:34Z</time>
      </trkpt>
      <trkpt lat="42.8694" lon="0.14482">
        <ele>2301.3</ele>
        <time>2021-03-25T13:58:36Z</time>
      </trkpt>
      <trkpt lat="42.8694" lon="0.14475">
        <ele>2301.9</ele>
        <time>2021-03-25T13:58:37Z</time>
      </trkpt>
      <trkpt lat="42.86939" lon="0.14471">
        <ele>2301.9</ele>
        <time>2021-03-25T13:58:38Z</time>
      </trkpt>
      <trkpt lat="42.86939" lon="0.14469">
        <ele>2302.2</ele>
        <time>2021-03-25T13:58:39Z</time>
      </trkpt>
      <trkpt lat="42.86939" lon="0.14466">
        <ele>2302.5</ele>
        <time>2021-03-25T13:58:41Z</time>
      </trkpt>
      <trkpt lat="42.86939" lon="0.14464">
        <ele>2302.5</ele>
        <time>2021-03-25T13:58:43Z</time>
      </trkpt>
      <trkpt lat="42.8694" lon="0.14463">
        <ele>2302.5</ele>
        <time>2021-03-25T13:58:44Z</time>
      </trkpt>
      <trkpt lat="42.8694" lon="0.14462">
        <ele>2302.8</ele>
        <time>2021-03-25T13:58:45Z</time>
      </trkpt>
      <trkpt lat="42.8694" lon="0.1446">
        <ele>2302.8</ele>
        <time>2021-03-25T13:58:46Z</time>
      </trkpt>
      <trkpt lat="42.86941" lon="0.14459">
        <ele>2302.8</ele>
        <time>2021-03-25T13:58:48Z</time>
      </trkpt>
      <trkpt lat="42.86941" lon="0.14457">
        <ele>2303</ele>
        <time>2021-03-25T13:58:50Z</time>
      </trkpt>
      <trkpt lat="42.86941" lon="0.14456">
        <ele>2303</ele>
        <time>2021-03-25T13:58:51Z</time>
      </trkpt>
      <trkpt lat="42.86942" lon="0.14454">
        <ele>2303</ele>
        <time>2021-03-25T13:58:52Z</time>
      </trkpt>
      <trkpt lat="42.86942" lon="0.14453">
        <ele>2303.2</ele>
        <time>2021-03-25T13:58:54Z</time>
      </trkpt>
      <trkpt lat="42.86942" lon="0.14452">
        <ele>2303.2</ele>
        <time>2021-03-25T13:58:55Z</time>
      </trkpt>
      <trkpt lat="42.86942" lon="0.1445">
        <ele>2303.2</ele>
        <time>2021-03-25T13:58:56Z</time>
      </trkpt>
      <trkpt lat="42.86942" lon="0.14449">
        <ele>2302.8</ele>
        <time>2021-03-25T13:58:58Z</time>
      </trkpt>
      <trkpt lat="42.86943" lon="0.14448">
        <ele>2302.8</ele>
        <time>2021-03-25T13:58:59Z</time>
      </trkpt>
      <trkpt lat="42.86943" lon="0.14447">
        <ele>2302.8</ele>
        <time>2021-03-25T13:59:01Z</time>
      </trkpt>
      <trkpt lat="42.86943" lon="0.14446">
        <ele>2302.8</ele>
        <time>2021-03-25T13:59:02Z</time>
      </trkpt>
      <trkpt lat="42.86944" lon="0.14446">
        <ele>2302.8</ele>
        <time>2021-03-25T13:59:04Z</time>
      </trkpt>
      <trkpt lat="42.86944" lon="0.14446">
        <ele>2302.8</ele>
        <time>2021-03-25T13:59:05Z</time>
      </trkpt>
      <trkpt lat="42.86944" lon="0.14445">
        <ele>2302.9</ele>
        <time>2021-03-25T13:59:07Z</time>
      </trkpt>
      <trkpt lat="42.86945" lon="0.14445">
        <ele>2302.9</ele>
        <time>2021-03-25T13:59:09Z</time>
      </trkpt>
      <trkpt lat="42.86945" lon="0.14445">
        <ele>2302.9</ele>
        <time>2021-03-25T13:59:11Z</time>
      </trkpt>
      <trkpt lat="42.86945" lon="0.14445">
        <ele>2302.3</ele>
        <time>2021-03-25T13:59:12Z</time>
      </trkpt>
      <trkpt lat="42.86946" lon="0.14445">
        <ele>2302.3</ele>
        <time>2021-03-25T13:59:13Z</time>
      </trkpt>
      <trkpt lat="42.86946" lon="0.14445">
        <ele>2302.3</ele>
        <time>2021-03-25T13:59:14Z</time>
      </trkpt>
      <trkpt lat="42.86946" lon="0.14444">
        <ele>2302.3</ele>
        <time>2021-03-25T13:59:16Z</time>
      </trkpt>
      <trkpt lat="42.86946" lon="0.14444">
        <ele>2302.3</ele>
        <time>2021-03-25T13:59:18Z</time>
      </trkpt>
      <trkpt lat="42.86946" lon="0.14443">
        <ele>2302.3</ele>
        <time>2021-03-25T13:59:19Z</time>
      </trkpt>
      <trkpt lat="42.86947" lon="0.14442">
        <ele>2302.3</ele>
        <time>2021-03-25T13:59:21Z</time>
      </trkpt>
      <trkpt lat="42.86947" lon="0.14441">
        <ele>2302.3</ele>
        <time>2021-03-25T13:59:22Z</time>
      </trkpt>
      <trkpt lat="42.86947" lon="0.1444">
        <ele>2302.5</ele>
        <time>2021-03-25T13:59:24Z</time>
      </trkpt>
      <trkpt lat="42.86947" lon="0.1444">
        <ele>2302.5</ele>
        <time>2021-03-25T13:59:26Z</time>
      </trkpt>
      <trkpt lat="42.86948" lon="0.14439">
        <ele>2302.5</ele>
        <time>2021-03-25T13:59:27Z</time>
      </trkpt>
      <trkpt lat="42.86948" lon="0.14437">
        <ele>2302.7</ele>
        <time>2021-03-25T13:59:29Z</time>
      </trkpt>
      <trkpt lat="42.86949" lon="0.14435">
        <ele>2302.1</ele>
        <time>2021-03-25T13:59:30Z</time>
      </trkpt>
      <trkpt lat="42.8695" lon="0.14433">
        <ele>2302.1</ele>
        <time>2021-03-25T13:59:31Z</time>
      </trkpt>
      <trkpt lat="42.8695" lon="0.14432">
        <ele>2302.3</ele>
        <time>2021-03-25T13:59:32Z</time>
      </trkpt>
      <trkpt lat="42.86951" lon="0.1443">
        <ele>2302.3</ele>
        <time>2021-03-25T13:59:33Z</time>
      </trkpt>
      <trkpt lat="42.86951" lon="0.14427">
        <ele>2302.4</ele>
        <time>2021-03-25T13:59:35Z</time>
      </trkpt>
      <trkpt lat="42.86952" lon="0.14425">
        <ele>2301.9</ele>
        <time>2021-03-25T13:59:36Z</time>
      </trkpt>
      <trkpt lat="42.86953" lon="0.14424">
        <ele>2302.1</ele>
        <time>2021-03-25T13:59:37Z</time>
      </trkpt>
      <trkpt lat="42.86954" lon="0.1442">
        <ele>2302.1</ele>
        <time>2021-03-25T13:59:39Z</time>
      </trkpt>
      <trkpt lat="42.86954" lon="0.14419">
        <ele>2302.2</ele>
        <time>2021-03-25T13:59:40Z</time>
      </trkpt>
      <trkpt lat="42.86955" lon="0.14416">
        <ele>2301.6</ele>
        <time>2021-03-25T13:59:41Z</time>
      </trkpt>
      <trkpt lat="42.86956" lon="0.14413">
        <ele>2301.8</ele>
        <time>2021-03-25T13:59:43Z</time>
      </trkpt>
      <trkpt lat="42.86957" lon="0.1441">
        <ele>2301.9</ele>
        <time>2021-03-25T13:59:44Z</time>
      </trkpt>
      <trkpt lat="42.86957" lon="0.14408">
        <ele>2301.9</ele>
        <time>2021-03-25T13:59:46Z</time>
      </trkpt>
      <trkpt lat="42.86957" lon="0.14406">
        <ele>2302.1</ele>
        <time>2021-03-25T13:59:47Z</time>
      </trkpt>
      <trkpt lat="42.86957" lon="0.14405">
        <ele>2302.1</ele>
        <time>2021-03-25T13:59:48Z</time>
      </trkpt>
      <trkpt lat="42.86957" lon="0.14403">
        <ele>2302.1</ele>
        <time>2021-03-25T13:59:50Z</time>
      </trkpt>
      <trkpt lat="42.86957" lon="0.14401">
        <ele>2302.2</ele>
        <time>2021-03-25T13:59:51Z</time>
      </trkpt>
      <trkpt lat="42.86957" lon="0.144">
        <ele>2302.2</ele>
        <time>2021-03-25T13:59:53Z</time>
      </trkpt>
      <trkpt lat="42.86957" lon="0.14399">
        <ele>2302.2</ele>
        <time>2021-03-25T13:59:54Z</time>
      </trkpt>
      <trkpt lat="42.86957" lon="0.14398">
        <ele>2302.2</ele>
        <time>2021-03-25T13:59:55Z</time>
      </trkpt>
      <trkpt lat="42.86958" lon="0.14398">
        <ele>2302.3</ele>
        <time>2021-03-25T13:59:56Z</time>
      </trkpt>
      <trkpt lat="42.86958" lon="0.14396">
        <ele>2302.3</ele>
        <time>2021-03-25T13:59:58Z</time>
      </trkpt>
      <trkpt lat="42.86958" lon="0.14396">
        <ele>2302.3</ele>
        <time>2021-03-25T13:59:59Z</time>
      </trkpt>
      <trkpt lat="42.86958" lon="0.14394">
        <ele>2302.3</ele>
        <time>2021-03-25T14:00:01Z</time>
      </trkpt>
      <trkpt lat="42.86958" lon="0.14393">
        <ele>2302.5</ele>
        <time>2021-03-25T14:00:02Z</time>
      </trkpt>
      <trkpt lat="42.86958" lon="0.14392">
        <ele>2302.5</ele>
        <time>2021-03-25T14:00:04Z</time>
      </trkpt>
      <trkpt lat="42.86957" lon="0.1439">
        <ele>2302.5</ele>
        <time>2021-03-25T14:00:06Z</time>
      </trkpt>
      <trkpt lat="42.86957" lon="0.14389">
        <ele>2302.6</ele>
        <time>2021-03-25T14:00:07Z</time>
      </trkpt>
      <trkpt lat="42.86957" lon="0.14388">
        <ele>2302.6</ele>
        <time>2021-03-25T14:00:08Z</time>
      </trkpt>
      <trkpt lat="42.86957" lon="0.14386">
        <ele>2302.6</ele>
        <time>2021-03-25T14:00:10Z</time>
      </trkpt>
      <trkpt lat="42.86956" lon="0.14385">
        <ele>2302.8</ele>
        <time>2021-03-25T14:00:11Z</time>
      </trkpt>
      <trkpt lat="42.86956" lon="0.14383">
        <ele>2302.8</ele>
        <time>2021-03-25T14:00:13Z</time>
      </trkpt>
      <trkpt lat="42.86955" lon="0.14382">
        <ele>2302.8</ele>
        <time>2021-03-25T14:00:14Z</time>
      </trkpt>
      <trkpt lat="42.86955" lon="0.14381">
        <ele>2303.5</ele>
        <time>2021-03-25T14:00:15Z</time>
      </trkpt>
      <trkpt lat="42.86954" lon="0.1438">
        <ele>2303.5</ele>
        <time>2021-03-25T14:00:17Z</time>
      </trkpt>
      <trkpt lat="42.86954" lon="0.14379">
        <ele>2303.5</ele>
        <time>2021-03-25T14:00:18Z</time>
      </trkpt>
      <trkpt lat="42.86953" lon="0.14376">
        <ele>2303.7</ele>
        <time>2021-03-25T14:00:19Z</time>
      </trkpt>
      <trkpt lat="42.86953" lon="0.14375">
        <ele>2303.7</ele>
        <time>2021-03-25T14:00:21Z</time>
      </trkpt>
      <trkpt lat="42.86952" lon="0.14374">
        <ele>2303.7</ele>
        <time>2021-03-25T14:00:22Z</time>
      </trkpt>
      <trkpt lat="42.86952" lon="0.14372">
        <ele>2303.7</ele>
        <time>2021-03-25T14:00:23Z</time>
      </trkpt>
      <trkpt lat="42.86952" lon="0.1437">
        <ele>2303.8</ele>
        <time>2021-03-25T14:00:25Z</time>
      </trkpt>
      <trkpt lat="42.86952" lon="0.14369">
        <ele>2303.8</ele>
        <time>2021-03-25T14:00:26Z</time>
      </trkpt>
      <trkpt lat="42.86952" lon="0.14368">
        <ele>2303.9</ele>
        <time>2021-03-25T14:00:27Z</time>
      </trkpt>
      <trkpt lat="42.86952" lon="0.14365">
        <ele>2303.9</ele>
        <time>2021-03-25T14:00:29Z</time>
      </trkpt>
      <trkpt lat="42.86952" lon="0.14363">
        <ele>2304</ele>
        <time>2021-03-25T14:00:31Z</time>
      </trkpt>
      <trkpt lat="42.86952" lon="0.14362">
        <ele>2304</ele>
        <time>2021-03-25T14:00:32Z</time>
      </trkpt>
      <trkpt lat="42.86952" lon="0.14361">
        <ele>2304</ele>
        <time>2021-03-25T14:00:33Z</time>
      </trkpt>
      <trkpt lat="42.86952" lon="0.14359">
        <ele>2304.1</ele>
        <time>2021-03-25T14:00:34Z</time>
      </trkpt>
      <trkpt lat="42.86952" lon="0.14358">
        <ele>2304.1</ele>
        <time>2021-03-25T14:00:35Z</time>
      </trkpt>
      <trkpt lat="42.86953" lon="0.14356">
        <ele>2304.1</ele>
        <time>2021-03-25T14:00:37Z</time>
      </trkpt>
      <trkpt lat="42.86953" lon="0.14354">
        <ele>2304.3</ele>
        <time>2021-03-25T14:00:38Z</time>
      </trkpt>
      <trkpt lat="42.86953" lon="0.14353">
        <ele>2304.3</ele>
        <time>2021-03-25T14:00:39Z</time>
      </trkpt>
      <trkpt lat="42.86953" lon="0.14352">
        <ele>2304.3</ele>
        <time>2021-03-25T14:00:41Z</time>
      </trkpt>
      <trkpt lat="42.86954" lon="0.14351">
        <ele>2304.3</ele>
        <time>2021-03-25T14:00:42Z</time>
      </trkpt>
      <trkpt lat="42.86954" lon="0.14351">
        <ele>2304.4</ele>
        <time>2021-03-25T14:00:43Z</time>
      </trkpt>
      <trkpt lat="42.86954" lon="0.1435">
        <ele>2304.4</ele>
        <time>2021-03-25T14:00:44Z</time>
      </trkpt>
      <trkpt lat="42.86954" lon="0.14349">
        <ele>2304.4</ele>
        <time>2021-03-25T14:00:46Z</time>
      </trkpt>
      <trkpt lat="42.86955" lon="0.14349">
        <ele>2304.4</ele>
        <time>2021-03-25T14:00:47Z</time>
      </trkpt>
      <trkpt lat="42.86955" lon="0.14348">
        <ele>2304.4</ele>
        <time>2021-03-25T14:00:49Z</time>
      </trkpt>
      <trkpt lat="42.86955" lon="0.14347">
        <ele>2303.8</ele>
        <time>2021-03-25T14:00:50Z</time>
      </trkpt>
      <trkpt lat="42.86955" lon="0.14346">
        <ele>2304</ele>
        <time>2021-03-25T14:00:52Z</time>
      </trkpt>
      <trkpt lat="42.86955" lon="0.14345">
        <ele>2304</ele>
        <time>2021-03-25T14:00:53Z</time>
      </trkpt>
      <trkpt lat="42.86956" lon="0.14344">
        <ele>2304</ele>
        <time>2021-03-25T14:00:54Z</time>
      </trkpt>
      <trkpt lat="42.86956" lon="0.14342">
        <ele>2304.2</ele>
        <time>2021-03-25T14:00:56Z</time>
      </trkpt>
      <trkpt lat="42.86956" lon="0.14341">
        <ele>2304.2</ele>
        <time>2021-03-25T14:00:57Z</time>
      </trkpt>
      <trkpt lat="42.86957" lon="0.1434">
        <ele>2304.2</ele>
        <time>2021-03-25T14:00:59Z</time>
      </trkpt>
      <trkpt lat="42.86957" lon="0.14339">
        <ele>2304.2</ele>
        <time>2021-03-25T14:01:00Z</time>
      </trkpt>
      <trkpt lat="42.86957" lon="0.14338">
        <ele>2304.4</ele>
        <time>2021-03-25T14:01:01Z</time>
      </trkpt>
      <trkpt lat="42.86957" lon="0.14336">
        <ele>2304.4</ele>
        <time>2021-03-25T14:01:03Z</time>
      </trkpt>
      <trkpt lat="42.86958" lon="0.14335">
        <ele>2304.4</ele>
        <time>2021-03-25T14:01:04Z</time>
      </trkpt>
      <trkpt lat="42.86958" lon="0.14334">
        <ele>2303.8</ele>
        <time>2021-03-25T14:01:06Z</time>
      </trkpt>
      <trkpt lat="42.86958" lon="0.14333">
        <ele>2304.1</ele>
        <time>2021-03-25T14:01:07Z</time>
      </trkpt>
      <trkpt lat="42.86959" lon="0.14332">
        <ele>2304.1</ele>
        <time>2021-03-25T14:01:09Z</time>
      </trkpt>
      <trkpt lat="42.86959" lon="0.1433">
        <ele>2304.1</ele>
        <time>2021-03-25T14:01:11Z</time>
      </trkpt>
      <trkpt lat="42.86959" lon="0.14329">
        <ele>2304.3</ele>
        <time>2021-03-25T14:01:13Z</time>
      </trkpt>
      <trkpt lat="42.86959" lon="0.14327">
        <ele>2304.3</ele>
        <time>2021-03-25T14:01:14Z</time>
      </trkpt>
      <trkpt lat="42.86959" lon="0.14325">
        <ele>2304.6</ele>
        <time>2021-03-25T14:01:16Z</time>
      </trkpt>
      <trkpt lat="42.86959" lon="0.14322">
        <ele>2304.6</ele>
        <time>2021-03-25T14:01:17Z</time>
      </trkpt>
      <trkpt lat="42.86958" lon="0.14319">
        <ele>2304.8</ele>
        <time>2021-03-25T14:01:19Z</time>
      </trkpt>
      <trkpt lat="42.86958" lon="0.14318">
        <ele>2304.8</ele>
        <time>2021-03-25T14:01:20Z</time>
      </trkpt>
      <trkpt lat="42.86958" lon="0.14315">
        <ele>2305</ele>
        <time>2021-03-25T14:01:22Z</time>
      </trkpt>
      <trkpt lat="42.86958" lon="0.14313">
        <ele>2305</ele>
        <time>2021-03-25T14:01:24Z</time>
      </trkpt>
      <trkpt lat="42.86958" lon="0.14312">
        <ele>2305.3</ele>
        <time>2021-03-25T14:01:25Z</time>
      </trkpt>
      <trkpt lat="42.86958" lon="0.14311">
        <ele>2305.3</ele>
        <time>2021-03-25T14:01:26Z</time>
      </trkpt>
      <trkpt lat="42.86958" lon="0.1431">
        <ele>2305.3</ele>
        <time>2021-03-25T14:01:27Z</time>
      </trkpt>
      <trkpt lat="42.86958" lon="0.1431">
        <ele>2305.3</ele>
        <time>2021-03-25T14:01:28Z</time>
      </trkpt>
      <trkpt lat="42.86958" lon="0.14308">
        <ele>2305.8</ele>
        <time>2021-03-25T14:01:30Z</time>
      </trkpt>
      <trkpt lat="42.86958" lon="0.14307">
        <ele>2305.5</ele>
        <time>2021-03-25T14:01:32Z</time>
      </trkpt>
      <trkpt lat="42.86958" lon="0.14307">
        <ele>2305.5</ele>
        <time>2021-03-25T14:01:33Z</time>
      </trkpt>
      <trkpt lat="42.86959" lon="0.14306">
        <ele>2305.5</ele>
        <time>2021-03-25T14:01:35Z</time>
      </trkpt>
      <trkpt lat="42.86959" lon="0.14305">
        <ele>2305.5</ele>
        <time>2021-03-25T14:01:36Z</time>
      </trkpt>
      <trkpt lat="42.86959" lon="0.14304">
        <ele>2305.8</ele>
        <time>2021-03-25T14:01:37Z</time>
      </trkpt>
      <trkpt lat="42.8696" lon="0.14302">
        <ele>2305.8</ele>
        <time>2021-03-25T14:01:39Z</time>
      </trkpt>
      <trkpt lat="42.8696" lon="0.143">
        <ele>2305.8</ele>
        <time>2021-03-25T14:01:40Z</time>
      </trkpt>
      <trkpt lat="42.8696" lon="0.14298">
        <ele>2306.1</ele>
        <time>2021-03-25T14:01:42Z</time>
      </trkpt>
      <trkpt lat="42.86961" lon="0.14296">
        <ele>2306.1</ele>
        <time>2021-03-25T14:01:44Z</time>
      </trkpt>
      <trkpt lat="42.86961" lon="0.14294">
        <ele>2306.4</ele>
        <time>2021-03-25T14:01:46Z</time>
      </trkpt>
      <trkpt lat="42.86961" lon="0.14292">
        <ele>2306.4</ele>
        <time>2021-03-25T14:01:48Z</time>
      </trkpt>
      <trkpt lat="42.8696" lon="0.1429">
        <ele>2306.7</ele>
        <time>2021-03-25T14:01:49Z</time>
      </trkpt>
      <trkpt lat="42.86959" lon="0.14288">
        <ele>2306.7</ele>
        <time>2021-03-25T14:01:51Z</time>
      </trkpt>
      <trkpt lat="42.86958" lon="0.14287">
        <ele>2306.7</ele>
        <time>2021-03-25T14:01:52Z</time>
      </trkpt>
      <trkpt lat="42.86957" lon="0.14287">
        <ele>2307.2</ele>
        <time>2021-03-25T14:01:53Z</time>
      </trkpt>
      <trkpt lat="42.86955" lon="0.14286">
        <ele>2307.6</ele>
        <time>2021-03-25T14:01:55Z</time>
      </trkpt>
      <trkpt lat="42.86954" lon="0.14285">
        <ele>2308.1</ele>
        <time>2021-03-25T14:01:56Z</time>
      </trkpt>
      <trkpt lat="42.86953" lon="0.14285">
        <ele>2308.1</ele>
        <time>2021-03-25T14:01:57Z</time>
      </trkpt>
      <trkpt lat="42.86951" lon="0.14284">
        <ele>2308.6</ele>
        <time>2021-03-25T14:01:59Z</time>
      </trkpt>
      <trkpt lat="42.8695" lon="0.14284">
        <ele>2308.6</ele>
        <time>2021-03-25T14:02:01Z</time>
      </trkpt>
      <trkpt lat="42.8695" lon="0.14283">
        <ele>2308.6</ele>
        <time>2021-03-25T14:02:02Z</time>
      </trkpt>
      <trkpt lat="42.86949" lon="0.14283">
        <ele>2308.6</ele>
        <time>2021-03-25T14:02:03Z</time>
      </trkpt>
      <trkpt lat="42.86949" lon="0.14282">
        <ele>2309.8</ele>
        <time>2021-03-25T14:02:05Z</time>
      </trkpt>
      <trkpt lat="42.86948" lon="0.14281">
        <ele>2309.8</ele>
        <time>2021-03-25T14:02:06Z</time>
      </trkpt>
      <trkpt lat="42.86946" lon="0.14279">
        <ele>2309.8</ele>
        <time>2021-03-25T14:02:08Z</time>
      </trkpt>
      <trkpt lat="42.86945" lon="0.14278">
        <ele>2310.4</ele>
        <time>2021-03-25T14:02:09Z</time>
      </trkpt>
      <trkpt lat="42.86945" lon="0.14277">
        <ele>2310.7</ele>
        <time>2021-03-25T14:02:10Z</time>
      </trkpt>
      <trkpt lat="42.86943" lon="0.14275">
        <ele>2310.7</ele>
        <time>2021-03-25T14:02:12Z</time>
      </trkpt>
      <trkpt lat="42.86943" lon="0.14273">
        <ele>2311.1</ele>
        <time>2021-03-25T14:02:13Z</time>
      </trkpt>
      <trkpt lat="42.86942" lon="0.14271">
        <ele>2311.7</ele>
        <time>2021-03-25T14:02:15Z</time>
      </trkpt>
      <trkpt lat="42.86941" lon="0.1427">
        <ele>2311.7</ele>
        <time>2021-03-25T14:02:16Z</time>
      </trkpt>
      <trkpt lat="42.8694" lon="0.14269">
        <ele>2312.1</ele>
        <time>2021-03-25T14:02:18Z</time>
      </trkpt>
      <trkpt lat="42.8694" lon="0.14268">
        <ele>2312.1</ele>
        <time>2021-03-25T14:02:19Z</time>
      </trkpt>
      <trkpt lat="42.86939" lon="0.14267">
        <ele>2312.1</ele>
        <time>2021-03-25T14:02:20Z</time>
      </trkpt>
      <trkpt lat="42.86939" lon="0.14266">
        <ele>2312.7</ele>
        <time>2021-03-25T14:02:21Z</time>
      </trkpt>
      <trkpt lat="42.86938" lon="0.14263">
        <ele>2313</ele>
        <time>2021-03-25T14:02:23Z</time>
      </trkpt>
      <trkpt lat="42.86937" lon="0.14261">
        <ele>2313</ele>
        <time>2021-03-25T14:02:24Z</time>
      </trkpt>
      <trkpt lat="42.86937" lon="0.14259">
        <ele>2313.4</ele>
        <time>2021-03-25T14:02:25Z</time>
      </trkpt>
      <trkpt lat="42.86937" lon="0.14259">
        <ele>2313.4</ele>
        <time>2021-03-25T14:02:26Z</time>
      </trkpt>
      <trkpt lat="42.86937" lon="0.14257">
        <ele>2313.4</ele>
        <time>2021-03-25T14:02:28Z</time>
      </trkpt>
      <trkpt lat="42.86937" lon="0.14257">
        <ele>2313.4</ele>
        <time>2021-03-25T14:02:29Z</time>
      </trkpt>
      <trkpt lat="42.86937" lon="0.14256">
        <ele>2313.9</ele>
        <time>2021-03-25T14:02:31Z</time>
      </trkpt>
      <trkpt lat="42.86938" lon="0.14255">
        <ele>2313.9</ele>
        <time>2021-03-25T14:02:32Z</time>
      </trkpt>
      <trkpt lat="42.86938" lon="0.14255">
        <ele>2313.9</ele>
        <time>2021-03-25T14:02:33Z</time>
      </trkpt>
      <trkpt lat="42.86938" lon="0.14254">
        <ele>2313.9</ele>
        <time>2021-03-25T14:02:35Z</time>
      </trkpt>
      <trkpt lat="42.86938" lon="0.14253">
        <ele>2313.9</ele>
        <time>2021-03-25T14:02:36Z</time>
      </trkpt>
      <trkpt lat="42.86938" lon="0.14251">
        <ele>2314.3</ele>
        <time>2021-03-25T14:02:38Z</time>
      </trkpt>
      <trkpt lat="42.86938" lon="0.1425">
        <ele>2314.3</ele>
        <time>2021-03-25T14:02:39Z</time>
      </trkpt>
      <trkpt lat="42.86938" lon="0.14249">
        <ele>2314.3</ele>
        <time>2021-03-25T14:02:40Z</time>
      </trkpt>
      <trkpt lat="42.86938" lon="0.14248">
        <ele>2314.3</ele>
        <time>2021-03-25T14:02:41Z</time>
      </trkpt>
      <trkpt lat="42.86938" lon="0.14246">
        <ele>2314.8</ele>
        <time>2021-03-25T14:02:43Z</time>
      </trkpt>
      <trkpt lat="42.86938" lon="0.14245">
        <ele>2314.8</ele>
        <time>2021-03-25T14:02:44Z</time>
      </trkpt>
      <trkpt lat="42.86938" lon="0.14244">
        <ele>2315.3</ele>
        <time>2021-03-25T14:02:45Z</time>
      </trkpt>
      <trkpt lat="42.86938" lon="0.14243">
        <ele>2315.3</ele>
        <time>2021-03-25T14:02:46Z</time>
      </trkpt>
      <trkpt lat="42.86938" lon="0.14242">
        <ele>2315.3</ele>
        <time>2021-03-25T14:02:47Z</time>
      </trkpt>
      <trkpt lat="42.86938" lon="0.1424">
        <ele>2315.3</ele>
        <time>2021-03-25T14:02:49Z</time>
      </trkpt>
      <trkpt lat="42.86938" lon="0.14239">
        <ele>2315.7</ele>
        <time>2021-03-25T14:02:50Z</time>
      </trkpt>
      <trkpt lat="42.86938" lon="0.14237">
        <ele>2315.7</ele>
        <time>2021-03-25T14:02:52Z</time>
      </trkpt>
      <trkpt lat="42.86938" lon="0.14236">
        <ele>2315.7</ele>
        <time>2021-03-25T14:02:53Z</time>
      </trkpt>
      <trkpt lat="42.86938" lon="0.14235">
        <ele>2316.2</ele>
        <time>2021-03-25T14:02:55Z</time>
      </trkpt>
      <trkpt lat="42.86938" lon="0.14234">
        <ele>2316.2</ele>
        <time>2021-03-25T14:02:56Z</time>
      </trkpt>
      <trkpt lat="42.86938" lon="0.14233">
        <ele>2316.2</ele>
        <time>2021-03-25T14:02:57Z</time>
      </trkpt>
      <trkpt lat="42.86938" lon="0.14232">
        <ele>2316.2</ele>
        <time>2021-03-25T14:02:58Z</time>
      </trkpt>
      <trkpt lat="42.86938" lon="0.1423">
        <ele>2316.6</ele>
        <time>2021-03-25T14:03:00Z</time>
      </trkpt>
      <trkpt lat="42.86938" lon="0.14229">
        <ele>2316.6</ele>
        <time>2021-03-25T14:03:02Z</time>
      </trkpt>
      <trkpt lat="42.86938" lon="0.14228">
        <ele>2316.6</ele>
        <time>2021-03-25T14:03:04Z</time>
      </trkpt>
      <trkpt lat="42.86938" lon="0.14227">
        <ele>2316.6</ele>
        <time>2021-03-25T14:03:06Z</time>
      </trkpt>
      <trkpt lat="42.86938" lon="0.14225">
        <ele>2317</ele>
        <time>2021-03-25T14:03:08Z</time>
      </trkpt>
      <trkpt lat="42.86938" lon="0.14224">
        <ele>2317</ele>
        <time>2021-03-25T14:03:09Z</time>
      </trkpt>
      <trkpt lat="42.86937" lon="0.14222">
        <ele>2317</ele>
        <time>2021-03-25T14:03:11Z</time>
      </trkpt>
      <trkpt lat="42.86937" lon="0.14221">
        <ele>2317.4</ele>
        <time>2021-03-25T14:03:12Z</time>
      </trkpt>
      <trkpt lat="42.86937" lon="0.1422">
        <ele>2317.4</ele>
        <time>2021-03-25T14:03:13Z</time>
      </trkpt>
      <trkpt lat="42.86937" lon="0.14219">
        <ele>2317.4</ele>
        <time>2021-03-25T14:03:14Z</time>
      </trkpt>
      <trkpt lat="42.86938" lon="0.14218">
        <ele>2317.8</ele>
        <time>2021-03-25T14:03:15Z</time>
      </trkpt>
      <trkpt lat="42.86938" lon="0.14216">
        <ele>2317.8</ele>
        <time>2021-03-25T14:03:17Z</time>
      </trkpt>
      <trkpt lat="42.86938" lon="0.14215">
        <ele>2317.8</ele>
        <time>2021-03-25T14:03:18Z</time>
      </trkpt>
      <trkpt lat="42.86938" lon="0.14214">
        <ele>2317.8</ele>
        <time>2021-03-25T14:03:20Z</time>
      </trkpt>
      <trkpt lat="42.86938" lon="0.14213">
        <ele>2318.2</ele>
        <time>2021-03-25T14:03:21Z</time>
      </trkpt>
      <trkpt lat="42.86939" lon="0.14212">
        <ele>2318.2</ele>
        <time>2021-03-25T14:03:22Z</time>
      </trkpt>
      <trkpt lat="42.86939" lon="0.14211">
        <ele>2318.2</ele>
        <time>2021-03-25T14:03:24Z</time>
      </trkpt>
      <trkpt lat="42.86939" lon="0.1421">
        <ele>2317.6</ele>
        <time>2021-03-25T14:03:25Z</time>
      </trkpt>
      <trkpt lat="42.86939" lon="0.14209">
        <ele>2318</ele>
        <time>2021-03-25T14:03:27Z</time>
      </trkpt>
      <trkpt lat="42.8694" lon="0.14208">
        <ele>2318</ele>
        <time>2021-03-25T14:03:28Z</time>
      </trkpt>
      <trkpt lat="42.8694" lon="0.14207">
        <ele>2318</ele>
        <time>2021-03-25T14:03:29Z</time>
      </trkpt>
      <trkpt lat="42.8694" lon="0.14206">
        <ele>2318</ele>
        <time>2021-03-25T14:03:30Z</time>
      </trkpt>
      <trkpt lat="42.8694" lon="0.14206">
        <ele>2318</ele>
        <time>2021-03-25T14:03:31Z</time>
      </trkpt>
      <trkpt lat="42.86941" lon="0.14204">
        <ele>2318.4</ele>
        <time>2021-03-25T14:03:33Z</time>
      </trkpt>
      <trkpt lat="42.86941" lon="0.14204">
        <ele>2318.4</ele>
        <time>2021-03-25T14:03:34Z</time>
      </trkpt>
      <trkpt lat="42.86941" lon="0.14203">
        <ele>2318.4</ele>
        <time>2021-03-25T14:03:35Z</time>
      </trkpt>
      <trkpt lat="42.86941" lon="0.14202">
        <ele>2318.4</ele>
        <time>2021-03-25T14:03:37Z</time>
      </trkpt>
      <trkpt lat="42.86941" lon="0.14201">
        <ele>2318.4</ele>
        <time>2021-03-25T14:03:38Z</time>
      </trkpt>
      <trkpt lat="42.86941" lon="0.142">
        <ele>2318.8</ele>
        <time>2021-03-25T14:03:39Z</time>
      </trkpt>
      <trkpt lat="42.86942" lon="0.14198">
        <ele>2318.8</ele>
        <time>2021-03-25T14:03:41Z</time>
      </trkpt>
      <trkpt lat="42.86942" lon="0.14198">
        <ele>2318.8</ele>
        <time>2021-03-25T14:03:42Z</time>
      </trkpt>
      <trkpt lat="42.86941" lon="0.14196">
        <ele>2319.2</ele>
        <time>2021-03-25T14:03:43Z</time>
      </trkpt>
      <trkpt lat="42.86941" lon="0.14195">
        <ele>2319.2</ele>
        <time>2021-03-25T14:03:45Z</time>
      </trkpt>
      <trkpt lat="42.86941" lon="0.14193">
        <ele>2319.2</ele>
        <time>2021-03-25T14:03:46Z</time>
      </trkpt>
      <trkpt lat="42.86941" lon="0.14192">
        <ele>2319.6</ele>
        <time>2021-03-25T14:03:48Z</time>
      </trkpt>
      <trkpt lat="42.86942" lon="0.1419">
        <ele>2319.6</ele>
        <time>2021-03-25T14:03:49Z</time>
      </trkpt>
      <trkpt lat="42.86942" lon="0.14189">
        <ele>2319.6</ele>
        <time>2021-03-25T14:03:51Z</time>
      </trkpt>
      <trkpt lat="42.86942" lon="0.14187">
        <ele>2320</ele>
        <time>2021-03-25T14:03:52Z</time>
      </trkpt>
      <trkpt lat="42.86942" lon="0.14187">
        <ele>2320</ele>
        <time>2021-03-25T14:03:53Z</time>
      </trkpt>
      <trkpt lat="42.86942" lon="0.14185">
        <ele>2320</ele>
        <time>2021-03-25T14:03:55Z</time>
      </trkpt>
      <trkpt lat="42.86942" lon="0.14184">
        <ele>2320</ele>
        <time>2021-03-25T14:03:56Z</time>
      </trkpt>
      <trkpt lat="42.86942" lon="0.14182">
        <ele>2320.3</ele>
        <time>2021-03-25T14:03:58Z</time>
      </trkpt>
      <trkpt lat="42.86942" lon="0.14181">
        <ele>2319.7</ele>
        <time>2021-03-25T14:03:59Z</time>
      </trkpt>
      <trkpt lat="42.86943" lon="0.14178">
        <ele>2320</ele>
        <time>2021-03-25T14:04:01Z</time>
      </trkpt>
      <trkpt lat="42.86943" lon="0.14177">
        <ele>2320</ele>
        <time>2021-03-25T14:04:02Z</time>
      </trkpt>
      <trkpt lat="42.86944" lon="0.14175">
        <ele>2320.3</ele>
        <time>2021-03-25T14:04:04Z</time>
      </trkpt>
      <trkpt lat="42.86944" lon="0.14173">
        <ele>2320.3</ele>
        <time>2021-03-25T14:04:06Z</time>
      </trkpt>
      <trkpt lat="42.86945" lon="0.14172">
        <ele>2320.3</ele>
        <time>2021-03-25T14:04:08Z</time>
      </trkpt>
      <trkpt lat="42.86945" lon="0.14171">
        <ele>2320.3</ele>
        <time>2021-03-25T14:04:09Z</time>
      </trkpt>
      <trkpt lat="42.86945" lon="0.1417">
        <ele>2320.7</ele>
        <time>2021-03-25T14:04:10Z</time>
      </trkpt>
      <trkpt lat="42.86945" lon="0.14169">
        <ele>2320.7</ele>
        <time>2021-03-25T14:04:11Z</time>
      </trkpt>
      <trkpt lat="42.86946" lon="0.14168">
        <ele>2320.1</ele>
        <time>2021-03-25T14:04:12Z</time>
      </trkpt>
      <trkpt lat="42.86946" lon="0.14167">
        <ele>2320.1</ele>
        <time>2021-03-25T14:04:14Z</time>
      </trkpt>
      <trkpt lat="42.86946" lon="0.14166">
        <ele>2320.4</ele>
        <time>2021-03-25T14:04:15Z</time>
      </trkpt>
      <trkpt lat="42.86946" lon="0.14164">
        <ele>2320.4</ele>
        <time>2021-03-25T14:04:17Z</time>
      </trkpt>
      <trkpt lat="42.86946" lon="0.14163">
        <ele>2320.4</ele>
        <time>2021-03-25T14:04:18Z</time>
      </trkpt>
      <trkpt lat="42.86946" lon="0.14162">
        <ele>2320.8</ele>
        <time>2021-03-25T14:04:19Z</time>
      </trkpt>
      <trkpt lat="42.86946" lon="0.14161">
        <ele>2320.8</ele>
        <time>2021-03-25T14:04:20Z</time>
      </trkpt>
      <trkpt lat="42.86946" lon="0.14159">
        <ele>2320.8</ele>
        <time>2021-03-25T14:04:22Z</time>
      </trkpt>
      <trkpt lat="42.86945" lon="0.14157">
        <ele>2321.6</ele>
        <time>2021-03-25T14:04:24Z</time>
      </trkpt>
      <trkpt lat="42.86944" lon="0.14154">
        <ele>2321.6</ele>
        <time>2021-03-25T14:04:25Z</time>
      </trkpt>
      <trkpt lat="42.86943" lon="0.14153">
        <ele>2321.8</ele>
        <time>2021-03-25T14:04:27Z</time>
      </trkpt>
      <trkpt lat="42.86942" lon="0.14151">
        <ele>2322.3</ele>
        <time>2021-03-25T14:04:28Z</time>
      </trkpt>
      <trkpt lat="42.86941" lon="0.1415">
        <ele>2322.3</ele>
        <time>2021-03-25T14:04:30Z</time>
      </trkpt>
      <trkpt lat="42.86941" lon="0.1415">
        <ele>2322.3</ele>
        <time>2021-03-25T14:04:31Z</time>
      </trkpt>
      <trkpt lat="42.86941" lon="0.14149">
        <ele>2322.6</ele>
        <time>2021-03-25T14:04:33Z</time>
      </trkpt>
      <trkpt lat="42.86941" lon="0.14148">
        <ele>2322.6</ele>
        <time>2021-03-25T14:04:34Z</time>
      </trkpt>
      <trkpt lat="42.8694" lon="0.14148">
        <ele>2322.6</ele>
        <time>2021-03-25T14:04:35Z</time>
      </trkpt>
      <trkpt lat="42.8694" lon="0.14148">
        <ele>2322.6</ele>
        <time>2021-03-25T14:04:36Z</time>
      </trkpt>
      <trkpt lat="42.8694" lon="0.14148">
        <ele>2322.6</ele>
        <time>2021-03-25T14:04:37Z</time>
      </trkpt>
      <trkpt lat="42.86941" lon="0.14148">
        <ele>2322.6</ele>
        <time>2021-03-25T14:04:38Z</time>
      </trkpt>
      <trkpt lat="42.86941" lon="0.14148">
        <ele>2322.6</ele>
        <time>2021-03-25T14:04:39Z</time>
      </trkpt>
      <trkpt lat="42.86941" lon="0.14147">
        <ele>2322.6</ele>
        <time>2021-03-25T14:04:41Z</time>
      </trkpt>
      <trkpt lat="42.86942" lon="0.14147">
        <ele>2322.6</ele>
        <time>2021-03-25T14:04:42Z</time>
      </trkpt>
      <trkpt lat="42.86942" lon="0.14146">
        <ele>2322.6</ele>
        <time>2021-03-25T14:04:44Z</time>
      </trkpt>
      <trkpt lat="42.86942" lon="0.14146">
        <ele>2322.6</ele>
        <time>2021-03-25T14:04:46Z</time>
      </trkpt>
      <trkpt lat="42.86942" lon="0.14145">
        <ele>2322.6</ele>
        <time>2021-03-25T14:04:47Z</time>
      </trkpt>
      <trkpt lat="42.86942" lon="0.14144">
        <ele>2322.3</ele>
        <time>2021-03-25T14:04:48Z</time>
      </trkpt>
      <trkpt lat="42.86943" lon="0.14143">
        <ele>2322.3</ele>
        <time>2021-03-25T14:04:50Z</time>
      </trkpt>
      <trkpt lat="42.86943" lon="0.14143">
        <ele>2322.3</ele>
        <time>2021-03-25T14:04:51Z</time>
      </trkpt>
      <trkpt lat="42.86943" lon="0.14142">
        <ele>2322.3</ele>
        <time>2021-03-25T14:04:53Z</time>
      </trkpt>
      <trkpt lat="42.86943" lon="0.14141">
        <ele>2322.6</ele>
        <time>2021-03-25T14:04:55Z</time>
      </trkpt>
      <trkpt lat="42.86943" lon="0.1414">
        <ele>2322.6</ele>
        <time>2021-03-25T14:04:56Z</time>
      </trkpt>
      <trkpt lat="42.86943" lon="0.14139">
        <ele>2322.6</ele>
        <time>2021-03-25T14:04:57Z</time>
      </trkpt>
      <trkpt lat="42.86943" lon="0.14137">
        <ele>2322.6</ele>
        <time>2021-03-25T14:04:58Z</time>
      </trkpt>
      <trkpt lat="42.86942" lon="0.14136">
        <ele>2322.7</ele>
        <time>2021-03-25T14:04:59Z</time>
      </trkpt>
      <trkpt lat="42.86942" lon="0.14135">
        <ele>2323.2</ele>
        <time>2021-03-25T14:05:00Z</time>
      </trkpt>
      <trkpt lat="42.86942" lon="0.14133">
        <ele>2323.2</ele>
        <time>2021-03-25T14:05:02Z</time>
      </trkpt>
      <trkpt lat="42.86942" lon="0.14132">
        <ele>2323.4</ele>
        <time>2021-03-25T14:05:03Z</time>
      </trkpt>
      <trkpt lat="42.86941" lon="0.1413">
        <ele>2323.4</ele>
        <time>2021-03-25T14:05:04Z</time>
      </trkpt>
      <trkpt lat="42.86941" lon="0.14128">
        <ele>2323.4</ele>
        <time>2021-03-25T14:05:05Z</time>
      </trkpt>
      <trkpt lat="42.86941" lon="0.14126">
        <ele>2323.5</ele>
        <time>2021-03-25T14:05:07Z</time>
      </trkpt>
      <trkpt lat="42.86941" lon="0.14125">
        <ele>2323.5</ele>
        <time>2021-03-25T14:05:08Z</time>
      </trkpt>
      <trkpt lat="42.8694" lon="0.14123">
        <ele>2323.7</ele>
        <time>2021-03-25T14:05:10Z</time>
      </trkpt>
      <trkpt lat="42.8694" lon="0.14119">
        <ele>2323.7</ele>
        <time>2021-03-25T14:05:12Z</time>
      </trkpt>
      <trkpt lat="42.86939" lon="0.14118">
        <ele>2323.7</ele>
        <time>2021-03-25T14:05:13Z</time>
      </trkpt>
      <trkpt lat="42.86939" lon="0.14117">
        <ele>2323.7</ele>
        <time>2021-03-25T14:05:14Z</time>
      </trkpt>
      <trkpt lat="42.86939" lon="0.14114">
        <ele>2324.3</ele>
        <time>2021-03-25T14:05:16Z</time>
      </trkpt>
      <trkpt lat="42.86938" lon="0.14112">
        <ele>2324.3</ele>
        <time>2021-03-25T14:05:17Z</time>
      </trkpt>
      <trkpt lat="42.86938" lon="0.1411">
        <ele>2324.3</ele>
        <time>2021-03-25T14:05:19Z</time>
      </trkpt>
      <trkpt lat="42.86938" lon="0.14108">
        <ele>2324.3</ele>
        <time>2021-03-25T14:05:20Z</time>
      </trkpt>
      <trkpt lat="42.86938" lon="0.14106">
        <ele>2324.3</ele>
        <time>2021-03-25T14:05:22Z</time>
      </trkpt>
      <trkpt lat="42.86938" lon="0.14105">
        <ele>2324.4</ele>
        <time>2021-03-25T14:05:23Z</time>
      </trkpt>
      <trkpt lat="42.86938" lon="0.14103">
        <ele>2324.4</ele>
        <time>2021-03-25T14:05:25Z</time>
      </trkpt>
      <trkpt lat="42.86938" lon="0.14101">
        <ele>2324.4</ele>
        <time>2021-03-25T14:05:26Z</time>
      </trkpt>
      <trkpt lat="42.86938" lon="0.14099">
        <ele>2324.4</ele>
        <time>2021-03-25T14:05:28Z</time>
      </trkpt>
      <trkpt lat="42.86938" lon="0.14097">
        <ele>2324.3</ele>
        <time>2021-03-25T14:05:29Z</time>
      </trkpt>
      <trkpt lat="42.8694" lon="0.14093">
        <ele>2323.9</ele>
        <time>2021-03-25T14:05:31Z</time>
      </trkpt>
      <trkpt lat="42.8694" lon="0.14092">
        <ele>2323.8</ele>
        <time>2021-03-25T14:05:32Z</time>
      </trkpt>
      <trkpt lat="42.86941" lon="0.1409">
        <ele>2323.8</ele>
        <time>2021-03-25T14:05:34Z</time>
      </trkpt>
      <trkpt lat="42.86942" lon="0.14089">
        <ele>2323.3</ele>
        <time>2021-03-25T14:05:35Z</time>
      </trkpt>
      <trkpt lat="42.86944" lon="0.14088">
        <ele>2323.3</ele>
        <time>2021-03-25T14:05:37Z</time>
      </trkpt>
      <trkpt lat="42.86945" lon="0.14087">
        <ele>2323.3</ele>
        <time>2021-03-25T14:05:39Z</time>
      </trkpt>
      <trkpt lat="42.86946" lon="0.14085">
        <ele>2322.8</ele>
        <time>2021-03-25T14:05:41Z</time>
      </trkpt>
      <trkpt lat="42.86947" lon="0.14084">
        <ele>2322.8</ele>
        <time>2021-03-25T14:05:42Z</time>
      </trkpt>
      <trkpt lat="42.86947" lon="0.14082">
        <ele>2322.8</ele>
        <time>2021-03-25T14:05:44Z</time>
      </trkpt>
      <trkpt lat="42.86948" lon="0.14081">
        <ele>2322.8</ele>
        <time>2021-03-25T14:05:45Z</time>
      </trkpt>
      <trkpt lat="42.86949" lon="0.1408">
        <ele>2322.3</ele>
        <time>2021-03-25T14:05:46Z</time>
      </trkpt>
      <trkpt lat="42.86949" lon="0.14079">
        <ele>2322.3</ele>
        <time>2021-03-25T14:05:48Z</time>
      </trkpt>
      <trkpt lat="42.8695" lon="0.14077">
        <ele>2322.3</ele>
        <time>2021-03-25T14:05:49Z</time>
      </trkpt>
      <trkpt lat="42.86951" lon="0.14076">
        <ele>2322.3</ele>
        <time>2021-03-25T14:05:51Z</time>
      </trkpt>
      <trkpt lat="42.86951" lon="0.14075">
        <ele>2322.2</ele>
        <time>2021-03-25T14:05:52Z</time>
      </trkpt>
      <trkpt lat="42.86952" lon="0.14074">
        <ele>2321.8</ele>
        <time>2021-03-25T14:05:54Z</time>
      </trkpt>
      <trkpt lat="42.86952" lon="0.14072">
        <ele>2321.8</ele>
        <time>2021-03-25T14:05:55Z</time>
      </trkpt>
      <trkpt lat="42.86953" lon="0.14071">
        <ele>2321.8</ele>
        <time>2021-03-25T14:05:57Z</time>
      </trkpt>
      <trkpt lat="42.86954" lon="0.1407">
        <ele>2321.8</ele>
        <time>2021-03-25T14:05:58Z</time>
      </trkpt>
      <trkpt lat="42.86956" lon="0.14068">
        <ele>2321.3</ele>
        <time>2021-03-25T14:06:00Z</time>
      </trkpt>
      <trkpt lat="42.86957" lon="0.14067">
        <ele>2321.3</ele>
        <time>2021-03-25T14:06:02Z</time>
      </trkpt>
      <trkpt lat="42.86958" lon="0.14065">
        <ele>2321.3</ele>
        <time>2021-03-25T14:06:04Z</time>
      </trkpt>
      <trkpt lat="42.86958" lon="0.14064">
        <ele>2320.8</ele>
        <time>2021-03-25T14:06:05Z</time>
      </trkpt>
      <trkpt lat="42.86959" lon="0.14063">
        <ele>2320.8</ele>
        <time>2021-03-25T14:06:06Z</time>
      </trkpt>
      <trkpt lat="42.86959" lon="0.14062">
        <ele>2320.8</ele>
        <time>2021-03-25T14:06:08Z</time>
      </trkpt>
      <trkpt lat="42.8696" lon="0.14061">
        <ele>2320.8</ele>
        <time>2021-03-25T14:06:09Z</time>
      </trkpt>
      <trkpt lat="42.86961" lon="0.14061">
        <ele>2320.8</ele>
        <time>2021-03-25T14:06:11Z</time>
      </trkpt>
      <trkpt lat="42.86961" lon="0.1406">
        <ele>2320.3</ele>
        <time>2021-03-25T14:06:12Z</time>
      </trkpt>
      <trkpt lat="42.86962" lon="0.1406">
        <ele>2320.3</ele>
        <time>2021-03-25T14:06:13Z</time>
      </trkpt>
      <trkpt lat="42.86962" lon="0.14059">
        <ele>2320.3</ele>
        <time>2021-03-25T14:06:15Z</time>
      </trkpt>
      <trkpt lat="42.86963" lon="0.14058">
        <ele>2320.3</ele>
        <time>2021-03-25T14:06:17Z</time>
      </trkpt>
      <trkpt lat="42.86963" lon="0.14058">
        <ele>2320.3</ele>
        <time>2021-03-25T14:06:18Z</time>
      </trkpt>
      <trkpt lat="42.86963" lon="0.14057">
        <ele>2320.3</ele>
        <time>2021-03-25T14:06:20Z</time>
      </trkpt>
      <trkpt lat="42.86964" lon="0.14056">
        <ele>2320.3</ele>
        <time>2021-03-25T14:06:22Z</time>
      </trkpt>
      <trkpt lat="42.86964" lon="0.14056">
        <ele>2320.3</ele>
        <time>2021-03-25T14:06:23Z</time>
      </trkpt>
      <trkpt lat="42.86964" lon="0.14056">
        <ele>2320.3</ele>
        <time>2021-03-25T14:06:24Z</time>
      </trkpt>
      <trkpt lat="42.86964" lon="0.14056">
        <ele>2320.3</ele>
        <time>2021-03-25T14:06:25Z</time>
      </trkpt>
      <trkpt lat="42.86964" lon="0.14055">
        <ele>2320.3</ele>
        <time>2021-03-25T14:06:26Z</time>
      </trkpt>
      <trkpt lat="42.86964" lon="0.14055">
        <ele>2320.3</ele>
        <time>2021-03-25T14:06:28Z</time>
      </trkpt>
      <trkpt lat="42.86964" lon="0.14055">
        <ele>2320.3</ele>
        <time>2021-03-25T14:06:29Z</time>
      </trkpt>
      <trkpt lat="42.86964" lon="0.14055">
        <ele>2320.3</ele>
        <time>2021-03-25T14:06:30Z</time>
      </trkpt>
      <trkpt lat="42.86964" lon="0.14055">
        <ele>2320.3</ele>
        <time>2021-03-25T14:06:31Z</time>
      </trkpt>
      <trkpt lat="42.86964" lon="0.14055">
        <ele>2319.7</ele>
        <time>2021-03-25T14:06:33Z</time>
      </trkpt>
      <trkpt lat="42.86965" lon="0.14055">
        <ele>2319.7</ele>
        <time>2021-03-25T14:06:34Z</time>
      </trkpt>
      <trkpt lat="42.86965" lon="0.14055">
        <ele>2319.7</ele>
        <time>2021-03-25T14:06:36Z</time>
      </trkpt>
      <trkpt lat="42.86965" lon="0.14055">
        <ele>2319.7</ele>
        <time>2021-03-25T14:06:37Z</time>
      </trkpt>
      <trkpt lat="42.86965" lon="0.14055">
        <ele>2319.7</ele>
        <time>2021-03-25T14:06:39Z</time>
      </trkpt>
      <trkpt lat="42.86965" lon="0.14055">
        <ele>2319.7</ele>
        <time>2021-03-25T14:06:41Z</time>
      </trkpt>
      <trkpt lat="42.86966" lon="0.14055">
        <ele>2319.7</ele>
        <time>2021-03-25T14:06:42Z</time>
      </trkpt>
      <trkpt lat="42.86966" lon="0.14055">
        <ele>2319.7</ele>
        <time>2021-03-25T14:06:43Z</time>
      </trkpt>
      <trkpt lat="42.86966" lon="0.14055">
        <ele>2319.7</ele>
        <time>2021-03-25T14:06:44Z</time>
      </trkpt>
      <trkpt lat="42.86966" lon="0.14055">
        <ele>2319.7</ele>
        <time>2021-03-25T14:06:46Z</time>
      </trkpt>
      <trkpt lat="42.86966" lon="0.14056">
        <ele>2319.7</ele>
        <time>2021-03-25T14:06:47Z</time>
      </trkpt>
      <trkpt lat="42.86966" lon="0.14056">
        <ele>2319.7</ele>
        <time>2021-03-25T14:06:49Z</time>
      </trkpt>
      <trkpt lat="42.86966" lon="0.14056">
        <ele>2319.7</ele>
        <time>2021-03-25T14:06:50Z</time>
      </trkpt>
      <trkpt lat="42.86966" lon="0.14056">
        <ele>2319.7</ele>
        <time>2021-03-25T14:06:52Z</time>
      </trkpt>
      <trkpt lat="42.86966" lon="0.14056">
        <ele>2319.7</ele>
        <time>2021-03-25T14:06:53Z</time>
      </trkpt>
      <trkpt lat="42.86966" lon="0.14056">
        <ele>2319.7</ele>
        <time>2021-03-25T14:06:55Z</time>
      </trkpt>
      <trkpt lat="42.86966" lon="0.14056">
        <ele>2319.7</ele>
        <time>2021-03-25T14:06:57Z</time>
      </trkpt>
      <trkpt lat="42.86966" lon="0.14057">
        <ele>2319.7</ele>
        <time>2021-03-25T14:06:59Z</time>
      </trkpt>
      <trkpt lat="42.86966" lon="0.14057">
        <ele>2319.7</ele>
        <time>2021-03-25T14:07:01Z</time>
      </trkpt>
      <trkpt lat="42.86966" lon="0.14057">
        <ele>2319.7</ele>
        <time>2021-03-25T14:07:03Z</time>
      </trkpt>
      <trkpt lat="42.86966" lon="0.14057">
        <ele>2319.7</ele>
        <time>2021-03-25T14:07:04Z</time>
      </trkpt>
      <trkpt lat="42.86966" lon="0.14057">
        <ele>2319.7</ele>
        <time>2021-03-25T14:07:06Z</time>
      </trkpt>
      <trkpt lat="42.86966" lon="0.14057">
        <ele>2319.7</ele>
        <time>2021-03-25T14:07:07Z</time>
      </trkpt>
      <trkpt lat="42.86966" lon="0.14057">
        <ele>2319.7</ele>
        <time>2021-03-25T14:07:09Z</time>
      </trkpt>
      <trkpt lat="42.86965" lon="0.14056">
        <ele>2319.7</ele>
        <time>2021-03-25T14:07:11Z</time>
      </trkpt>
      <trkpt lat="42.86965" lon="0.14057">
        <ele>2319.7</ele>
        <time>2021-03-25T14:07:12Z</time>
      </trkpt>
      <trkpt lat="42.86965" lon="0.14057">
        <ele>2319.7</ele>
        <time>2021-03-25T14:07:13Z</time>
      </trkpt>
      <trkpt lat="42.86965" lon="0.14057">
        <ele>2319.7</ele>
        <time>2021-03-25T14:07:14Z</time>
      </trkpt>
      <trkpt lat="42.86965" lon="0.14057">
        <ele>2319.7</ele>
        <time>2021-03-25T14:07:16Z</time>
      </trkpt>
      <trkpt lat="42.86965" lon="0.14057">
        <ele>2319.7</ele>
        <time>2021-03-25T14:07:17Z</time>
      </trkpt>
      <trkpt lat="42.86965" lon="0.14057">
        <ele>2319.7</ele>
        <time>2021-03-25T14:07:19Z</time>
      </trkpt>
      <trkpt lat="42.86965" lon="0.14057">
        <ele>2319.7</ele>
        <time>2021-03-25T14:07:21Z</time>
      </trkpt>
      <trkpt lat="42.86965" lon="0.14057">
        <ele>2319.7</ele>
        <time>2021-03-25T14:07:22Z</time>
      </trkpt>
      <trkpt lat="42.86965" lon="0.14057">
        <ele>2319.7</ele>
        <time>2021-03-25T14:07:23Z</time>
      </trkpt>
      <trkpt lat="42.86965" lon="0.14057">
        <ele>2319.7</ele>
        <time>2021-03-25T14:07:24Z</time>
      </trkpt>
      <trkpt lat="42.86965" lon="0.14057">
        <ele>2319.7</ele>
        <time>2021-03-25T14:07:26Z</time>
      </trkpt>
      <trkpt lat="42.86965" lon="0.14057">
        <ele>2319.7</ele>
        <time>2021-03-25T14:07:27Z</time>
      </trkpt>
      <trkpt lat="42.86965" lon="0.14057">
        <ele>2319.7</ele>
        <time>2021-03-25T14:07:28Z</time>
      </trkpt>
      <trkpt lat="42.86965" lon="0.14057">
        <ele>2319.7</ele>
        <time>2021-03-25T14:07:30Z</time>
      </trkpt>
      <trkpt lat="42.86965" lon="0.14057">
        <ele>2319.7</ele>
        <time>2021-03-25T14:07:31Z</time>
      </trkpt>
      <trkpt lat="42.86966" lon="0.14056">
        <ele>2319.7</ele>
        <time>2021-03-25T14:07:32Z</time>
      </trkpt>
      <trkpt lat="42.86967" lon="0.14055">
        <ele>2319.7</ele>
        <time>2021-03-25T14:07:34Z</time>
      </trkpt>
      <trkpt lat="42.86966" lon="0.14053">
        <ele>2319.7</ele>
        <time>2021-03-25T14:07:35Z</time>
      </trkpt>
      <trkpt lat="42.86965" lon="0.14053">
        <ele>2319.7</ele>
        <time>2021-03-25T14:07:36Z</time>
      </trkpt>
      <trkpt lat="42.86964" lon="0.14053">
        <ele>2319.7</ele>
        <time>2021-03-25T14:07:38Z</time>
      </trkpt>
      <trkpt lat="42.86964" lon="0.14053">
        <ele>2319.7</ele>
        <time>2021-03-25T14:07:39Z</time>
      </trkpt>
      <trkpt lat="42.86964" lon="0.14054">
        <ele>2320.3</ele>
        <time>2021-03-25T14:07:41Z</time>
      </trkpt>
      <trkpt lat="42.86965" lon="0.14054">
        <ele>2319.7</ele>
        <time>2021-03-25T14:07:42Z</time>
      </trkpt>
      <trkpt lat="42.86965" lon="0.14054">
        <ele>2319.7</ele>
        <time>2021-03-25T14:07:43Z</time>
      </trkpt>
      <trkpt lat="42.86965" lon="0.14054">
        <ele>2319.7</ele>
        <time>2021-03-25T14:07:44Z</time>
      </trkpt>
      <trkpt lat="42.86964" lon="0.14055">
        <ele>2320.3</ele>
        <time>2021-03-25T14:07:46Z</time>
      </trkpt>
      <trkpt lat="42.86964" lon="0.14055">
        <ele>2320.3</ele>
        <time>2021-03-25T14:07:47Z</time>
      </trkpt>
      <trkpt lat="42.86964" lon="0.14055">
        <ele>2320.3</ele>
        <time>2021-03-25T14:07:48Z</time>
      </trkpt>
      <trkpt lat="42.86963" lon="0.14056">
        <ele>2320.3</ele>
        <time>2021-03-25T14:07:50Z</time>
      </trkpt>
      <trkpt lat="42.86962" lon="0.14056">
        <ele>2320.3</ele>
        <time>2021-03-25T14:07:51Z</time>
      </trkpt>
      <trkpt lat="42.86962" lon="0.14056">
        <ele>2320.3</ele>
        <time>2021-03-25T14:07:52Z</time>
      </trkpt>
      <trkpt lat="42.86962" lon="0.14057">
        <ele>2320.3</ele>
        <time>2021-03-25T14:07:54Z</time>
      </trkpt>
      <trkpt lat="42.86962" lon="0.14057">
        <ele>2320.3</ele>
        <time>2021-03-25T14:07:56Z</time>
      </trkpt>
      <trkpt lat="42.86961" lon="0.14057">
        <ele>2320.3</ele>
        <time>2021-03-25T14:07:57Z</time>
      </trkpt>
      <trkpt lat="42.86961" lon="0.14056">
        <ele>2320.3</ele>
        <time>2021-03-25T14:07:59Z</time>
      </trkpt>
      <trkpt lat="42.86962" lon="0.14056">
        <ele>2320.3</ele>
        <time>2021-03-25T14:08:00Z</time>
      </trkpt>
      <trkpt lat="42.86962" lon="0.14056">
        <ele>2320.3</ele>
        <time>2021-03-25T14:08:01Z</time>
      </trkpt>
      <trkpt lat="42.86962" lon="0.14056">
        <ele>2320.3</ele>
        <time>2021-03-25T14:08:02Z</time>
      </trkpt>
      <trkpt lat="42.86961" lon="0.14056">
        <ele>2320.3</ele>
        <time>2021-03-25T14:08:04Z</time>
      </trkpt>
      <trkpt lat="42.86962" lon="0.14057">
        <ele>2320.3</ele>
        <time>2021-03-25T14:08:06Z</time>
      </trkpt>
      <trkpt lat="42.86962" lon="0.14057">
        <ele>2320.3</ele>
        <time>2021-03-25T14:08:08Z</time>
      </trkpt>
      <trkpt lat="42.86962" lon="0.14056">
        <ele>2320.3</ele>
        <time>2021-03-25T14:08:09Z</time>
      </trkpt>
      <trkpt lat="42.86962" lon="0.14056">
        <ele>2320.3</ele>
        <time>2021-03-25T14:08:11Z</time>
      </trkpt>
      <trkpt lat="42.86962" lon="0.14056">
        <ele>2320.3</ele>
        <time>2021-03-25T14:08:13Z</time>
      </trkpt>
      <trkpt lat="42.86963" lon="0.14057">
        <ele>2320.3</ele>
        <time>2021-03-25T14:08:14Z</time>
      </trkpt>
      <trkpt lat="42.86963" lon="0.14057">
        <ele>2320.3</ele>
        <time>2021-03-25T14:08:15Z</time>
      </trkpt>
      <trkpt lat="42.86964" lon="0.14058">
        <ele>2320.3</ele>
        <time>2021-03-25T14:08:17Z</time>
      </trkpt>
      <trkpt lat="42.86964" lon="0.14057">
        <ele>2320.3</ele>
        <time>2021-03-25T14:08:18Z</time>
      </trkpt>
      <trkpt lat="42.86964" lon="0.14057">
        <ele>2319.7</ele>
        <time>2021-03-25T14:08:20Z</time>
      </trkpt>
      <trkpt lat="42.86965" lon="0.14056">
        <ele>2319.7</ele>
        <time>2021-03-25T14:08:22Z</time>
      </trkpt>
      <trkpt lat="42.86965" lon="0.14056">
        <ele>2319.7</ele>
        <time>2021-03-25T14:08:23Z</time>
      </trkpt>
      <trkpt lat="42.86965" lon="0.14056">
        <ele>2319.7</ele>
        <time>2021-03-25T14:08:24Z</time>
      </trkpt>
      <trkpt lat="42.86965" lon="0.14057">
        <ele>2319.7</ele>
        <time>2021-03-25T14:08:26Z</time>
      </trkpt>
      <trkpt lat="42.86965" lon="0.14057">
        <ele>2319.7</ele>
        <time>2021-03-25T14:08:27Z</time>
      </trkpt>
      <trkpt lat="42.86965" lon="0.14057">
        <ele>2319.7</ele>
        <time>2021-03-25T14:08:29Z</time>
      </trkpt>
      <trkpt lat="42.86965" lon="0.14057">
        <ele>2319.7</ele>
        <time>2021-03-25T14:08:30Z</time>
      </trkpt>
      <trkpt lat="42.86965" lon="0.14057">
        <ele>2319.7</ele>
        <time>2021-03-25T14:08:31Z</time>
      </trkpt>
      <trkpt lat="42.86965" lon="0.14057">
        <ele>2319.7</ele>
        <time>2021-03-25T14:08:32Z</time>
      </trkpt>
      <trkpt lat="42.86966" lon="0.14057">
        <ele>2319.7</ele>
        <time>2021-03-25T14:08:34Z</time>
      </trkpt>
      <trkpt lat="42.86966" lon="0.14057">
        <ele>2319.7</ele>
        <time>2021-03-25T14:08:35Z</time>
      </trkpt>
      <trkpt lat="42.86967" lon="0.14057">
        <ele>2319.7</ele>
        <time>2021-03-25T14:08:37Z</time>
      </trkpt>
      <trkpt lat="42.86968" lon="0.14056">
        <ele>2319</ele>
        <time>2021-03-25T14:08:39Z</time>
      </trkpt>
      <trkpt lat="42.86968" lon="0.14055">
        <ele>2319</ele>
        <time>2021-03-25T14:08:40Z</time>
      </trkpt>
      <trkpt lat="42.86969" lon="0.14055">
        <ele>2319</ele>
        <time>2021-03-25T14:08:42Z</time>
      </trkpt>
      <trkpt lat="42.86969" lon="0.14055">
        <ele>2319</ele>
        <time>2021-03-25T14:08:43Z</time>
      </trkpt>
      <trkpt lat="42.86969" lon="0.14055">
        <ele>2319</ele>
        <time>2021-03-25T14:08:44Z</time>
      </trkpt>
      <trkpt lat="42.86968" lon="0.14055">
        <ele>2319</ele>
        <time>2021-03-25T14:08:46Z</time>
      </trkpt>
      <trkpt lat="42.86968" lon="0.14055">
        <ele>2319</ele>
        <time>2021-03-25T14:08:48Z</time>
      </trkpt>
      <trkpt lat="42.86967" lon="0.14056">
        <ele>2319.7</ele>
        <time>2021-03-25T14:08:50Z</time>
      </trkpt>
      <trkpt lat="42.86967" lon="0.14056">
        <ele>2319.7</ele>
        <time>2021-03-25T14:08:52Z</time>
      </trkpt>
      <trkpt lat="42.86967" lon="0.14056">
        <ele>2319.7</ele>
        <time>2021-03-25T14:08:53Z</time>
      </trkpt>
      <trkpt lat="42.86967" lon="0.14056">
        <ele>2319.7</ele>
        <time>2021-03-25T14:08:55Z</time>
      </trkpt>
      <trkpt lat="42.86966" lon="0.14056">
        <ele>2319.7</ele>
        <time>2021-03-25T14:08:57Z</time>
      </trkpt>
      <trkpt lat="42.86967" lon="0.14056">
        <ele>2319.7</ele>
        <time>2021-03-25T14:08:58Z</time>
      </trkpt>
      <trkpt lat="42.86966" lon="0.14056">
        <ele>2319.7</ele>
        <time>2021-03-25T14:08:59Z</time>
      </trkpt>
      <trkpt lat="42.86966" lon="0.14056">
        <ele>2319.7</ele>
        <time>2021-03-25T14:09:01Z</time>
      </trkpt>
      <trkpt lat="42.86965" lon="0.14057">
        <ele>2319.7</ele>
        <time>2021-03-25T14:09:02Z</time>
      </trkpt>
      <trkpt lat="42.86965" lon="0.14057">
        <ele>2319.7</ele>
        <time>2021-03-25T14:09:04Z</time>
      </trkpt>
      <trkpt lat="42.86964" lon="0.14056">
        <ele>2320.3</ele>
        <time>2021-03-25T14:09:05Z</time>
      </trkpt>
      <trkpt lat="42.86964" lon="0.14056">
        <ele>2320.3</ele>
        <time>2021-03-25T14:09:06Z</time>
      </trkpt>
      <trkpt lat="42.86964" lon="0.14056">
        <ele>2320.3</ele>
        <time>2021-03-25T14:09:08Z</time>
      </trkpt>
      <trkpt lat="42.86964" lon="0.14056">
        <ele>2320.3</ele>
        <time>2021-03-25T14:09:10Z</time>
      </trkpt>
      <trkpt lat="42.86964" lon="0.14057">
        <ele>2320.3</ele>
        <time>2021-03-25T14:09:12Z</time>
      </trkpt>
      <trkpt lat="42.86964" lon="0.14056">
        <ele>2320.3</ele>
        <time>2021-03-25T14:09:14Z</time>
      </trkpt>
      <trkpt lat="42.86963" lon="0.14056">
        <ele>2320.3</ele>
        <time>2021-03-25T14:09:16Z</time>
      </trkpt>
      <trkpt lat="42.86963" lon="0.14056">
        <ele>2320.3</ele>
        <time>2021-03-25T14:09:17Z</time>
      </trkpt>
      <trkpt lat="42.86962" lon="0.14056">
        <ele>2320.3</ele>
        <time>2021-03-25T14:09:18Z</time>
      </trkpt>
      <trkpt lat="42.8696" lon="0.14056">
        <ele>2320.8</ele>
        <time>2021-03-25T14:09:20Z</time>
      </trkpt>
      <trkpt lat="42.8696" lon="0.14056">
        <ele>2320.8</ele>
        <time>2021-03-25T14:09:21Z</time>
      </trkpt>
      <trkpt lat="42.86961" lon="0.14056">
        <ele>2320.8</ele>
        <time>2021-03-25T14:09:23Z</time>
      </trkpt>
      <trkpt lat="42.86962" lon="0.14057">
        <ele>2320.3</ele>
        <time>2021-03-25T14:09:24Z</time>
      </trkpt>
      <trkpt lat="42.86962" lon="0.14056">
        <ele>2320.3</ele>
        <time>2021-03-25T14:09:26Z</time>
      </trkpt>
      <trkpt lat="42.86962" lon="0.14055">
        <ele>2320.3</ele>
        <time>2021-03-25T14:09:28Z</time>
      </trkpt>
      <trkpt lat="42.86962" lon="0.14055">
        <ele>2320.3</ele>
        <time>2021-03-25T14:09:29Z</time>
      </trkpt>
      <trkpt lat="42.86962" lon="0.14055">
        <ele>2320.3</ele>
        <time>2021-03-25T14:09:31Z</time>
      </trkpt>
      <trkpt lat="42.86963" lon="0.14054">
        <ele>2320.3</ele>
        <time>2021-03-25T14:09:32Z</time>
      </trkpt>
      <trkpt lat="42.86963" lon="0.14051">
        <ele>2320.3</ele>
        <time>2021-03-25T14:09:34Z</time>
      </trkpt>
      <trkpt lat="42.86964" lon="0.1405">
        <ele>2320.3</ele>
        <time>2021-03-25T14:09:35Z</time>
      </trkpt>
      <trkpt lat="42.86965" lon="0.14051">
        <ele>2319.7</ele>
        <time>2021-03-25T14:09:36Z</time>
      </trkpt>
      <trkpt lat="42.86967" lon="0.14052">
        <ele>2319.7</ele>
        <time>2021-03-25T14:09:38Z</time>
      </trkpt>
      <trkpt lat="42.86968" lon="0.14052">
        <ele>2319</ele>
        <time>2021-03-25T14:09:40Z</time>
      </trkpt>
      <trkpt lat="42.86967" lon="0.14053">
        <ele>2319.7</ele>
        <time>2021-03-25T14:09:41Z</time>
      </trkpt>
      <trkpt lat="42.86967" lon="0.14053">
        <ele>2319.7</ele>
        <time>2021-03-25T14:09:42Z</time>
      </trkpt>
      <trkpt lat="42.86967" lon="0.14053">
        <ele>2319.7</ele>
        <time>2021-03-25T14:09:43Z</time>
      </trkpt>
      <trkpt lat="42.86968" lon="0.14053">
        <ele>2319</ele>
        <time>2021-03-25T14:09:45Z</time>
      </trkpt>
      <trkpt lat="42.86968" lon="0.14054">
        <ele>2319</ele>
        <time>2021-03-25T14:09:46Z</time>
      </trkpt>
      <trkpt lat="42.86968" lon="0.14054">
        <ele>2319</ele>
        <time>2021-03-25T14:09:48Z</time>
      </trkpt>
      <trkpt lat="42.86968" lon="0.14054">
        <ele>2319</ele>
        <time>2021-03-25T14:09:49Z</time>
      </trkpt>
      <trkpt lat="42.86968" lon="0.14054">
        <ele>2319</ele>
        <time>2021-03-25T14:09:50Z</time>
      </trkpt>
      <trkpt lat="42.86968" lon="0.14054">
        <ele>2319</ele>
        <time>2021-03-25T14:09:52Z</time>
      </trkpt>
      <trkpt lat="42.86968" lon="0.14054">
        <ele>2319</ele>
        <time>2021-03-25T14:09:53Z</time>
      </trkpt>
      <trkpt lat="42.86968" lon="0.14054">
        <ele>2319</ele>
        <time>2021-03-25T14:09:54Z</time>
      </trkpt>
      <trkpt lat="42.86968" lon="0.14054">
        <ele>2319</ele>
        <time>2021-03-25T14:09:55Z</time>
      </trkpt>
      <trkpt lat="42.86968" lon="0.14054">
        <ele>2319</ele>
        <time>2021-03-25T14:09:57Z</time>
      </trkpt>
      <trkpt lat="42.86968" lon="0.14054">
        <ele>2319</ele>
        <time>2021-03-25T14:09:58Z</time>
      </trkpt>
      <trkpt lat="42.86968" lon="0.14054">
        <ele>2319</ele>
        <time>2021-03-25T14:09:59Z</time>
      </trkpt>
      <trkpt lat="42.86968" lon="0.14054">
        <ele>2319</ele>
        <time>2021-03-25T14:10:00Z</time>
      </trkpt>
      <trkpt lat="42.86968" lon="0.14053">
        <ele>2319</ele>
        <time>2021-03-25T14:10:02Z</time>
      </trkpt>
      <trkpt lat="42.86968" lon="0.14053">
        <ele>2319</ele>
        <time>2021-03-25T14:10:04Z</time>
      </trkpt>
      <trkpt lat="42.86968" lon="0.14053">
        <ele>2319</ele>
        <time>2021-03-25T14:10:05Z</time>
      </trkpt>
      <trkpt lat="42.86968" lon="0.14054">
        <ele>2319</ele>
        <time>2021-03-25T14:10:07Z</time>
      </trkpt>
      <trkpt lat="42.86968" lon="0.14054">
        <ele>2319</ele>
        <time>2021-03-25T14:10:08Z</time>
      </trkpt>
      <trkpt lat="42.86969" lon="0.14054">
        <ele>2319</ele>
        <time>2021-03-25T14:10:09Z</time>
      </trkpt>
      <trkpt lat="42.86969" lon="0.14054">
        <ele>2319</ele>
        <time>2021-03-25T14:10:10Z</time>
      </trkpt>
      <trkpt lat="42.86969" lon="0.14054">
        <ele>2319</ele>
        <time>2021-03-25T14:10:11Z</time>
      </trkpt>
      <trkpt lat="42.86969" lon="0.14054">
        <ele>2319</ele>
        <time>2021-03-25T14:10:12Z</time>
      </trkpt>
      <trkpt lat="42.86969" lon="0.14054">
        <ele>2319</ele>
        <time>2021-03-25T14:10:14Z</time>
      </trkpt>
      <trkpt lat="42.86969" lon="0.14054">
        <ele>2319</ele>
        <time>2021-03-25T14:10:15Z</time>
      </trkpt>
      <trkpt lat="42.86969" lon="0.14054">
        <ele>2319</ele>
        <time>2021-03-25T14:10:16Z</time>
      </trkpt>
      <trkpt lat="42.86967" lon="0.14055">
        <ele>2319</ele>
        <time>2021-03-25T14:10:18Z</time>
      </trkpt>
      <trkpt lat="42.86967" lon="0.14056">
        <ele>2319.7</ele>
        <time>2021-03-25T14:10:20Z</time>
      </trkpt>
      <trkpt lat="42.86966" lon="0.14056">
        <ele>2319.7</ele>
        <time>2021-03-25T14:10:21Z</time>
      </trkpt>
      <trkpt lat="42.86966" lon="0.14056">
        <ele>2319.7</ele>
        <time>2021-03-25T14:10:23Z</time>
      </trkpt>
      <trkpt lat="42.86965" lon="0.14056">
        <ele>2319.7</ele>
        <time>2021-03-25T14:10:25Z</time>
      </trkpt>
      <trkpt lat="42.86965" lon="0.14056">
        <ele>2319.7</ele>
        <time>2021-03-25T14:10:26Z</time>
      </trkpt>
      <trkpt lat="42.86965" lon="0.14056">
        <ele>2319.7</ele>
        <time>2021-03-25T14:10:27Z</time>
      </trkpt>
      <trkpt lat="42.86965" lon="0.14055">
        <ele>2319.7</ele>
        <time>2021-03-25T14:10:29Z</time>
      </trkpt>
      <trkpt lat="42.86964" lon="0.14055">
        <ele>2319.7</ele>
        <time>2021-03-25T14:10:31Z</time>
      </trkpt>
      <trkpt lat="42.86965" lon="0.14056">
        <ele>2319.7</ele>
        <time>2021-03-25T14:10:32Z</time>
      </trkpt>
      <trkpt lat="42.86965" lon="0.14056">
        <ele>2319.7</ele>
        <time>2021-03-25T14:10:34Z</time>
      </trkpt>
      <trkpt lat="42.86965" lon="0.14056">
        <ele>2319.7</ele>
        <time>2021-03-25T14:10:35Z</time>
      </trkpt>
      <trkpt lat="42.86965" lon="0.14056">
        <ele>2319.7</ele>
        <time>2021-03-25T14:10:37Z</time>
      </trkpt>
      <trkpt lat="42.86965" lon="0.14056">
        <ele>2319.7</ele>
        <time>2021-03-25T14:10:38Z</time>
      </trkpt>
      <trkpt lat="42.86965" lon="0.14056">
        <ele>2319.7</ele>
        <time>2021-03-25T14:10:39Z</time>
      </trkpt>
      <trkpt lat="42.86965" lon="0.14056">
        <ele>2319.7</ele>
        <time>2021-03-25T14:10:41Z</time>
      </trkpt>
      <trkpt lat="42.86965" lon="0.14056">
        <ele>2319.7</ele>
        <time>2021-03-25T14:10:42Z</time>
      </trkpt>
      <trkpt lat="42.86965" lon="0.14056">
        <ele>2319.7</ele>
        <time>2021-03-25T14:10:43Z</time>
      </trkpt>
      <trkpt lat="42.86965" lon="0.14056">
        <ele>2319.7</ele>
        <time>2021-03-25T14:10:44Z</time>
      </trkpt>
      <trkpt lat="42.86965" lon="0.14056">
        <ele>2319.7</ele>
        <time>2021-03-25T14:10:46Z</time>
      </trkpt>
      <trkpt lat="42.86965" lon="0.14056">
        <ele>2319.7</ele>
        <time>2021-03-25T14:10:47Z</time>
      </trkpt>
      <trkpt lat="42.86965" lon="0.14056">
        <ele>2319.7</ele>
        <time>2021-03-25T14:10:49Z</time>
      </trkpt>
      <trkpt lat="42.86966" lon="0.14056">
        <ele>2319.7</ele>
        <time>2021-03-25T14:10:51Z</time>
      </trkpt>
      <trkpt lat="42.86966" lon="0.14056">
        <ele>2319.7</ele>
        <time>2021-03-25T14:10:52Z</time>
      </trkpt>
      <trkpt lat="42.86966" lon="0.14056">
        <ele>2319.7</ele>
        <time>2021-03-25T14:10:53Z</time>
      </trkpt>
      <trkpt lat="42.86966" lon="0.14056">
        <ele>2319.7</ele>
        <time>2021-03-25T14:10:54Z</time>
      </trkpt>
      <trkpt lat="42.86966" lon="0.14056">
        <ele>2319.7</ele>
        <time>2021-03-25T14:10:56Z</time>
      </trkpt>
      <trkpt lat="42.86965" lon="0.14056">
        <ele>2319.7</ele>
        <time>2021-03-25T14:10:58Z</time>
      </trkpt>
      <trkpt lat="42.86965" lon="0.14056">
        <ele>2319.7</ele>
        <time>2021-03-25T14:10:59Z</time>
      </trkpt>
      <trkpt lat="42.86966" lon="0.14057">
        <ele>2319.7</ele>
        <time>2021-03-25T14:11:01Z</time>
      </trkpt>
      <trkpt lat="42.86966" lon="0.14058">
        <ele>2319.7</ele>
        <time>2021-03-25T14:11:03Z</time>
      </trkpt>
      <trkpt lat="42.86966" lon="0.14058">
        <ele>2319.7</ele>
        <time>2021-03-25T14:11:04Z</time>
      </trkpt>
      <trkpt lat="42.86966" lon="0.14058">
        <ele>2319.7</ele>
        <time>2021-03-25T14:11:05Z</time>
      </trkpt>
      <trkpt lat="42.86966" lon="0.14058">
        <ele>2319.7</ele>
        <time>2021-03-25T14:11:06Z</time>
      </trkpt>
      <trkpt lat="42.86965" lon="0.14058">
        <ele>2319.7</ele>
        <time>2021-03-25T14:11:08Z</time>
      </trkpt>
      <trkpt lat="42.86965" lon="0.14057">
        <ele>2319.7</ele>
        <time>2021-03-25T14:11:10Z</time>
      </trkpt>
      <trkpt lat="42.86965" lon="0.14057">
        <ele>2319.7</ele>
        <time>2021-03-25T14:11:11Z</time>
      </trkpt>
      <trkpt lat="42.86965" lon="0.14058">
        <ele>2319.7</ele>
        <time>2021-03-25T14:11:13Z</time>
      </trkpt>
      <trkpt lat="42.86965" lon="0.14058">
        <ele>2319.7</ele>
        <time>2021-03-25T14:11:14Z</time>
      </trkpt>
      <trkpt lat="42.86965" lon="0.14057">
        <ele>2319.7</ele>
        <time>2021-03-25T14:11:15Z</time>
      </trkpt>
      <trkpt lat="42.86966" lon="0.14057">
        <ele>2319.7</ele>
        <time>2021-03-25T14:11:17Z</time>
      </trkpt>
      <trkpt lat="42.86966" lon="0.14057">
        <ele>2319.7</ele>
        <time>2021-03-25T14:11:18Z</time>
      </trkpt>
      <trkpt lat="42.86967" lon="0.14057">
        <ele>2319.7</ele>
        <time>2021-03-25T14:11:20Z</time>
      </trkpt>
      <trkpt lat="42.86968" lon="0.14057">
        <ele>2319</ele>
        <time>2021-03-25T14:11:21Z</time>
      </trkpt>
      <trkpt lat="42.86969" lon="0.14057">
        <ele>2319</ele>
        <time>2021-03-25T14:11:22Z</time>
      </trkpt>
      <trkpt lat="42.86969" lon="0.14058">
        <ele>2319</ele>
        <time>2021-03-25T14:11:23Z</time>
      </trkpt>
      <trkpt lat="42.8697" lon="0.14058">
        <ele>2319</ele>
        <time>2021-03-25T14:11:24Z</time>
      </trkpt>
      <trkpt lat="42.8697" lon="0.14058">
        <ele>2319</ele>
        <time>2021-03-25T14:11:26Z</time>
      </trkpt>
      <trkpt lat="42.8697" lon="0.14058">
        <ele>2319</ele>
        <time>2021-03-25T14:11:27Z</time>
      </trkpt>
      <trkpt lat="42.8697" lon="0.14058">
        <ele>2319</ele>
        <time>2021-03-25T14:11:29Z</time>
      </trkpt>
      <trkpt lat="42.8697" lon="0.14058">
        <ele>2319</ele>
        <time>2021-03-25T14:11:31Z</time>
      </trkpt>
      <trkpt lat="42.8697" lon="0.14058">
        <ele>2319</ele>
        <time>2021-03-25T14:11:32Z</time>
      </trkpt>
      <trkpt lat="42.8697" lon="0.14057">
        <ele>2319</ele>
        <time>2021-03-25T14:11:34Z</time>
      </trkpt>
      <trkpt lat="42.8697" lon="0.14057">
        <ele>2319</ele>
        <time>2021-03-25T14:11:35Z</time>
      </trkpt>
      <trkpt lat="42.8697" lon="0.14057">
        <ele>2319</ele>
        <time>2021-03-25T14:11:36Z</time>
      </trkpt>
      <trkpt lat="42.8697" lon="0.14057">
        <ele>2319</ele>
        <time>2021-03-25T14:11:38Z</time>
      </trkpt>
      <trkpt lat="42.8697" lon="0.14057">
        <ele>2319</ele>
        <time>2021-03-25T14:11:39Z</time>
      </trkpt>
      <trkpt lat="42.8697" lon="0.14057">
        <ele>2319</ele>
        <time>2021-03-25T14:11:40Z</time>
      </trkpt>
      <trkpt lat="42.8697" lon="0.14057">
        <ele>2319</ele>
        <time>2021-03-25T14:11:42Z</time>
      </trkpt>
      <trkpt lat="42.8697" lon="0.14057">
        <ele>2319</ele>
        <time>2021-03-25T14:11:43Z</time>
      </trkpt>
      <trkpt lat="42.8697" lon="0.14057">
        <ele>2319</ele>
        <time>2021-03-25T14:11:44Z</time>
      </trkpt>
      <trkpt lat="42.86969" lon="0.14057">
        <ele>2319</ele>
        <time>2021-03-25T14:11:46Z</time>
      </trkpt>
      <trkpt lat="42.86969" lon="0.14057">
        <ele>2319</ele>
        <time>2021-03-25T14:11:48Z</time>
      </trkpt>
      <trkpt lat="42.86969" lon="0.14057">
        <ele>2319</ele>
        <time>2021-03-25T14:11:49Z</time>
      </trkpt>
      <trkpt lat="42.86969" lon="0.14057">
        <ele>2319</ele>
        <time>2021-03-25T14:11:50Z</time>
      </trkpt>
      <trkpt lat="42.86969" lon="0.14057">
        <ele>2319</ele>
        <time>2021-03-25T14:11:52Z</time>
      </trkpt>
      <trkpt lat="42.86969" lon="0.14057">
        <ele>2319</ele>
        <time>2021-03-25T14:11:53Z</time>
      </trkpt>
      <trkpt lat="42.8697" lon="0.14057">
        <ele>2319</ele>
        <time>2021-03-25T14:11:55Z</time>
      </trkpt>
      <trkpt lat="42.8697" lon="0.14057">
        <ele>2319</ele>
        <time>2021-03-25T14:11:57Z</time>
      </trkpt>
      <trkpt lat="42.86969" lon="0.14057">
        <ele>2319</ele>
        <time>2021-03-25T14:11:58Z</time>
      </trkpt>
      <trkpt lat="42.86969" lon="0.14057">
        <ele>2319</ele>
        <time>2021-03-25T14:11:59Z</time>
      </trkpt>
      <trkpt lat="42.86969" lon="0.14057">
        <ele>2319</ele>
        <time>2021-03-25T14:12:01Z</time>
      </trkpt>
      <trkpt lat="42.86969" lon="0.14057">
        <ele>2319</ele>
        <time>2021-03-25T14:12:02Z</time>
      </trkpt>
      <trkpt lat="42.86969" lon="0.14057">
        <ele>2319</ele>
        <time>2021-03-25T14:12:03Z</time>
      </trkpt>
      <trkpt lat="42.86968" lon="0.14056">
        <ele>2319</ele>
        <time>2021-03-25T14:12:05Z</time>
      </trkpt>
      <trkpt lat="42.86968" lon="0.14057">
        <ele>2319</ele>
        <time>2021-03-25T14:12:07Z</time>
      </trkpt>
      <trkpt lat="42.86968" lon="0.14057">
        <ele>2319</ele>
        <time>2021-03-25T14:12:08Z</time>
      </trkpt>
      <trkpt lat="42.86968" lon="0.14057">
        <ele>2319</ele>
        <time>2021-03-25T14:12:09Z</time>
      </trkpt>
      <trkpt lat="42.86969" lon="0.14058">
        <ele>2319</ele>
        <time>2021-03-25T14:12:11Z</time>
      </trkpt>
      <trkpt lat="42.86969" lon="0.14057">
        <ele>2319</ele>
        <time>2021-03-25T14:12:13Z</time>
      </trkpt>
      <trkpt lat="42.86969" lon="0.14057">
        <ele>2319</ele>
        <time>2021-03-25T14:12:14Z</time>
      </trkpt>
      <trkpt lat="42.86968" lon="0.14057">
        <ele>2319</ele>
        <time>2021-03-25T14:12:16Z</time>
      </trkpt>
      <trkpt lat="42.86968" lon="0.14057">
        <ele>2319</ele>
        <time>2021-03-25T14:12:17Z</time>
      </trkpt>
      <trkpt lat="42.86968" lon="0.14057">
        <ele>2319</ele>
        <time>2021-03-25T14:12:19Z</time>
      </trkpt>
      <trkpt lat="42.86968" lon="0.14057">
        <ele>2319</ele>
        <time>2021-03-25T14:12:20Z</time>
      </trkpt>
      <trkpt lat="42.86969" lon="0.14057">
        <ele>2319</ele>
        <time>2021-03-25T14:12:21Z</time>
      </trkpt>
      <trkpt lat="42.86969" lon="0.14057">
        <ele>2319</ele>
        <time>2021-03-25T14:12:22Z</time>
      </trkpt>
      <trkpt lat="42.86969" lon="0.14057">
        <ele>2319</ele>
        <time>2021-03-25T14:12:23Z</time>
      </trkpt>
      <trkpt lat="42.86968" lon="0.14057">
        <ele>2319</ele>
        <time>2021-03-25T14:12:24Z</time>
      </trkpt>
      <trkpt lat="42.86968" lon="0.14057">
        <ele>2319</ele>
        <time>2021-03-25T14:12:26Z</time>
      </trkpt>
      <trkpt lat="42.86968" lon="0.14057">
        <ele>2319</ele>
        <time>2021-03-25T14:12:28Z</time>
      </trkpt>
      <trkpt lat="42.86969" lon="0.14057">
        <ele>2319</ele>
        <time>2021-03-25T14:12:29Z</time>
      </trkpt>
      <trkpt lat="42.86969" lon="0.14057">
        <ele>2319</ele>
        <time>2021-03-25T14:12:31Z</time>
      </trkpt>
      <trkpt lat="42.86969" lon="0.14057">
        <ele>2319</ele>
        <time>2021-03-25T14:12:33Z</time>
      </trkpt>
      <trkpt lat="42.86969" lon="0.14057">
        <ele>2319</ele>
        <time>2021-03-25T14:12:34Z</time>
      </trkpt>
      <trkpt lat="42.86969" lon="0.14057">
        <ele>2319</ele>
        <time>2021-03-25T14:12:36Z</time>
      </trkpt>
      <trkpt lat="42.86969" lon="0.14057">
        <ele>2319</ele>
        <time>2021-03-25T14:12:38Z</time>
      </trkpt>
      <trkpt lat="42.86969" lon="0.14056">
        <ele>2319</ele>
        <time>2021-03-25T14:12:39Z</time>
      </trkpt>
      <trkpt lat="42.86969" lon="0.14056">
        <ele>2319</ele>
        <time>2021-03-25T14:12:40Z</time>
      </trkpt>
      <trkpt lat="42.86969" lon="0.14056">
        <ele>2319</ele>
        <time>2021-03-25T14:12:41Z</time>
      </trkpt>
      <trkpt lat="42.86969" lon="0.14056">
        <ele>2319</ele>
        <time>2021-03-25T14:12:42Z</time>
      </trkpt>
      <trkpt lat="42.86969" lon="0.14056">
        <ele>2319</ele>
        <time>2021-03-25T14:12:43Z</time>
      </trkpt>
      <trkpt lat="42.86969" lon="0.14056">
        <ele>2319</ele>
        <time>2021-03-25T14:12:45Z</time>
      </trkpt>
      <trkpt lat="42.8697" lon="0.14056">
        <ele>2319</ele>
        <time>2021-03-25T14:12:47Z</time>
      </trkpt>
      <trkpt lat="42.8697" lon="0.14056">
        <ele>2319</ele>
        <time>2021-03-25T14:12:49Z</time>
      </trkpt>
      <trkpt lat="42.8697" lon="0.14056">
        <ele>2319</ele>
        <time>2021-03-25T14:12:51Z</time>
      </trkpt>
      <trkpt lat="42.86971" lon="0.14056">
        <ele>2319</ele>
        <time>2021-03-25T14:12:52Z</time>
      </trkpt>
      <trkpt lat="42.86972" lon="0.14056">
        <ele>2318.3</ele>
        <time>2021-03-25T14:12:54Z</time>
      </trkpt>
      <trkpt lat="42.86972" lon="0.14056">
        <ele>2318.3</ele>
        <time>2021-03-25T14:12:55Z</time>
      </trkpt>
      <trkpt lat="42.86973" lon="0.14056">
        <ele>2318.3</ele>
        <time>2021-03-25T14:12:56Z</time>
      </trkpt>
      <trkpt lat="42.86973" lon="0.14056">
        <ele>2318.3</ele>
        <time>2021-03-25T14:12:57Z</time>
      </trkpt>
      <trkpt lat="42.86973" lon="0.14056">
        <ele>2318.3</ele>
        <time>2021-03-25T14:12:59Z</time>
      </trkpt>
      <trkpt lat="42.86973" lon="0.14056">
        <ele>2318.3</ele>
        <time>2021-03-25T14:13:00Z</time>
      </trkpt>
      <trkpt lat="42.86974" lon="0.14056">
        <ele>2318.3</ele>
        <time>2021-03-25T14:13:02Z</time>
      </trkpt>
      <trkpt lat="42.86974" lon="0.14056">
        <ele>2317.7</ele>
        <time>2021-03-25T14:13:04Z</time>
      </trkpt>
      <trkpt lat="42.86974" lon="0.14056">
        <ele>2317.7</ele>
        <time>2021-03-25T14:13:06Z</time>
      </trkpt>
      <trkpt lat="42.86974" lon="0.14056">
        <ele>2317.7</ele>
        <time>2021-03-25T14:13:07Z</time>
      </trkpt>
      <trkpt lat="42.86974" lon="0.14056">
        <ele>2317.7</ele>
        <time>2021-03-25T14:13:08Z</time>
      </trkpt>
      <trkpt lat="42.86974" lon="0.14056">
        <ele>2317.7</ele>
        <time>2021-03-25T14:13:10Z</time>
      </trkpt>
      <trkpt lat="42.86974" lon="0.14056">
        <ele>2317.7</ele>
        <time>2021-03-25T14:13:11Z</time>
      </trkpt>
      <trkpt lat="42.86974" lon="0.14056">
        <ele>2317.7</ele>
        <time>2021-03-25T14:13:13Z</time>
      </trkpt>
      <trkpt lat="42.86974" lon="0.14056">
        <ele>2317.7</ele>
        <time>2021-03-25T14:13:15Z</time>
      </trkpt>
      <trkpt lat="42.86974" lon="0.14056">
        <ele>2317.7</ele>
        <time>2021-03-25T14:13:17Z</time>
      </trkpt>
      <trkpt lat="42.86974" lon="0.14056">
        <ele>2318.3</ele>
        <time>2021-03-25T14:13:19Z</time>
      </trkpt>
      <trkpt lat="42.86974" lon="0.14056">
        <ele>2318.3</ele>
        <time>2021-03-25T14:13:20Z</time>
      </trkpt>
      <trkpt lat="42.86974" lon="0.14056">
        <ele>2318.3</ele>
        <time>2021-03-25T14:13:21Z</time>
      </trkpt>
      <trkpt lat="42.86974" lon="0.14056">
        <ele>2318.3</ele>
        <time>2021-03-25T14:13:22Z</time>
      </trkpt>
      <trkpt lat="42.86974" lon="0.14056">
        <ele>2318.3</ele>
        <time>2021-03-25T14:13:24Z</time>
      </trkpt>
      <trkpt lat="42.86974" lon="0.14056">
        <ele>2318.3</ele>
        <time>2021-03-25T14:13:25Z</time>
      </trkpt>
      <trkpt lat="42.86973" lon="0.14056">
        <ele>2318.3</ele>
        <time>2021-03-25T14:13:27Z</time>
      </trkpt>
      <trkpt lat="42.86973" lon="0.14056">
        <ele>2318.3</ele>
        <time>2021-03-25T14:13:28Z</time>
      </trkpt>
      <trkpt lat="42.86972" lon="0.14057">
        <ele>2318.3</ele>
        <time>2021-03-25T14:13:30Z</time>
      </trkpt>
      <trkpt lat="42.8697" lon="0.14055">
        <ele>2319</ele>
        <time>2021-03-25T14:13:32Z</time>
      </trkpt>
      <trkpt lat="42.86968" lon="0.14054">
        <ele>2319</ele>
        <time>2021-03-25T14:13:33Z</time>
      </trkpt>
      <trkpt lat="42.86967" lon="0.14054">
        <ele>2319.7</ele>
        <time>2021-03-25T14:13:35Z</time>
      </trkpt>
      <trkpt lat="42.86968" lon="0.14054">
        <ele>2319</ele>
        <time>2021-03-25T14:13:36Z</time>
      </trkpt>
      <trkpt lat="42.86968" lon="0.14055">
        <ele>2319</ele>
        <time>2021-03-25T14:13:38Z</time>
      </trkpt>
      <trkpt lat="42.86967" lon="0.14055">
        <ele>2319.7</ele>
        <time>2021-03-25T14:13:39Z</time>
      </trkpt>
      <trkpt lat="42.86967" lon="0.14054">
        <ele>2319.7</ele>
        <time>2021-03-25T14:13:40Z</time>
      </trkpt>
      <trkpt lat="42.86967" lon="0.14054">
        <ele>2319.7</ele>
        <time>2021-03-25T14:13:42Z</time>
      </trkpt>
      <trkpt lat="42.86967" lon="0.14054">
        <ele>2319.7</ele>
        <time>2021-03-25T14:13:43Z</time>
      </trkpt>
      <trkpt lat="42.86967" lon="0.14054">
        <ele>2319.7</ele>
        <time>2021-03-25T14:13:44Z</time>
      </trkpt>
      <trkpt lat="42.86967" lon="0.14054">
        <ele>2319.7</ele>
        <time>2021-03-25T14:13:45Z</time>
      </trkpt>
      <trkpt lat="42.86966" lon="0.14053">
        <ele>2319.7</ele>
        <time>2021-03-25T14:13:47Z</time>
      </trkpt>
      <trkpt lat="42.86966" lon="0.14053">
        <ele>2319.7</ele>
        <time>2021-03-25T14:13:48Z</time>
      </trkpt>
      <trkpt lat="42.86967" lon="0.14053">
        <ele>2319.7</ele>
        <time>2021-03-25T14:13:50Z</time>
      </trkpt>
      <trkpt lat="42.86967" lon="0.14054">
        <ele>2319.7</ele>
        <time>2021-03-25T14:13:52Z</time>
      </trkpt>
      <trkpt lat="42.86967" lon="0.14054">
        <ele>2319.7</ele>
        <time>2021-03-25T14:13:53Z</time>
      </trkpt>
      <trkpt lat="42.86967" lon="0.14054">
        <ele>2319.7</ele>
        <time>2021-03-25T14:13:54Z</time>
      </trkpt>
      <trkpt lat="42.86967" lon="0.14053">
        <ele>2319.7</ele>
        <time>2021-03-25T14:13:55Z</time>
      </trkpt>
      <trkpt lat="42.86967" lon="0.14053">
        <ele>2319.7</ele>
        <time>2021-03-25T14:13:57Z</time>
      </trkpt>
      <trkpt lat="42.86967" lon="0.14053">
        <ele>2319.7</ele>
        <time>2021-03-25T14:13:58Z</time>
      </trkpt>
      <trkpt lat="42.86967" lon="0.14053">
        <ele>2319</ele>
        <time>2021-03-25T14:13:59Z</time>
      </trkpt>
      <trkpt lat="42.86967" lon="0.14053">
        <ele>2319</ele>
        <time>2021-03-25T14:14:01Z</time>
      </trkpt>
      <trkpt lat="42.86967" lon="0.14053">
        <ele>2319</ele>
        <time>2021-03-25T14:14:02Z</time>
      </trkpt>
      <trkpt lat="42.86968" lon="0.14053">
        <ele>2319</ele>
        <time>2021-03-25T14:14:03Z</time>
      </trkpt>
      <trkpt lat="42.86968" lon="0.14053">
        <ele>2319</ele>
        <time>2021-03-25T14:14:04Z</time>
      </trkpt>
      <trkpt lat="42.86968" lon="0.14052">
        <ele>2319</ele>
        <time>2021-03-25T14:14:05Z</time>
      </trkpt>
      <trkpt lat="42.86968" lon="0.14052">
        <ele>2319</ele>
        <time>2021-03-25T14:14:07Z</time>
      </trkpt>
      <trkpt lat="42.86968" lon="0.14052">
        <ele>2319</ele>
        <time>2021-03-25T14:14:08Z</time>
      </trkpt>
      <trkpt lat="42.86968" lon="0.14052">
        <ele>2319</ele>
        <time>2021-03-25T14:14:10Z</time>
      </trkpt>
      <trkpt lat="42.86968" lon="0.14052">
        <ele>2319</ele>
        <time>2021-03-25T14:14:12Z</time>
      </trkpt>
      <trkpt lat="42.86968" lon="0.14052">
        <ele>2319</ele>
        <time>2021-03-25T14:14:13Z</time>
      </trkpt>
      <trkpt lat="42.86968" lon="0.14052">
        <ele>2319</ele>
        <time>2021-03-25T14:14:14Z</time>
      </trkpt>
      <trkpt lat="42.86968" lon="0.14052">
        <ele>2319</ele>
        <time>2021-03-25T14:14:15Z</time>
      </trkpt>
      <trkpt lat="42.86969" lon="0.14052">
        <ele>2319</ele>
        <time>2021-03-25T14:14:17Z</time>
      </trkpt>
      <trkpt lat="42.86968" lon="0.14052">
        <ele>2319</ele>
        <time>2021-03-25T14:14:19Z</time>
      </trkpt>
      <trkpt lat="42.86968" lon="0.14051">
        <ele>2319</ele>
        <time>2021-03-25T14:14:21Z</time>
      </trkpt>
      <trkpt lat="42.86968" lon="0.14051">
        <ele>2319</ele>
        <time>2021-03-25T14:14:22Z</time>
      </trkpt>
      <trkpt lat="42.86967" lon="0.14051">
        <ele>2319.7</ele>
        <time>2021-03-25T14:14:24Z</time>
      </trkpt>
      <trkpt lat="42.86967" lon="0.14051">
        <ele>2319.7</ele>
        <time>2021-03-25T14:14:25Z</time>
      </trkpt>
      <trkpt lat="42.86967" lon="0.14051">
        <ele>2319.7</ele>
        <time>2021-03-25T14:14:27Z</time>
      </trkpt>
      <trkpt lat="42.86967" lon="0.14051">
        <ele>2319.7</ele>
        <time>2021-03-25T14:14:28Z</time>
      </trkpt>
      <trkpt lat="42.86967" lon="0.14051">
        <ele>2319.7</ele>
        <time>2021-03-25T14:14:30Z</time>
      </trkpt>
      <trkpt lat="42.86967" lon="0.14051">
        <ele>2319.7</ele>
        <time>2021-03-25T14:14:32Z</time>
      </trkpt>
      <trkpt lat="42.86967" lon="0.14051">
        <ele>2319.7</ele>
        <time>2021-03-25T14:14:34Z</time>
      </trkpt>
      <trkpt lat="42.86967" lon="0.14051">
        <ele>2319.7</ele>
        <time>2021-03-25T14:14:35Z</time>
      </trkpt>
      <trkpt lat="42.86967" lon="0.14051">
        <ele>2319.7</ele>
        <time>2021-03-25T14:14:37Z</time>
      </trkpt>
      <trkpt lat="42.86967" lon="0.14051">
        <ele>2319.7</ele>
        <time>2021-03-25T14:14:39Z</time>
      </trkpt>
      <trkpt lat="42.86967" lon="0.14051">
        <ele>2319.7</ele>
        <time>2021-03-25T14:14:40Z</time>
      </trkpt>
      <trkpt lat="42.86967" lon="0.14051">
        <ele>2319.7</ele>
        <time>2021-03-25T14:14:42Z</time>
      </trkpt>
      <trkpt lat="42.86967" lon="0.14051">
        <ele>2319.7</ele>
        <time>2021-03-25T14:14:43Z</time>
      </trkpt>
      <trkpt lat="42.86967" lon="0.14051">
        <ele>2319.7</ele>
        <time>2021-03-25T14:14:44Z</time>
      </trkpt>
      <trkpt lat="42.86967" lon="0.14051">
        <ele>2319.7</ele>
        <time>2021-03-25T14:14:46Z</time>
      </trkpt>
      <trkpt lat="42.86967" lon="0.14051">
        <ele>2319.7</ele>
        <time>2021-03-25T14:14:47Z</time>
      </trkpt>
      <trkpt lat="42.86967" lon="0.14051">
        <ele>2319.7</ele>
        <time>2021-03-25T14:14:49Z</time>
      </trkpt>
      <trkpt lat="42.86967" lon="0.14051">
        <ele>2319.7</ele>
        <time>2021-03-25T14:14:50Z</time>
      </trkpt>
      <trkpt lat="42.86967" lon="0.14051">
        <ele>2319.7</ele>
        <time>2021-03-25T14:14:52Z</time>
      </trkpt>
      <trkpt lat="42.86967" lon="0.14051">
        <ele>2319.7</ele>
        <time>2021-03-25T14:14:53Z</time>
      </trkpt>
      <trkpt lat="42.86967" lon="0.14051">
        <ele>2319.7</ele>
        <time>2021-03-25T14:14:54Z</time>
      </trkpt>
      <trkpt lat="42.86967" lon="0.14051">
        <ele>2319.7</ele>
        <time>2021-03-25T14:14:55Z</time>
      </trkpt>
      <trkpt lat="42.86967" lon="0.14051">
        <ele>2319.7</ele>
        <time>2021-03-25T14:14:56Z</time>
      </trkpt>
      <trkpt lat="42.86967" lon="0.14051">
        <ele>2319.7</ele>
        <time>2021-03-25T14:14:58Z</time>
      </trkpt>
      <trkpt lat="42.86967" lon="0.1405">
        <ele>2319.6</ele>
        <time>2021-03-25T14:15:00Z</time>
      </trkpt>
      <trkpt lat="42.86967" lon="0.1405">
        <ele>2319.6</ele>
        <time>2021-03-25T14:15:01Z</time>
      </trkpt>
      <trkpt lat="42.86966" lon="0.1405">
        <ele>2319.6</ele>
        <time>2021-03-25T14:15:02Z</time>
      </trkpt>
      <trkpt lat="42.86966" lon="0.14049">
        <ele>2319.6</ele>
        <time>2021-03-25T14:15:04Z</time>
      </trkpt>
      <trkpt lat="42.86965" lon="0.14049">
        <ele>2319.6</ele>
        <time>2021-03-25T14:15:06Z</time>
      </trkpt>
      <trkpt lat="42.86965" lon="0.14048">
        <ele>2319.6</ele>
        <time>2021-03-25T14:15:08Z</time>
      </trkpt>
      <trkpt lat="42.86964" lon="0.14049">
        <ele>2319.6</ele>
        <time>2021-03-25T14:15:09Z</time>
      </trkpt>
      <trkpt lat="42.86964" lon="0.14048">
        <ele>2320.3</ele>
        <time>2021-03-25T14:15:10Z</time>
      </trkpt>
      <trkpt lat="42.86964" lon="0.14048">
        <ele>2320.3</ele>
        <time>2021-03-25T14:15:12Z</time>
      </trkpt>
      <trkpt lat="42.86964" lon="0.14048">
        <ele>2320.3</ele>
        <time>2021-03-25T14:15:13Z</time>
      </trkpt>
      <trkpt lat="42.86964" lon="0.14048">
        <ele>2320.3</ele>
        <time>2021-03-25T14:15:14Z</time>
      </trkpt>
      <trkpt lat="42.86964" lon="0.14048">
        <ele>2320.3</ele>
        <time>2021-03-25T14:15:15Z</time>
      </trkpt>
      <trkpt lat="42.86963" lon="0.14048">
        <ele>2320.3</ele>
        <time>2021-03-25T14:15:17Z</time>
      </trkpt>
      <trkpt lat="42.86963" lon="0.14048">
        <ele>2320.3</ele>
        <time>2021-03-25T14:15:18Z</time>
      </trkpt>
      <trkpt lat="42.86964" lon="0.14048">
        <ele>2320.3</ele>
        <time>2021-03-25T14:15:20Z</time>
      </trkpt>
      <trkpt lat="42.86964" lon="0.14048">
        <ele>2320.3</ele>
        <time>2021-03-25T14:15:22Z</time>
      </trkpt>
      <trkpt lat="42.86964" lon="0.14048">
        <ele>2320.3</ele>
        <time>2021-03-25T14:15:23Z</time>
      </trkpt>
      <trkpt lat="42.86964" lon="0.14048">
        <ele>2320.3</ele>
        <time>2021-03-25T14:15:25Z</time>
      </trkpt>
      <trkpt lat="42.86964" lon="0.14048">
        <ele>2320.3</ele>
        <time>2021-03-25T14:15:26Z</time>
      </trkpt>
      <trkpt lat="42.86964" lon="0.14048">
        <ele>2319.6</ele>
        <time>2021-03-25T14:15:28Z</time>
      </trkpt>
      <trkpt lat="42.86965" lon="0.14049">
        <ele>2319.6</ele>
        <time>2021-03-25T14:15:29Z</time>
      </trkpt>
      <trkpt lat="42.86966" lon="0.14049">
        <ele>2319.6</ele>
        <time>2021-03-25T14:15:31Z</time>
      </trkpt>
      <trkpt lat="42.86966" lon="0.14048">
        <ele>2319.6</ele>
        <time>2021-03-25T14:15:33Z</time>
      </trkpt>
      <trkpt lat="42.86966" lon="0.14048">
        <ele>2319.6</ele>
        <time>2021-03-25T14:15:34Z</time>
      </trkpt>
      <trkpt lat="42.86966" lon="0.14048">
        <ele>2319.6</ele>
        <time>2021-03-25T14:15:36Z</time>
      </trkpt>
      <trkpt lat="42.86966" lon="0.14049">
        <ele>2319.6</ele>
        <time>2021-03-25T14:15:38Z</time>
      </trkpt>
      <trkpt lat="42.86965" lon="0.14049">
        <ele>2319.6</ele>
        <time>2021-03-25T14:15:40Z</time>
      </trkpt>
      <trkpt lat="42.86964" lon="0.1405">
        <ele>2319.6</ele>
        <time>2021-03-25T14:15:41Z</time>
      </trkpt>
      <trkpt lat="42.86964" lon="0.1405">
        <ele>2320.3</ele>
        <time>2021-03-25T14:15:42Z</time>
      </trkpt>
      <trkpt lat="42.86964" lon="0.1405">
        <ele>2320.3</ele>
        <time>2021-03-25T14:15:44Z</time>
      </trkpt>
      <trkpt lat="42.86964" lon="0.1405">
        <ele>2320.3</ele>
        <time>2021-03-25T14:15:45Z</time>
      </trkpt>
      <trkpt lat="42.86964" lon="0.14049">
        <ele>2320.3</ele>
        <time>2021-03-25T14:15:47Z</time>
      </trkpt>
      <trkpt lat="42.86964" lon="0.14049">
        <ele>2320.3</ele>
        <time>2021-03-25T14:15:49Z</time>
      </trkpt>
      <trkpt lat="42.86964" lon="0.14049">
        <ele>2320.3</ele>
        <time>2021-03-25T14:15:50Z</time>
      </trkpt>
      <trkpt lat="42.86964" lon="0.14049">
        <ele>2320.3</ele>
        <time>2021-03-25T14:15:51Z</time>
      </trkpt>
      <trkpt lat="42.86964" lon="0.14049">
        <ele>2320.3</ele>
        <time>2021-03-25T14:15:52Z</time>
      </trkpt>
      <trkpt lat="42.86964" lon="0.14049">
        <ele>2320.3</ele>
        <time>2021-03-25T14:15:54Z</time>
      </trkpt>
      <trkpt lat="42.86964" lon="0.14049">
        <ele>2320.3</ele>
        <time>2021-03-25T14:15:56Z</time>
      </trkpt>
      <trkpt lat="42.86964" lon="0.14049">
        <ele>2320.3</ele>
        <time>2021-03-25T14:15:58Z</time>
      </trkpt>
      <trkpt lat="42.86964" lon="0.14049">
        <ele>2320.3</ele>
        <time>2021-03-25T14:15:59Z</time>
      </trkpt>
      <trkpt lat="42.86964" lon="0.14049">
        <ele>2320.3</ele>
        <time>2021-03-25T14:16:00Z</time>
      </trkpt>
      <trkpt lat="42.86964" lon="0.14049">
        <ele>2320.3</ele>
        <time>2021-03-25T14:16:01Z</time>
      </trkpt>
      <trkpt lat="42.86964" lon="0.14049">
        <ele>2320.3</ele>
        <time>2021-03-25T14:16:03Z</time>
      </trkpt>
      <trkpt lat="42.86964" lon="0.14049">
        <ele>2320.3</ele>
        <time>2021-03-25T14:16:04Z</time>
      </trkpt>
      <trkpt lat="42.86964" lon="0.14049">
        <ele>2320.3</ele>
        <time>2021-03-25T14:16:05Z</time>
      </trkpt>
      <trkpt lat="42.86964" lon="0.14049">
        <ele>2320.3</ele>
        <time>2021-03-25T14:16:06Z</time>
      </trkpt>
      <trkpt lat="42.86964" lon="0.14049">
        <ele>2320.3</ele>
        <time>2021-03-25T14:16:08Z</time>
      </trkpt>
      <trkpt lat="42.86964" lon="0.14049">
        <ele>2320.3</ele>
        <time>2021-03-25T14:16:09Z</time>
      </trkpt>
      <trkpt lat="42.86964" lon="0.14049">
        <ele>2320.3</ele>
        <time>2021-03-25T14:16:11Z</time>
      </trkpt>
      <trkpt lat="42.86964" lon="0.14049">
        <ele>2320.3</ele>
        <time>2021-03-25T14:16:12Z</time>
      </trkpt>
      <trkpt lat="42.86964" lon="0.14049">
        <ele>2320.3</ele>
        <time>2021-03-25T14:16:13Z</time>
      </trkpt>
      <trkpt lat="42.86964" lon="0.14049">
        <ele>2320.3</ele>
        <time>2021-03-25T14:16:14Z</time>
      </trkpt>
      <trkpt lat="42.86964" lon="0.14049">
        <ele>2320.3</ele>
        <time>2021-03-25T14:16:15Z</time>
      </trkpt>
      <trkpt lat="42.86963" lon="0.1405">
        <ele>2320.3</ele>
        <time>2021-03-25T14:16:17Z</time>
      </trkpt>
      <trkpt lat="42.86963" lon="0.1405">
        <ele>2320.3</ele>
        <time>2021-03-25T14:16:18Z</time>
      </trkpt>
      <trkpt lat="42.86964" lon="0.14051">
        <ele>2320.3</ele>
        <time>2021-03-25T14:16:20Z</time>
      </trkpt>
      <trkpt lat="42.86964" lon="0.14051">
        <ele>2319.7</ele>
        <time>2021-03-25T14:16:21Z</time>
      </trkpt>
      <trkpt lat="42.86965" lon="0.14052">
        <ele>2319.7</ele>
        <time>2021-03-25T14:16:23Z</time>
      </trkpt>
      <trkpt lat="42.86966" lon="0.14053">
        <ele>2319.7</ele>
        <time>2021-03-25T14:16:25Z</time>
      </trkpt>
      <trkpt lat="42.86966" lon="0.14054">
        <ele>2319.7</ele>
        <time>2021-03-25T14:16:27Z</time>
      </trkpt>
      <trkpt lat="42.86966" lon="0.14054">
        <ele>2319.7</ele>
        <time>2021-03-25T14:16:28Z</time>
      </trkpt>
      <trkpt lat="42.86965" lon="0.14055">
        <ele>2319.7</ele>
        <time>2021-03-25T14:16:30Z</time>
      </trkpt>
      <trkpt lat="42.86965" lon="0.14056">
        <ele>2319.7</ele>
        <time>2021-03-25T14:16:31Z</time>
      </trkpt>
      <trkpt lat="42.86965" lon="0.14056">
        <ele>2319.7</ele>
        <time>2021-03-25T14:16:33Z</time>
      </trkpt>
      <trkpt lat="42.86966" lon="0.14057">
        <ele>2319.7</ele>
        <time>2021-03-25T14:16:35Z</time>
      </trkpt>
      <trkpt lat="42.86966" lon="0.14057">
        <ele>2319.7</ele>
        <time>2021-03-25T14:16:36Z</time>
      </trkpt>
      <trkpt lat="42.86966" lon="0.14057">
        <ele>2319.7</ele>
        <time>2021-03-25T14:16:38Z</time>
      </trkpt>
      <trkpt lat="42.86967" lon="0.14057">
        <ele>2319.7</ele>
        <time>2021-03-25T14:16:39Z</time>
      </trkpt>
      <trkpt lat="42.86967" lon="0.14057">
        <ele>2319.7</ele>
        <time>2021-03-25T14:16:40Z</time>
      </trkpt>
      <trkpt lat="42.86967" lon="0.14057">
        <ele>2319.7</ele>
        <time>2021-03-25T14:16:41Z</time>
      </trkpt>
      <trkpt lat="42.86966" lon="0.14057">
        <ele>2319.7</ele>
        <time>2021-03-25T14:16:42Z</time>
      </trkpt>
      <trkpt lat="42.86966" lon="0.14057">
        <ele>2319.7</ele>
        <time>2021-03-25T14:16:43Z</time>
      </trkpt>
      <trkpt lat="42.86966" lon="0.14057">
        <ele>2319.7</ele>
        <time>2021-03-25T14:16:45Z</time>
      </trkpt>
      <trkpt lat="42.86966" lon="0.14057">
        <ele>2319.7</ele>
        <time>2021-03-25T14:16:47Z</time>
      </trkpt>
      <trkpt lat="42.86966" lon="0.14057">
        <ele>2319.7</ele>
        <time>2021-03-25T14:16:48Z</time>
      </trkpt>
      <trkpt lat="42.86966" lon="0.14057">
        <ele>2319.7</ele>
        <time>2021-03-25T14:16:50Z</time>
      </trkpt>
      <trkpt lat="42.86966" lon="0.14057">
        <ele>2319.7</ele>
        <time>2021-03-25T14:16:51Z</time>
      </trkpt>
      <trkpt lat="42.86967" lon="0.14057">
        <ele>2319.7</ele>
        <time>2021-03-25T14:16:52Z</time>
      </trkpt>
      <trkpt lat="42.86967" lon="0.14057">
        <ele>2319.7</ele>
        <time>2021-03-25T14:16:54Z</time>
      </trkpt>
      <trkpt lat="42.86967" lon="0.14057">
        <ele>2319.7</ele>
        <time>2021-03-25T14:16:56Z</time>
      </trkpt>
      <trkpt lat="42.86966" lon="0.14056">
        <ele>2319.7</ele>
        <time>2021-03-25T14:16:57Z</time>
      </trkpt>
      <trkpt lat="42.86966" lon="0.14056">
        <ele>2319.7</ele>
        <time>2021-03-25T14:16:59Z</time>
      </trkpt>
      <trkpt lat="42.86966" lon="0.14056">
        <ele>2319.7</ele>
        <time>2021-03-25T14:17:01Z</time>
      </trkpt>
      <trkpt lat="42.86967" lon="0.14056">
        <ele>2319.7</ele>
        <time>2021-03-25T14:17:02Z</time>
      </trkpt>
      <trkpt lat="42.86967" lon="0.14056">
        <ele>2319.7</ele>
        <time>2021-03-25T14:17:04Z</time>
      </trkpt>
      <trkpt lat="42.86966" lon="0.14056">
        <ele>2319.7</ele>
        <time>2021-03-25T14:17:06Z</time>
      </trkpt>
      <trkpt lat="42.86966" lon="0.14056">
        <ele>2319.7</ele>
        <time>2021-03-25T14:17:07Z</time>
      </trkpt>
      <trkpt lat="42.86965" lon="0.14056">
        <ele>2319.7</ele>
        <time>2021-03-25T14:17:08Z</time>
      </trkpt>
      <trkpt lat="42.86965" lon="0.14056">
        <ele>2319.7</ele>
        <time>2021-03-25T14:17:10Z</time>
      </trkpt>
      <trkpt lat="42.86966" lon="0.14056">
        <ele>2319.7</ele>
        <time>2021-03-25T14:17:11Z</time>
      </trkpt>
      <trkpt lat="42.86966" lon="0.14056">
        <ele>2319.7</ele>
        <time>2021-03-25T14:17:13Z</time>
      </trkpt>
      <trkpt lat="42.86966" lon="0.14055">
        <ele>2319.7</ele>
        <time>2021-03-25T14:17:14Z</time>
      </trkpt>
      <trkpt lat="42.86966" lon="0.14055">
        <ele>2319.7</ele>
        <time>2021-03-25T14:17:16Z</time>
      </trkpt>
      <trkpt lat="42.86966" lon="0.14055">
        <ele>2319.7</ele>
        <time>2021-03-25T14:17:17Z</time>
      </trkpt>
      <trkpt lat="42.86966" lon="0.14055">
        <ele>2319.7</ele>
        <time>2021-03-25T14:17:18Z</time>
      </trkpt>
      <trkpt lat="42.86966" lon="0.14055">
        <ele>2319.7</ele>
        <time>2021-03-25T14:17:20Z</time>
      </trkpt>
      <trkpt lat="42.86966" lon="0.14055">
        <ele>2319.7</ele>
        <time>2021-03-25T14:17:21Z</time>
      </trkpt>
      <trkpt lat="42.86966" lon="0.14055">
        <ele>2319.7</ele>
        <time>2021-03-25T14:17:23Z</time>
      </trkpt>
      <trkpt lat="42.86966" lon="0.14055">
        <ele>2319.7</ele>
        <time>2021-03-25T14:17:25Z</time>
      </trkpt>
      <trkpt lat="42.86966" lon="0.14055">
        <ele>2319.7</ele>
        <time>2021-03-25T14:17:26Z</time>
      </trkpt>
      <trkpt lat="42.86966" lon="0.14055">
        <ele>2319.7</ele>
        <time>2021-03-25T14:17:28Z</time>
      </trkpt>
      <trkpt lat="42.86966" lon="0.14056">
        <ele>2319.7</ele>
        <time>2021-03-25T14:17:30Z</time>
      </trkpt>
      <trkpt lat="42.86966" lon="0.14055">
        <ele>2319.7</ele>
        <time>2021-03-25T14:17:31Z</time>
      </trkpt>
      <trkpt lat="42.86966" lon="0.14056">
        <ele>2319.7</ele>
        <time>2021-03-25T14:17:33Z</time>
      </trkpt>
      <trkpt lat="42.86965" lon="0.14056">
        <ele>2319.7</ele>
        <time>2021-03-25T14:17:34Z</time>
      </trkpt>
      <trkpt lat="42.86965" lon="0.14056">
        <ele>2319.7</ele>
        <time>2021-03-25T14:17:36Z</time>
      </trkpt>
      <trkpt lat="42.86965" lon="0.14056">
        <ele>2319.7</ele>
        <time>2021-03-25T14:17:37Z</time>
      </trkpt>
      <trkpt lat="42.86965" lon="0.14057">
        <ele>2319.7</ele>
        <time>2021-03-25T14:17:38Z</time>
      </trkpt>
      <trkpt lat="42.86964" lon="0.14056">
        <ele>2320.3</ele>
        <time>2021-03-25T14:17:39Z</time>
      </trkpt>
      <trkpt lat="42.86964" lon="0.14056">
        <ele>2319.7</ele>
        <time>2021-03-25T14:17:41Z</time>
      </trkpt>
      <trkpt lat="42.86965" lon="0.14056">
        <ele>2319.7</ele>
        <time>2021-03-25T14:17:42Z</time>
      </trkpt>
      <trkpt lat="42.86966" lon="0.14055">
        <ele>2319.7</ele>
        <time>2021-03-25T14:17:44Z</time>
      </trkpt>
      <trkpt lat="42.86965" lon="0.14055">
        <ele>2319.7</ele>
        <time>2021-03-25T14:17:45Z</time>
      </trkpt>
      <trkpt lat="42.86967" lon="0.14056">
        <ele>2319.7</ele>
        <time>2021-03-25T14:17:47Z</time>
      </trkpt>
      <trkpt lat="42.86968" lon="0.14057">
        <ele>2319</ele>
        <time>2021-03-25T14:17:49Z</time>
      </trkpt>
      <trkpt lat="42.86969" lon="0.14057">
        <ele>2319</ele>
        <time>2021-03-25T14:17:50Z</time>
      </trkpt>
      <trkpt lat="42.86969" lon="0.14057">
        <ele>2319</ele>
        <time>2021-03-25T14:17:51Z</time>
      </trkpt>
      <trkpt lat="42.86969" lon="0.14057">
        <ele>2319</ele>
        <time>2021-03-25T14:17:52Z</time>
      </trkpt>
      <trkpt lat="42.86969" lon="0.14058">
        <ele>2319</ele>
        <time>2021-03-25T14:17:54Z</time>
      </trkpt>
      <trkpt lat="42.8697" lon="0.14058">
        <ele>2319</ele>
        <time>2021-03-25T14:17:55Z</time>
      </trkpt>
      <trkpt lat="42.8697" lon="0.14058">
        <ele>2319</ele>
        <time>2021-03-25T14:17:57Z</time>
      </trkpt>
      <trkpt lat="42.8697" lon="0.14058">
        <ele>2319</ele>
        <time>2021-03-25T14:17:58Z</time>
      </trkpt>
      <trkpt lat="42.8697" lon="0.14058">
        <ele>2319</ele>
        <time>2021-03-25T14:17:59Z</time>
      </trkpt>
      <trkpt lat="42.8697" lon="0.14057">
        <ele>2319</ele>
        <time>2021-03-25T14:18:01Z</time>
      </trkpt>
      <trkpt lat="42.8697" lon="0.14057">
        <ele>2319</ele>
        <time>2021-03-25T14:18:02Z</time>
      </trkpt>
      <trkpt lat="42.86969" lon="0.14057">
        <ele>2319</ele>
        <time>2021-03-25T14:18:04Z</time>
      </trkpt>
      <trkpt lat="42.86969" lon="0.14057">
        <ele>2319</ele>
        <time>2021-03-25T14:18:05Z</time>
      </trkpt>
      <trkpt lat="42.86969" lon="0.14058">
        <ele>2319</ele>
        <time>2021-03-25T14:18:06Z</time>
      </trkpt>
      <trkpt lat="42.86969" lon="0.14058">
        <ele>2319</ele>
        <time>2021-03-25T14:18:08Z</time>
      </trkpt>
      <trkpt lat="42.86969" lon="0.14058">
        <ele>2319</ele>
        <time>2021-03-25T14:18:10Z</time>
      </trkpt>
      <trkpt lat="42.86968" lon="0.14057">
        <ele>2319</ele>
        <time>2021-03-25T14:18:12Z</time>
      </trkpt>
      <trkpt lat="42.86968" lon="0.14057">
        <ele>2319</ele>
        <time>2021-03-25T14:18:13Z</time>
      </trkpt>
      <trkpt lat="42.86968" lon="0.14057">
        <ele>2319</ele>
        <time>2021-03-25T14:18:14Z</time>
      </trkpt>
      <trkpt lat="42.86968" lon="0.14056">
        <ele>2319</ele>
        <time>2021-03-25T14:18:16Z</time>
      </trkpt>
      <trkpt lat="42.86968" lon="0.14057">
        <ele>2319</ele>
        <time>2021-03-25T14:18:17Z</time>
      </trkpt>
      <trkpt lat="42.86967" lon="0.14057">
        <ele>2319.7</ele>
        <time>2021-03-25T14:18:19Z</time>
      </trkpt>
      <trkpt lat="42.86966" lon="0.14057">
        <ele>2319.7</ele>
        <time>2021-03-25T14:18:20Z</time>
      </trkpt>
      <trkpt lat="42.86966" lon="0.14058">
        <ele>2319.7</ele>
        <time>2021-03-25T14:18:22Z</time>
      </trkpt>
      <trkpt lat="42.86966" lon="0.14058">
        <ele>2319.7</ele>
        <time>2021-03-25T14:18:23Z</time>
      </trkpt>
      <trkpt lat="42.86966" lon="0.14059">
        <ele>2319.7</ele>
        <time>2021-03-25T14:18:24Z</time>
      </trkpt>
      <trkpt lat="42.86967" lon="0.14059">
        <ele>2319.7</ele>
        <time>2021-03-25T14:18:25Z</time>
      </trkpt>
      <trkpt lat="42.86967" lon="0.14057">
        <ele>2319.7</ele>
        <time>2021-03-25T14:18:27Z</time>
      </trkpt>
      <trkpt lat="42.86965" lon="0.14056">
        <ele>2319.7</ele>
        <time>2021-03-25T14:18:29Z</time>
      </trkpt>
      <trkpt lat="42.86965" lon="0.14055">
        <ele>2319.7</ele>
        <time>2021-03-25T14:18:30Z</time>
      </trkpt>
      <trkpt lat="42.86965" lon="0.14053">
        <ele>2319.7</ele>
        <time>2021-03-25T14:18:32Z</time>
      </trkpt>
      <trkpt lat="42.86965" lon="0.14052">
        <ele>2319.7</ele>
        <time>2021-03-25T14:18:33Z</time>
      </trkpt>
      <trkpt lat="42.86966" lon="0.14052">
        <ele>2319.7</ele>
        <time>2021-03-25T14:18:35Z</time>
      </trkpt>
      <trkpt lat="42.86966" lon="0.14053">
        <ele>2319.7</ele>
        <time>2021-03-25T14:18:36Z</time>
      </trkpt>
      <trkpt lat="42.86967" lon="0.14054">
        <ele>2319.7</ele>
        <time>2021-03-25T14:18:38Z</time>
      </trkpt>
      <trkpt lat="42.86967" lon="0.14055">
        <ele>2319.7</ele>
        <time>2021-03-25T14:18:39Z</time>
      </trkpt>
      <trkpt lat="42.86968" lon="0.14055">
        <ele>2319</ele>
        <time>2021-03-25T14:18:41Z</time>
      </trkpt>
      <trkpt lat="42.86968" lon="0.14055">
        <ele>2319</ele>
        <time>2021-03-25T14:18:43Z</time>
      </trkpt>
      <trkpt lat="42.86968" lon="0.14055">
        <ele>2319</ele>
        <time>2021-03-25T14:18:45Z</time>
      </trkpt>
      <trkpt lat="42.86968" lon="0.14055">
        <ele>2319</ele>
        <time>2021-03-25T14:18:46Z</time>
      </trkpt>
      <trkpt lat="42.86968" lon="0.14055">
        <ele>2319</ele>
        <time>2021-03-25T14:18:47Z</time>
      </trkpt>
      <trkpt lat="42.86968" lon="0.14055">
        <ele>2319</ele>
        <time>2021-03-25T14:18:48Z</time>
      </trkpt>
      <trkpt lat="42.86968" lon="0.14055">
        <ele>2319</ele>
        <time>2021-03-25T14:18:49Z</time>
      </trkpt>
      <trkpt lat="42.86968" lon="0.14055">
        <ele>2319</ele>
        <time>2021-03-25T14:18:51Z</time>
      </trkpt>
      <trkpt lat="42.86967" lon="0.14055">
        <ele>2319.7</ele>
        <time>2021-03-25T14:18:52Z</time>
      </trkpt>
      <trkpt lat="42.86968" lon="0.14057">
        <ele>2319</ele>
        <time>2021-03-25T14:18:54Z</time>
      </trkpt>
      <trkpt lat="42.86968" lon="0.14057">
        <ele>2319</ele>
        <time>2021-03-25T14:18:56Z</time>
      </trkpt>
      <trkpt lat="42.86968" lon="0.14057">
        <ele>2319</ele>
        <time>2021-03-25T14:18:57Z</time>
      </trkpt>
      <trkpt lat="42.86969" lon="0.14057">
        <ele>2319</ele>
        <time>2021-03-25T14:18:59Z</time>
      </trkpt>
      <trkpt lat="42.86969" lon="0.14057">
        <ele>2319</ele>
        <time>2021-03-25T14:19:00Z</time>
      </trkpt>
      <trkpt lat="42.86969" lon="0.14057">
        <ele>2319</ele>
        <time>2021-03-25T14:19:02Z</time>
      </trkpt>
      <trkpt lat="42.86969" lon="0.14057">
        <ele>2319</ele>
        <time>2021-03-25T14:19:04Z</time>
      </trkpt>
      <trkpt lat="42.86968" lon="0.14057">
        <ele>2319</ele>
        <time>2021-03-25T14:19:05Z</time>
      </trkpt>
      <trkpt lat="42.86969" lon="0.14057">
        <ele>2319</ele>
        <time>2021-03-25T14:19:07Z</time>
      </trkpt>
      <trkpt lat="42.86969" lon="0.14058">
        <ele>2319</ele>
        <time>2021-03-25T14:19:08Z</time>
      </trkpt>
      <trkpt lat="42.8697" lon="0.14058">
        <ele>2319</ele>
        <time>2021-03-25T14:19:10Z</time>
      </trkpt>
      <trkpt lat="42.86971" lon="0.14058">
        <ele>2319</ele>
        <time>2021-03-25T14:19:11Z</time>
      </trkpt>
      <trkpt lat="42.86971" lon="0.14059">
        <ele>2318.3</ele>
        <time>2021-03-25T14:19:13Z</time>
      </trkpt>
      <trkpt lat="42.86971" lon="0.14059">
        <ele>2318.4</ele>
        <time>2021-03-25T14:19:15Z</time>
      </trkpt>
      <trkpt lat="42.86971" lon="0.14059">
        <ele>2319</ele>
        <time>2021-03-25T14:19:16Z</time>
      </trkpt>
      <trkpt lat="42.8697" lon="0.1406">
        <ele>2319</ele>
        <time>2021-03-25T14:19:18Z</time>
      </trkpt>
      <trkpt lat="42.8697" lon="0.1406">
        <ele>2319</ele>
        <time>2021-03-25T14:19:19Z</time>
      </trkpt>
      <trkpt lat="42.86971" lon="0.1406">
        <ele>2318.4</ele>
        <time>2021-03-25T14:19:21Z</time>
      </trkpt>
      <trkpt lat="42.86971" lon="0.1406">
        <ele>2318.4</ele>
        <time>2021-03-25T14:19:22Z</time>
      </trkpt>
      <trkpt lat="42.86971" lon="0.14059">
        <ele>2318.4</ele>
        <time>2021-03-25T14:19:24Z</time>
      </trkpt>
      <trkpt lat="42.86971" lon="0.14059">
        <ele>2318.3</ele>
        <time>2021-03-25T14:19:26Z</time>
      </trkpt>
      <trkpt lat="42.86971" lon="0.14059">
        <ele>2318.3</ele>
        <time>2021-03-25T14:19:28Z</time>
      </trkpt>
      <trkpt lat="42.86972" lon="0.14059">
        <ele>2318.3</ele>
        <time>2021-03-25T14:19:29Z</time>
      </trkpt>
      <trkpt lat="42.86972" lon="0.14058">
        <ele>2318.3</ele>
        <time>2021-03-25T14:19:31Z</time>
      </trkpt>
      <trkpt lat="42.86972" lon="0.14058">
        <ele>2318.3</ele>
        <time>2021-03-25T14:19:33Z</time>
      </trkpt>
      <trkpt lat="42.86973" lon="0.14058">
        <ele>2318.3</ele>
        <time>2021-03-25T14:19:35Z</time>
      </trkpt>
      <trkpt lat="42.86973" lon="0.14058">
        <ele>2318.3</ele>
        <time>2021-03-25T14:19:36Z</time>
      </trkpt>
      <trkpt lat="42.86973" lon="0.14058">
        <ele>2318.3</ele>
        <time>2021-03-25T14:19:37Z</time>
      </trkpt>
      <trkpt lat="42.86973" lon="0.14058">
        <ele>2318.3</ele>
        <time>2021-03-25T14:19:39Z</time>
      </trkpt>
      <trkpt lat="42.86973" lon="0.14058">
        <ele>2318.3</ele>
        <time>2021-03-25T14:19:41Z</time>
      </trkpt>
      <trkpt lat="42.86973" lon="0.14058">
        <ele>2318.3</ele>
        <time>2021-03-25T14:19:42Z</time>
      </trkpt>
      <trkpt lat="42.86973" lon="0.14058">
        <ele>2318.3</ele>
        <time>2021-03-25T14:19:43Z</time>
      </trkpt>
      <trkpt lat="42.86973" lon="0.14058">
        <ele>2318.3</ele>
        <time>2021-03-25T14:19:45Z</time>
      </trkpt>
      <trkpt lat="42.86973" lon="0.14058">
        <ele>2318.3</ele>
        <time>2021-03-25T14:19:47Z</time>
      </trkpt>
      <trkpt lat="42.86973" lon="0.14058">
        <ele>2318.3</ele>
        <time>2021-03-25T14:19:49Z</time>
      </trkpt>
      <trkpt lat="42.86973" lon="0.14058">
        <ele>2318.3</ele>
        <time>2021-03-25T14:19:50Z</time>
      </trkpt>
      <trkpt lat="42.86972" lon="0.14058">
        <ele>2318.3</ele>
        <time>2021-03-25T14:19:51Z</time>
      </trkpt>
      <trkpt lat="42.86973" lon="0.14059">
        <ele>2318.3</ele>
        <time>2021-03-25T14:19:53Z</time>
      </trkpt>
      <trkpt lat="42.86974" lon="0.14058">
        <ele>2318.3</ele>
        <time>2021-03-25T14:19:55Z</time>
      </trkpt>
      <trkpt lat="42.86975" lon="0.14058">
        <ele>2317.7</ele>
        <time>2021-03-25T14:19:57Z</time>
      </trkpt>
      <trkpt lat="42.86975" lon="0.14059">
        <ele>2317.7</ele>
        <time>2021-03-25T14:19:59Z</time>
      </trkpt>
      <trkpt lat="42.86974" lon="0.14059">
        <ele>2317.7</ele>
        <time>2021-03-25T14:20:01Z</time>
      </trkpt>
      <trkpt lat="42.86974" lon="0.14058">
        <ele>2318.3</ele>
        <time>2021-03-25T14:20:02Z</time>
      </trkpt>
      <trkpt lat="42.86973" lon="0.14058">
        <ele>2318.3</ele>
        <time>2021-03-25T14:20:04Z</time>
      </trkpt>
      <trkpt lat="42.86974" lon="0.14058">
        <ele>2318.3</ele>
        <time>2021-03-25T14:20:06Z</time>
      </trkpt>
      <trkpt lat="42.86974" lon="0.14058">
        <ele>2318.3</ele>
        <time>2021-03-25T14:20:07Z</time>
      </trkpt>
      <trkpt lat="42.86974" lon="0.14058">
        <ele>2317.7</ele>
        <time>2021-03-25T14:20:08Z</time>
      </trkpt>
      <trkpt lat="42.86974" lon="0.14058">
        <ele>2317.7</ele>
        <time>2021-03-25T14:20:09Z</time>
      </trkpt>
      <trkpt lat="42.86974" lon="0.14058">
        <ele>2317.7</ele>
        <time>2021-03-25T14:20:10Z</time>
      </trkpt>
      <trkpt lat="42.86974" lon="0.14058">
        <ele>2317.7</ele>
        <time>2021-03-25T14:20:12Z</time>
      </trkpt>
      <trkpt lat="42.86974" lon="0.14058">
        <ele>2317.7</ele>
        <time>2021-03-25T14:20:14Z</time>
      </trkpt>
      <trkpt lat="42.86974" lon="0.14058">
        <ele>2317.7</ele>
        <time>2021-03-25T14:20:15Z</time>
      </trkpt>
      <trkpt lat="42.86974" lon="0.14058">
        <ele>2317.7</ele>
        <time>2021-03-25T14:20:16Z</time>
      </trkpt>
      <trkpt lat="42.86974" lon="0.14058">
        <ele>2317.7</ele>
        <time>2021-03-25T14:20:18Z</time>
      </trkpt>
      <trkpt lat="42.86974" lon="0.14058">
        <ele>2317.7</ele>
        <time>2021-03-25T14:20:19Z</time>
      </trkpt>
      <trkpt lat="42.86974" lon="0.14058">
        <ele>2317.7</ele>
        <time>2021-03-25T14:20:21Z</time>
      </trkpt>
      <trkpt lat="42.86974" lon="0.14058">
        <ele>2317.7</ele>
        <time>2021-03-25T14:20:23Z</time>
      </trkpt>
      <trkpt lat="42.86974" lon="0.14058">
        <ele>2317.7</ele>
        <time>2021-03-25T14:20:24Z</time>
      </trkpt>
      <trkpt lat="42.86974" lon="0.14058">
        <ele>2317.7</ele>
        <time>2021-03-25T14:20:25Z</time>
      </trkpt>
      <trkpt lat="42.86974" lon="0.14058">
        <ele>2317.7</ele>
        <time>2021-03-25T14:20:27Z</time>
      </trkpt>
      <trkpt lat="42.86974" lon="0.14058">
        <ele>2317.7</ele>
        <time>2021-03-25T14:20:29Z</time>
      </trkpt>
      <trkpt lat="42.86974" lon="0.14058">
        <ele>2317.7</ele>
        <time>2021-03-25T14:20:31Z</time>
      </trkpt>
      <trkpt lat="42.86974" lon="0.14058">
        <ele>2317.7</ele>
        <time>2021-03-25T14:20:33Z</time>
      </trkpt>
      <trkpt lat="42.86974" lon="0.14058">
        <ele>2317.7</ele>
        <time>2021-03-25T14:20:34Z</time>
      </trkpt>
      <trkpt lat="42.86974" lon="0.14058">
        <ele>2317.7</ele>
        <time>2021-03-25T14:20:36Z</time>
      </trkpt>
      <trkpt lat="42.86974" lon="0.14058">
        <ele>2317.7</ele>
        <time>2021-03-25T14:20:37Z</time>
      </trkpt>
      <trkpt lat="42.86974" lon="0.14058">
        <ele>2317.7</ele>
        <time>2021-03-25T14:20:39Z</time>
      </trkpt>
      <trkpt lat="42.86974" lon="0.14058">
        <ele>2317.7</ele>
        <time>2021-03-25T14:20:40Z</time>
      </trkpt>
      <trkpt lat="42.86974" lon="0.14058">
        <ele>2317.7</ele>
        <time>2021-03-25T14:20:41Z</time>
      </trkpt>
      <trkpt lat="42.86974" lon="0.14058">
        <ele>2317.7</ele>
        <time>2021-03-25T14:20:43Z</time>
      </trkpt>
      <trkpt lat="42.86974" lon="0.14058">
        <ele>2317.7</ele>
        <time>2021-03-25T14:20:44Z</time>
      </trkpt>
      <trkpt lat="42.86974" lon="0.14058">
        <ele>2317.7</ele>
        <time>2021-03-25T14:20:45Z</time>
      </trkpt>
      <trkpt lat="42.86974" lon="0.14058">
        <ele>2318.3</ele>
        <time>2021-03-25T14:20:47Z</time>
      </trkpt>
      <trkpt lat="42.86973" lon="0.14058">
        <ele>2318.3</ele>
        <time>2021-03-25T14:20:49Z</time>
      </trkpt>
      <trkpt lat="42.86973" lon="0.14058">
        <ele>2318.3</ele>
        <time>2021-03-25T14:20:50Z</time>
      </trkpt>
      <trkpt lat="42.86973" lon="0.14058">
        <ele>2318.3</ele>
        <time>2021-03-25T14:20:52Z</time>
      </trkpt>
      <trkpt lat="42.86973" lon="0.14058">
        <ele>2318.3</ele>
        <time>2021-03-25T14:20:53Z</time>
      </trkpt>
      <trkpt lat="42.86972" lon="0.14058">
        <ele>2318.3</ele>
        <time>2021-03-25T14:20:55Z</time>
      </trkpt>
      <trkpt lat="42.86971" lon="0.14057">
        <ele>2318.3</ele>
        <time>2021-03-25T14:20:56Z</time>
      </trkpt>
      <trkpt lat="42.86971" lon="0.14057">
        <ele>2318.3</ele>
        <time>2021-03-25T14:20:57Z</time>
      </trkpt>
      <trkpt lat="42.86972" lon="0.14057">
        <ele>2318.3</ele>
        <time>2021-03-25T14:20:58Z</time>
      </trkpt>
      <trkpt lat="42.86972" lon="0.14058">
        <ele>2318.3</ele>
        <time>2021-03-25T14:21:00Z</time>
      </trkpt>
      <trkpt lat="42.86972" lon="0.14058">
        <ele>2318.3</ele>
        <time>2021-03-25T14:21:01Z</time>
      </trkpt>
      <trkpt lat="42.86972" lon="0.14058">
        <ele>2318.3</ele>
        <time>2021-03-25T14:21:02Z</time>
      </trkpt>
      <trkpt lat="42.86972" lon="0.14058">
        <ele>2318.3</ele>
        <time>2021-03-25T14:21:03Z</time>
      </trkpt>
      <trkpt lat="42.86972" lon="0.14058">
        <ele>2318.3</ele>
        <time>2021-03-25T14:21:04Z</time>
      </trkpt>
      <trkpt lat="42.86972" lon="0.14058">
        <ele>2318.3</ele>
        <time>2021-03-25T14:21:06Z</time>
      </trkpt>
      <trkpt lat="42.86972" lon="0.14058">
        <ele>2318.3</ele>
        <time>2021-03-25T14:21:07Z</time>
      </trkpt>
      <trkpt lat="42.86972" lon="0.14058">
        <ele>2318.3</ele>
        <time>2021-03-25T14:21:09Z</time>
      </trkpt>
      <trkpt lat="42.86972" lon="0.14058">
        <ele>2318.3</ele>
        <time>2021-03-25T14:21:10Z</time>
      </trkpt>
      <trkpt lat="42.86972" lon="0.14058">
        <ele>2318.3</ele>
        <time>2021-03-25T14:21:11Z</time>
      </trkpt>
      <trkpt lat="42.86972" lon="0.14058">
        <ele>2318.3</ele>
        <time>2021-03-25T14:21:13Z</time>
      </trkpt>
      <trkpt lat="42.86972" lon="0.14058">
        <ele>2318.3</ele>
        <time>2021-03-25T14:21:15Z</time>
      </trkpt>
      <trkpt lat="42.86972" lon="0.14058">
        <ele>2318.3</ele>
        <time>2021-03-25T14:21:17Z</time>
      </trkpt>
      <trkpt lat="42.86972" lon="0.14058">
        <ele>2318.3</ele>
        <time>2021-03-25T14:21:18Z</time>
      </trkpt>
      <trkpt lat="42.86972" lon="0.14058">
        <ele>2318.3</ele>
        <time>2021-03-25T14:21:20Z</time>
      </trkpt>
      <trkpt lat="42.86972" lon="0.14058">
        <ele>2318.3</ele>
        <time>2021-03-25T14:21:21Z</time>
      </trkpt>
      <trkpt lat="42.86972" lon="0.14058">
        <ele>2318.3</ele>
        <time>2021-03-25T14:21:22Z</time>
      </trkpt>
      <trkpt lat="42.86972" lon="0.14058">
        <ele>2318.3</ele>
        <time>2021-03-25T14:21:24Z</time>
      </trkpt>
      <trkpt lat="42.86972" lon="0.14058">
        <ele>2318.3</ele>
        <time>2021-03-25T14:21:25Z</time>
      </trkpt>
      <trkpt lat="42.86971" lon="0.14057">
        <ele>2318.3</ele>
        <time>2021-03-25T14:21:27Z</time>
      </trkpt>
      <trkpt lat="42.86971" lon="0.14057">
        <ele>2318.3</ele>
        <time>2021-03-25T14:21:28Z</time>
      </trkpt>
      <trkpt lat="42.86971" lon="0.14057">
        <ele>2318.3</ele>
        <time>2021-03-25T14:21:30Z</time>
      </trkpt>
      <trkpt lat="42.86971" lon="0.14057">
        <ele>2318.3</ele>
        <time>2021-03-25T14:21:31Z</time>
      </trkpt>
      <trkpt lat="42.86971" lon="0.14057">
        <ele>2318.3</ele>
        <time>2021-03-25T14:21:32Z</time>
      </trkpt>
      <trkpt lat="42.86971" lon="0.14057">
        <ele>2318.3</ele>
        <time>2021-03-25T14:21:34Z</time>
      </trkpt>
      <trkpt lat="42.86971" lon="0.14057">
        <ele>2318.3</ele>
        <time>2021-03-25T14:21:36Z</time>
      </trkpt>
      <trkpt lat="42.86971" lon="0.14057">
        <ele>2318.3</ele>
        <time>2021-03-25T14:21:37Z</time>
      </trkpt>
      <trkpt lat="42.86971" lon="0.14057">
        <ele>2318.3</ele>
        <time>2021-03-25T14:21:39Z</time>
      </trkpt>
      <trkpt lat="42.86971" lon="0.14057">
        <ele>2318.3</ele>
        <time>2021-03-25T14:21:40Z</time>
      </trkpt>
      <trkpt lat="42.86971" lon="0.14057">
        <ele>2318.3</ele>
        <time>2021-03-25T14:21:42Z</time>
      </trkpt>
      <trkpt lat="42.86971" lon="0.14057">
        <ele>2318.3</ele>
        <time>2021-03-25T14:21:43Z</time>
      </trkpt>
      <trkpt lat="42.86971" lon="0.14057">
        <ele>2318.3</ele>
        <time>2021-03-25T14:21:45Z</time>
      </trkpt>
      <trkpt lat="42.86971" lon="0.14057">
        <ele>2318.3</ele>
        <time>2021-03-25T14:21:47Z</time>
      </trkpt>
      <trkpt lat="42.86971" lon="0.14057">
        <ele>2318.3</ele>
        <time>2021-03-25T14:21:48Z</time>
      </trkpt>
      <trkpt lat="42.86971" lon="0.14057">
        <ele>2318.3</ele>
        <time>2021-03-25T14:21:49Z</time>
      </trkpt>
      <trkpt lat="42.86971" lon="0.14057">
        <ele>2318.3</ele>
        <time>2021-03-25T14:21:51Z</time>
      </trkpt>
      <trkpt lat="42.86971" lon="0.14057">
        <ele>2318.3</ele>
        <time>2021-03-25T14:21:53Z</time>
      </trkpt>
      <trkpt lat="42.86971" lon="0.14057">
        <ele>2318.3</ele>
        <time>2021-03-25T14:21:55Z</time>
      </trkpt>
      <trkpt lat="42.86971" lon="0.14057">
        <ele>2318.3</ele>
        <time>2021-03-25T14:21:56Z</time>
      </trkpt>
      <trkpt lat="42.86971" lon="0.14057">
        <ele>2318.3</ele>
        <time>2021-03-25T14:21:57Z</time>
      </trkpt>
      <trkpt lat="42.86971" lon="0.14057">
        <ele>2318.3</ele>
        <time>2021-03-25T14:21:59Z</time>
      </trkpt>
      <trkpt lat="42.86971" lon="0.14057">
        <ele>2318.3</ele>
        <time>2021-03-25T14:22:00Z</time>
      </trkpt>
      <trkpt lat="42.86971" lon="0.14057">
        <ele>2318.3</ele>
        <time>2021-03-25T14:22:02Z</time>
      </trkpt>
      <trkpt lat="42.86971" lon="0.14057">
        <ele>2318.3</ele>
        <time>2021-03-25T14:22:03Z</time>
      </trkpt>
      <trkpt lat="42.86971" lon="0.14057">
        <ele>2318.3</ele>
        <time>2021-03-25T14:22:05Z</time>
      </trkpt>
      <trkpt lat="42.86971" lon="0.14057">
        <ele>2318.3</ele>
        <time>2021-03-25T14:22:06Z</time>
      </trkpt>
      <trkpt lat="42.86972" lon="0.14057">
        <ele>2318.3</ele>
        <time>2021-03-25T14:22:08Z</time>
      </trkpt>
      <trkpt lat="42.86972" lon="0.14057">
        <ele>2318.3</ele>
        <time>2021-03-25T14:22:10Z</time>
      </trkpt>
      <trkpt lat="42.86972" lon="0.14057">
        <ele>2318.3</ele>
        <time>2021-03-25T14:22:11Z</time>
      </trkpt>
      <trkpt lat="42.86972" lon="0.14057">
        <ele>2318.3</ele>
        <time>2021-03-25T14:22:12Z</time>
      </trkpt>
      <trkpt lat="42.86971" lon="0.14057">
        <ele>2318.3</ele>
        <time>2021-03-25T14:22:14Z</time>
      </trkpt>
      <trkpt lat="42.86971" lon="0.14057">
        <ele>2318.3</ele>
        <time>2021-03-25T14:22:16Z</time>
      </trkpt>
      <trkpt lat="42.86971" lon="0.14057">
        <ele>2318.3</ele>
        <time>2021-03-25T14:22:17Z</time>
      </trkpt>
      <trkpt lat="42.86971" lon="0.14057">
        <ele>2318.3</ele>
        <time>2021-03-25T14:22:19Z</time>
      </trkpt>
      <trkpt lat="42.86971" lon="0.14057">
        <ele>2318.3</ele>
        <time>2021-03-25T14:22:21Z</time>
      </trkpt>
      <trkpt lat="42.86971" lon="0.14057">
        <ele>2318.3</ele>
        <time>2021-03-25T14:22:23Z</time>
      </trkpt>
      <trkpt lat="42.86971" lon="0.14057">
        <ele>2318.3</ele>
        <time>2021-03-25T14:22:25Z</time>
      </trkpt>
      <trkpt lat="42.86971" lon="0.14057">
        <ele>2318.3</ele>
        <time>2021-03-25T14:22:26Z</time>
      </trkpt>
      <trkpt lat="42.86971" lon="0.14057">
        <ele>2318.3</ele>
        <time>2021-03-25T14:22:27Z</time>
      </trkpt>
      <trkpt lat="42.86971" lon="0.14057">
        <ele>2318.3</ele>
        <time>2021-03-25T14:22:28Z</time>
      </trkpt>
      <trkpt lat="42.86971" lon="0.14057">
        <ele>2318.3</ele>
        <time>2021-03-25T14:22:30Z</time>
      </trkpt>
      <trkpt lat="42.86971" lon="0.14057">
        <ele>2318.3</ele>
        <time>2021-03-25T14:22:31Z</time>
      </trkpt>
      <trkpt lat="42.86971" lon="0.14057">
        <ele>2318.3</ele>
        <time>2021-03-25T14:22:32Z</time>
      </trkpt>
      <trkpt lat="42.86971" lon="0.14057">
        <ele>2318.3</ele>
        <time>2021-03-25T14:22:34Z</time>
      </trkpt>
      <trkpt lat="42.86971" lon="0.14057">
        <ele>2318.3</ele>
        <time>2021-03-25T14:22:35Z</time>
      </trkpt>
      <trkpt lat="42.86971" lon="0.14057">
        <ele>2318.3</ele>
        <time>2021-03-25T14:22:37Z</time>
      </trkpt>
      <trkpt lat="42.86971" lon="0.14057">
        <ele>2318.3</ele>
        <time>2021-03-25T14:22:38Z</time>
      </trkpt>
      <trkpt lat="42.86971" lon="0.14057">
        <ele>2318.3</ele>
        <time>2021-03-25T14:22:39Z</time>
      </trkpt>
      <trkpt lat="42.86971" lon="0.14057">
        <ele>2318.3</ele>
        <time>2021-03-25T14:22:40Z</time>
      </trkpt>
      <trkpt lat="42.86971" lon="0.14057">
        <ele>2318.3</ele>
        <time>2021-03-25T14:22:41Z</time>
      </trkpt>
      <trkpt lat="42.86971" lon="0.14057">
        <ele>2318.3</ele>
        <time>2021-03-25T14:22:43Z</time>
      </trkpt>
      <trkpt lat="42.86971" lon="0.14057">
        <ele>2318.3</ele>
        <time>2021-03-25T14:22:45Z</time>
      </trkpt>
      <trkpt lat="42.86971" lon="0.14057">
        <ele>2318.3</ele>
        <time>2021-03-25T14:22:47Z</time>
      </trkpt>
      <trkpt lat="42.86971" lon="0.14057">
        <ele>2318.3</ele>
        <time>2021-03-25T14:22:49Z</time>
      </trkpt>
      <trkpt lat="42.86971" lon="0.14057">
        <ele>2318.3</ele>
        <time>2021-03-25T14:22:51Z</time>
      </trkpt>
      <trkpt lat="42.86971" lon="0.14057">
        <ele>2318.3</ele>
        <time>2021-03-25T14:22:53Z</time>
      </trkpt>
      <trkpt lat="42.86971" lon="0.14057">
        <ele>2318.3</ele>
        <time>2021-03-25T14:22:54Z</time>
      </trkpt>
      <trkpt lat="42.86971" lon="0.14057">
        <ele>2318.3</ele>
        <time>2021-03-25T14:22:55Z</time>
      </trkpt>
      <trkpt lat="42.86971" lon="0.14057">
        <ele>2318.3</ele>
        <time>2021-03-25T14:22:57Z</time>
      </trkpt>
      <trkpt lat="42.86971" lon="0.14057">
        <ele>2318.3</ele>
        <time>2021-03-25T14:22:59Z</time>
      </trkpt>
      <trkpt lat="42.86971" lon="0.14057">
        <ele>2318.3</ele>
        <time>2021-03-25T14:23:00Z</time>
      </trkpt>
      <trkpt lat="42.86971" lon="0.14057">
        <ele>2318.3</ele>
        <time>2021-03-25T14:23:02Z</time>
      </trkpt>
      <trkpt lat="42.86971" lon="0.14057">
        <ele>2318.3</ele>
        <time>2021-03-25T14:23:03Z</time>
      </trkpt>
      <trkpt lat="42.86971" lon="0.14057">
        <ele>2318.3</ele>
        <time>2021-03-25T14:23:05Z</time>
      </trkpt>
      <trkpt lat="42.86971" lon="0.14057">
        <ele>2318.3</ele>
        <time>2021-03-25T14:23:07Z</time>
      </trkpt>
      <trkpt lat="42.86971" lon="0.14057">
        <ele>2318.3</ele>
        <time>2021-03-25T14:23:08Z</time>
      </trkpt>
      <trkpt lat="42.86971" lon="0.14057">
        <ele>2318.3</ele>
        <time>2021-03-25T14:23:10Z</time>
      </trkpt>
      <trkpt lat="42.86971" lon="0.14057">
        <ele>2318.3</ele>
        <time>2021-03-25T14:23:11Z</time>
      </trkpt>
      <trkpt lat="42.86971" lon="0.14057">
        <ele>2318.3</ele>
        <time>2021-03-25T14:23:12Z</time>
      </trkpt>
      <trkpt lat="42.86971" lon="0.14057">
        <ele>2318.3</ele>
        <time>2021-03-25T14:23:14Z</time>
      </trkpt>
      <trkpt lat="42.86971" lon="0.14057">
        <ele>2318.3</ele>
        <time>2021-03-25T14:23:16Z</time>
      </trkpt>
      <trkpt lat="42.86971" lon="0.14057">
        <ele>2318.3</ele>
        <time>2021-03-25T14:23:18Z</time>
      </trkpt>
      <trkpt lat="42.8697" lon="0.14056">
        <ele>2319</ele>
        <time>2021-03-25T14:23:20Z</time>
      </trkpt>
      <trkpt lat="42.86969" lon="0.14055">
        <ele>2319</ele>
        <time>2021-03-25T14:23:21Z</time>
      </trkpt>
      <trkpt lat="42.86968" lon="0.14054">
        <ele>2319</ele>
        <time>2021-03-25T14:23:22Z</time>
      </trkpt>
      <trkpt lat="42.86966" lon="0.14055">
        <ele>2319.7</ele>
        <time>2021-03-25T14:23:24Z</time>
      </trkpt>
      <trkpt lat="42.86966" lon="0.14055">
        <ele>2319.7</ele>
        <time>2021-03-25T14:23:25Z</time>
      </trkpt>
      <trkpt lat="42.86967" lon="0.14056">
        <ele>2319.7</ele>
        <time>2021-03-25T14:23:26Z</time>
      </trkpt>
      <trkpt lat="42.86969" lon="0.14057">
        <ele>2319</ele>
        <time>2021-03-25T14:23:28Z</time>
      </trkpt>
      <trkpt lat="42.8697" lon="0.14058">
        <ele>2319</ele>
        <time>2021-03-25T14:23:30Z</time>
      </trkpt>
      <trkpt lat="42.8697" lon="0.14057">
        <ele>2319</ele>
        <time>2021-03-25T14:23:32Z</time>
      </trkpt>
      <trkpt lat="42.86969" lon="0.14057">
        <ele>2319</ele>
        <time>2021-03-25T14:23:33Z</time>
      </trkpt>
      <trkpt lat="42.86969" lon="0.14057">
        <ele>2319</ele>
        <time>2021-03-25T14:23:34Z</time>
      </trkpt>
      <trkpt lat="42.86968" lon="0.14057">
        <ele>2319</ele>
        <time>2021-03-25T14:23:36Z</time>
      </trkpt>
      <trkpt lat="42.86968" lon="0.14057">
        <ele>2319</ele>
        <time>2021-03-25T14:23:37Z</time>
      </trkpt>
      <trkpt lat="42.86968" lon="0.14057">
        <ele>2319</ele>
        <time>2021-03-25T14:23:38Z</time>
      </trkpt>
      <trkpt lat="42.86968" lon="0.14058">
        <ele>2319</ele>
        <time>2021-03-25T14:23:40Z</time>
      </trkpt>
      <trkpt lat="42.86968" lon="0.14058">
        <ele>2319</ele>
        <time>2021-03-25T14:23:42Z</time>
      </trkpt>
      <trkpt lat="42.86968" lon="0.14058">
        <ele>2319</ele>
        <time>2021-03-25T14:23:43Z</time>
      </trkpt>
      <trkpt lat="42.86968" lon="0.14058">
        <ele>2319</ele>
        <time>2021-03-25T14:23:44Z</time>
      </trkpt>
      <trkpt lat="42.86968" lon="0.14059">
        <ele>2319</ele>
        <time>2021-03-25T14:23:46Z</time>
      </trkpt>
      <trkpt lat="42.86967" lon="0.14059">
        <ele>2319.7</ele>
        <time>2021-03-25T14:23:48Z</time>
      </trkpt>
      <trkpt lat="42.86967" lon="0.14059">
        <ele>2319.7</ele>
        <time>2021-03-25T14:23:49Z</time>
      </trkpt>
      <trkpt lat="42.86967" lon="0.14059">
        <ele>2319.7</ele>
        <time>2021-03-25T14:23:51Z</time>
      </trkpt>
      <trkpt lat="42.86967" lon="0.14059">
        <ele>2319.7</ele>
        <time>2021-03-25T14:23:52Z</time>
      </trkpt>
      <trkpt lat="42.86967" lon="0.14059">
        <ele>2319.7</ele>
        <time>2021-03-25T14:23:54Z</time>
      </trkpt>
      <trkpt lat="42.86967" lon="0.14059">
        <ele>2319.7</ele>
        <time>2021-03-25T14:23:55Z</time>
      </trkpt>
      <trkpt lat="42.86966" lon="0.14059">
        <ele>2319.7</ele>
        <time>2021-03-25T14:23:57Z</time>
      </trkpt>
      <trkpt lat="42.86966" lon="0.14061">
        <ele>2319.7</ele>
        <time>2021-03-25T14:23:59Z</time>
      </trkpt>
      <trkpt lat="42.86965" lon="0.14062">
        <ele>2319.7</ele>
        <time>2021-03-25T14:24:00Z</time>
      </trkpt>
      <trkpt lat="42.86965" lon="0.14063">
        <ele>2319.7</ele>
        <time>2021-03-25T14:24:01Z</time>
      </trkpt>
      <trkpt lat="42.86964" lon="0.14064">
        <ele>2320.3</ele>
        <time>2021-03-25T14:24:02Z</time>
      </trkpt>
      <trkpt lat="42.86963" lon="0.14064">
        <ele>2320.3</ele>
        <time>2021-03-25T14:24:04Z</time>
      </trkpt>
      <trkpt lat="42.86962" lon="0.14066">
        <ele>2320.3</ele>
        <time>2021-03-25T14:24:06Z</time>
      </trkpt>
      <trkpt lat="42.86962" lon="0.14067">
        <ele>2320.3</ele>
        <time>2021-03-25T14:24:07Z</time>
      </trkpt>
      <trkpt lat="42.86961" lon="0.14069">
        <ele>2320.9</ele>
        <time>2021-03-25T14:24:09Z</time>
      </trkpt>
      <trkpt lat="42.86959" lon="0.14074">
        <ele>2320.9</ele>
        <time>2021-03-25T14:24:11Z</time>
      </trkpt>
      <trkpt lat="42.86958" lon="0.14077">
        <ele>2321.4</ele>
        <time>2021-03-25T14:24:12Z</time>
      </trkpt>
      <trkpt lat="42.86957" lon="0.14078">
        <ele>2321.4</ele>
        <time>2021-03-25T14:24:13Z</time>
      </trkpt>
      <trkpt lat="42.86957" lon="0.1408">
        <ele>2321.4</ele>
        <time>2021-03-25T14:24:14Z</time>
      </trkpt>
      <trkpt lat="42.86955" lon="0.14084">
        <ele>2321.9</ele>
        <time>2021-03-25T14:24:16Z</time>
      </trkpt>
      <trkpt lat="42.86954" lon="0.14085">
        <ele>2321.9</ele>
        <time>2021-03-25T14:24:17Z</time>
      </trkpt>
      <trkpt lat="42.86952" lon="0.14087">
        <ele>2321.9</ele>
        <time>2021-03-25T14:24:18Z</time>
      </trkpt>
      <trkpt lat="42.86951" lon="0.14089">
        <ele>2322.4</ele>
        <time>2021-03-25T14:24:20Z</time>
      </trkpt>
      <trkpt lat="42.8695" lon="0.14091">
        <ele>2322.4</ele>
        <time>2021-03-25T14:24:22Z</time>
      </trkpt>
      <trkpt lat="42.86949" lon="0.14093">
        <ele>2322.4</ele>
        <time>2021-03-25T14:24:23Z</time>
      </trkpt>
      <trkpt lat="42.86949" lon="0.14095">
        <ele>2322.4</ele>
        <time>2021-03-25T14:24:24Z</time>
      </trkpt>
      <trkpt lat="42.86949" lon="0.14096">
        <ele>2322.4</ele>
        <time>2021-03-25T14:24:25Z</time>
      </trkpt>
      <trkpt lat="42.86948" lon="0.14099">
        <ele>2322.9</ele>
        <time>2021-03-25T14:24:27Z</time>
      </trkpt>
      <trkpt lat="42.86948" lon="0.14102">
        <ele>2322.9</ele>
        <time>2021-03-25T14:24:28Z</time>
      </trkpt>
      <trkpt lat="42.86947" lon="0.14103">
        <ele>2322.9</ele>
        <time>2021-03-25T14:24:29Z</time>
      </trkpt>
      <trkpt lat="42.86947" lon="0.14106">
        <ele>2322.9</ele>
        <time>2021-03-25T14:24:31Z</time>
      </trkpt>
      <trkpt lat="42.86946" lon="0.14109">
        <ele>2322.9</ele>
        <time>2021-03-25T14:24:33Z</time>
      </trkpt>
      <trkpt lat="42.86946" lon="0.14111">
        <ele>2322.8</ele>
        <time>2021-03-25T14:24:34Z</time>
      </trkpt>
      <trkpt lat="42.86945" lon="0.14112">
        <ele>2323.3</ele>
        <time>2021-03-25T14:24:36Z</time>
      </trkpt>
      <trkpt lat="42.86944" lon="0.14114">
        <ele>2323.3</ele>
        <time>2021-03-25T14:24:37Z</time>
      </trkpt>
      <trkpt lat="42.86944" lon="0.14115">
        <ele>2323.3</ele>
        <time>2021-03-25T14:24:38Z</time>
      </trkpt>
      <trkpt lat="42.86944" lon="0.14116">
        <ele>2323.2</ele>
        <time>2021-03-25T14:24:40Z</time>
      </trkpt>
      <trkpt lat="42.86943" lon="0.14118">
        <ele>2323.2</ele>
        <time>2021-03-25T14:24:41Z</time>
      </trkpt>
      <trkpt lat="42.86943" lon="0.14119">
        <ele>2323.2</ele>
        <time>2021-03-25T14:24:42Z</time>
      </trkpt>
      <trkpt lat="42.86944" lon="0.1412">
        <ele>2323.1</ele>
        <time>2021-03-25T14:24:43Z</time>
      </trkpt>
      <trkpt lat="42.86944" lon="0.14122">
        <ele>2323.1</ele>
        <time>2021-03-25T14:24:45Z</time>
      </trkpt>
      <trkpt lat="42.86944" lon="0.14124">
        <ele>2323</ele>
        <time>2021-03-25T14:24:46Z</time>
      </trkpt>
      <trkpt lat="42.86944" lon="0.14126">
        <ele>2323</ele>
        <time>2021-03-25T14:24:48Z</time>
      </trkpt>
      <trkpt lat="42.86944" lon="0.14128">
        <ele>2322.9</ele>
        <time>2021-03-25T14:24:49Z</time>
      </trkpt>
      <trkpt lat="42.86943" lon="0.1413">
        <ele>2322.9</ele>
        <time>2021-03-25T14:24:51Z</time>
      </trkpt>
      <trkpt lat="42.86943" lon="0.14132">
        <ele>2322.9</ele>
        <time>2021-03-25T14:24:52Z</time>
      </trkpt>
      <trkpt lat="42.86943" lon="0.14134">
        <ele>2322.7</ele>
        <time>2021-03-25T14:24:54Z</time>
      </trkpt>
      <trkpt lat="42.86943" lon="0.14136">
        <ele>2322.7</ele>
        <time>2021-03-25T14:24:55Z</time>
      </trkpt>
      <trkpt lat="42.86944" lon="0.14137">
        <ele>2322.6</ele>
        <time>2021-03-25T14:24:57Z</time>
      </trkpt>
      <trkpt lat="42.86944" lon="0.14139">
        <ele>2322.6</ele>
        <time>2021-03-25T14:24:58Z</time>
      </trkpt>
      <trkpt lat="42.86944" lon="0.14139">
        <ele>2322.6</ele>
        <time>2021-03-25T14:24:59Z</time>
      </trkpt>
      <trkpt lat="42.86944" lon="0.14141">
        <ele>2322.6</ele>
        <time>2021-03-25T14:25:01Z</time>
      </trkpt>
      <trkpt lat="42.86944" lon="0.14142">
        <ele>2322.3</ele>
        <time>2021-03-25T14:25:02Z</time>
      </trkpt>
      <trkpt lat="42.86945" lon="0.14143">
        <ele>2322.3</ele>
        <time>2021-03-25T14:25:03Z</time>
      </trkpt>
      <trkpt lat="42.86945" lon="0.14144">
        <ele>2322.3</ele>
        <time>2021-03-25T14:25:05Z</time>
      </trkpt>
      <trkpt lat="42.86945" lon="0.14146">
        <ele>2322.1</ele>
        <time>2021-03-25T14:25:06Z</time>
      </trkpt>
      <trkpt lat="42.86946" lon="0.14147">
        <ele>2321.6</ele>
        <time>2021-03-25T14:25:07Z</time>
      </trkpt>
      <trkpt lat="42.86946" lon="0.14149">
        <ele>2321.6</ele>
        <time>2021-03-25T14:25:08Z</time>
      </trkpt>
      <trkpt lat="42.86946" lon="0.1415">
        <ele>2321.3</ele>
        <time>2021-03-25T14:25:09Z</time>
      </trkpt>
      <trkpt lat="42.86946" lon="0.14151">
        <ele>2321.2</ele>
        <time>2021-03-25T14:25:11Z</time>
      </trkpt>
      <trkpt lat="42.86947" lon="0.14153">
        <ele>2321.1</ele>
        <time>2021-03-25T14:25:12Z</time>
      </trkpt>
      <trkpt lat="42.86947" lon="0.14154">
        <ele>2320.8</ele>
        <time>2021-03-25T14:25:14Z</time>
      </trkpt>
      <trkpt lat="42.86948" lon="0.14156">
        <ele>2320.7</ele>
        <time>2021-03-25T14:25:15Z</time>
      </trkpt>
      <trkpt lat="42.86948" lon="0.14157">
        <ele>2320.6</ele>
        <time>2021-03-25T14:25:17Z</time>
      </trkpt>
      <trkpt lat="42.86949" lon="0.1416">
        <ele>2319.7</ele>
        <time>2021-03-25T14:25:18Z</time>
      </trkpt>
      <trkpt lat="42.86949" lon="0.14161">
        <ele>2319.6</ele>
        <time>2021-03-25T14:25:19Z</time>
      </trkpt>
      <trkpt lat="42.86949" lon="0.14163">
        <ele>2319.2</ele>
        <time>2021-03-25T14:25:21Z</time>
      </trkpt>
      <trkpt lat="42.86949" lon="0.14165">
        <ele>2319.1</ele>
        <time>2021-03-25T14:25:22Z</time>
      </trkpt>
      <trkpt lat="42.86949" lon="0.14168">
        <ele>2318.6</ele>
        <time>2021-03-25T14:25:23Z</time>
      </trkpt>
      <trkpt lat="42.86949" lon="0.14171">
        <ele>2318.2</ele>
        <time>2021-03-25T14:25:25Z</time>
      </trkpt>
      <trkpt lat="42.86949" lon="0.14173">
        <ele>2318.1</ele>
        <time>2021-03-25T14:25:26Z</time>
      </trkpt>
      <trkpt lat="42.86948" lon="0.14175">
        <ele>2318.5</ele>
        <time>2021-03-25T14:25:28Z</time>
      </trkpt>
      <trkpt lat="42.86948" lon="0.14176">
        <ele>2318.1</ele>
        <time>2021-03-25T14:25:29Z</time>
      </trkpt>
      <trkpt lat="42.86947" lon="0.14177">
        <ele>2318</ele>
        <time>2021-03-25T14:25:30Z</time>
      </trkpt>
      <trkpt lat="42.86946" lon="0.14178">
        <ele>2317.9</ele>
        <time>2021-03-25T14:25:32Z</time>
      </trkpt>
      <trkpt lat="42.86945" lon="0.14179">
        <ele>2318.3</ele>
        <time>2021-03-25T14:25:34Z</time>
      </trkpt>
      <trkpt lat="42.86945" lon="0.14179">
        <ele>2317.9</ele>
        <time>2021-03-25T14:25:35Z</time>
      </trkpt>
      <trkpt lat="42.86944" lon="0.1418">
        <ele>2317.8</ele>
        <time>2021-03-25T14:25:37Z</time>
      </trkpt>
      <trkpt lat="42.86943" lon="0.14179">
        <ele>2317.7</ele>
        <time>2021-03-25T14:25:38Z</time>
      </trkpt>
      <trkpt lat="42.86943" lon="0.14179">
        <ele>2317.6</ele>
        <time>2021-03-25T14:25:40Z</time>
      </trkpt>
      <trkpt lat="42.86942" lon="0.14179">
        <ele>2318.1</ele>
        <time>2021-03-25T14:25:42Z</time>
      </trkpt>
      <trkpt lat="42.86941" lon="0.14179">
        <ele>2318.3</ele>
        <time>2021-03-25T14:25:44Z</time>
      </trkpt>
      <trkpt lat="42.8694" lon="0.14179">
        <ele>2318.2</ele>
        <time>2021-03-25T14:25:45Z</time>
      </trkpt>
      <trkpt lat="42.86939" lon="0.14179">
        <ele>2317.8</ele>
        <time>2021-03-25T14:25:46Z</time>
      </trkpt>
      <trkpt lat="42.86937" lon="0.1418">
        <ele>2318.2</ele>
        <time>2021-03-25T14:25:48Z</time>
      </trkpt>
      <trkpt lat="42.86936" lon="0.1418">
        <ele>2318.1</ele>
        <time>2021-03-25T14:25:50Z</time>
      </trkpt>
      <trkpt lat="42.86936" lon="0.14181">
        <ele>2318.5</ele>
        <time>2021-03-25T14:25:51Z</time>
      </trkpt>
      <trkpt lat="42.86935" lon="0.14181">
        <ele>2318.4</ele>
        <time>2021-03-25T14:25:53Z</time>
      </trkpt>
      <trkpt lat="42.86934" lon="0.14183">
        <ele>2318.3</ele>
        <time>2021-03-25T14:25:55Z</time>
      </trkpt>
      <trkpt lat="42.86934" lon="0.14183">
        <ele>2318.2</ele>
        <time>2021-03-25T14:25:56Z</time>
      </trkpt>
      <trkpt lat="42.86934" lon="0.14183">
        <ele>2318.1</ele>
        <time>2021-03-25T14:25:58Z</time>
      </trkpt>
      <trkpt lat="42.86934" lon="0.14183">
        <ele>2318</ele>
        <time>2021-03-25T14:25:59Z</time>
      </trkpt>
      <trkpt lat="42.86933" lon="0.14184">
        <ele>2317.6</ele>
        <time>2021-03-25T14:26:01Z</time>
      </trkpt>
      <trkpt lat="42.86932" lon="0.14185">
        <ele>2317.9</ele>
        <time>2021-03-25T14:26:02Z</time>
      </trkpt>
      <trkpt lat="42.86932" lon="0.14186">
        <ele>2317.8</ele>
        <time>2021-03-25T14:26:04Z</time>
      </trkpt>
      <trkpt lat="42.86931" lon="0.14186">
        <ele>2317.7</ele>
        <time>2021-03-25T14:26:05Z</time>
      </trkpt>
      <trkpt lat="42.86931" lon="0.14187">
        <ele>2317.6</ele>
        <time>2021-03-25T14:26:06Z</time>
      </trkpt>
      <trkpt lat="42.86929" lon="0.14188">
        <ele>2317.6</ele>
        <time>2021-03-25T14:26:07Z</time>
      </trkpt>
      <trkpt lat="42.86928" lon="0.14189">
        <ele>2317.5</ele>
        <time>2021-03-25T14:26:09Z</time>
      </trkpt>
      <trkpt lat="42.86927" lon="0.1419">
        <ele>2317.4</ele>
        <time>2021-03-25T14:26:10Z</time>
      </trkpt>
      <trkpt lat="42.86926" lon="0.1419">
        <ele>2317.7</ele>
        <time>2021-03-25T14:26:12Z</time>
      </trkpt>
      <trkpt lat="42.86925" lon="0.14191">
        <ele>2317.6</ele>
        <time>2021-03-25T14:26:14Z</time>
      </trkpt>
      <trkpt lat="42.86923" lon="0.14192">
        <ele>2318</ele>
        <time>2021-03-25T14:26:16Z</time>
      </trkpt>
      <trkpt lat="42.86922" lon="0.14192">
        <ele>2317.5</ele>
        <time>2021-03-25T14:26:17Z</time>
      </trkpt>
      <trkpt lat="42.86921" lon="0.14193">
        <ele>2317.4</ele>
        <time>2021-03-25T14:26:18Z</time>
      </trkpt>
      <trkpt lat="42.8692" lon="0.14193">
        <ele>2317.8</ele>
        <time>2021-03-25T14:26:20Z</time>
      </trkpt>
      <trkpt lat="42.86919" lon="0.14194">
        <ele>2317.7</ele>
        <time>2021-03-25T14:26:21Z</time>
      </trkpt>
      <trkpt lat="42.86918" lon="0.14195">
        <ele>2317.6</ele>
        <time>2021-03-25T14:26:23Z</time>
      </trkpt>
      <trkpt lat="42.86917" lon="0.14195">
        <ele>2317.5</ele>
        <time>2021-03-25T14:26:24Z</time>
      </trkpt>
      <trkpt lat="42.86916" lon="0.14196">
        <ele>2317.9</ele>
        <time>2021-03-25T14:26:26Z</time>
      </trkpt>
      <trkpt lat="42.86915" lon="0.14197">
        <ele>2317.4</ele>
        <time>2021-03-25T14:26:28Z</time>
      </trkpt>
      <trkpt lat="42.86915" lon="0.14197">
        <ele>2317.3</ele>
        <time>2021-03-25T14:26:29Z</time>
      </trkpt>
      <trkpt lat="42.86914" lon="0.14198">
        <ele>2317.2</ele>
        <time>2021-03-25T14:26:30Z</time>
      </trkpt>
      <trkpt lat="42.86914" lon="0.14198">
        <ele>2317.6</ele>
        <time>2021-03-25T14:26:31Z</time>
      </trkpt>
      <trkpt lat="42.86913" lon="0.14199">
        <ele>2317.5</ele>
        <time>2021-03-25T14:26:33Z</time>
      </trkpt>
      <trkpt lat="42.86912" lon="0.142">
        <ele>2317.4</ele>
        <time>2021-03-25T14:26:35Z</time>
      </trkpt>
      <trkpt lat="42.86911" lon="0.14201">
        <ele>2316.9</ele>
        <time>2021-03-25T14:26:36Z</time>
      </trkpt>
      <trkpt lat="42.8691" lon="0.14202">
        <ele>2317.3</ele>
        <time>2021-03-25T14:26:38Z</time>
      </trkpt>
      <trkpt lat="42.8691" lon="0.14203">
        <ele>2317.2</ele>
        <time>2021-03-25T14:26:39Z</time>
      </trkpt>
      <trkpt lat="42.86909" lon="0.14204">
        <ele>2317.1</ele>
        <time>2021-03-25T14:26:41Z</time>
      </trkpt>
      <trkpt lat="42.86909" lon="0.14206">
        <ele>2316.6</ele>
        <time>2021-03-25T14:26:42Z</time>
      </trkpt>
      <trkpt lat="42.86908" lon="0.14207">
        <ele>2316.5</ele>
        <time>2021-03-25T14:26:44Z</time>
      </trkpt>
      <trkpt lat="42.86908" lon="0.14209">
        <ele>2316.4</ele>
        <time>2021-03-25T14:26:45Z</time>
      </trkpt>
      <trkpt lat="42.86908" lon="0.14209">
        <ele>2316.3</ele>
        <time>2021-03-25T14:26:46Z</time>
      </trkpt>
      <trkpt lat="42.86908" lon="0.1421">
        <ele>2316.2</ele>
        <time>2021-03-25T14:26:47Z</time>
      </trkpt>
      <trkpt lat="42.86908" lon="0.14211">
        <ele>2316.1</ele>
        <time>2021-03-25T14:26:48Z</time>
      </trkpt>
      <trkpt lat="42.86907" lon="0.14213">
        <ele>2316</ele>
        <time>2021-03-25T14:26:50Z</time>
      </trkpt>
      <trkpt lat="42.86907" lon="0.14214">
        <ele>2315.5</ele>
        <time>2021-03-25T14:26:52Z</time>
      </trkpt>
      <trkpt lat="42.86907" lon="0.14215">
        <ele>2315.4</ele>
        <time>2021-03-25T14:26:53Z</time>
      </trkpt>
      <trkpt lat="42.86906" lon="0.14216">
        <ele>2315.3</ele>
        <time>2021-03-25T14:26:55Z</time>
      </trkpt>
      <trkpt lat="42.86906" lon="0.14218">
        <ele>2315.2</ele>
        <time>2021-03-25T14:26:56Z</time>
      </trkpt>
      <trkpt lat="42.86906" lon="0.14219">
        <ele>2314.7</ele>
        <time>2021-03-25T14:26:57Z</time>
      </trkpt>
      <trkpt lat="42.86905" lon="0.1422">
        <ele>2314.6</ele>
        <time>2021-03-25T14:26:59Z</time>
      </trkpt>
      <trkpt lat="42.86905" lon="0.14221">
        <ele>2314.5</ele>
        <time>2021-03-25T14:27:00Z</time>
      </trkpt>
      <trkpt lat="42.86905" lon="0.14222">
        <ele>2314.4</ele>
        <time>2021-03-25T14:27:02Z</time>
      </trkpt>
      <trkpt lat="42.86905" lon="0.14223">
        <ele>2313.9</ele>
        <time>2021-03-25T14:27:03Z</time>
      </trkpt>
      <trkpt lat="42.86904" lon="0.14224">
        <ele>2314.2</ele>
        <time>2021-03-25T14:27:04Z</time>
      </trkpt>
      <trkpt lat="42.86904" lon="0.14225">
        <ele>2314.1</ele>
        <time>2021-03-25T14:27:06Z</time>
      </trkpt>
      <trkpt lat="42.86904" lon="0.14226">
        <ele>2314</ele>
        <time>2021-03-25T14:27:07Z</time>
      </trkpt>
      <trkpt lat="42.86903" lon="0.14227">
        <ele>2313.5</ele>
        <time>2021-03-25T14:27:08Z</time>
      </trkpt>
      <trkpt lat="42.86903" lon="0.14227">
        <ele>2313.4</ele>
        <time>2021-03-25T14:27:09Z</time>
      </trkpt>
      <trkpt lat="42.86902" lon="0.14229">
        <ele>2313.3</ele>
        <time>2021-03-25T14:27:11Z</time>
      </trkpt>
      <trkpt lat="42.86902" lon="0.14229">
        <ele>2313.2</ele>
        <time>2021-03-25T14:27:12Z</time>
      </trkpt>
      <trkpt lat="42.86902" lon="0.1423">
        <ele>2313.1</ele>
        <time>2021-03-25T14:27:14Z</time>
      </trkpt>
      <trkpt lat="42.86902" lon="0.14231">
        <ele>2312.6</ele>
        <time>2021-03-25T14:27:15Z</time>
      </trkpt>
      <trkpt lat="42.86902" lon="0.14233">
        <ele>2312.5</ele>
        <time>2021-03-25T14:27:17Z</time>
      </trkpt>
      <trkpt lat="42.86902" lon="0.14234">
        <ele>2312.4</ele>
        <time>2021-03-25T14:27:19Z</time>
      </trkpt>
      <trkpt lat="42.86902" lon="0.14235">
        <ele>2312.3</ele>
        <time>2021-03-25T14:27:20Z</time>
      </trkpt>
      <trkpt lat="42.86902" lon="0.14236">
        <ele>2311.8</ele>
        <time>2021-03-25T14:27:21Z</time>
      </trkpt>
      <trkpt lat="42.86902" lon="0.14236">
        <ele>2311.7</ele>
        <time>2021-03-25T14:27:23Z</time>
      </trkpt>
      <trkpt lat="42.86902" lon="0.14237">
        <ele>2311.6</ele>
        <time>2021-03-25T14:27:24Z</time>
      </trkpt>
      <trkpt lat="42.86902" lon="0.14239">
        <ele>2311.5</ele>
        <time>2021-03-25T14:27:26Z</time>
      </trkpt>
      <trkpt lat="42.86902" lon="0.14239">
        <ele>2311.4</ele>
        <time>2021-03-25T14:27:27Z</time>
      </trkpt>
      <trkpt lat="42.86902" lon="0.14239">
        <ele>2311.3</ele>
        <time>2021-03-25T14:27:28Z</time>
      </trkpt>
      <trkpt lat="42.86902" lon="0.1424">
        <ele>2310.7</ele>
        <time>2021-03-25T14:27:30Z</time>
      </trkpt>
      <trkpt lat="42.86902" lon="0.1424">
        <ele>2310.6</ele>
        <time>2021-03-25T14:27:31Z</time>
      </trkpt>
      <trkpt lat="42.86902" lon="0.14241">
        <ele>2310.5</ele>
        <time>2021-03-25T14:27:32Z</time>
      </trkpt>
      <trkpt lat="42.86902" lon="0.14241">
        <ele>2310.4</ele>
        <time>2021-03-25T14:27:33Z</time>
      </trkpt>
      <trkpt lat="42.86902" lon="0.14241">
        <ele>2310.3</ele>
        <time>2021-03-25T14:27:34Z</time>
      </trkpt>
      <trkpt lat="42.86902" lon="0.14241">
        <ele>2310.3</ele>
        <time>2021-03-25T14:27:36Z</time>
      </trkpt>
      <trkpt lat="42.86902" lon="0.14242">
        <ele>2310.3</ele>
        <time>2021-03-25T14:27:38Z</time>
      </trkpt>
      <trkpt lat="42.86902" lon="0.14242">
        <ele>2310.3</ele>
        <time>2021-03-25T14:27:39Z</time>
      </trkpt>
      <trkpt lat="42.86902" lon="0.14242">
        <ele>2310.3</ele>
        <time>2021-03-25T14:27:40Z</time>
      </trkpt>
      <trkpt lat="42.86902" lon="0.14242">
        <ele>2310.3</ele>
        <time>2021-03-25T14:27:42Z</time>
      </trkpt>
      <trkpt lat="42.86902" lon="0.14242">
        <ele>2310.3</ele>
        <time>2021-03-25T14:27:43Z</time>
      </trkpt>
      <trkpt lat="42.86902" lon="0.14242">
        <ele>2310.3</ele>
        <time>2021-03-25T14:27:45Z</time>
      </trkpt>
      <trkpt lat="42.86902" lon="0.14242">
        <ele>2310.3</ele>
        <time>2021-03-25T14:27:46Z</time>
      </trkpt>
      <trkpt lat="42.86902" lon="0.14241">
        <ele>2310.3</ele>
        <time>2021-03-25T14:27:48Z</time>
      </trkpt>
      <trkpt lat="42.86902" lon="0.14241">
        <ele>2310.3</ele>
        <time>2021-03-25T14:27:50Z</time>
      </trkpt>
      <trkpt lat="42.86902" lon="0.14241">
        <ele>2310.3</ele>
        <time>2021-03-25T14:27:52Z</time>
      </trkpt>
      <trkpt lat="42.86902" lon="0.14241">
        <ele>2310.3</ele>
        <time>2021-03-25T14:27:54Z</time>
      </trkpt>
      <trkpt lat="42.86902" lon="0.14241">
        <ele>2310.3</ele>
        <time>2021-03-25T14:27:55Z</time>
      </trkpt>
      <trkpt lat="42.86902" lon="0.14241">
        <ele>2310.3</ele>
        <time>2021-03-25T14:27:56Z</time>
      </trkpt>
      <trkpt lat="42.86902" lon="0.14241">
        <ele>2310.3</ele>
        <time>2021-03-25T14:27:58Z</time>
      </trkpt>
      <trkpt lat="42.86902" lon="0.14241">
        <ele>2310.3</ele>
        <time>2021-03-25T14:28:00Z</time>
      </trkpt>
      <trkpt lat="42.86902" lon="0.14241">
        <ele>2310.3</ele>
        <time>2021-03-25T14:28:02Z</time>
      </trkpt>
      <trkpt lat="42.86902" lon="0.14241">
        <ele>2310.3</ele>
        <time>2021-03-25T14:28:03Z</time>
      </trkpt>
      <trkpt lat="42.86902" lon="0.14241">
        <ele>2310.3</ele>
        <time>2021-03-25T14:28:05Z</time>
      </trkpt>
      <trkpt lat="42.86902" lon="0.14241">
        <ele>2310.3</ele>
        <time>2021-03-25T14:28:06Z</time>
      </trkpt>
      <trkpt lat="42.86902" lon="0.14241">
        <ele>2310.3</ele>
        <time>2021-03-25T14:28:08Z</time>
      </trkpt>
      <trkpt lat="42.86902" lon="0.14241">
        <ele>2310.3</ele>
        <time>2021-03-25T14:28:10Z</time>
      </trkpt>
      <trkpt lat="42.86902" lon="0.14241">
        <ele>2310.3</ele>
        <time>2021-03-25T14:28:11Z</time>
      </trkpt>
      <trkpt lat="42.86902" lon="0.14241">
        <ele>2310.3</ele>
        <time>2021-03-25T14:28:12Z</time>
      </trkpt>
      <trkpt lat="42.86902" lon="0.14241">
        <ele>2310.3</ele>
        <time>2021-03-25T14:28:14Z</time>
      </trkpt>
      <trkpt lat="42.86902" lon="0.14241">
        <ele>2310.3</ele>
        <time>2021-03-25T14:28:15Z</time>
      </trkpt>
      <trkpt lat="42.86902" lon="0.14241">
        <ele>2310.3</ele>
        <time>2021-03-25T14:28:16Z</time>
      </trkpt>
      <trkpt lat="42.86902" lon="0.14241">
        <ele>2310.3</ele>
        <time>2021-03-25T14:28:18Z</time>
      </trkpt>
      <trkpt lat="42.86903" lon="0.14242">
        <ele>2310.3</ele>
        <time>2021-03-25T14:28:20Z</time>
      </trkpt>
      <trkpt lat="42.86903" lon="0.14242">
        <ele>2310.3</ele>
        <time>2021-03-25T14:28:21Z</time>
      </trkpt>
      <trkpt lat="42.86903" lon="0.14242">
        <ele>2310.3</ele>
        <time>2021-03-25T14:28:23Z</time>
      </trkpt>
      <trkpt lat="42.86903" lon="0.14242">
        <ele>2310.3</ele>
        <time>2021-03-25T14:28:25Z</time>
      </trkpt>
      <trkpt lat="42.86904" lon="0.14243">
        <ele>2310.3</ele>
        <time>2021-03-25T14:28:27Z</time>
      </trkpt>
      <trkpt lat="42.86904" lon="0.14243">
        <ele>2310.3</ele>
        <time>2021-03-25T14:28:28Z</time>
      </trkpt>
      <trkpt lat="42.86905" lon="0.14243">
        <ele>2310</ele>
        <time>2021-03-25T14:28:29Z</time>
      </trkpt>
      <trkpt lat="42.86904" lon="0.14242">
        <ele>2310.3</ele>
        <time>2021-03-25T14:28:30Z</time>
      </trkpt>
      <trkpt lat="42.86903" lon="0.14242">
        <ele>2310.3</ele>
        <time>2021-03-25T14:28:32Z</time>
      </trkpt>
      <trkpt lat="42.86903" lon="0.14242">
        <ele>2310.3</ele>
        <time>2021-03-25T14:28:33Z</time>
      </trkpt>
      <trkpt lat="42.86903" lon="0.14243">
        <ele>2310.3</ele>
        <time>2021-03-25T14:28:35Z</time>
      </trkpt>
      <trkpt lat="42.86903" lon="0.14243">
        <ele>2310.3</ele>
        <time>2021-03-25T14:28:36Z</time>
      </trkpt>
      <trkpt lat="42.86903" lon="0.14243">
        <ele>2310.3</ele>
        <time>2021-03-25T14:28:38Z</time>
      </trkpt>
      <trkpt lat="42.86903" lon="0.14243">
        <ele>2310.3</ele>
        <time>2021-03-25T14:28:40Z</time>
      </trkpt>
      <trkpt lat="42.86903" lon="0.14243">
        <ele>2310.3</ele>
        <time>2021-03-25T14:28:42Z</time>
      </trkpt>
      <trkpt lat="42.86903" lon="0.14243">
        <ele>2310.3</ele>
        <time>2021-03-25T14:28:43Z</time>
      </trkpt>
      <trkpt lat="42.86903" lon="0.14243">
        <ele>2310.3</ele>
        <time>2021-03-25T14:28:45Z</time>
      </trkpt>
      <trkpt lat="42.86903" lon="0.14243">
        <ele>2310.3</ele>
        <time>2021-03-25T14:28:46Z</time>
      </trkpt>
      <trkpt lat="42.86904" lon="0.14243">
        <ele>2310.3</ele>
        <time>2021-03-25T14:28:47Z</time>
      </trkpt>
      <trkpt lat="42.86904" lon="0.14242">
        <ele>2310.3</ele>
        <time>2021-03-25T14:28:49Z</time>
      </trkpt>
      <trkpt lat="42.86904" lon="0.14242">
        <ele>2310.3</ele>
        <time>2021-03-25T14:28:50Z</time>
      </trkpt>
      <trkpt lat="42.86904" lon="0.14242">
        <ele>2310.3</ele>
        <time>2021-03-25T14:28:52Z</time>
      </trkpt>
      <trkpt lat="42.86904" lon="0.14241">
        <ele>2310.3</ele>
        <time>2021-03-25T14:28:53Z</time>
      </trkpt>
      <trkpt lat="42.86904" lon="0.1424">
        <ele>2310.3</ele>
        <time>2021-03-25T14:28:54Z</time>
      </trkpt>
      <trkpt lat="42.86904" lon="0.14239">
        <ele>2310.8</ele>
        <time>2021-03-25T14:28:55Z</time>
      </trkpt>
      <trkpt lat="42.86904" lon="0.14239">
        <ele>2310.8</ele>
        <time>2021-03-25T14:28:57Z</time>
      </trkpt>
      <trkpt lat="42.86904" lon="0.14239">
        <ele>2310.8</ele>
        <time>2021-03-25T14:28:58Z</time>
      </trkpt>
      <trkpt lat="42.86904" lon="0.14239">
        <ele>2310.8</ele>
        <time>2021-03-25T14:28:59Z</time>
      </trkpt>
      <trkpt lat="42.86904" lon="0.14239">
        <ele>2310.8</ele>
        <time>2021-03-25T14:29:01Z</time>
      </trkpt>
      <trkpt lat="42.86904" lon="0.14239">
        <ele>2310.8</ele>
        <time>2021-03-25T14:29:02Z</time>
      </trkpt>
      <trkpt lat="42.86904" lon="0.14239">
        <ele>2310.8</ele>
        <time>2021-03-25T14:29:03Z</time>
      </trkpt>
      <trkpt lat="42.86904" lon="0.14239">
        <ele>2310.8</ele>
        <time>2021-03-25T14:29:04Z</time>
      </trkpt>
      <trkpt lat="42.86904" lon="0.14239">
        <ele>2310.8</ele>
        <time>2021-03-25T14:29:06Z</time>
      </trkpt>
      <trkpt lat="42.86904" lon="0.14239">
        <ele>2310.8</ele>
        <time>2021-03-25T14:29:07Z</time>
      </trkpt>
      <trkpt lat="42.86904" lon="0.14239">
        <ele>2310.8</ele>
        <time>2021-03-25T14:29:08Z</time>
      </trkpt>
      <trkpt lat="42.86904" lon="0.14239">
        <ele>2310.8</ele>
        <time>2021-03-25T14:29:10Z</time>
      </trkpt>
      <trkpt lat="42.86904" lon="0.14239">
        <ele>2310.8</ele>
        <time>2021-03-25T14:29:11Z</time>
      </trkpt>
      <trkpt lat="42.86904" lon="0.14239">
        <ele>2310.8</ele>
        <time>2021-03-25T14:29:13Z</time>
      </trkpt>
      <trkpt lat="42.86904" lon="0.14239">
        <ele>2310.8</ele>
        <time>2021-03-25T14:29:15Z</time>
      </trkpt>
      <trkpt lat="42.86904" lon="0.14239">
        <ele>2310.8</ele>
        <time>2021-03-25T14:29:16Z</time>
      </trkpt>
      <trkpt lat="42.86904" lon="0.14239">
        <ele>2310.8</ele>
        <time>2021-03-25T14:29:18Z</time>
      </trkpt>
      <trkpt lat="42.86904" lon="0.14239">
        <ele>2310.3</ele>
        <time>2021-03-25T14:29:19Z</time>
      </trkpt>
      <trkpt lat="42.86904" lon="0.14239">
        <ele>2310.3</ele>
        <time>2021-03-25T14:29:21Z</time>
      </trkpt>
      <trkpt lat="42.86904" lon="0.1424">
        <ele>2310.3</ele>
        <time>2021-03-25T14:29:22Z</time>
      </trkpt>
      <trkpt lat="42.86904" lon="0.1424">
        <ele>2310.3</ele>
        <time>2021-03-25T14:29:24Z</time>
      </trkpt>
      <trkpt lat="42.86904" lon="0.1424">
        <ele>2310.3</ele>
        <time>2021-03-25T14:29:26Z</time>
      </trkpt>
      <trkpt lat="42.86904" lon="0.14239">
        <ele>2310.3</ele>
        <time>2021-03-25T14:29:27Z</time>
      </trkpt>
      <trkpt lat="42.86904" lon="0.14239">
        <ele>2310.3</ele>
        <time>2021-03-25T14:29:28Z</time>
      </trkpt>
      <trkpt lat="42.86904" lon="0.14239">
        <ele>2310.3</ele>
        <time>2021-03-25T14:29:29Z</time>
      </trkpt>
      <trkpt lat="42.86904" lon="0.14239">
        <ele>2310.3</ele>
        <time>2021-03-25T14:29:31Z</time>
      </trkpt>
      <trkpt lat="42.86904" lon="0.14239">
        <ele>2310.3</ele>
        <time>2021-03-25T14:29:33Z</time>
      </trkpt>
      <trkpt lat="42.86904" lon="0.14239">
        <ele>2310.3</ele>
        <time>2021-03-25T14:29:35Z</time>
      </trkpt>
      <trkpt lat="42.86903" lon="0.14239">
        <ele>2310.3</ele>
        <time>2021-03-25T14:29:36Z</time>
      </trkpt>
      <trkpt lat="42.86903" lon="0.1424">
        <ele>2310.3</ele>
        <time>2021-03-25T14:29:38Z</time>
      </trkpt>
      <trkpt lat="42.86903" lon="0.1424">
        <ele>2310.3</ele>
        <time>2021-03-25T14:29:40Z</time>
      </trkpt>
      <trkpt lat="42.86903" lon="0.1424">
        <ele>2310.3</ele>
        <time>2021-03-25T14:29:41Z</time>
      </trkpt>
      <trkpt lat="42.86903" lon="0.1424">
        <ele>2310.3</ele>
        <time>2021-03-25T14:29:43Z</time>
      </trkpt>
      <trkpt lat="42.86903" lon="0.1424">
        <ele>2310.3</ele>
        <time>2021-03-25T14:29:45Z</time>
      </trkpt>
      <trkpt lat="42.86903" lon="0.1424">
        <ele>2310.3</ele>
        <time>2021-03-25T14:29:46Z</time>
      </trkpt>
      <trkpt lat="42.86903" lon="0.1424">
        <ele>2310.3</ele>
        <time>2021-03-25T14:29:47Z</time>
      </trkpt>
      <trkpt lat="42.86903" lon="0.14239">
        <ele>2310.8</ele>
        <time>2021-03-25T14:29:49Z</time>
      </trkpt>
      <trkpt lat="42.86903" lon="0.14239">
        <ele>2310.8</ele>
        <time>2021-03-25T14:29:50Z</time>
      </trkpt>
      <trkpt lat="42.86902" lon="0.14239">
        <ele>2310.8</ele>
        <time>2021-03-25T14:29:51Z</time>
      </trkpt>
      <trkpt lat="42.86902" lon="0.14239">
        <ele>2310.8</ele>
        <time>2021-03-25T14:29:53Z</time>
      </trkpt>
      <trkpt lat="42.86902" lon="0.14239">
        <ele>2310.8</ele>
        <time>2021-03-25T14:29:55Z</time>
      </trkpt>
      <trkpt lat="42.86902" lon="0.14239">
        <ele>2310.8</ele>
        <time>2021-03-25T14:29:56Z</time>
      </trkpt>
      <trkpt lat="42.86902" lon="0.14238">
        <ele>2310.8</ele>
        <time>2021-03-25T14:29:58Z</time>
      </trkpt>
      <trkpt lat="42.86902" lon="0.14238">
        <ele>2310.8</ele>
        <time>2021-03-25T14:29:59Z</time>
      </trkpt>
      <trkpt lat="42.86902" lon="0.14238">
        <ele>2310.8</ele>
        <time>2021-03-25T14:30:00Z</time>
      </trkpt>
      <trkpt lat="42.86902" lon="0.14238">
        <ele>2310.8</ele>
        <time>2021-03-25T14:30:02Z</time>
      </trkpt>
      <trkpt lat="42.86902" lon="0.14238">
        <ele>2310.8</ele>
        <time>2021-03-25T14:30:04Z</time>
      </trkpt>
      <trkpt lat="42.86902" lon="0.14238">
        <ele>2310.8</ele>
        <time>2021-03-25T14:30:05Z</time>
      </trkpt>
      <trkpt lat="42.86902" lon="0.14238">
        <ele>2310.8</ele>
        <time>2021-03-25T14:30:06Z</time>
      </trkpt>
      <trkpt lat="42.86902" lon="0.14238">
        <ele>2310.8</ele>
        <time>2021-03-25T14:30:07Z</time>
      </trkpt>
      <trkpt lat="42.86902" lon="0.14238">
        <ele>2310.8</ele>
        <time>2021-03-25T14:30:09Z</time>
      </trkpt>
      <trkpt lat="42.86902" lon="0.14237">
        <ele>2310.8</ele>
        <time>2021-03-25T14:30:10Z</time>
      </trkpt>
      <trkpt lat="42.86902" lon="0.14237">
        <ele>2310.8</ele>
        <time>2021-03-25T14:30:11Z</time>
      </trkpt>
      <trkpt lat="42.86902" lon="0.14237">
        <ele>2310.8</ele>
        <time>2021-03-25T14:30:13Z</time>
      </trkpt>
      <trkpt lat="42.86902" lon="0.14237">
        <ele>2310.8</ele>
        <time>2021-03-25T14:30:15Z</time>
      </trkpt>
      <trkpt lat="42.86902" lon="0.14237">
        <ele>2310.8</ele>
        <time>2021-03-25T14:30:17Z</time>
      </trkpt>
      <trkpt lat="42.86902" lon="0.14237">
        <ele>2310.8</ele>
        <time>2021-03-25T14:30:19Z</time>
      </trkpt>
      <trkpt lat="42.86902" lon="0.14237">
        <ele>2310.8</ele>
        <time>2021-03-25T14:30:20Z</time>
      </trkpt>
      <trkpt lat="42.86903" lon="0.14237">
        <ele>2310.8</ele>
        <time>2021-03-25T14:30:22Z</time>
      </trkpt>
      <trkpt lat="42.86903" lon="0.14237">
        <ele>2310.8</ele>
        <time>2021-03-25T14:30:24Z</time>
      </trkpt>
      <trkpt lat="42.86903" lon="0.14237">
        <ele>2310.8</ele>
        <time>2021-03-25T14:30:25Z</time>
      </trkpt>
      <trkpt lat="42.86903" lon="0.14237">
        <ele>2310.8</ele>
        <time>2021-03-25T14:30:26Z</time>
      </trkpt>
      <trkpt lat="42.86903" lon="0.14236">
        <ele>2310.8</ele>
        <time>2021-03-25T14:30:28Z</time>
      </trkpt>
      <trkpt lat="42.86903" lon="0.14237">
        <ele>2310.8</ele>
        <time>2021-03-25T14:30:31Z</time>
      </trkpt>
      <trkpt lat="42.86903" lon="0.14237">
        <ele>2310.8</ele>
        <time>2021-03-25T14:30:32Z</time>
      </trkpt>
      <trkpt lat="42.86903" lon="0.14237">
        <ele>2310.8</ele>
        <time>2021-03-25T14:30:33Z</time>
      </trkpt>
      <trkpt lat="42.86903" lon="0.14238">
        <ele>2310.8</ele>
        <time>2021-03-25T14:30:34Z</time>
      </trkpt>
      <trkpt lat="42.86903" lon="0.14238">
        <ele>2310.8</ele>
        <time>2021-03-25T14:30:36Z</time>
      </trkpt>
      <trkpt lat="42.86903" lon="0.14238">
        <ele>2310.8</ele>
        <time>2021-03-25T14:30:38Z</time>
      </trkpt>
      <trkpt lat="42.86903" lon="0.14238">
        <ele>2310.8</ele>
        <time>2021-03-25T14:30:39Z</time>
      </trkpt>
      <trkpt lat="42.86903" lon="0.14238">
        <ele>2310.8</ele>
        <time>2021-03-25T14:30:40Z</time>
      </trkpt>
      <trkpt lat="42.86903" lon="0.14238">
        <ele>2310.8</ele>
        <time>2021-03-25T14:30:41Z</time>
      </trkpt>
      <trkpt lat="42.86902" lon="0.14238">
        <ele>2310.8</ele>
        <time>2021-03-25T14:30:43Z</time>
      </trkpt>
      <trkpt lat="42.86902" lon="0.14238">
        <ele>2310.8</ele>
        <time>2021-03-25T14:30:45Z</time>
      </trkpt>
      <trkpt lat="42.86902" lon="0.14238">
        <ele>2310.8</ele>
        <time>2021-03-25T14:30:47Z</time>
      </trkpt>
      <trkpt lat="42.86902" lon="0.14238">
        <ele>2310.8</ele>
        <time>2021-03-25T14:30:48Z</time>
      </trkpt>
      <trkpt lat="42.86902" lon="0.14238">
        <ele>2310.8</ele>
        <time>2021-03-25T14:30:49Z</time>
      </trkpt>
      <trkpt lat="42.86902" lon="0.14238">
        <ele>2310.8</ele>
        <time>2021-03-25T14:30:50Z</time>
      </trkpt>
      <trkpt lat="42.86902" lon="0.14238">
        <ele>2310.8</ele>
        <time>2021-03-25T14:30:51Z</time>
      </trkpt>
      <trkpt lat="42.86902" lon="0.14238">
        <ele>2310.8</ele>
        <time>2021-03-25T14:30:53Z</time>
      </trkpt>
      <trkpt lat="42.86902" lon="0.14238">
        <ele>2310.8</ele>
        <time>2021-03-25T14:30:54Z</time>
      </trkpt>
      <trkpt lat="42.86902" lon="0.14238">
        <ele>2310.8</ele>
        <time>2021-03-25T14:30:55Z</time>
      </trkpt>
      <trkpt lat="42.86902" lon="0.14238">
        <ele>2310.8</ele>
        <time>2021-03-25T14:30:57Z</time>
      </trkpt>
      <trkpt lat="42.86902" lon="0.14238">
        <ele>2310.8</ele>
        <time>2021-03-25T14:30:59Z</time>
      </trkpt>
      <trkpt lat="42.86903" lon="0.14238">
        <ele>2310.8</ele>
        <time>2021-03-25T14:31:00Z</time>
      </trkpt>
      <trkpt lat="42.86903" lon="0.14238">
        <ele>2310.8</ele>
        <time>2021-03-25T14:31:02Z</time>
      </trkpt>
      <trkpt lat="42.86903" lon="0.14238">
        <ele>2310.8</ele>
        <time>2021-03-25T14:31:04Z</time>
      </trkpt>
      <trkpt lat="42.86903" lon="0.14238">
        <ele>2310.8</ele>
        <time>2021-03-25T14:31:05Z</time>
      </trkpt>
      <trkpt lat="42.86903" lon="0.14238">
        <ele>2310.8</ele>
        <time>2021-03-25T14:31:07Z</time>
      </trkpt>
      <trkpt lat="42.86903" lon="0.14238">
        <ele>2310.8</ele>
        <time>2021-03-25T14:31:08Z</time>
      </trkpt>
      <trkpt lat="42.86902" lon="0.14238">
        <ele>2310.8</ele>
        <time>2021-03-25T14:31:09Z</time>
      </trkpt>
      <trkpt lat="42.86902" lon="0.14238">
        <ele>2310.8</ele>
        <time>2021-03-25T14:31:10Z</time>
      </trkpt>
      <trkpt lat="42.86902" lon="0.14238">
        <ele>2310.8</ele>
        <time>2021-03-25T14:31:12Z</time>
      </trkpt>
      <trkpt lat="42.86902" lon="0.14238">
        <ele>2310.8</ele>
        <time>2021-03-25T14:31:13Z</time>
      </trkpt>
      <trkpt lat="42.86902" lon="0.14238">
        <ele>2310.8</ele>
        <time>2021-03-25T14:31:15Z</time>
      </trkpt>
      <trkpt lat="42.86902" lon="0.14238">
        <ele>2310.8</ele>
        <time>2021-03-25T14:31:17Z</time>
      </trkpt>
      <trkpt lat="42.86902" lon="0.14238">
        <ele>2310.8</ele>
        <time>2021-03-25T14:31:18Z</time>
      </trkpt>
      <trkpt lat="42.86902" lon="0.14239">
        <ele>2310.8</ele>
        <time>2021-03-25T14:31:20Z</time>
      </trkpt>
      <trkpt lat="42.86902" lon="0.14239">
        <ele>2310.8</ele>
        <time>2021-03-25T14:31:21Z</time>
      </trkpt>
      <trkpt lat="42.86902" lon="0.14239">
        <ele>2310.8</ele>
        <time>2021-03-25T14:31:23Z</time>
      </trkpt>
      <trkpt lat="42.86902" lon="0.14239">
        <ele>2310.8</ele>
        <time>2021-03-25T14:31:24Z</time>
      </trkpt>
      <trkpt lat="42.86902" lon="0.14239">
        <ele>2310.8</ele>
        <time>2021-03-25T14:31:26Z</time>
      </trkpt>
      <trkpt lat="42.86902" lon="0.14239">
        <ele>2310.8</ele>
        <time>2021-03-25T14:31:28Z</time>
      </trkpt>
      <trkpt lat="42.86902" lon="0.14239">
        <ele>2310.8</ele>
        <time>2021-03-25T14:31:29Z</time>
      </trkpt>
      <trkpt lat="42.86902" lon="0.14239">
        <ele>2310.8</ele>
        <time>2021-03-25T14:31:30Z</time>
      </trkpt>
      <trkpt lat="42.86902" lon="0.14239">
        <ele>2310.8</ele>
        <time>2021-03-25T14:31:31Z</time>
      </trkpt>
      <trkpt lat="42.86902" lon="0.14239">
        <ele>2310.8</ele>
        <time>2021-03-25T14:31:32Z</time>
      </trkpt>
      <trkpt lat="42.86902" lon="0.14239">
        <ele>2310.8</ele>
        <time>2021-03-25T14:31:34Z</time>
      </trkpt>
      <trkpt lat="42.86902" lon="0.14239">
        <ele>2310.8</ele>
        <time>2021-03-25T14:31:35Z</time>
      </trkpt>
      <trkpt lat="42.86902" lon="0.14239">
        <ele>2310.8</ele>
        <time>2021-03-25T14:31:37Z</time>
      </trkpt>
      <trkpt lat="42.86902" lon="0.14239">
        <ele>2310.8</ele>
        <time>2021-03-25T14:31:39Z</time>
      </trkpt>
      <trkpt lat="42.86902" lon="0.14239">
        <ele>2310.8</ele>
        <time>2021-03-25T14:31:41Z</time>
      </trkpt>
      <trkpt lat="42.86902" lon="0.14239">
        <ele>2310.8</ele>
        <time>2021-03-25T14:31:42Z</time>
      </trkpt>
      <trkpt lat="42.86902" lon="0.14239">
        <ele>2310.8</ele>
        <time>2021-03-25T14:31:43Z</time>
      </trkpt>
      <trkpt lat="42.86902" lon="0.14239">
        <ele>2310.8</ele>
        <time>2021-03-25T14:31:45Z</time>
      </trkpt>
      <trkpt lat="42.86902" lon="0.14239">
        <ele>2310.8</ele>
        <time>2021-03-25T14:31:47Z</time>
      </trkpt>
      <trkpt lat="42.86902" lon="0.14239">
        <ele>2310.8</ele>
        <time>2021-03-25T14:31:48Z</time>
      </trkpt>
      <trkpt lat="42.86903" lon="0.14238">
        <ele>2310.8</ele>
        <time>2021-03-25T14:31:50Z</time>
      </trkpt>
      <trkpt lat="42.86903" lon="0.14238">
        <ele>2310.8</ele>
        <time>2021-03-25T14:31:52Z</time>
      </trkpt>
      <trkpt lat="42.86903" lon="0.14238">
        <ele>2310.8</ele>
        <time>2021-03-25T14:31:53Z</time>
      </trkpt>
      <trkpt lat="42.86903" lon="0.14238">
        <ele>2310.8</ele>
        <time>2021-03-25T14:31:55Z</time>
      </trkpt>
      <trkpt lat="42.86902" lon="0.14238">
        <ele>2310.8</ele>
        <time>2021-03-25T14:31:57Z</time>
      </trkpt>
      <trkpt lat="42.86903" lon="0.14238">
        <ele>2310.8</ele>
        <time>2021-03-25T14:31:58Z</time>
      </trkpt>
      <trkpt lat="42.86903" lon="0.14239">
        <ele>2310.8</ele>
        <time>2021-03-25T14:32:00Z</time>
      </trkpt>
      <trkpt lat="42.86903" lon="0.14239">
        <ele>2310.8</ele>
        <time>2021-03-25T14:32:01Z</time>
      </trkpt>
      <trkpt lat="42.86903" lon="0.14239">
        <ele>2310.8</ele>
        <time>2021-03-25T14:32:02Z</time>
      </trkpt>
      <trkpt lat="42.86903" lon="0.14238">
        <ele>2310.8</ele>
        <time>2021-03-25T14:32:04Z</time>
      </trkpt>
      <trkpt lat="42.86903" lon="0.14238">
        <ele>2310.8</ele>
        <time>2021-03-25T14:32:05Z</time>
      </trkpt>
      <trkpt lat="42.86902" lon="0.14238">
        <ele>2310.8</ele>
        <time>2021-03-25T14:32:07Z</time>
      </trkpt>
      <trkpt lat="42.86902" lon="0.14238">
        <ele>2310.8</ele>
        <time>2021-03-25T14:32:08Z</time>
      </trkpt>
      <trkpt lat="42.86902" lon="0.14238">
        <ele>2310.8</ele>
        <time>2021-03-25T14:32:09Z</time>
      </trkpt>
      <trkpt lat="42.86902" lon="0.14238">
        <ele>2310.8</ele>
        <time>2021-03-25T14:32:10Z</time>
      </trkpt>
      <trkpt lat="42.86902" lon="0.14238">
        <ele>2310.8</ele>
        <time>2021-03-25T14:32:12Z</time>
      </trkpt>
      <trkpt lat="42.86902" lon="0.14238">
        <ele>2310.8</ele>
        <time>2021-03-25T14:32:14Z</time>
      </trkpt>
      <trkpt lat="42.86902" lon="0.14239">
        <ele>2310.8</ele>
        <time>2021-03-25T14:32:15Z</time>
      </trkpt>
      <trkpt lat="42.86902" lon="0.14239">
        <ele>2310.8</ele>
        <time>2021-03-25T14:32:17Z</time>
      </trkpt>
      <trkpt lat="42.86902" lon="0.14239">
        <ele>2310.8</ele>
        <time>2021-03-25T14:32:18Z</time>
      </trkpt>
      <trkpt lat="42.86902" lon="0.14239">
        <ele>2310.8</ele>
        <time>2021-03-25T14:32:20Z</time>
      </trkpt>
      <trkpt lat="42.86902" lon="0.14239">
        <ele>2310.8</ele>
        <time>2021-03-25T14:32:21Z</time>
      </trkpt>
      <trkpt lat="42.86902" lon="0.14239">
        <ele>2310.8</ele>
        <time>2021-03-25T14:32:23Z</time>
      </trkpt>
      <trkpt lat="42.86902" lon="0.14239">
        <ele>2310.8</ele>
        <time>2021-03-25T14:32:25Z</time>
      </trkpt>
      <trkpt lat="42.86902" lon="0.14239">
        <ele>2310.8</ele>
        <time>2021-03-25T14:32:26Z</time>
      </trkpt>
      <trkpt lat="42.86902" lon="0.14239">
        <ele>2310.8</ele>
        <time>2021-03-25T14:32:28Z</time>
      </trkpt>
      <trkpt lat="42.86902" lon="0.14239">
        <ele>2310.8</ele>
        <time>2021-03-25T14:32:29Z</time>
      </trkpt>
      <trkpt lat="42.86902" lon="0.14239">
        <ele>2310.8</ele>
        <time>2021-03-25T14:32:30Z</time>
      </trkpt>
      <trkpt lat="42.86902" lon="0.14239">
        <ele>2310.8</ele>
        <time>2021-03-25T14:32:32Z</time>
      </trkpt>
      <trkpt lat="42.86902" lon="0.14239">
        <ele>2310.8</ele>
        <time>2021-03-25T14:32:34Z</time>
      </trkpt>
      <trkpt lat="42.86902" lon="0.14239">
        <ele>2310.8</ele>
        <time>2021-03-25T14:32:36Z</time>
      </trkpt>
      <trkpt lat="42.86902" lon="0.14239">
        <ele>2310.8</ele>
        <time>2021-03-25T14:32:38Z</time>
      </trkpt>
      <trkpt lat="42.86902" lon="0.14239">
        <ele>2310.8</ele>
        <time>2021-03-25T14:32:40Z</time>
      </trkpt>
      <trkpt lat="42.86902" lon="0.14239">
        <ele>2310.8</ele>
        <time>2021-03-25T14:32:41Z</time>
      </trkpt>
      <trkpt lat="42.86902" lon="0.14239">
        <ele>2310.8</ele>
        <time>2021-03-25T14:32:43Z</time>
      </trkpt>
      <trkpt lat="42.86902" lon="0.14239">
        <ele>2310.8</ele>
        <time>2021-03-25T14:32:45Z</time>
      </trkpt>
      <trkpt lat="42.86902" lon="0.14239">
        <ele>2310.8</ele>
        <time>2021-03-25T14:32:47Z</time>
      </trkpt>
      <trkpt lat="42.86903" lon="0.1424">
        <ele>2310.3</ele>
        <time>2021-03-25T14:32:49Z</time>
      </trkpt>
      <trkpt lat="42.86903" lon="0.1424">
        <ele>2310.3</ele>
        <time>2021-03-25T14:32:50Z</time>
      </trkpt>
      <trkpt lat="42.86903" lon="0.1424">
        <ele>2310.3</ele>
        <time>2021-03-25T14:32:51Z</time>
      </trkpt>
      <trkpt lat="42.86903" lon="0.1424">
        <ele>2310.3</ele>
        <time>2021-03-25T14:32:53Z</time>
      </trkpt>
      <trkpt lat="42.86904" lon="0.1424">
        <ele>2310.3</ele>
        <time>2021-03-25T14:32:55Z</time>
      </trkpt>
      <trkpt lat="42.86904" lon="0.1424">
        <ele>2310.3</ele>
        <time>2021-03-25T14:32:57Z</time>
      </trkpt>
      <trkpt lat="42.86904" lon="0.1424">
        <ele>2310.3</ele>
        <time>2021-03-25T14:32:59Z</time>
      </trkpt>
      <trkpt lat="42.86904" lon="0.1424">
        <ele>2310.3</ele>
        <time>2021-03-25T14:33:00Z</time>
      </trkpt>
      <trkpt lat="42.86904" lon="0.1424">
        <ele>2310.3</ele>
        <time>2021-03-25T14:33:01Z</time>
      </trkpt>
      <trkpt lat="42.86903" lon="0.14239">
        <ele>2310.8</ele>
        <time>2021-03-25T14:33:03Z</time>
      </trkpt>
      <trkpt lat="42.86902" lon="0.14238">
        <ele>2310.8</ele>
        <time>2021-03-25T14:33:05Z</time>
      </trkpt>
      <trkpt lat="42.86902" lon="0.14238">
        <ele>2310.8</ele>
        <time>2021-03-25T14:33:06Z</time>
      </trkpt>
      <trkpt lat="42.86902" lon="0.14238">
        <ele>2310.8</ele>
        <time>2021-03-25T14:33:07Z</time>
      </trkpt>
      <trkpt lat="42.86902" lon="0.14238">
        <ele>2310.8</ele>
        <time>2021-03-25T14:33:09Z</time>
      </trkpt>
      <trkpt lat="42.86902" lon="0.14238">
        <ele>2310.8</ele>
        <time>2021-03-25T14:33:11Z</time>
      </trkpt>
      <trkpt lat="42.86902" lon="0.14238">
        <ele>2310.8</ele>
        <time>2021-03-25T14:33:12Z</time>
      </trkpt>
      <trkpt lat="42.86902" lon="0.14238">
        <ele>2310.8</ele>
        <time>2021-03-25T14:33:13Z</time>
      </trkpt>
      <trkpt lat="42.86902" lon="0.14238">
        <ele>2310.8</ele>
        <time>2021-03-25T14:33:15Z</time>
      </trkpt>
      <trkpt lat="42.86902" lon="0.14238">
        <ele>2310.8</ele>
        <time>2021-03-25T14:33:16Z</time>
      </trkpt>
      <trkpt lat="42.86902" lon="0.14238">
        <ele>2310.8</ele>
        <time>2021-03-25T14:33:18Z</time>
      </trkpt>
      <trkpt lat="42.86902" lon="0.14238">
        <ele>2310.8</ele>
        <time>2021-03-25T14:33:19Z</time>
      </trkpt>
      <trkpt lat="42.86902" lon="0.14238">
        <ele>2310.8</ele>
        <time>2021-03-25T14:33:20Z</time>
      </trkpt>
      <trkpt lat="42.86902" lon="0.14238">
        <ele>2310.8</ele>
        <time>2021-03-25T14:33:22Z</time>
      </trkpt>
      <trkpt lat="42.86902" lon="0.14238">
        <ele>2310.8</ele>
        <time>2021-03-25T14:33:24Z</time>
      </trkpt>
      <trkpt lat="42.86902" lon="0.14238">
        <ele>2310.8</ele>
        <time>2021-03-25T14:33:25Z</time>
      </trkpt>
      <trkpt lat="42.86901" lon="0.14238">
        <ele>2311.2</ele>
        <time>2021-03-25T14:33:26Z</time>
      </trkpt>
      <trkpt lat="42.86902" lon="0.14238">
        <ele>2310.8</ele>
        <time>2021-03-25T14:33:28Z</time>
      </trkpt>
      <trkpt lat="42.86902" lon="0.14238">
        <ele>2310.8</ele>
        <time>2021-03-25T14:33:29Z</time>
      </trkpt>
      <trkpt lat="42.86902" lon="0.14239">
        <ele>2310.8</ele>
        <time>2021-03-25T14:33:31Z</time>
      </trkpt>
      <trkpt lat="42.86902" lon="0.14239">
        <ele>2310.8</ele>
        <time>2021-03-25T14:33:32Z</time>
      </trkpt>
      <trkpt lat="42.86902" lon="0.14238">
        <ele>2310.8</ele>
        <time>2021-03-25T14:33:34Z</time>
      </trkpt>
      <trkpt lat="42.86902" lon="0.14239">
        <ele>2310.8</ele>
        <time>2021-03-25T14:33:35Z</time>
      </trkpt>
      <trkpt lat="42.86902" lon="0.14239">
        <ele>2310.8</ele>
        <time>2021-03-25T14:33:37Z</time>
      </trkpt>
      <trkpt lat="42.86902" lon="0.14239">
        <ele>2310.8</ele>
        <time>2021-03-25T14:33:38Z</time>
      </trkpt>
      <trkpt lat="42.86901" lon="0.14239">
        <ele>2311.2</ele>
        <time>2021-03-25T14:33:40Z</time>
      </trkpt>
      <trkpt lat="42.86901" lon="0.14239">
        <ele>2311.2</ele>
        <time>2021-03-25T14:33:41Z</time>
      </trkpt>
      <trkpt lat="42.86901" lon="0.14239">
        <ele>2311.2</ele>
        <time>2021-03-25T14:33:43Z</time>
      </trkpt>
      <trkpt lat="42.86901" lon="0.14239">
        <ele>2311.2</ele>
        <time>2021-03-25T14:33:44Z</time>
      </trkpt>
      <trkpt lat="42.86901" lon="0.14239">
        <ele>2311.2</ele>
        <time>2021-03-25T14:33:46Z</time>
      </trkpt>
      <trkpt lat="42.86901" lon="0.14239">
        <ele>2311.2</ele>
        <time>2021-03-25T14:33:47Z</time>
      </trkpt>
      <trkpt lat="42.86901" lon="0.14239">
        <ele>2311.2</ele>
        <time>2021-03-25T14:33:49Z</time>
      </trkpt>
      <trkpt lat="42.86901" lon="0.14239">
        <ele>2311.2</ele>
        <time>2021-03-25T14:33:50Z</time>
      </trkpt>
      <trkpt lat="42.86901" lon="0.14239">
        <ele>2311.2</ele>
        <time>2021-03-25T14:33:51Z</time>
      </trkpt>
      <trkpt lat="42.86901" lon="0.14239">
        <ele>2311.2</ele>
        <time>2021-03-25T14:33:53Z</time>
      </trkpt>
      <trkpt lat="42.86901" lon="0.14239">
        <ele>2311.2</ele>
        <time>2021-03-25T14:33:55Z</time>
      </trkpt>
      <trkpt lat="42.86901" lon="0.14239">
        <ele>2311.2</ele>
        <time>2021-03-25T14:33:56Z</time>
      </trkpt>
      <trkpt lat="42.86901" lon="0.14239">
        <ele>2311.2</ele>
        <time>2021-03-25T14:33:58Z</time>
      </trkpt>
      <trkpt lat="42.86901" lon="0.14239">
        <ele>2311.2</ele>
        <time>2021-03-25T14:33:59Z</time>
      </trkpt>
      <trkpt lat="42.86901" lon="0.14239">
        <ele>2311.2</ele>
        <time>2021-03-25T14:34:01Z</time>
      </trkpt>
      <trkpt lat="42.86901" lon="0.14239">
        <ele>2311.2</ele>
        <time>2021-03-25T14:34:02Z</time>
      </trkpt>
      <trkpt lat="42.86901" lon="0.14239">
        <ele>2311.2</ele>
        <time>2021-03-25T14:34:04Z</time>
      </trkpt>
      <trkpt lat="42.86901" lon="0.14239">
        <ele>2311.2</ele>
        <time>2021-03-25T14:34:05Z</time>
      </trkpt>
      <trkpt lat="42.86901" lon="0.14239">
        <ele>2311.2</ele>
        <time>2021-03-25T14:34:07Z</time>
      </trkpt>
      <trkpt lat="42.86901" lon="0.14239">
        <ele>2311.2</ele>
        <time>2021-03-25T14:34:08Z</time>
      </trkpt>
      <trkpt lat="42.86901" lon="0.14239">
        <ele>2311.2</ele>
        <time>2021-03-25T14:34:10Z</time>
      </trkpt>
      <trkpt lat="42.86901" lon="0.14239">
        <ele>2311.2</ele>
        <time>2021-03-25T14:34:11Z</time>
      </trkpt>
      <trkpt lat="42.86901" lon="0.14239">
        <ele>2311.2</ele>
        <time>2021-03-25T14:34:12Z</time>
      </trkpt>
      <trkpt lat="42.86901" lon="0.14239">
        <ele>2311.2</ele>
        <time>2021-03-25T14:34:14Z</time>
      </trkpt>
      <trkpt lat="42.86901" lon="0.14239">
        <ele>2311.2</ele>
        <time>2021-03-25T14:34:15Z</time>
      </trkpt>
      <trkpt lat="42.86901" lon="0.14239">
        <ele>2311.2</ele>
        <time>2021-03-25T14:34:16Z</time>
      </trkpt>
      <trkpt lat="42.86901" lon="0.14241">
        <ele>2310.7</ele>
        <time>2021-03-25T14:34:18Z</time>
      </trkpt>
      <trkpt lat="42.86902" lon="0.14243">
        <ele>2310.3</ele>
        <time>2021-03-25T14:34:19Z</time>
      </trkpt>
      <trkpt lat="42.86903" lon="0.14243">
        <ele>2310.3</ele>
        <time>2021-03-25T14:34:21Z</time>
      </trkpt>
      <trkpt lat="42.86903" lon="0.14244">
        <ele>2309.9</ele>
        <time>2021-03-25T14:34:22Z</time>
      </trkpt>
      <trkpt lat="42.86903" lon="0.14245">
        <ele>2309.9</ele>
        <time>2021-03-25T14:34:24Z</time>
      </trkpt>
      <trkpt lat="42.86903" lon="0.14246">
        <ele>2309.9</ele>
        <time>2021-03-25T14:34:26Z</time>
      </trkpt>
      <trkpt lat="42.86903" lon="0.14246">
        <ele>2309.9</ele>
        <time>2021-03-25T14:34:27Z</time>
      </trkpt>
      <trkpt lat="42.86903" lon="0.14245">
        <ele>2309.9</ele>
        <time>2021-03-25T14:34:29Z</time>
      </trkpt>
      <trkpt lat="42.86903" lon="0.14244">
        <ele>2309.9</ele>
        <time>2021-03-25T14:34:30Z</time>
      </trkpt>
      <trkpt lat="42.86903" lon="0.14243">
        <ele>2310.3</ele>
        <time>2021-03-25T14:34:32Z</time>
      </trkpt>
      <trkpt lat="42.86903" lon="0.14243">
        <ele>2310.3</ele>
        <time>2021-03-25T14:34:34Z</time>
      </trkpt>
      <trkpt lat="42.86903" lon="0.14243">
        <ele>2310.3</ele>
        <time>2021-03-25T14:34:35Z</time>
      </trkpt>
      <trkpt lat="42.86903" lon="0.14242">
        <ele>2310.3</ele>
        <time>2021-03-25T14:34:37Z</time>
      </trkpt>
      <trkpt lat="42.86903" lon="0.14242">
        <ele>2310.3</ele>
        <time>2021-03-25T14:34:38Z</time>
      </trkpt>
      <trkpt lat="42.86902" lon="0.1424">
        <ele>2310.3</ele>
        <time>2021-03-25T14:34:40Z</time>
      </trkpt>
      <trkpt lat="42.86902" lon="0.14238">
        <ele>2310.8</ele>
        <time>2021-03-25T14:34:42Z</time>
      </trkpt>
      <trkpt lat="42.86901" lon="0.14238">
        <ele>2311.2</ele>
        <time>2021-03-25T14:34:44Z</time>
      </trkpt>
      <trkpt lat="42.86901" lon="0.14238">
        <ele>2311.2</ele>
        <time>2021-03-25T14:34:45Z</time>
      </trkpt>
      <trkpt lat="42.86901" lon="0.14238">
        <ele>2311.2</ele>
        <time>2021-03-25T14:34:47Z</time>
      </trkpt>
      <trkpt lat="42.86901" lon="0.14238">
        <ele>2311.2</ele>
        <time>2021-03-25T14:34:49Z</time>
      </trkpt>
      <trkpt lat="42.86901" lon="0.14238">
        <ele>2311.2</ele>
        <time>2021-03-25T14:34:51Z</time>
      </trkpt>
      <trkpt lat="42.86901" lon="0.14238">
        <ele>2311.2</ele>
        <time>2021-03-25T14:34:52Z</time>
      </trkpt>
      <trkpt lat="42.86901" lon="0.14238">
        <ele>2311.2</ele>
        <time>2021-03-25T14:34:53Z</time>
      </trkpt>
      <trkpt lat="42.86901" lon="0.14238">
        <ele>2311.2</ele>
        <time>2021-03-25T14:34:55Z</time>
      </trkpt>
      <trkpt lat="42.86901" lon="0.14238">
        <ele>2311.2</ele>
        <time>2021-03-25T14:34:57Z</time>
      </trkpt>
      <trkpt lat="42.86901" lon="0.14238">
        <ele>2311.2</ele>
        <time>2021-03-25T14:34:58Z</time>
      </trkpt>
      <trkpt lat="42.86901" lon="0.14238">
        <ele>2311.2</ele>
        <time>2021-03-25T14:35:00Z</time>
      </trkpt>
      <trkpt lat="42.86901" lon="0.14238">
        <ele>2311.2</ele>
        <time>2021-03-25T14:35:01Z</time>
      </trkpt>
      <trkpt lat="42.86901" lon="0.14239">
        <ele>2311.2</ele>
        <time>2021-03-25T14:35:03Z</time>
      </trkpt>
      <trkpt lat="42.86901" lon="0.14239">
        <ele>2311.2</ele>
        <time>2021-03-25T14:35:04Z</time>
      </trkpt>
      <trkpt lat="42.86901" lon="0.14239">
        <ele>2311.2</ele>
        <time>2021-03-25T14:35:05Z</time>
      </trkpt>
      <trkpt lat="42.86901" lon="0.14239">
        <ele>2311.2</ele>
        <time>2021-03-25T14:35:07Z</time>
      </trkpt>
      <trkpt lat="42.86901" lon="0.14239">
        <ele>2311.2</ele>
        <time>2021-03-25T14:35:09Z</time>
      </trkpt>
      <trkpt lat="42.86901" lon="0.14239">
        <ele>2311.2</ele>
        <time>2021-03-25T14:35:10Z</time>
      </trkpt>
      <trkpt lat="42.86901" lon="0.14239">
        <ele>2311.2</ele>
        <time>2021-03-25T14:35:11Z</time>
      </trkpt>
      <trkpt lat="42.86901" lon="0.14238">
        <ele>2311.2</ele>
        <time>2021-03-25T14:35:13Z</time>
      </trkpt>
      <trkpt lat="42.86901" lon="0.14238">
        <ele>2311.2</ele>
        <time>2021-03-25T14:35:14Z</time>
      </trkpt>
      <trkpt lat="42.86901" lon="0.14238">
        <ele>2311.2</ele>
        <time>2021-03-25T14:35:15Z</time>
      </trkpt>
      <trkpt lat="42.86901" lon="0.14239">
        <ele>2311.2</ele>
        <time>2021-03-25T14:35:17Z</time>
      </trkpt>
      <trkpt lat="42.86901" lon="0.14239">
        <ele>2311.2</ele>
        <time>2021-03-25T14:35:19Z</time>
      </trkpt>
      <trkpt lat="42.869" lon="0.14239">
        <ele>2311.2</ele>
        <time>2021-03-25T14:35:21Z</time>
      </trkpt>
      <trkpt lat="42.869" lon="0.14238">
        <ele>2311.2</ele>
        <time>2021-03-25T14:35:23Z</time>
      </trkpt>
      <trkpt lat="42.869" lon="0.14238">
        <ele>2311.2</ele>
        <time>2021-03-25T14:35:24Z</time>
      </trkpt>
      <trkpt lat="42.86901" lon="0.14238">
        <ele>2311.2</ele>
        <time>2021-03-25T14:35:26Z</time>
      </trkpt>
      <trkpt lat="42.86901" lon="0.14237">
        <ele>2311.2</ele>
        <time>2021-03-25T14:35:27Z</time>
      </trkpt>
      <trkpt lat="42.86901" lon="0.14238">
        <ele>2311.2</ele>
        <time>2021-03-25T14:35:29Z</time>
      </trkpt>
      <trkpt lat="42.86901" lon="0.14237">
        <ele>2311.2</ele>
        <time>2021-03-25T14:35:30Z</time>
      </trkpt>
      <trkpt lat="42.86901" lon="0.14237">
        <ele>2311.2</ele>
        <time>2021-03-25T14:35:32Z</time>
      </trkpt>
      <trkpt lat="42.86901" lon="0.14237">
        <ele>2311.2</ele>
        <time>2021-03-25T14:35:33Z</time>
      </trkpt>
      <trkpt lat="42.86901" lon="0.14237">
        <ele>2311.2</ele>
        <time>2021-03-25T14:35:34Z</time>
      </trkpt>
      <trkpt lat="42.86901" lon="0.14237">
        <ele>2311.2</ele>
        <time>2021-03-25T14:35:36Z</time>
      </trkpt>
      <trkpt lat="42.86901" lon="0.14237">
        <ele>2311.2</ele>
        <time>2021-03-25T14:35:37Z</time>
      </trkpt>
      <trkpt lat="42.86901" lon="0.14237">
        <ele>2311.2</ele>
        <time>2021-03-25T14:35:39Z</time>
      </trkpt>
      <trkpt lat="42.86901" lon="0.14237">
        <ele>2311.2</ele>
        <time>2021-03-25T14:35:40Z</time>
      </trkpt>
      <trkpt lat="42.86901" lon="0.14237">
        <ele>2311.2</ele>
        <time>2021-03-25T14:35:42Z</time>
      </trkpt>
      <trkpt lat="42.86901" lon="0.14237">
        <ele>2311.2</ele>
        <time>2021-03-25T14:35:44Z</time>
      </trkpt>
      <trkpt lat="42.86901" lon="0.14237">
        <ele>2311.2</ele>
        <time>2021-03-25T14:35:45Z</time>
      </trkpt>
      <trkpt lat="42.86901" lon="0.14237">
        <ele>2311.2</ele>
        <time>2021-03-25T14:35:46Z</time>
      </trkpt>
      <trkpt lat="42.86901" lon="0.14237">
        <ele>2311.2</ele>
        <time>2021-03-25T14:35:48Z</time>
      </trkpt>
      <trkpt lat="42.86901" lon="0.14237">
        <ele>2311.2</ele>
        <time>2021-03-25T14:35:49Z</time>
      </trkpt>
      <trkpt lat="42.86901" lon="0.14237">
        <ele>2311.2</ele>
        <time>2021-03-25T14:35:51Z</time>
      </trkpt>
      <trkpt lat="42.86901" lon="0.14237">
        <ele>2311.2</ele>
        <time>2021-03-25T14:35:52Z</time>
      </trkpt>
      <trkpt lat="42.86901" lon="0.14237">
        <ele>2311.2</ele>
        <time>2021-03-25T14:35:54Z</time>
      </trkpt>
      <trkpt lat="42.86901" lon="0.14237">
        <ele>2311.2</ele>
        <time>2021-03-25T14:35:55Z</time>
      </trkpt>
      <trkpt lat="42.86901" lon="0.14237">
        <ele>2311.2</ele>
        <time>2021-03-25T14:35:56Z</time>
      </trkpt>
      <trkpt lat="42.86901" lon="0.14237">
        <ele>2311.2</ele>
        <time>2021-03-25T14:35:58Z</time>
      </trkpt>
      <trkpt lat="42.86901" lon="0.14237">
        <ele>2311.2</ele>
        <time>2021-03-25T14:35:59Z</time>
      </trkpt>
      <trkpt lat="42.86901" lon="0.14237">
        <ele>2311.2</ele>
        <time>2021-03-25T14:36:01Z</time>
      </trkpt>
      <trkpt lat="42.86901" lon="0.14237">
        <ele>2311.2</ele>
        <time>2021-03-25T14:36:02Z</time>
      </trkpt>
      <trkpt lat="42.86901" lon="0.14237">
        <ele>2311.2</ele>
        <time>2021-03-25T14:36:04Z</time>
      </trkpt>
      <trkpt lat="42.86901" lon="0.14237">
        <ele>2311.2</ele>
        <time>2021-03-25T14:36:05Z</time>
      </trkpt>
      <trkpt lat="42.86901" lon="0.14237">
        <ele>2311.2</ele>
        <time>2021-03-25T14:36:06Z</time>
      </trkpt>
      <trkpt lat="42.86901" lon="0.14237">
        <ele>2310.8</ele>
        <time>2021-03-25T14:36:07Z</time>
      </trkpt>
      <trkpt lat="42.86901" lon="0.14238">
        <ele>2311.2</ele>
        <time>2021-03-25T14:36:09Z</time>
      </trkpt>
      <trkpt lat="42.86901" lon="0.14239">
        <ele>2311.2</ele>
        <time>2021-03-25T14:36:10Z</time>
      </trkpt>
      <trkpt lat="42.86901" lon="0.14239">
        <ele>2311.2</ele>
        <time>2021-03-25T14:36:12Z</time>
      </trkpt>
      <trkpt lat="42.86901" lon="0.14239">
        <ele>2311.2</ele>
        <time>2021-03-25T14:36:13Z</time>
      </trkpt>
      <trkpt lat="42.86901" lon="0.14239">
        <ele>2311.2</ele>
        <time>2021-03-25T14:36:14Z</time>
      </trkpt>
      <trkpt lat="42.86901" lon="0.14239">
        <ele>2310.8</ele>
        <time>2021-03-25T14:36:15Z</time>
      </trkpt>
      <trkpt lat="42.86902" lon="0.14238">
        <ele>2310.8</ele>
        <time>2021-03-25T14:36:16Z</time>
      </trkpt>
      <trkpt lat="42.86902" lon="0.14237">
        <ele>2310.8</ele>
        <time>2021-03-25T14:36:18Z</time>
      </trkpt>
      <trkpt lat="42.86902" lon="0.14237">
        <ele>2310.8</ele>
        <time>2021-03-25T14:36:20Z</time>
      </trkpt>
      <trkpt lat="42.86902" lon="0.14237">
        <ele>2310.8</ele>
        <time>2021-03-25T14:36:21Z</time>
      </trkpt>
      <trkpt lat="42.86902" lon="0.14237">
        <ele>2310.8</ele>
        <time>2021-03-25T14:36:22Z</time>
      </trkpt>
      <trkpt lat="42.86902" lon="0.14237">
        <ele>2310.8</ele>
        <time>2021-03-25T14:36:24Z</time>
      </trkpt>
      <trkpt lat="42.86902" lon="0.14237">
        <ele>2310.8</ele>
        <time>2021-03-25T14:36:25Z</time>
      </trkpt>
      <trkpt lat="42.86902" lon="0.14237">
        <ele>2310.8</ele>
        <time>2021-03-25T14:36:27Z</time>
      </trkpt>
      <trkpt lat="42.86902" lon="0.14237">
        <ele>2310.8</ele>
        <time>2021-03-25T14:36:28Z</time>
      </trkpt>
      <trkpt lat="42.86902" lon="0.14237">
        <ele>2310.8</ele>
        <time>2021-03-25T14:36:29Z</time>
      </trkpt>
      <trkpt lat="42.86902" lon="0.14237">
        <ele>2310.8</ele>
        <time>2021-03-25T14:36:31Z</time>
      </trkpt>
      <trkpt lat="42.86902" lon="0.14237">
        <ele>2310.8</ele>
        <time>2021-03-25T14:36:32Z</time>
      </trkpt>
      <trkpt lat="42.86901" lon="0.14237">
        <ele>2310.8</ele>
        <time>2021-03-25T14:36:33Z</time>
      </trkpt>
      <trkpt lat="42.86901" lon="0.14237">
        <ele>2310.8</ele>
        <time>2021-03-25T14:36:35Z</time>
      </trkpt>
      <trkpt lat="42.86901" lon="0.14237">
        <ele>2310.8</ele>
        <time>2021-03-25T14:36:37Z</time>
      </trkpt>
      <trkpt lat="42.86901" lon="0.14236">
        <ele>2310.8</ele>
        <time>2021-03-25T14:36:39Z</time>
      </trkpt>
      <trkpt lat="42.86901" lon="0.14236">
        <ele>2310.8</ele>
        <time>2021-03-25T14:36:40Z</time>
      </trkpt>
      <trkpt lat="42.86901" lon="0.14236">
        <ele>2310.8</ele>
        <time>2021-03-25T14:36:41Z</time>
      </trkpt>
      <trkpt lat="42.86901" lon="0.14236">
        <ele>2310.8</ele>
        <time>2021-03-25T14:36:43Z</time>
      </trkpt>
      <trkpt lat="42.86901" lon="0.14236">
        <ele>2310.8</ele>
        <time>2021-03-25T14:36:44Z</time>
      </trkpt>
      <trkpt lat="42.86901" lon="0.14236">
        <ele>2310.8</ele>
        <time>2021-03-25T14:36:45Z</time>
      </trkpt>
      <trkpt lat="42.86901" lon="0.14236">
        <ele>2311.2</ele>
        <time>2021-03-25T14:36:47Z</time>
      </trkpt>
      <trkpt lat="42.86901" lon="0.14236">
        <ele>2311.2</ele>
        <time>2021-03-25T14:36:48Z</time>
      </trkpt>
      <trkpt lat="42.86901" lon="0.14236">
        <ele>2311.2</ele>
        <time>2021-03-25T14:36:49Z</time>
      </trkpt>
      <trkpt lat="42.86901" lon="0.14236">
        <ele>2311.2</ele>
        <time>2021-03-25T14:36:50Z</time>
      </trkpt>
      <trkpt lat="42.86901" lon="0.14236">
        <ele>2311.2</ele>
        <time>2021-03-25T14:36:52Z</time>
      </trkpt>
      <trkpt lat="42.86901" lon="0.14236">
        <ele>2311.2</ele>
        <time>2021-03-25T14:36:53Z</time>
      </trkpt>
      <trkpt lat="42.86901" lon="0.14236">
        <ele>2311.2</ele>
        <time>2021-03-25T14:36:55Z</time>
      </trkpt>
      <trkpt lat="42.86901" lon="0.14236">
        <ele>2311.2</ele>
        <time>2021-03-25T14:36:56Z</time>
      </trkpt>
      <trkpt lat="42.86901" lon="0.14236">
        <ele>2311.2</ele>
        <time>2021-03-25T14:36:57Z</time>
      </trkpt>
      <trkpt lat="42.86901" lon="0.14236">
        <ele>2311.2</ele>
        <time>2021-03-25T14:36:59Z</time>
      </trkpt>
      <trkpt lat="42.86901" lon="0.14236">
        <ele>2310.8</ele>
        <time>2021-03-25T14:37:00Z</time>
      </trkpt>
      <trkpt lat="42.86901" lon="0.14236">
        <ele>2310.8</ele>
        <time>2021-03-25T14:37:01Z</time>
      </trkpt>
      <trkpt lat="42.86901" lon="0.14236">
        <ele>2310.8</ele>
        <time>2021-03-25T14:37:02Z</time>
      </trkpt>
      <trkpt lat="42.86901" lon="0.14236">
        <ele>2310.8</ele>
        <time>2021-03-25T14:37:04Z</time>
      </trkpt>
      <trkpt lat="42.86902" lon="0.14236">
        <ele>2310.8</ele>
        <time>2021-03-25T14:37:05Z</time>
      </trkpt>
      <trkpt lat="42.86902" lon="0.14236">
        <ele>2310.8</ele>
        <time>2021-03-25T14:37:07Z</time>
      </trkpt>
      <trkpt lat="42.86902" lon="0.14236">
        <ele>2310.8</ele>
        <time>2021-03-25T14:37:08Z</time>
      </trkpt>
      <trkpt lat="42.86902" lon="0.14237">
        <ele>2310.8</ele>
        <time>2021-03-25T14:37:09Z</time>
      </trkpt>
      <trkpt lat="42.86902" lon="0.14237">
        <ele>2310.8</ele>
        <time>2021-03-25T14:37:11Z</time>
      </trkpt>
      <trkpt lat="42.86902" lon="0.14237">
        <ele>2310.8</ele>
        <time>2021-03-25T14:37:13Z</time>
      </trkpt>
      <trkpt lat="42.86902" lon="0.14237">
        <ele>2310.8</ele>
        <time>2021-03-25T14:37:14Z</time>
      </trkpt>
      <trkpt lat="42.86902" lon="0.14237">
        <ele>2310.8</ele>
        <time>2021-03-25T14:37:15Z</time>
      </trkpt>
      <trkpt lat="42.86902" lon="0.14237">
        <ele>2310.8</ele>
        <time>2021-03-25T14:37:17Z</time>
      </trkpt>
      <trkpt lat="42.86902" lon="0.14237">
        <ele>2310.8</ele>
        <time>2021-03-25T14:37:18Z</time>
      </trkpt>
      <trkpt lat="42.86902" lon="0.14237">
        <ele>2310.8</ele>
        <time>2021-03-25T14:37:19Z</time>
      </trkpt>
      <trkpt lat="42.86902" lon="0.14237">
        <ele>2310.8</ele>
        <time>2021-03-25T14:37:20Z</time>
      </trkpt>
      <trkpt lat="42.86902" lon="0.14237">
        <ele>2310.8</ele>
        <time>2021-03-25T14:37:21Z</time>
      </trkpt>
      <trkpt lat="42.86902" lon="0.14237">
        <ele>2310.8</ele>
        <time>2021-03-25T14:37:22Z</time>
      </trkpt>
      <trkpt lat="42.86902" lon="0.14238">
        <ele>2310.8</ele>
        <time>2021-03-25T14:37:24Z</time>
      </trkpt>
      <trkpt lat="42.86901" lon="0.14238">
        <ele>2311.2</ele>
        <time>2021-03-25T14:37:25Z</time>
      </trkpt>
      <trkpt lat="42.86898" lon="0.14241">
        <ele>2311.1</ele>
        <time>2021-03-25T14:37:27Z</time>
      </trkpt>
      <trkpt lat="42.86894" lon="0.14242">
        <ele>2311.6</ele>
        <time>2021-03-25T14:37:28Z</time>
      </trkpt>
      <trkpt lat="42.86892" lon="0.14243">
        <ele>2312</ele>
        <time>2021-03-25T14:37:29Z</time>
      </trkpt>
      <trkpt lat="42.86888" lon="0.14244">
        <ele>2312.4</ele>
        <time>2021-03-25T14:37:30Z</time>
      </trkpt>
      <trkpt lat="42.86883" lon="0.14244">
        <ele>2312.3</ele>
        <time>2021-03-25T14:37:32Z</time>
      </trkpt>
      <trkpt lat="42.8687" lon="0.14249">
        <ele>2313</ele>
        <time>2021-03-25T14:37:33Z</time>
      </trkpt>
      <trkpt lat="42.86863" lon="0.14256">
        <ele>2312.8</ele>
        <time>2021-03-25T14:37:35Z</time>
      </trkpt>
      <trkpt lat="42.86864" lon="0.14254">
        <ele>2312.6</ele>
        <time>2021-03-25T14:37:36Z</time>
      </trkpt>
      <trkpt lat="42.86864" lon="0.14262">
        <ele>2311.4</ele>
        <time>2021-03-25T14:37:38Z</time>
      </trkpt>
      <trkpt lat="42.86872" lon="0.14274">
        <ele>2309.2</ele>
        <time>2021-03-25T14:37:39Z</time>
      </trkpt>
      <trkpt lat="42.86882" lon="0.14294">
        <ele>2306.4</ele>
        <time>2021-03-25T14:37:41Z</time>
      </trkpt>
      <trkpt lat="42.86888" lon="0.14311">
        <ele>2304.7</ele>
        <time>2021-03-25T14:37:43Z</time>
      </trkpt>
      <trkpt lat="42.86889" lon="0.1433">
        <ele>2303.3</ele>
        <time>2021-03-25T14:37:45Z</time>
      </trkpt>
      <trkpt lat="42.86888" lon="0.14339">
        <ele>2302.9</ele>
        <time>2021-03-25T14:37:46Z</time>
      </trkpt>
      <trkpt lat="42.86889" lon="0.14347">
        <ele>2302.1</ele>
        <time>2021-03-25T14:37:48Z</time>
      </trkpt>
      <trkpt lat="42.86889" lon="0.14357">
        <ele>2301.3</ele>
        <time>2021-03-25T14:37:49Z</time>
      </trkpt>
      <trkpt lat="42.86889" lon="0.14371">
        <ele>2300.1</ele>
        <time>2021-03-25T14:37:51Z</time>
      </trkpt>
      <trkpt lat="42.86888" lon="0.14379">
        <ele>2299.6</ele>
        <time>2021-03-25T14:37:52Z</time>
      </trkpt>
      <trkpt lat="42.86889" lon="0.1439">
        <ele>2299.1</ele>
        <time>2021-03-25T14:37:54Z</time>
      </trkpt>
      <trkpt lat="42.86892" lon="0.14395">
        <ele>2299.1</ele>
        <time>2021-03-25T14:37:55Z</time>
      </trkpt>
      <trkpt lat="42.86892" lon="0.14405">
        <ele>2299</ele>
        <time>2021-03-25T14:37:57Z</time>
      </trkpt>
      <trkpt lat="42.86891" lon="0.144">
        <ele>2299.1</ele>
        <time>2021-03-25T14:37:59Z</time>
      </trkpt>
      <trkpt lat="42.86891" lon="0.14398">
        <ele>2299.1</ele>
        <time>2021-03-25T14:38:00Z</time>
      </trkpt>
      <trkpt lat="42.8689" lon="0.14396">
        <ele>2299.1</ele>
        <time>2021-03-25T14:38:02Z</time>
      </trkpt>
      <trkpt lat="42.86889" lon="0.14395">
        <ele>2299.1</ele>
        <time>2021-03-25T14:38:03Z</time>
      </trkpt>
      <trkpt lat="42.86888" lon="0.14395">
        <ele>2299.1</ele>
        <time>2021-03-25T14:38:05Z</time>
      </trkpt>
      <trkpt lat="42.86888" lon="0.14395">
        <ele>2299.1</ele>
        <time>2021-03-25T14:38:06Z</time>
      </trkpt>
      <trkpt lat="42.86888" lon="0.14396">
        <ele>2299.1</ele>
        <time>2021-03-25T14:38:07Z</time>
      </trkpt>
      <trkpt lat="42.86888" lon="0.14397">
        <ele>2299.1</ele>
        <time>2021-03-25T14:38:09Z</time>
      </trkpt>
      <trkpt lat="42.86887" lon="0.14397">
        <ele>2299.1</ele>
        <time>2021-03-25T14:38:11Z</time>
      </trkpt>
      <trkpt lat="42.86886" lon="0.14399">
        <ele>2299</ele>
        <time>2021-03-25T14:38:13Z</time>
      </trkpt>
      <trkpt lat="42.86886" lon="0.14399">
        <ele>2299</ele>
        <time>2021-03-25T14:38:14Z</time>
      </trkpt>
      <trkpt lat="42.86885" lon="0.14399">
        <ele>2299</ele>
        <time>2021-03-25T14:38:16Z</time>
      </trkpt>
      <trkpt lat="42.86884" lon="0.144">
        <ele>2299</ele>
        <time>2021-03-25T14:38:18Z</time>
      </trkpt>
      <trkpt lat="42.86884" lon="0.14401">
        <ele>2299</ele>
        <time>2021-03-25T14:38:19Z</time>
      </trkpt>
      <trkpt lat="42.86883" lon="0.14402">
        <ele>2299</ele>
        <time>2021-03-25T14:38:21Z</time>
      </trkpt>
      <trkpt lat="42.86883" lon="0.14403">
        <ele>2299</ele>
        <time>2021-03-25T14:38:22Z</time>
      </trkpt>
      <trkpt lat="42.86882" lon="0.14404">
        <ele>2298.9</ele>
        <time>2021-03-25T14:38:24Z</time>
      </trkpt>
      <trkpt lat="42.86881" lon="0.14405">
        <ele>2298.9</ele>
        <time>2021-03-25T14:38:25Z</time>
      </trkpt>
      <trkpt lat="42.86881" lon="0.14405">
        <ele>2298.9</ele>
        <time>2021-03-25T14:38:27Z</time>
      </trkpt>
      <trkpt lat="42.8688" lon="0.14405">
        <ele>2298.9</ele>
        <time>2021-03-25T14:38:28Z</time>
      </trkpt>
      <trkpt lat="42.8688" lon="0.14406">
        <ele>2298.9</ele>
        <time>2021-03-25T14:38:29Z</time>
      </trkpt>
      <trkpt lat="42.8688" lon="0.14406">
        <ele>2298.9</ele>
        <time>2021-03-25T14:38:31Z</time>
      </trkpt>
      <trkpt lat="42.8688" lon="0.14407">
        <ele>2298.9</ele>
        <time>2021-03-25T14:38:32Z</time>
      </trkpt>
      <trkpt lat="42.86879" lon="0.14407">
        <ele>2298.8</ele>
        <time>2021-03-25T14:38:33Z</time>
      </trkpt>
      <trkpt lat="42.86879" lon="0.14408">
        <ele>2298.8</ele>
        <time>2021-03-25T14:38:34Z</time>
      </trkpt>
      <trkpt lat="42.86879" lon="0.14409">
        <ele>2298.8</ele>
        <time>2021-03-25T14:38:36Z</time>
      </trkpt>
      <trkpt lat="42.86879" lon="0.1441">
        <ele>2298.8</ele>
        <time>2021-03-25T14:38:37Z</time>
      </trkpt>
      <trkpt lat="42.86879" lon="0.14412">
        <ele>2298.7</ele>
        <time>2021-03-25T14:38:39Z</time>
      </trkpt>
      <trkpt lat="42.86879" lon="0.14413">
        <ele>2298.7</ele>
        <time>2021-03-25T14:38:40Z</time>
      </trkpt>
      <trkpt lat="42.86878" lon="0.14415">
        <ele>2298.6</ele>
        <time>2021-03-25T14:38:42Z</time>
      </trkpt>
      <trkpt lat="42.86878" lon="0.14417">
        <ele>2298.6</ele>
        <time>2021-03-25T14:38:43Z</time>
      </trkpt>
      <trkpt lat="42.86877" lon="0.14418">
        <ele>2298.6</ele>
        <time>2021-03-25T14:38:44Z</time>
      </trkpt>
      <trkpt lat="42.86877" lon="0.1442">
        <ele>2298.5</ele>
        <time>2021-03-25T14:38:46Z</time>
      </trkpt>
      <trkpt lat="42.86877" lon="0.14421">
        <ele>2298.5</ele>
        <time>2021-03-25T14:38:47Z</time>
      </trkpt>
      <trkpt lat="42.86876" lon="0.14423">
        <ele>2298.5</ele>
        <time>2021-03-25T14:38:49Z</time>
      </trkpt>
      <trkpt lat="42.86876" lon="0.14424">
        <ele>2298.2</ele>
        <time>2021-03-25T14:38:50Z</time>
      </trkpt>
      <trkpt lat="42.86876" lon="0.14426">
        <ele>2298.2</ele>
        <time>2021-03-25T14:38:51Z</time>
      </trkpt>
      <trkpt lat="42.86876" lon="0.14427">
        <ele>2298.3</ele>
        <time>2021-03-25T14:38:53Z</time>
      </trkpt>
      <trkpt lat="42.86877" lon="0.14428">
        <ele>2298.3</ele>
        <time>2021-03-25T14:38:54Z</time>
      </trkpt>
      <trkpt lat="42.86877" lon="0.14428">
        <ele>2298.2</ele>
        <time>2021-03-25T14:38:55Z</time>
      </trkpt>
      <trkpt lat="42.86877" lon="0.14429">
        <ele>2298.2</ele>
        <time>2021-03-25T14:38:57Z</time>
      </trkpt>
      <trkpt lat="42.86878" lon="0.1443">
        <ele>2298.2</ele>
        <time>2021-03-25T14:38:58Z</time>
      </trkpt>
      <trkpt lat="42.86879" lon="0.14432">
        <ele>2298.2</ele>
        <time>2021-03-25T14:39:00Z</time>
      </trkpt>
      <trkpt lat="42.8688" lon="0.14433">
        <ele>2298.2</ele>
        <time>2021-03-25T14:39:02Z</time>
      </trkpt>
      <trkpt lat="42.86881" lon="0.14434">
        <ele>2298.2</ele>
        <time>2021-03-25T14:39:03Z</time>
      </trkpt>
      <trkpt lat="42.86881" lon="0.14434">
        <ele>2298.2</ele>
        <time>2021-03-25T14:39:04Z</time>
      </trkpt>
      <trkpt lat="42.86882" lon="0.14435">
        <ele>2298.2</ele>
        <time>2021-03-25T14:39:05Z</time>
      </trkpt>
      <trkpt lat="42.86883" lon="0.14437">
        <ele>2298.2</ele>
        <time>2021-03-25T14:39:07Z</time>
      </trkpt>
      <trkpt lat="42.86884" lon="0.14439">
        <ele>2298.2</ele>
        <time>2021-03-25T14:39:08Z</time>
      </trkpt>
      <trkpt lat="42.86886" lon="0.1444">
        <ele>2298.2</ele>
        <time>2021-03-25T14:39:09Z</time>
      </trkpt>
      <trkpt lat="42.86889" lon="0.14441">
        <ele>2298.1</ele>
        <time>2021-03-25T14:39:11Z</time>
      </trkpt>
      <trkpt lat="42.8689" lon="0.14442">
        <ele>2298.1</ele>
        <time>2021-03-25T14:39:12Z</time>
      </trkpt>
      <trkpt lat="42.86893" lon="0.14445">
        <ele>2298.1</ele>
        <time>2021-03-25T14:39:13Z</time>
      </trkpt>
      <trkpt lat="42.86895" lon="0.14447">
        <ele>2297.9</ele>
        <time>2021-03-25T14:39:14Z</time>
      </trkpt>
      <trkpt lat="42.86898" lon="0.14452">
        <ele>2297.7</ele>
        <time>2021-03-25T14:39:15Z</time>
      </trkpt>
      <trkpt lat="42.86902" lon="0.14457">
        <ele>2297.3</ele>
        <time>2021-03-25T14:39:16Z</time>
      </trkpt>
      <trkpt lat="42.86908" lon="0.14464">
        <ele>2296.6</ele>
        <time>2021-03-25T14:39:18Z</time>
      </trkpt>
      <trkpt lat="42.8691" lon="0.14462">
        <ele>2296.8</ele>
        <time>2021-03-25T14:39:19Z</time>
      </trkpt>
      <trkpt lat="42.86912" lon="0.14465">
        <ele>2296.3</ele>
        <time>2021-03-25T14:39:21Z</time>
      </trkpt>
      <trkpt lat="42.86913" lon="0.14469">
        <ele>2296.1</ele>
        <time>2021-03-25T14:39:22Z</time>
      </trkpt>
      <trkpt lat="42.86915" lon="0.14472">
        <ele>2295.5</ele>
        <time>2021-03-25T14:39:23Z</time>
      </trkpt>
      <trkpt lat="42.86915" lon="0.14473">
        <ele>2295.5</ele>
        <time>2021-03-25T14:39:24Z</time>
      </trkpt>
      <trkpt lat="42.86916" lon="0.14475">
        <ele>2295.5</ele>
        <time>2021-03-25T14:39:26Z</time>
      </trkpt>
      <trkpt lat="42.86917" lon="0.14477">
        <ele>2295.3</ele>
        <time>2021-03-25T14:39:27Z</time>
      </trkpt>
      <trkpt lat="42.86918" lon="0.14479">
        <ele>2294.9</ele>
        <time>2021-03-25T14:39:28Z</time>
      </trkpt>
      <trkpt lat="42.86919" lon="0.14481">
        <ele>2294.7</ele>
        <time>2021-03-25T14:39:29Z</time>
      </trkpt>
      <trkpt lat="42.8692" lon="0.14484">
        <ele>2294.3</ele>
        <time>2021-03-25T14:39:31Z</time>
      </trkpt>
      <trkpt lat="42.86923" lon="0.14488">
        <ele>2294</ele>
        <time>2021-03-25T14:39:32Z</time>
      </trkpt>
      <trkpt lat="42.86926" lon="0.14494">
        <ele>2293</ele>
        <time>2021-03-25T14:39:34Z</time>
      </trkpt>
      <trkpt lat="42.8693" lon="0.14499">
        <ele>2291.7</ele>
        <time>2021-03-25T14:39:35Z</time>
      </trkpt>
      <trkpt lat="42.86933" lon="0.14504">
        <ele>2290.8</ele>
        <time>2021-03-25T14:39:36Z</time>
      </trkpt>
      <trkpt lat="42.86936" lon="0.14509">
        <ele>2289.8</ele>
        <time>2021-03-25T14:39:37Z</time>
      </trkpt>
      <trkpt lat="42.86938" lon="0.14513">
        <ele>2289.3</ele>
        <time>2021-03-25T14:39:39Z</time>
      </trkpt>
      <trkpt lat="42.86939" lon="0.14514">
        <ele>2288.8</ele>
        <time>2021-03-25T14:39:40Z</time>
      </trkpt>
      <trkpt lat="42.86939" lon="0.14516">
        <ele>2288.2</ele>
        <time>2021-03-25T14:39:42Z</time>
      </trkpt>
      <trkpt lat="42.8694" lon="0.14517">
        <ele>2288.2</ele>
        <time>2021-03-25T14:39:43Z</time>
      </trkpt>
      <trkpt lat="42.8694" lon="0.14517">
        <ele>2288.2</ele>
        <time>2021-03-25T14:39:44Z</time>
      </trkpt>
      <trkpt lat="42.86941" lon="0.14518">
        <ele>2288.2</ele>
        <time>2021-03-25T14:39:45Z</time>
      </trkpt>
      <trkpt lat="42.86942" lon="0.14518">
        <ele>2288.2</ele>
        <time>2021-03-25T14:39:46Z</time>
      </trkpt>
      <trkpt lat="42.86942" lon="0.14519">
        <ele>2287</ele>
        <time>2021-03-25T14:39:48Z</time>
      </trkpt>
      <trkpt lat="42.86943" lon="0.14519">
        <ele>2287</ele>
        <time>2021-03-25T14:39:49Z</time>
      </trkpt>
      <trkpt lat="42.86946" lon="0.14521">
        <ele>2286.3</ele>
        <time>2021-03-25T14:39:51Z</time>
      </trkpt>
      <trkpt lat="42.86949" lon="0.14522">
        <ele>2285.7</ele>
        <time>2021-03-25T14:39:52Z</time>
      </trkpt>
      <trkpt lat="42.86956" lon="0.14526">
        <ele>2283.8</ele>
        <time>2021-03-25T14:39:54Z</time>
      </trkpt>
      <trkpt lat="42.86961" lon="0.14528">
        <ele>2282.5</ele>
        <time>2021-03-25T14:39:56Z</time>
      </trkpt>
      <trkpt lat="42.86968" lon="0.14534">
        <ele>2279.2</ele>
        <time>2021-03-25T14:39:57Z</time>
      </trkpt>
      <trkpt lat="42.86979" lon="0.14535">
        <ele>2276.1</ele>
        <time>2021-03-25T14:39:59Z</time>
      </trkpt>
      <trkpt lat="42.86984" lon="0.14535">
        <ele>2274</ele>
        <time>2021-03-25T14:40:00Z</time>
      </trkpt>
      <trkpt lat="42.86983" lon="0.14542">
        <ele>2273.9</ele>
        <time>2021-03-25T14:40:02Z</time>
      </trkpt>
      <trkpt lat="42.86979" lon="0.14546">
        <ele>2274.4</ele>
        <time>2021-03-25T14:40:03Z</time>
      </trkpt>
      <trkpt lat="42.86977" lon="0.14551">
        <ele>2274.9</ele>
        <time>2021-03-25T14:40:05Z</time>
      </trkpt>
      <trkpt lat="42.86975" lon="0.14554">
        <ele>2274.3</ele>
        <time>2021-03-25T14:40:06Z</time>
      </trkpt>
      <trkpt lat="42.86973" lon="0.14559">
        <ele>2274.7</ele>
        <time>2021-03-25T14:40:07Z</time>
      </trkpt>
      <trkpt lat="42.86971" lon="0.14562">
        <ele>2274.1</ele>
        <time>2021-03-25T14:40:08Z</time>
      </trkpt>
      <trkpt lat="42.86971" lon="0.14567">
        <ele>2273.5</ele>
        <time>2021-03-25T14:40:10Z</time>
      </trkpt>
      <trkpt lat="42.86969" lon="0.14572">
        <ele>2273.9</ele>
        <time>2021-03-25T14:40:11Z</time>
      </trkpt>
      <trkpt lat="42.86966" lon="0.14577">
        <ele>2274.3</ele>
        <time>2021-03-25T14:40:12Z</time>
      </trkpt>
      <trkpt lat="42.86963" lon="0.14581">
        <ele>2274.5</ele>
        <time>2021-03-25T14:40:13Z</time>
      </trkpt>
      <trkpt lat="42.8696" lon="0.14588">
        <ele>2274</ele>
        <time>2021-03-25T14:40:15Z</time>
      </trkpt>
      <trkpt lat="42.86956" lon="0.14598">
        <ele>2273.2</ele>
        <time>2021-03-25T14:40:16Z</time>
      </trkpt>
      <trkpt lat="42.86955" lon="0.14604">
        <ele>2272.4</ele>
        <time>2021-03-25T14:40:17Z</time>
      </trkpt>
      <trkpt lat="42.86955" lon="0.14611">
        <ele>2270.6</ele>
        <time>2021-03-25T14:40:19Z</time>
      </trkpt>
      <trkpt lat="42.86956" lon="0.14613">
        <ele>2269.7</ele>
        <time>2021-03-25T14:40:20Z</time>
      </trkpt>
      <trkpt lat="42.86958" lon="0.14615">
        <ele>2269</ele>
        <time>2021-03-25T14:40:22Z</time>
      </trkpt>
      <trkpt lat="42.86961" lon="0.14614">
        <ele>2268.2</ele>
        <time>2021-03-25T14:40:23Z</time>
      </trkpt>
      <trkpt lat="42.86962" lon="0.14613">
        <ele>2268.2</ele>
        <time>2021-03-25T14:40:24Z</time>
      </trkpt>
      <trkpt lat="42.86964" lon="0.14612">
        <ele>2269.1</ele>
        <time>2021-03-25T14:40:25Z</time>
      </trkpt>
      <trkpt lat="42.86964" lon="0.14611">
        <ele>2268.2</ele>
        <time>2021-03-25T14:40:26Z</time>
      </trkpt>
      <trkpt lat="42.86965" lon="0.14611">
        <ele>2268.2</ele>
        <time>2021-03-25T14:40:28Z</time>
      </trkpt>
      <trkpt lat="42.86966" lon="0.1461">
        <ele>2268.2</ele>
        <time>2021-03-25T14:40:29Z</time>
      </trkpt>
      <trkpt lat="42.86967" lon="0.1461">
        <ele>2268.2</ele>
        <time>2021-03-25T14:40:30Z</time>
      </trkpt>
      <trkpt lat="42.86968" lon="0.1461">
        <ele>2267.2</ele>
        <time>2021-03-25T14:40:32Z</time>
      </trkpt>
      <trkpt lat="42.86969" lon="0.14609">
        <ele>2267.2</ele>
        <time>2021-03-25T14:40:33Z</time>
      </trkpt>
      <trkpt lat="42.86971" lon="0.14606">
        <ele>2267.1</ele>
        <time>2021-03-25T14:40:35Z</time>
      </trkpt>
      <trkpt lat="42.86972" lon="0.14604">
        <ele>2267.1</ele>
        <time>2021-03-25T14:40:36Z</time>
      </trkpt>
      <trkpt lat="42.86976" lon="0.146">
        <ele>2267</ele>
        <time>2021-03-25T14:40:37Z</time>
      </trkpt>
      <trkpt lat="42.86979" lon="0.14596">
        <ele>2266.7</ele>
        <time>2021-03-25T14:40:38Z</time>
      </trkpt>
      <trkpt lat="42.86985" lon="0.14588">
        <ele>2266</ele>
        <time>2021-03-25T14:40:40Z</time>
      </trkpt>
      <trkpt lat="42.8699" lon="0.14582">
        <ele>2265</ele>
        <time>2021-03-25T14:40:42Z</time>
      </trkpt>
      <trkpt lat="42.86994" lon="0.14579">
        <ele>2263.8</ele>
        <time>2021-03-25T14:40:43Z</time>
      </trkpt>
      <trkpt lat="42.86999" lon="0.1458">
        <ele>2261.1</ele>
        <time>2021-03-25T14:40:45Z</time>
      </trkpt>
      <trkpt lat="42.87002" lon="0.14581">
        <ele>2259.7</ele>
        <time>2021-03-25T14:40:46Z</time>
      </trkpt>
      <trkpt lat="42.87003" lon="0.14584">
        <ele>2259.1</ele>
        <time>2021-03-25T14:40:47Z</time>
      </trkpt>
      <trkpt lat="42.87003" lon="0.14589">
        <ele>2258.4</ele>
        <time>2021-03-25T14:40:49Z</time>
      </trkpt>
      <trkpt lat="42.87001" lon="0.14595">
        <ele>2259</ele>
        <time>2021-03-25T14:40:50Z</time>
      </trkpt>
      <trkpt lat="42.86999" lon="0.14604">
        <ele>2257.8</ele>
        <time>2021-03-25T14:40:52Z</time>
      </trkpt>
      <trkpt lat="42.86997" lon="0.14609">
        <ele>2256.8</ele>
        <time>2021-03-25T14:40:53Z</time>
      </trkpt>
      <trkpt lat="42.86997" lon="0.14612">
        <ele>2256.8</ele>
        <time>2021-03-25T14:40:54Z</time>
      </trkpt>
      <trkpt lat="42.87006" lon="0.14605">
        <ele>2253.5</ele>
        <time>2021-03-25T14:40:56Z</time>
      </trkpt>
      <trkpt lat="42.87013" lon="0.14599">
        <ele>2252.6</ele>
        <time>2021-03-25T14:40:58Z</time>
      </trkpt>
      <trkpt lat="42.87015" lon="0.14598">
        <ele>2251.2</ele>
        <time>2021-03-25T14:40:59Z</time>
      </trkpt>
      <trkpt lat="42.87025" lon="0.14597">
        <ele>2247</ele>
        <time>2021-03-25T14:41:01Z</time>
      </trkpt>
      <trkpt lat="42.8703" lon="0.14595">
        <ele>2246.4</ele>
        <time>2021-03-25T14:41:02Z</time>
      </trkpt>
      <trkpt lat="42.87032" lon="0.14594">
        <ele>2244.9</ele>
        <time>2021-03-25T14:41:03Z</time>
      </trkpt>
      <trkpt lat="42.87035" lon="0.14592">
        <ele>2243.5</ele>
        <time>2021-03-25T14:41:05Z</time>
      </trkpt>
      <trkpt lat="42.87038" lon="0.14592">
        <ele>2242.3</ele>
        <time>2021-03-25T14:41:07Z</time>
      </trkpt>
      <trkpt lat="42.87039" lon="0.14591">
        <ele>2242.3</ele>
        <time>2021-03-25T14:41:08Z</time>
      </trkpt>
      <trkpt lat="42.8704" lon="0.14591">
        <ele>2242</ele>
        <time>2021-03-25T14:41:09Z</time>
      </trkpt>
      <trkpt lat="42.8704" lon="0.14592">
        <ele>2241.1</ele>
        <time>2021-03-25T14:41:10Z</time>
      </trkpt>
      <trkpt lat="42.87043" lon="0.14593">
        <ele>2240</ele>
        <time>2021-03-25T14:41:12Z</time>
      </trkpt>
      <trkpt lat="42.87046" lon="0.1459">
        <ele>2239.8</ele>
        <time>2021-03-25T14:41:13Z</time>
      </trkpt>
      <trkpt lat="42.8705" lon="0.14589">
        <ele>2238.6</ele>
        <time>2021-03-25T14:41:14Z</time>
      </trkpt>
      <trkpt lat="42.87053" lon="0.14587">
        <ele>2237.3</ele>
        <time>2021-03-25T14:41:15Z</time>
      </trkpt>
      <trkpt lat="42.87058" lon="0.14584">
        <ele>2237</ele>
        <time>2021-03-25T14:41:17Z</time>
      </trkpt>
      <trkpt lat="42.87062" lon="0.14582">
        <ele>2235.6</ele>
        <time>2021-03-25T14:41:18Z</time>
      </trkpt>
      <trkpt lat="42.87065" lon="0.1458">
        <ele>2234.6</ele>
        <time>2021-03-25T14:41:19Z</time>
      </trkpt>
      <trkpt lat="42.87069" lon="0.14578">
        <ele>2234.6</ele>
        <time>2021-03-25T14:41:21Z</time>
      </trkpt>
      <trkpt lat="42.87074" lon="0.14575">
        <ele>2233.6</ele>
        <time>2021-03-25T14:41:22Z</time>
      </trkpt>
      <trkpt lat="42.8708" lon="0.1457">
        <ele>2232.3</ele>
        <time>2021-03-25T14:41:24Z</time>
      </trkpt>
      <trkpt lat="42.87084" lon="0.14567">
        <ele>2232</ele>
        <time>2021-03-25T14:41:25Z</time>
      </trkpt>
      <trkpt lat="42.8709" lon="0.1456">
        <ele>2231.6</ele>
        <time>2021-03-25T14:41:27Z</time>
      </trkpt>
      <trkpt lat="42.87092" lon="0.14558">
        <ele>2230.5</ele>
        <time>2021-03-25T14:41:29Z</time>
      </trkpt>
      <trkpt lat="42.87091" lon="0.14558">
        <ele>2230.5</ele>
        <time>2021-03-25T14:41:30Z</time>
      </trkpt>
      <trkpt lat="42.87091" lon="0.14558">
        <ele>2230.5</ele>
        <time>2021-03-25T14:41:31Z</time>
      </trkpt>
      <trkpt lat="42.87091" lon="0.14558">
        <ele>2230.5</ele>
        <time>2021-03-25T14:41:32Z</time>
      </trkpt>
      <trkpt lat="42.87093" lon="0.14557">
        <ele>2231.6</ele>
        <time>2021-03-25T14:41:34Z</time>
      </trkpt>
      <trkpt lat="42.87099" lon="0.14553">
        <ele>2229.5</ele>
        <time>2021-03-25T14:41:35Z</time>
      </trkpt>
      <trkpt lat="42.87102" lon="0.14549">
        <ele>2229.4</ele>
        <time>2021-03-25T14:41:36Z</time>
      </trkpt>
      <trkpt lat="42.87105" lon="0.14545">
        <ele>2229.2</ele>
        <time>2021-03-25T14:41:38Z</time>
      </trkpt>
      <trkpt lat="42.87107" lon="0.14537">
        <ele>2229.9</ele>
        <time>2021-03-25T14:41:40Z</time>
      </trkpt>
      <trkpt lat="42.87108" lon="0.14532">
        <ele>2230.9</ele>
        <time>2021-03-25T14:41:41Z</time>
      </trkpt>
      <trkpt lat="42.8711" lon="0.14527">
        <ele>2230.8</ele>
        <time>2021-03-25T14:41:42Z</time>
      </trkpt>
      <trkpt lat="42.87114" lon="0.14512">
        <ele>2234.1</ele>
        <time>2021-03-25T14:41:44Z</time>
      </trkpt>
      <trkpt lat="42.87121" lon="0.14499">
        <ele>2235.4</ele>
        <time>2021-03-25T14:41:46Z</time>
      </trkpt>
      <trkpt lat="42.87125" lon="0.14493">
        <ele>2235.4</ele>
        <time>2021-03-25T14:41:47Z</time>
      </trkpt>
      <trkpt lat="42.87128" lon="0.14487">
        <ele>2236.3</ele>
        <time>2021-03-25T14:41:48Z</time>
      </trkpt>
      <trkpt lat="42.87134" lon="0.14478">
        <ele>2236.3</ele>
        <time>2021-03-25T14:41:50Z</time>
      </trkpt>
      <trkpt lat="42.87145" lon="0.1448">
        <ele>2230.8</ele>
        <time>2021-03-25T14:41:52Z</time>
      </trkpt>
      <trkpt lat="42.87148" lon="0.14481">
        <ele>2229.7</ele>
        <time>2021-03-25T14:41:54Z</time>
      </trkpt>
      <trkpt lat="42.8715" lon="0.14484">
        <ele>2228.5</ele>
        <time>2021-03-25T14:41:55Z</time>
      </trkpt>
      <trkpt lat="42.87155" lon="0.14489">
        <ele>2225.4</ele>
        <time>2021-03-25T14:41:57Z</time>
      </trkpt>
      <trkpt lat="42.87159" lon="0.14482">
        <ele>2226.3</ele>
        <time>2021-03-25T14:41:58Z</time>
      </trkpt>
      <trkpt lat="42.87169" lon="0.14473">
        <ele>2223.2</ele>
        <time>2021-03-25T14:42:00Z</time>
      </trkpt>
      <trkpt lat="42.87178" lon="0.14465">
        <ele>2221.8</ele>
        <time>2021-03-25T14:42:02Z</time>
      </trkpt>
      <trkpt lat="42.87184" lon="0.1446">
        <ele>2221.8</ele>
        <time>2021-03-25T14:42:03Z</time>
      </trkpt>
      <trkpt lat="42.87189" lon="0.14456">
        <ele>2220.4</ele>
        <time>2021-03-25T14:42:04Z</time>
      </trkpt>
      <trkpt lat="42.87198" lon="0.14447">
        <ele>2218.3</ele>
        <time>2021-03-25T14:42:06Z</time>
      </trkpt>
      <trkpt lat="42.87206" lon="0.14438">
        <ele>2217.8</ele>
        <time>2021-03-25T14:42:08Z</time>
      </trkpt>
      <trkpt lat="42.8721" lon="0.14433">
        <ele>2216.7</ele>
        <time>2021-03-25T14:42:09Z</time>
      </trkpt>
      <trkpt lat="42.87214" lon="0.14427">
        <ele>2217.6</ele>
        <time>2021-03-25T14:42:11Z</time>
      </trkpt>
      <trkpt lat="42.87216" lon="0.14423">
        <ele>2217.5</ele>
        <time>2021-03-25T14:42:12Z</time>
      </trkpt>
      <trkpt lat="42.87221" lon="0.14419">
        <ele>2217.3</ele>
        <time>2021-03-25T14:42:13Z</time>
      </trkpt>
      <trkpt lat="42.87227" lon="0.14416">
        <ele>2214.8</ele>
        <time>2021-03-25T14:42:14Z</time>
      </trkpt>
      <trkpt lat="42.87241" lon="0.1441">
        <ele>2212.4</ele>
        <time>2021-03-25T14:42:16Z</time>
      </trkpt>
      <trkpt lat="42.87251" lon="0.14407">
        <ele>2207.8</ele>
        <time>2021-03-25T14:42:17Z</time>
      </trkpt>
      <trkpt lat="42.87266" lon="0.14405">
        <ele>2204.5</ele>
        <time>2021-03-25T14:42:19Z</time>
      </trkpt>
      <trkpt lat="42.87269" lon="0.14405">
        <ele>2203.5</ele>
        <time>2021-03-25T14:42:21Z</time>
      </trkpt>
      <trkpt lat="42.87271" lon="0.14404">
        <ele>2202.5</ele>
        <time>2021-03-25T14:42:22Z</time>
      </trkpt>
      <trkpt lat="42.87284" lon="0.14401">
        <ele>2199</ele>
        <time>2021-03-25T14:42:24Z</time>
      </trkpt>
      <trkpt lat="42.87295" lon="0.14395">
        <ele>2195.4</ele>
        <time>2021-03-25T14:42:26Z</time>
      </trkpt>
      <trkpt lat="42.873" lon="0.14392">
        <ele>2195.4</ele>
        <time>2021-03-25T14:42:27Z</time>
      </trkpt>
      <trkpt lat="42.87305" lon="0.1439">
        <ele>2192.7</ele>
        <time>2021-03-25T14:42:28Z</time>
      </trkpt>
      <trkpt lat="42.87309" lon="0.1439">
        <ele>2191.3</ele>
        <time>2021-03-25T14:42:30Z</time>
      </trkpt>
      <trkpt lat="42.87312" lon="0.14388">
        <ele>2191.2</ele>
        <time>2021-03-25T14:42:31Z</time>
      </trkpt>
      <trkpt lat="42.87316" lon="0.14384">
        <ele>2191.5</ele>
        <time>2021-03-25T14:42:33Z</time>
      </trkpt>
      <trkpt lat="42.87318" lon="0.14382">
        <ele>2190.4</ele>
        <time>2021-03-25T14:42:34Z</time>
      </trkpt>
      <trkpt lat="42.87322" lon="0.14379">
        <ele>2191</ele>
        <time>2021-03-25T14:42:36Z</time>
      </trkpt>
      <trkpt lat="42.87324" lon="0.14377">
        <ele>2190</ele>
        <time>2021-03-25T14:42:37Z</time>
      </trkpt>
      <trkpt lat="42.87327" lon="0.14374">
        <ele>2190.5</ele>
        <time>2021-03-25T14:42:38Z</time>
      </trkpt>
      <trkpt lat="42.87331" lon="0.14368">
        <ele>2191</ele>
        <time>2021-03-25T14:42:39Z</time>
      </trkpt>
      <trkpt lat="42.87335" lon="0.14365">
        <ele>2191.5</ele>
        <time>2021-03-25T14:42:40Z</time>
      </trkpt>
      <trkpt lat="42.8734" lon="0.14359">
        <ele>2192.6</ele>
        <time>2021-03-25T14:42:42Z</time>
      </trkpt>
      <trkpt lat="42.87347" lon="0.14353">
        <ele>2192.5</ele>
        <time>2021-03-25T14:42:43Z</time>
      </trkpt>
      <trkpt lat="42.8735" lon="0.14348">
        <ele>2193.3</ele>
        <time>2021-03-25T14:42:44Z</time>
      </trkpt>
      <trkpt lat="42.87354" lon="0.14346">
        <ele>2193.9</ele>
        <time>2021-03-25T14:42:45Z</time>
      </trkpt>
      <trkpt lat="42.87355" lon="0.14345">
        <ele>2193</ele>
        <time>2021-03-25T14:42:46Z</time>
      </trkpt>
      <trkpt lat="42.87357" lon="0.14341">
        <ele>2194.6</ele>
        <time>2021-03-25T14:42:47Z</time>
      </trkpt>
      <trkpt lat="42.87368" lon="0.14333">
        <ele>2194.3</ele>
        <time>2021-03-25T14:42:49Z</time>
      </trkpt>
      <trkpt lat="42.87377" lon="0.14327">
        <ele>2193.5</ele>
        <time>2021-03-25T14:42:51Z</time>
      </trkpt>
      <trkpt lat="42.87384" lon="0.14322">
        <ele>2193</ele>
        <time>2021-03-25T14:42:53Z</time>
      </trkpt>
      <trkpt lat="42.87388" lon="0.1432">
        <ele>2193.2</ele>
        <time>2021-03-25T14:42:54Z</time>
      </trkpt>
      <trkpt lat="42.87391" lon="0.14318">
        <ele>2192</ele>
        <time>2021-03-25T14:42:55Z</time>
      </trkpt>
      <trkpt lat="42.87395" lon="0.14317">
        <ele>2192.1</ele>
        <time>2021-03-25T14:42:57Z</time>
      </trkpt>
      <trkpt lat="42.87397" lon="0.14316">
        <ele>2190.8</ele>
        <time>2021-03-25T14:42:58Z</time>
      </trkpt>
      <trkpt lat="42.87402" lon="0.14315">
        <ele>2188.1</ele>
        <time>2021-03-25T14:43:00Z</time>
      </trkpt>
      <trkpt lat="42.87405" lon="0.14315">
        <ele>2186.8</ele>
        <time>2021-03-25T14:43:01Z</time>
      </trkpt>
      <trkpt lat="42.8741" lon="0.14315">
        <ele>2185.4</ele>
        <time>2021-03-25T14:43:02Z</time>
      </trkpt>
      <trkpt lat="42.87415" lon="0.14315">
        <ele>2182.3</ele>
        <time>2021-03-25T14:43:04Z</time>
      </trkpt>
      <trkpt lat="42.87419" lon="0.14313">
        <ele>2180.5</ele>
        <time>2021-03-25T14:43:05Z</time>
      </trkpt>
      <trkpt lat="42.8742" lon="0.14312">
        <ele>2179.7</ele>
        <time>2021-03-25T14:43:06Z</time>
      </trkpt>
      <trkpt lat="42.87424" lon="0.1431">
        <ele>2177.8</ele>
        <time>2021-03-25T14:43:07Z</time>
      </trkpt>
      <trkpt lat="42.87429" lon="0.14306">
        <ele>2177</ele>
        <time>2021-03-25T14:43:09Z</time>
      </trkpt>
      <trkpt lat="42.87434" lon="0.14302">
        <ele>2174.5</ele>
        <time>2021-03-25T14:43:10Z</time>
      </trkpt>
      <trkpt lat="42.87439" lon="0.14296">
        <ele>2173.7</ele>
        <time>2021-03-25T14:43:11Z</time>
      </trkpt>
      <trkpt lat="42.87443" lon="0.14291">
        <ele>2171.5</ele>
        <time>2021-03-25T14:43:12Z</time>
      </trkpt>
      <trkpt lat="42.87447" lon="0.14282">
        <ele>2170.1</ele>
        <time>2021-03-25T14:43:14Z</time>
      </trkpt>
      <trkpt lat="42.87447" lon="0.1428">
        <ele>2171.6</ele>
        <time>2021-03-25T14:43:15Z</time>
      </trkpt>
      <trkpt lat="42.87448" lon="0.14277">
        <ele>2172.4</ele>
        <time>2021-03-25T14:43:17Z</time>
      </trkpt>
      <trkpt lat="42.87448" lon="0.14277">
        <ele>2172.4</ele>
        <time>2021-03-25T14:43:18Z</time>
      </trkpt>
      <trkpt lat="42.87449" lon="0.14278">
        <ele>2170.2</ele>
        <time>2021-03-25T14:43:20Z</time>
      </trkpt>
      <trkpt lat="42.87449" lon="0.14279">
        <ele>2169.3</ele>
        <time>2021-03-25T14:43:21Z</time>
      </trkpt>
      <trkpt lat="42.87449" lon="0.1428">
        <ele>2169.3</ele>
        <time>2021-03-25T14:43:23Z</time>
      </trkpt>
      <trkpt lat="42.87449" lon="0.1428">
        <ele>2169.3</ele>
        <time>2021-03-25T14:43:25Z</time>
      </trkpt>
      <trkpt lat="42.87449" lon="0.1428">
        <ele>2169.3</ele>
        <time>2021-03-25T14:43:27Z</time>
      </trkpt>
      <trkpt lat="42.87449" lon="0.1428">
        <ele>2169.3</ele>
        <time>2021-03-25T14:43:29Z</time>
      </trkpt>
      <trkpt lat="42.87449" lon="0.1428">
        <ele>2169.3</ele>
        <time>2021-03-25T14:43:31Z</time>
      </trkpt>
      <trkpt lat="42.87449" lon="0.1428">
        <ele>2169.3</ele>
        <time>2021-03-25T14:43:32Z</time>
      </trkpt>
      <trkpt lat="42.87449" lon="0.1428">
        <ele>2169.3</ele>
        <time>2021-03-25T14:43:33Z</time>
      </trkpt>
      <trkpt lat="42.87449" lon="0.1428">
        <ele>2169.3</ele>
        <time>2021-03-25T14:43:35Z</time>
      </trkpt>
      <trkpt lat="42.87449" lon="0.1428">
        <ele>2169.3</ele>
        <time>2021-03-25T14:43:36Z</time>
      </trkpt>
      <trkpt lat="42.87449" lon="0.1428">
        <ele>2169.3</ele>
        <time>2021-03-25T14:43:38Z</time>
      </trkpt>
      <trkpt lat="42.87449" lon="0.1428">
        <ele>2169.3</ele>
        <time>2021-03-25T14:43:39Z</time>
      </trkpt>
      <trkpt lat="42.87452" lon="0.14283">
        <ele>2165.8</ele>
        <time>2021-03-25T14:43:41Z</time>
      </trkpt>
      <trkpt lat="42.87451" lon="0.14288">
        <ele>2167</ele>
        <time>2021-03-25T14:43:43Z</time>
      </trkpt>
      <trkpt lat="42.87453" lon="0.14289">
        <ele>2164.9</ele>
        <time>2021-03-25T14:43:44Z</time>
      </trkpt>
      <trkpt lat="42.87455" lon="0.14288">
        <ele>2162.9</ele>
        <time>2021-03-25T14:43:46Z</time>
      </trkpt>
      <trkpt lat="42.87457" lon="0.14286">
        <ele>2163.9</ele>
        <time>2021-03-25T14:43:47Z</time>
      </trkpt>
      <trkpt lat="42.8746" lon="0.14284">
        <ele>2162</ele>
        <time>2021-03-25T14:43:48Z</time>
      </trkpt>
      <trkpt lat="42.87464" lon="0.14279">
        <ele>2161.6</ele>
        <time>2021-03-25T14:43:50Z</time>
      </trkpt>
      <trkpt lat="42.87465" lon="0.14275">
        <ele>2160.4</ele>
        <time>2021-03-25T14:43:52Z</time>
      </trkpt>
      <trkpt lat="42.87466" lon="0.14273">
        <ele>2161.2</ele>
        <time>2021-03-25T14:43:53Z</time>
      </trkpt>
      <trkpt lat="42.87467" lon="0.14272">
        <ele>2161.2</ele>
        <time>2021-03-25T14:43:54Z</time>
      </trkpt>
      <trkpt lat="42.87468" lon="0.14268">
        <ele>2159.9</ele>
        <time>2021-03-25T14:43:56Z</time>
      </trkpt>
      <trkpt lat="42.87468" lon="0.14267">
        <ele>2159.9</ele>
        <time>2021-03-25T14:43:57Z</time>
      </trkpt>
      <trkpt lat="42.87469" lon="0.14262">
        <ele>2160.7</ele>
        <time>2021-03-25T14:43:58Z</time>
      </trkpt>
      <trkpt lat="42.87469" lon="0.14261">
        <ele>2161.6</ele>
        <time>2021-03-25T14:43:59Z</time>
      </trkpt>
      <trkpt lat="42.8747" lon="0.14258">
        <ele>2161.6</ele>
        <time>2021-03-25T14:44:00Z</time>
      </trkpt>
      <trkpt lat="42.87471" lon="0.14254">
        <ele>2160.3</ele>
        <time>2021-03-25T14:44:02Z</time>
      </trkpt>
      <trkpt lat="42.87475" lon="0.14246">
        <ele>2160.1</ele>
        <time>2021-03-25T14:44:03Z</time>
      </trkpt>
      <trkpt lat="42.87473" lon="0.14238">
        <ele>2164</ele>
        <time>2021-03-25T14:44:05Z</time>
      </trkpt>
      <trkpt lat="42.87476" lon="0.14233">
        <ele>2162.7</ele>
        <time>2021-03-25T14:44:06Z</time>
      </trkpt>
      <trkpt lat="42.87478" lon="0.14228">
        <ele>2161.4</ele>
        <time>2021-03-25T14:44:07Z</time>
      </trkpt>
      <trkpt lat="42.87482" lon="0.14223">
        <ele>2160.2</ele>
        <time>2021-03-25T14:44:08Z</time>
      </trkpt>
      <trkpt lat="42.87485" lon="0.14219">
        <ele>2159</ele>
        <time>2021-03-25T14:44:09Z</time>
      </trkpt>
      <trkpt lat="42.8749" lon="0.14213">
        <ele>2156.4</ele>
        <time>2021-03-25T14:44:11Z</time>
      </trkpt>
      <trkpt lat="42.87494" lon="0.14209">
        <ele>2154.3</ele>
        <time>2021-03-25T14:44:12Z</time>
      </trkpt>
      <trkpt lat="42.87499" lon="0.14205">
        <ele>2153.6</ele>
        <time>2021-03-25T14:44:13Z</time>
      </trkpt>
      <trkpt lat="42.87507" lon="0.14203">
        <ele>2147.6</ele>
        <time>2021-03-25T14:44:15Z</time>
      </trkpt>
      <trkpt lat="42.87509" lon="0.14207">
        <ele>2144.9</ele>
        <time>2021-03-25T14:44:16Z</time>
      </trkpt>
      <trkpt lat="42.87512" lon="0.14216">
        <ele>2141.6</ele>
        <time>2021-03-25T14:44:17Z</time>
      </trkpt>
      <trkpt lat="42.87515" lon="0.14227">
        <ele>2137.4</ele>
        <time>2021-03-25T14:44:19Z</time>
      </trkpt>
      <trkpt lat="42.87523" lon="0.14214">
        <ele>2135.9</ele>
        <time>2021-03-25T14:44:21Z</time>
      </trkpt>
      <trkpt lat="42.8753" lon="0.14204">
        <ele>2134.4</ele>
        <time>2021-03-25T14:44:23Z</time>
      </trkpt>
      <trkpt lat="42.87535" lon="0.14197">
        <ele>2131.2</ele>
        <time>2021-03-25T14:44:24Z</time>
      </trkpt>
      <trkpt lat="42.87539" lon="0.14186">
        <ele>2131.3</ele>
        <time>2021-03-25T14:44:26Z</time>
      </trkpt>
      <trkpt lat="42.87544" lon="0.14178">
        <ele>2128.7</ele>
        <time>2021-03-25T14:44:27Z</time>
      </trkpt>
      <trkpt lat="42.87547" lon="0.14168">
        <ele>2128</ele>
        <time>2021-03-25T14:44:29Z</time>
      </trkpt>
      <trkpt lat="42.87552" lon="0.14152">
        <ele>2128.6</ele>
        <time>2021-03-25T14:44:31Z</time>
      </trkpt>
      <trkpt lat="42.87557" lon="0.1415">
        <ele>2124.9</ele>
        <time>2021-03-25T14:44:33Z</time>
      </trkpt>
      <trkpt lat="42.8756" lon="0.14143">
        <ele>2124</ele>
        <time>2021-03-25T14:44:34Z</time>
      </trkpt>
      <trkpt lat="42.87563" lon="0.14136">
        <ele>2123.1</ele>
        <time>2021-03-25T14:44:35Z</time>
      </trkpt>
      <trkpt lat="42.8757" lon="0.14123">
        <ele>2120.9</ele>
        <time>2021-03-25T14:44:37Z</time>
      </trkpt>
      <trkpt lat="42.87571" lon="0.14117">
        <ele>2121.4</ele>
        <time>2021-03-25T14:44:38Z</time>
      </trkpt>
      <trkpt lat="42.87573" lon="0.1411">
        <ele>2120.8</ele>
        <time>2021-03-25T14:44:39Z</time>
      </trkpt>
      <trkpt lat="42.87577" lon="0.14109">
        <ele>2119.2</ele>
        <time>2021-03-25T14:44:41Z</time>
      </trkpt>
      <trkpt lat="42.87577" lon="0.14108">
        <ele>2119.2</ele>
        <time>2021-03-25T14:44:42Z</time>
      </trkpt>
      <trkpt lat="42.87578" lon="0.14106">
        <ele>2118</ele>
        <time>2021-03-25T14:44:43Z</time>
      </trkpt>
      <trkpt lat="42.87583" lon="0.14095">
        <ele>2117.3</ele>
        <time>2021-03-25T14:44:45Z</time>
      </trkpt>
      <trkpt lat="42.87589" lon="0.14078">
        <ele>2116.3</ele>
        <time>2021-03-25T14:44:47Z</time>
      </trkpt>
      <trkpt lat="42.87599" lon="0.14061">
        <ele>2113.9</ele>
        <time>2021-03-25T14:44:49Z</time>
      </trkpt>
      <trkpt lat="42.87608" lon="0.14047">
        <ele>2111.2</ele>
        <time>2021-03-25T14:44:51Z</time>
      </trkpt>
      <trkpt lat="42.87616" lon="0.14035">
        <ele>2108.1</ele>
        <time>2021-03-25T14:44:53Z</time>
      </trkpt>
      <trkpt lat="42.87619" lon="0.14029">
        <ele>2108</ele>
        <time>2021-03-25T14:44:54Z</time>
      </trkpt>
      <trkpt lat="42.87626" lon="0.14019">
        <ele>2106.8</ele>
        <time>2021-03-25T14:44:56Z</time>
      </trkpt>
      <trkpt lat="42.87631" lon="0.14013">
        <ele>2106.1</ele>
        <time>2021-03-25T14:44:58Z</time>
      </trkpt>
      <trkpt lat="42.87632" lon="0.14011">
        <ele>2105.4</ele>
        <time>2021-03-25T14:44:59Z</time>
      </trkpt>
      <trkpt lat="42.87633" lon="0.1401">
        <ele>2105.4</ele>
        <time>2021-03-25T14:45:00Z</time>
      </trkpt>
      <trkpt lat="42.87634" lon="0.14009">
        <ele>2105.4</ele>
        <time>2021-03-25T14:45:02Z</time>
      </trkpt>
      <trkpt lat="42.87634" lon="0.14009">
        <ele>2103.9</ele>
        <time>2021-03-25T14:45:03Z</time>
      </trkpt>
      <trkpt lat="42.87635" lon="0.14008">
        <ele>2104.7</ele>
        <time>2021-03-25T14:45:05Z</time>
      </trkpt>
      <trkpt lat="42.87636" lon="0.14007">
        <ele>2104.7</ele>
        <time>2021-03-25T14:45:07Z</time>
      </trkpt>
      <trkpt lat="42.87636" lon="0.14005">
        <ele>2104.7</ele>
        <time>2021-03-25T14:45:08Z</time>
      </trkpt>
      <trkpt lat="42.87637" lon="0.14004">
        <ele>2104.7</ele>
        <time>2021-03-25T14:45:09Z</time>
      </trkpt>
      <trkpt lat="42.87637" lon="0.14003">
        <ele>2103.9</ele>
        <time>2021-03-25T14:45:10Z</time>
      </trkpt>
      <trkpt lat="42.87638" lon="0.14002">
        <ele>2103.9</ele>
        <time>2021-03-25T14:45:12Z</time>
      </trkpt>
      <trkpt lat="42.87639" lon="0.14">
        <ele>2103.9</ele>
        <time>2021-03-25T14:45:13Z</time>
      </trkpt>
      <trkpt lat="42.87639" lon="0.13999">
        <ele>2103.9</ele>
        <time>2021-03-25T14:45:15Z</time>
      </trkpt>
      <trkpt lat="42.87639" lon="0.13999">
        <ele>2104.6</ele>
        <time>2021-03-25T14:45:16Z</time>
      </trkpt>
      <trkpt lat="42.8764" lon="0.13998">
        <ele>2104.6</ele>
        <time>2021-03-25T14:45:18Z</time>
      </trkpt>
      <trkpt lat="42.87641" lon="0.13997">
        <ele>2103.3</ele>
        <time>2021-03-25T14:45:19Z</time>
      </trkpt>
      <trkpt lat="42.87642" lon="0.13997">
        <ele>2103.3</ele>
        <time>2021-03-25T14:45:21Z</time>
      </trkpt>
      <trkpt lat="42.87642" lon="0.13996">
        <ele>2103.3</ele>
        <time>2021-03-25T14:45:22Z</time>
      </trkpt>
      <trkpt lat="42.87644" lon="0.13994">
        <ele>2102.7</ele>
        <time>2021-03-25T14:45:24Z</time>
      </trkpt>
      <trkpt lat="42.87647" lon="0.13991">
        <ele>2101.4</ele>
        <time>2021-03-25T14:45:25Z</time>
      </trkpt>
      <trkpt lat="42.87648" lon="0.1399">
        <ele>2102.1</ele>
        <time>2021-03-25T14:45:26Z</time>
      </trkpt>
      <trkpt lat="42.8765" lon="0.13988">
        <ele>2102.1</ele>
        <time>2021-03-25T14:45:28Z</time>
      </trkpt>
      <trkpt lat="42.87651" lon="0.13987">
        <ele>2100.9</ele>
        <time>2021-03-25T14:45:29Z</time>
      </trkpt>
      <trkpt lat="42.87652" lon="0.13986">
        <ele>2101.5</ele>
        <time>2021-03-25T14:45:31Z</time>
      </trkpt>
      <trkpt lat="42.87653" lon="0.13985">
        <ele>2101.5</ele>
        <time>2021-03-25T14:45:32Z</time>
      </trkpt>
      <trkpt lat="42.87654" lon="0.13985">
        <ele>2100.3</ele>
        <time>2021-03-25T14:45:33Z</time>
      </trkpt>
      <trkpt lat="42.87654" lon="0.13985">
        <ele>2100.3</ele>
        <time>2021-03-25T14:45:34Z</time>
      </trkpt>
      <trkpt lat="42.87655" lon="0.13984">
        <ele>2100.3</ele>
        <time>2021-03-25T14:45:36Z</time>
      </trkpt>
      <trkpt lat="42.87656" lon="0.13984">
        <ele>2100.3</ele>
        <time>2021-03-25T14:45:37Z</time>
      </trkpt>
      <trkpt lat="42.87656" lon="0.13984">
        <ele>2100.3</ele>
        <time>2021-03-25T14:45:39Z</time>
      </trkpt>
      <trkpt lat="42.87656" lon="0.13983">
        <ele>2099.2</ele>
        <time>2021-03-25T14:45:40Z</time>
      </trkpt>
      <trkpt lat="42.87657" lon="0.13982">
        <ele>2099.2</ele>
        <time>2021-03-25T14:45:42Z</time>
      </trkpt>
      <trkpt lat="42.87657" lon="0.13981">
        <ele>2099.8</ele>
        <time>2021-03-25T14:45:44Z</time>
      </trkpt>
      <trkpt lat="42.87658" lon="0.1398">
        <ele>2099.8</ele>
        <time>2021-03-25T14:45:46Z</time>
      </trkpt>
      <trkpt lat="42.87658" lon="0.1398">
        <ele>2099.8</ele>
        <time>2021-03-25T14:45:47Z</time>
      </trkpt>
      <trkpt lat="42.87659" lon="0.13979">
        <ele>2099.8</ele>
        <time>2021-03-25T14:45:49Z</time>
      </trkpt>
      <trkpt lat="42.87659" lon="0.13978">
        <ele>2098.6</ele>
        <time>2021-03-25T14:45:50Z</time>
      </trkpt>
      <trkpt lat="42.8766" lon="0.13977">
        <ele>2099.3</ele>
        <time>2021-03-25T14:45:51Z</time>
      </trkpt>
      <trkpt lat="42.8766" lon="0.13977">
        <ele>2099.3</ele>
        <time>2021-03-25T14:45:53Z</time>
      </trkpt>
      <trkpt lat="42.87661" lon="0.13976">
        <ele>2099.3</ele>
        <time>2021-03-25T14:45:54Z</time>
      </trkpt>
      <trkpt lat="42.87661" lon="0.13976">
        <ele>2099.3</ele>
        <time>2021-03-25T14:45:56Z</time>
      </trkpt>
      <trkpt lat="42.87662" lon="0.13974">
        <ele>2099.3</ele>
        <time>2021-03-25T14:45:57Z</time>
      </trkpt>
      <trkpt lat="42.87662" lon="0.13973">
        <ele>2100.1</ele>
        <time>2021-03-25T14:45:58Z</time>
      </trkpt>
      <trkpt lat="42.87662" lon="0.13972">
        <ele>2100.1</ele>
        <time>2021-03-25T14:46:00Z</time>
      </trkpt>
      <trkpt lat="42.87663" lon="0.1397">
        <ele>2098.9</ele>
        <time>2021-03-25T14:46:01Z</time>
      </trkpt>
      <trkpt lat="42.87663" lon="0.13966">
        <ele>2099.6</ele>
        <time>2021-03-25T14:46:03Z</time>
      </trkpt>
      <trkpt lat="42.87664" lon="0.13962">
        <ele>2100.3</ele>
        <time>2021-03-25T14:46:04Z</time>
      </trkpt>
      <trkpt lat="42.87666" lon="0.13953">
        <ele>2100.4</ele>
        <time>2021-03-25T14:46:06Z</time>
      </trkpt>
      <trkpt lat="42.87668" lon="0.1394">
        <ele>2102.7</ele>
        <time>2021-03-25T14:46:08Z</time>
      </trkpt>
      <trkpt lat="42.8767" lon="0.13934">
        <ele>2103.1</ele>
        <time>2021-03-25T14:46:09Z</time>
      </trkpt>
      <trkpt lat="42.87671" lon="0.13931">
        <ele>2103.1</ele>
        <time>2021-03-25T14:46:11Z</time>
      </trkpt>
      <trkpt lat="42.87674" lon="0.13931">
        <ele>2101.8</ele>
        <time>2021-03-25T14:46:12Z</time>
      </trkpt>
      <trkpt lat="42.87681" lon="0.13931">
        <ele>2099.4</ele>
        <time>2021-03-25T14:46:14Z</time>
      </trkpt>
      <trkpt lat="42.87689" lon="0.1393">
        <ele>2096.4</ele>
        <time>2021-03-25T14:46:15Z</time>
      </trkpt>
      <trkpt lat="42.87701" lon="0.13927">
        <ele>2092.9</ele>
        <time>2021-03-25T14:46:17Z</time>
      </trkpt>
      <trkpt lat="42.87712" lon="0.13925">
        <ele>2091.2</ele>
        <time>2021-03-25T14:46:19Z</time>
      </trkpt>
      <trkpt lat="42.87716" lon="0.13925">
        <ele>2090.3</ele>
        <time>2021-03-25T14:46:20Z</time>
      </trkpt>
      <trkpt lat="42.87719" lon="0.13921">
        <ele>2090.2</ele>
        <time>2021-03-25T14:46:21Z</time>
      </trkpt>
      <trkpt lat="42.87722" lon="0.13917">
        <ele>2089.9</ele>
        <time>2021-03-25T14:46:22Z</time>
      </trkpt>
      <trkpt lat="42.87731" lon="0.13931">
        <ele>2083.1</ele>
        <time>2021-03-25T14:46:24Z</time>
      </trkpt>
      <trkpt lat="42.87736" lon="0.13933">
        <ele>2081.2</ele>
        <time>2021-03-25T14:46:25Z</time>
      </trkpt>
      <trkpt lat="42.87739" lon="0.13938">
        <ele>2079.5</ele>
        <time>2021-03-25T14:46:26Z</time>
      </trkpt>
      <trkpt lat="42.87743" lon="0.13943">
        <ele>2077.7</ele>
        <time>2021-03-25T14:46:27Z</time>
      </trkpt>
      <trkpt lat="42.87747" lon="0.13947">
        <ele>2075.9</ele>
        <time>2021-03-25T14:46:28Z</time>
      </trkpt>
      <trkpt lat="42.87751" lon="0.13951">
        <ele>2074.1</ele>
        <time>2021-03-25T14:46:30Z</time>
      </trkpt>
      <trkpt lat="42.87755" lon="0.13958">
        <ele>2070.9</ele>
        <time>2021-03-25T14:46:31Z</time>
      </trkpt>
      <trkpt lat="42.87759" lon="0.13961">
        <ele>2069.5</ele>
        <time>2021-03-25T14:46:32Z</time>
      </trkpt>
      <trkpt lat="42.87766" lon="0.13969">
        <ele>2066.8</ele>
        <time>2021-03-25T14:46:33Z</time>
      </trkpt>
      <trkpt lat="42.8777" lon="0.13974">
        <ele>2064.2</ele>
        <time>2021-03-25T14:46:34Z</time>
      </trkpt>
      <trkpt lat="42.87775" lon="0.13977">
        <ele>2062.9</ele>
        <time>2021-03-25T14:46:35Z</time>
      </trkpt>
      <trkpt lat="42.87782" lon="0.13975">
        <ele>2059</ele>
        <time>2021-03-25T14:46:37Z</time>
      </trkpt>
      <trkpt lat="42.87784" lon="0.13976">
        <ele>2059</ele>
        <time>2021-03-25T14:46:38Z</time>
      </trkpt>
      <trkpt lat="42.87789" lon="0.13974">
        <ele>2056.5</ele>
        <time>2021-03-25T14:46:40Z</time>
      </trkpt>
      <trkpt lat="42.87792" lon="0.13969">
        <ele>2055.4</ele>
        <time>2021-03-25T14:46:42Z</time>
      </trkpt>
      <trkpt lat="42.87795" lon="0.13964">
        <ele>2054.7</ele>
        <time>2021-03-25T14:46:43Z</time>
      </trkpt>
      <trkpt lat="42.87801" lon="0.1396">
        <ele>2052.5</ele>
        <time>2021-03-25T14:46:45Z</time>
      </trkpt>
      <trkpt lat="42.87806" lon="0.1396">
        <ele>2051.3</ele>
        <time>2021-03-25T14:46:47Z</time>
      </trkpt>
      <trkpt lat="42.8781" lon="0.13958">
        <ele>2050</ele>
        <time>2021-03-25T14:46:48Z</time>
      </trkpt>
      <trkpt lat="42.87811" lon="0.13954">
        <ele>2049.1</ele>
        <time>2021-03-25T14:46:50Z</time>
      </trkpt>
      <trkpt lat="42.87813" lon="0.13951">
        <ele>2049.5</ele>
        <time>2021-03-25T14:46:51Z</time>
      </trkpt>
      <trkpt lat="42.87815" lon="0.13953">
        <ele>2047.8</ele>
        <time>2021-03-25T14:46:52Z</time>
      </trkpt>
      <trkpt lat="42.87819" lon="0.13955">
        <ele>2046.6</ele>
        <time>2021-03-25T14:46:54Z</time>
      </trkpt>
      <trkpt lat="42.87822" lon="0.13952">
        <ele>2045.5</ele>
        <time>2021-03-25T14:46:55Z</time>
      </trkpt>
      <trkpt lat="42.87827" lon="0.13949">
        <ele>2043.5</ele>
        <time>2021-03-25T14:46:56Z</time>
      </trkpt>
      <trkpt lat="42.87831" lon="0.13944">
        <ele>2042.6</ele>
        <time>2021-03-25T14:46:58Z</time>
      </trkpt>
      <trkpt lat="42.87836" lon="0.13941">
        <ele>2040.3</ele>
        <time>2021-03-25T14:47:00Z</time>
      </trkpt>
      <trkpt lat="42.87839" lon="0.13939">
        <ele>2040.3</ele>
        <time>2021-03-25T14:47:02Z</time>
      </trkpt>
      <trkpt lat="42.87842" lon="0.13936">
        <ele>2038.3</ele>
        <time>2021-03-25T14:47:03Z</time>
      </trkpt>
      <trkpt lat="42.87844" lon="0.13935">
        <ele>2038.3</ele>
        <time>2021-03-25T14:47:05Z</time>
      </trkpt>
      <trkpt lat="42.87845" lon="0.13934">
        <ele>2037.6</ele>
        <time>2021-03-25T14:47:06Z</time>
      </trkpt>
      <trkpt lat="42.87849" lon="0.13932">
        <ele>2036.6</ele>
        <time>2021-03-25T14:47:08Z</time>
      </trkpt>
      <trkpt lat="42.87851" lon="0.13929">
        <ele>2035.9</ele>
        <time>2021-03-25T14:47:10Z</time>
      </trkpt>
      <trkpt lat="42.87855" lon="0.13929">
        <ele>2034.8</ele>
        <time>2021-03-25T14:47:11Z</time>
      </trkpt>
      <trkpt lat="42.87858" lon="0.13931">
        <ele>2033.4</ele>
        <time>2021-03-25T14:47:13Z</time>
      </trkpt>
      <trkpt lat="42.87859" lon="0.13933">
        <ele>2033.4</ele>
        <time>2021-03-25T14:47:14Z</time>
      </trkpt>
      <trkpt lat="42.87859" lon="0.13936">
        <ele>2033.1</ele>
        <time>2021-03-25T14:47:16Z</time>
      </trkpt>
      <trkpt lat="42.87859" lon="0.13941">
        <ele>2032.8</ele>
        <time>2021-03-25T14:47:17Z</time>
      </trkpt>
      <trkpt lat="42.87858" lon="0.13946">
        <ele>2032.6</ele>
        <time>2021-03-25T14:47:18Z</time>
      </trkpt>
      <trkpt lat="42.8786" lon="0.13946">
        <ele>2032.6</ele>
        <time>2021-03-25T14:47:20Z</time>
      </trkpt>
      <trkpt lat="42.87859" lon="0.13947">
        <ele>2032.6</ele>
        <time>2021-03-25T14:47:21Z</time>
      </trkpt>
      <trkpt lat="42.87859" lon="0.13947">
        <ele>2032.6</ele>
        <time>2021-03-25T14:47:23Z</time>
      </trkpt>
      <trkpt lat="42.87858" lon="0.13947">
        <ele>2032.6</ele>
        <time>2021-03-25T14:47:25Z</time>
      </trkpt>
      <trkpt lat="42.87858" lon="0.13947">
        <ele>2032.6</ele>
        <time>2021-03-25T14:47:26Z</time>
      </trkpt>
      <trkpt lat="42.87858" lon="0.13947">
        <ele>2032.6</ele>
        <time>2021-03-25T14:47:27Z</time>
      </trkpt>
      <trkpt lat="42.87859" lon="0.13948">
        <ele>2032.4</ele>
        <time>2021-03-25T14:47:29Z</time>
      </trkpt>
      <trkpt lat="42.8786" lon="0.1395">
        <ele>2032.4</ele>
        <time>2021-03-25T14:47:30Z</time>
      </trkpt>
      <trkpt lat="42.87862" lon="0.13954">
        <ele>2031.4</ele>
        <time>2021-03-25T14:47:31Z</time>
      </trkpt>
      <trkpt lat="42.87862" lon="0.13955">
        <ele>2031.4</ele>
        <time>2021-03-25T14:47:32Z</time>
      </trkpt>
      <trkpt lat="42.87863" lon="0.13957">
        <ele>2031.3</ele>
        <time>2021-03-25T14:47:33Z</time>
      </trkpt>
      <trkpt lat="42.87865" lon="0.13957">
        <ele>2030.5</ele>
        <time>2021-03-25T14:47:34Z</time>
      </trkpt>
      <trkpt lat="42.87866" lon="0.13957">
        <ele>2030.5</ele>
        <time>2021-03-25T14:47:36Z</time>
      </trkpt>
      <trkpt lat="42.87866" lon="0.13958">
        <ele>2030.5</ele>
        <time>2021-03-25T14:47:37Z</time>
      </trkpt>
      <trkpt lat="42.87867" lon="0.13958">
        <ele>2030.5</ele>
        <time>2021-03-25T14:47:38Z</time>
      </trkpt>
      <trkpt lat="42.87867" lon="0.13958">
        <ele>2029.8</ele>
        <time>2021-03-25T14:47:39Z</time>
      </trkpt>
      <trkpt lat="42.87869" lon="0.13959">
        <ele>2029.8</ele>
        <time>2021-03-25T14:47:41Z</time>
      </trkpt>
      <trkpt lat="42.87871" lon="0.1396">
        <ele>2029.1</ele>
        <time>2021-03-25T14:47:42Z</time>
      </trkpt>
      <trkpt lat="42.87878" lon="0.13957">
        <ele>2028.1</ele>
        <time>2021-03-25T14:47:44Z</time>
      </trkpt>
      <trkpt lat="42.87881" lon="0.13957">
        <ele>2027.6</ele>
        <time>2021-03-25T14:47:45Z</time>
      </trkpt>
      <trkpt lat="42.87889" lon="0.13952">
        <ele>2026.4</ele>
        <time>2021-03-25T14:47:47Z</time>
      </trkpt>
      <trkpt lat="42.87894" lon="0.13947">
        <ele>2025.5</ele>
        <time>2021-03-25T14:47:49Z</time>
      </trkpt>
      <trkpt lat="42.879" lon="0.13946">
        <ele>2025</ele>
        <time>2021-03-25T14:47:50Z</time>
      </trkpt>
      <trkpt lat="42.87904" lon="0.13946">
        <ele>2024.9</ele>
        <time>2021-03-25T14:47:51Z</time>
      </trkpt>
      <trkpt lat="42.87908" lon="0.13943">
        <ele>2024.6</ele>
        <time>2021-03-25T14:47:52Z</time>
      </trkpt>
      <trkpt lat="42.87911" lon="0.13944">
        <ele>2024.9</ele>
        <time>2021-03-25T14:47:53Z</time>
      </trkpt>
      <trkpt lat="42.87913" lon="0.13946">
        <ele>2024.9</ele>
        <time>2021-03-25T14:47:55Z</time>
      </trkpt>
      <trkpt lat="42.87917" lon="0.13947">
        <ele>2025</ele>
        <time>2021-03-25T14:47:56Z</time>
      </trkpt>
      <trkpt lat="42.87921" lon="0.13944">
        <ele>2025.4</ele>
        <time>2021-03-25T14:47:57Z</time>
      </trkpt>
      <trkpt lat="42.87923" lon="0.13938">
        <ele>2024.4</ele>
        <time>2021-03-25T14:47:59Z</time>
      </trkpt>
      <trkpt lat="42.87925" lon="0.13933">
        <ele>2024.1</ele>
        <time>2021-03-25T14:48:00Z</time>
      </trkpt>
      <trkpt lat="42.87926" lon="0.13932">
        <ele>2024.1</ele>
        <time>2021-03-25T14:48:01Z</time>
      </trkpt>
      <trkpt lat="42.87927" lon="0.13932">
        <ele>2024.4</ele>
        <time>2021-03-25T14:48:03Z</time>
      </trkpt>
      <trkpt lat="42.87928" lon="0.13931">
        <ele>2024.4</ele>
        <time>2021-03-25T14:48:04Z</time>
      </trkpt>
      <trkpt lat="42.87929" lon="0.1393">
        <ele>2023.8</ele>
        <time>2021-03-25T14:48:05Z</time>
      </trkpt>
      <trkpt lat="42.8793" lon="0.13929">
        <ele>2024.1</ele>
        <time>2021-03-25T14:48:06Z</time>
      </trkpt>
      <trkpt lat="42.87933" lon="0.13925">
        <ele>2023.5</ele>
        <time>2021-03-25T14:48:07Z</time>
      </trkpt>
      <trkpt lat="42.87938" lon="0.13918">
        <ele>2023.4</ele>
        <time>2021-03-25T14:48:09Z</time>
      </trkpt>
      <trkpt lat="42.87939" lon="0.13909">
        <ele>2022.5</ele>
        <time>2021-03-25T14:48:10Z</time>
      </trkpt>
      <trkpt lat="42.87939" lon="0.13903">
        <ele>2021.7</ele>
        <time>2021-03-25T14:48:11Z</time>
      </trkpt>
      <trkpt lat="42.8794" lon="0.13895">
        <ele>2020.8</ele>
        <time>2021-03-25T14:48:12Z</time>
      </trkpt>
      <trkpt lat="42.87942" lon="0.13891">
        <ele>2020.4</ele>
        <time>2021-03-25T14:48:13Z</time>
      </trkpt>
      <trkpt lat="42.87943" lon="0.13887">
        <ele>2019.8</ele>
        <time>2021-03-25T14:48:15Z</time>
      </trkpt>
      <trkpt lat="42.87942" lon="0.13885">
        <ele>2019.9</ele>
        <time>2021-03-25T14:48:17Z</time>
      </trkpt>
      <trkpt lat="42.87943" lon="0.13884">
        <ele>2019.8</ele>
        <time>2021-03-25T14:48:18Z</time>
      </trkpt>
      <trkpt lat="42.87941" lon="0.13869">
        <ele>2018.5</ele>
        <time>2021-03-25T14:48:20Z</time>
      </trkpt>
      <trkpt lat="42.87942" lon="0.13855">
        <ele>2017.5</ele>
        <time>2021-03-25T14:48:22Z</time>
      </trkpt>
      <trkpt lat="42.87944" lon="0.13853">
        <ele>2016.7</ele>
        <time>2021-03-25T14:48:24Z</time>
      </trkpt>
      <trkpt lat="42.87946" lon="0.13844">
        <ele>2015.4</ele>
        <time>2021-03-25T14:48:26Z</time>
      </trkpt>
      <trkpt lat="42.87947" lon="0.13837">
        <ele>2015</ele>
        <time>2021-03-25T14:48:27Z</time>
      </trkpt>
      <trkpt lat="42.87948" lon="0.13832">
        <ele>2014.5</ele>
        <time>2021-03-25T14:48:28Z</time>
      </trkpt>
      <trkpt lat="42.8795" lon="0.13827">
        <ele>2013.1</ele>
        <time>2021-03-25T14:48:29Z</time>
      </trkpt>
      <trkpt lat="42.87952" lon="0.1382">
        <ele>2012.7</ele>
        <time>2021-03-25T14:48:31Z</time>
      </trkpt>
      <trkpt lat="42.87955" lon="0.13814">
        <ele>2011.4</ele>
        <time>2021-03-25T14:48:32Z</time>
      </trkpt>
      <trkpt lat="42.87956" lon="0.1381">
        <ele>2010.6</ele>
        <time>2021-03-25T14:48:33Z</time>
      </trkpt>
      <trkpt lat="42.87958" lon="0.13805">
        <ele>2010.2</ele>
        <time>2021-03-25T14:48:34Z</time>
      </trkpt>
      <trkpt lat="42.87962" lon="0.13795">
        <ele>2008.5</ele>
        <time>2021-03-25T14:48:36Z</time>
      </trkpt>
      <trkpt lat="42.87963" lon="0.13789">
        <ele>2008.1</ele>
        <time>2021-03-25T14:48:37Z</time>
      </trkpt>
      <trkpt lat="42.87965" lon="0.13782">
        <ele>2006.8</ele>
        <time>2021-03-25T14:48:39Z</time>
      </trkpt>
      <trkpt lat="42.87966" lon="0.13776">
        <ele>2006.2</ele>
        <time>2021-03-25T14:48:40Z</time>
      </trkpt>
      <trkpt lat="42.87967" lon="0.1377">
        <ele>2005.9</ele>
        <time>2021-03-25T14:48:41Z</time>
      </trkpt>
      <trkpt lat="42.87969" lon="0.13764">
        <ele>2004.9</ele>
        <time>2021-03-25T14:48:42Z</time>
      </trkpt>
      <trkpt lat="42.87969" lon="0.13759">
        <ele>2004.6</ele>
        <time>2021-03-25T14:48:44Z</time>
      </trkpt>
      <trkpt lat="42.8797" lon="0.13755">
        <ele>2004.4</ele>
        <time>2021-03-25T14:48:45Z</time>
      </trkpt>
      <trkpt lat="42.8797" lon="0.13753">
        <ele>2004.2</ele>
        <time>2021-03-25T14:48:46Z</time>
      </trkpt>
      <trkpt lat="42.87972" lon="0.13748">
        <ele>2003</ele>
        <time>2021-03-25T14:48:48Z</time>
      </trkpt>
      <trkpt lat="42.87973" lon="0.13745">
        <ele>2002.8</ele>
        <time>2021-03-25T14:48:49Z</time>
      </trkpt>
      <trkpt lat="42.87973" lon="0.13742">
        <ele>2002.8</ele>
        <time>2021-03-25T14:48:51Z</time>
      </trkpt>
      <trkpt lat="42.87973" lon="0.1374">
        <ele>2002.6</ele>
        <time>2021-03-25T14:48:52Z</time>
      </trkpt>
      <trkpt lat="42.87973" lon="0.13738">
        <ele>2002.6</ele>
        <time>2021-03-25T14:48:53Z</time>
      </trkpt>
      <trkpt lat="42.87973" lon="0.13736">
        <ele>2002.5</ele>
        <time>2021-03-25T14:48:54Z</time>
      </trkpt>
      <trkpt lat="42.87973" lon="0.13732">
        <ele>2002.4</ele>
        <time>2021-03-25T14:48:56Z</time>
      </trkpt>
      <trkpt lat="42.87974" lon="0.13728">
        <ele>2001.2</ele>
        <time>2021-03-25T14:48:57Z</time>
      </trkpt>
      <trkpt lat="42.87974" lon="0.13727">
        <ele>2001.2</ele>
        <time>2021-03-25T14:48:58Z</time>
      </trkpt>
      <trkpt lat="42.87977" lon="0.13723">
        <ele>2001.2</ele>
        <time>2021-03-25T14:49:00Z</time>
      </trkpt>
      <trkpt lat="42.87979" lon="0.13718">
        <ele>2000</ele>
        <time>2021-03-25T14:49:01Z</time>
      </trkpt>
      <trkpt lat="42.87981" lon="0.13712">
        <ele>1998.9</ele>
        <time>2021-03-25T14:49:03Z</time>
      </trkpt>
      <trkpt lat="42.87982" lon="0.13707">
        <ele>1998.8</ele>
        <time>2021-03-25T14:49:04Z</time>
      </trkpt>
      <trkpt lat="42.87983" lon="0.13705">
        <ele>1998.7</ele>
        <time>2021-03-25T14:49:05Z</time>
      </trkpt>
      <trkpt lat="42.87983" lon="0.13702">
        <ele>1997.7</ele>
        <time>2021-03-25T14:49:06Z</time>
      </trkpt>
      <trkpt lat="42.87984" lon="0.13697">
        <ele>1997.7</ele>
        <time>2021-03-25T14:49:08Z</time>
      </trkpt>
      <trkpt lat="42.87986" lon="0.13693">
        <ele>1997.6</ele>
        <time>2021-03-25T14:49:09Z</time>
      </trkpt>
      <trkpt lat="42.87988" lon="0.13689">
        <ele>1996.6</ele>
        <time>2021-03-25T14:49:10Z</time>
      </trkpt>
      <trkpt lat="42.8799" lon="0.13682">
        <ele>1995.6</ele>
        <time>2021-03-25T14:49:12Z</time>
      </trkpt>
      <trkpt lat="42.87992" lon="0.13674">
        <ele>1995.4</ele>
        <time>2021-03-25T14:49:14Z</time>
      </trkpt>
      <trkpt lat="42.87993" lon="0.1367">
        <ele>1994.2</ele>
        <time>2021-03-25T14:49:15Z</time>
      </trkpt>
      <trkpt lat="42.87995" lon="0.13665">
        <ele>1994.2</ele>
        <time>2021-03-25T14:49:17Z</time>
      </trkpt>
      <trkpt lat="42.87996" lon="0.13663">
        <ele>1994.1</ele>
        <time>2021-03-25T14:49:18Z</time>
      </trkpt>
      <trkpt lat="42.87997" lon="0.13657">
        <ele>1992.7</ele>
        <time>2021-03-25T14:49:20Z</time>
      </trkpt>
      <trkpt lat="42.87999" lon="0.13653">
        <ele>1992.7</ele>
        <time>2021-03-25T14:49:21Z</time>
      </trkpt>
      <trkpt lat="42.88" lon="0.1365">
        <ele>1991.3</ele>
        <time>2021-03-25T14:49:22Z</time>
      </trkpt>
      <trkpt lat="42.88" lon="0.13649">
        <ele>1991.3</ele>
        <time>2021-03-25T14:49:23Z</time>
      </trkpt>
      <trkpt lat="42.88003" lon="0.13644">
        <ele>1990</ele>
        <time>2021-03-25T14:49:25Z</time>
      </trkpt>
      <trkpt lat="42.88005" lon="0.13638">
        <ele>1990.1</ele>
        <time>2021-03-25T14:49:27Z</time>
      </trkpt>
      <trkpt lat="42.88005" lon="0.13636">
        <ele>1990.1</ele>
        <time>2021-03-25T14:49:28Z</time>
      </trkpt>
      <trkpt lat="42.88005" lon="0.13636">
        <ele>1990.1</ele>
        <time>2021-03-25T14:49:30Z</time>
      </trkpt>
      <trkpt lat="42.88005" lon="0.13636">
        <ele>1990.1</ele>
        <time>2021-03-25T14:49:31Z</time>
      </trkpt>
      <trkpt lat="42.88005" lon="0.13637">
        <ele>1990.1</ele>
        <time>2021-03-25T14:49:32Z</time>
      </trkpt>
      <trkpt lat="42.88005" lon="0.13638">
        <ele>1990.1</ele>
        <time>2021-03-25T14:49:34Z</time>
      </trkpt>
      <trkpt lat="42.88004" lon="0.13639">
        <ele>1990</ele>
        <time>2021-03-25T14:49:35Z</time>
      </trkpt>
      <trkpt lat="42.88004" lon="0.1364">
        <ele>1990</ele>
        <time>2021-03-25T14:49:36Z</time>
      </trkpt>
      <trkpt lat="42.88004" lon="0.1364">
        <ele>1990</ele>
        <time>2021-03-25T14:49:38Z</time>
      </trkpt>
      <trkpt lat="42.88004" lon="0.1364">
        <ele>1990</ele>
        <time>2021-03-25T14:49:39Z</time>
      </trkpt>
      <trkpt lat="42.88004" lon="0.1364">
        <ele>1990</ele>
        <time>2021-03-25T14:49:40Z</time>
      </trkpt>
      <trkpt lat="42.88004" lon="0.1364">
        <ele>1990</ele>
        <time>2021-03-25T14:49:42Z</time>
      </trkpt>
      <trkpt lat="42.88003" lon="0.1364">
        <ele>1990</ele>
        <time>2021-03-25T14:49:43Z</time>
      </trkpt>
      <trkpt lat="42.88003" lon="0.1364">
        <ele>1990</ele>
        <time>2021-03-25T14:49:44Z</time>
      </trkpt>
      <trkpt lat="42.88003" lon="0.1364">
        <ele>1990</ele>
        <time>2021-03-25T14:49:45Z</time>
      </trkpt>
      <trkpt lat="42.88003" lon="0.1364">
        <ele>1990</ele>
        <time>2021-03-25T14:49:46Z</time>
      </trkpt>
      <trkpt lat="42.88003" lon="0.1364">
        <ele>1990</ele>
        <time>2021-03-25T14:49:48Z</time>
      </trkpt>
      <trkpt lat="42.88003" lon="0.1364">
        <ele>1990</ele>
        <time>2021-03-25T14:49:50Z</time>
      </trkpt>
      <trkpt lat="42.88003" lon="0.1364">
        <ele>1990</ele>
        <time>2021-03-25T14:49:51Z</time>
      </trkpt>
      <trkpt lat="42.88003" lon="0.13639">
        <ele>1990</ele>
        <time>2021-03-25T14:49:52Z</time>
      </trkpt>
      <trkpt lat="42.88005" lon="0.13636">
        <ele>1990.1</ele>
        <time>2021-03-25T14:49:53Z</time>
      </trkpt>
      <trkpt lat="42.88006" lon="0.13633">
        <ele>1988.8</ele>
        <time>2021-03-25T14:49:55Z</time>
      </trkpt>
      <trkpt lat="42.88007" lon="0.13632">
        <ele>1988.8</ele>
        <time>2021-03-25T14:49:56Z</time>
      </trkpt>
      <trkpt lat="42.88008" lon="0.13632">
        <ele>1988.8</ele>
        <time>2021-03-25T14:49:57Z</time>
      </trkpt>
      <trkpt lat="42.88008" lon="0.13631">
        <ele>1988.8</ele>
        <time>2021-03-25T14:49:58Z</time>
      </trkpt>
      <trkpt lat="42.88009" lon="0.13631">
        <ele>1987.6</ele>
        <time>2021-03-25T14:49:59Z</time>
      </trkpt>
      <trkpt lat="42.8801" lon="0.1363">
        <ele>1987.6</ele>
        <time>2021-03-25T14:50:01Z</time>
      </trkpt>
      <trkpt lat="42.8801" lon="0.13629">
        <ele>1987.6</ele>
        <time>2021-03-25T14:50:02Z</time>
      </trkpt>
      <trkpt lat="42.8801" lon="0.13629">
        <ele>1987.6</ele>
        <time>2021-03-25T14:50:04Z</time>
      </trkpt>
      <trkpt lat="42.88011" lon="0.13628">
        <ele>1987.6</ele>
        <time>2021-03-25T14:50:05Z</time>
      </trkpt>
      <trkpt lat="42.88012" lon="0.13627">
        <ele>1987.6</ele>
        <time>2021-03-25T14:50:06Z</time>
      </trkpt>
      <trkpt lat="42.88012" lon="0.13627">
        <ele>1986.6</ele>
        <time>2021-03-25T14:50:08Z</time>
      </trkpt>
      <trkpt lat="42.88012" lon="0.13626">
        <ele>1986.5</ele>
        <time>2021-03-25T14:50:09Z</time>
      </trkpt>
      <trkpt lat="42.88012" lon="0.13625">
        <ele>1986.5</ele>
        <time>2021-03-25T14:50:10Z</time>
      </trkpt>
      <trkpt lat="42.88012" lon="0.13624">
        <ele>1986.5</ele>
        <time>2021-03-25T14:50:12Z</time>
      </trkpt>
      <trkpt lat="42.88013" lon="0.13623">
        <ele>1986.5</ele>
        <time>2021-03-25T14:50:13Z</time>
      </trkpt>
      <trkpt lat="42.88013" lon="0.13622">
        <ele>1986.5</ele>
        <time>2021-03-25T14:50:14Z</time>
      </trkpt>
      <trkpt lat="42.88014" lon="0.13618">
        <ele>1986.5</ele>
        <time>2021-03-25T14:50:15Z</time>
      </trkpt>
      <trkpt lat="42.88016" lon="0.13615">
        <ele>1985.3</ele>
        <time>2021-03-25T14:50:16Z</time>
      </trkpt>
      <trkpt lat="42.88016" lon="0.13613">
        <ele>1985.3</ele>
        <time>2021-03-25T14:50:17Z</time>
      </trkpt>
      <trkpt lat="42.88018" lon="0.1361">
        <ele>1984</ele>
        <time>2021-03-25T14:50:19Z</time>
      </trkpt>
      <trkpt lat="42.88019" lon="0.13609">
        <ele>1984</ele>
        <time>2021-03-25T14:50:20Z</time>
      </trkpt>
      <trkpt lat="42.88021" lon="0.13607">
        <ele>1983.9</ele>
        <time>2021-03-25T14:50:22Z</time>
      </trkpt>
      <trkpt lat="42.88021" lon="0.13607">
        <ele>1982.6</ele>
        <time>2021-03-25T14:50:23Z</time>
      </trkpt>
      <trkpt lat="42.88021" lon="0.13607">
        <ele>1982.6</ele>
        <time>2021-03-25T14:50:25Z</time>
      </trkpt>
      <trkpt lat="42.88021" lon="0.13606">
        <ele>1982.6</ele>
        <time>2021-03-25T14:50:26Z</time>
      </trkpt>
      <trkpt lat="42.88023" lon="0.13602">
        <ele>1982.4</ele>
        <time>2021-03-25T14:50:28Z</time>
      </trkpt>
      <trkpt lat="42.88024" lon="0.136">
        <ele>1982.4</ele>
        <time>2021-03-25T14:50:29Z</time>
      </trkpt>
      <trkpt lat="42.88026" lon="0.13595">
        <ele>1980.7</ele>
        <time>2021-03-25T14:50:31Z</time>
      </trkpt>
      <trkpt lat="42.88028" lon="0.1359">
        <ele>1979.1</ele>
        <time>2021-03-25T14:50:32Z</time>
      </trkpt>
      <trkpt lat="42.88029" lon="0.13585">
        <ele>1978.8</ele>
        <time>2021-03-25T14:50:34Z</time>
      </trkpt>
      <trkpt lat="42.8803" lon="0.13581">
        <ele>1978.6</ele>
        <time>2021-03-25T14:50:35Z</time>
      </trkpt>
      <trkpt lat="42.88031" lon="0.1358">
        <ele>1977.1</ele>
        <time>2021-03-25T14:50:36Z</time>
      </trkpt>
      <trkpt lat="42.88032" lon="0.13576">
        <ele>1976.9</ele>
        <time>2021-03-25T14:50:37Z</time>
      </trkpt>
      <trkpt lat="42.88033" lon="0.1357">
        <ele>1976.6</ele>
        <time>2021-03-25T14:50:39Z</time>
      </trkpt>
      <trkpt lat="42.88035" lon="0.13565">
        <ele>1974.7</ele>
        <time>2021-03-25T14:50:40Z</time>
      </trkpt>
      <trkpt lat="42.88038" lon="0.13559">
        <ele>1973.1</ele>
        <time>2021-03-25T14:50:42Z</time>
      </trkpt>
      <trkpt lat="42.88038" lon="0.13558">
        <ele>1973.1</ele>
        <time>2021-03-25T14:50:43Z</time>
      </trkpt>
      <trkpt lat="42.88039" lon="0.13556">
        <ele>1972.9</ele>
        <time>2021-03-25T14:50:45Z</time>
      </trkpt>
      <trkpt lat="42.88039" lon="0.13555">
        <ele>1972.9</ele>
        <time>2021-03-25T14:50:46Z</time>
      </trkpt>
      <trkpt lat="42.8804" lon="0.13555">
        <ele>1972.9</ele>
        <time>2021-03-25T14:50:47Z</time>
      </trkpt>
      <trkpt lat="42.8804" lon="0.13554">
        <ele>1971.6</ele>
        <time>2021-03-25T14:50:48Z</time>
      </trkpt>
      <trkpt lat="42.88041" lon="0.13553">
        <ele>1971.6</ele>
        <time>2021-03-25T14:50:49Z</time>
      </trkpt>
      <trkpt lat="42.88043" lon="0.13552">
        <ele>1971.4</ele>
        <time>2021-03-25T14:50:51Z</time>
      </trkpt>
      <trkpt lat="42.88043" lon="0.13552">
        <ele>1970.1</ele>
        <time>2021-03-25T14:50:52Z</time>
      </trkpt>
      <trkpt lat="42.88043" lon="0.13552">
        <ele>1970.1</ele>
        <time>2021-03-25T14:50:53Z</time>
      </trkpt>
      <trkpt lat="42.88044" lon="0.13552">
        <ele>1970.1</ele>
        <time>2021-03-25T14:50:55Z</time>
      </trkpt>
      <trkpt lat="42.88044" lon="0.13552">
        <ele>1970.1</ele>
        <time>2021-03-25T14:50:56Z</time>
      </trkpt>
      <trkpt lat="42.88045" lon="0.13552">
        <ele>1970.1</ele>
        <time>2021-03-25T14:50:58Z</time>
      </trkpt>
      <trkpt lat="42.88046" lon="0.13551">
        <ele>1968.9</ele>
        <time>2021-03-25T14:51:00Z</time>
      </trkpt>
      <trkpt lat="42.88047" lon="0.1355">
        <ele>1968.9</ele>
        <time>2021-03-25T14:51:02Z</time>
      </trkpt>
      <trkpt lat="42.88048" lon="0.1355">
        <ele>1968.9</ele>
        <time>2021-03-25T14:51:04Z</time>
      </trkpt>
      <trkpt lat="42.88049" lon="0.13549">
        <ele>1968.9</ele>
        <time>2021-03-25T14:51:05Z</time>
      </trkpt>
      <trkpt lat="42.8805" lon="0.13548">
        <ele>1967.5</ele>
        <time>2021-03-25T14:51:06Z</time>
      </trkpt>
      <trkpt lat="42.88053" lon="0.13545">
        <ele>1966.4</ele>
        <time>2021-03-25T14:51:08Z</time>
      </trkpt>
      <trkpt lat="42.88054" lon="0.13544">
        <ele>1966.1</ele>
        <time>2021-03-25T14:51:09Z</time>
      </trkpt>
      <trkpt lat="42.88058" lon="0.1354">
        <ele>1964.8</ele>
        <time>2021-03-25T14:51:11Z</time>
      </trkpt>
      <trkpt lat="42.88062" lon="0.13536">
        <ele>1963.9</ele>
        <time>2021-03-25T14:51:12Z</time>
      </trkpt>
      <trkpt lat="42.88067" lon="0.13528">
        <ele>1961.6</ele>
        <time>2021-03-25T14:51:14Z</time>
      </trkpt>
      <trkpt lat="42.88068" lon="0.13523">
        <ele>1961.2</ele>
        <time>2021-03-25T14:51:15Z</time>
      </trkpt>
      <trkpt lat="42.88069" lon="0.13518">
        <ele>1959.8</ele>
        <time>2021-03-25T14:51:17Z</time>
      </trkpt>
      <trkpt lat="42.88071" lon="0.13513">
        <ele>1959.5</ele>
        <time>2021-03-25T14:51:18Z</time>
      </trkpt>
      <trkpt lat="42.88072" lon="0.13509">
        <ele>1958.5</ele>
        <time>2021-03-25T14:51:19Z</time>
      </trkpt>
      <trkpt lat="42.88072" lon="0.13506">
        <ele>1958.5</ele>
        <time>2021-03-25T14:51:20Z</time>
      </trkpt>
      <trkpt lat="42.88072" lon="0.13502">
        <ele>1958.2</ele>
        <time>2021-03-25T14:51:22Z</time>
      </trkpt>
      <trkpt lat="42.88071" lon="0.13498">
        <ele>1958.5</ele>
        <time>2021-03-25T14:51:24Z</time>
      </trkpt>
      <trkpt lat="42.8807" lon="0.13496">
        <ele>1958.2</ele>
        <time>2021-03-25T14:51:25Z</time>
      </trkpt>
      <trkpt lat="42.8807" lon="0.13495">
        <ele>1958.2</ele>
        <time>2021-03-25T14:51:27Z</time>
      </trkpt>
      <trkpt lat="42.8807" lon="0.13494">
        <ele>1958.2</ele>
        <time>2021-03-25T14:51:28Z</time>
      </trkpt>
      <trkpt lat="42.8807" lon="0.13493">
        <ele>1958.2</ele>
        <time>2021-03-25T14:51:29Z</time>
      </trkpt>
      <trkpt lat="42.8807" lon="0.13489">
        <ele>1957.9</ele>
        <time>2021-03-25T14:51:31Z</time>
      </trkpt>
      <trkpt lat="42.8807" lon="0.13488">
        <ele>1957.6</ele>
        <time>2021-03-25T14:51:32Z</time>
      </trkpt>
      <trkpt lat="42.8807" lon="0.13487">
        <ele>1957.6</ele>
        <time>2021-03-25T14:51:33Z</time>
      </trkpt>
      <trkpt lat="42.8807" lon="0.13485">
        <ele>1957.6</ele>
        <time>2021-03-25T14:51:34Z</time>
      </trkpt>
      <trkpt lat="42.88069" lon="0.1348">
        <ele>1957.3</ele>
        <time>2021-03-25T14:51:36Z</time>
      </trkpt>
      <trkpt lat="42.88069" lon="0.13478">
        <ele>1957</ele>
        <time>2021-03-25T14:51:37Z</time>
      </trkpt>
      <trkpt lat="42.88069" lon="0.13474">
        <ele>1956.8</ele>
        <time>2021-03-25T14:51:39Z</time>
      </trkpt>
      <trkpt lat="42.88069" lon="0.1347">
        <ele>1956.5</ele>
        <time>2021-03-25T14:51:40Z</time>
      </trkpt>
      <trkpt lat="42.88068" lon="0.13465">
        <ele>1956.3</ele>
        <time>2021-03-25T14:51:41Z</time>
      </trkpt>
      <trkpt lat="42.88068" lon="0.13464">
        <ele>1956.3</ele>
        <time>2021-03-25T14:51:42Z</time>
      </trkpt>
      <trkpt lat="42.88068" lon="0.1346">
        <ele>1957.1</ele>
        <time>2021-03-25T14:51:44Z</time>
      </trkpt>
      <trkpt lat="42.88067" lon="0.13456">
        <ele>1957</ele>
        <time>2021-03-25T14:51:45Z</time>
      </trkpt>
      <trkpt lat="42.88067" lon="0.13452">
        <ele>1956.9</ele>
        <time>2021-03-25T14:51:46Z</time>
      </trkpt>
      <trkpt lat="42.88066" lon="0.13451">
        <ele>1956.9</ele>
        <time>2021-03-25T14:51:47Z</time>
      </trkpt>
      <trkpt lat="42.88066" lon="0.13447">
        <ele>1956.8</ele>
        <time>2021-03-25T14:51:48Z</time>
      </trkpt>
      <trkpt lat="42.88065" lon="0.13442">
        <ele>1957.9</ele>
        <time>2021-03-25T14:51:50Z</time>
      </trkpt>
      <trkpt lat="42.88065" lon="0.13438">
        <ele>1957.9</ele>
        <time>2021-03-25T14:51:51Z</time>
      </trkpt>
      <trkpt lat="42.88064" lon="0.13433">
        <ele>1957.9</ele>
        <time>2021-03-25T14:51:52Z</time>
      </trkpt>
      <trkpt lat="42.88064" lon="0.13431">
        <ele>1957.9</ele>
        <time>2021-03-25T14:51:53Z</time>
      </trkpt>
      <trkpt lat="42.88063" lon="0.13424">
        <ele>1958</ele>
        <time>2021-03-25T14:51:55Z</time>
      </trkpt>
      <trkpt lat="42.88063" lon="0.13417">
        <ele>1958.1</ele>
        <time>2021-03-25T14:51:57Z</time>
      </trkpt>
      <trkpt lat="42.88063" lon="0.13413">
        <ele>1958.1</ele>
        <time>2021-03-25T14:51:58Z</time>
      </trkpt>
      <trkpt lat="42.88064" lon="0.13409">
        <ele>1958.2</ele>
        <time>2021-03-25T14:51:59Z</time>
      </trkpt>
      <trkpt lat="42.88064" lon="0.13406">
        <ele>1958.2</ele>
        <time>2021-03-25T14:52:00Z</time>
      </trkpt>
      <trkpt lat="42.88065" lon="0.13401">
        <ele>1957</ele>
        <time>2021-03-25T14:52:02Z</time>
      </trkpt>
      <trkpt lat="42.88067" lon="0.13396">
        <ele>1957</ele>
        <time>2021-03-25T14:52:03Z</time>
      </trkpt>
      <trkpt lat="42.88069" lon="0.13392">
        <ele>1955.9</ele>
        <time>2021-03-25T14:52:05Z</time>
      </trkpt>
      <trkpt lat="42.8807" lon="0.13388">
        <ele>1956</ele>
        <time>2021-03-25T14:52:06Z</time>
      </trkpt>
      <trkpt lat="42.88073" lon="0.13386">
        <ele>1955</ele>
        <time>2021-03-25T14:52:08Z</time>
      </trkpt>
      <trkpt lat="42.88076" lon="0.13382">
        <ele>1954.2</ele>
        <time>2021-03-25T14:52:10Z</time>
      </trkpt>
      <trkpt lat="42.88078" lon="0.13381">
        <ele>1953.6</ele>
        <time>2021-03-25T14:52:11Z</time>
      </trkpt>
      <trkpt lat="42.88081" lon="0.13377">
        <ele>1952.9</ele>
        <time>2021-03-25T14:52:13Z</time>
      </trkpt>
      <trkpt lat="42.88083" lon="0.13375">
        <ele>1953</ele>
        <time>2021-03-25T14:52:14Z</time>
      </trkpt>
      <trkpt lat="42.88086" lon="0.13371">
        <ele>1952.4</ele>
        <time>2021-03-25T14:52:16Z</time>
      </trkpt>
      <trkpt lat="42.88089" lon="0.13367">
        <ele>1951.9</ele>
        <time>2021-03-25T14:52:17Z</time>
      </trkpt>
      <trkpt lat="42.8809" lon="0.13366">
        <ele>1951.9</ele>
        <time>2021-03-25T14:52:18Z</time>
      </trkpt>
      <trkpt lat="42.88091" lon="0.13364">
        <ele>1951.5</ele>
        <time>2021-03-25T14:52:19Z</time>
      </trkpt>
      <trkpt lat="42.88092" lon="0.13363">
        <ele>1951.5</ele>
        <time>2021-03-25T14:52:20Z</time>
      </trkpt>
      <trkpt lat="42.88093" lon="0.13362">
        <ele>1951.5</ele>
        <time>2021-03-25T14:52:22Z</time>
      </trkpt>
      <trkpt lat="42.88094" lon="0.13361">
        <ele>1951.1</ele>
        <time>2021-03-25T14:52:23Z</time>
      </trkpt>
      <trkpt lat="42.88094" lon="0.1336">
        <ele>1951.1</ele>
        <time>2021-03-25T14:52:24Z</time>
      </trkpt>
      <trkpt lat="42.88095" lon="0.1336">
        <ele>1951.1</ele>
        <time>2021-03-25T14:52:26Z</time>
      </trkpt>
      <trkpt lat="42.88096" lon="0.13358">
        <ele>1951.1</ele>
        <time>2021-03-25T14:52:27Z</time>
      </trkpt>
      <trkpt lat="42.88096" lon="0.13358">
        <ele>1951.1</ele>
        <time>2021-03-25T14:52:29Z</time>
      </trkpt>
      <trkpt lat="42.88096" lon="0.13357">
        <ele>1951</ele>
        <time>2021-03-25T14:52:30Z</time>
      </trkpt>
      <trkpt lat="42.88096" lon="0.13355">
        <ele>1951</ele>
        <time>2021-03-25T14:52:31Z</time>
      </trkpt>
      <trkpt lat="42.88097" lon="0.13355">
        <ele>1951</ele>
        <time>2021-03-25T14:52:32Z</time>
      </trkpt>
      <trkpt lat="42.88097" lon="0.13354">
        <ele>1950.9</ele>
        <time>2021-03-25T14:52:34Z</time>
      </trkpt>
      <trkpt lat="42.88097" lon="0.13353">
        <ele>1950.9</ele>
        <time>2021-03-25T14:52:35Z</time>
      </trkpt>
      <trkpt lat="42.88097" lon="0.13352">
        <ele>1950.9</ele>
        <time>2021-03-25T14:52:36Z</time>
      </trkpt>
      <trkpt lat="42.88098" lon="0.1335">
        <ele>1950.8</ele>
        <time>2021-03-25T14:52:38Z</time>
      </trkpt>
      <trkpt lat="42.88099" lon="0.13348">
        <ele>1950.7</ele>
        <time>2021-03-25T14:52:39Z</time>
      </trkpt>
      <trkpt lat="42.881" lon="0.13344">
        <ele>1950.6</ele>
        <time>2021-03-25T14:52:41Z</time>
      </trkpt>
      <trkpt lat="42.881" lon="0.13342">
        <ele>1950.5</ele>
        <time>2021-03-25T14:52:42Z</time>
      </trkpt>
      <trkpt lat="42.88101" lon="0.13335">
        <ele>1950.3</ele>
        <time>2021-03-25T14:52:44Z</time>
      </trkpt>
      <trkpt lat="42.88101" lon="0.13331">
        <ele>1950.1</ele>
        <time>2021-03-25T14:52:45Z</time>
      </trkpt>
      <trkpt lat="42.88102" lon="0.13327">
        <ele>1950</ele>
        <time>2021-03-25T14:52:46Z</time>
      </trkpt>
      <trkpt lat="42.88103" lon="0.13324">
        <ele>1949.9</ele>
        <time>2021-03-25T14:52:47Z</time>
      </trkpt>
      <trkpt lat="42.88104" lon="0.1332">
        <ele>1949.7</ele>
        <time>2021-03-25T14:52:48Z</time>
      </trkpt>
      <trkpt lat="42.88107" lon="0.13315">
        <ele>1949.5</ele>
        <time>2021-03-25T14:52:50Z</time>
      </trkpt>
      <trkpt lat="42.88108" lon="0.13311">
        <ele>1949.4</ele>
        <time>2021-03-25T14:52:51Z</time>
      </trkpt>
      <trkpt lat="42.8811" lon="0.13308">
        <ele>1949.3</ele>
        <time>2021-03-25T14:52:52Z</time>
      </trkpt>
      <trkpt lat="42.88112" lon="0.13303">
        <ele>1949.1</ele>
        <time>2021-03-25T14:52:54Z</time>
      </trkpt>
      <trkpt lat="42.88113" lon="0.13299">
        <ele>1948.9</ele>
        <time>2021-03-25T14:52:55Z</time>
      </trkpt>
      <trkpt lat="42.88114" lon="0.13298">
        <ele>1948.9</ele>
        <time>2021-03-25T14:52:56Z</time>
      </trkpt>
      <trkpt lat="42.88115" lon="0.13294">
        <ele>1948.8</ele>
        <time>2021-03-25T14:52:58Z</time>
      </trkpt>
      <trkpt lat="42.88117" lon="0.1329">
        <ele>1948.7</ele>
        <time>2021-03-25T14:52:59Z</time>
      </trkpt>
      <trkpt lat="42.88118" lon="0.13287">
        <ele>1948.6</ele>
        <time>2021-03-25T14:53:00Z</time>
      </trkpt>
      <trkpt lat="42.8812" lon="0.13282">
        <ele>1948.5</ele>
        <time>2021-03-25T14:53:02Z</time>
      </trkpt>
      <trkpt lat="42.88121" lon="0.13279">
        <ele>1948.5</ele>
        <time>2021-03-25T14:53:03Z</time>
      </trkpt>
      <trkpt lat="42.88122" lon="0.13278">
        <ele>1948.5</ele>
        <time>2021-03-25T14:53:04Z</time>
      </trkpt>
      <trkpt lat="42.88122" lon="0.13274">
        <ele>1948.4</ele>
        <time>2021-03-25T14:53:05Z</time>
      </trkpt>
      <trkpt lat="42.88123" lon="0.1327">
        <ele>1948.3</ele>
        <time>2021-03-25T14:53:07Z</time>
      </trkpt>
      <trkpt lat="42.88124" lon="0.13266">
        <ele>1948.2</ele>
        <time>2021-03-25T14:53:08Z</time>
      </trkpt>
      <trkpt lat="42.88124" lon="0.1326">
        <ele>1948</ele>
        <time>2021-03-25T14:53:10Z</time>
      </trkpt>
      <trkpt lat="42.88123" lon="0.13258">
        <ele>1947.9</ele>
        <time>2021-03-25T14:53:11Z</time>
      </trkpt>
      <trkpt lat="42.88123" lon="0.13254">
        <ele>1947.7</ele>
        <time>2021-03-25T14:53:13Z</time>
      </trkpt>
      <trkpt lat="42.88122" lon="0.13252">
        <ele>1947.5</ele>
        <time>2021-03-25T14:53:15Z</time>
      </trkpt>
      <trkpt lat="42.88122" lon="0.1325">
        <ele>1947.4</ele>
        <time>2021-03-25T14:53:16Z</time>
      </trkpt>
      <trkpt lat="42.88123" lon="0.13247">
        <ele>1947.2</ele>
        <time>2021-03-25T14:53:18Z</time>
      </trkpt>
      <trkpt lat="42.88123" lon="0.13245">
        <ele>1947.1</ele>
        <time>2021-03-25T14:53:19Z</time>
      </trkpt>
      <trkpt lat="42.88124" lon="0.13244">
        <ele>1947</ele>
        <time>2021-03-25T14:53:20Z</time>
      </trkpt>
      <trkpt lat="42.88125" lon="0.13243">
        <ele>1946.8</ele>
        <time>2021-03-25T14:53:21Z</time>
      </trkpt>
      <trkpt lat="42.88126" lon="0.13239">
        <ele>1946.6</ele>
        <time>2021-03-25T14:53:23Z</time>
      </trkpt>
      <trkpt lat="42.88126" lon="0.13238">
        <ele>1946.5</ele>
        <time>2021-03-25T14:53:24Z</time>
      </trkpt>
      <trkpt lat="42.88125" lon="0.13237">
        <ele>1946.4</ele>
        <time>2021-03-25T14:53:25Z</time>
      </trkpt>
      <trkpt lat="42.88125" lon="0.13236">
        <ele>1946.4</ele>
        <time>2021-03-25T14:53:27Z</time>
      </trkpt>
      <trkpt lat="42.88125" lon="0.13235">
        <ele>1946.2</ele>
        <time>2021-03-25T14:53:28Z</time>
      </trkpt>
      <trkpt lat="42.88125" lon="0.13233">
        <ele>1946.1</ele>
        <time>2021-03-25T14:53:29Z</time>
      </trkpt>
      <trkpt lat="42.88125" lon="0.1323">
        <ele>1945.9</ele>
        <time>2021-03-25T14:53:30Z</time>
      </trkpt>
      <trkpt lat="42.88125" lon="0.13228">
        <ele>1945.7</ele>
        <time>2021-03-25T14:53:32Z</time>
      </trkpt>
      <trkpt lat="42.88125" lon="0.13226">
        <ele>1945.5</ele>
        <time>2021-03-25T14:53:33Z</time>
      </trkpt>
      <trkpt lat="42.88124" lon="0.13222">
        <ele>1945.1</ele>
        <time>2021-03-25T14:53:35Z</time>
      </trkpt>
      <trkpt lat="42.88123" lon="0.13221">
        <ele>1945</ele>
        <time>2021-03-25T14:53:36Z</time>
      </trkpt>
      <trkpt lat="42.88122" lon="0.13219">
        <ele>1944.8</ele>
        <time>2021-03-25T14:53:37Z</time>
      </trkpt>
      <trkpt lat="42.88121" lon="0.13218">
        <ele>1944.6</ele>
        <time>2021-03-25T14:53:38Z</time>
      </trkpt>
      <trkpt lat="42.88121" lon="0.13218">
        <ele>1944.6</ele>
        <time>2021-03-25T14:53:40Z</time>
      </trkpt>
      <trkpt lat="42.88121" lon="0.13217">
        <ele>1944.5</ele>
        <time>2021-03-25T14:53:41Z</time>
      </trkpt>
      <trkpt lat="42.88121" lon="0.13216">
        <ele>1944.4</ele>
        <time>2021-03-25T14:53:42Z</time>
      </trkpt>
      <trkpt lat="42.88121" lon="0.13215">
        <ele>1944.3</ele>
        <time>2021-03-25T14:53:44Z</time>
      </trkpt>
      <trkpt lat="42.88121" lon="0.13214">
        <ele>1944.2</ele>
        <time>2021-03-25T14:53:45Z</time>
      </trkpt>
      <trkpt lat="42.88121" lon="0.13213">
        <ele>1944.1</ele>
        <time>2021-03-25T14:53:47Z</time>
      </trkpt>
      <trkpt lat="42.88121" lon="0.13212">
        <ele>1944</ele>
        <time>2021-03-25T14:53:48Z</time>
      </trkpt>
      <trkpt lat="42.88121" lon="0.13212">
        <ele>1944</ele>
        <time>2021-03-25T14:53:50Z</time>
      </trkpt>
      <trkpt lat="42.8812" lon="0.13212">
        <ele>1944</ele>
        <time>2021-03-25T14:53:51Z</time>
      </trkpt>
      <trkpt lat="42.88121" lon="0.13211">
        <ele>1943.9</ele>
        <time>2021-03-25T14:53:53Z</time>
      </trkpt>
      <trkpt lat="42.8812" lon="0.13211">
        <ele>1943.9</ele>
        <time>2021-03-25T14:53:54Z</time>
      </trkpt>
      <trkpt lat="42.8812" lon="0.1321">
        <ele>1943.8</ele>
        <time>2021-03-25T14:53:56Z</time>
      </trkpt>
      <trkpt lat="42.8812" lon="0.13209">
        <ele>1943.7</ele>
        <time>2021-03-25T14:53:57Z</time>
      </trkpt>
      <trkpt lat="42.8812" lon="0.13209">
        <ele>1943.7</ele>
        <time>2021-03-25T14:53:58Z</time>
      </trkpt>
      <trkpt lat="42.8812" lon="0.13208">
        <ele>1943.6</ele>
        <time>2021-03-25T14:54:00Z</time>
      </trkpt>
      <trkpt lat="42.8812" lon="0.13206">
        <ele>1943.4</ele>
        <time>2021-03-25T14:54:01Z</time>
      </trkpt>
      <trkpt lat="42.8812" lon="0.13205">
        <ele>1943.3</ele>
        <time>2021-03-25T14:54:02Z</time>
      </trkpt>
      <trkpt lat="42.8812" lon="0.13203">
        <ele>1943.1</ele>
        <time>2021-03-25T14:54:04Z</time>
      </trkpt>
      <trkpt lat="42.8812" lon="0.13202">
        <ele>1943</ele>
        <time>2021-03-25T14:54:05Z</time>
      </trkpt>
      <trkpt lat="42.8812" lon="0.13202">
        <ele>1943</ele>
        <time>2021-03-25T14:54:06Z</time>
      </trkpt>
      <trkpt lat="42.8812" lon="0.13202">
        <ele>1943</ele>
        <time>2021-03-25T14:54:07Z</time>
      </trkpt>
      <trkpt lat="42.8812" lon="0.132">
        <ele>1942.8</ele>
        <time>2021-03-25T14:54:09Z</time>
      </trkpt>
      <trkpt lat="42.8812" lon="0.132">
        <ele>1942.8</ele>
        <time>2021-03-25T14:54:10Z</time>
      </trkpt>
      <trkpt lat="42.8812" lon="0.13197">
        <ele>1942.5</ele>
        <time>2021-03-25T14:54:12Z</time>
      </trkpt>
      <trkpt lat="42.88119" lon="0.13196">
        <ele>1942.5</ele>
        <time>2021-03-25T14:54:13Z</time>
      </trkpt>
      <trkpt lat="42.8812" lon="0.13191">
        <ele>1942</ele>
        <time>2021-03-25T14:54:14Z</time>
      </trkpt>
      <trkpt lat="42.8812" lon="0.13189">
        <ele>1941.8</ele>
        <time>2021-03-25T14:54:15Z</time>
      </trkpt>
      <trkpt lat="42.8812" lon="0.13185">
        <ele>1941.5</ele>
        <time>2021-03-25T14:54:16Z</time>
      </trkpt>
      <trkpt lat="42.88121" lon="0.1318">
        <ele>1941.2</ele>
        <time>2021-03-25T14:54:17Z</time>
      </trkpt>
      <trkpt lat="42.88122" lon="0.13174">
        <ele>1940.8</ele>
        <time>2021-03-25T14:54:19Z</time>
      </trkpt>
      <trkpt lat="42.88123" lon="0.13167">
        <ele>1940.4</ele>
        <time>2021-03-25T14:54:20Z</time>
      </trkpt>
      <trkpt lat="42.88124" lon="0.13162">
        <ele>1940.2</ele>
        <time>2021-03-25T14:54:21Z</time>
      </trkpt>
      <trkpt lat="42.88125" lon="0.13153">
        <ele>1939.9</ele>
        <time>2021-03-25T14:54:23Z</time>
      </trkpt>
      <trkpt lat="42.88126" lon="0.13147">
        <ele>1939.6</ele>
        <time>2021-03-25T14:54:25Z</time>
      </trkpt>
      <trkpt lat="42.88127" lon="0.13143">
        <ele>1939.5</ele>
        <time>2021-03-25T14:54:26Z</time>
      </trkpt>
      <trkpt lat="42.88128" lon="0.13138">
        <ele>1939.3</ele>
        <time>2021-03-25T14:54:27Z</time>
      </trkpt>
      <trkpt lat="42.88128" lon="0.13136">
        <ele>1939.3</ele>
        <time>2021-03-25T14:54:28Z</time>
      </trkpt>
      <trkpt lat="42.88129" lon="0.13131">
        <ele>1939.1</ele>
        <time>2021-03-25T14:54:30Z</time>
      </trkpt>
      <trkpt lat="42.88131" lon="0.13128">
        <ele>1939</ele>
        <time>2021-03-25T14:54:31Z</time>
      </trkpt>
      <trkpt lat="42.88132" lon="0.13126">
        <ele>1938.9</ele>
        <time>2021-03-25T14:54:32Z</time>
      </trkpt>
      <trkpt lat="42.88134" lon="0.13124">
        <ele>1938.8</ele>
        <time>2021-03-25T14:54:34Z</time>
      </trkpt>
      <trkpt lat="42.88138" lon="0.13121">
        <ele>1938.7</ele>
        <time>2021-03-25T14:54:35Z</time>
      </trkpt>
      <trkpt lat="42.88147" lon="0.13114">
        <ele>1938.2</ele>
        <time>2021-03-25T14:54:36Z</time>
      </trkpt>
      <trkpt lat="42.88151" lon="0.13105">
        <ele>1937.8</ele>
        <time>2021-03-25T14:54:38Z</time>
      </trkpt>
      <trkpt lat="42.88153" lon="0.13099">
        <ele>1937.6</ele>
        <time>2021-03-25T14:54:40Z</time>
      </trkpt>
      <trkpt lat="42.88153" lon="0.13095">
        <ele>1937.4</ele>
        <time>2021-03-25T14:54:41Z</time>
      </trkpt>
      <trkpt lat="42.88151" lon="0.13091">
        <ele>1937.3</ele>
        <time>2021-03-25T14:54:43Z</time>
      </trkpt>
      <trkpt lat="42.8815" lon="0.1309">
        <ele>1937.2</ele>
        <time>2021-03-25T14:54:45Z</time>
      </trkpt>
      <trkpt lat="42.8815" lon="0.13089">
        <ele>1937.2</ele>
        <time>2021-03-25T14:54:46Z</time>
      </trkpt>
      <trkpt lat="42.88149" lon="0.13088">
        <ele>1937.2</ele>
        <time>2021-03-25T14:54:47Z</time>
      </trkpt>
      <trkpt lat="42.88149" lon="0.13087">
        <ele>1937.1</ele>
        <time>2021-03-25T14:54:49Z</time>
      </trkpt>
      <trkpt lat="42.88149" lon="0.13085">
        <ele>1937.1</ele>
        <time>2021-03-25T14:54:50Z</time>
      </trkpt>
      <trkpt lat="42.88149" lon="0.13084">
        <ele>1937</ele>
        <time>2021-03-25T14:54:51Z</time>
      </trkpt>
      <trkpt lat="42.88149" lon="0.13082">
        <ele>1937</ele>
        <time>2021-03-25T14:54:53Z</time>
      </trkpt>
      <trkpt lat="42.88149" lon="0.13081">
        <ele>1936.9</ele>
        <time>2021-03-25T14:54:54Z</time>
      </trkpt>
      <trkpt lat="42.88149" lon="0.13079">
        <ele>1936.9</ele>
        <time>2021-03-25T14:54:55Z</time>
      </trkpt>
      <trkpt lat="42.88149" lon="0.13077">
        <ele>1936.8</ele>
        <time>2021-03-25T14:54:57Z</time>
      </trkpt>
      <trkpt lat="42.88149" lon="0.13075">
        <ele>1936.8</ele>
        <time>2021-03-25T14:54:58Z</time>
      </trkpt>
      <trkpt lat="42.88149" lon="0.13074">
        <ele>1936.8</ele>
        <time>2021-03-25T14:54:59Z</time>
      </trkpt>
      <trkpt lat="42.88149" lon="0.13071">
        <ele>1936.7</ele>
        <time>2021-03-25T14:55:00Z</time>
      </trkpt>
      <trkpt lat="42.88148" lon="0.13068">
        <ele>1936.6</ele>
        <time>2021-03-25T14:55:02Z</time>
      </trkpt>
      <trkpt lat="42.88147" lon="0.13063">
        <ele>1936.6</ele>
        <time>2021-03-25T14:55:03Z</time>
      </trkpt>
      <trkpt lat="42.88147" lon="0.13061">
        <ele>1936.6</ele>
        <time>2021-03-25T14:55:04Z</time>
      </trkpt>
      <trkpt lat="42.88147" lon="0.13057">
        <ele>1936.5</ele>
        <time>2021-03-25T14:55:06Z</time>
      </trkpt>
      <trkpt lat="42.88147" lon="0.13054">
        <ele>1936.5</ele>
        <time>2021-03-25T14:55:07Z</time>
      </trkpt>
      <trkpt lat="42.88147" lon="0.13051">
        <ele>1936.5</ele>
        <time>2021-03-25T14:55:09Z</time>
      </trkpt>
      <trkpt lat="42.88147" lon="0.1305">
        <ele>1936.5</ele>
        <time>2021-03-25T14:55:11Z</time>
      </trkpt>
      <trkpt lat="42.88147" lon="0.13049">
        <ele>1936.5</ele>
        <time>2021-03-25T14:55:12Z</time>
      </trkpt>
      <trkpt lat="42.88147" lon="0.13047">
        <ele>1936.5</ele>
        <time>2021-03-25T14:55:13Z</time>
      </trkpt>
      <trkpt lat="42.88148" lon="0.13046">
        <ele>1936.5</ele>
        <time>2021-03-25T14:55:14Z</time>
      </trkpt>
      <trkpt lat="42.88148" lon="0.13044">
        <ele>1936.6</ele>
        <time>2021-03-25T14:55:16Z</time>
      </trkpt>
      <trkpt lat="42.88148" lon="0.13043">
        <ele>1936.6</ele>
        <time>2021-03-25T14:55:17Z</time>
      </trkpt>
      <trkpt lat="42.88148" lon="0.13043">
        <ele>1936.6</ele>
        <time>2021-03-25T14:55:18Z</time>
      </trkpt>
      <trkpt lat="42.88148" lon="0.13039">
        <ele>1936.6</ele>
        <time>2021-03-25T14:55:20Z</time>
      </trkpt>
      <trkpt lat="42.88148" lon="0.13034">
        <ele>1936.6</ele>
        <time>2021-03-25T14:55:21Z</time>
      </trkpt>
      <trkpt lat="42.88149" lon="0.13029">
        <ele>1936.6</ele>
        <time>2021-03-25T14:55:23Z</time>
      </trkpt>
      <trkpt lat="42.88149" lon="0.13028">
        <ele>1936.6</ele>
        <time>2021-03-25T14:55:24Z</time>
      </trkpt>
      <trkpt lat="42.8815" lon="0.13025">
        <ele>1936.6</ele>
        <time>2021-03-25T14:55:25Z</time>
      </trkpt>
      <trkpt lat="42.8815" lon="0.13024">
        <ele>1936.6</ele>
        <time>2021-03-25T14:55:26Z</time>
      </trkpt>
      <trkpt lat="42.8815" lon="0.13022">
        <ele>1936.6</ele>
        <time>2021-03-25T14:55:28Z</time>
      </trkpt>
      <trkpt lat="42.88151" lon="0.1302">
        <ele>1936.6</ele>
        <time>2021-03-25T14:55:29Z</time>
      </trkpt>
      <trkpt lat="42.88151" lon="0.13019">
        <ele>1936.6</ele>
        <time>2021-03-25T14:55:30Z</time>
      </trkpt>
      <trkpt lat="42.88151" lon="0.13018">
        <ele>1936.6</ele>
        <time>2021-03-25T14:55:32Z</time>
      </trkpt>
      <trkpt lat="42.88151" lon="0.13017">
        <ele>1936.6</ele>
        <time>2021-03-25T14:55:33Z</time>
      </trkpt>
      <trkpt lat="42.88151" lon="0.13017">
        <ele>1936.6</ele>
        <time>2021-03-25T14:55:34Z</time>
      </trkpt>
      <trkpt lat="42.88151" lon="0.13017">
        <ele>1936.6</ele>
        <time>2021-03-25T14:55:35Z</time>
      </trkpt>
      <trkpt lat="42.88151" lon="0.13016">
        <ele>1936.6</ele>
        <time>2021-03-25T14:55:36Z</time>
      </trkpt>
      <trkpt lat="42.88151" lon="0.13014">
        <ele>1936.6</ele>
        <time>2021-03-25T14:55:38Z</time>
      </trkpt>
      <trkpt lat="42.8815" lon="0.13013">
        <ele>1936.6</ele>
        <time>2021-03-25T14:55:40Z</time>
      </trkpt>
      <trkpt lat="42.8815" lon="0.13013">
        <ele>1936.6</ele>
        <time>2021-03-25T14:55:41Z</time>
      </trkpt>
      <trkpt lat="42.8815" lon="0.13011">
        <ele>1936.6</ele>
        <time>2021-03-25T14:55:43Z</time>
      </trkpt>
      <trkpt lat="42.88149" lon="0.13011">
        <ele>1936.6</ele>
        <time>2021-03-25T14:55:44Z</time>
      </trkpt>
      <trkpt lat="42.88149" lon="0.13009">
        <ele>1936.5</ele>
        <time>2021-03-25T14:55:46Z</time>
      </trkpt>
      <trkpt lat="42.88149" lon="0.13007">
        <ele>1936.5</ele>
        <time>2021-03-25T14:55:47Z</time>
      </trkpt>
      <trkpt lat="42.88149" lon="0.13005">
        <ele>1936.5</ele>
        <time>2021-03-25T14:55:49Z</time>
      </trkpt>
      <trkpt lat="42.88149" lon="0.13004">
        <ele>1936.4</ele>
        <time>2021-03-25T14:55:50Z</time>
      </trkpt>
      <trkpt lat="42.88149" lon="0.13002">
        <ele>1936.4</ele>
        <time>2021-03-25T14:55:52Z</time>
      </trkpt>
      <trkpt lat="42.88149" lon="0.13001">
        <ele>1936.3</ele>
        <time>2021-03-25T14:55:53Z</time>
      </trkpt>
      <trkpt lat="42.88149" lon="0.13">
        <ele>1936.3</ele>
        <time>2021-03-25T14:55:54Z</time>
      </trkpt>
      <trkpt lat="42.88149" lon="0.12998">
        <ele>1936.3</ele>
        <time>2021-03-25T14:55:56Z</time>
      </trkpt>
      <trkpt lat="42.88149" lon="0.12997">
        <ele>1936.2</ele>
        <time>2021-03-25T14:55:57Z</time>
      </trkpt>
      <trkpt lat="42.8815" lon="0.12995">
        <ele>1936.1</ele>
        <time>2021-03-25T14:55:58Z</time>
      </trkpt>
      <trkpt lat="42.8815" lon="0.12993">
        <ele>1936.1</ele>
        <time>2021-03-25T14:56:00Z</time>
      </trkpt>
      <trkpt lat="42.8815" lon="0.1299">
        <ele>1935.9</ele>
        <time>2021-03-25T14:56:01Z</time>
      </trkpt>
      <trkpt lat="42.8815" lon="0.12989">
        <ele>1935.9</ele>
        <time>2021-03-25T14:56:02Z</time>
      </trkpt>
      <trkpt lat="42.88151" lon="0.12987">
        <ele>1935.8</ele>
        <time>2021-03-25T14:56:04Z</time>
      </trkpt>
      <trkpt lat="42.88151" lon="0.12986">
        <ele>1935.7</ele>
        <time>2021-03-25T14:56:05Z</time>
      </trkpt>
      <trkpt lat="42.88151" lon="0.12985">
        <ele>1935.7</ele>
        <time>2021-03-25T14:56:06Z</time>
      </trkpt>
      <trkpt lat="42.88152" lon="0.12983">
        <ele>1935.6</ele>
        <time>2021-03-25T14:56:07Z</time>
      </trkpt>
      <trkpt lat="42.88153" lon="0.12979">
        <ele>1935.4</ele>
        <time>2021-03-25T14:56:09Z</time>
      </trkpt>
      <trkpt lat="42.88153" lon="0.12978">
        <ele>1935.3</ele>
        <time>2021-03-25T14:56:10Z</time>
      </trkpt>
      <trkpt lat="42.88155" lon="0.12975">
        <ele>1935.1</ele>
        <time>2021-03-25T14:56:11Z</time>
      </trkpt>
      <trkpt lat="42.88156" lon="0.12971">
        <ele>1934.8</ele>
        <time>2021-03-25T14:56:13Z</time>
      </trkpt>
      <trkpt lat="42.88158" lon="0.12968">
        <ele>1934.5</ele>
        <time>2021-03-25T14:56:14Z</time>
      </trkpt>
      <trkpt lat="42.88159" lon="0.12967">
        <ele>1934.4</ele>
        <time>2021-03-25T14:56:15Z</time>
      </trkpt>
      <trkpt lat="42.88159" lon="0.12965">
        <ele>1934.2</ele>
        <time>2021-03-25T14:56:17Z</time>
      </trkpt>
      <trkpt lat="42.88161" lon="0.12961">
        <ele>1933.9</ele>
        <time>2021-03-25T14:56:19Z</time>
      </trkpt>
      <trkpt lat="42.88163" lon="0.12957">
        <ele>1933.6</ele>
        <time>2021-03-25T14:56:20Z</time>
      </trkpt>
      <trkpt lat="42.88164" lon="0.12956">
        <ele>1933.5</ele>
        <time>2021-03-25T14:56:21Z</time>
      </trkpt>
      <trkpt lat="42.88165" lon="0.12953">
        <ele>1933.3</ele>
        <time>2021-03-25T14:56:22Z</time>
      </trkpt>
      <trkpt lat="42.88167" lon="0.1295">
        <ele>1933</ele>
        <time>2021-03-25T14:56:24Z</time>
      </trkpt>
      <trkpt lat="42.88169" lon="0.12947">
        <ele>1932.8</ele>
        <time>2021-03-25T14:56:25Z</time>
      </trkpt>
      <trkpt lat="42.88169" lon="0.12946">
        <ele>1932.7</ele>
        <time>2021-03-25T14:56:26Z</time>
      </trkpt>
      <trkpt lat="42.88171" lon="0.12942">
        <ele>1932.3</ele>
        <time>2021-03-25T14:56:28Z</time>
      </trkpt>
      <trkpt lat="42.88172" lon="0.12941">
        <ele>1932.2</ele>
        <time>2021-03-25T14:56:29Z</time>
      </trkpt>
      <trkpt lat="42.88173" lon="0.12938">
        <ele>1932</ele>
        <time>2021-03-25T14:56:30Z</time>
      </trkpt>
      <trkpt lat="42.88174" lon="0.12935">
        <ele>1931.8</ele>
        <time>2021-03-25T14:56:32Z</time>
      </trkpt>
      <trkpt lat="42.88175" lon="0.12931">
        <ele>1931.4</ele>
        <time>2021-03-25T14:56:33Z</time>
      </trkpt>
      <trkpt lat="42.88176" lon="0.12929">
        <ele>1931.2</ele>
        <time>2021-03-25T14:56:34Z</time>
      </trkpt>
      <trkpt lat="42.88178" lon="0.12925">
        <ele>1930.8</ele>
        <time>2021-03-25T14:56:36Z</time>
      </trkpt>
      <trkpt lat="42.88178" lon="0.12923">
        <ele>1930.7</ele>
        <time>2021-03-25T14:56:37Z</time>
      </trkpt>
      <trkpt lat="42.88178" lon="0.12921">
        <ele>1930.4</ele>
        <time>2021-03-25T14:56:38Z</time>
      </trkpt>
      <trkpt lat="42.88179" lon="0.12917">
        <ele>1930.1</ele>
        <time>2021-03-25T14:56:40Z</time>
      </trkpt>
      <trkpt lat="42.88179" lon="0.12915">
        <ele>1929.9</ele>
        <time>2021-03-25T14:56:41Z</time>
      </trkpt>
      <trkpt lat="42.88179" lon="0.12913">
        <ele>1929.7</ele>
        <time>2021-03-25T14:56:42Z</time>
      </trkpt>
      <trkpt lat="42.88179" lon="0.12911">
        <ele>1929.5</ele>
        <time>2021-03-25T14:56:43Z</time>
      </trkpt>
      <trkpt lat="42.88179" lon="0.12908">
        <ele>1929.2</ele>
        <time>2021-03-25T14:56:45Z</time>
      </trkpt>
      <trkpt lat="42.8818" lon="0.12905">
        <ele>1928.9</ele>
        <time>2021-03-25T14:56:46Z</time>
      </trkpt>
      <trkpt lat="42.8818" lon="0.12903">
        <ele>1928.6</ele>
        <time>2021-03-25T14:56:48Z</time>
      </trkpt>
      <trkpt lat="42.8818" lon="0.129">
        <ele>1928.3</ele>
        <time>2021-03-25T14:56:49Z</time>
      </trkpt>
      <trkpt lat="42.88179" lon="0.12898">
        <ele>1928</ele>
        <time>2021-03-25T14:56:51Z</time>
      </trkpt>
      <trkpt lat="42.88178" lon="0.12897">
        <ele>1927.9</ele>
        <time>2021-03-25T14:56:52Z</time>
      </trkpt>
      <trkpt lat="42.88178" lon="0.12896">
        <ele>1927.7</ele>
        <time>2021-03-25T14:56:53Z</time>
      </trkpt>
      <trkpt lat="42.88178" lon="0.12893">
        <ele>1927.4</ele>
        <time>2021-03-25T14:56:55Z</time>
      </trkpt>
      <trkpt lat="42.88178" lon="0.1289">
        <ele>1927.1</ele>
        <time>2021-03-25T14:56:56Z</time>
      </trkpt>
      <trkpt lat="42.88178" lon="0.12887">
        <ele>1926.9</ele>
        <time>2021-03-25T14:56:58Z</time>
      </trkpt>
      <trkpt lat="42.88178" lon="0.12885">
        <ele>1926.6</ele>
        <time>2021-03-25T14:56:59Z</time>
      </trkpt>
      <trkpt lat="42.88178" lon="0.12883">
        <ele>1926.4</ele>
        <time>2021-03-25T14:57:00Z</time>
      </trkpt>
      <trkpt lat="42.88178" lon="0.12881">
        <ele>1926.2</ele>
        <time>2021-03-25T14:57:01Z</time>
      </trkpt>
      <trkpt lat="42.88177" lon="0.12878">
        <ele>1925.9</ele>
        <time>2021-03-25T14:57:02Z</time>
      </trkpt>
      <trkpt lat="42.88177" lon="0.12875">
        <ele>1925.6</ele>
        <time>2021-03-25T14:57:04Z</time>
      </trkpt>
      <trkpt lat="42.88177" lon="0.1287">
        <ele>1925.1</ele>
        <time>2021-03-25T14:57:06Z</time>
      </trkpt>
      <trkpt lat="42.88178" lon="0.12865">
        <ele>1924.6</ele>
        <time>2021-03-25T14:57:08Z</time>
      </trkpt>
      <trkpt lat="42.88178" lon="0.12863">
        <ele>1924.5</ele>
        <time>2021-03-25T14:57:09Z</time>
      </trkpt>
      <trkpt lat="42.88177" lon="0.12859">
        <ele>1924</ele>
        <time>2021-03-25T14:57:10Z</time>
      </trkpt>
      <trkpt lat="42.88176" lon="0.12855">
        <ele>1923.6</ele>
        <time>2021-03-25T14:57:12Z</time>
      </trkpt>
      <trkpt lat="42.88176" lon="0.12849">
        <ele>1923</ele>
        <time>2021-03-25T14:57:13Z</time>
      </trkpt>
      <trkpt lat="42.88177" lon="0.12845">
        <ele>1922.6</ele>
        <time>2021-03-25T14:57:14Z</time>
      </trkpt>
      <trkpt lat="42.88178" lon="0.12841">
        <ele>1922.1</ele>
        <time>2021-03-25T14:57:15Z</time>
      </trkpt>
      <trkpt lat="42.88178" lon="0.12837">
        <ele>1921.7</ele>
        <time>2021-03-25T14:57:16Z</time>
      </trkpt>
      <trkpt lat="42.8818" lon="0.1283">
        <ele>1921.2</ele>
        <time>2021-03-25T14:57:18Z</time>
      </trkpt>
      <trkpt lat="42.8818" lon="0.12826">
        <ele>1920.9</ele>
        <time>2021-03-25T14:57:19Z</time>
      </trkpt>
      <trkpt lat="42.88181" lon="0.12822">
        <ele>1920.7</ele>
        <time>2021-03-25T14:57:20Z</time>
      </trkpt>
      <trkpt lat="42.88183" lon="0.12816">
        <ele>1920.4</ele>
        <time>2021-03-25T14:57:22Z</time>
      </trkpt>
      <trkpt lat="42.88184" lon="0.12811">
        <ele>1920.3</ele>
        <time>2021-03-25T14:57:23Z</time>
      </trkpt>
      <trkpt lat="42.88185" lon="0.12807">
        <ele>1920.2</ele>
        <time>2021-03-25T14:57:24Z</time>
      </trkpt>
      <trkpt lat="42.88187" lon="0.12803">
        <ele>1920.1</ele>
        <time>2021-03-25T14:57:25Z</time>
      </trkpt>
      <trkpt lat="42.88188" lon="0.12801">
        <ele>1920.1</ele>
        <time>2021-03-25T14:57:26Z</time>
      </trkpt>
      <trkpt lat="42.88189" lon="0.12799">
        <ele>1920.1</ele>
        <time>2021-03-25T14:57:28Z</time>
      </trkpt>
      <trkpt lat="42.8819" lon="0.12797">
        <ele>1920</ele>
        <time>2021-03-25T14:57:29Z</time>
      </trkpt>
      <trkpt lat="42.88191" lon="0.12796">
        <ele>1920</ele>
        <time>2021-03-25T14:57:30Z</time>
      </trkpt>
      <trkpt lat="42.88191" lon="0.12795">
        <ele>1920</ele>
        <time>2021-03-25T14:57:32Z</time>
      </trkpt>
      <trkpt lat="42.88192" lon="0.12793">
        <ele>1920</ele>
        <time>2021-03-25T14:57:33Z</time>
      </trkpt>
      <trkpt lat="42.88192" lon="0.12792">
        <ele>1920</ele>
        <time>2021-03-25T14:57:35Z</time>
      </trkpt>
      <trkpt lat="42.88193" lon="0.1279">
        <ele>1919.9</ele>
        <time>2021-03-25T14:57:36Z</time>
      </trkpt>
      <trkpt lat="42.88193" lon="0.12789">
        <ele>1919.9</ele>
        <time>2021-03-25T14:57:37Z</time>
      </trkpt>
      <trkpt lat="42.88193" lon="0.12788">
        <ele>1919.9</ele>
        <time>2021-03-25T14:57:38Z</time>
      </trkpt>
      <trkpt lat="42.88193" lon="0.12785">
        <ele>1919.9</ele>
        <time>2021-03-25T14:57:40Z</time>
      </trkpt>
      <trkpt lat="42.88193" lon="0.12784">
        <ele>1919.9</ele>
        <time>2021-03-25T14:57:41Z</time>
      </trkpt>
      <trkpt lat="42.88193" lon="0.12783">
        <ele>1919.9</ele>
        <time>2021-03-25T14:57:42Z</time>
      </trkpt>
      <trkpt lat="42.88193" lon="0.12781">
        <ele>1919.9</ele>
        <time>2021-03-25T14:57:44Z</time>
      </trkpt>
      <trkpt lat="42.88193" lon="0.1278">
        <ele>1919.8</ele>
        <time>2021-03-25T14:57:45Z</time>
      </trkpt>
      <trkpt lat="42.88193" lon="0.12778">
        <ele>1919.8</ele>
        <time>2021-03-25T14:57:47Z</time>
      </trkpt>
      <trkpt lat="42.88192" lon="0.12776">
        <ele>1919.8</ele>
        <time>2021-03-25T14:57:48Z</time>
      </trkpt>
      <trkpt lat="42.88192" lon="0.12775">
        <ele>1919.8</ele>
        <time>2021-03-25T14:57:50Z</time>
      </trkpt>
      <trkpt lat="42.88192" lon="0.12774">
        <ele>1919.8</ele>
        <time>2021-03-25T14:57:51Z</time>
      </trkpt>
      <trkpt lat="42.88191" lon="0.12772">
        <ele>1919.7</ele>
        <time>2021-03-25T14:57:53Z</time>
      </trkpt>
      <trkpt lat="42.88191" lon="0.12772">
        <ele>1919.7</ele>
        <time>2021-03-25T14:57:54Z</time>
      </trkpt>
      <trkpt lat="42.8819" lon="0.12772">
        <ele>1919.8</ele>
        <time>2021-03-25T14:57:56Z</time>
      </trkpt>
      <trkpt lat="42.8819" lon="0.12772">
        <ele>1919.6</ele>
        <time>2021-03-25T14:57:58Z</time>
      </trkpt>
      <trkpt lat="42.88189" lon="0.12771">
        <ele>1919.6</ele>
        <time>2021-03-25T14:57:59Z</time>
      </trkpt>
      <trkpt lat="42.88188" lon="0.12771">
        <ele>1919.6</ele>
        <time>2021-03-25T14:58:01Z</time>
      </trkpt>
      <trkpt lat="42.88188" lon="0.1277">
        <ele>1919.6</ele>
        <time>2021-03-25T14:58:03Z</time>
      </trkpt>
      <trkpt lat="42.88187" lon="0.12769">
        <ele>1919.8</ele>
        <time>2021-03-25T14:58:04Z</time>
      </trkpt>
      <trkpt lat="42.88187" lon="0.12768">
        <ele>1919.8</ele>
        <time>2021-03-25T14:58:05Z</time>
      </trkpt>
      <trkpt lat="42.88187" lon="0.12767">
        <ele>1919.6</ele>
        <time>2021-03-25T14:58:06Z</time>
      </trkpt>
      <trkpt lat="42.88186" lon="0.12766">
        <ele>1919.6</ele>
        <time>2021-03-25T14:58:08Z</time>
      </trkpt>
      <trkpt lat="42.88186" lon="0.12765">
        <ele>1919.5</ele>
        <time>2021-03-25T14:58:09Z</time>
      </trkpt>
      <trkpt lat="42.88186" lon="0.12764">
        <ele>1919.5</ele>
        <time>2021-03-25T14:58:10Z</time>
      </trkpt>
      <trkpt lat="42.88185" lon="0.12762">
        <ele>1919.3</ele>
        <time>2021-03-25T14:58:12Z</time>
      </trkpt>
      <trkpt lat="42.88185" lon="0.12761">
        <ele>1919.3</ele>
        <time>2021-03-25T14:58:14Z</time>
      </trkpt>
      <trkpt lat="42.88184" lon="0.1276">
        <ele>1919.5</ele>
        <time>2021-03-25T14:58:15Z</time>
      </trkpt>
      <trkpt lat="42.88184" lon="0.12758">
        <ele>1919.2</ele>
        <time>2021-03-25T14:58:16Z</time>
      </trkpt>
      <trkpt lat="42.88184" lon="0.12757">
        <ele>1919.2</ele>
        <time>2021-03-25T14:58:17Z</time>
      </trkpt>
      <trkpt lat="42.88183" lon="0.12756">
        <ele>1919.2</ele>
        <time>2021-03-25T14:58:19Z</time>
      </trkpt>
      <trkpt lat="42.88183" lon="0.12754">
        <ele>1918.9</ele>
        <time>2021-03-25T14:58:20Z</time>
      </trkpt>
      <trkpt lat="42.88182" lon="0.12753">
        <ele>1918.9</ele>
        <time>2021-03-25T14:58:21Z</time>
      </trkpt>
      <trkpt lat="42.88182" lon="0.12751">
        <ele>1918.9</ele>
        <time>2021-03-25T14:58:23Z</time>
      </trkpt>
      <trkpt lat="42.88181" lon="0.12749">
        <ele>1918.6</ele>
        <time>2021-03-25T14:58:24Z</time>
      </trkpt>
      <trkpt lat="42.88181" lon="0.12747">
        <ele>1918.8</ele>
        <time>2021-03-25T14:58:26Z</time>
      </trkpt>
      <trkpt lat="42.8818" lon="0.12745">
        <ele>1918.6</ele>
        <time>2021-03-25T14:58:27Z</time>
      </trkpt>
      <trkpt lat="42.8818" lon="0.12743">
        <ele>1918.6</ele>
        <time>2021-03-25T14:58:29Z</time>
      </trkpt>
      <trkpt lat="42.88179" lon="0.12741">
        <ele>1918.4</ele>
        <time>2021-03-25T14:58:30Z</time>
      </trkpt>
      <trkpt lat="42.88179" lon="0.12738">
        <ele>1918.4</ele>
        <time>2021-03-25T14:58:32Z</time>
      </trkpt>
      <trkpt lat="42.88179" lon="0.12737">
        <ele>1918.1</ele>
        <time>2021-03-25T14:58:33Z</time>
      </trkpt>
      <trkpt lat="42.88179" lon="0.12735">
        <ele>1918.1</ele>
        <time>2021-03-25T14:58:35Z</time>
      </trkpt>
      <trkpt lat="42.88179" lon="0.12733">
        <ele>1918.1</ele>
        <time>2021-03-25T14:58:36Z</time>
      </trkpt>
      <trkpt lat="42.88179" lon="0.12732">
        <ele>1917.9</ele>
        <time>2021-03-25T14:58:37Z</time>
      </trkpt>
      <trkpt lat="42.88178" lon="0.12731">
        <ele>1918</ele>
        <time>2021-03-25T14:58:38Z</time>
      </trkpt>
      <trkpt lat="42.88178" lon="0.12729">
        <ele>1918</ele>
        <time>2021-03-25T14:58:40Z</time>
      </trkpt>
      <trkpt lat="42.88178" lon="0.12729">
        <ele>1918</ele>
        <time>2021-03-25T14:58:41Z</time>
      </trkpt>
      <trkpt lat="42.88178" lon="0.12729">
        <ele>1918</ele>
        <time>2021-03-25T14:58:42Z</time>
      </trkpt>
      <trkpt lat="42.88178" lon="0.12728">
        <ele>1917.7</ele>
        <time>2021-03-25T14:58:43Z</time>
      </trkpt>
      <trkpt lat="42.88178" lon="0.12728">
        <ele>1917.7</ele>
        <time>2021-03-25T14:58:45Z</time>
      </trkpt>
      <trkpt lat="42.88178" lon="0.12727">
        <ele>1917.7</ele>
        <time>2021-03-25T14:58:46Z</time>
      </trkpt>
      <trkpt lat="42.88178" lon="0.12727">
        <ele>1917.7</ele>
        <time>2021-03-25T14:58:47Z</time>
      </trkpt>
      <trkpt lat="42.88178" lon="0.12727">
        <ele>1917.7</ele>
        <time>2021-03-25T14:58:48Z</time>
      </trkpt>
      <trkpt lat="42.88178" lon="0.12727">
        <ele>1917.6</ele>
        <time>2021-03-25T14:58:49Z</time>
      </trkpt>
      <trkpt lat="42.88178" lon="0.12726">
        <ele>1917.6</ele>
        <time>2021-03-25T14:58:50Z</time>
      </trkpt>
      <trkpt lat="42.88178" lon="0.12725">
        <ele>1917.6</ele>
        <time>2021-03-25T14:58:52Z</time>
      </trkpt>
      <trkpt lat="42.88177" lon="0.12724">
        <ele>1917.2</ele>
        <time>2021-03-25T14:58:53Z</time>
      </trkpt>
      <trkpt lat="42.88177" lon="0.12722">
        <ele>1917.2</ele>
        <time>2021-03-25T14:58:55Z</time>
      </trkpt>
      <trkpt lat="42.88177" lon="0.12721">
        <ele>1917.2</ele>
        <time>2021-03-25T14:58:56Z</time>
      </trkpt>
      <trkpt lat="42.88177" lon="0.1272">
        <ele>1916.8</ele>
        <time>2021-03-25T14:58:58Z</time>
      </trkpt>
      <trkpt lat="42.88177" lon="0.12717">
        <ele>1916.7</ele>
        <time>2021-03-25T14:59:00Z</time>
      </trkpt>
      <trkpt lat="42.88177" lon="0.12716">
        <ele>1916.7</ele>
        <time>2021-03-25T14:59:01Z</time>
      </trkpt>
      <trkpt lat="42.88176" lon="0.12714">
        <ele>1916.2</ele>
        <time>2021-03-25T14:59:03Z</time>
      </trkpt>
      <trkpt lat="42.88176" lon="0.12713">
        <ele>1916.2</ele>
        <time>2021-03-25T14:59:04Z</time>
      </trkpt>
      <trkpt lat="42.88176" lon="0.12713">
        <ele>1916.1</ele>
        <time>2021-03-25T14:59:05Z</time>
      </trkpt>
      <trkpt lat="42.88175" lon="0.12711">
        <ele>1915.5</ele>
        <time>2021-03-25T14:59:07Z</time>
      </trkpt>
      <trkpt lat="42.88175" lon="0.1271">
        <ele>1915.6</ele>
        <time>2021-03-25T14:59:08Z</time>
      </trkpt>
      <trkpt lat="42.88175" lon="0.12709">
        <ele>1915.5</ele>
        <time>2021-03-25T14:59:10Z</time>
      </trkpt>
      <trkpt lat="42.88175" lon="0.12709">
        <ele>1915.5</ele>
        <time>2021-03-25T14:59:11Z</time>
      </trkpt>
      <trkpt lat="42.88174" lon="0.12708">
        <ele>1915.5</ele>
        <time>2021-03-25T14:59:12Z</time>
      </trkpt>
      <trkpt lat="42.88174" lon="0.12707">
        <ele>1914.8</ele>
        <time>2021-03-25T14:59:13Z</time>
      </trkpt>
      <trkpt lat="42.88174" lon="0.12706">
        <ele>1914.8</ele>
        <time>2021-03-25T14:59:15Z</time>
      </trkpt>
      <trkpt lat="42.88174" lon="0.12704">
        <ele>1914.7</ele>
        <time>2021-03-25T14:59:17Z</time>
      </trkpt>
      <trkpt lat="42.88174" lon="0.12703">
        <ele>1914.7</ele>
        <time>2021-03-25T14:59:18Z</time>
      </trkpt>
      <trkpt lat="42.88174" lon="0.12702">
        <ele>1913.9</ele>
        <time>2021-03-25T14:59:19Z</time>
      </trkpt>
      <trkpt lat="42.88174" lon="0.127">
        <ele>1913.9</ele>
        <time>2021-03-25T14:59:21Z</time>
      </trkpt>
      <trkpt lat="42.88174" lon="0.12698">
        <ele>1913</ele>
        <time>2021-03-25T14:59:22Z</time>
      </trkpt>
      <trkpt lat="42.88174" lon="0.12697">
        <ele>1913</ele>
        <time>2021-03-25T14:59:23Z</time>
      </trkpt>
      <trkpt lat="42.88174" lon="0.12696">
        <ele>1913</ele>
        <time>2021-03-25T14:59:24Z</time>
      </trkpt>
      <trkpt lat="42.88174" lon="0.12694">
        <ele>1912</ele>
        <time>2021-03-25T14:59:26Z</time>
      </trkpt>
      <trkpt lat="42.88174" lon="0.12693">
        <ele>1912</ele>
        <time>2021-03-25T14:59:28Z</time>
      </trkpt>
      <trkpt lat="42.88175" lon="0.12691">
        <ele>1912</ele>
        <time>2021-03-25T14:59:29Z</time>
      </trkpt>
      <trkpt lat="42.88175" lon="0.12691">
        <ele>1912</ele>
        <time>2021-03-25T14:59:30Z</time>
      </trkpt>
      <trkpt lat="42.88175" lon="0.12691">
        <ele>1912</ele>
        <time>2021-03-25T14:59:31Z</time>
      </trkpt>
      <trkpt lat="42.88175" lon="0.12689">
        <ele>1911.1</ele>
        <time>2021-03-25T14:59:33Z</time>
      </trkpt>
      <trkpt lat="42.88175" lon="0.12687">
        <ele>1911</ele>
        <time>2021-03-25T14:59:34Z</time>
      </trkpt>
      <trkpt lat="42.88175" lon="0.12687">
        <ele>1911</ele>
        <time>2021-03-25T14:59:35Z</time>
      </trkpt>
      <trkpt lat="42.88175" lon="0.12687">
        <ele>1911</ele>
        <time>2021-03-25T14:59:36Z</time>
      </trkpt>
      <trkpt lat="42.88175" lon="0.12686">
        <ele>1911</ele>
        <time>2021-03-25T14:59:38Z</time>
      </trkpt>
      <trkpt lat="42.88175" lon="0.12686">
        <ele>1911</ele>
        <time>2021-03-25T14:59:39Z</time>
      </trkpt>
      <trkpt lat="42.88174" lon="0.12686">
        <ele>1910.1</ele>
        <time>2021-03-25T14:59:40Z</time>
      </trkpt>
      <trkpt lat="42.88174" lon="0.12685">
        <ele>1910.1</ele>
        <time>2021-03-25T14:59:42Z</time>
      </trkpt>
      <trkpt lat="42.88174" lon="0.12685">
        <ele>1910.1</ele>
        <time>2021-03-25T14:59:44Z</time>
      </trkpt>
      <trkpt lat="42.88174" lon="0.12684">
        <ele>1910.1</ele>
        <time>2021-03-25T14:59:45Z</time>
      </trkpt>
      <trkpt lat="42.88174" lon="0.12684">
        <ele>1910</ele>
        <time>2021-03-25T14:59:47Z</time>
      </trkpt>
      <trkpt lat="42.88174" lon="0.12684">
        <ele>1910</ele>
        <time>2021-03-25T14:59:48Z</time>
      </trkpt>
      <trkpt lat="42.88174" lon="0.12684">
        <ele>1910</ele>
        <time>2021-03-25T14:59:49Z</time>
      </trkpt>
      <trkpt lat="42.88174" lon="0.12683">
        <ele>1910</ele>
        <time>2021-03-25T14:59:50Z</time>
      </trkpt>
      <trkpt lat="42.88174" lon="0.12683">
        <ele>1910</ele>
        <time>2021-03-25T14:59:52Z</time>
      </trkpt>
      <trkpt lat="42.88174" lon="0.12682">
        <ele>1910</ele>
        <time>2021-03-25T14:59:54Z</time>
      </trkpt>
      <trkpt lat="42.88174" lon="0.12681">
        <ele>1909.1</ele>
        <time>2021-03-25T14:59:55Z</time>
      </trkpt>
      <trkpt lat="42.88174" lon="0.1268">
        <ele>1909.1</ele>
        <time>2021-03-25T14:59:56Z</time>
      </trkpt>
      <trkpt lat="42.88174" lon="0.12679">
        <ele>1909.1</ele>
        <time>2021-03-25T14:59:58Z</time>
      </trkpt>
      <trkpt lat="42.88174" lon="0.12679">
        <ele>1909.1</ele>
        <time>2021-03-25T14:59:59Z</time>
      </trkpt>
      <trkpt lat="42.88174" lon="0.12677">
        <ele>1909.1</ele>
        <time>2021-03-25T15:00:01Z</time>
      </trkpt>
      <trkpt lat="42.88174" lon="0.12676">
        <ele>1908.2</ele>
        <time>2021-03-25T15:00:02Z</time>
      </trkpt>
      <trkpt lat="42.88173" lon="0.12674">
        <ele>1908.2</ele>
        <time>2021-03-25T15:00:03Z</time>
      </trkpt>
      <trkpt lat="42.88173" lon="0.12673">
        <ele>1907.4</ele>
        <time>2021-03-25T15:00:04Z</time>
      </trkpt>
      <trkpt lat="42.88173" lon="0.12671">
        <ele>1907.3</ele>
        <time>2021-03-25T15:00:06Z</time>
      </trkpt>
      <trkpt lat="42.88173" lon="0.1267">
        <ele>1907.3</ele>
        <time>2021-03-25T15:00:07Z</time>
      </trkpt>
      <trkpt lat="42.88173" lon="0.12669">
        <ele>1907.3</ele>
        <time>2021-03-25T15:00:09Z</time>
      </trkpt>
      <trkpt lat="42.88172" lon="0.12667">
        <ele>1906.6</ele>
        <time>2021-03-25T15:00:10Z</time>
      </trkpt>
      <trkpt lat="42.88172" lon="0.12666">
        <ele>1906.5</ele>
        <time>2021-03-25T15:00:11Z</time>
      </trkpt>
      <trkpt lat="42.88172" lon="0.12664">
        <ele>1906.2</ele>
        <time>2021-03-25T15:00:13Z</time>
      </trkpt>
      <trkpt lat="42.88171" lon="0.12663">
        <ele>1906.2</ele>
        <time>2021-03-25T15:00:14Z</time>
      </trkpt>
      <trkpt lat="42.88171" lon="0.12662">
        <ele>1906.1</ele>
        <time>2021-03-25T15:00:15Z</time>
      </trkpt>
      <trkpt lat="42.8817" lon="0.1266">
        <ele>1906.1</ele>
        <time>2021-03-25T15:00:17Z</time>
      </trkpt>
      <trkpt lat="42.8817" lon="0.1266">
        <ele>1905.4</ele>
        <time>2021-03-25T15:00:19Z</time>
      </trkpt>
      <trkpt lat="42.88169" lon="0.12659">
        <ele>1905.4</ele>
        <time>2021-03-25T15:00:20Z</time>
      </trkpt>
      <trkpt lat="42.88169" lon="0.12659">
        <ele>1905.4</ele>
        <time>2021-03-25T15:00:21Z</time>
      </trkpt>
      <trkpt lat="42.88169" lon="0.12659">
        <ele>1905.4</ele>
        <time>2021-03-25T15:00:23Z</time>
      </trkpt>
      <trkpt lat="42.88169" lon="0.12658">
        <ele>1905.8</ele>
        <time>2021-03-25T15:00:24Z</time>
      </trkpt>
      <trkpt lat="42.88169" lon="0.12658">
        <ele>1905.8</ele>
        <time>2021-03-25T15:00:25Z</time>
      </trkpt>
      <trkpt lat="42.88169" lon="0.12656">
        <ele>1905.4</ele>
        <time>2021-03-25T15:00:27Z</time>
      </trkpt>
      <trkpt lat="42.8817" lon="0.12655">
        <ele>1904.7</ele>
        <time>2021-03-25T15:00:29Z</time>
      </trkpt>
      <trkpt lat="42.8817" lon="0.12655">
        <ele>1904.7</ele>
        <time>2021-03-25T15:00:30Z</time>
      </trkpt>
      <trkpt lat="42.88171" lon="0.12656">
        <ele>1905.4</ele>
        <time>2021-03-25T15:00:31Z</time>
      </trkpt>
      <trkpt lat="42.88171" lon="0.12656">
        <ele>1905.4</ele>
        <time>2021-03-25T15:00:33Z</time>
      </trkpt>
      <trkpt lat="42.88171" lon="0.12657">
        <ele>1905.4</ele>
        <time>2021-03-25T15:00:35Z</time>
      </trkpt>
      <trkpt lat="42.88171" lon="0.12657">
        <ele>1905.4</ele>
        <time>2021-03-25T15:00:36Z</time>
      </trkpt>
      <trkpt lat="42.8817" lon="0.12657">
        <ele>1905.3</ele>
        <time>2021-03-25T15:00:37Z</time>
      </trkpt>
      <trkpt lat="42.88169" lon="0.12657">
        <ele>1905.3</ele>
        <time>2021-03-25T15:00:38Z</time>
      </trkpt>
      <trkpt lat="42.88169" lon="0.12657">
        <ele>1905.3</ele>
        <time>2021-03-25T15:00:40Z</time>
      </trkpt>
      <trkpt lat="42.88168" lon="0.12657">
        <ele>1905.8</ele>
        <time>2021-03-25T15:00:41Z</time>
      </trkpt>
      <trkpt lat="42.88168" lon="0.12657">
        <ele>1905.8</ele>
        <time>2021-03-25T15:00:42Z</time>
      </trkpt>
      <trkpt lat="42.88168" lon="0.12656">
        <ele>1905.7</ele>
        <time>2021-03-25T15:00:43Z</time>
      </trkpt>
      <trkpt lat="42.88167" lon="0.12656">
        <ele>1905.7</ele>
        <time>2021-03-25T15:00:44Z</time>
      </trkpt>
      <trkpt lat="42.88166" lon="0.12655">
        <ele>1905</ele>
        <time>2021-03-25T15:00:46Z</time>
      </trkpt>
      <trkpt lat="42.88165" lon="0.12654">
        <ele>1905.6</ele>
        <time>2021-03-25T15:00:48Z</time>
      </trkpt>
      <trkpt lat="42.88165" lon="0.12654">
        <ele>1905.6</ele>
        <time>2021-03-25T15:00:49Z</time>
      </trkpt>
      <trkpt lat="42.88164" lon="0.12653">
        <ele>1905.5</ele>
        <time>2021-03-25T15:00:51Z</time>
      </trkpt>
      <trkpt lat="42.88164" lon="0.12652">
        <ele>1905.5</ele>
        <time>2021-03-25T15:00:52Z</time>
      </trkpt>
      <trkpt lat="42.88163" lon="0.12651">
        <ele>1904.9</ele>
        <time>2021-03-25T15:00:53Z</time>
      </trkpt>
      <trkpt lat="42.88163" lon="0.12651">
        <ele>1904.8</ele>
        <time>2021-03-25T15:00:54Z</time>
      </trkpt>
      <trkpt lat="42.88162" lon="0.12649">
        <ele>1905.4</ele>
        <time>2021-03-25T15:00:56Z</time>
      </trkpt>
      <trkpt lat="42.88162" lon="0.12648">
        <ele>1905.4</ele>
        <time>2021-03-25T15:00:57Z</time>
      </trkpt>
      <trkpt lat="42.88161" lon="0.12647">
        <ele>1904.7</ele>
        <time>2021-03-25T15:00:59Z</time>
      </trkpt>
      <trkpt lat="42.88161" lon="0.12646">
        <ele>1904.7</ele>
        <time>2021-03-25T15:01:00Z</time>
      </trkpt>
      <trkpt lat="42.88161" lon="0.12645">
        <ele>1904.7</ele>
        <time>2021-03-25T15:01:01Z</time>
      </trkpt>
      <trkpt lat="42.8816" lon="0.12642">
        <ele>1904</ele>
        <time>2021-03-25T15:01:03Z</time>
      </trkpt>
      <trkpt lat="42.8816" lon="0.12641">
        <ele>1904</ele>
        <time>2021-03-25T15:01:04Z</time>
      </trkpt>
      <trkpt lat="42.8816" lon="0.1264">
        <ele>1904</ele>
        <time>2021-03-25T15:01:05Z</time>
      </trkpt>
      <trkpt lat="42.8816" lon="0.12638">
        <ele>1903.3</ele>
        <time>2021-03-25T15:01:07Z</time>
      </trkpt>
      <trkpt lat="42.88159" lon="0.12636">
        <ele>1903.3</ele>
        <time>2021-03-25T15:01:08Z</time>
      </trkpt>
      <trkpt lat="42.88159" lon="0.12635">
        <ele>1903.9</ele>
        <time>2021-03-25T15:01:09Z</time>
      </trkpt>
      <trkpt lat="42.88159" lon="0.12633">
        <ele>1903.2</ele>
        <time>2021-03-25T15:01:11Z</time>
      </trkpt>
      <trkpt lat="42.88158" lon="0.1263">
        <ele>1903.2</ele>
        <time>2021-03-25T15:01:13Z</time>
      </trkpt>
      <trkpt lat="42.88158" lon="0.12629">
        <ele>1902.5</ele>
        <time>2021-03-25T15:01:14Z</time>
      </trkpt>
      <trkpt lat="42.88157" lon="0.12627">
        <ele>1902.5</ele>
        <time>2021-03-25T15:01:15Z</time>
      </trkpt>
      <trkpt lat="42.88156" lon="0.12624">
        <ele>1901.9</ele>
        <time>2021-03-25T15:01:17Z</time>
      </trkpt>
      <trkpt lat="42.88156" lon="0.12622">
        <ele>1902.6</ele>
        <time>2021-03-25T15:01:18Z</time>
      </trkpt>
      <trkpt lat="42.88156" lon="0.12619">
        <ele>1902</ele>
        <time>2021-03-25T15:01:20Z</time>
      </trkpt>
      <trkpt lat="42.88155" lon="0.12617">
        <ele>1901.5</ele>
        <time>2021-03-25T15:01:21Z</time>
      </trkpt>
      <trkpt lat="42.88155" lon="0.12616">
        <ele>1901.5</ele>
        <time>2021-03-25T15:01:22Z</time>
      </trkpt>
      <trkpt lat="42.88155" lon="0.12614">
        <ele>1901.5</ele>
        <time>2021-03-25T15:01:24Z</time>
      </trkpt>
      <trkpt lat="42.88155" lon="0.12613">
        <ele>1901.5</ele>
        <time>2021-03-25T15:01:25Z</time>
      </trkpt>
      <trkpt lat="42.88155" lon="0.12613">
        <ele>1900.9</ele>
        <time>2021-03-25T15:01:26Z</time>
      </trkpt>
      <trkpt lat="42.88155" lon="0.12612">
        <ele>1900.9</ele>
        <time>2021-03-25T15:01:27Z</time>
      </trkpt>
      <trkpt lat="42.88155" lon="0.12612">
        <ele>1900.9</ele>
        <time>2021-03-25T15:01:29Z</time>
      </trkpt>
      <trkpt lat="42.88155" lon="0.12611">
        <ele>1900.9</ele>
        <time>2021-03-25T15:01:30Z</time>
      </trkpt>
      <trkpt lat="42.88155" lon="0.12609">
        <ele>1900.9</ele>
        <time>2021-03-25T15:01:32Z</time>
      </trkpt>
      <trkpt lat="42.88155" lon="0.12608">
        <ele>1900.4</ele>
        <time>2021-03-25T15:01:34Z</time>
      </trkpt>
      <trkpt lat="42.88155" lon="0.12608">
        <ele>1900.4</ele>
        <time>2021-03-25T15:01:35Z</time>
      </trkpt>
      <trkpt lat="42.88155" lon="0.12606">
        <ele>1900.4</ele>
        <time>2021-03-25T15:01:37Z</time>
      </trkpt>
      <trkpt lat="42.88155" lon="0.12605">
        <ele>1900.4</ele>
        <time>2021-03-25T15:01:38Z</time>
      </trkpt>
      <trkpt lat="42.88155" lon="0.12604">
        <ele>1900</ele>
        <time>2021-03-25T15:01:40Z</time>
      </trkpt>
      <trkpt lat="42.88155" lon="0.12603">
        <ele>1900</ele>
        <time>2021-03-25T15:01:41Z</time>
      </trkpt>
      <trkpt lat="42.88155" lon="0.12602">
        <ele>1899.9</ele>
        <time>2021-03-25T15:01:43Z</time>
      </trkpt>
      <trkpt lat="42.88155" lon="0.12601">
        <ele>1899.9</ele>
        <time>2021-03-25T15:01:44Z</time>
      </trkpt>
      <trkpt lat="42.88155" lon="0.12601">
        <ele>1899.9</ele>
        <time>2021-03-25T15:01:46Z</time>
      </trkpt>
      <trkpt lat="42.88155" lon="0.126">
        <ele>1899.9</ele>
        <time>2021-03-25T15:01:47Z</time>
      </trkpt>
      <trkpt lat="42.88156" lon="0.126">
        <ele>1899.5</ele>
        <time>2021-03-25T15:01:48Z</time>
      </trkpt>
      <trkpt lat="42.88156" lon="0.12599">
        <ele>1899.5</ele>
        <time>2021-03-25T15:01:50Z</time>
      </trkpt>
      <trkpt lat="42.88156" lon="0.12598">
        <ele>1899.4</ele>
        <time>2021-03-25T15:01:52Z</time>
      </trkpt>
      <trkpt lat="42.88156" lon="0.12598">
        <ele>1899.4</ele>
        <time>2021-03-25T15:01:53Z</time>
      </trkpt>
      <trkpt lat="42.88156" lon="0.12597">
        <ele>1899.4</ele>
        <time>2021-03-25T15:01:55Z</time>
      </trkpt>
      <trkpt lat="42.88156" lon="0.12597">
        <ele>1899.4</ele>
        <time>2021-03-25T15:01:56Z</time>
      </trkpt>
      <trkpt lat="42.88156" lon="0.12596">
        <ele>1899.4</ele>
        <time>2021-03-25T15:01:58Z</time>
      </trkpt>
      <trkpt lat="42.88156" lon="0.12596">
        <ele>1899.4</ele>
        <time>2021-03-25T15:01:59Z</time>
      </trkpt>
      <trkpt lat="42.88156" lon="0.12593">
        <ele>1898.2</ele>
        <time>2021-03-25T15:02:01Z</time>
      </trkpt>
      <trkpt lat="42.88157" lon="0.12592">
        <ele>1898.2</ele>
        <time>2021-03-25T15:02:02Z</time>
      </trkpt>
      <trkpt lat="42.88157" lon="0.12591">
        <ele>1897.7</ele>
        <time>2021-03-25T15:02:04Z</time>
      </trkpt>
      <trkpt lat="42.88157" lon="0.1259">
        <ele>1897.7</ele>
        <time>2021-03-25T15:02:05Z</time>
      </trkpt>
      <trkpt lat="42.88157" lon="0.1259">
        <ele>1897.7</ele>
        <time>2021-03-25T15:02:06Z</time>
      </trkpt>
      <trkpt lat="42.88157" lon="0.12588">
        <ele>1897.7</ele>
        <time>2021-03-25T15:02:08Z</time>
      </trkpt>
      <trkpt lat="42.88158" lon="0.12587">
        <ele>1897.7</ele>
        <time>2021-03-25T15:02:09Z</time>
      </trkpt>
      <trkpt lat="42.88158" lon="0.12586">
        <ele>1897.1</ele>
        <time>2021-03-25T15:02:11Z</time>
      </trkpt>
      <trkpt lat="42.88159" lon="0.12585">
        <ele>1897.1</ele>
        <time>2021-03-25T15:02:12Z</time>
      </trkpt>
      <trkpt lat="42.88159" lon="0.12582">
        <ele>1896.6</ele>
        <time>2021-03-25T15:02:14Z</time>
      </trkpt>
      <trkpt lat="42.8816" lon="0.12581">
        <ele>1895.8</ele>
        <time>2021-03-25T15:02:15Z</time>
      </trkpt>
      <trkpt lat="42.8816" lon="0.12578">
        <ele>1895.3</ele>
        <time>2021-03-25T15:02:17Z</time>
      </trkpt>
      <trkpt lat="42.8816" lon="0.12577">
        <ele>1895.3</ele>
        <time>2021-03-25T15:02:18Z</time>
      </trkpt>
      <trkpt lat="42.88161" lon="0.12576">
        <ele>1895.3</ele>
        <time>2021-03-25T15:02:19Z</time>
      </trkpt>
      <trkpt lat="42.88161" lon="0.12573">
        <ele>1894.8</ele>
        <time>2021-03-25T15:02:21Z</time>
      </trkpt>
      <trkpt lat="42.88161" lon="0.12572">
        <ele>1894.8</ele>
        <time>2021-03-25T15:02:22Z</time>
      </trkpt>
      <trkpt lat="42.88161" lon="0.12569">
        <ele>1894.4</ele>
        <time>2021-03-25T15:02:24Z</time>
      </trkpt>
      <trkpt lat="42.88161" lon="0.12567">
        <ele>1894.4</ele>
        <time>2021-03-25T15:02:26Z</time>
      </trkpt>
      <trkpt lat="42.8816" lon="0.12566">
        <ele>1894.4</ele>
        <time>2021-03-25T15:02:27Z</time>
      </trkpt>
      <trkpt lat="42.8816" lon="0.12564">
        <ele>1894</ele>
        <time>2021-03-25T15:02:29Z</time>
      </trkpt>
      <trkpt lat="42.8816" lon="0.12563">
        <ele>1894</ele>
        <time>2021-03-25T15:02:30Z</time>
      </trkpt>
      <trkpt lat="42.88159" lon="0.12562">
        <ele>1894.7</ele>
        <time>2021-03-25T15:02:31Z</time>
      </trkpt>
      <trkpt lat="42.88159" lon="0.12561">
        <ele>1894.4</ele>
        <time>2021-03-25T15:02:32Z</time>
      </trkpt>
      <trkpt lat="42.88158" lon="0.12559">
        <ele>1894.4</ele>
        <time>2021-03-25T15:02:34Z</time>
      </trkpt>
      <trkpt lat="42.88158" lon="0.12558">
        <ele>1894.4</ele>
        <time>2021-03-25T15:02:35Z</time>
      </trkpt>
      <trkpt lat="42.88157" lon="0.12556">
        <ele>1894.1</ele>
        <time>2021-03-25T15:02:37Z</time>
      </trkpt>
      <trkpt lat="42.88156" lon="0.12556">
        <ele>1894.1</ele>
        <time>2021-03-25T15:02:38Z</time>
      </trkpt>
      <trkpt lat="42.88156" lon="0.12555">
        <ele>1894.8</ele>
        <time>2021-03-25T15:02:39Z</time>
      </trkpt>
      <trkpt lat="42.88155" lon="0.12554">
        <ele>1894.8</ele>
        <time>2021-03-25T15:02:40Z</time>
      </trkpt>
      <trkpt lat="42.88155" lon="0.12553">
        <ele>1894.8</ele>
        <time>2021-03-25T15:02:41Z</time>
      </trkpt>
      <trkpt lat="42.88154" lon="0.12552">
        <ele>1894.5</ele>
        <time>2021-03-25T15:02:43Z</time>
      </trkpt>
      <trkpt lat="42.88154" lon="0.12552">
        <ele>1894.5</ele>
        <time>2021-03-25T15:02:44Z</time>
      </trkpt>
      <trkpt lat="42.88154" lon="0.12551">
        <ele>1894.5</ele>
        <time>2021-03-25T15:02:46Z</time>
      </trkpt>
      <trkpt lat="42.88154" lon="0.12551">
        <ele>1894.5</ele>
        <time>2021-03-25T15:02:47Z</time>
      </trkpt>
      <trkpt lat="42.88153" lon="0.1255">
        <ele>1894.5</ele>
        <time>2021-03-25T15:02:48Z</time>
      </trkpt>
      <trkpt lat="42.88153" lon="0.1255">
        <ele>1894.5</ele>
        <time>2021-03-25T15:02:50Z</time>
      </trkpt>
      <trkpt lat="42.88153" lon="0.12549">
        <ele>1895.3</ele>
        <time>2021-03-25T15:02:51Z</time>
      </trkpt>
      <trkpt lat="42.88152" lon="0.12547">
        <ele>1895</ele>
        <time>2021-03-25T15:02:53Z</time>
      </trkpt>
      <trkpt lat="42.88152" lon="0.12546">
        <ele>1895</ele>
        <time>2021-03-25T15:02:54Z</time>
      </trkpt>
      <trkpt lat="42.88152" lon="0.12546">
        <ele>1895</ele>
        <time>2021-03-25T15:02:55Z</time>
      </trkpt>
      <trkpt lat="42.88151" lon="0.12545">
        <ele>1895</ele>
        <time>2021-03-25T15:02:56Z</time>
      </trkpt>
      <trkpt lat="42.88151" lon="0.12544">
        <ele>1894.8</ele>
        <time>2021-03-25T15:02:58Z</time>
      </trkpt>
      <trkpt lat="42.88151" lon="0.12543">
        <ele>1894.8</ele>
        <time>2021-03-25T15:02:59Z</time>
      </trkpt>
      <trkpt lat="42.88151" lon="0.12543">
        <ele>1894.8</ele>
        <time>2021-03-25T15:03:00Z</time>
      </trkpt>
      <trkpt lat="42.8815" lon="0.12542">
        <ele>1894.8</ele>
        <time>2021-03-25T15:03:01Z</time>
      </trkpt>
      <trkpt lat="42.8815" lon="0.12541">
        <ele>1895.6</ele>
        <time>2021-03-25T15:03:02Z</time>
      </trkpt>
      <trkpt lat="42.88149" lon="0.1254">
        <ele>1895.4</ele>
        <time>2021-03-25T15:03:03Z</time>
      </trkpt>
      <trkpt lat="42.88149" lon="0.12539">
        <ele>1895.4</ele>
        <time>2021-03-25T15:03:05Z</time>
      </trkpt>
      <trkpt lat="42.88149" lon="0.12538">
        <ele>1895.4</ele>
        <time>2021-03-25T15:03:06Z</time>
      </trkpt>
      <trkpt lat="42.88149" lon="0.12537">
        <ele>1895.4</ele>
        <time>2021-03-25T15:03:07Z</time>
      </trkpt>
      <trkpt lat="42.88148" lon="0.12536">
        <ele>1895.4</ele>
        <time>2021-03-25T15:03:08Z</time>
      </trkpt>
      <trkpt lat="42.88148" lon="0.12535">
        <ele>1895.2</ele>
        <time>2021-03-25T15:03:10Z</time>
      </trkpt>
      <trkpt lat="42.88147" lon="0.12534">
        <ele>1895.2</ele>
        <time>2021-03-25T15:03:11Z</time>
      </trkpt>
      <trkpt lat="42.88147" lon="0.12533">
        <ele>1895.2</ele>
        <time>2021-03-25T15:03:13Z</time>
      </trkpt>
      <trkpt lat="42.88147" lon="0.12532">
        <ele>1895.2</ele>
        <time>2021-03-25T15:03:14Z</time>
      </trkpt>
      <trkpt lat="42.88147" lon="0.12532">
        <ele>1896.2</ele>
        <time>2021-03-25T15:03:15Z</time>
      </trkpt>
      <trkpt lat="42.88146" lon="0.12531">
        <ele>1896.1</ele>
        <time>2021-03-25T15:03:17Z</time>
      </trkpt>
      <trkpt lat="42.88146" lon="0.12531">
        <ele>1896.1</ele>
        <time>2021-03-25T15:03:19Z</time>
      </trkpt>
      <trkpt lat="42.88145" lon="0.12531">
        <ele>1896</ele>
        <time>2021-03-25T15:03:20Z</time>
      </trkpt>
      <trkpt lat="42.88145" lon="0.1253">
        <ele>1896</ele>
        <time>2021-03-25T15:03:21Z</time>
      </trkpt>
      <trkpt lat="42.88144" lon="0.12528">
        <ele>1896</ele>
        <time>2021-03-25T15:03:22Z</time>
      </trkpt>
      <trkpt lat="42.88143" lon="0.12527">
        <ele>1897.3</ele>
        <time>2021-03-25T15:03:24Z</time>
      </trkpt>
      <trkpt lat="42.88143" lon="0.12526">
        <ele>1897.1</ele>
        <time>2021-03-25T15:03:25Z</time>
      </trkpt>
      <trkpt lat="42.88142" lon="0.12524">
        <ele>1897.1</ele>
        <time>2021-03-25T15:03:27Z</time>
      </trkpt>
      <trkpt lat="42.88142" lon="0.12523">
        <ele>1897.1</ele>
        <time>2021-03-25T15:03:28Z</time>
      </trkpt>
      <trkpt lat="42.88142" lon="0.12522">
        <ele>1897</ele>
        <time>2021-03-25T15:03:29Z</time>
      </trkpt>
      <trkpt lat="42.88141" lon="0.12521">
        <ele>1897</ele>
        <time>2021-03-25T15:03:31Z</time>
      </trkpt>
      <trkpt lat="42.8814" lon="0.12519">
        <ele>1898.4</ele>
        <time>2021-03-25T15:03:32Z</time>
      </trkpt>
      <trkpt lat="42.8814" lon="0.12519">
        <ele>1898.4</ele>
        <time>2021-03-25T15:03:33Z</time>
      </trkpt>
      <trkpt lat="42.88139" lon="0.12518">
        <ele>1898.3</ele>
        <time>2021-03-25T15:03:35Z</time>
      </trkpt>
      <trkpt lat="42.88139" lon="0.12517">
        <ele>1898.3</ele>
        <time>2021-03-25T15:03:36Z</time>
      </trkpt>
      <trkpt lat="42.88139" lon="0.12517">
        <ele>1898.3</ele>
        <time>2021-03-25T15:03:38Z</time>
      </trkpt>
      <trkpt lat="42.88139" lon="0.12517">
        <ele>1898.3</ele>
        <time>2021-03-25T15:03:39Z</time>
      </trkpt>
      <trkpt lat="42.88138" lon="0.12517">
        <ele>1898.3</ele>
        <time>2021-03-25T15:03:40Z</time>
      </trkpt>
      <trkpt lat="42.88138" lon="0.12517">
        <ele>1898.3</ele>
        <time>2021-03-25T15:03:41Z</time>
      </trkpt>
      <trkpt lat="42.88138" lon="0.12516">
        <ele>1898.3</ele>
        <time>2021-03-25T15:03:43Z</time>
      </trkpt>
      <trkpt lat="42.88137" lon="0.12515">
        <ele>1899.8</ele>
        <time>2021-03-25T15:03:45Z</time>
      </trkpt>
      <trkpt lat="42.88137" lon="0.12514">
        <ele>1899.8</ele>
        <time>2021-03-25T15:03:47Z</time>
      </trkpt>
      <trkpt lat="42.88137" lon="0.12512">
        <ele>1899.8</ele>
        <time>2021-03-25T15:03:48Z</time>
      </trkpt>
      <trkpt lat="42.88136" lon="0.12511">
        <ele>1899.8</ele>
        <time>2021-03-25T15:03:50Z</time>
      </trkpt>
      <trkpt lat="42.88136" lon="0.1251">
        <ele>1899.7</ele>
        <time>2021-03-25T15:03:51Z</time>
      </trkpt>
      <trkpt lat="42.88136" lon="0.12509">
        <ele>1899.7</ele>
        <time>2021-03-25T15:03:52Z</time>
      </trkpt>
      <trkpt lat="42.88136" lon="0.12508">
        <ele>1899.7</ele>
        <time>2021-03-25T15:03:54Z</time>
      </trkpt>
      <trkpt lat="42.88136" lon="0.12507">
        <ele>1899.7</ele>
        <time>2021-03-25T15:03:55Z</time>
      </trkpt>
      <trkpt lat="42.88136" lon="0.12506">
        <ele>1899.7</ele>
        <time>2021-03-25T15:03:56Z</time>
      </trkpt>
      <trkpt lat="42.88135" lon="0.12504">
        <ele>1899.7</ele>
        <time>2021-03-25T15:03:58Z</time>
      </trkpt>
      <trkpt lat="42.88135" lon="0.12503">
        <ele>1899.7</ele>
        <time>2021-03-25T15:03:59Z</time>
      </trkpt>
      <trkpt lat="42.88135" lon="0.12503">
        <ele>1899.7</ele>
        <time>2021-03-25T15:04:00Z</time>
      </trkpt>
      <trkpt lat="42.88135" lon="0.12501">
        <ele>1899.7</ele>
        <time>2021-03-25T15:04:02Z</time>
      </trkpt>
      <trkpt lat="42.88135" lon="0.125">
        <ele>1899.7</ele>
        <time>2021-03-25T15:04:03Z</time>
      </trkpt>
      <trkpt lat="42.88135" lon="0.12498">
        <ele>1899.7</ele>
        <time>2021-03-25T15:04:05Z</time>
      </trkpt>
      <trkpt lat="42.88134" lon="0.12497">
        <ele>1899.7</ele>
        <time>2021-03-25T15:04:06Z</time>
      </trkpt>
      <trkpt lat="42.88134" lon="0.12496">
        <ele>1901.3</ele>
        <time>2021-03-25T15:04:08Z</time>
      </trkpt>
      <trkpt lat="42.88134" lon="0.12494">
        <ele>1901.3</ele>
        <time>2021-03-25T15:04:09Z</time>
      </trkpt>
      <trkpt lat="42.88133" lon="0.12492">
        <ele>1901.4</ele>
        <time>2021-03-25T15:04:11Z</time>
      </trkpt>
      <trkpt lat="42.88133" lon="0.1249">
        <ele>1901.4</ele>
        <time>2021-03-25T15:04:13Z</time>
      </trkpt>
      <trkpt lat="42.88132" lon="0.12488">
        <ele>1901.5</ele>
        <time>2021-03-25T15:04:15Z</time>
      </trkpt>
      <trkpt lat="42.88132" lon="0.12487">
        <ele>1901.5</ele>
        <time>2021-03-25T15:04:17Z</time>
      </trkpt>
      <trkpt lat="42.88132" lon="0.12486">
        <ele>1901.5</ele>
        <time>2021-03-25T15:04:18Z</time>
      </trkpt>
      <trkpt lat="42.88132" lon="0.12485">
        <ele>1901.5</ele>
        <time>2021-03-25T15:04:19Z</time>
      </trkpt>
      <trkpt lat="42.88132" lon="0.12484">
        <ele>1901.5</ele>
        <time>2021-03-25T15:04:21Z</time>
      </trkpt>
      <trkpt lat="42.88132" lon="0.12484">
        <ele>1901.6</ele>
        <time>2021-03-25T15:04:22Z</time>
      </trkpt>
      <trkpt lat="42.88132" lon="0.12483">
        <ele>1901.6</ele>
        <time>2021-03-25T15:04:23Z</time>
      </trkpt>
      <trkpt lat="42.88132" lon="0.12483">
        <ele>1901.6</ele>
        <time>2021-03-25T15:04:24Z</time>
      </trkpt>
      <trkpt lat="42.88132" lon="0.12482">
        <ele>1901.6</ele>
        <time>2021-03-25T15:04:25Z</time>
      </trkpt>
      <trkpt lat="42.88132" lon="0.12481">
        <ele>1901.6</ele>
        <time>2021-03-25T15:04:27Z</time>
      </trkpt>
      <trkpt lat="42.88132" lon="0.1248">
        <ele>1901.8</ele>
        <time>2021-03-25T15:04:28Z</time>
      </trkpt>
      <trkpt lat="42.88132" lon="0.12478">
        <ele>1901.8</ele>
        <time>2021-03-25T15:04:29Z</time>
      </trkpt>
      <trkpt lat="42.88132" lon="0.12477">
        <ele>1901.8</ele>
        <time>2021-03-25T15:04:30Z</time>
      </trkpt>
      <trkpt lat="42.88132" lon="0.12476">
        <ele>1901.7</ele>
        <time>2021-03-25T15:04:32Z</time>
      </trkpt>
      <trkpt lat="42.88132" lon="0.12474">
        <ele>1901.9</ele>
        <time>2021-03-25T15:04:33Z</time>
      </trkpt>
      <trkpt lat="42.88132" lon="0.12473">
        <ele>1901.9</ele>
        <time>2021-03-25T15:04:34Z</time>
      </trkpt>
      <trkpt lat="42.88132" lon="0.12472">
        <ele>1901.9</ele>
        <time>2021-03-25T15:04:36Z</time>
      </trkpt>
      <trkpt lat="42.88132" lon="0.1247">
        <ele>1902.1</ele>
        <time>2021-03-25T15:04:37Z</time>
      </trkpt>
      <trkpt lat="42.88133" lon="0.12468">
        <ele>1902.1</ele>
        <time>2021-03-25T15:04:39Z</time>
      </trkpt>
      <trkpt lat="42.88133" lon="0.12467">
        <ele>1902.3</ele>
        <time>2021-03-25T15:04:41Z</time>
      </trkpt>
      <trkpt lat="42.88133" lon="0.12466">
        <ele>1902.3</ele>
        <time>2021-03-25T15:04:42Z</time>
      </trkpt>
      <trkpt lat="42.88134" lon="0.12465">
        <ele>1902.3</ele>
        <time>2021-03-25T15:04:44Z</time>
      </trkpt>
      <trkpt lat="42.88134" lon="0.12464">
        <ele>1902.3</ele>
        <time>2021-03-25T15:04:45Z</time>
      </trkpt>
      <trkpt lat="42.88134" lon="0.12463">
        <ele>1902.3</ele>
        <time>2021-03-25T15:04:46Z</time>
      </trkpt>
      <trkpt lat="42.88134" lon="0.12462">
        <ele>1900.8</ele>
        <time>2021-03-25T15:04:47Z</time>
      </trkpt>
      <trkpt lat="42.88135" lon="0.12461">
        <ele>1900.8</ele>
        <time>2021-03-25T15:04:48Z</time>
      </trkpt>
      <trkpt lat="42.88135" lon="0.1246">
        <ele>1900.7</ele>
        <time>2021-03-25T15:04:50Z</time>
      </trkpt>
      <trkpt lat="42.88136" lon="0.12458">
        <ele>1900.9</ele>
        <time>2021-03-25T15:04:52Z</time>
      </trkpt>
      <trkpt lat="42.88137" lon="0.12455">
        <ele>1900.9</ele>
        <time>2021-03-25T15:04:54Z</time>
      </trkpt>
      <trkpt lat="42.88137" lon="0.12455">
        <ele>1900.9</ele>
        <time>2021-03-25T15:04:55Z</time>
      </trkpt>
      <trkpt lat="42.88138" lon="0.12453">
        <ele>1899.3</ele>
        <time>2021-03-25T15:04:57Z</time>
      </trkpt>
      <trkpt lat="42.88138" lon="0.12453">
        <ele>1899.3</ele>
        <time>2021-03-25T15:04:58Z</time>
      </trkpt>
      <trkpt lat="42.88138" lon="0.12452">
        <ele>1899.3</ele>
        <time>2021-03-25T15:05:00Z</time>
      </trkpt>
      <trkpt lat="42.88139" lon="0.12451">
        <ele>1899.3</ele>
        <time>2021-03-25T15:05:01Z</time>
      </trkpt>
      <trkpt lat="42.88139" lon="0.1245">
        <ele>1899.3</ele>
        <time>2021-03-25T15:05:02Z</time>
      </trkpt>
      <trkpt lat="42.88139" lon="0.12449">
        <ele>1899.4</ele>
        <time>2021-03-25T15:05:03Z</time>
      </trkpt>
      <trkpt lat="42.88139" lon="0.12449">
        <ele>1899.4</ele>
        <time>2021-03-25T15:05:04Z</time>
      </trkpt>
      <trkpt lat="42.8814" lon="0.12448">
        <ele>1899.4</ele>
        <time>2021-03-25T15:05:06Z</time>
      </trkpt>
      <trkpt lat="42.8814" lon="0.12447">
        <ele>1899.4</ele>
        <time>2021-03-25T15:05:07Z</time>
      </trkpt>
      <trkpt lat="42.8814" lon="0.12446">
        <ele>1899.3</ele>
        <time>2021-03-25T15:05:09Z</time>
      </trkpt>
      <trkpt lat="42.8814" lon="0.12446">
        <ele>1899.3</ele>
        <time>2021-03-25T15:05:10Z</time>
      </trkpt>
      <trkpt lat="42.8814" lon="0.12445">
        <ele>1899.4</ele>
        <time>2021-03-25T15:05:12Z</time>
      </trkpt>
      <trkpt lat="42.8814" lon="0.12444">
        <ele>1899.4</ele>
        <time>2021-03-25T15:05:13Z</time>
      </trkpt>
      <trkpt lat="42.8814" lon="0.12444">
        <ele>1899.4</ele>
        <time>2021-03-25T15:05:14Z</time>
      </trkpt>
      <trkpt lat="42.8814" lon="0.12443">
        <ele>1899.4</ele>
        <time>2021-03-25T15:05:15Z</time>
      </trkpt>
      <trkpt lat="42.8814" lon="0.12443">
        <ele>1899.4</ele>
        <time>2021-03-25T15:05:17Z</time>
      </trkpt>
      <trkpt lat="42.8814" lon="0.12442">
        <ele>1899.4</ele>
        <time>2021-03-25T15:05:19Z</time>
      </trkpt>
      <trkpt lat="42.8814" lon="0.12441">
        <ele>1899.4</ele>
        <time>2021-03-25T15:05:20Z</time>
      </trkpt>
      <trkpt lat="42.8814" lon="0.1244">
        <ele>1899.4</ele>
        <time>2021-03-25T15:05:21Z</time>
      </trkpt>
      <trkpt lat="42.8814" lon="0.1244">
        <ele>1899.4</ele>
        <time>2021-03-25T15:05:22Z</time>
      </trkpt>
      <trkpt lat="42.8814" lon="0.12439">
        <ele>1899.4</ele>
        <time>2021-03-25T15:05:23Z</time>
      </trkpt>
      <trkpt lat="42.8814" lon="0.12439">
        <ele>1899.4</ele>
        <time>2021-03-25T15:05:24Z</time>
      </trkpt>
      <trkpt lat="42.8814" lon="0.12438">
        <ele>1899.4</ele>
        <time>2021-03-25T15:05:25Z</time>
      </trkpt>
      <trkpt lat="42.8814" lon="0.12437">
        <ele>1899.4</ele>
        <time>2021-03-25T15:05:26Z</time>
      </trkpt>
      <trkpt lat="42.88139" lon="0.12437">
        <ele>1899.4</ele>
        <time>2021-03-25T15:05:28Z</time>
      </trkpt>
      <trkpt lat="42.88139" lon="0.12437">
        <ele>1899.4</ele>
        <time>2021-03-25T15:05:29Z</time>
      </trkpt>
      <trkpt lat="42.88139" lon="0.12437">
        <ele>1899.4</ele>
        <time>2021-03-25T15:05:30Z</time>
      </trkpt>
      <trkpt lat="42.88138" lon="0.12436">
        <ele>1899.4</ele>
        <time>2021-03-25T15:05:31Z</time>
      </trkpt>
      <trkpt lat="42.88139" lon="0.12433">
        <ele>1899.4</ele>
        <time>2021-03-25T15:05:32Z</time>
      </trkpt>
      <trkpt lat="42.88139" lon="0.12431">
        <ele>1899.4</ele>
        <time>2021-03-25T15:05:34Z</time>
      </trkpt>
      <trkpt lat="42.8814" lon="0.12429">
        <ele>1899.4</ele>
        <time>2021-03-25T15:05:36Z</time>
      </trkpt>
      <trkpt lat="42.88141" lon="0.12427">
        <ele>1897.7</ele>
        <time>2021-03-25T15:05:38Z</time>
      </trkpt>
      <trkpt lat="42.88141" lon="0.12425">
        <ele>1897.7</ele>
        <time>2021-03-25T15:05:40Z</time>
      </trkpt>
      <trkpt lat="42.88142" lon="0.12423">
        <ele>1897.7</ele>
        <time>2021-03-25T15:05:41Z</time>
      </trkpt>
      <trkpt lat="42.88144" lon="0.1242">
        <ele>1896.1</ele>
        <time>2021-03-25T15:05:42Z</time>
      </trkpt>
      <trkpt lat="42.88145" lon="0.12418">
        <ele>1896.1</ele>
        <time>2021-03-25T15:05:44Z</time>
      </trkpt>
      <trkpt lat="42.88146" lon="0.12417">
        <ele>1896.1</ele>
        <time>2021-03-25T15:05:45Z</time>
      </trkpt>
      <trkpt lat="42.88147" lon="0.12415">
        <ele>1896.1</ele>
        <time>2021-03-25T15:05:46Z</time>
      </trkpt>
      <trkpt lat="42.88147" lon="0.12413">
        <ele>1894.8</ele>
        <time>2021-03-25T15:05:48Z</time>
      </trkpt>
      <trkpt lat="42.88147" lon="0.12412">
        <ele>1894.8</ele>
        <time>2021-03-25T15:05:49Z</time>
      </trkpt>
      <trkpt lat="42.88148" lon="0.12407">
        <ele>1894.8</ele>
        <time>2021-03-25T15:05:50Z</time>
      </trkpt>
      <trkpt lat="42.88148" lon="0.12405">
        <ele>1894.8</ele>
        <time>2021-03-25T15:05:51Z</time>
      </trkpt>
      <trkpt lat="42.88148" lon="0.12401">
        <ele>1894.9</ele>
        <time>2021-03-25T15:05:53Z</time>
      </trkpt>
      <trkpt lat="42.88148" lon="0.12398">
        <ele>1894.9</ele>
        <time>2021-03-25T15:05:54Z</time>
      </trkpt>
      <trkpt lat="42.88148" lon="0.12397">
        <ele>1894.9</ele>
        <time>2021-03-25T15:05:55Z</time>
      </trkpt>
      <trkpt lat="42.88149" lon="0.12395">
        <ele>1894.9</ele>
        <time>2021-03-25T15:05:56Z</time>
      </trkpt>
      <trkpt lat="42.88149" lon="0.12393">
        <ele>1895</ele>
        <time>2021-03-25T15:05:57Z</time>
      </trkpt>
      <trkpt lat="42.8815" lon="0.12387">
        <ele>1893.9</ele>
        <time>2021-03-25T15:05:59Z</time>
      </trkpt>
      <trkpt lat="42.88151" lon="0.12384">
        <ele>1894</ele>
        <time>2021-03-25T15:06:01Z</time>
      </trkpt>
      <trkpt lat="42.88151" lon="0.12381">
        <ele>1894</ele>
        <time>2021-03-25T15:06:02Z</time>
      </trkpt>
      <trkpt lat="42.88151" lon="0.12376">
        <ele>1894.2</ele>
        <time>2021-03-25T15:06:04Z</time>
      </trkpt>
      <trkpt lat="42.88152" lon="0.1237">
        <ele>1894.3</ele>
        <time>2021-03-25T15:06:05Z</time>
      </trkpt>
      <trkpt lat="42.88153" lon="0.12366">
        <ele>1893.2</ele>
        <time>2021-03-25T15:06:06Z</time>
      </trkpt>
      <trkpt lat="42.88154" lon="0.12362">
        <ele>1893.3</ele>
        <time>2021-03-25T15:06:07Z</time>
      </trkpt>
      <trkpt lat="42.88156" lon="0.12357">
        <ele>1893.4</ele>
        <time>2021-03-25T15:06:09Z</time>
      </trkpt>
      <trkpt lat="42.88158" lon="0.12353">
        <ele>1892.3</ele>
        <time>2021-03-25T15:06:10Z</time>
      </trkpt>
      <trkpt lat="42.88158" lon="0.12352">
        <ele>1892.3</ele>
        <time>2021-03-25T15:06:11Z</time>
      </trkpt>
      <trkpt lat="42.88159" lon="0.1235">
        <ele>1892.4</ele>
        <time>2021-03-25T15:06:12Z</time>
      </trkpt>
      <trkpt lat="42.8816" lon="0.12347">
        <ele>1891.1</ele>
        <time>2021-03-25T15:06:14Z</time>
      </trkpt>
      <trkpt lat="42.8816" lon="0.12345">
        <ele>1891.2</ele>
        <time>2021-03-25T15:06:15Z</time>
      </trkpt>
      <trkpt lat="42.88161" lon="0.12343">
        <ele>1891.2</ele>
        <time>2021-03-25T15:06:16Z</time>
      </trkpt>
      <trkpt lat="42.88161" lon="0.12341">
        <ele>1891.3</ele>
        <time>2021-03-25T15:06:18Z</time>
      </trkpt>
      <trkpt lat="42.88161" lon="0.12339">
        <ele>1891.3</ele>
        <time>2021-03-25T15:06:19Z</time>
      </trkpt>
      <trkpt lat="42.88162" lon="0.12337">
        <ele>1891.5</ele>
        <time>2021-03-25T15:06:21Z</time>
      </trkpt>
      <trkpt lat="42.88162" lon="0.12335">
        <ele>1891.5</ele>
        <time>2021-03-25T15:06:23Z</time>
      </trkpt>
      <trkpt lat="42.88162" lon="0.12333">
        <ele>1891.6</ele>
        <time>2021-03-25T15:06:25Z</time>
      </trkpt>
      <trkpt lat="42.88162" lon="0.12332">
        <ele>1891.6</ele>
        <time>2021-03-25T15:06:26Z</time>
      </trkpt>
      <trkpt lat="42.88162" lon="0.12331">
        <ele>1891.6</ele>
        <time>2021-03-25T15:06:27Z</time>
      </trkpt>
      <trkpt lat="42.88163" lon="0.1233">
        <ele>1890.4</ele>
        <time>2021-03-25T15:06:29Z</time>
      </trkpt>
      <trkpt lat="42.88163" lon="0.12329">
        <ele>1890.6</ele>
        <time>2021-03-25T15:06:30Z</time>
      </trkpt>
      <trkpt lat="42.88163" lon="0.12328">
        <ele>1890.6</ele>
        <time>2021-03-25T15:06:31Z</time>
      </trkpt>
      <trkpt lat="42.88165" lon="0.12324">
        <ele>1890.8</ele>
        <time>2021-03-25T15:06:33Z</time>
      </trkpt>
      <trkpt lat="42.88165" lon="0.12323">
        <ele>1890.8</ele>
        <time>2021-03-25T15:06:34Z</time>
      </trkpt>
      <trkpt lat="42.88166" lon="0.12321">
        <ele>1889.8</ele>
        <time>2021-03-25T15:06:35Z</time>
      </trkpt>
      <trkpt lat="42.88167" lon="0.1232">
        <ele>1890.1</ele>
        <time>2021-03-25T15:06:36Z</time>
      </trkpt>
      <trkpt lat="42.88169" lon="0.12315">
        <ele>1889.5</ele>
        <time>2021-03-25T15:06:38Z</time>
      </trkpt>
      <trkpt lat="42.8817" lon="0.12313">
        <ele>1889.5</ele>
        <time>2021-03-25T15:06:39Z</time>
      </trkpt>
      <trkpt lat="42.8817" lon="0.1231">
        <ele>1889.8</ele>
        <time>2021-03-25T15:06:40Z</time>
      </trkpt>
      <trkpt lat="42.88169" lon="0.12305">
        <ele>1890.1</ele>
        <time>2021-03-25T15:06:42Z</time>
      </trkpt>
      <trkpt lat="42.88169" lon="0.12303">
        <ele>1891.1</ele>
        <time>2021-03-25T15:06:43Z</time>
      </trkpt>
      <trkpt lat="42.88169" lon="0.12301">
        <ele>1891.1</ele>
        <time>2021-03-25T15:06:44Z</time>
      </trkpt>
      <trkpt lat="42.88169" lon="0.12296">
        <ele>1890.6</ele>
        <time>2021-03-25T15:06:45Z</time>
      </trkpt>
      <trkpt lat="42.8817" lon="0.12293">
        <ele>1890.8</ele>
        <time>2021-03-25T15:06:46Z</time>
      </trkpt>
      <trkpt lat="42.8817" lon="0.12291">
        <ele>1891</ele>
        <time>2021-03-25T15:06:48Z</time>
      </trkpt>
      <trkpt lat="42.8817" lon="0.1229">
        <ele>1891</ele>
        <time>2021-03-25T15:06:49Z</time>
      </trkpt>
      <trkpt lat="42.88171" lon="0.12287">
        <ele>1891</ele>
        <time>2021-03-25T15:06:51Z</time>
      </trkpt>
      <trkpt lat="42.88171" lon="0.12284">
        <ele>1891.3</ele>
        <time>2021-03-25T15:06:52Z</time>
      </trkpt>
      <trkpt lat="42.8817" lon="0.12283">
        <ele>1891.2</ele>
        <time>2021-03-25T15:06:54Z</time>
      </trkpt>
      <trkpt lat="42.8817" lon="0.12282">
        <ele>1891.5</ele>
        <time>2021-03-25T15:06:55Z</time>
      </trkpt>
      <trkpt lat="42.88169" lon="0.12281">
        <ele>1891.5</ele>
        <time>2021-03-25T15:06:56Z</time>
      </trkpt>
      <trkpt lat="42.88169" lon="0.12281">
        <ele>1892.3</ele>
        <time>2021-03-25T15:06:58Z</time>
      </trkpt>
      <trkpt lat="42.88169" lon="0.12281">
        <ele>1892.3</ele>
        <time>2021-03-25T15:06:59Z</time>
      </trkpt>
      <trkpt lat="42.88168" lon="0.1228">
        <ele>1892.3</ele>
        <time>2021-03-25T15:07:00Z</time>
      </trkpt>
      <trkpt lat="42.88168" lon="0.12279">
        <ele>1892.3</ele>
        <time>2021-03-25T15:07:02Z</time>
      </trkpt>
      <trkpt lat="42.88168" lon="0.12278">
        <ele>1892.3</ele>
        <time>2021-03-25T15:07:03Z</time>
      </trkpt>
      <trkpt lat="42.88168" lon="0.12278">
        <ele>1892.5</ele>
        <time>2021-03-25T15:07:04Z</time>
      </trkpt>
      <trkpt lat="42.88168" lon="0.12277">
        <ele>1892.5</ele>
        <time>2021-03-25T15:07:05Z</time>
      </trkpt>
      <trkpt lat="42.88168" lon="0.12276">
        <ele>1892.5</ele>
        <time>2021-03-25T15:07:07Z</time>
      </trkpt>
      <trkpt lat="42.88168" lon="0.12276">
        <ele>1892.5</ele>
        <time>2021-03-25T15:07:09Z</time>
      </trkpt>
      <trkpt lat="42.88168" lon="0.12276">
        <ele>1892.5</ele>
        <time>2021-03-25T15:07:10Z</time>
      </trkpt>
      <trkpt lat="42.88168" lon="0.12276">
        <ele>1892.5</ele>
        <time>2021-03-25T15:07:12Z</time>
      </trkpt>
      <trkpt lat="42.88168" lon="0.12276">
        <ele>1892.5</ele>
        <time>2021-03-25T15:07:13Z</time>
      </trkpt>
      <trkpt lat="42.88169" lon="0.12276">
        <ele>1892.5</ele>
        <time>2021-03-25T15:07:15Z</time>
      </trkpt>
      <trkpt lat="42.88169" lon="0.12276">
        <ele>1892.4</ele>
        <time>2021-03-25T15:07:16Z</time>
      </trkpt>
      <trkpt lat="42.88169" lon="0.12276">
        <ele>1891.6</ele>
        <time>2021-03-25T15:07:18Z</time>
      </trkpt>
      <trkpt lat="42.88169" lon="0.12276">
        <ele>1891.6</ele>
        <time>2021-03-25T15:07:19Z</time>
      </trkpt>
      <trkpt lat="42.88169" lon="0.12276">
        <ele>1891.6</ele>
        <time>2021-03-25T15:07:20Z</time>
      </trkpt>
      <trkpt lat="42.88169" lon="0.12275">
        <ele>1891.6</ele>
        <time>2021-03-25T15:07:21Z</time>
      </trkpt>
      <trkpt lat="42.88169" lon="0.12275">
        <ele>1891.6</ele>
        <time>2021-03-25T15:07:23Z</time>
      </trkpt>
      <trkpt lat="42.8817" lon="0.12274">
        <ele>1891.6</ele>
        <time>2021-03-25T15:07:25Z</time>
      </trkpt>
      <trkpt lat="42.8817" lon="0.12273">
        <ele>1891.8</ele>
        <time>2021-03-25T15:07:27Z</time>
      </trkpt>
      <trkpt lat="42.88171" lon="0.12273">
        <ele>1891.8</ele>
        <time>2021-03-25T15:07:28Z</time>
      </trkpt>
      <trkpt lat="42.88171" lon="0.12273">
        <ele>1891.8</ele>
        <time>2021-03-25T15:07:29Z</time>
      </trkpt>
      <trkpt lat="42.88171" lon="0.12272">
        <ele>1891.8</ele>
        <time>2021-03-25T15:07:30Z</time>
      </trkpt>
      <trkpt lat="42.88171" lon="0.12271">
        <ele>1891.8</ele>
        <time>2021-03-25T15:07:32Z</time>
      </trkpt>
      <trkpt lat="42.88171" lon="0.1227">
        <ele>1891.8</ele>
        <time>2021-03-25T15:07:34Z</time>
      </trkpt>
      <trkpt lat="42.88171" lon="0.12269">
        <ele>1892</ele>
        <time>2021-03-25T15:07:35Z</time>
      </trkpt>
      <trkpt lat="42.88172" lon="0.12268">
        <ele>1892</ele>
        <time>2021-03-25T15:07:37Z</time>
      </trkpt>
      <trkpt lat="42.88172" lon="0.12267">
        <ele>1891.3</ele>
        <time>2021-03-25T15:07:38Z</time>
      </trkpt>
      <trkpt lat="42.88173" lon="0.12266">
        <ele>1891.2</ele>
        <time>2021-03-25T15:07:40Z</time>
      </trkpt>
      <trkpt lat="42.88174" lon="0.12265">
        <ele>1891.4</ele>
        <time>2021-03-25T15:07:41Z</time>
      </trkpt>
      <trkpt lat="42.88174" lon="0.12264">
        <ele>1891.4</ele>
        <time>2021-03-25T15:07:43Z</time>
      </trkpt>
      <trkpt lat="42.88174" lon="0.12263">
        <ele>1891.4</ele>
        <time>2021-03-25T15:07:44Z</time>
      </trkpt>
      <trkpt lat="42.88175" lon="0.12262">
        <ele>1891.4</ele>
        <time>2021-03-25T15:07:46Z</time>
      </trkpt>
      <trkpt lat="42.88175" lon="0.1226">
        <ele>1891.6</ele>
        <time>2021-03-25T15:07:48Z</time>
      </trkpt>
      <trkpt lat="42.88175" lon="0.12259">
        <ele>1891.6</ele>
        <time>2021-03-25T15:07:49Z</time>
      </trkpt>
      <trkpt lat="42.88175" lon="0.12258">
        <ele>1890.9</ele>
        <time>2021-03-25T15:07:50Z</time>
      </trkpt>
      <trkpt lat="42.88175" lon="0.12258">
        <ele>1890.9</ele>
        <time>2021-03-25T15:07:51Z</time>
      </trkpt>
      <trkpt lat="42.88176" lon="0.12256">
        <ele>1891.1</ele>
        <time>2021-03-25T15:07:53Z</time>
      </trkpt>
      <trkpt lat="42.88176" lon="0.12254">
        <ele>1891.1</ele>
        <time>2021-03-25T15:07:55Z</time>
      </trkpt>
      <trkpt lat="42.88176" lon="0.12253">
        <ele>1891.1</ele>
        <time>2021-03-25T15:07:57Z</time>
      </trkpt>
      <trkpt lat="42.88176" lon="0.12252">
        <ele>1891.3</ele>
        <time>2021-03-25T15:07:58Z</time>
      </trkpt>
      <trkpt lat="42.88176" lon="0.12251">
        <ele>1891.3</ele>
        <time>2021-03-25T15:07:59Z</time>
      </trkpt>
      <trkpt lat="42.88177" lon="0.1225">
        <ele>1891.3</ele>
        <time>2021-03-25T15:08:00Z</time>
      </trkpt>
      <trkpt lat="42.88177" lon="0.12249">
        <ele>1891.3</ele>
        <time>2021-03-25T15:08:02Z</time>
      </trkpt>
      <trkpt lat="42.88178" lon="0.12247">
        <ele>1891.5</ele>
        <time>2021-03-25T15:08:04Z</time>
      </trkpt>
      <trkpt lat="42.88179" lon="0.12246">
        <ele>1890.8</ele>
        <time>2021-03-25T15:08:06Z</time>
      </trkpt>
      <trkpt lat="42.88179" lon="0.12245">
        <ele>1890.8</ele>
        <time>2021-03-25T15:08:08Z</time>
      </trkpt>
      <trkpt lat="42.8818" lon="0.12245">
        <ele>1890.8</ele>
        <time>2021-03-25T15:08:10Z</time>
      </trkpt>
      <trkpt lat="42.8818" lon="0.12244">
        <ele>1890.8</ele>
        <time>2021-03-25T15:08:12Z</time>
      </trkpt>
      <trkpt lat="42.88181" lon="0.12243">
        <ele>1891</ele>
        <time>2021-03-25T15:08:13Z</time>
      </trkpt>
      <trkpt lat="42.88181" lon="0.12242">
        <ele>1891</ele>
        <time>2021-03-25T15:08:15Z</time>
      </trkpt>
      <trkpt lat="42.88181" lon="0.12241">
        <ele>1891</ele>
        <time>2021-03-25T15:08:16Z</time>
      </trkpt>
      <trkpt lat="42.88181" lon="0.1224">
        <ele>1891</ele>
        <time>2021-03-25T15:08:18Z</time>
      </trkpt>
      <trkpt lat="42.88181" lon="0.12239">
        <ele>1891.2</ele>
        <time>2021-03-25T15:08:20Z</time>
      </trkpt>
      <trkpt lat="42.88181" lon="0.12238">
        <ele>1891.2</ele>
        <time>2021-03-25T15:08:22Z</time>
      </trkpt>
      <trkpt lat="42.8818" lon="0.12238">
        <ele>1891.2</ele>
        <time>2021-03-25T15:08:23Z</time>
      </trkpt>
      <trkpt lat="42.8818" lon="0.12237">
        <ele>1891.2</ele>
        <time>2021-03-25T15:08:24Z</time>
      </trkpt>
      <trkpt lat="42.8818" lon="0.12237">
        <ele>1891.2</ele>
        <time>2021-03-25T15:08:26Z</time>
      </trkpt>
      <trkpt lat="42.8818" lon="0.12236">
        <ele>1891.2</ele>
        <time>2021-03-25T15:08:27Z</time>
      </trkpt>
      <trkpt lat="42.8818" lon="0.12236">
        <ele>1891.2</ele>
        <time>2021-03-25T15:08:29Z</time>
      </trkpt>
      <trkpt lat="42.8818" lon="0.12235">
        <ele>1891.2</ele>
        <time>2021-03-25T15:08:30Z</time>
      </trkpt>
      <trkpt lat="42.8818" lon="0.12235">
        <ele>1891.4</ele>
        <time>2021-03-25T15:08:31Z</time>
      </trkpt>
      <trkpt lat="42.88179" lon="0.12234">
        <ele>1891.4</ele>
        <time>2021-03-25T15:08:33Z</time>
      </trkpt>
      <trkpt lat="42.88179" lon="0.12233">
        <ele>1891.4</ele>
        <time>2021-03-25T15:08:34Z</time>
      </trkpt>
      <trkpt lat="42.88179" lon="0.12233">
        <ele>1891.4</ele>
        <time>2021-03-25T15:08:35Z</time>
      </trkpt>
      <trkpt lat="42.88178" lon="0.12232">
        <ele>1892.1</ele>
        <time>2021-03-25T15:08:37Z</time>
      </trkpt>
      <trkpt lat="42.88177" lon="0.12231">
        <ele>1892.4</ele>
        <time>2021-03-25T15:08:38Z</time>
      </trkpt>
      <trkpt lat="42.88177" lon="0.1223">
        <ele>1892.4</ele>
        <time>2021-03-25T15:08:40Z</time>
      </trkpt>
      <trkpt lat="42.88177" lon="0.12228">
        <ele>1892.4</ele>
        <time>2021-03-25T15:08:42Z</time>
      </trkpt>
      <trkpt lat="42.88176" lon="0.12227">
        <ele>1892.4</ele>
        <time>2021-03-25T15:08:43Z</time>
      </trkpt>
      <trkpt lat="42.88176" lon="0.12226">
        <ele>1892.7</ele>
        <time>2021-03-25T15:08:45Z</time>
      </trkpt>
      <trkpt lat="42.88176" lon="0.12225">
        <ele>1892.7</ele>
        <time>2021-03-25T15:08:46Z</time>
      </trkpt>
      <trkpt lat="42.88176" lon="0.12224">
        <ele>1892.7</ele>
        <time>2021-03-25T15:08:47Z</time>
      </trkpt>
      <trkpt lat="42.88177" lon="0.12222">
        <ele>1893</ele>
        <time>2021-03-25T15:08:49Z</time>
      </trkpt>
      <trkpt lat="42.88177" lon="0.12221">
        <ele>1893</ele>
        <time>2021-03-25T15:08:50Z</time>
      </trkpt>
      <trkpt lat="42.88178" lon="0.12219">
        <ele>1893</ele>
        <time>2021-03-25T15:08:52Z</time>
      </trkpt>
      <trkpt lat="42.88178" lon="0.12216">
        <ele>1893.3</ele>
        <time>2021-03-25T15:08:54Z</time>
      </trkpt>
      <trkpt lat="42.88178" lon="0.12215">
        <ele>1893.3</ele>
        <time>2021-03-25T15:08:55Z</time>
      </trkpt>
      <trkpt lat="42.88178" lon="0.12214">
        <ele>1893.3</ele>
        <time>2021-03-25T15:08:56Z</time>
      </trkpt>
      <trkpt lat="42.88178" lon="0.12212">
        <ele>1892.9</ele>
        <time>2021-03-25T15:08:58Z</time>
      </trkpt>
      <trkpt lat="42.88179" lon="0.1221">
        <ele>1892.8</ele>
        <time>2021-03-25T15:08:59Z</time>
      </trkpt>
      <trkpt lat="42.88179" lon="0.12207">
        <ele>1893.1</ele>
        <time>2021-03-25T15:09:01Z</time>
      </trkpt>
      <trkpt lat="42.88179" lon="0.12206">
        <ele>1893.1</ele>
        <time>2021-03-25T15:09:02Z</time>
      </trkpt>
      <trkpt lat="42.8818" lon="0.12205">
        <ele>1893.3</ele>
        <time>2021-03-25T15:09:03Z</time>
      </trkpt>
      <trkpt lat="42.8818" lon="0.12203">
        <ele>1893.3</ele>
        <time>2021-03-25T15:09:04Z</time>
      </trkpt>
      <trkpt lat="42.8818" lon="0.12201">
        <ele>1893.3</ele>
        <time>2021-03-25T15:09:06Z</time>
      </trkpt>
      <trkpt lat="42.8818" lon="0.122">
        <ele>1893.5</ele>
        <time>2021-03-25T15:09:07Z</time>
      </trkpt>
      <trkpt lat="42.88179" lon="0.12198">
        <ele>1893.5</ele>
        <time>2021-03-25T15:09:09Z</time>
      </trkpt>
      <trkpt lat="42.88179" lon="0.12196">
        <ele>1893.7</ele>
        <time>2021-03-25T15:09:10Z</time>
      </trkpt>
      <trkpt lat="42.88179" lon="0.12195">
        <ele>1893.7</ele>
        <time>2021-03-25T15:09:11Z</time>
      </trkpt>
      <trkpt lat="42.88179" lon="0.12193">
        <ele>1893.7</ele>
        <time>2021-03-25T15:09:12Z</time>
      </trkpt>
      <trkpt lat="42.88179" lon="0.12192">
        <ele>1893.9</ele>
        <time>2021-03-25T15:09:14Z</time>
      </trkpt>
      <trkpt lat="42.88179" lon="0.1219">
        <ele>1893.9</ele>
        <time>2021-03-25T15:09:15Z</time>
      </trkpt>
      <trkpt lat="42.8818" lon="0.12189">
        <ele>1893.9</ele>
        <time>2021-03-25T15:09:16Z</time>
      </trkpt>
      <trkpt lat="42.8818" lon="0.12188">
        <ele>1894.1</ele>
        <time>2021-03-25T15:09:17Z</time>
      </trkpt>
      <trkpt lat="42.8818" lon="0.12186">
        <ele>1894.1</ele>
        <time>2021-03-25T15:09:19Z</time>
      </trkpt>
      <trkpt lat="42.88181" lon="0.12184">
        <ele>1894.1</ele>
        <time>2021-03-25T15:09:21Z</time>
      </trkpt>
      <trkpt lat="42.88182" lon="0.12183">
        <ele>1893.4</ele>
        <time>2021-03-25T15:09:22Z</time>
      </trkpt>
      <trkpt lat="42.88182" lon="0.12181">
        <ele>1893.4</ele>
        <time>2021-03-25T15:09:24Z</time>
      </trkpt>
      <trkpt lat="42.88183" lon="0.1218">
        <ele>1893.3</ele>
        <time>2021-03-25T15:09:26Z</time>
      </trkpt>
      <trkpt lat="42.88183" lon="0.12179">
        <ele>1893.5</ele>
        <time>2021-03-25T15:09:27Z</time>
      </trkpt>
      <trkpt lat="42.88182" lon="0.12178">
        <ele>1893.5</ele>
        <time>2021-03-25T15:09:28Z</time>
      </trkpt>
      <trkpt lat="42.88182" lon="0.12178">
        <ele>1893.5</ele>
        <time>2021-03-25T15:09:30Z</time>
      </trkpt>
      <trkpt lat="42.88182" lon="0.12175">
        <ele>1893.5</ele>
        <time>2021-03-25T15:09:32Z</time>
      </trkpt>
      <trkpt lat="42.88181" lon="0.12175">
        <ele>1893.5</ele>
        <time>2021-03-25T15:09:33Z</time>
      </trkpt>
      <trkpt lat="42.88181" lon="0.12175">
        <ele>1894.5</ele>
        <time>2021-03-25T15:09:35Z</time>
      </trkpt>
      <trkpt lat="42.88181" lon="0.12174">
        <ele>1894.5</ele>
        <time>2021-03-25T15:09:37Z</time>
      </trkpt>
      <trkpt lat="42.88181" lon="0.12173">
        <ele>1894.5</ele>
        <time>2021-03-25T15:09:39Z</time>
      </trkpt>
      <trkpt lat="42.88181" lon="0.12172">
        <ele>1894.5</ele>
        <time>2021-03-25T15:09:40Z</time>
      </trkpt>
      <trkpt lat="42.88181" lon="0.12171">
        <ele>1894.6</ele>
        <time>2021-03-25T15:09:42Z</time>
      </trkpt>
      <trkpt lat="42.8818" lon="0.1217">
        <ele>1894.6</ele>
        <time>2021-03-25T15:09:43Z</time>
      </trkpt>
      <trkpt lat="42.8818" lon="0.12169">
        <ele>1894.6</ele>
        <time>2021-03-25T15:09:45Z</time>
      </trkpt>
      <trkpt lat="42.8818" lon="0.12168">
        <ele>1894.6</ele>
        <time>2021-03-25T15:09:46Z</time>
      </trkpt>
      <trkpt lat="42.8818" lon="0.12167">
        <ele>1894.6</ele>
        <time>2021-03-25T15:09:48Z</time>
      </trkpt>
      <trkpt lat="42.8818" lon="0.12167">
        <ele>1894.8</ele>
        <time>2021-03-25T15:09:49Z</time>
      </trkpt>
      <trkpt lat="42.88179" lon="0.12166">
        <ele>1894.7</ele>
        <time>2021-03-25T15:09:51Z</time>
      </trkpt>
      <trkpt lat="42.88179" lon="0.12165">
        <ele>1894.7</ele>
        <time>2021-03-25T15:09:53Z</time>
      </trkpt>
      <trkpt lat="42.88179" lon="0.12164">
        <ele>1894.7</ele>
        <time>2021-03-25T15:09:55Z</time>
      </trkpt>
      <trkpt lat="42.88179" lon="0.12164">
        <ele>1894.7</ele>
        <time>2021-03-25T15:09:57Z</time>
      </trkpt>
      <trkpt lat="42.88179" lon="0.12163">
        <ele>1894.7</ele>
        <time>2021-03-25T15:09:58Z</time>
      </trkpt>
      <trkpt lat="42.88179" lon="0.12163">
        <ele>1894.7</ele>
        <time>2021-03-25T15:10:00Z</time>
      </trkpt>
      <trkpt lat="42.88179" lon="0.12162">
        <ele>1894.7</ele>
        <time>2021-03-25T15:10:01Z</time>
      </trkpt>
      <trkpt lat="42.88178" lon="0.12162">
        <ele>1894.8</ele>
        <time>2021-03-25T15:10:03Z</time>
      </trkpt>
      <trkpt lat="42.88178" lon="0.12162">
        <ele>1894.8</ele>
        <time>2021-03-25T15:10:04Z</time>
      </trkpt>
      <trkpt lat="42.88178" lon="0.12162">
        <ele>1894.8</ele>
        <time>2021-03-25T15:10:05Z</time>
      </trkpt>
      <trkpt lat="42.88178" lon="0.12161">
        <ele>1894.8</ele>
        <time>2021-03-25T15:10:06Z</time>
      </trkpt>
      <trkpt lat="42.88178" lon="0.12161">
        <ele>1895.8</ele>
        <time>2021-03-25T15:10:08Z</time>
      </trkpt>
      <trkpt lat="42.88178" lon="0.1216">
        <ele>1895.8</ele>
        <time>2021-03-25T15:10:09Z</time>
      </trkpt>
      <trkpt lat="42.88178" lon="0.1216">
        <ele>1895.8</ele>
        <time>2021-03-25T15:10:10Z</time>
      </trkpt>
      <trkpt lat="42.88177" lon="0.12159">
        <ele>1895.8</ele>
        <time>2021-03-25T15:10:11Z</time>
      </trkpt>
      <trkpt lat="42.88177" lon="0.12159">
        <ele>1895.8</ele>
        <time>2021-03-25T15:10:12Z</time>
      </trkpt>
      <trkpt lat="42.88177" lon="0.12159">
        <ele>1895.8</ele>
        <time>2021-03-25T15:10:13Z</time>
      </trkpt>
      <trkpt lat="42.88176" lon="0.12159">
        <ele>1895.7</ele>
        <time>2021-03-25T15:10:14Z</time>
      </trkpt>
      <trkpt lat="42.88175" lon="0.12159">
        <ele>1895.7</ele>
        <time>2021-03-25T15:10:16Z</time>
      </trkpt>
      <trkpt lat="42.88175" lon="0.12158">
        <ele>1896.9</ele>
        <time>2021-03-25T15:10:17Z</time>
      </trkpt>
      <trkpt lat="42.88174" lon="0.12157">
        <ele>1896.9</ele>
        <time>2021-03-25T15:10:19Z</time>
      </trkpt>
      <trkpt lat="42.88174" lon="0.12157">
        <ele>1896.9</ele>
        <time>2021-03-25T15:10:20Z</time>
      </trkpt>
      <trkpt lat="42.88173" lon="0.12156">
        <ele>1896.9</ele>
        <time>2021-03-25T15:10:21Z</time>
      </trkpt>
      <trkpt lat="42.88173" lon="0.12156">
        <ele>1896.9</ele>
        <time>2021-03-25T15:10:22Z</time>
      </trkpt>
      <trkpt lat="42.88173" lon="0.12155">
        <ele>1896.9</ele>
        <time>2021-03-25T15:10:24Z</time>
      </trkpt>
      <trkpt lat="42.88173" lon="0.12155">
        <ele>1896.9</ele>
        <time>2021-03-25T15:10:25Z</time>
      </trkpt>
      <trkpt lat="42.88172" lon="0.12153">
        <ele>1896.9</ele>
        <time>2021-03-25T15:10:27Z</time>
      </trkpt>
      <trkpt lat="42.88172" lon="0.12151">
        <ele>1896.9</ele>
        <time>2021-03-25T15:10:28Z</time>
      </trkpt>
      <trkpt lat="42.88172" lon="0.1215">
        <ele>1896.9</ele>
        <time>2021-03-25T15:10:30Z</time>
      </trkpt>
      <trkpt lat="42.88172" lon="0.12149">
        <ele>1896.9</ele>
        <time>2021-03-25T15:10:32Z</time>
      </trkpt>
      <trkpt lat="42.88172" lon="0.12148">
        <ele>1898.1</ele>
        <time>2021-03-25T15:10:33Z</time>
      </trkpt>
      <trkpt lat="42.88172" lon="0.12146">
        <ele>1898.1</ele>
        <time>2021-03-25T15:10:34Z</time>
      </trkpt>
      <trkpt lat="42.88172" lon="0.12146">
        <ele>1898.1</ele>
        <time>2021-03-25T15:10:35Z</time>
      </trkpt>
      <trkpt lat="42.88172" lon="0.12144">
        <ele>1898</ele>
        <time>2021-03-25T15:10:37Z</time>
      </trkpt>
      <trkpt lat="42.88172" lon="0.12143">
        <ele>1898</ele>
        <time>2021-03-25T15:10:38Z</time>
      </trkpt>
      <trkpt lat="42.88172" lon="0.12143">
        <ele>1898</ele>
        <time>2021-03-25T15:10:40Z</time>
      </trkpt>
      <trkpt lat="42.88172" lon="0.12142">
        <ele>1898</ele>
        <time>2021-03-25T15:10:42Z</time>
      </trkpt>
      <trkpt lat="42.88172" lon="0.12142">
        <ele>1898</ele>
        <time>2021-03-25T15:10:43Z</time>
      </trkpt>
      <trkpt lat="42.88172" lon="0.12141">
        <ele>1896.8</ele>
        <time>2021-03-25T15:10:45Z</time>
      </trkpt>
      <trkpt lat="42.88172" lon="0.12141">
        <ele>1896.8</ele>
        <time>2021-03-25T15:10:46Z</time>
      </trkpt>
      <trkpt lat="42.88172" lon="0.1214">
        <ele>1896.7</ele>
        <time>2021-03-25T15:10:48Z</time>
      </trkpt>
      <trkpt lat="42.88172" lon="0.1214">
        <ele>1896.7</ele>
        <time>2021-03-25T15:10:50Z</time>
      </trkpt>
      <trkpt lat="42.88172" lon="0.1214">
        <ele>1896.7</ele>
        <time>2021-03-25T15:10:51Z</time>
      </trkpt>
      <trkpt lat="42.88172" lon="0.1214">
        <ele>1897.9</ele>
        <time>2021-03-25T15:10:52Z</time>
      </trkpt>
      <trkpt lat="42.88172" lon="0.12139">
        <ele>1897.9</ele>
        <time>2021-03-25T15:10:53Z</time>
      </trkpt>
      <trkpt lat="42.88172" lon="0.12139">
        <ele>1897.9</ele>
        <time>2021-03-25T15:10:55Z</time>
      </trkpt>
      <trkpt lat="42.88172" lon="0.12139">
        <ele>1896.7</ele>
        <time>2021-03-25T15:10:56Z</time>
      </trkpt>
      <trkpt lat="42.88176" lon="0.12137">
        <ele>1895.5</ele>
        <time>2021-03-25T15:10:58Z</time>
      </trkpt>
      <trkpt lat="42.88174" lon="0.12137">
        <ele>1896.7</ele>
        <time>2021-03-25T15:10:59Z</time>
      </trkpt>
      <trkpt lat="42.88174" lon="0.12137">
        <ele>1896.6</ele>
        <time>2021-03-25T15:11:01Z</time>
      </trkpt>
      <trkpt lat="42.88174" lon="0.12137">
        <ele>1896.6</ele>
        <time>2021-03-25T15:11:02Z</time>
      </trkpt>
      <trkpt lat="42.88175" lon="0.12137">
        <ele>1896.6</ele>
        <time>2021-03-25T15:11:04Z</time>
      </trkpt>
      <trkpt lat="42.88175" lon="0.12136">
        <ele>1895.4</ele>
        <time>2021-03-25T15:11:05Z</time>
      </trkpt>
      <trkpt lat="42.88176" lon="0.12136">
        <ele>1895.4</ele>
        <time>2021-03-25T15:11:07Z</time>
      </trkpt>
      <trkpt lat="42.88176" lon="0.12136">
        <ele>1895.3</ele>
        <time>2021-03-25T15:11:09Z</time>
      </trkpt>
      <trkpt lat="42.88177" lon="0.12136">
        <ele>1895.3</ele>
        <time>2021-03-25T15:11:10Z</time>
      </trkpt>
      <trkpt lat="42.88177" lon="0.12136">
        <ele>1895.3</ele>
        <time>2021-03-25T15:11:12Z</time>
      </trkpt>
      <trkpt lat="42.88177" lon="0.12136">
        <ele>1895.3</ele>
        <time>2021-03-25T15:11:13Z</time>
      </trkpt>
      <trkpt lat="42.88177" lon="0.12136">
        <ele>1895.3</ele>
        <time>2021-03-25T15:11:14Z</time>
      </trkpt>
      <trkpt lat="42.88178" lon="0.12136">
        <ele>1895.3</ele>
        <time>2021-03-25T15:11:15Z</time>
      </trkpt>
      <trkpt lat="42.88178" lon="0.12136">
        <ele>1895.3</ele>
        <time>2021-03-25T15:11:17Z</time>
      </trkpt>
      <trkpt lat="42.88178" lon="0.12136">
        <ele>1895.3</ele>
        <time>2021-03-25T15:11:19Z</time>
      </trkpt>
      <trkpt lat="42.88178" lon="0.12136">
        <ele>1894.2</ele>
        <time>2021-03-25T15:11:21Z</time>
      </trkpt>
      <trkpt lat="42.88179" lon="0.12136">
        <ele>1894.2</ele>
        <time>2021-03-25T15:11:22Z</time>
      </trkpt>
      <trkpt lat="42.88179" lon="0.12136">
        <ele>1894.2</ele>
        <time>2021-03-25T15:11:23Z</time>
      </trkpt>
      <trkpt lat="42.88179" lon="0.12136">
        <ele>1894.2</ele>
        <time>2021-03-25T15:11:25Z</time>
      </trkpt>
      <trkpt lat="42.88179" lon="0.12136">
        <ele>1894.2</ele>
        <time>2021-03-25T15:11:26Z</time>
      </trkpt>
      <trkpt lat="42.8818" lon="0.12137">
        <ele>1894.4</ele>
        <time>2021-03-25T15:11:27Z</time>
      </trkpt>
      <trkpt lat="42.8818" lon="0.12137">
        <ele>1894.4</ele>
        <time>2021-03-25T15:11:29Z</time>
      </trkpt>
      <trkpt lat="42.8818" lon="0.12137">
        <ele>1894.3</ele>
        <time>2021-03-25T15:11:30Z</time>
      </trkpt>
      <trkpt lat="42.8818" lon="0.12138">
        <ele>1894.3</ele>
        <time>2021-03-25T15:11:31Z</time>
      </trkpt>
      <trkpt lat="42.8818" lon="0.12138">
        <ele>1894.3</ele>
        <time>2021-03-25T15:11:32Z</time>
      </trkpt>
      <trkpt lat="42.8818" lon="0.12138">
        <ele>1894.3</ele>
        <time>2021-03-25T15:11:33Z</time>
      </trkpt>
      <trkpt lat="42.88181" lon="0.12138">
        <ele>1894.3</ele>
        <time>2021-03-25T15:11:35Z</time>
      </trkpt>
      <trkpt lat="42.88181" lon="0.12138">
        <ele>1894.3</ele>
        <time>2021-03-25T15:11:36Z</time>
      </trkpt>
      <trkpt lat="42.88182" lon="0.12138">
        <ele>1893.3</ele>
        <time>2021-03-25T15:11:38Z</time>
      </trkpt>
      <trkpt lat="42.88182" lon="0.12138">
        <ele>1893.3</ele>
        <time>2021-03-25T15:11:39Z</time>
      </trkpt>
      <trkpt lat="42.88182" lon="0.12139">
        <ele>1893.3</ele>
        <time>2021-03-25T15:11:41Z</time>
      </trkpt>
      <trkpt lat="42.88183" lon="0.12139">
        <ele>1893.3</ele>
        <time>2021-03-25T15:11:42Z</time>
      </trkpt>
      <trkpt lat="42.88183" lon="0.12139">
        <ele>1893.3</ele>
        <time>2021-03-25T15:11:43Z</time>
      </trkpt>
      <trkpt lat="42.88184" lon="0.12138">
        <ele>1893.3</ele>
        <time>2021-03-25T15:11:45Z</time>
      </trkpt>
      <trkpt lat="42.88184" lon="0.12138">
        <ele>1893.3</ele>
        <time>2021-03-25T15:11:46Z</time>
      </trkpt>
      <trkpt lat="42.88185" lon="0.12137">
        <ele>1892.2</ele>
        <time>2021-03-25T15:11:48Z</time>
      </trkpt>
      <trkpt lat="42.88186" lon="0.12137">
        <ele>1892.2</ele>
        <time>2021-03-25T15:11:49Z</time>
      </trkpt>
      <trkpt lat="42.88186" lon="0.12136">
        <ele>1892.1</ele>
        <time>2021-03-25T15:11:51Z</time>
      </trkpt>
      <trkpt lat="42.88186" lon="0.12136">
        <ele>1892</ele>
        <time>2021-03-25T15:11:53Z</time>
      </trkpt>
      <trkpt lat="42.88186" lon="0.12135">
        <ele>1892</ele>
        <time>2021-03-25T15:11:54Z</time>
      </trkpt>
      <trkpt lat="42.88186" lon="0.12135">
        <ele>1892</ele>
        <time>2021-03-25T15:11:55Z</time>
      </trkpt>
      <trkpt lat="42.88186" lon="0.12135">
        <ele>1892</ele>
        <time>2021-03-25T15:11:57Z</time>
      </trkpt>
      <trkpt lat="42.88186" lon="0.12134">
        <ele>1892</ele>
        <time>2021-03-25T15:11:59Z</time>
      </trkpt>
      <trkpt lat="42.88186" lon="0.12134">
        <ele>1892</ele>
        <time>2021-03-25T15:12:00Z</time>
      </trkpt>
      <trkpt lat="42.88186" lon="0.12133">
        <ele>1892</ele>
        <time>2021-03-25T15:12:02Z</time>
      </trkpt>
      <trkpt lat="42.88187" lon="0.12132">
        <ele>1892</ele>
        <time>2021-03-25T15:12:04Z</time>
      </trkpt>
      <trkpt lat="42.88187" lon="0.12132">
        <ele>1891.8</ele>
        <time>2021-03-25T15:12:05Z</time>
      </trkpt>
      <trkpt lat="42.88187" lon="0.12132">
        <ele>1891.8</ele>
        <time>2021-03-25T15:12:06Z</time>
      </trkpt>
      <trkpt lat="42.88187" lon="0.12132">
        <ele>1891.8</ele>
        <time>2021-03-25T15:12:08Z</time>
      </trkpt>
      <trkpt lat="42.88187" lon="0.12132">
        <ele>1891.7</ele>
        <time>2021-03-25T15:12:09Z</time>
      </trkpt>
      <trkpt lat="42.88187" lon="0.12132">
        <ele>1891.7</ele>
        <time>2021-03-25T15:12:11Z</time>
      </trkpt>
      <trkpt lat="42.88187" lon="0.12132">
        <ele>1892</ele>
        <time>2021-03-25T15:12:12Z</time>
      </trkpt>
      <trkpt lat="42.88187" lon="0.12132">
        <ele>1892</ele>
        <time>2021-03-25T15:12:13Z</time>
      </trkpt>
      <trkpt lat="42.88188" lon="0.12132">
        <ele>1891.7</ele>
        <time>2021-03-25T15:12:15Z</time>
      </trkpt>
      <trkpt lat="42.88188" lon="0.12132">
        <ele>1891.7</ele>
        <time>2021-03-25T15:12:16Z</time>
      </trkpt>
      <trkpt lat="42.88188" lon="0.12132">
        <ele>1890.7</ele>
        <time>2021-03-25T15:12:17Z</time>
      </trkpt>
      <trkpt lat="42.88189" lon="0.12132">
        <ele>1890.7</ele>
        <time>2021-03-25T15:12:19Z</time>
      </trkpt>
      <trkpt lat="42.8819" lon="0.12131">
        <ele>1890.7</ele>
        <time>2021-03-25T15:12:20Z</time>
      </trkpt>
      <trkpt lat="42.88191" lon="0.12132">
        <ele>1889.8</ele>
        <time>2021-03-25T15:12:21Z</time>
      </trkpt>
      <trkpt lat="42.88192" lon="0.12135">
        <ele>1890</ele>
        <time>2021-03-25T15:12:23Z</time>
      </trkpt>
      <trkpt lat="42.88195" lon="0.12139">
        <ele>1889.3</ele>
        <time>2021-03-25T15:12:24Z</time>
      </trkpt>
      <trkpt lat="42.88197" lon="0.12142">
        <ele>1889.5</ele>
        <time>2021-03-25T15:12:26Z</time>
      </trkpt>
      <trkpt lat="42.88197" lon="0.12143">
        <ele>1888.7</ele>
        <time>2021-03-25T15:12:27Z</time>
      </trkpt>
      <trkpt lat="42.88199" lon="0.12143">
        <ele>1888.7</ele>
        <time>2021-03-25T15:12:29Z</time>
      </trkpt>
      <trkpt lat="42.882" lon="0.12143">
        <ele>1888.7</ele>
        <time>2021-03-25T15:12:30Z</time>
      </trkpt>
      <trkpt lat="42.88201" lon="0.12142">
        <ele>1887.9</ele>
        <time>2021-03-25T15:12:31Z</time>
      </trkpt>
      <trkpt lat="42.88202" lon="0.12141">
        <ele>1887.9</ele>
        <time>2021-03-25T15:12:32Z</time>
      </trkpt>
      <trkpt lat="42.88204" lon="0.1214">
        <ele>1887.1</ele>
        <time>2021-03-25T15:12:34Z</time>
      </trkpt>
      <trkpt lat="42.88206" lon="0.1214">
        <ele>1887.1</ele>
        <time>2021-03-25T15:12:36Z</time>
      </trkpt>
      <trkpt lat="42.88207" lon="0.12141">
        <ele>1886.5</ele>
        <time>2021-03-25T15:12:37Z</time>
      </trkpt>
      <trkpt lat="42.88208" lon="0.12141">
        <ele>1886.5</ele>
        <time>2021-03-25T15:12:38Z</time>
      </trkpt>
      <trkpt lat="42.8821" lon="0.12141">
        <ele>1886</ele>
        <time>2021-03-25T15:12:39Z</time>
      </trkpt>
      <trkpt lat="42.88212" lon="0.1214">
        <ele>1886</ele>
        <time>2021-03-25T15:12:41Z</time>
      </trkpt>
      <trkpt lat="42.88214" lon="0.1214">
        <ele>1885.5</ele>
        <time>2021-03-25T15:12:42Z</time>
      </trkpt>
      <trkpt lat="42.88215" lon="0.1214">
        <ele>1885.5</ele>
        <time>2021-03-25T15:12:43Z</time>
      </trkpt>
      <trkpt lat="42.88217" lon="0.12139">
        <ele>1885.1</ele>
        <time>2021-03-25T15:12:44Z</time>
      </trkpt>
      <trkpt lat="42.88218" lon="0.12138">
        <ele>1885.1</ele>
        <time>2021-03-25T15:12:46Z</time>
      </trkpt>
      <trkpt lat="42.88219" lon="0.12137">
        <ele>1884.8</ele>
        <time>2021-03-25T15:12:47Z</time>
      </trkpt>
      <trkpt lat="42.88221" lon="0.12136">
        <ele>1884.5</ele>
        <time>2021-03-25T15:12:48Z</time>
      </trkpt>
      <trkpt lat="42.88222" lon="0.12134">
        <ele>1884.5</ele>
        <time>2021-03-25T15:12:50Z</time>
      </trkpt>
      <trkpt lat="42.88223" lon="0.12133">
        <ele>1884.1</ele>
        <time>2021-03-25T15:12:51Z</time>
      </trkpt>
      <trkpt lat="42.88225" lon="0.12132">
        <ele>1883.8</ele>
        <time>2021-03-25T15:12:52Z</time>
      </trkpt>
      <trkpt lat="42.88226" lon="0.12131">
        <ele>1883.4</ele>
        <time>2021-03-25T15:12:53Z</time>
      </trkpt>
      <trkpt lat="42.88227" lon="0.12131">
        <ele>1883.4</ele>
        <time>2021-03-25T15:12:54Z</time>
      </trkpt>
      <trkpt lat="42.88228" lon="0.12131">
        <ele>1883.4</ele>
        <time>2021-03-25T15:12:55Z</time>
      </trkpt>
      <trkpt lat="42.88229" lon="0.1213">
        <ele>1883.1</ele>
        <time>2021-03-25T15:12:56Z</time>
      </trkpt>
      <trkpt lat="42.8823" lon="0.1213">
        <ele>1883.1</ele>
        <time>2021-03-25T15:12:58Z</time>
      </trkpt>
      <trkpt lat="42.88231" lon="0.12129">
        <ele>1883.1</ele>
        <time>2021-03-25T15:12:59Z</time>
      </trkpt>
      <trkpt lat="42.88233" lon="0.12129">
        <ele>1882.8</ele>
        <time>2021-03-25T15:13:00Z</time>
      </trkpt>
      <trkpt lat="42.88235" lon="0.12128">
        <ele>1882.6</ele>
        <time>2021-03-25T15:13:01Z</time>
      </trkpt>
      <trkpt lat="42.88236" lon="0.12127">
        <ele>1882.3</ele>
        <time>2021-03-25T15:13:02Z</time>
      </trkpt>
      <trkpt lat="42.88237" lon="0.12127">
        <ele>1882.3</ele>
        <time>2021-03-25T15:13:03Z</time>
      </trkpt>
      <trkpt lat="42.88237" lon="0.12126">
        <ele>1882.3</ele>
        <time>2021-03-25T15:13:04Z</time>
      </trkpt>
      <trkpt lat="42.88238" lon="0.12123">
        <ele>1881.9</ele>
        <time>2021-03-25T15:13:05Z</time>
      </trkpt>
      <trkpt lat="42.88238" lon="0.12121">
        <ele>1881.9</ele>
        <time>2021-03-25T15:13:07Z</time>
      </trkpt>
      <trkpt lat="42.88238" lon="0.12119">
        <ele>1881.3</ele>
        <time>2021-03-25T15:13:08Z</time>
      </trkpt>
      <trkpt lat="42.88238" lon="0.12117">
        <ele>1881.3</ele>
        <time>2021-03-25T15:13:09Z</time>
      </trkpt>
      <trkpt lat="42.88238" lon="0.12115">
        <ele>1881.1</ele>
        <time>2021-03-25T15:13:10Z</time>
      </trkpt>
      <trkpt lat="42.88237" lon="0.12112">
        <ele>1881.1</ele>
        <time>2021-03-25T15:13:11Z</time>
      </trkpt>
      <trkpt lat="42.88237" lon="0.1211">
        <ele>1880.6</ele>
        <time>2021-03-25T15:13:12Z</time>
      </trkpt>
      <trkpt lat="42.88236" lon="0.12108">
        <ele>1880.6</ele>
        <time>2021-03-25T15:13:14Z</time>
      </trkpt>
      <trkpt lat="42.88235" lon="0.12106">
        <ele>1880.2</ele>
        <time>2021-03-25T15:13:15Z</time>
      </trkpt>
      <trkpt lat="42.88232" lon="0.12105">
        <ele>1880.3</ele>
        <time>2021-03-25T15:13:17Z</time>
      </trkpt>
      <trkpt lat="42.88232" lon="0.12105">
        <ele>1880.6</ele>
        <time>2021-03-25T15:13:18Z</time>
      </trkpt>
      <trkpt lat="42.8823" lon="0.12104">
        <ele>1880.6</ele>
        <time>2021-03-25T15:13:19Z</time>
      </trkpt>
      <trkpt lat="42.88229" lon="0.12104">
        <ele>1880.6</ele>
        <time>2021-03-25T15:13:20Z</time>
      </trkpt>
      <trkpt lat="42.88228" lon="0.12104">
        <ele>1880.9</ele>
        <time>2021-03-25T15:13:21Z</time>
      </trkpt>
      <trkpt lat="42.88225" lon="0.12103">
        <ele>1880.9</ele>
        <time>2021-03-25T15:13:23Z</time>
      </trkpt>
      <trkpt lat="42.88224" lon="0.12102">
        <ele>1880.7</ele>
        <time>2021-03-25T15:13:25Z</time>
      </trkpt>
      <trkpt lat="42.88223" lon="0.12101">
        <ele>1880.7</ele>
        <time>2021-03-25T15:13:26Z</time>
      </trkpt>
      <trkpt lat="42.88222" lon="0.121">
        <ele>1881.1</ele>
        <time>2021-03-25T15:13:27Z</time>
      </trkpt>
      <trkpt lat="42.88221" lon="0.12099">
        <ele>1881.1</ele>
        <time>2021-03-25T15:13:28Z</time>
      </trkpt>
      <trkpt lat="42.8822" lon="0.12098">
        <ele>1881.1</ele>
        <time>2021-03-25T15:13:30Z</time>
      </trkpt>
      <trkpt lat="42.88219" lon="0.12097">
        <ele>1880.9</ele>
        <time>2021-03-25T15:13:31Z</time>
      </trkpt>
      <trkpt lat="42.88218" lon="0.12096">
        <ele>1880.9</ele>
        <time>2021-03-25T15:13:32Z</time>
      </trkpt>
      <trkpt lat="42.88218" lon="0.12094">
        <ele>1880.9</ele>
        <time>2021-03-25T15:13:34Z</time>
      </trkpt>
      <trkpt lat="42.88218" lon="0.12093">
        <ele>1880.3</ele>
        <time>2021-03-25T15:13:35Z</time>
      </trkpt>
      <trkpt lat="42.88219" lon="0.1209">
        <ele>1880.3</ele>
        <time>2021-03-25T15:13:37Z</time>
      </trkpt>
      <trkpt lat="42.8822" lon="0.12089">
        <ele>1879.3</ele>
        <time>2021-03-25T15:13:38Z</time>
      </trkpt>
      <trkpt lat="42.8822" lon="0.12088">
        <ele>1879.3</ele>
        <time>2021-03-25T15:13:39Z</time>
      </trkpt>
      <trkpt lat="42.88221" lon="0.12087">
        <ele>1879.3</ele>
        <time>2021-03-25T15:13:40Z</time>
      </trkpt>
      <trkpt lat="42.88222" lon="0.12086">
        <ele>1878.9</ele>
        <time>2021-03-25T15:13:41Z</time>
      </trkpt>
      <trkpt lat="42.88223" lon="0.12086">
        <ele>1878.8</ele>
        <time>2021-03-25T15:13:42Z</time>
      </trkpt>
      <trkpt lat="42.88224" lon="0.12085">
        <ele>1878.8</ele>
        <time>2021-03-25T15:13:44Z</time>
      </trkpt>
      <trkpt lat="42.88225" lon="0.12085">
        <ele>1877.8</ele>
        <time>2021-03-25T15:13:45Z</time>
      </trkpt>
      <trkpt lat="42.88225" lon="0.12084">
        <ele>1877.4</ele>
        <time>2021-03-25T15:13:46Z</time>
      </trkpt>
      <trkpt lat="42.88226" lon="0.12083">
        <ele>1877.4</ele>
        <time>2021-03-25T15:13:47Z</time>
      </trkpt>
      <trkpt lat="42.88227" lon="0.12082">
        <ele>1877.4</ele>
        <time>2021-03-25T15:13:48Z</time>
      </trkpt>
      <trkpt lat="42.88228" lon="0.12081">
        <ele>1877.4</ele>
        <time>2021-03-25T15:13:50Z</time>
      </trkpt>
      <trkpt lat="42.88228" lon="0.12079">
        <ele>1876.7</ele>
        <time>2021-03-25T15:13:51Z</time>
      </trkpt>
      <trkpt lat="42.88229" lon="0.12078">
        <ele>1876.4</ele>
        <time>2021-03-25T15:13:52Z</time>
      </trkpt>
      <trkpt lat="42.8823" lon="0.12077">
        <ele>1876.4</ele>
        <time>2021-03-25T15:13:54Z</time>
      </trkpt>
      <trkpt lat="42.8823" lon="0.12076">
        <ele>1875.7</ele>
        <time>2021-03-25T15:13:55Z</time>
      </trkpt>
      <trkpt lat="42.88231" lon="0.12075">
        <ele>1875.7</ele>
        <time>2021-03-25T15:13:56Z</time>
      </trkpt>
      <trkpt lat="42.88233" lon="0.12074">
        <ele>1875.5</ele>
        <time>2021-03-25T15:13:57Z</time>
      </trkpt>
      <trkpt lat="42.88234" lon="0.12073">
        <ele>1875.5</ele>
        <time>2021-03-25T15:13:58Z</time>
      </trkpt>
      <trkpt lat="42.88235" lon="0.12072">
        <ele>1875.5</ele>
        <time>2021-03-25T15:13:59Z</time>
      </trkpt>
      <trkpt lat="42.88237" lon="0.1207">
        <ele>1874.7</ele>
        <time>2021-03-25T15:14:01Z</time>
      </trkpt>
      <trkpt lat="42.88238" lon="0.1207">
        <ele>1874.6</ele>
        <time>2021-03-25T15:14:02Z</time>
      </trkpt>
      <trkpt lat="42.88242" lon="0.12067">
        <ele>1874</ele>
        <time>2021-03-25T15:14:04Z</time>
      </trkpt>
      <trkpt lat="42.88243" lon="0.12066">
        <ele>1874</ele>
        <time>2021-03-25T15:14:05Z</time>
      </trkpt>
      <trkpt lat="42.88244" lon="0.12065">
        <ele>1874</ele>
        <time>2021-03-25T15:14:07Z</time>
      </trkpt>
      <trkpt lat="42.88245" lon="0.12064">
        <ele>1873.9</ele>
        <time>2021-03-25T15:14:08Z</time>
      </trkpt>
      <trkpt lat="42.88247" lon="0.12063">
        <ele>1873.3</ele>
        <time>2021-03-25T15:14:09Z</time>
      </trkpt>
      <trkpt lat="42.88248" lon="0.12062">
        <ele>1873.3</ele>
        <time>2021-03-25T15:14:10Z</time>
      </trkpt>
      <trkpt lat="42.88249" lon="0.12061">
        <ele>1873.3</ele>
        <time>2021-03-25T15:14:12Z</time>
      </trkpt>
      <trkpt lat="42.88251" lon="0.1206">
        <ele>1873.2</ele>
        <time>2021-03-25T15:14:13Z</time>
      </trkpt>
      <trkpt lat="42.88252" lon="0.12059">
        <ele>1872.6</ele>
        <time>2021-03-25T15:14:14Z</time>
      </trkpt>
      <trkpt lat="42.88254" lon="0.12058">
        <ele>1872.5</ele>
        <time>2021-03-25T15:14:15Z</time>
      </trkpt>
      <trkpt lat="42.88255" lon="0.12057">
        <ele>1872.5</ele>
        <time>2021-03-25T15:14:16Z</time>
      </trkpt>
      <trkpt lat="42.88256" lon="0.12055">
        <ele>1871.9</ele>
        <time>2021-03-25T15:14:18Z</time>
      </trkpt>
      <trkpt lat="42.88256" lon="0.12052">
        <ele>1871.8</ele>
        <time>2021-03-25T15:14:20Z</time>
      </trkpt>
      <trkpt lat="42.88256" lon="0.12048">
        <ele>1871.2</ele>
        <time>2021-03-25T15:14:21Z</time>
      </trkpt>
      <trkpt lat="42.88255" lon="0.12047">
        <ele>1871.2</ele>
        <time>2021-03-25T15:14:22Z</time>
      </trkpt>
      <trkpt lat="42.88255" lon="0.12043">
        <ele>1870.5</ele>
        <time>2021-03-25T15:14:24Z</time>
      </trkpt>
      <trkpt lat="42.88255" lon="0.12042">
        <ele>1869.8</ele>
        <time>2021-03-25T15:14:25Z</time>
      </trkpt>
      <trkpt lat="42.88254" lon="0.1204">
        <ele>1869.8</ele>
        <time>2021-03-25T15:14:26Z</time>
      </trkpt>
      <trkpt lat="42.88254" lon="0.12037">
        <ele>1869.1</ele>
        <time>2021-03-25T15:14:28Z</time>
      </trkpt>
      <trkpt lat="42.88254" lon="0.12036">
        <ele>1869.1</ele>
        <time>2021-03-25T15:14:29Z</time>
      </trkpt>
      <trkpt lat="42.88254" lon="0.12034">
        <ele>1869.1</ele>
        <time>2021-03-25T15:14:30Z</time>
      </trkpt>
      <trkpt lat="42.88254" lon="0.12033">
        <ele>1868.5</ele>
        <time>2021-03-25T15:14:31Z</time>
      </trkpt>
      <trkpt lat="42.88253" lon="0.12031">
        <ele>1868.5</ele>
        <time>2021-03-25T15:14:33Z</time>
      </trkpt>
      <trkpt lat="42.88252" lon="0.1203">
        <ele>1868.5</ele>
        <time>2021-03-25T15:14:34Z</time>
      </trkpt>
      <trkpt lat="42.88252" lon="0.12029">
        <ele>1868.5</ele>
        <time>2021-03-25T15:14:35Z</time>
      </trkpt>
      <trkpt lat="42.8825" lon="0.12028">
        <ele>1867.9</ele>
        <time>2021-03-25T15:14:37Z</time>
      </trkpt>
      <trkpt lat="42.88249" lon="0.12027">
        <ele>1867.9</ele>
        <time>2021-03-25T15:14:38Z</time>
      </trkpt>
      <trkpt lat="42.88249" lon="0.12025">
        <ele>1867.9</ele>
        <time>2021-03-25T15:14:39Z</time>
      </trkpt>
      <trkpt lat="42.88249" lon="0.12024">
        <ele>1867.3</ele>
        <time>2021-03-25T15:14:40Z</time>
      </trkpt>
      <trkpt lat="42.88249" lon="0.12022">
        <ele>1867.3</ele>
        <time>2021-03-25T15:14:42Z</time>
      </trkpt>
      <trkpt lat="42.88249" lon="0.12021">
        <ele>1867.3</ele>
        <time>2021-03-25T15:14:43Z</time>
      </trkpt>
      <trkpt lat="42.88249" lon="0.1202">
        <ele>1866.7</ele>
        <time>2021-03-25T15:14:44Z</time>
      </trkpt>
      <trkpt lat="42.88249" lon="0.1202">
        <ele>1866.7</ele>
        <time>2021-03-25T15:14:45Z</time>
      </trkpt>
      <trkpt lat="42.88249" lon="0.12018">
        <ele>1866.6</ele>
        <time>2021-03-25T15:14:47Z</time>
      </trkpt>
      <trkpt lat="42.88248" lon="0.12017">
        <ele>1866.6</ele>
        <time>2021-03-25T15:14:48Z</time>
      </trkpt>
      <trkpt lat="42.88247" lon="0.12018">
        <ele>1866.7</ele>
        <time>2021-03-25T15:14:50Z</time>
      </trkpt>
      <trkpt lat="42.88246" lon="0.1202">
        <ele>1866.7</ele>
        <time>2021-03-25T15:14:51Z</time>
      </trkpt>
      <trkpt lat="42.88245" lon="0.12021">
        <ele>1867.3</ele>
        <time>2021-03-25T15:14:52Z</time>
      </trkpt>
      <trkpt lat="42.88244" lon="0.12022">
        <ele>1867.4</ele>
        <time>2021-03-25T15:14:54Z</time>
      </trkpt>
      <trkpt lat="42.88244" lon="0.12023">
        <ele>1867.4</ele>
        <time>2021-03-25T15:14:55Z</time>
      </trkpt>
      <trkpt lat="42.88244" lon="0.12023">
        <ele>1867.4</ele>
        <time>2021-03-25T15:14:56Z</time>
      </trkpt>
      <trkpt lat="42.88244" lon="0.12023">
        <ele>1867.4</ele>
        <time>2021-03-25T15:14:58Z</time>
      </trkpt>
      <trkpt lat="42.88244" lon="0.12022">
        <ele>1867.3</ele>
        <time>2021-03-25T15:14:59Z</time>
      </trkpt>
      <trkpt lat="42.88244" lon="0.12022">
        <ele>1867.3</ele>
        <time>2021-03-25T15:15:00Z</time>
      </trkpt>
      <trkpt lat="42.88243" lon="0.12022">
        <ele>1867.3</ele>
        <time>2021-03-25T15:15:01Z</time>
      </trkpt>
      <trkpt lat="42.88243" lon="0.12021">
        <ele>1867.3</ele>
        <time>2021-03-25T15:15:03Z</time>
      </trkpt>
      <trkpt lat="42.88243" lon="0.12021">
        <ele>1867.3</ele>
        <time>2021-03-25T15:15:04Z</time>
      </trkpt>
      <trkpt lat="42.88244" lon="0.12021">
        <ele>1867.3</ele>
        <time>2021-03-25T15:15:06Z</time>
      </trkpt>
      <trkpt lat="42.88244" lon="0.12021">
        <ele>1867.3</ele>
        <time>2021-03-25T15:15:07Z</time>
      </trkpt>
      <trkpt lat="42.88244" lon="0.12021">
        <ele>1867.3</ele>
        <time>2021-03-25T15:15:08Z</time>
      </trkpt>
      <trkpt lat="42.88244" lon="0.12021">
        <ele>1867.3</ele>
        <time>2021-03-25T15:15:10Z</time>
      </trkpt>
      <trkpt lat="42.88244" lon="0.1202">
        <ele>1866.7</ele>
        <time>2021-03-25T15:15:12Z</time>
      </trkpt>
      <trkpt lat="42.88244" lon="0.1202">
        <ele>1866.7</ele>
        <time>2021-03-25T15:15:13Z</time>
      </trkpt>
      <trkpt lat="42.88243" lon="0.12019">
        <ele>1866.7</ele>
        <time>2021-03-25T15:15:14Z</time>
      </trkpt>
      <trkpt lat="42.88243" lon="0.12017">
        <ele>1866.7</ele>
        <time>2021-03-25T15:15:16Z</time>
      </trkpt>
      <trkpt lat="42.88243" lon="0.12016">
        <ele>1866</ele>
        <time>2021-03-25T15:15:17Z</time>
      </trkpt>
      <trkpt lat="42.88243" lon="0.12015">
        <ele>1866</ele>
        <time>2021-03-25T15:15:18Z</time>
      </trkpt>
      <trkpt lat="42.88242" lon="0.12013">
        <ele>1866</ele>
        <time>2021-03-25T15:15:19Z</time>
      </trkpt>
      <trkpt lat="42.88242" lon="0.12012">
        <ele>1865.4</ele>
        <time>2021-03-25T15:15:20Z</time>
      </trkpt>
      <trkpt lat="42.88241" lon="0.12006">
        <ele>1864.7</ele>
        <time>2021-03-25T15:15:22Z</time>
      </trkpt>
      <trkpt lat="42.8824" lon="0.12002">
        <ele>1864</ele>
        <time>2021-03-25T15:15:23Z</time>
      </trkpt>
      <trkpt lat="42.88239" lon="0.12">
        <ele>1864</ele>
        <time>2021-03-25T15:15:25Z</time>
      </trkpt>
      <trkpt lat="42.88239" lon="0.11998">
        <ele>1863.3</ele>
        <time>2021-03-25T15:15:26Z</time>
      </trkpt>
      <trkpt lat="42.88238" lon="0.11993">
        <ele>1862.6</ele>
        <time>2021-03-25T15:15:27Z</time>
      </trkpt>
      <trkpt lat="42.88238" lon="0.1199">
        <ele>1862</ele>
        <time>2021-03-25T15:15:28Z</time>
      </trkpt>
      <trkpt lat="42.88237" lon="0.11988">
        <ele>1862</ele>
        <time>2021-03-25T15:15:30Z</time>
      </trkpt>
      <trkpt lat="42.88236" lon="0.11986">
        <ele>1861.4</ele>
        <time>2021-03-25T15:15:31Z</time>
      </trkpt>
      <trkpt lat="42.88236" lon="0.11984">
        <ele>1861.4</ele>
        <time>2021-03-25T15:15:32Z</time>
      </trkpt>
      <trkpt lat="42.88236" lon="0.11982">
        <ele>1861.4</ele>
        <time>2021-03-25T15:15:33Z</time>
      </trkpt>
      <trkpt lat="42.88235" lon="0.1198">
        <ele>1860.8</ele>
        <time>2021-03-25T15:15:34Z</time>
      </trkpt>
      <trkpt lat="42.88235" lon="0.11978">
        <ele>1860.8</ele>
        <time>2021-03-25T15:15:36Z</time>
      </trkpt>
      <trkpt lat="42.88235" lon="0.11976">
        <ele>1860.2</ele>
        <time>2021-03-25T15:15:37Z</time>
      </trkpt>
      <trkpt lat="42.88235" lon="0.11974">
        <ele>1860.2</ele>
        <time>2021-03-25T15:15:38Z</time>
      </trkpt>
      <trkpt lat="42.88235" lon="0.11973">
        <ele>1859.7</ele>
        <time>2021-03-25T15:15:39Z</time>
      </trkpt>
      <trkpt lat="42.88235" lon="0.11971">
        <ele>1859.7</ele>
        <time>2021-03-25T15:15:40Z</time>
      </trkpt>
      <trkpt lat="42.88234" lon="0.11967">
        <ele>1859.1</ele>
        <time>2021-03-25T15:15:42Z</time>
      </trkpt>
      <trkpt lat="42.88235" lon="0.11967">
        <ele>1859.1</ele>
        <time>2021-03-25T15:15:44Z</time>
      </trkpt>
      <trkpt lat="42.88235" lon="0.11967">
        <ele>1859.1</ele>
        <time>2021-03-25T15:15:45Z</time>
      </trkpt>
      <trkpt lat="42.88235" lon="0.11966">
        <ele>1859.1</ele>
        <time>2021-03-25T15:15:46Z</time>
      </trkpt>
      <trkpt lat="42.88235" lon="0.11966">
        <ele>1859.1</ele>
        <time>2021-03-25T15:15:48Z</time>
      </trkpt>
      <trkpt lat="42.88235" lon="0.11965">
        <ele>1859</ele>
        <time>2021-03-25T15:15:50Z</time>
      </trkpt>
      <trkpt lat="42.88235" lon="0.11965">
        <ele>1859</ele>
        <time>2021-03-25T15:15:51Z</time>
      </trkpt>
      <trkpt lat="42.88235" lon="0.11964">
        <ele>1858.4</ele>
        <time>2021-03-25T15:15:52Z</time>
      </trkpt>
      <trkpt lat="42.88235" lon="0.11964">
        <ele>1858.4</ele>
        <time>2021-03-25T15:15:53Z</time>
      </trkpt>
      <trkpt lat="42.88235" lon="0.11964">
        <ele>1858.4</ele>
        <time>2021-03-25T15:15:55Z</time>
      </trkpt>
      <trkpt lat="42.88236" lon="0.11963">
        <ele>1858.4</ele>
        <time>2021-03-25T15:15:56Z</time>
      </trkpt>
      <trkpt lat="42.88236" lon="0.11963">
        <ele>1858.4</ele>
        <time>2021-03-25T15:15:57Z</time>
      </trkpt>
      <trkpt lat="42.88236" lon="0.11962">
        <ele>1858.4</ele>
        <time>2021-03-25T15:15:58Z</time>
      </trkpt>
      <trkpt lat="42.88236" lon="0.11962">
        <ele>1858.4</ele>
        <time>2021-03-25T15:15:59Z</time>
      </trkpt>
      <trkpt lat="42.88236" lon="0.11961">
        <ele>1858.4</ele>
        <time>2021-03-25T15:16:00Z</time>
      </trkpt>
      <trkpt lat="42.88236" lon="0.11959">
        <ele>1857.8</ele>
        <time>2021-03-25T15:16:02Z</time>
      </trkpt>
      <trkpt lat="42.88235" lon="0.11957">
        <ele>1857.8</ele>
        <time>2021-03-25T15:16:03Z</time>
      </trkpt>
      <trkpt lat="42.88234" lon="0.11956">
        <ele>1857.3</ele>
        <time>2021-03-25T15:16:04Z</time>
      </trkpt>
      <trkpt lat="42.88233" lon="0.11954">
        <ele>1857.3</ele>
        <time>2021-03-25T15:16:05Z</time>
      </trkpt>
      <trkpt lat="42.88232" lon="0.11953">
        <ele>1857.3</ele>
        <time>2021-03-25T15:16:06Z</time>
      </trkpt>
      <trkpt lat="42.88231" lon="0.11951">
        <ele>1856.9</ele>
        <time>2021-03-25T15:16:08Z</time>
      </trkpt>
      <trkpt lat="42.8823" lon="0.1195">
        <ele>1856.9</ele>
        <time>2021-03-25T15:16:09Z</time>
      </trkpt>
      <trkpt lat="42.88229" lon="0.11948">
        <ele>1856.9</ele>
        <time>2021-03-25T15:16:10Z</time>
      </trkpt>
      <trkpt lat="42.88228" lon="0.11945">
        <ele>1856.6</ele>
        <time>2021-03-25T15:16:11Z</time>
      </trkpt>
      <trkpt lat="42.88227" lon="0.11944">
        <ele>1856.6</ele>
        <time>2021-03-25T15:16:12Z</time>
      </trkpt>
      <trkpt lat="42.88227" lon="0.11943">
        <ele>1856</ele>
        <time>2021-03-25T15:16:13Z</time>
      </trkpt>
      <trkpt lat="42.88226" lon="0.11942">
        <ele>1856</ele>
        <time>2021-03-25T15:16:14Z</time>
      </trkpt>
      <trkpt lat="42.88225" lon="0.1194">
        <ele>1856.3</ele>
        <time>2021-03-25T15:16:16Z</time>
      </trkpt>
      <trkpt lat="42.88224" lon="0.11938">
        <ele>1855.8</ele>
        <time>2021-03-25T15:16:17Z</time>
      </trkpt>
      <trkpt lat="42.88223" lon="0.11937">
        <ele>1855.8</ele>
        <time>2021-03-25T15:16:18Z</time>
      </trkpt>
      <trkpt lat="42.88221" lon="0.11935">
        <ele>1855.6</ele>
        <time>2021-03-25T15:16:20Z</time>
      </trkpt>
      <trkpt lat="42.8822" lon="0.11934">
        <ele>1855.6</ele>
        <time>2021-03-25T15:16:21Z</time>
      </trkpt>
      <trkpt lat="42.88219" lon="0.11933">
        <ele>1855.9</ele>
        <time>2021-03-25T15:16:22Z</time>
      </trkpt>
      <trkpt lat="42.88218" lon="0.11931">
        <ele>1855.9</ele>
        <time>2021-03-25T15:16:23Z</time>
      </trkpt>
      <trkpt lat="42.88217" lon="0.11928">
        <ele>1855.4</ele>
        <time>2021-03-25T15:16:25Z</time>
      </trkpt>
      <trkpt lat="42.88216" lon="0.11926">
        <ele>1854.8</ele>
        <time>2021-03-25T15:16:26Z</time>
      </trkpt>
      <trkpt lat="42.88216" lon="0.11924">
        <ele>1855.2</ele>
        <time>2021-03-25T15:16:27Z</time>
      </trkpt>
      <trkpt lat="42.88215" lon="0.11922">
        <ele>1854.6</ele>
        <time>2021-03-25T15:16:28Z</time>
      </trkpt>
      <trkpt lat="42.88215" lon="0.1192">
        <ele>1854.6</ele>
        <time>2021-03-25T15:16:29Z</time>
      </trkpt>
      <trkpt lat="42.88215" lon="0.11918">
        <ele>1854.6</ele>
        <time>2021-03-25T15:16:31Z</time>
      </trkpt>
      <trkpt lat="42.88214" lon="0.11917">
        <ele>1853.9</ele>
        <time>2021-03-25T15:16:32Z</time>
      </trkpt>
      <trkpt lat="42.88214" lon="0.11915">
        <ele>1853.9</ele>
        <time>2021-03-25T15:16:33Z</time>
      </trkpt>
      <trkpt lat="42.88213" lon="0.11914">
        <ele>1853.9</ele>
        <time>2021-03-25T15:16:34Z</time>
      </trkpt>
      <trkpt lat="42.88213" lon="0.11913">
        <ele>1853.2</ele>
        <time>2021-03-25T15:16:35Z</time>
      </trkpt>
      <trkpt lat="42.88213" lon="0.11911">
        <ele>1853.6</ele>
        <time>2021-03-25T15:16:37Z</time>
      </trkpt>
      <trkpt lat="42.88212" lon="0.11909">
        <ele>1853.6</ele>
        <time>2021-03-25T15:16:38Z</time>
      </trkpt>
      <trkpt lat="42.88212" lon="0.11908">
        <ele>1852.9</ele>
        <time>2021-03-25T15:16:39Z</time>
      </trkpt>
      <trkpt lat="42.88213" lon="0.11906">
        <ele>1852.9</ele>
        <time>2021-03-25T15:16:40Z</time>
      </trkpt>
      <trkpt lat="42.88213" lon="0.11904">
        <ele>1851.9</ele>
        <time>2021-03-25T15:16:42Z</time>
      </trkpt>
      <trkpt lat="42.88214" lon="0.11903">
        <ele>1851.6</ele>
        <time>2021-03-25T15:16:43Z</time>
      </trkpt>
      <trkpt lat="42.88214" lon="0.11902">
        <ele>1851.4</ele>
        <time>2021-03-25T15:16:44Z</time>
      </trkpt>
      <trkpt lat="42.88214" lon="0.11899">
        <ele>1851</ele>
        <time>2021-03-25T15:16:46Z</time>
      </trkpt>
      <trkpt lat="42.88214" lon="0.11898">
        <ele>1850.8</ele>
        <time>2021-03-25T15:16:48Z</time>
      </trkpt>
      <trkpt lat="42.88213" lon="0.11897">
        <ele>1850.5</ele>
        <time>2021-03-25T15:16:49Z</time>
      </trkpt>
      <trkpt lat="42.88212" lon="0.11897">
        <ele>1850.3</ele>
        <time>2021-03-25T15:16:50Z</time>
      </trkpt>
      <trkpt lat="42.88211" lon="0.11896">
        <ele>1850.1</ele>
        <time>2021-03-25T15:16:51Z</time>
      </trkpt>
      <trkpt lat="42.88211" lon="0.11895">
        <ele>1849.8</ele>
        <time>2021-03-25T15:16:53Z</time>
      </trkpt>
      <trkpt lat="42.8821" lon="0.11894">
        <ele>1849.6</ele>
        <time>2021-03-25T15:16:54Z</time>
      </trkpt>
      <trkpt lat="42.8821" lon="0.11894">
        <ele>1849.5</ele>
        <time>2021-03-25T15:16:55Z</time>
      </trkpt>
      <trkpt lat="42.8821" lon="0.11893">
        <ele>1849.5</ele>
        <time>2021-03-25T15:16:56Z</time>
      </trkpt>
      <trkpt lat="42.88209" lon="0.11893">
        <ele>1849.3</ele>
        <time>2021-03-25T15:16:57Z</time>
      </trkpt>
      <trkpt lat="42.8821" lon="0.11891">
        <ele>1849</ele>
        <time>2021-03-25T15:16:59Z</time>
      </trkpt>
      <trkpt lat="42.88211" lon="0.1189">
        <ele>1848.7</ele>
        <time>2021-03-25T15:17:01Z</time>
      </trkpt>
      <trkpt lat="42.88212" lon="0.1189">
        <ele>1848.6</ele>
        <time>2021-03-25T15:17:02Z</time>
      </trkpt>
      <trkpt lat="42.88212" lon="0.1189">
        <ele>1848.3</ele>
        <time>2021-03-25T15:17:04Z</time>
      </trkpt>
      <trkpt lat="42.88213" lon="0.11891">
        <ele>1848.1</ele>
        <time>2021-03-25T15:17:06Z</time>
      </trkpt>
      <trkpt lat="42.88214" lon="0.11891">
        <ele>1848</ele>
        <time>2021-03-25T15:17:08Z</time>
      </trkpt>
      <trkpt lat="42.88214" lon="0.11891">
        <ele>1848</ele>
        <time>2021-03-25T15:17:09Z</time>
      </trkpt>
      <trkpt lat="42.88214" lon="0.11892">
        <ele>1847.9</ele>
        <time>2021-03-25T15:17:11Z</time>
      </trkpt>
      <trkpt lat="42.88215" lon="0.11892">
        <ele>1847.8</ele>
        <time>2021-03-25T15:17:12Z</time>
      </trkpt>
      <trkpt lat="42.88215" lon="0.11892">
        <ele>1847.7</ele>
        <time>2021-03-25T15:17:14Z</time>
      </trkpt>
      <trkpt lat="42.88215" lon="0.11892">
        <ele>1847.7</ele>
        <time>2021-03-25T15:17:15Z</time>
      </trkpt>
      <trkpt lat="42.88215" lon="0.11892">
        <ele>1847.6</ele>
        <time>2021-03-25T15:17:16Z</time>
      </trkpt>
      <trkpt lat="42.88215" lon="0.11892">
        <ele>1847.6</ele>
        <time>2021-03-25T15:17:17Z</time>
      </trkpt>
      <trkpt lat="42.88216" lon="0.11892">
        <ele>1847.5</ele>
        <time>2021-03-25T15:17:19Z</time>
      </trkpt>
      <trkpt lat="42.88216" lon="0.11892">
        <ele>1847.5</ele>
        <time>2021-03-25T15:17:21Z</time>
      </trkpt>
      <trkpt lat="42.88216" lon="0.11892">
        <ele>1847.4</ele>
        <time>2021-03-25T15:17:22Z</time>
      </trkpt>
      <trkpt lat="42.88216" lon="0.11892">
        <ele>1847.4</ele>
        <time>2021-03-25T15:17:23Z</time>
      </trkpt>
      <trkpt lat="42.88216" lon="0.11892">
        <ele>1847.4</ele>
        <time>2021-03-25T15:17:25Z</time>
      </trkpt>
      <trkpt lat="42.88216" lon="0.11891">
        <ele>1847.4</ele>
        <time>2021-03-25T15:17:27Z</time>
      </trkpt>
      <trkpt lat="42.88216" lon="0.11891">
        <ele>1847.3</ele>
        <time>2021-03-25T15:17:28Z</time>
      </trkpt>
      <trkpt lat="42.88216" lon="0.11891">
        <ele>1847.3</ele>
        <time>2021-03-25T15:17:30Z</time>
      </trkpt>
      <trkpt lat="42.88216" lon="0.11891">
        <ele>1847.3</ele>
        <time>2021-03-25T15:17:31Z</time>
      </trkpt>
      <trkpt lat="42.88216" lon="0.11891">
        <ele>1847.2</ele>
        <time>2021-03-25T15:17:33Z</time>
      </trkpt>
      <trkpt lat="42.88217" lon="0.11891">
        <ele>1847.1</ele>
        <time>2021-03-25T15:17:35Z</time>
      </trkpt>
      <trkpt lat="42.88217" lon="0.11891">
        <ele>1847.1</ele>
        <time>2021-03-25T15:17:36Z</time>
      </trkpt>
      <trkpt lat="42.88217" lon="0.11891">
        <ele>1847.1</ele>
        <time>2021-03-25T15:17:37Z</time>
      </trkpt>
      <trkpt lat="42.88217" lon="0.11891">
        <ele>1847.1</ele>
        <time>2021-03-25T15:17:38Z</time>
      </trkpt>
      <trkpt lat="42.88217" lon="0.1189">
        <ele>1847.1</ele>
        <time>2021-03-25T15:17:40Z</time>
      </trkpt>
      <trkpt lat="42.88217" lon="0.1189">
        <ele>1847.1</ele>
        <time>2021-03-25T15:17:42Z</time>
      </trkpt>
      <trkpt lat="42.88217" lon="0.1189">
        <ele>1847</ele>
        <time>2021-03-25T15:17:43Z</time>
      </trkpt>
      <trkpt lat="42.88217" lon="0.1189">
        <ele>1847</ele>
        <time>2021-03-25T15:17:45Z</time>
      </trkpt>
      <trkpt lat="42.88217" lon="0.1189">
        <ele>1847</ele>
        <time>2021-03-25T15:17:46Z</time>
      </trkpt>
      <trkpt lat="42.88217" lon="0.1189">
        <ele>1847</ele>
        <time>2021-03-25T15:17:48Z</time>
      </trkpt>
      <trkpt lat="42.88217" lon="0.1189">
        <ele>1847</ele>
        <time>2021-03-25T15:17:49Z</time>
      </trkpt>
      <trkpt lat="42.88217" lon="0.1189">
        <ele>1847</ele>
        <time>2021-03-25T15:17:51Z</time>
      </trkpt>
      <trkpt lat="42.88217" lon="0.1189">
        <ele>1846.9</ele>
        <time>2021-03-25T15:17:53Z</time>
      </trkpt>
      <trkpt lat="42.88216" lon="0.1189">
        <ele>1846.9</ele>
        <time>2021-03-25T15:17:54Z</time>
      </trkpt>
      <trkpt lat="42.88216" lon="0.1189">
        <ele>1846.9</ele>
        <time>2021-03-25T15:17:55Z</time>
      </trkpt>
      <trkpt lat="42.88216" lon="0.1189">
        <ele>1846.9</ele>
        <time>2021-03-25T15:17:57Z</time>
      </trkpt>
      <trkpt lat="42.88216" lon="0.1189">
        <ele>1846.8</ele>
        <time>2021-03-25T15:17:59Z</time>
      </trkpt>
      <trkpt lat="42.88216" lon="0.1189">
        <ele>1846.8</ele>
        <time>2021-03-25T15:18:00Z</time>
      </trkpt>
      <trkpt lat="42.88216" lon="0.1189">
        <ele>1846.8</ele>
        <time>2021-03-25T15:18:01Z</time>
      </trkpt>
      <trkpt lat="42.88216" lon="0.1189">
        <ele>1846.8</ele>
        <time>2021-03-25T15:18:03Z</time>
      </trkpt>
      <trkpt lat="42.88216" lon="0.1189">
        <ele>1846.8</ele>
        <time>2021-03-25T15:18:05Z</time>
      </trkpt>
      <trkpt lat="42.88216" lon="0.1189">
        <ele>1846.8</ele>
        <time>2021-03-25T15:18:07Z</time>
      </trkpt>
      <trkpt lat="42.88216" lon="0.1189">
        <ele>1846.8</ele>
        <time>2021-03-25T15:18:09Z</time>
      </trkpt>
      <trkpt lat="42.88216" lon="0.1189">
        <ele>1846.8</ele>
        <time>2021-03-25T15:18:10Z</time>
      </trkpt>
      <trkpt lat="42.88216" lon="0.1189">
        <ele>1846.8</ele>
        <time>2021-03-25T15:18:12Z</time>
      </trkpt>
      <trkpt lat="42.88216" lon="0.1189">
        <ele>1846.7</ele>
        <time>2021-03-25T15:18:13Z</time>
      </trkpt>
      <trkpt lat="42.88216" lon="0.1189">
        <ele>1846.7</ele>
        <time>2021-03-25T15:18:15Z</time>
      </trkpt>
      <trkpt lat="42.88216" lon="0.1189">
        <ele>1846.7</ele>
        <time>2021-03-25T15:18:16Z</time>
      </trkpt>
      <trkpt lat="42.88216" lon="0.1189">
        <ele>1846.7</ele>
        <time>2021-03-25T15:18:18Z</time>
      </trkpt>
      <trkpt lat="42.88216" lon="0.1189">
        <ele>1846.7</ele>
        <time>2021-03-25T15:18:19Z</time>
      </trkpt>
      <trkpt lat="42.88216" lon="0.1189">
        <ele>1846.6</ele>
        <time>2021-03-25T15:18:21Z</time>
      </trkpt>
      <trkpt lat="42.88217" lon="0.1189">
        <ele>1846.6</ele>
        <time>2021-03-25T15:18:22Z</time>
      </trkpt>
      <trkpt lat="42.88217" lon="0.1189">
        <ele>1846.5</ele>
        <time>2021-03-25T15:18:23Z</time>
      </trkpt>
      <trkpt lat="42.88217" lon="0.11889">
        <ele>1846.5</ele>
        <time>2021-03-25T15:18:24Z</time>
      </trkpt>
      <trkpt lat="42.88217" lon="0.11889">
        <ele>1846.4</ele>
        <time>2021-03-25T15:18:25Z</time>
      </trkpt>
      <trkpt lat="42.88218" lon="0.11889">
        <ele>1846.3</ele>
        <time>2021-03-25T15:18:27Z</time>
      </trkpt>
      <trkpt lat="42.88218" lon="0.11889">
        <ele>1846.2</ele>
        <time>2021-03-25T15:18:29Z</time>
      </trkpt>
      <trkpt lat="42.88218" lon="0.11889">
        <ele>1846.2</ele>
        <time>2021-03-25T15:18:31Z</time>
      </trkpt>
      <trkpt lat="42.88218" lon="0.11889">
        <ele>1846.2</ele>
        <time>2021-03-25T15:18:32Z</time>
      </trkpt>
      <trkpt lat="42.88218" lon="0.11889">
        <ele>1846.2</ele>
        <time>2021-03-25T15:18:33Z</time>
      </trkpt>
      <trkpt lat="42.88218" lon="0.11889">
        <ele>1846.2</ele>
        <time>2021-03-25T15:18:35Z</time>
      </trkpt>
      <trkpt lat="42.88218" lon="0.11889">
        <ele>1846.1</ele>
        <time>2021-03-25T15:18:36Z</time>
      </trkpt>
      <trkpt lat="42.88218" lon="0.11888">
        <ele>1845.9</ele>
        <time>2021-03-25T15:18:37Z</time>
      </trkpt>
      <trkpt lat="42.88217" lon="0.1188">
        <ele>1844.5</ele>
        <time>2021-03-25T15:18:39Z</time>
      </trkpt>
      <trkpt lat="42.88216" lon="0.11875">
        <ele>1843.5</ele>
        <time>2021-03-25T15:18:41Z</time>
      </trkpt>
      <trkpt lat="42.88216" lon="0.11871">
        <ele>1842.8</ele>
        <time>2021-03-25T15:18:42Z</time>
      </trkpt>
      <trkpt lat="42.88215" lon="0.11868">
        <ele>1842.3</ele>
        <time>2021-03-25T15:18:43Z</time>
      </trkpt>
      <trkpt lat="42.88215" lon="0.11866">
        <ele>1842</ele>
        <time>2021-03-25T15:18:45Z</time>
      </trkpt>
      <trkpt lat="42.88215" lon="0.11862">
        <ele>1841.3</ele>
        <time>2021-03-25T15:18:46Z</time>
      </trkpt>
      <trkpt lat="42.88215" lon="0.11861">
        <ele>1841.1</ele>
        <time>2021-03-25T15:18:47Z</time>
      </trkpt>
      <trkpt lat="42.88214" lon="0.11855">
        <ele>1840</ele>
        <time>2021-03-25T15:18:49Z</time>
      </trkpt>
      <trkpt lat="42.88214" lon="0.1185">
        <ele>1839.3</ele>
        <time>2021-03-25T15:18:50Z</time>
      </trkpt>
      <trkpt lat="42.88214" lon="0.11845">
        <ele>1838.5</ele>
        <time>2021-03-25T15:18:52Z</time>
      </trkpt>
      <trkpt lat="42.88214" lon="0.11841">
        <ele>1837.9</ele>
        <time>2021-03-25T15:18:53Z</time>
      </trkpt>
      <trkpt lat="42.88213" lon="0.11837">
        <ele>1837.2</ele>
        <time>2021-03-25T15:18:54Z</time>
      </trkpt>
      <trkpt lat="42.88213" lon="0.11834">
        <ele>1836.7</ele>
        <time>2021-03-25T15:18:55Z</time>
      </trkpt>
      <trkpt lat="42.88214" lon="0.11826">
        <ele>1835.5</ele>
        <time>2021-03-25T15:18:57Z</time>
      </trkpt>
      <trkpt lat="42.88217" lon="0.11815">
        <ele>1833.5</ele>
        <time>2021-03-25T15:18:58Z</time>
      </trkpt>
      <trkpt lat="42.88216" lon="0.11804">
        <ele>1831.5</ele>
        <time>2021-03-25T15:19:00Z</time>
      </trkpt>
      <trkpt lat="42.88214" lon="0.118">
        <ele>1830.6</ele>
        <time>2021-03-25T15:19:01Z</time>
      </trkpt>
      <trkpt lat="42.88214" lon="0.11793">
        <ele>1829.4</ele>
        <time>2021-03-25T15:19:03Z</time>
      </trkpt>
      <trkpt lat="42.88214" lon="0.11789">
        <ele>1828.7</ele>
        <time>2021-03-25T15:19:05Z</time>
      </trkpt>
      <trkpt lat="42.88214" lon="0.11786">
        <ele>1828.2</ele>
        <time>2021-03-25T15:19:06Z</time>
      </trkpt>
      <trkpt lat="42.88215" lon="0.11785">
        <ele>1828</ele>
        <time>2021-03-25T15:19:07Z</time>
      </trkpt>
      <trkpt lat="42.88216" lon="0.11786">
        <ele>1827.7</ele>
        <time>2021-03-25T15:19:08Z</time>
      </trkpt>
      <trkpt lat="42.8822" lon="0.11786">
        <ele>1827</ele>
        <time>2021-03-25T15:19:10Z</time>
      </trkpt>
      <trkpt lat="42.88221" lon="0.11781">
        <ele>1826.3</ele>
        <time>2021-03-25T15:19:12Z</time>
      </trkpt>
      <trkpt lat="42.88221" lon="0.1178">
        <ele>1826.1</ele>
        <time>2021-03-25T15:19:13Z</time>
      </trkpt>
      <trkpt lat="42.88223" lon="0.11776">
        <ele>1825.4</ele>
        <time>2021-03-25T15:19:15Z</time>
      </trkpt>
      <trkpt lat="42.88223" lon="0.11774">
        <ele>1825.2</ele>
        <time>2021-03-25T15:19:16Z</time>
      </trkpt>
      <trkpt lat="42.88223" lon="0.11771">
        <ele>1824.7</ele>
        <time>2021-03-25T15:19:17Z</time>
      </trkpt>
      <trkpt lat="42.88223" lon="0.11767">
        <ele>1824.2</ele>
        <time>2021-03-25T15:19:19Z</time>
      </trkpt>
      <trkpt lat="42.88223" lon="0.11763">
        <ele>1823.7</ele>
        <time>2021-03-25T15:19:20Z</time>
      </trkpt>
      <trkpt lat="42.88223" lon="0.11758">
        <ele>1823</ele>
        <time>2021-03-25T15:19:21Z</time>
      </trkpt>
      <trkpt lat="42.88223" lon="0.11752">
        <ele>1822.3</ele>
        <time>2021-03-25T15:19:22Z</time>
      </trkpt>
      <trkpt lat="42.88224" lon="0.11746">
        <ele>1821.4</ele>
        <time>2021-03-25T15:19:24Z</time>
      </trkpt>
      <trkpt lat="42.88226" lon="0.11741">
        <ele>1820.6</ele>
        <time>2021-03-25T15:19:25Z</time>
      </trkpt>
      <trkpt lat="42.88227" lon="0.11737">
        <ele>1819.9</ele>
        <time>2021-03-25T15:19:26Z</time>
      </trkpt>
      <trkpt lat="42.88228" lon="0.11735">
        <ele>1819.6</ele>
        <time>2021-03-25T15:19:27Z</time>
      </trkpt>
      <trkpt lat="42.88229" lon="0.11732">
        <ele>1819.1</ele>
        <time>2021-03-25T15:19:29Z</time>
      </trkpt>
      <trkpt lat="42.88231" lon="0.11729">
        <ele>1818.5</ele>
        <time>2021-03-25T15:19:30Z</time>
      </trkpt>
      <trkpt lat="42.88233" lon="0.11723">
        <ele>1817.6</ele>
        <time>2021-03-25T15:19:32Z</time>
      </trkpt>
      <trkpt lat="42.88234" lon="0.11718">
        <ele>1816.8</ele>
        <time>2021-03-25T15:19:33Z</time>
      </trkpt>
      <trkpt lat="42.88234" lon="0.11713">
        <ele>1816</ele>
        <time>2021-03-25T15:19:34Z</time>
      </trkpt>
      <trkpt lat="42.88234" lon="0.1171">
        <ele>1815.6</ele>
        <time>2021-03-25T15:19:35Z</time>
      </trkpt>
      <trkpt lat="42.88234" lon="0.11708">
        <ele>1815.3</ele>
        <time>2021-03-25T15:19:36Z</time>
      </trkpt>
      <trkpt lat="42.88234" lon="0.11707">
        <ele>1815.1</ele>
        <time>2021-03-25T15:19:37Z</time>
      </trkpt>
      <trkpt lat="42.88235" lon="0.11704">
        <ele>1814.7</ele>
        <time>2021-03-25T15:19:38Z</time>
      </trkpt>
      <trkpt lat="42.88236" lon="0.11697">
        <ele>1813.6</ele>
        <time>2021-03-25T15:19:40Z</time>
      </trkpt>
      <trkpt lat="42.88237" lon="0.11693">
        <ele>1812.9</ele>
        <time>2021-03-25T15:19:41Z</time>
      </trkpt>
      <trkpt lat="42.88238" lon="0.11687">
        <ele>1812</ele>
        <time>2021-03-25T15:19:42Z</time>
      </trkpt>
      <trkpt lat="42.8824" lon="0.11683">
        <ele>1811</ele>
        <time>2021-03-25T15:19:43Z</time>
      </trkpt>
      <trkpt lat="42.88243" lon="0.11675">
        <ele>1809.4</ele>
        <time>2021-03-25T15:19:45Z</time>
      </trkpt>
      <trkpt lat="42.88245" lon="0.11671">
        <ele>1808.5</ele>
        <time>2021-03-25T15:19:46Z</time>
      </trkpt>
      <trkpt lat="42.88246" lon="0.11667">
        <ele>1807.5</ele>
        <time>2021-03-25T15:19:47Z</time>
      </trkpt>
      <trkpt lat="42.88247" lon="0.11662">
        <ele>1806.5</ele>
        <time>2021-03-25T15:19:49Z</time>
      </trkpt>
      <trkpt lat="42.88248" lon="0.11658">
        <ele>1805.8</ele>
        <time>2021-03-25T15:19:50Z</time>
      </trkpt>
      <trkpt lat="42.88249" lon="0.11657">
        <ele>1805.5</ele>
        <time>2021-03-25T15:19:51Z</time>
      </trkpt>
      <trkpt lat="42.8825" lon="0.11652">
        <ele>1804.6</ele>
        <time>2021-03-25T15:19:52Z</time>
      </trkpt>
      <trkpt lat="42.8825" lon="0.11651">
        <ele>1804.4</ele>
        <time>2021-03-25T15:19:53Z</time>
      </trkpt>
      <trkpt lat="42.88252" lon="0.11644">
        <ele>1803.1</ele>
        <time>2021-03-25T15:19:55Z</time>
      </trkpt>
      <trkpt lat="42.88253" lon="0.11641">
        <ele>1802.6</ele>
        <time>2021-03-25T15:19:56Z</time>
      </trkpt>
      <trkpt lat="42.88254" lon="0.11638">
        <ele>1802.1</ele>
        <time>2021-03-25T15:19:57Z</time>
      </trkpt>
      <trkpt lat="42.88255" lon="0.11632">
        <ele>1801.2</ele>
        <time>2021-03-25T15:19:59Z</time>
      </trkpt>
      <trkpt lat="42.88255" lon="0.11626">
        <ele>1800.5</ele>
        <time>2021-03-25T15:20:00Z</time>
      </trkpt>
      <trkpt lat="42.88255" lon="0.11624">
        <ele>1800.1</ele>
        <time>2021-03-25T15:20:01Z</time>
      </trkpt>
      <trkpt lat="42.88254" lon="0.11623">
        <ele>1800</ele>
        <time>2021-03-25T15:20:02Z</time>
      </trkpt>
      <trkpt lat="42.88254" lon="0.11621">
        <ele>1799.6</ele>
        <time>2021-03-25T15:20:04Z</time>
      </trkpt>
      <trkpt lat="42.88253" lon="0.11617">
        <ele>1799.1</ele>
        <time>2021-03-25T15:20:05Z</time>
      </trkpt>
      <trkpt lat="42.88253" lon="0.11613">
        <ele>1798.6</ele>
        <time>2021-03-25T15:20:06Z</time>
      </trkpt>
      <trkpt lat="42.8825" lon="0.11607">
        <ele>1797.7</ele>
        <time>2021-03-25T15:20:08Z</time>
      </trkpt>
      <trkpt lat="42.88249" lon="0.11603">
        <ele>1797.1</ele>
        <time>2021-03-25T15:20:09Z</time>
      </trkpt>
      <trkpt lat="42.88248" lon="0.11603">
        <ele>1797</ele>
        <time>2021-03-25T15:20:10Z</time>
      </trkpt>
      <trkpt lat="42.88246" lon="0.11599">
        <ele>1796.4</ele>
        <time>2021-03-25T15:20:12Z</time>
      </trkpt>
      <trkpt lat="42.88245" lon="0.11597">
        <ele>1796.1</ele>
        <time>2021-03-25T15:20:13Z</time>
      </trkpt>
      <trkpt lat="42.88245" lon="0.11594">
        <ele>1795.8</ele>
        <time>2021-03-25T15:20:14Z</time>
      </trkpt>
      <trkpt lat="42.88246" lon="0.1159">
        <ele>1795.4</ele>
        <time>2021-03-25T15:20:16Z</time>
      </trkpt>
      <trkpt lat="42.88246" lon="0.11589">
        <ele>1795.2</ele>
        <time>2021-03-25T15:20:18Z</time>
      </trkpt>
      <trkpt lat="42.88247" lon="0.11588">
        <ele>1795.1</ele>
        <time>2021-03-25T15:20:20Z</time>
      </trkpt>
      <trkpt lat="42.88247" lon="0.11588">
        <ele>1795</ele>
        <time>2021-03-25T15:20:21Z</time>
      </trkpt>
      <trkpt lat="42.88247" lon="0.11588">
        <ele>1795</ele>
        <time>2021-03-25T15:20:22Z</time>
      </trkpt>
      <trkpt lat="42.88247" lon="0.11588">
        <ele>1795</ele>
        <time>2021-03-25T15:20:24Z</time>
      </trkpt>
      <trkpt lat="42.88247" lon="0.11588">
        <ele>1795</ele>
        <time>2021-03-25T15:20:25Z</time>
      </trkpt>
      <trkpt lat="42.88248" lon="0.11588">
        <ele>1795</ele>
        <time>2021-03-25T15:20:26Z</time>
      </trkpt>
      <trkpt lat="42.88248" lon="0.11587">
        <ele>1794.9</ele>
        <time>2021-03-25T15:20:27Z</time>
      </trkpt>
      <trkpt lat="42.88249" lon="0.11582">
        <ele>1794.4</ele>
        <time>2021-03-25T15:20:29Z</time>
      </trkpt>
      <trkpt lat="42.88249" lon="0.11581">
        <ele>1794.3</ele>
        <time>2021-03-25T15:20:31Z</time>
      </trkpt>
      <trkpt lat="42.88249" lon="0.1158">
        <ele>1794.2</ele>
        <time>2021-03-25T15:20:32Z</time>
      </trkpt>
      <trkpt lat="42.88249" lon="0.11579">
        <ele>1794.2</ele>
        <time>2021-03-25T15:20:34Z</time>
      </trkpt>
      <trkpt lat="42.88249" lon="0.11579">
        <ele>1794.1</ele>
        <time>2021-03-25T15:20:35Z</time>
      </trkpt>
      <trkpt lat="42.88249" lon="0.11579">
        <ele>1794.1</ele>
        <time>2021-03-25T15:20:36Z</time>
      </trkpt>
      <trkpt lat="42.88248" lon="0.11578">
        <ele>1794.1</ele>
        <time>2021-03-25T15:20:38Z</time>
      </trkpt>
      <trkpt lat="42.88248" lon="0.11578">
        <ele>1794.1</ele>
        <time>2021-03-25T15:20:39Z</time>
      </trkpt>
      <trkpt lat="42.88248" lon="0.11578">
        <ele>1794.1</ele>
        <time>2021-03-25T15:20:40Z</time>
      </trkpt>
      <trkpt lat="42.88248" lon="0.11578">
        <ele>1794</ele>
        <time>2021-03-25T15:20:42Z</time>
      </trkpt>
      <trkpt lat="42.88248" lon="0.11577">
        <ele>1794</ele>
        <time>2021-03-25T15:20:43Z</time>
      </trkpt>
      <trkpt lat="42.88248" lon="0.11577">
        <ele>1794</ele>
        <time>2021-03-25T15:20:45Z</time>
      </trkpt>
      <trkpt lat="42.88247" lon="0.11577">
        <ele>1793.9</ele>
        <time>2021-03-25T15:20:46Z</time>
      </trkpt>
      <trkpt lat="42.88245" lon="0.11576">
        <ele>1793.8</ele>
        <time>2021-03-25T15:20:48Z</time>
      </trkpt>
      <trkpt lat="42.88243" lon="0.1157">
        <ele>1793.5</ele>
        <time>2021-03-25T15:20:49Z</time>
      </trkpt>
      <trkpt lat="42.88242" lon="0.11567">
        <ele>1793.3</ele>
        <time>2021-03-25T15:20:50Z</time>
      </trkpt>
      <trkpt lat="42.8824" lon="0.11562">
        <ele>1793.1</ele>
        <time>2021-03-25T15:20:52Z</time>
      </trkpt>
      <trkpt lat="42.88239" lon="0.11558">
        <ele>1793</ele>
        <time>2021-03-25T15:20:53Z</time>
      </trkpt>
      <trkpt lat="42.88239" lon="0.11556">
        <ele>1792.9</ele>
        <time>2021-03-25T15:20:54Z</time>
      </trkpt>
      <trkpt lat="42.88239" lon="0.11553">
        <ele>1792.8</ele>
        <time>2021-03-25T15:20:55Z</time>
      </trkpt>
      <trkpt lat="42.88239" lon="0.11548">
        <ele>1792.6</ele>
        <time>2021-03-25T15:20:57Z</time>
      </trkpt>
      <trkpt lat="42.8824" lon="0.11544">
        <ele>1792.4</ele>
        <time>2021-03-25T15:20:58Z</time>
      </trkpt>
      <trkpt lat="42.88241" lon="0.11539">
        <ele>1792.1</ele>
        <time>2021-03-25T15:20:59Z</time>
      </trkpt>
      <trkpt lat="42.88242" lon="0.11532">
        <ele>1791.6</ele>
        <time>2021-03-25T15:21:01Z</time>
      </trkpt>
      <trkpt lat="42.88243" lon="0.1153">
        <ele>1791.3</ele>
        <time>2021-03-25T15:21:02Z</time>
      </trkpt>
      <trkpt lat="42.88243" lon="0.11527">
        <ele>1791.2</ele>
        <time>2021-03-25T15:21:04Z</time>
      </trkpt>
      <trkpt lat="42.88244" lon="0.11527">
        <ele>1791.1</ele>
        <time>2021-03-25T15:21:05Z</time>
      </trkpt>
      <trkpt lat="42.88244" lon="0.11526">
        <ele>1790.9</ele>
        <time>2021-03-25T15:21:06Z</time>
      </trkpt>
      <trkpt lat="42.88246" lon="0.11527">
        <ele>1790.7</ele>
        <time>2021-03-25T15:21:07Z</time>
      </trkpt>
      <trkpt lat="42.88247" lon="0.11526">
        <ele>1790.5</ele>
        <time>2021-03-25T15:21:09Z</time>
      </trkpt>
      <trkpt lat="42.88247" lon="0.11524">
        <ele>1790.3</ele>
        <time>2021-03-25T15:21:10Z</time>
      </trkpt>
      <trkpt lat="42.88247" lon="0.11522">
        <ele>1790.1</ele>
        <time>2021-03-25T15:21:11Z</time>
      </trkpt>
      <trkpt lat="42.88246" lon="0.1152">
        <ele>1789.8</ele>
        <time>2021-03-25T15:21:12Z</time>
      </trkpt>
      <trkpt lat="42.88246" lon="0.11517">
        <ele>1789.5</ele>
        <time>2021-03-25T15:21:14Z</time>
      </trkpt>
      <trkpt lat="42.88246" lon="0.11516">
        <ele>1789.3</ele>
        <time>2021-03-25T15:21:15Z</time>
      </trkpt>
      <trkpt lat="42.88246" lon="0.11514">
        <ele>1789.1</ele>
        <time>2021-03-25T15:21:17Z</time>
      </trkpt>
      <trkpt lat="42.88245" lon="0.11513">
        <ele>1788.9</ele>
        <time>2021-03-25T15:21:18Z</time>
      </trkpt>
      <trkpt lat="42.88245" lon="0.11512">
        <ele>1788.7</ele>
        <time>2021-03-25T15:21:19Z</time>
      </trkpt>
      <trkpt lat="42.88245" lon="0.11511">
        <ele>1788.6</ele>
        <time>2021-03-25T15:21:20Z</time>
      </trkpt>
      <trkpt lat="42.88245" lon="0.11511">
        <ele>1788.6</ele>
        <time>2021-03-25T15:21:21Z</time>
      </trkpt>
      <trkpt lat="42.88245" lon="0.11511">
        <ele>1788.6</ele>
        <time>2021-03-25T15:21:23Z</time>
      </trkpt>
      <trkpt lat="42.88245" lon="0.11511">
        <ele>1788.5</ele>
        <time>2021-03-25T15:21:24Z</time>
      </trkpt>
      <trkpt lat="42.88245" lon="0.11511">
        <ele>1788.5</ele>
        <time>2021-03-25T15:21:25Z</time>
      </trkpt>
      <trkpt lat="42.88246" lon="0.11511">
        <ele>1788.4</ele>
        <time>2021-03-25T15:21:27Z</time>
      </trkpt>
      <trkpt lat="42.88246" lon="0.11512">
        <ele>1788.3</ele>
        <time>2021-03-25T15:21:28Z</time>
      </trkpt>
      <trkpt lat="42.88246" lon="0.11512">
        <ele>1788.2</ele>
        <time>2021-03-25T15:21:29Z</time>
      </trkpt>
      <trkpt lat="42.88246" lon="0.11513">
        <ele>1788.1</ele>
        <time>2021-03-25T15:21:31Z</time>
      </trkpt>
      <trkpt lat="42.88247" lon="0.11513">
        <ele>1788</ele>
        <time>2021-03-25T15:21:32Z</time>
      </trkpt>
      <trkpt lat="42.88247" lon="0.11513">
        <ele>1787.9</ele>
        <time>2021-03-25T15:21:33Z</time>
      </trkpt>
      <trkpt lat="42.88247" lon="0.11513">
        <ele>1787.9</ele>
        <time>2021-03-25T15:21:35Z</time>
      </trkpt>
      <trkpt lat="42.88248" lon="0.11513">
        <ele>1787.8</ele>
        <time>2021-03-25T15:21:36Z</time>
      </trkpt>
      <trkpt lat="42.88248" lon="0.11513">
        <ele>1787.7</ele>
        <time>2021-03-25T15:21:38Z</time>
      </trkpt>
      <trkpt lat="42.88248" lon="0.11512">
        <ele>1787.6</ele>
        <time>2021-03-25T15:21:39Z</time>
      </trkpt>
      <trkpt lat="42.88248" lon="0.11512">
        <ele>1787.5</ele>
        <time>2021-03-25T15:21:41Z</time>
      </trkpt>
      <trkpt lat="42.88249" lon="0.1151">
        <ele>1787.2</ele>
        <time>2021-03-25T15:21:42Z</time>
      </trkpt>
      <trkpt lat="42.8825" lon="0.11509">
        <ele>1787</ele>
        <time>2021-03-25T15:21:43Z</time>
      </trkpt>
      <trkpt lat="42.8825" lon="0.11505">
        <ele>1786.3</ele>
        <time>2021-03-25T15:21:45Z</time>
      </trkpt>
      <trkpt lat="42.88251" lon="0.11503">
        <ele>1786</ele>
        <time>2021-03-25T15:21:46Z</time>
      </trkpt>
      <trkpt lat="42.88251" lon="0.11501">
        <ele>1785.7</ele>
        <time>2021-03-25T15:21:47Z</time>
      </trkpt>
      <trkpt lat="42.88253" lon="0.11493">
        <ele>1784.5</ele>
        <time>2021-03-25T15:21:49Z</time>
      </trkpt>
      <trkpt lat="42.88253" lon="0.11489">
        <ele>1783.9</ele>
        <time>2021-03-25T15:21:50Z</time>
      </trkpt>
      <trkpt lat="42.88256" lon="0.1148">
        <ele>1782.5</ele>
        <time>2021-03-25T15:21:52Z</time>
      </trkpt>
      <trkpt lat="42.88257" lon="0.11477">
        <ele>1782</ele>
        <time>2021-03-25T15:21:53Z</time>
      </trkpt>
      <trkpt lat="42.88258" lon="0.11473">
        <ele>1781.4</ele>
        <time>2021-03-25T15:21:55Z</time>
      </trkpt>
      <trkpt lat="42.8826" lon="0.11468">
        <ele>1780.7</ele>
        <time>2021-03-25T15:21:56Z</time>
      </trkpt>
      <trkpt lat="42.88261" lon="0.11464">
        <ele>1780</ele>
        <time>2021-03-25T15:21:57Z</time>
      </trkpt>
      <trkpt lat="42.88262" lon="0.11461">
        <ele>1779.6</ele>
        <time>2021-03-25T15:21:58Z</time>
      </trkpt>
      <trkpt lat="42.88263" lon="0.11457">
        <ele>1779.1</ele>
        <time>2021-03-25T15:22:00Z</time>
      </trkpt>
      <trkpt lat="42.88264" lon="0.11455">
        <ele>1778.8</ele>
        <time>2021-03-25T15:22:01Z</time>
      </trkpt>
      <trkpt lat="42.88265" lon="0.11453">
        <ele>1778.5</ele>
        <time>2021-03-25T15:22:02Z</time>
      </trkpt>
      <trkpt lat="42.88266" lon="0.1145">
        <ele>1777.9</ele>
        <time>2021-03-25T15:22:03Z</time>
      </trkpt>
      <trkpt lat="42.88266" lon="0.11448">
        <ele>1777.7</ele>
        <time>2021-03-25T15:22:05Z</time>
      </trkpt>
      <trkpt lat="42.88266" lon="0.11446">
        <ele>1777.5</ele>
        <time>2021-03-25T15:22:06Z</time>
      </trkpt>
      <trkpt lat="42.88265" lon="0.11441">
        <ele>1776.7</ele>
        <time>2021-03-25T15:22:08Z</time>
      </trkpt>
      <trkpt lat="42.88264" lon="0.1144">
        <ele>1776.4</ele>
        <time>2021-03-25T15:22:09Z</time>
      </trkpt>
      <trkpt lat="42.88264" lon="0.11438">
        <ele>1776.2</ele>
        <time>2021-03-25T15:22:10Z</time>
      </trkpt>
      <trkpt lat="42.88263" lon="0.11437">
        <ele>1776</ele>
        <time>2021-03-25T15:22:11Z</time>
      </trkpt>
      <trkpt lat="42.88263" lon="0.11436">
        <ele>1775.8</ele>
        <time>2021-03-25T15:22:13Z</time>
      </trkpt>
      <trkpt lat="42.88263" lon="0.11435">
        <ele>1775.8</ele>
        <time>2021-03-25T15:22:15Z</time>
      </trkpt>
      <trkpt lat="42.88263" lon="0.11434">
        <ele>1775.6</ele>
        <time>2021-03-25T15:22:16Z</time>
      </trkpt>
      <trkpt lat="42.88263" lon="0.11433">
        <ele>1775.4</ele>
        <time>2021-03-25T15:22:17Z</time>
      </trkpt>
      <trkpt lat="42.88263" lon="0.11432">
        <ele>1775.3</ele>
        <time>2021-03-25T15:22:19Z</time>
      </trkpt>
      <trkpt lat="42.88263" lon="0.11431">
        <ele>1775.1</ele>
        <time>2021-03-25T15:22:20Z</time>
      </trkpt>
      <trkpt lat="42.88263" lon="0.1143">
        <ele>1775</ele>
        <time>2021-03-25T15:22:21Z</time>
      </trkpt>
      <trkpt lat="42.88262" lon="0.11425">
        <ele>1774.2</ele>
        <time>2021-03-25T15:22:23Z</time>
      </trkpt>
      <trkpt lat="42.88262" lon="0.1142">
        <ele>1773.4</ele>
        <time>2021-03-25T15:22:24Z</time>
      </trkpt>
      <trkpt lat="42.88261" lon="0.11415">
        <ele>1772.8</ele>
        <time>2021-03-25T15:22:25Z</time>
      </trkpt>
      <trkpt lat="42.88261" lon="0.11414">
        <ele>1772.6</ele>
        <time>2021-03-25T15:22:26Z</time>
      </trkpt>
      <trkpt lat="42.88261" lon="0.11412">
        <ele>1772.2</ele>
        <time>2021-03-25T15:22:28Z</time>
      </trkpt>
      <trkpt lat="42.88261" lon="0.11411">
        <ele>1772</ele>
        <time>2021-03-25T15:22:29Z</time>
      </trkpt>
      <trkpt lat="42.88261" lon="0.1141">
        <ele>1772</ele>
        <time>2021-03-25T15:22:30Z</time>
      </trkpt>
      <trkpt lat="42.88261" lon="0.1141">
        <ele>1771.9</ele>
        <time>2021-03-25T15:22:31Z</time>
      </trkpt>
      <trkpt lat="42.88261" lon="0.11409">
        <ele>1771.8</ele>
        <time>2021-03-25T15:22:32Z</time>
      </trkpt>
      <trkpt lat="42.88261" lon="0.11409">
        <ele>1771.8</ele>
        <time>2021-03-25T15:22:33Z</time>
      </trkpt>
      <trkpt lat="42.88261" lon="0.11409">
        <ele>1771.7</ele>
        <time>2021-03-25T15:22:35Z</time>
      </trkpt>
      <trkpt lat="42.88261" lon="0.11408">
        <ele>1771.6</ele>
        <time>2021-03-25T15:22:36Z</time>
      </trkpt>
      <trkpt lat="42.88261" lon="0.11408">
        <ele>1771.6</ele>
        <time>2021-03-25T15:22:37Z</time>
      </trkpt>
      <trkpt lat="42.8826" lon="0.11408">
        <ele>1771.6</ele>
        <time>2021-03-25T15:22:39Z</time>
      </trkpt>
      <trkpt lat="42.8826" lon="0.11408">
        <ele>1771.5</ele>
        <time>2021-03-25T15:22:40Z</time>
      </trkpt>
      <trkpt lat="42.8826" lon="0.11408">
        <ele>1771.5</ele>
        <time>2021-03-25T15:22:41Z</time>
      </trkpt>
      <trkpt lat="42.88261" lon="0.11407">
        <ele>1771.5</ele>
        <time>2021-03-25T15:22:43Z</time>
      </trkpt>
      <trkpt lat="42.88261" lon="0.11407">
        <ele>1771.5</ele>
        <time>2021-03-25T15:22:44Z</time>
      </trkpt>
      <trkpt lat="42.88261" lon="0.11407">
        <ele>1771.4</ele>
        <time>2021-03-25T15:22:46Z</time>
      </trkpt>
      <trkpt lat="42.88261" lon="0.11407">
        <ele>1771.4</ele>
        <time>2021-03-25T15:22:48Z</time>
      </trkpt>
      <trkpt lat="42.88261" lon="0.11407">
        <ele>1771.4</ele>
        <time>2021-03-25T15:22:49Z</time>
      </trkpt>
      <trkpt lat="42.88261" lon="0.11406">
        <ele>1771.2</ele>
        <time>2021-03-25T15:22:51Z</time>
      </trkpt>
      <trkpt lat="42.88261" lon="0.11405">
        <ele>1771.1</ele>
        <time>2021-03-25T15:22:52Z</time>
      </trkpt>
      <trkpt lat="42.88261" lon="0.11405">
        <ele>1771.1</ele>
        <time>2021-03-25T15:22:53Z</time>
      </trkpt>
      <trkpt lat="42.88262" lon="0.11404">
        <ele>1771</ele>
        <time>2021-03-25T15:22:54Z</time>
      </trkpt>
      <trkpt lat="42.88262" lon="0.11403">
        <ele>1770.8</ele>
        <time>2021-03-25T15:22:56Z</time>
      </trkpt>
      <trkpt lat="42.88263" lon="0.11404">
        <ele>1770.6</ele>
        <time>2021-03-25T15:22:57Z</time>
      </trkpt>
      <trkpt lat="42.88263" lon="0.11403">
        <ele>1770.5</ele>
        <time>2021-03-25T15:22:59Z</time>
      </trkpt>
      <trkpt lat="42.88263" lon="0.11402">
        <ele>1770.4</ele>
        <time>2021-03-25T15:23:00Z</time>
      </trkpt>
      <trkpt lat="42.88263" lon="0.11401">
        <ele>1770.3</ele>
        <time>2021-03-25T15:23:01Z</time>
      </trkpt>
      <trkpt lat="42.88263" lon="0.114">
        <ele>1770.2</ele>
        <time>2021-03-25T15:23:03Z</time>
      </trkpt>
      <trkpt lat="42.88263" lon="0.114">
        <ele>1770</ele>
        <time>2021-03-25T15:23:04Z</time>
      </trkpt>
      <trkpt lat="42.88263" lon="0.11399">
        <ele>1769.9</ele>
        <time>2021-03-25T15:23:06Z</time>
      </trkpt>
      <trkpt lat="42.88263" lon="0.11398">
        <ele>1769.8</ele>
        <time>2021-03-25T15:23:07Z</time>
      </trkpt>
      <trkpt lat="42.88263" lon="0.11397">
        <ele>1769.7</ele>
        <time>2021-03-25T15:23:09Z</time>
      </trkpt>
      <trkpt lat="42.88263" lon="0.11396">
        <ele>1769.6</ele>
        <time>2021-03-25T15:23:10Z</time>
      </trkpt>
      <trkpt lat="42.88263" lon="0.11395">
        <ele>1769.5</ele>
        <time>2021-03-25T15:23:12Z</time>
      </trkpt>
      <trkpt lat="42.88263" lon="0.11394">
        <ele>1769.4</ele>
        <time>2021-03-25T15:23:14Z</time>
      </trkpt>
      <trkpt lat="42.88263" lon="0.11394">
        <ele>1769.3</ele>
        <time>2021-03-25T15:23:15Z</time>
      </trkpt>
      <trkpt lat="42.88263" lon="0.11393">
        <ele>1769.2</ele>
        <time>2021-03-25T15:23:16Z</time>
      </trkpt>
      <trkpt lat="42.88263" lon="0.11392">
        <ele>1769.1</ele>
        <time>2021-03-25T15:23:17Z</time>
      </trkpt>
      <trkpt lat="42.88263" lon="0.11391">
        <ele>1769</ele>
        <time>2021-03-25T15:23:18Z</time>
      </trkpt>
      <trkpt lat="42.88264" lon="0.11389">
        <ele>1768.8</ele>
        <time>2021-03-25T15:23:19Z</time>
      </trkpt>
      <trkpt lat="42.88264" lon="0.11387">
        <ele>1768.5</ele>
        <time>2021-03-25T15:23:21Z</time>
      </trkpt>
      <trkpt lat="42.88264" lon="0.11383">
        <ele>1768</ele>
        <time>2021-03-25T15:23:22Z</time>
      </trkpt>
      <trkpt lat="42.88263" lon="0.11382">
        <ele>1767.9</ele>
        <time>2021-03-25T15:23:23Z</time>
      </trkpt>
      <trkpt lat="42.88261" lon="0.11376">
        <ele>1767.2</ele>
        <time>2021-03-25T15:23:25Z</time>
      </trkpt>
      <trkpt lat="42.88261" lon="0.11372">
        <ele>1766.8</ele>
        <time>2021-03-25T15:23:26Z</time>
      </trkpt>
      <trkpt lat="42.88259" lon="0.11365">
        <ele>1766.1</ele>
        <time>2021-03-25T15:23:28Z</time>
      </trkpt>
      <trkpt lat="42.88259" lon="0.11361">
        <ele>1765.7</ele>
        <time>2021-03-25T15:23:29Z</time>
      </trkpt>
      <trkpt lat="42.8826" lon="0.11358">
        <ele>1765.4</ele>
        <time>2021-03-25T15:23:30Z</time>
      </trkpt>
      <trkpt lat="42.88261" lon="0.11353">
        <ele>1765</ele>
        <time>2021-03-25T15:23:32Z</time>
      </trkpt>
      <trkpt lat="42.88264" lon="0.11348">
        <ele>1764.6</ele>
        <time>2021-03-25T15:23:33Z</time>
      </trkpt>
      <trkpt lat="42.88267" lon="0.11344">
        <ele>1764.1</ele>
        <time>2021-03-25T15:23:34Z</time>
      </trkpt>
      <trkpt lat="42.88272" lon="0.1134">
        <ele>1763.5</ele>
        <time>2021-03-25T15:23:36Z</time>
      </trkpt>
      <trkpt lat="42.88274" lon="0.11337">
        <ele>1763.2</ele>
        <time>2021-03-25T15:23:37Z</time>
      </trkpt>
      <trkpt lat="42.88275" lon="0.11332">
        <ele>1762.8</ele>
        <time>2021-03-25T15:23:38Z</time>
      </trkpt>
      <trkpt lat="42.88276" lon="0.11326">
        <ele>1762.3</ele>
        <time>2021-03-25T15:23:39Z</time>
      </trkpt>
      <trkpt lat="42.88277" lon="0.11318">
        <ele>1761.6</ele>
        <time>2021-03-25T15:23:41Z</time>
      </trkpt>
      <trkpt lat="42.88276" lon="0.11309">
        <ele>1760.5</ele>
        <time>2021-03-25T15:23:43Z</time>
      </trkpt>
      <trkpt lat="42.88274" lon="0.11303">
        <ele>1759.7</ele>
        <time>2021-03-25T15:23:44Z</time>
      </trkpt>
      <trkpt lat="42.88272" lon="0.11298">
        <ele>1759</ele>
        <time>2021-03-25T15:23:45Z</time>
      </trkpt>
      <trkpt lat="42.8827" lon="0.11293">
        <ele>1758.4</ele>
        <time>2021-03-25T15:23:47Z</time>
      </trkpt>
      <trkpt lat="42.88269" lon="0.11292">
        <ele>1758.1</ele>
        <time>2021-03-25T15:23:48Z</time>
      </trkpt>
      <trkpt lat="42.88268" lon="0.1129">
        <ele>1757.9</ele>
        <time>2021-03-25T15:23:49Z</time>
      </trkpt>
      <trkpt lat="42.88268" lon="0.11286">
        <ele>1757.4</ele>
        <time>2021-03-25T15:23:50Z</time>
      </trkpt>
      <trkpt lat="42.88268" lon="0.11283">
        <ele>1757.1</ele>
        <time>2021-03-25T15:23:52Z</time>
      </trkpt>
      <trkpt lat="42.88269" lon="0.11281">
        <ele>1756.9</ele>
        <time>2021-03-25T15:23:53Z</time>
      </trkpt>
      <trkpt lat="42.88269" lon="0.11279">
        <ele>1756.6</ele>
        <time>2021-03-25T15:23:54Z</time>
      </trkpt>
      <trkpt lat="42.88271" lon="0.11274">
        <ele>1756</ele>
        <time>2021-03-25T15:23:56Z</time>
      </trkpt>
      <trkpt lat="42.88272" lon="0.1127">
        <ele>1755.6</ele>
        <time>2021-03-25T15:23:58Z</time>
      </trkpt>
      <trkpt lat="42.88274" lon="0.11265">
        <ele>1755.1</ele>
        <time>2021-03-25T15:23:59Z</time>
      </trkpt>
      <trkpt lat="42.88275" lon="0.1126">
        <ele>1754.5</ele>
        <time>2021-03-25T15:24:00Z</time>
      </trkpt>
      <trkpt lat="42.88277" lon="0.11255">
        <ele>1754.2</ele>
        <time>2021-03-25T15:24:01Z</time>
      </trkpt>
      <trkpt lat="42.88278" lon="0.11251">
        <ele>1753.9</ele>
        <time>2021-03-25T15:24:02Z</time>
      </trkpt>
      <trkpt lat="42.8828" lon="0.11247">
        <ele>1753.6</ele>
        <time>2021-03-25T15:24:04Z</time>
      </trkpt>
      <trkpt lat="42.88281" lon="0.11242">
        <ele>1753.3</ele>
        <time>2021-03-25T15:24:05Z</time>
      </trkpt>
      <trkpt lat="42.88281" lon="0.11239">
        <ele>1753</ele>
        <time>2021-03-25T15:24:06Z</time>
      </trkpt>
      <trkpt lat="42.88281" lon="0.11234">
        <ele>1752.8</ele>
        <time>2021-03-25T15:24:07Z</time>
      </trkpt>
      <trkpt lat="42.8828" lon="0.11228">
        <ele>1752.4</ele>
        <time>2021-03-25T15:24:09Z</time>
      </trkpt>
      <trkpt lat="42.88279" lon="0.11224">
        <ele>1749.5</ele>
        <time>2021-03-25T15:24:10Z</time>
      </trkpt>
      <trkpt lat="42.88274" lon="0.11215">
        <ele>1749.2</ele>
        <time>2021-03-25T15:24:11Z</time>
      </trkpt>
      <trkpt lat="42.88275" lon="0.11211">
        <ele>1749</ele>
        <time>2021-03-25T15:24:13Z</time>
      </trkpt>
      <trkpt lat="42.88275" lon="0.11207">
        <ele>1748.9</ele>
        <time>2021-03-25T15:24:14Z</time>
      </trkpt>
      <trkpt lat="42.88281" lon="0.11204">
        <ele>1748.7</ele>
        <time>2021-03-25T15:24:16Z</time>
      </trkpt>
      <trkpt lat="42.88284" lon="0.11204">
        <ele>1748.6</ele>
        <time>2021-03-25T15:24:17Z</time>
      </trkpt>
      <trkpt lat="42.88289" lon="0.11204">
        <ele>1748.4</ele>
        <time>2021-03-25T15:24:18Z</time>
      </trkpt>
      <trkpt lat="42.88293" lon="0.11204">
        <ele>1748.3</ele>
        <time>2021-03-25T15:24:19Z</time>
      </trkpt>
      <trkpt lat="42.88298" lon="0.11201">
        <ele>1748</ele>
        <time>2021-03-25T15:24:21Z</time>
      </trkpt>
      <trkpt lat="42.88303" lon="0.11198">
        <ele>1747.8</ele>
        <time>2021-03-25T15:24:22Z</time>
      </trkpt>
      <trkpt lat="42.88308" lon="0.11194">
        <ele>1747.6</ele>
        <time>2021-03-25T15:24:24Z</time>
      </trkpt>
      <trkpt lat="42.88309" lon="0.11192">
        <ele>1747.6</ele>
        <time>2021-03-25T15:24:25Z</time>
      </trkpt>
      <trkpt lat="42.88311" lon="0.1119">
        <ele>1747.5</ele>
        <time>2021-03-25T15:24:27Z</time>
      </trkpt>
      <trkpt lat="42.88312" lon="0.11189">
        <ele>1747.4</ele>
        <time>2021-03-25T15:24:28Z</time>
      </trkpt>
      <trkpt lat="42.88311" lon="0.11189">
        <ele>1747.4</ele>
        <time>2021-03-25T15:24:30Z</time>
      </trkpt>
      <trkpt lat="42.88311" lon="0.11189">
        <ele>1747.4</ele>
        <time>2021-03-25T15:24:32Z</time>
      </trkpt>
      <trkpt lat="42.8831" lon="0.11189">
        <ele>1747.4</ele>
        <time>2021-03-25T15:24:33Z</time>
      </trkpt>
      <trkpt lat="42.8831" lon="0.11189">
        <ele>1747.4</ele>
        <time>2021-03-25T15:24:35Z</time>
      </trkpt>
      <trkpt lat="42.8831" lon="0.11189">
        <ele>1747.4</ele>
        <time>2021-03-25T15:24:36Z</time>
      </trkpt>
      <trkpt lat="42.8831" lon="0.11189">
        <ele>1747.3</ele>
        <time>2021-03-25T15:24:37Z</time>
      </trkpt>
      <trkpt lat="42.88309" lon="0.11189">
        <ele>1747.3</ele>
        <time>2021-03-25T15:24:38Z</time>
      </trkpt>
      <trkpt lat="42.88309" lon="0.11189">
        <ele>1747.3</ele>
        <time>2021-03-25T15:24:40Z</time>
      </trkpt>
      <trkpt lat="42.88309" lon="0.11189">
        <ele>1747.3</ele>
        <time>2021-03-25T15:24:41Z</time>
      </trkpt>
      <trkpt lat="42.88308" lon="0.11189">
        <ele>1747.3</ele>
        <time>2021-03-25T15:24:42Z</time>
      </trkpt>
      <trkpt lat="42.88308" lon="0.11188">
        <ele>1747.3</ele>
        <time>2021-03-25T15:24:43Z</time>
      </trkpt>
      <trkpt lat="42.88308" lon="0.11188">
        <ele>1747.3</ele>
        <time>2021-03-25T15:24:44Z</time>
      </trkpt>
      <trkpt lat="42.88308" lon="0.11188">
        <ele>1747.3</ele>
        <time>2021-03-25T15:24:46Z</time>
      </trkpt>
      <trkpt lat="42.88308" lon="0.11188">
        <ele>1747.3</ele>
        <time>2021-03-25T15:24:47Z</time>
      </trkpt>
      <trkpt lat="42.88308" lon="0.11188">
        <ele>1747.2</ele>
        <time>2021-03-25T15:24:49Z</time>
      </trkpt>
      <trkpt lat="42.88308" lon="0.11187">
        <ele>1747.2</ele>
        <time>2021-03-25T15:24:50Z</time>
      </trkpt>
      <trkpt lat="42.88307" lon="0.11187">
        <ele>1747.2</ele>
        <time>2021-03-25T15:24:51Z</time>
      </trkpt>
      <trkpt lat="42.88307" lon="0.11187">
        <ele>1747.2</ele>
        <time>2021-03-25T15:24:52Z</time>
      </trkpt>
      <trkpt lat="42.88307" lon="0.11187">
        <ele>1747.2</ele>
        <time>2021-03-25T15:24:53Z</time>
      </trkpt>
      <trkpt lat="42.88307" lon="0.11187">
        <ele>1747.2</ele>
        <time>2021-03-25T15:24:54Z</time>
      </trkpt>
      <trkpt lat="42.88307" lon="0.11187">
        <ele>1747.2</ele>
        <time>2021-03-25T15:24:55Z</time>
      </trkpt>
      <trkpt lat="42.88307" lon="0.11187">
        <ele>1747.2</ele>
        <time>2021-03-25T15:24:57Z</time>
      </trkpt>
      <trkpt lat="42.88307" lon="0.11187">
        <ele>1747.2</ele>
        <time>2021-03-25T15:24:58Z</time>
      </trkpt>
      <trkpt lat="42.88306" lon="0.11187">
        <ele>1747.2</ele>
        <time>2021-03-25T15:24:59Z</time>
      </trkpt>
      <trkpt lat="42.88306" lon="0.11187">
        <ele>1747.2</ele>
        <time>2021-03-25T15:25:00Z</time>
      </trkpt>
      <trkpt lat="42.88306" lon="0.11187">
        <ele>1747.2</ele>
        <time>2021-03-25T15:25:02Z</time>
      </trkpt>
      <trkpt lat="42.88306" lon="0.11187">
        <ele>1747.2</ele>
        <time>2021-03-25T15:25:04Z</time>
      </trkpt>
      <trkpt lat="42.88305" lon="0.11187">
        <ele>1747.2</ele>
        <time>2021-03-25T15:25:06Z</time>
      </trkpt>
      <trkpt lat="42.88305" lon="0.11187">
        <ele>1747.1</ele>
        <time>2021-03-25T15:25:07Z</time>
      </trkpt>
      <trkpt lat="42.88305" lon="0.11187">
        <ele>1747.1</ele>
        <time>2021-03-25T15:25:09Z</time>
      </trkpt>
      <trkpt lat="42.88305" lon="0.11187">
        <ele>1747.1</ele>
        <time>2021-03-25T15:25:10Z</time>
      </trkpt>
      <trkpt lat="42.88304" lon="0.11188">
        <ele>1747.1</ele>
        <time>2021-03-25T15:25:12Z</time>
      </trkpt>
      <trkpt lat="42.88304" lon="0.11188">
        <ele>1747.1</ele>
        <time>2021-03-25T15:25:14Z</time>
      </trkpt>
      <trkpt lat="42.88305" lon="0.11188">
        <ele>1747</ele>
        <time>2021-03-25T15:25:15Z</time>
      </trkpt>
      <trkpt lat="42.88306" lon="0.11188">
        <ele>1747</ele>
        <time>2021-03-25T15:25:16Z</time>
      </trkpt>
      <trkpt lat="42.88307" lon="0.11188">
        <ele>1746.9</ele>
        <time>2021-03-25T15:25:18Z</time>
      </trkpt>
      <trkpt lat="42.88308" lon="0.11188">
        <ele>1746.9</ele>
        <time>2021-03-25T15:25:20Z</time>
      </trkpt>
      <trkpt lat="42.88309" lon="0.11188">
        <ele>1746.9</ele>
        <time>2021-03-25T15:25:21Z</time>
      </trkpt>
      <trkpt lat="42.8831" lon="0.11188">
        <ele>1746.8</ele>
        <time>2021-03-25T15:25:22Z</time>
      </trkpt>
      <trkpt lat="42.88311" lon="0.11188">
        <ele>1746.8</ele>
        <time>2021-03-25T15:25:23Z</time>
      </trkpt>
      <trkpt lat="42.88311" lon="0.11188">
        <ele>1746.8</ele>
        <time>2021-03-25T15:25:25Z</time>
      </trkpt>
      <trkpt lat="42.88312" lon="0.11188">
        <ele>1746.8</ele>
        <time>2021-03-25T15:25:27Z</time>
      </trkpt>
      <trkpt lat="42.88312" lon="0.11189">
        <ele>1746.7</ele>
        <time>2021-03-25T15:25:28Z</time>
      </trkpt>
      <trkpt lat="42.88313" lon="0.11189">
        <ele>1746.7</ele>
        <time>2021-03-25T15:25:29Z</time>
      </trkpt>
      <trkpt lat="42.88316" lon="0.11189">
        <ele>1746.6</ele>
        <time>2021-03-25T15:25:31Z</time>
      </trkpt>
      <trkpt lat="42.88316" lon="0.1119">
        <ele>1746.6</ele>
        <time>2021-03-25T15:25:32Z</time>
      </trkpt>
      <trkpt lat="42.88316" lon="0.1119">
        <ele>1746.6</ele>
        <time>2021-03-25T15:25:33Z</time>
      </trkpt>
      <trkpt lat="42.88317" lon="0.1119">
        <ele>1746.5</ele>
        <time>2021-03-25T15:25:35Z</time>
      </trkpt>
      <trkpt lat="42.88315" lon="0.1119">
        <ele>1746.5</ele>
        <time>2021-03-25T15:25:37Z</time>
      </trkpt>
      <trkpt lat="42.88314" lon="0.1119">
        <ele>1746.4</ele>
        <time>2021-03-25T15:25:38Z</time>
      </trkpt>
      <trkpt lat="42.88314" lon="0.11189">
        <ele>1746.4</ele>
        <time>2021-03-25T15:25:40Z</time>
      </trkpt>
      <trkpt lat="42.88315" lon="0.1119">
        <ele>1746.4</ele>
        <time>2021-03-25T15:25:42Z</time>
      </trkpt>
      <trkpt lat="42.88314" lon="0.1119">
        <ele>1746.4</ele>
        <time>2021-03-25T15:25:44Z</time>
      </trkpt>
      <trkpt lat="42.88314" lon="0.1119">
        <ele>1746.4</ele>
        <time>2021-03-25T15:25:45Z</time>
      </trkpt>
      <trkpt lat="42.88314" lon="0.11191">
        <ele>1746.3</ele>
        <time>2021-03-25T15:25:46Z</time>
      </trkpt>
      <trkpt lat="42.88314" lon="0.11191">
        <ele>1746.3</ele>
        <time>2021-03-25T15:25:47Z</time>
      </trkpt>
      <trkpt lat="42.88315" lon="0.11191">
        <ele>1746.3</ele>
        <time>2021-03-25T15:25:48Z</time>
      </trkpt>
      <trkpt lat="42.88315" lon="0.11191">
        <ele>1746.3</ele>
        <time>2021-03-25T15:25:50Z</time>
      </trkpt>
      <trkpt lat="42.88315" lon="0.11191">
        <ele>1746.3</ele>
        <time>2021-03-25T15:25:51Z</time>
      </trkpt>
      <trkpt lat="42.88314" lon="0.11191">
        <ele>1746.3</ele>
        <time>2021-03-25T15:25:53Z</time>
      </trkpt>
      <trkpt lat="42.88314" lon="0.11191">
        <ele>1746.3</ele>
        <time>2021-03-25T15:25:55Z</time>
      </trkpt>
      <trkpt lat="42.88314" lon="0.11191">
        <ele>1746.3</ele>
        <time>2021-03-25T15:25:57Z</time>
      </trkpt>
      <trkpt lat="42.88313" lon="0.1119">
        <ele>1746.2</ele>
        <time>2021-03-25T15:25:58Z</time>
      </trkpt>
      <trkpt lat="42.88313" lon="0.11189">
        <ele>1746.2</ele>
        <time>2021-03-25T15:26:00Z</time>
      </trkpt>
      <trkpt lat="42.88313" lon="0.11189">
        <ele>1746.2</ele>
        <time>2021-03-25T15:26:02Z</time>
      </trkpt>
      <trkpt lat="42.88313" lon="0.11189">
        <ele>1746.2</ele>
        <time>2021-03-25T15:26:04Z</time>
      </trkpt>
      <trkpt lat="42.88313" lon="0.11189">
        <ele>1746.2</ele>
        <time>2021-03-25T15:26:05Z</time>
      </trkpt>
      <trkpt lat="42.88313" lon="0.11189">
        <ele>1746.2</ele>
        <time>2021-03-25T15:26:07Z</time>
      </trkpt>
      <trkpt lat="42.88313" lon="0.11189">
        <ele>1746.2</ele>
        <time>2021-03-25T15:26:08Z</time>
      </trkpt>
      <trkpt lat="42.88313" lon="0.11189">
        <ele>1746.2</ele>
        <time>2021-03-25T15:26:10Z</time>
      </trkpt>
      <trkpt lat="42.88313" lon="0.11188">
        <ele>1746.2</ele>
        <time>2021-03-25T15:26:11Z</time>
      </trkpt>
      <trkpt lat="42.88313" lon="0.11188">
        <ele>1746.2</ele>
        <time>2021-03-25T15:26:12Z</time>
      </trkpt>
      <trkpt lat="42.88313" lon="0.11188">
        <ele>1746.2</ele>
        <time>2021-03-25T15:26:13Z</time>
      </trkpt>
      <trkpt lat="42.88313" lon="0.11189">
        <ele>1746.2</ele>
        <time>2021-03-25T15:26:15Z</time>
      </trkpt>
      <trkpt lat="42.88313" lon="0.11189">
        <ele>1746.2</ele>
        <time>2021-03-25T15:26:17Z</time>
      </trkpt>
      <trkpt lat="42.88313" lon="0.11189">
        <ele>1746.2</ele>
        <time>2021-03-25T15:26:18Z</time>
      </trkpt>
      <trkpt lat="42.88313" lon="0.11189">
        <ele>1746.2</ele>
        <time>2021-03-25T15:26:19Z</time>
      </trkpt>
      <trkpt lat="42.88313" lon="0.11189">
        <ele>1746.2</ele>
        <time>2021-03-25T15:26:20Z</time>
      </trkpt>
      <trkpt lat="42.88314" lon="0.1119">
        <ele>1746.1</ele>
        <time>2021-03-25T15:26:21Z</time>
      </trkpt>
      <trkpt lat="42.88314" lon="0.11189">
        <ele>1746.1</ele>
        <time>2021-03-25T15:26:23Z</time>
      </trkpt>
      <trkpt lat="42.88314" lon="0.11189">
        <ele>1746.1</ele>
        <time>2021-03-25T15:26:25Z</time>
      </trkpt>
      <trkpt lat="42.88314" lon="0.11189">
        <ele>1746.1</ele>
        <time>2021-03-25T15:26:26Z</time>
      </trkpt>
      <trkpt lat="42.88314" lon="0.11189">
        <ele>1746.1</ele>
        <time>2021-03-25T15:26:27Z</time>
      </trkpt>
      <trkpt lat="42.88314" lon="0.11189">
        <ele>1746.1</ele>
        <time>2021-03-25T15:26:28Z</time>
      </trkpt>
      <trkpt lat="42.88314" lon="0.1119">
        <ele>1746.1</ele>
        <time>2021-03-25T15:26:30Z</time>
      </trkpt>
      <trkpt lat="42.88315" lon="0.1119">
        <ele>1746.1</ele>
        <time>2021-03-25T15:26:31Z</time>
      </trkpt>
      <trkpt lat="42.88315" lon="0.1119">
        <ele>1746.1</ele>
        <time>2021-03-25T15:26:32Z</time>
      </trkpt>
      <trkpt lat="42.88315" lon="0.1119">
        <ele>1746.1</ele>
        <time>2021-03-25T15:26:34Z</time>
      </trkpt>
      <trkpt lat="42.88315" lon="0.1119">
        <ele>1746.1</ele>
        <time>2021-03-25T15:26:36Z</time>
      </trkpt>
      <trkpt lat="42.88315" lon="0.1119">
        <ele>1746.1</ele>
        <time>2021-03-25T15:26:37Z</time>
      </trkpt>
      <trkpt lat="42.88315" lon="0.1119">
        <ele>1746.1</ele>
        <time>2021-03-25T15:26:38Z</time>
      </trkpt>
      <trkpt lat="42.88315" lon="0.1119">
        <ele>1746.1</ele>
        <time>2021-03-25T15:26:40Z</time>
      </trkpt>
      <trkpt lat="42.88315" lon="0.1119">
        <ele>1746.1</ele>
        <time>2021-03-25T15:26:41Z</time>
      </trkpt>
      <trkpt lat="42.88315" lon="0.1119">
        <ele>1746.1</ele>
        <time>2021-03-25T15:26:43Z</time>
      </trkpt>
      <trkpt lat="42.88315" lon="0.1119">
        <ele>1746.1</ele>
        <time>2021-03-25T15:26:45Z</time>
      </trkpt>
      <trkpt lat="42.88315" lon="0.1119">
        <ele>1746.1</ele>
        <time>2021-03-25T15:26:47Z</time>
      </trkpt>
      <trkpt lat="42.88315" lon="0.1119">
        <ele>1746.1</ele>
        <time>2021-03-25T15:26:49Z</time>
      </trkpt>
      <trkpt lat="42.88315" lon="0.1119">
        <ele>1746.1</ele>
        <time>2021-03-25T15:26:50Z</time>
      </trkpt>
      <trkpt lat="42.88315" lon="0.1119">
        <ele>1746.1</ele>
        <time>2021-03-25T15:26:51Z</time>
      </trkpt>
      <trkpt lat="42.88315" lon="0.1119">
        <ele>1746.1</ele>
        <time>2021-03-25T15:26:52Z</time>
      </trkpt>
      <trkpt lat="42.88315" lon="0.1119">
        <ele>1746.1</ele>
        <time>2021-03-25T15:26:53Z</time>
      </trkpt>
      <trkpt lat="42.88315" lon="0.1119">
        <ele>1746.1</ele>
        <time>2021-03-25T15:26:55Z</time>
      </trkpt>
      <trkpt lat="42.88315" lon="0.1119">
        <ele>1746.1</ele>
        <time>2021-03-25T15:26:56Z</time>
      </trkpt>
      <trkpt lat="42.88315" lon="0.1119">
        <ele>1746</ele>
        <time>2021-03-25T15:26:58Z</time>
      </trkpt>
      <trkpt lat="42.88315" lon="0.1119">
        <ele>1746</ele>
        <time>2021-03-25T15:26:59Z</time>
      </trkpt>
      <trkpt lat="42.88314" lon="0.1119">
        <ele>1746</ele>
        <time>2021-03-25T15:27:01Z</time>
      </trkpt>
      <trkpt lat="42.88313" lon="0.1119">
        <ele>1746</ele>
        <time>2021-03-25T15:27:03Z</time>
      </trkpt>
      <trkpt lat="42.88313" lon="0.1119">
        <ele>1746</ele>
        <time>2021-03-25T15:27:04Z</time>
      </trkpt>
      <trkpt lat="42.88313" lon="0.1119">
        <ele>1746</ele>
        <time>2021-03-25T15:27:05Z</time>
      </trkpt>
      <trkpt lat="42.88313" lon="0.1119">
        <ele>1746</ele>
        <time>2021-03-25T15:27:06Z</time>
      </trkpt>
      <trkpt lat="42.88313" lon="0.1119">
        <ele>1746</ele>
        <time>2021-03-25T15:27:07Z</time>
      </trkpt>
      <trkpt lat="42.88312" lon="0.1119">
        <ele>1745.9</ele>
        <time>2021-03-25T15:27:09Z</time>
      </trkpt>
      <trkpt lat="42.88312" lon="0.1119">
        <ele>1745.9</ele>
        <time>2021-03-25T15:27:10Z</time>
      </trkpt>
      <trkpt lat="42.88312" lon="0.11191">
        <ele>1745.9</ele>
        <time>2021-03-25T15:27:12Z</time>
      </trkpt>
      <trkpt lat="42.88313" lon="0.11191">
        <ele>1745.9</ele>
        <time>2021-03-25T15:27:14Z</time>
      </trkpt>
      <trkpt lat="42.88312" lon="0.11191">
        <ele>1745.9</ele>
        <time>2021-03-25T15:27:15Z</time>
      </trkpt>
      <trkpt lat="42.88312" lon="0.11189">
        <ele>1745.8</ele>
        <time>2021-03-25T15:27:17Z</time>
      </trkpt>
      <trkpt lat="42.88311" lon="0.11189">
        <ele>1745.8</ele>
        <time>2021-03-25T15:27:19Z</time>
      </trkpt>
      <trkpt lat="42.8831" lon="0.11189">
        <ele>1745.7</ele>
        <time>2021-03-25T15:27:21Z</time>
      </trkpt>
      <trkpt lat="42.8831" lon="0.11189">
        <ele>1745.7</ele>
        <time>2021-03-25T15:27:23Z</time>
      </trkpt>
      <trkpt lat="42.8831" lon="0.11189">
        <ele>1745.7</ele>
        <time>2021-03-25T15:27:25Z</time>
      </trkpt>
      <trkpt lat="42.8831" lon="0.11188">
        <ele>1745.7</ele>
        <time>2021-03-25T15:27:27Z</time>
      </trkpt>
      <trkpt lat="42.8831" lon="0.11188">
        <ele>1745.7</ele>
        <time>2021-03-25T15:27:29Z</time>
      </trkpt>
      <trkpt lat="42.88311" lon="0.11188">
        <ele>1745.7</ele>
        <time>2021-03-25T15:27:30Z</time>
      </trkpt>
      <trkpt lat="42.88311" lon="0.11188">
        <ele>1745.7</ele>
        <time>2021-03-25T15:27:31Z</time>
      </trkpt>
      <trkpt lat="42.88311" lon="0.11188">
        <ele>1745.7</ele>
        <time>2021-03-25T15:27:33Z</time>
      </trkpt>
      <trkpt lat="42.88311" lon="0.11188">
        <ele>1745.7</ele>
        <time>2021-03-25T15:27:34Z</time>
      </trkpt>
      <trkpt lat="42.88311" lon="0.11188">
        <ele>1745.7</ele>
        <time>2021-03-25T15:27:36Z</time>
      </trkpt>
      <trkpt lat="42.88311" lon="0.11188">
        <ele>1745.7</ele>
        <time>2021-03-25T15:27:38Z</time>
      </trkpt>
      <trkpt lat="42.88311" lon="0.11188">
        <ele>1745.7</ele>
        <time>2021-03-25T15:27:39Z</time>
      </trkpt>
      <trkpt lat="42.88311" lon="0.11188">
        <ele>1745.7</ele>
        <time>2021-03-25T15:27:40Z</time>
      </trkpt>
      <trkpt lat="42.8831" lon="0.11188">
        <ele>1745.7</ele>
        <time>2021-03-25T15:27:41Z</time>
      </trkpt>
      <trkpt lat="42.8831" lon="0.11187">
        <ele>1745.6</ele>
        <time>2021-03-25T15:27:43Z</time>
      </trkpt>
      <trkpt lat="42.88309" lon="0.11186">
        <ele>1745.6</ele>
        <time>2021-03-25T15:27:44Z</time>
      </trkpt>
      <trkpt lat="42.88308" lon="0.11184">
        <ele>1745.5</ele>
        <time>2021-03-25T15:27:46Z</time>
      </trkpt>
      <trkpt lat="42.88309" lon="0.11185">
        <ele>1745.5</ele>
        <time>2021-03-25T15:27:48Z</time>
      </trkpt>
      <trkpt lat="42.88311" lon="0.11185">
        <ele>1745.4</ele>
        <time>2021-03-25T15:27:50Z</time>
      </trkpt>
      <trkpt lat="42.88311" lon="0.11186">
        <ele>1745.4</ele>
        <time>2021-03-25T15:27:51Z</time>
      </trkpt>
      <trkpt lat="42.88311" lon="0.11187">
        <ele>1745.4</ele>
        <time>2021-03-25T15:27:52Z</time>
      </trkpt>
      <trkpt lat="42.88311" lon="0.11188">
        <ele>1745.4</ele>
        <time>2021-03-25T15:27:53Z</time>
      </trkpt>
      <trkpt lat="42.88311" lon="0.11188">
        <ele>1745.3</ele>
        <time>2021-03-25T15:27:54Z</time>
      </trkpt>
      <trkpt lat="42.88311" lon="0.11189">
        <ele>1745.3</ele>
        <time>2021-03-25T15:27:56Z</time>
      </trkpt>
      <trkpt lat="42.88311" lon="0.11188">
        <ele>1745.3</ele>
        <time>2021-03-25T15:27:57Z</time>
      </trkpt>
      <trkpt lat="42.88311" lon="0.11188">
        <ele>1745.3</ele>
        <time>2021-03-25T15:27:59Z</time>
      </trkpt>
      <trkpt lat="42.88311" lon="0.11187">
        <ele>1745.3</ele>
        <time>2021-03-25T15:28:00Z</time>
      </trkpt>
      <trkpt lat="42.88311" lon="0.11186">
        <ele>1745.3</ele>
        <time>2021-03-25T15:28:02Z</time>
      </trkpt>
      <trkpt lat="42.8831" lon="0.11186">
        <ele>1745.2</ele>
        <time>2021-03-25T15:28:04Z</time>
      </trkpt>
      <trkpt lat="42.8831" lon="0.11186">
        <ele>1745.2</ele>
        <time>2021-03-25T15:28:06Z</time>
      </trkpt>
      <trkpt lat="42.88311" lon="0.11188">
        <ele>1745.2</ele>
        <time>2021-03-25T15:28:08Z</time>
      </trkpt>
      <trkpt lat="42.88311" lon="0.11189">
        <ele>1745.2</ele>
        <time>2021-03-25T15:28:09Z</time>
      </trkpt>
      <trkpt lat="42.8831" lon="0.11187">
        <ele>1745.1</ele>
        <time>2021-03-25T15:28:11Z</time>
      </trkpt>
      <trkpt lat="42.88309" lon="0.11186">
        <ele>1745.1</ele>
        <time>2021-03-25T15:28:13Z</time>
      </trkpt>
      <trkpt lat="42.88309" lon="0.11186">
        <ele>1745.1</ele>
        <time>2021-03-25T15:28:15Z</time>
      </trkpt>
      <trkpt lat="42.8831" lon="0.11186">
        <ele>1745.1</ele>
        <time>2021-03-25T15:28:16Z</time>
      </trkpt>
      <trkpt lat="42.8831" lon="0.11186">
        <ele>1745.1</ele>
        <time>2021-03-25T15:28:18Z</time>
      </trkpt>
      <trkpt lat="42.88309" lon="0.11186">
        <ele>1745</ele>
        <time>2021-03-25T15:28:20Z</time>
      </trkpt>
      <trkpt lat="42.88309" lon="0.11186">
        <ele>1745</ele>
        <time>2021-03-25T15:28:21Z</time>
      </trkpt>
      <trkpt lat="42.88309" lon="0.11187">
        <ele>1745</ele>
        <time>2021-03-25T15:28:23Z</time>
      </trkpt>
      <trkpt lat="42.88309" lon="0.11187">
        <ele>1745</ele>
        <time>2021-03-25T15:28:24Z</time>
      </trkpt>
      <trkpt lat="42.88309" lon="0.11187">
        <ele>1745</ele>
        <time>2021-03-25T15:28:26Z</time>
      </trkpt>
      <trkpt lat="42.88309" lon="0.11187">
        <ele>1745</ele>
        <time>2021-03-25T15:28:28Z</time>
      </trkpt>
      <trkpt lat="42.88309" lon="0.11187">
        <ele>1745</ele>
        <time>2021-03-25T15:28:30Z</time>
      </trkpt>
      <trkpt lat="42.88309" lon="0.11188">
        <ele>1745</ele>
        <time>2021-03-25T15:28:31Z</time>
      </trkpt>
      <trkpt lat="42.88309" lon="0.1119">
        <ele>1744.9</ele>
        <time>2021-03-25T15:28:33Z</time>
      </trkpt>
      <trkpt lat="42.88309" lon="0.11191">
        <ele>1744.9</ele>
        <time>2021-03-25T15:28:35Z</time>
      </trkpt>
      <trkpt lat="42.88309" lon="0.1119">
        <ele>1744.9</ele>
        <time>2021-03-25T15:28:36Z</time>
      </trkpt>
      <trkpt lat="42.88308" lon="0.11189">
        <ele>1744.8</ele>
        <time>2021-03-25T15:28:38Z</time>
      </trkpt>
      <trkpt lat="42.88308" lon="0.11187">
        <ele>1744.8</ele>
        <time>2021-03-25T15:28:39Z</time>
      </trkpt>
      <trkpt lat="42.88308" lon="0.11186">
        <ele>1744.8</ele>
        <time>2021-03-25T15:28:41Z</time>
      </trkpt>
      <trkpt lat="42.88308" lon="0.11187">
        <ele>1744.8</ele>
        <time>2021-03-25T15:28:43Z</time>
      </trkpt>
      <trkpt lat="42.88308" lon="0.11187">
        <ele>1744.7</ele>
        <time>2021-03-25T15:28:44Z</time>
      </trkpt>
      <trkpt lat="42.88308" lon="0.11187">
        <ele>1744.7</ele>
        <time>2021-03-25T15:28:46Z</time>
      </trkpt>
      <trkpt lat="42.88308" lon="0.11187">
        <ele>1744.7</ele>
        <time>2021-03-25T15:28:47Z</time>
      </trkpt>
      <trkpt lat="42.88308" lon="0.11187">
        <ele>1744.7</ele>
        <time>2021-03-25T15:28:49Z</time>
      </trkpt>
      <trkpt lat="42.88308" lon="0.11187">
        <ele>1744.7</ele>
        <time>2021-03-25T15:28:50Z</time>
      </trkpt>
      <trkpt lat="42.88308" lon="0.11187">
        <ele>1744.7</ele>
        <time>2021-03-25T15:28:51Z</time>
      </trkpt>
      <trkpt lat="42.88308" lon="0.11187">
        <ele>1744.7</ele>
        <time>2021-03-25T15:28:52Z</time>
      </trkpt>
      <trkpt lat="42.88308" lon="0.11187">
        <ele>1744.7</ele>
        <time>2021-03-25T15:28:53Z</time>
      </trkpt>
      <trkpt lat="42.88308" lon="0.11187">
        <ele>1744.7</ele>
        <time>2021-03-25T15:28:55Z</time>
      </trkpt>
      <trkpt lat="42.88308" lon="0.11187">
        <ele>1744.7</ele>
        <time>2021-03-25T15:28:57Z</time>
      </trkpt>
      <trkpt lat="42.88308" lon="0.11187">
        <ele>1744.7</ele>
        <time>2021-03-25T15:28:59Z</time>
      </trkpt>
      <trkpt lat="42.88308" lon="0.11187">
        <ele>1744.7</ele>
        <time>2021-03-25T15:29:01Z</time>
      </trkpt>
      <trkpt lat="42.88308" lon="0.11187">
        <ele>1744.7</ele>
        <time>2021-03-25T15:29:03Z</time>
      </trkpt>
      <trkpt lat="42.88309" lon="0.11187">
        <ele>1744.7</ele>
        <time>2021-03-25T15:29:05Z</time>
      </trkpt>
      <trkpt lat="42.88309" lon="0.11188">
        <ele>1744.7</ele>
        <time>2021-03-25T15:29:07Z</time>
      </trkpt>
      <trkpt lat="42.8831" lon="0.11188">
        <ele>1744.6</ele>
        <time>2021-03-25T15:29:08Z</time>
      </trkpt>
      <trkpt lat="42.8831" lon="0.11189">
        <ele>1744.6</ele>
        <time>2021-03-25T15:29:10Z</time>
      </trkpt>
      <trkpt lat="42.8831" lon="0.1119">
        <ele>1744.6</ele>
        <time>2021-03-25T15:29:12Z</time>
      </trkpt>
      <trkpt lat="42.8831" lon="0.1119">
        <ele>1744.6</ele>
        <time>2021-03-25T15:29:14Z</time>
      </trkpt>
      <trkpt lat="42.8831" lon="0.1119">
        <ele>1744.6</ele>
        <time>2021-03-25T15:29:15Z</time>
      </trkpt>
      <trkpt lat="42.8831" lon="0.1119">
        <ele>1744.6</ele>
        <time>2021-03-25T15:29:17Z</time>
      </trkpt>
      <trkpt lat="42.8831" lon="0.1119">
        <ele>1744.6</ele>
        <time>2021-03-25T15:29:18Z</time>
      </trkpt>
      <trkpt lat="42.88311" lon="0.1119">
        <ele>1744.5</ele>
        <time>2021-03-25T15:29:20Z</time>
      </trkpt>
      <trkpt lat="42.88311" lon="0.1119">
        <ele>1744.5</ele>
        <time>2021-03-25T15:29:21Z</time>
      </trkpt>
      <trkpt lat="42.8831" lon="0.1119">
        <ele>1744.5</ele>
        <time>2021-03-25T15:29:22Z</time>
      </trkpt>
      <trkpt lat="42.88311" lon="0.1119">
        <ele>1744.5</ele>
        <time>2021-03-25T15:29:24Z</time>
      </trkpt>
      <trkpt lat="42.88311" lon="0.11191">
        <ele>1744.5</ele>
        <time>2021-03-25T15:29:25Z</time>
      </trkpt>
      <trkpt lat="42.88312" lon="0.1119">
        <ele>1744.5</ele>
        <time>2021-03-25T15:29:27Z</time>
      </trkpt>
      <trkpt lat="42.88312" lon="0.1119">
        <ele>1744.5</ele>
        <time>2021-03-25T15:29:28Z</time>
      </trkpt>
      <trkpt lat="42.88311" lon="0.1119">
        <ele>1744.4</ele>
        <time>2021-03-25T15:29:30Z</time>
      </trkpt>
      <trkpt lat="42.88311" lon="0.1119">
        <ele>1744.4</ele>
        <time>2021-03-25T15:29:32Z</time>
      </trkpt>
      <trkpt lat="42.88312" lon="0.1119">
        <ele>1744.4</ele>
        <time>2021-03-25T15:29:34Z</time>
      </trkpt>
      <trkpt lat="42.88312" lon="0.1119">
        <ele>1744.4</ele>
        <time>2021-03-25T15:29:35Z</time>
      </trkpt>
      <trkpt lat="42.88312" lon="0.1119">
        <ele>1744.4</ele>
        <time>2021-03-25T15:29:36Z</time>
      </trkpt>
      <trkpt lat="42.88312" lon="0.1119">
        <ele>1744.4</ele>
        <time>2021-03-25T15:29:37Z</time>
      </trkpt>
      <trkpt lat="42.88312" lon="0.1119">
        <ele>1744.4</ele>
        <time>2021-03-25T15:29:39Z</time>
      </trkpt>
      <trkpt lat="42.88312" lon="0.1119">
        <ele>1744.4</ele>
        <time>2021-03-25T15:29:40Z</time>
      </trkpt>
      <trkpt lat="42.88313" lon="0.11191">
        <ele>1744.3</ele>
        <time>2021-03-25T15:29:42Z</time>
      </trkpt>
      <trkpt lat="42.88313" lon="0.11191">
        <ele>1744.3</ele>
        <time>2021-03-25T15:29:43Z</time>
      </trkpt>
      <trkpt lat="42.88313" lon="0.11191">
        <ele>1744.3</ele>
        <time>2021-03-25T15:29:44Z</time>
      </trkpt>
      <trkpt lat="42.88313" lon="0.11191">
        <ele>1744.3</ele>
        <time>2021-03-25T15:29:46Z</time>
      </trkpt>
      <trkpt lat="42.88313" lon="0.11191">
        <ele>1744.3</ele>
        <time>2021-03-25T15:29:47Z</time>
      </trkpt>
      <trkpt lat="42.88314" lon="0.11191">
        <ele>1744.3</ele>
        <time>2021-03-25T15:29:49Z</time>
      </trkpt>
      <trkpt lat="42.88314" lon="0.11191">
        <ele>1744.3</ele>
        <time>2021-03-25T15:29:51Z</time>
      </trkpt>
      <trkpt lat="42.88314" lon="0.11191">
        <ele>1744.3</ele>
        <time>2021-03-25T15:29:52Z</time>
      </trkpt>
      <trkpt lat="42.88315" lon="0.1119">
        <ele>1744.3</ele>
        <time>2021-03-25T15:29:54Z</time>
      </trkpt>
      <trkpt lat="42.88315" lon="0.1119">
        <ele>1744.2</ele>
        <time>2021-03-25T15:29:55Z</time>
      </trkpt>
      <trkpt lat="42.88315" lon="0.11189">
        <ele>1744.2</ele>
        <time>2021-03-25T15:29:57Z</time>
      </trkpt>
      <trkpt lat="42.88315" lon="0.11189">
        <ele>1744.2</ele>
        <time>2021-03-25T15:29:58Z</time>
      </trkpt>
      <trkpt lat="42.88316" lon="0.1119">
        <ele>1744.2</ele>
        <time>2021-03-25T15:30:00Z</time>
      </trkpt>
      <trkpt lat="42.88316" lon="0.1119">
        <ele>1744.2</ele>
        <time>2021-03-25T15:30:01Z</time>
      </trkpt>
      <trkpt lat="42.88317" lon="0.1119">
        <ele>1744.2</ele>
        <time>2021-03-25T15:30:03Z</time>
      </trkpt>
      <trkpt lat="42.88318" lon="0.1119">
        <ele>1744.1</ele>
        <time>2021-03-25T15:30:04Z</time>
      </trkpt>
      <trkpt lat="42.88318" lon="0.1119">
        <ele>1744.1</ele>
        <time>2021-03-25T15:30:05Z</time>
      </trkpt>
      <trkpt lat="42.88319" lon="0.1119">
        <ele>1744.1</ele>
        <time>2021-03-25T15:30:06Z</time>
      </trkpt>
      <trkpt lat="42.88319" lon="0.11189">
        <ele>1744.1</ele>
        <time>2021-03-25T15:30:07Z</time>
      </trkpt>
      <trkpt lat="42.88318" lon="0.1119">
        <ele>1744</ele>
        <time>2021-03-25T15:30:09Z</time>
      </trkpt>
      <trkpt lat="42.88318" lon="0.1119">
        <ele>1744</ele>
        <time>2021-03-25T15:30:10Z</time>
      </trkpt>
      <trkpt lat="42.88318" lon="0.11189">
        <ele>1744</ele>
        <time>2021-03-25T15:30:12Z</time>
      </trkpt>
      <trkpt lat="42.88318" lon="0.11189">
        <ele>1744</ele>
        <time>2021-03-25T15:30:13Z</time>
      </trkpt>
      <trkpt lat="42.88317" lon="0.11189">
        <ele>1744</ele>
        <time>2021-03-25T15:30:15Z</time>
      </trkpt>
      <trkpt lat="42.88317" lon="0.11188">
        <ele>1743.9</ele>
        <time>2021-03-25T15:30:16Z</time>
      </trkpt>
      <trkpt lat="42.88316" lon="0.11187">
        <ele>1743.9</ele>
        <time>2021-03-25T15:30:17Z</time>
      </trkpt>
      <trkpt lat="42.88316" lon="0.11186">
        <ele>1743.9</ele>
        <time>2021-03-25T15:30:19Z</time>
      </trkpt>
      <trkpt lat="42.88316" lon="0.11184">
        <ele>1743.8</ele>
        <time>2021-03-25T15:30:20Z</time>
      </trkpt>
      <trkpt lat="42.88317" lon="0.11183">
        <ele>1743.8</ele>
        <time>2021-03-25T15:30:21Z</time>
      </trkpt>
      <trkpt lat="42.88318" lon="0.11182">
        <ele>1743.7</ele>
        <time>2021-03-25T15:30:22Z</time>
      </trkpt>
      <trkpt lat="42.8832" lon="0.11182">
        <ele>1743.7</ele>
        <time>2021-03-25T15:30:23Z</time>
      </trkpt>
      <trkpt lat="42.88323" lon="0.11179">
        <ele>1743.6</ele>
        <time>2021-03-25T15:30:25Z</time>
      </trkpt>
      <trkpt lat="42.88325" lon="0.11178">
        <ele>1743.5</ele>
        <time>2021-03-25T15:30:26Z</time>
      </trkpt>
      <trkpt lat="42.88328" lon="0.11176">
        <ele>1743.4</ele>
        <time>2021-03-25T15:30:27Z</time>
      </trkpt>
      <trkpt lat="42.88331" lon="0.11175">
        <ele>1743.3</ele>
        <time>2021-03-25T15:30:29Z</time>
      </trkpt>
      <trkpt lat="42.88333" lon="0.11174">
        <ele>1743.2</ele>
        <time>2021-03-25T15:30:30Z</time>
      </trkpt>
      <trkpt lat="42.88335" lon="0.11174">
        <ele>1743.2</ele>
        <time>2021-03-25T15:30:31Z</time>
      </trkpt>
      <trkpt lat="42.88336" lon="0.11173">
        <ele>1743.2</ele>
        <time>2021-03-25T15:30:33Z</time>
      </trkpt>
      <trkpt lat="42.88337" lon="0.11171">
        <ele>1743.1</ele>
        <time>2021-03-25T15:30:34Z</time>
      </trkpt>
      <trkpt lat="42.88338" lon="0.1117">
        <ele>1743.1</ele>
        <time>2021-03-25T15:30:35Z</time>
      </trkpt>
      <trkpt lat="42.8834" lon="0.11169">
        <ele>1743</ele>
        <time>2021-03-25T15:30:36Z</time>
      </trkpt>
      <trkpt lat="42.88342" lon="0.11166">
        <ele>1742.9</ele>
        <time>2021-03-25T15:30:37Z</time>
      </trkpt>
      <trkpt lat="42.88343" lon="0.11165">
        <ele>1742.9</ele>
        <time>2021-03-25T15:30:38Z</time>
      </trkpt>
      <trkpt lat="42.88343" lon="0.11162">
        <ele>1742.9</ele>
        <time>2021-03-25T15:30:40Z</time>
      </trkpt>
      <trkpt lat="42.88344" lon="0.11161">
        <ele>1742.8</ele>
        <time>2021-03-25T15:30:41Z</time>
      </trkpt>
      <trkpt lat="42.88344" lon="0.1116">
        <ele>1742.8</ele>
        <time>2021-03-25T15:30:42Z</time>
      </trkpt>
      <trkpt lat="42.88345" lon="0.11157">
        <ele>1742.7</ele>
        <time>2021-03-25T15:30:44Z</time>
      </trkpt>
      <trkpt lat="42.88346" lon="0.11156">
        <ele>1742.7</ele>
        <time>2021-03-25T15:30:45Z</time>
      </trkpt>
      <trkpt lat="42.88347" lon="0.11155">
        <ele>1742.7</ele>
        <time>2021-03-25T15:30:47Z</time>
      </trkpt>
      <trkpt lat="42.88349" lon="0.11155">
        <ele>1742.6</ele>
        <time>2021-03-25T15:30:49Z</time>
      </trkpt>
      <trkpt lat="42.88351" lon="0.11155">
        <ele>1742.6</ele>
        <time>2021-03-25T15:30:50Z</time>
      </trkpt>
      <trkpt lat="42.88352" lon="0.11156">
        <ele>1742.6</ele>
        <time>2021-03-25T15:30:51Z</time>
      </trkpt>
      <trkpt lat="42.88354" lon="0.11157">
        <ele>1742.5</ele>
        <time>2021-03-25T15:30:52Z</time>
      </trkpt>
      <trkpt lat="42.88355" lon="0.11157">
        <ele>1742.5</ele>
        <time>2021-03-25T15:30:53Z</time>
      </trkpt>
      <trkpt lat="42.88356" lon="0.11158">
        <ele>1742.5</ele>
        <time>2021-03-25T15:30:54Z</time>
      </trkpt>
      <trkpt lat="42.88358" lon="0.11158">
        <ele>1742.4</ele>
        <time>2021-03-25T15:30:55Z</time>
      </trkpt>
      <trkpt lat="42.8836" lon="0.11159">
        <ele>1742.4</ele>
        <time>2021-03-25T15:30:57Z</time>
      </trkpt>
      <trkpt lat="42.88361" lon="0.11159">
        <ele>1742.4</ele>
        <time>2021-03-25T15:30:58Z</time>
      </trkpt>
      <trkpt lat="42.88362" lon="0.11159">
        <ele>1742.3</ele>
        <time>2021-03-25T15:30:59Z</time>
      </trkpt>
      <trkpt lat="42.88363" lon="0.11159">
        <ele>1742.3</ele>
        <time>2021-03-25T15:31:00Z</time>
      </trkpt>
      <trkpt lat="42.88364" lon="0.1116">
        <ele>1742.3</ele>
        <time>2021-03-25T15:31:01Z</time>
      </trkpt>
      <trkpt lat="42.88365" lon="0.1116">
        <ele>1742.3</ele>
        <time>2021-03-25T15:31:02Z</time>
      </trkpt>
      <trkpt lat="42.88367" lon="0.1116">
        <ele>1742.2</ele>
        <time>2021-03-25T15:31:04Z</time>
      </trkpt>
      <trkpt lat="42.88368" lon="0.1116">
        <ele>1742.2</ele>
        <time>2021-03-25T15:31:05Z</time>
      </trkpt>
      <trkpt lat="42.88369" lon="0.11161">
        <ele>1742.2</ele>
        <time>2021-03-25T15:31:06Z</time>
      </trkpt>
      <trkpt lat="42.8837" lon="0.11161">
        <ele>1742.2</ele>
        <time>2021-03-25T15:31:07Z</time>
      </trkpt>
      <trkpt lat="42.88371" lon="0.11162">
        <ele>1742.1</ele>
        <time>2021-03-25T15:31:08Z</time>
      </trkpt>
      <trkpt lat="42.88372" lon="0.11162">
        <ele>1742.1</ele>
        <time>2021-03-25T15:31:09Z</time>
      </trkpt>
      <trkpt lat="42.88373" lon="0.11162">
        <ele>1742.1</ele>
        <time>2021-03-25T15:31:11Z</time>
      </trkpt>
      <trkpt lat="42.88374" lon="0.11162">
        <ele>1742.1</ele>
        <time>2021-03-25T15:31:12Z</time>
      </trkpt>
      <trkpt lat="42.88375" lon="0.11162">
        <ele>1742.1</ele>
        <time>2021-03-25T15:31:13Z</time>
      </trkpt>
      <trkpt lat="42.88376" lon="0.11162">
        <ele>1742.1</ele>
        <time>2021-03-25T15:31:14Z</time>
      </trkpt>
      <trkpt lat="42.88377" lon="0.11161">
        <ele>1742.1</ele>
        <time>2021-03-25T15:31:16Z</time>
      </trkpt>
      <trkpt lat="42.88376" lon="0.1116">
        <ele>1742.1</ele>
        <time>2021-03-25T15:31:17Z</time>
      </trkpt>
      <trkpt lat="42.88377" lon="0.11157">
        <ele>1742.1</ele>
        <time>2021-03-25T15:31:19Z</time>
      </trkpt>
      <trkpt lat="42.88377" lon="0.11156">
        <ele>1742</ele>
        <time>2021-03-25T15:31:20Z</time>
      </trkpt>
      <trkpt lat="42.88378" lon="0.11154">
        <ele>1741.9</ele>
        <time>2021-03-25T15:31:21Z</time>
      </trkpt>
      <trkpt lat="42.88378" lon="0.11152">
        <ele>1741.9</ele>
        <time>2021-03-25T15:31:22Z</time>
      </trkpt>
      <trkpt lat="42.88379" lon="0.11151">
        <ele>1741.8</ele>
        <time>2021-03-25T15:31:23Z</time>
      </trkpt>
      <trkpt lat="42.88379" lon="0.1115">
        <ele>1741.8</ele>
        <time>2021-03-25T15:31:24Z</time>
      </trkpt>
      <trkpt lat="42.88378" lon="0.11148">
        <ele>1741.7</ele>
        <time>2021-03-25T15:31:25Z</time>
      </trkpt>
      <trkpt lat="42.88378" lon="0.11146">
        <ele>1741.7</ele>
        <time>2021-03-25T15:31:26Z</time>
      </trkpt>
      <trkpt lat="42.88379" lon="0.11144">
        <ele>1741.6</ele>
        <time>2021-03-25T15:31:28Z</time>
      </trkpt>
      <trkpt lat="42.88381" lon="0.11141">
        <ele>1741.4</ele>
        <time>2021-03-25T15:31:29Z</time>
      </trkpt>
      <trkpt lat="42.88382" lon="0.1114">
        <ele>1741.4</ele>
        <time>2021-03-25T15:31:30Z</time>
      </trkpt>
      <trkpt lat="42.88386" lon="0.11139">
        <ele>1741.2</ele>
        <time>2021-03-25T15:31:32Z</time>
      </trkpt>
      <trkpt lat="42.88387" lon="0.11139">
        <ele>1741.1</ele>
        <time>2021-03-25T15:31:33Z</time>
      </trkpt>
      <trkpt lat="42.8839" lon="0.11138">
        <ele>1740.9</ele>
        <time>2021-03-25T15:31:34Z</time>
      </trkpt>
      <trkpt lat="42.88391" lon="0.11137">
        <ele>1740.9</ele>
        <time>2021-03-25T15:31:35Z</time>
      </trkpt>
      <trkpt lat="42.88394" lon="0.11135">
        <ele>1740.7</ele>
        <time>2021-03-25T15:31:36Z</time>
      </trkpt>
      <trkpt lat="42.88395" lon="0.11135">
        <ele>1740.6</ele>
        <time>2021-03-25T15:31:37Z</time>
      </trkpt>
      <trkpt lat="42.88398" lon="0.11132">
        <ele>1740.4</ele>
        <time>2021-03-25T15:31:38Z</time>
      </trkpt>
      <trkpt lat="42.88399" lon="0.11131">
        <ele>1740.3</ele>
        <time>2021-03-25T15:31:39Z</time>
      </trkpt>
      <trkpt lat="42.88403" lon="0.11128">
        <ele>1740.1</ele>
        <time>2021-03-25T15:31:41Z</time>
      </trkpt>
      <trkpt lat="42.88405" lon="0.11125">
        <ele>1740</ele>
        <time>2021-03-25T15:31:42Z</time>
      </trkpt>
      <trkpt lat="42.88406" lon="0.11122">
        <ele>1739.8</ele>
        <time>2021-03-25T15:31:43Z</time>
      </trkpt>
      <trkpt lat="42.88408" lon="0.11119">
        <ele>1739.7</ele>
        <time>2021-03-25T15:31:44Z</time>
      </trkpt>
      <trkpt lat="42.8841" lon="0.11115">
        <ele>1739.5</ele>
        <time>2021-03-25T15:31:45Z</time>
      </trkpt>
      <trkpt lat="42.88411" lon="0.11113">
        <ele>1739.4</ele>
        <time>2021-03-25T15:31:46Z</time>
      </trkpt>
      <trkpt lat="42.88413" lon="0.11111">
        <ele>1739.3</ele>
        <time>2021-03-25T15:31:48Z</time>
      </trkpt>
      <trkpt lat="42.88414" lon="0.11111">
        <ele>1739.3</ele>
        <time>2021-03-25T15:31:49Z</time>
      </trkpt>
      <trkpt lat="42.88414" lon="0.11109">
        <ele>1739.2</ele>
        <time>2021-03-25T15:31:50Z</time>
      </trkpt>
      <trkpt lat="42.88413" lon="0.11108">
        <ele>1739.2</ele>
        <time>2021-03-25T15:31:51Z</time>
      </trkpt>
      <trkpt lat="42.88413" lon="0.11107">
        <ele>1739.1</ele>
        <time>2021-03-25T15:31:52Z</time>
      </trkpt>
      <trkpt lat="42.88412" lon="0.11106">
        <ele>1739.1</ele>
        <time>2021-03-25T15:31:53Z</time>
      </trkpt>
      <trkpt lat="42.88411" lon="0.11105">
        <ele>1739</ele>
        <time>2021-03-25T15:31:54Z</time>
      </trkpt>
      <trkpt lat="42.88411" lon="0.11104">
        <ele>1738.9</ele>
        <time>2021-03-25T15:31:55Z</time>
      </trkpt>
      <trkpt lat="42.88412" lon="0.11101">
        <ele>1738.9</ele>
        <time>2021-03-25T15:31:57Z</time>
      </trkpt>
      <trkpt lat="42.88413" lon="0.11099">
        <ele>1738.8</ele>
        <time>2021-03-25T15:31:58Z</time>
      </trkpt>
      <trkpt lat="42.88414" lon="0.11098">
        <ele>1738.7</ele>
        <time>2021-03-25T15:31:59Z</time>
      </trkpt>
      <trkpt lat="42.88415" lon="0.11096">
        <ele>1738.6</ele>
        <time>2021-03-25T15:32:01Z</time>
      </trkpt>
      <trkpt lat="42.88416" lon="0.11095">
        <ele>1738.5</ele>
        <time>2021-03-25T15:32:02Z</time>
      </trkpt>
      <trkpt lat="42.88417" lon="0.11093">
        <ele>1738.4</ele>
        <time>2021-03-25T15:32:04Z</time>
      </trkpt>
      <trkpt lat="42.88418" lon="0.11092">
        <ele>1738.4</ele>
        <time>2021-03-25T15:32:05Z</time>
      </trkpt>
      <trkpt lat="42.88421" lon="0.11091">
        <ele>1738.3</ele>
        <time>2021-03-25T15:32:06Z</time>
      </trkpt>
      <trkpt lat="42.88422" lon="0.11091">
        <ele>1738.2</ele>
        <time>2021-03-25T15:32:07Z</time>
      </trkpt>
      <trkpt lat="42.88423" lon="0.11091">
        <ele>1738.2</ele>
        <time>2021-03-25T15:32:08Z</time>
      </trkpt>
      <trkpt lat="42.88425" lon="0.11091">
        <ele>1738</ele>
        <time>2021-03-25T15:32:09Z</time>
      </trkpt>
      <trkpt lat="42.88426" lon="0.11091">
        <ele>1738</ele>
        <time>2021-03-25T15:32:10Z</time>
      </trkpt>
      <trkpt lat="42.8843" lon="0.11091">
        <ele>1737.8</ele>
        <time>2021-03-25T15:32:11Z</time>
      </trkpt>
      <trkpt lat="42.88431" lon="0.11091">
        <ele>1737.8</ele>
        <time>2021-03-25T15:32:12Z</time>
      </trkpt>
      <trkpt lat="42.88432" lon="0.1109">
        <ele>1737.7</ele>
        <time>2021-03-25T15:32:13Z</time>
      </trkpt>
      <trkpt lat="42.88434" lon="0.11088">
        <ele>1737.6</ele>
        <time>2021-03-25T15:32:14Z</time>
      </trkpt>
      <trkpt lat="42.88434" lon="0.11087">
        <ele>1737.6</ele>
        <time>2021-03-25T15:32:15Z</time>
      </trkpt>
      <trkpt lat="42.88435" lon="0.11086">
        <ele>1737.5</ele>
        <time>2021-03-25T15:32:16Z</time>
      </trkpt>
      <trkpt lat="42.88436" lon="0.11085">
        <ele>1737.4</ele>
        <time>2021-03-25T15:32:17Z</time>
      </trkpt>
      <trkpt lat="42.88437" lon="0.11084">
        <ele>1737.4</ele>
        <time>2021-03-25T15:32:18Z</time>
      </trkpt>
      <trkpt lat="42.88438" lon="0.11083">
        <ele>1737.3</ele>
        <time>2021-03-25T15:32:20Z</time>
      </trkpt>
      <trkpt lat="42.88438" lon="0.11081">
        <ele>1737.3</ele>
        <time>2021-03-25T15:32:21Z</time>
      </trkpt>
      <trkpt lat="42.88437" lon="0.11079">
        <ele>1737.2</ele>
        <time>2021-03-25T15:32:22Z</time>
      </trkpt>
      <trkpt lat="42.88436" lon="0.11078">
        <ele>1737.1</ele>
        <time>2021-03-25T15:32:23Z</time>
      </trkpt>
      <trkpt lat="42.88435" lon="0.11076">
        <ele>1737</ele>
        <time>2021-03-25T15:32:24Z</time>
      </trkpt>
      <trkpt lat="42.88434" lon="0.11074">
        <ele>1737</ele>
        <time>2021-03-25T15:32:25Z</time>
      </trkpt>
      <trkpt lat="42.88434" lon="0.11072">
        <ele>1736.9</ele>
        <time>2021-03-25T15:32:26Z</time>
      </trkpt>
      <trkpt lat="42.88433" lon="0.11071">
        <ele>1736.8</ele>
        <time>2021-03-25T15:32:27Z</time>
      </trkpt>
      <trkpt lat="42.88433" lon="0.11068">
        <ele>1736.7</ele>
        <time>2021-03-25T15:32:29Z</time>
      </trkpt>
      <trkpt lat="42.88433" lon="0.11067">
        <ele>1736.7</ele>
        <time>2021-03-25T15:32:30Z</time>
      </trkpt>
      <trkpt lat="42.88434" lon="0.11066">
        <ele>1736.6</ele>
        <time>2021-03-25T15:32:31Z</time>
      </trkpt>
      <trkpt lat="42.88435" lon="0.11064">
        <ele>1736.5</ele>
        <time>2021-03-25T15:32:33Z</time>
      </trkpt>
      <trkpt lat="42.88436" lon="0.11062">
        <ele>1736.5</ele>
        <time>2021-03-25T15:32:34Z</time>
      </trkpt>
      <trkpt lat="42.88437" lon="0.11061">
        <ele>1736.4</ele>
        <time>2021-03-25T15:32:35Z</time>
      </trkpt>
      <trkpt lat="42.88438" lon="0.11058">
        <ele>1736.2</ele>
        <time>2021-03-25T15:32:36Z</time>
      </trkpt>
      <trkpt lat="42.8844" lon="0.11055">
        <ele>1736.1</ele>
        <time>2021-03-25T15:32:38Z</time>
      </trkpt>
      <trkpt lat="42.88443" lon="0.11053">
        <ele>1735.9</ele>
        <time>2021-03-25T15:32:39Z</time>
      </trkpt>
      <trkpt lat="42.88444" lon="0.11052">
        <ele>1735.8</ele>
        <time>2021-03-25T15:32:40Z</time>
      </trkpt>
      <trkpt lat="42.88446" lon="0.1105">
        <ele>1735.6</ele>
        <time>2021-03-25T15:32:41Z</time>
      </trkpt>
      <trkpt lat="42.88447" lon="0.11049">
        <ele>1735.6</ele>
        <time>2021-03-25T15:32:42Z</time>
      </trkpt>
      <trkpt lat="42.88448" lon="0.11048">
        <ele>1735.5</ele>
        <time>2021-03-25T15:32:43Z</time>
      </trkpt>
      <trkpt lat="42.8845" lon="0.11047">
        <ele>1735.3</ele>
        <time>2021-03-25T15:32:44Z</time>
      </trkpt>
      <trkpt lat="42.88452" lon="0.11045">
        <ele>1735.2</ele>
        <time>2021-03-25T15:32:45Z</time>
      </trkpt>
      <trkpt lat="42.88453" lon="0.11044">
        <ele>1735.1</ele>
        <time>2021-03-25T15:32:46Z</time>
      </trkpt>
      <trkpt lat="42.88456" lon="0.11043">
        <ele>1734.9</ele>
        <time>2021-03-25T15:32:47Z</time>
      </trkpt>
      <trkpt lat="42.88457" lon="0.11043">
        <ele>1734.8</ele>
        <time>2021-03-25T15:32:48Z</time>
      </trkpt>
      <trkpt lat="42.8846" lon="0.11041">
        <ele>1734.6</ele>
        <time>2021-03-25T15:32:49Z</time>
      </trkpt>
      <trkpt lat="42.8846" lon="0.11041">
        <ele>1734.5</ele>
        <time>2021-03-25T15:32:50Z</time>
      </trkpt>
      <trkpt lat="42.88463" lon="0.11039">
        <ele>1734.4</ele>
        <time>2021-03-25T15:32:51Z</time>
      </trkpt>
      <trkpt lat="42.88465" lon="0.11038">
        <ele>1734.2</ele>
        <time>2021-03-25T15:32:53Z</time>
      </trkpt>
      <trkpt lat="42.88467" lon="0.11035">
        <ele>1734</ele>
        <time>2021-03-25T15:32:54Z</time>
      </trkpt>
      <trkpt lat="42.88468" lon="0.11034">
        <ele>1733.9</ele>
        <time>2021-03-25T15:32:55Z</time>
      </trkpt>
      <trkpt lat="42.88469" lon="0.11033">
        <ele>1733.8</ele>
        <time>2021-03-25T15:32:56Z</time>
      </trkpt>
      <trkpt lat="42.8847" lon="0.11032">
        <ele>1733.7</ele>
        <time>2021-03-25T15:32:57Z</time>
      </trkpt>
      <trkpt lat="42.88471" lon="0.1103">
        <ele>1733.6</ele>
        <time>2021-03-25T15:32:59Z</time>
      </trkpt>
      <trkpt lat="42.88473" lon="0.11028">
        <ele>1733.4</ele>
        <time>2021-03-25T15:33:00Z</time>
      </trkpt>
      <trkpt lat="42.88474" lon="0.11028">
        <ele>1733.4</ele>
        <time>2021-03-25T15:33:01Z</time>
      </trkpt>
      <trkpt lat="42.88475" lon="0.11027">
        <ele>1733.3</ele>
        <time>2021-03-25T15:33:02Z</time>
      </trkpt>
      <trkpt lat="42.88477" lon="0.11027">
        <ele>1733.2</ele>
        <time>2021-03-25T15:33:03Z</time>
      </trkpt>
      <trkpt lat="42.88478" lon="0.11027">
        <ele>1733.1</ele>
        <time>2021-03-25T15:33:04Z</time>
      </trkpt>
      <trkpt lat="42.88479" lon="0.11026">
        <ele>1733.1</ele>
        <time>2021-03-25T15:33:05Z</time>
      </trkpt>
      <trkpt lat="42.88481" lon="0.11026">
        <ele>1732.9</ele>
        <time>2021-03-25T15:33:06Z</time>
      </trkpt>
      <trkpt lat="42.88483" lon="0.11026">
        <ele>1732.8</ele>
        <time>2021-03-25T15:33:07Z</time>
      </trkpt>
      <trkpt lat="42.88485" lon="0.11025">
        <ele>1732.7</ele>
        <time>2021-03-25T15:33:08Z</time>
      </trkpt>
      <trkpt lat="42.88485" lon="0.11024">
        <ele>1732.6</ele>
        <time>2021-03-25T15:33:09Z</time>
      </trkpt>
      <trkpt lat="42.88486" lon="0.11023">
        <ele>1732.5</ele>
        <time>2021-03-25T15:33:11Z</time>
      </trkpt>
      <trkpt lat="42.88487" lon="0.11022">
        <ele>1732.5</ele>
        <time>2021-03-25T15:33:12Z</time>
      </trkpt>
      <trkpt lat="42.88488" lon="0.11021">
        <ele>1732.4</ele>
        <time>2021-03-25T15:33:14Z</time>
      </trkpt>
      <trkpt lat="42.88489" lon="0.11021">
        <ele>1732.3</ele>
        <time>2021-03-25T15:33:15Z</time>
      </trkpt>
      <trkpt lat="42.8849" lon="0.1102">
        <ele>1732.3</ele>
        <time>2021-03-25T15:33:16Z</time>
      </trkpt>
      <trkpt lat="42.88491" lon="0.11019">
        <ele>1732.2</ele>
        <time>2021-03-25T15:33:17Z</time>
      </trkpt>
      <trkpt lat="42.88492" lon="0.11018">
        <ele>1732.1</ele>
        <time>2021-03-25T15:33:18Z</time>
      </trkpt>
      <trkpt lat="42.88493" lon="0.11015">
        <ele>1732</ele>
        <time>2021-03-25T15:33:20Z</time>
      </trkpt>
      <trkpt lat="42.88494" lon="0.11012">
        <ele>1731.8</ele>
        <time>2021-03-25T15:33:21Z</time>
      </trkpt>
      <trkpt lat="42.88495" lon="0.11007">
        <ele>1731.5</ele>
        <time>2021-03-25T15:33:23Z</time>
      </trkpt>
      <trkpt lat="42.88495" lon="0.11005">
        <ele>1731.4</ele>
        <time>2021-03-25T15:33:24Z</time>
      </trkpt>
      <trkpt lat="42.88495" lon="0.11002">
        <ele>1731.2</ele>
        <time>2021-03-25T15:33:26Z</time>
      </trkpt>
      <trkpt lat="42.88496" lon="0.11">
        <ele>1731.1</ele>
        <time>2021-03-25T15:33:27Z</time>
      </trkpt>
      <trkpt lat="42.88496" lon="0.10998">
        <ele>1731</ele>
        <time>2021-03-25T15:33:28Z</time>
      </trkpt>
      <trkpt lat="42.88497" lon="0.10997">
        <ele>1730.8</ele>
        <time>2021-03-25T15:33:29Z</time>
      </trkpt>
      <trkpt lat="42.88499" lon="0.10995">
        <ele>1730.6</ele>
        <time>2021-03-25T15:33:30Z</time>
      </trkpt>
      <trkpt lat="42.88499" lon="0.10994">
        <ele>1730.5</ele>
        <time>2021-03-25T15:33:31Z</time>
      </trkpt>
      <trkpt lat="42.885" lon="0.10993">
        <ele>1730.4</ele>
        <time>2021-03-25T15:33:32Z</time>
      </trkpt>
      <trkpt lat="42.88502" lon="0.10991">
        <ele>1730.2</ele>
        <time>2021-03-25T15:33:34Z</time>
      </trkpt>
      <trkpt lat="42.88503" lon="0.10991">
        <ele>1730.1</ele>
        <time>2021-03-25T15:33:35Z</time>
      </trkpt>
      <trkpt lat="42.88504" lon="0.1099">
        <ele>1730</ele>
        <time>2021-03-25T15:33:36Z</time>
      </trkpt>
      <trkpt lat="42.88506" lon="0.1099">
        <ele>1729.8</ele>
        <time>2021-03-25T15:33:37Z</time>
      </trkpt>
      <trkpt lat="42.88507" lon="0.1099">
        <ele>1729.6</ele>
        <time>2021-03-25T15:33:38Z</time>
      </trkpt>
      <trkpt lat="42.88508" lon="0.10989">
        <ele>1729.5</ele>
        <time>2021-03-25T15:33:39Z</time>
      </trkpt>
      <trkpt lat="42.8851" lon="0.10989">
        <ele>1729.3</ele>
        <time>2021-03-25T15:33:40Z</time>
      </trkpt>
      <trkpt lat="42.88513" lon="0.10989">
        <ele>1729</ele>
        <time>2021-03-25T15:33:42Z</time>
      </trkpt>
      <trkpt lat="42.88514" lon="0.1099">
        <ele>1728.9</ele>
        <time>2021-03-25T15:33:43Z</time>
      </trkpt>
      <trkpt lat="42.88517" lon="0.1099">
        <ele>1728.5</ele>
        <time>2021-03-25T15:33:44Z</time>
      </trkpt>
      <trkpt lat="42.88518" lon="0.1099">
        <ele>1728.4</ele>
        <time>2021-03-25T15:33:45Z</time>
      </trkpt>
      <trkpt lat="42.88519" lon="0.1099">
        <ele>1728.3</ele>
        <time>2021-03-25T15:33:47Z</time>
      </trkpt>
      <trkpt lat="42.88521" lon="0.1099">
        <ele>1728.1</ele>
        <time>2021-03-25T15:33:48Z</time>
      </trkpt>
      <trkpt lat="42.88523" lon="0.10989">
        <ele>1727.9</ele>
        <time>2021-03-25T15:33:49Z</time>
      </trkpt>
      <trkpt lat="42.88525" lon="0.10989">
        <ele>1727.7</ele>
        <time>2021-03-25T15:33:51Z</time>
      </trkpt>
      <trkpt lat="42.88526" lon="0.10988">
        <ele>1727.5</ele>
        <time>2021-03-25T15:33:52Z</time>
      </trkpt>
      <trkpt lat="42.88528" lon="0.10986">
        <ele>1727.3</ele>
        <time>2021-03-25T15:33:53Z</time>
      </trkpt>
      <trkpt lat="42.88528" lon="0.10985">
        <ele>1727.2</ele>
        <time>2021-03-25T15:33:54Z</time>
      </trkpt>
      <trkpt lat="42.8853" lon="0.10981">
        <ele>1726.8</ele>
        <time>2021-03-25T15:33:56Z</time>
      </trkpt>
      <trkpt lat="42.88531" lon="0.10977">
        <ele>1726.5</ele>
        <time>2021-03-25T15:33:57Z</time>
      </trkpt>
      <trkpt lat="42.88532" lon="0.10976">
        <ele>1726.4</ele>
        <time>2021-03-25T15:33:58Z</time>
      </trkpt>
      <trkpt lat="42.88532" lon="0.10973">
        <ele>1726.2</ele>
        <time>2021-03-25T15:33:59Z</time>
      </trkpt>
      <trkpt lat="42.88533" lon="0.10969">
        <ele>1725.8</ele>
        <time>2021-03-25T15:34:01Z</time>
      </trkpt>
      <trkpt lat="42.88534" lon="0.10967">
        <ele>1725.6</ele>
        <time>2021-03-25T15:34:02Z</time>
      </trkpt>
      <trkpt lat="42.88534" lon="0.10965">
        <ele>1725.5</ele>
        <time>2021-03-25T15:34:03Z</time>
      </trkpt>
      <trkpt lat="42.88536" lon="0.10961">
        <ele>1725.2</ele>
        <time>2021-03-25T15:34:05Z</time>
      </trkpt>
      <trkpt lat="42.88537" lon="0.10959">
        <ele>1725</ele>
        <time>2021-03-25T15:34:06Z</time>
      </trkpt>
      <trkpt lat="42.88538" lon="0.10958">
        <ele>1724.8</ele>
        <time>2021-03-25T15:34:07Z</time>
      </trkpt>
      <trkpt lat="42.88541" lon="0.10957">
        <ele>1724.5</ele>
        <time>2021-03-25T15:34:08Z</time>
      </trkpt>
      <trkpt lat="42.88542" lon="0.10957">
        <ele>1724.3</ele>
        <time>2021-03-25T15:34:09Z</time>
      </trkpt>
      <trkpt lat="42.88545" lon="0.10956">
        <ele>1724</ele>
        <time>2021-03-25T15:34:11Z</time>
      </trkpt>
      <trkpt lat="42.88546" lon="0.10955">
        <ele>1723.9</ele>
        <time>2021-03-25T15:34:12Z</time>
      </trkpt>
      <trkpt lat="42.88547" lon="0.10955">
        <ele>1723.7</ele>
        <time>2021-03-25T15:34:13Z</time>
      </trkpt>
      <trkpt lat="42.88549" lon="0.10954">
        <ele>1723.5</ele>
        <time>2021-03-25T15:34:14Z</time>
      </trkpt>
      <trkpt lat="42.88552" lon="0.10952">
        <ele>1723.1</ele>
        <time>2021-03-25T15:34:16Z</time>
      </trkpt>
      <trkpt lat="42.88552" lon="0.10952">
        <ele>1723.1</ele>
        <time>2021-03-25T15:34:17Z</time>
      </trkpt>
      <trkpt lat="42.88554" lon="0.1095">
        <ele>1722.9</ele>
        <time>2021-03-25T15:34:18Z</time>
      </trkpt>
      <trkpt lat="42.88555" lon="0.10949">
        <ele>1722.7</ele>
        <time>2021-03-25T15:34:20Z</time>
      </trkpt>
      <trkpt lat="42.88556" lon="0.10947">
        <ele>1722.5</ele>
        <time>2021-03-25T15:34:21Z</time>
      </trkpt>
      <trkpt lat="42.88557" lon="0.10945">
        <ele>1722.3</ele>
        <time>2021-03-25T15:34:22Z</time>
      </trkpt>
      <trkpt lat="42.88558" lon="0.1094">
        <ele>1721.8</ele>
        <time>2021-03-25T15:34:24Z</time>
      </trkpt>
      <trkpt lat="42.88557" lon="0.10936">
        <ele>1721.5</ele>
        <time>2021-03-25T15:34:25Z</time>
      </trkpt>
      <trkpt lat="42.88557" lon="0.10933">
        <ele>1721.2</ele>
        <time>2021-03-25T15:34:27Z</time>
      </trkpt>
      <trkpt lat="42.88558" lon="0.1093">
        <ele>1721</ele>
        <time>2021-03-25T15:34:29Z</time>
      </trkpt>
      <trkpt lat="42.88558" lon="0.10928">
        <ele>1720.8</ele>
        <time>2021-03-25T15:34:31Z</time>
      </trkpt>
      <trkpt lat="42.88559" lon="0.10927">
        <ele>1720.7</ele>
        <time>2021-03-25T15:34:32Z</time>
      </trkpt>
      <trkpt lat="42.88559" lon="0.10925">
        <ele>1720.5</ele>
        <time>2021-03-25T15:34:33Z</time>
      </trkpt>
      <trkpt lat="42.88559" lon="0.10924">
        <ele>1720.4</ele>
        <time>2021-03-25T15:34:34Z</time>
      </trkpt>
      <trkpt lat="42.8856" lon="0.10923">
        <ele>1720.2</ele>
        <time>2021-03-25T15:34:36Z</time>
      </trkpt>
      <trkpt lat="42.88561" lon="0.10924">
        <ele>1720.1</ele>
        <time>2021-03-25T15:34:37Z</time>
      </trkpt>
      <trkpt lat="42.88561" lon="0.10924">
        <ele>1720</ele>
        <time>2021-03-25T15:34:38Z</time>
      </trkpt>
      <trkpt lat="42.88562" lon="0.10923">
        <ele>1719.9</ele>
        <time>2021-03-25T15:34:39Z</time>
      </trkpt>
      <trkpt lat="42.88562" lon="0.10922">
        <ele>1719.8</ele>
        <time>2021-03-25T15:34:40Z</time>
      </trkpt>
      <trkpt lat="42.88564" lon="0.1092">
        <ele>1719.5</ele>
        <time>2021-03-25T15:34:42Z</time>
      </trkpt>
      <trkpt lat="42.88565" lon="0.1092">
        <ele>1719.4</ele>
        <time>2021-03-25T15:34:44Z</time>
      </trkpt>
      <trkpt lat="42.88567" lon="0.10919">
        <ele>1719.2</ele>
        <time>2021-03-25T15:34:45Z</time>
      </trkpt>
      <trkpt lat="42.88568" lon="0.10918">
        <ele>1719</ele>
        <time>2021-03-25T15:34:46Z</time>
      </trkpt>
      <trkpt lat="42.8857" lon="0.10918">
        <ele>1718.8</ele>
        <time>2021-03-25T15:34:48Z</time>
      </trkpt>
      <trkpt lat="42.88571" lon="0.10917">
        <ele>1718.6</ele>
        <time>2021-03-25T15:34:49Z</time>
      </trkpt>
      <trkpt lat="42.88575" lon="0.10919">
        <ele>1718.1</ele>
        <time>2021-03-25T15:34:50Z</time>
      </trkpt>
      <trkpt lat="42.88579" lon="0.10921">
        <ele>1717.5</ele>
        <time>2021-03-25T15:34:51Z</time>
      </trkpt>
      <trkpt lat="42.88583" lon="0.10923">
        <ele>1717</ele>
        <time>2021-03-25T15:34:53Z</time>
      </trkpt>
      <trkpt lat="42.88585" lon="0.10924">
        <ele>1716.8</ele>
        <time>2021-03-25T15:34:54Z</time>
      </trkpt>
      <trkpt lat="42.88587" lon="0.10923">
        <ele>1716.6</ele>
        <time>2021-03-25T15:34:56Z</time>
      </trkpt>
      <trkpt lat="42.88589" lon="0.10923">
        <ele>1716.3</ele>
        <time>2021-03-25T15:34:57Z</time>
      </trkpt>
      <trkpt lat="42.88591" lon="0.10923">
        <ele>1716.1</ele>
        <time>2021-03-25T15:34:59Z</time>
      </trkpt>
      <trkpt lat="42.88592" lon="0.10923">
        <ele>1716</ele>
        <time>2021-03-25T15:35:00Z</time>
      </trkpt>
      <trkpt lat="42.88593" lon="0.10923">
        <ele>1715.9</ele>
        <time>2021-03-25T15:35:01Z</time>
      </trkpt>
      <trkpt lat="42.88594" lon="0.10923">
        <ele>1715.7</ele>
        <time>2021-03-25T15:35:02Z</time>
      </trkpt>
      <trkpt lat="42.88595" lon="0.10922">
        <ele>1715.6</ele>
        <time>2021-03-25T15:35:03Z</time>
      </trkpt>
      <trkpt lat="42.88596" lon="0.1092">
        <ele>1715.4</ele>
        <time>2021-03-25T15:35:04Z</time>
      </trkpt>
      <trkpt lat="42.88598" lon="0.10918">
        <ele>1715.2</ele>
        <time>2021-03-25T15:35:06Z</time>
      </trkpt>
      <trkpt lat="42.88599" lon="0.10918">
        <ele>1715</ele>
        <time>2021-03-25T15:35:07Z</time>
      </trkpt>
      <trkpt lat="42.88601" lon="0.10917">
        <ele>1714.8</ele>
        <time>2021-03-25T15:35:08Z</time>
      </trkpt>
      <trkpt lat="42.88601" lon="0.10915">
        <ele>1714.6</ele>
        <time>2021-03-25T15:35:09Z</time>
      </trkpt>
      <trkpt lat="42.88602" lon="0.10913">
        <ele>1714.4</ele>
        <time>2021-03-25T15:35:11Z</time>
      </trkpt>
      <trkpt lat="42.88604" lon="0.10913">
        <ele>1714.2</ele>
        <time>2021-03-25T15:35:12Z</time>
      </trkpt>
      <trkpt lat="42.88606" lon="0.10913">
        <ele>1713.9</ele>
        <time>2021-03-25T15:35:13Z</time>
      </trkpt>
      <trkpt lat="42.88607" lon="0.10913">
        <ele>1713.8</ele>
        <time>2021-03-25T15:35:14Z</time>
      </trkpt>
      <trkpt lat="42.88608" lon="0.10913">
        <ele>1713.7</ele>
        <time>2021-03-25T15:35:15Z</time>
      </trkpt>
      <trkpt lat="42.88609" lon="0.10913">
        <ele>1713.5</ele>
        <time>2021-03-25T15:35:16Z</time>
      </trkpt>
      <trkpt lat="42.88611" lon="0.10912">
        <ele>1713.2</ele>
        <time>2021-03-25T15:35:17Z</time>
      </trkpt>
      <trkpt lat="42.88614" lon="0.10911">
        <ele>1712.8</ele>
        <time>2021-03-25T15:35:19Z</time>
      </trkpt>
      <trkpt lat="42.88615" lon="0.10911">
        <ele>1712.7</ele>
        <time>2021-03-25T15:35:20Z</time>
      </trkpt>
      <trkpt lat="42.88616" lon="0.1091">
        <ele>1712.5</ele>
        <time>2021-03-25T15:35:21Z</time>
      </trkpt>
      <trkpt lat="42.88618" lon="0.1091">
        <ele>1712.3</ele>
        <time>2021-03-25T15:35:22Z</time>
      </trkpt>
      <trkpt lat="42.88619" lon="0.10909">
        <ele>1712.1</ele>
        <time>2021-03-25T15:35:23Z</time>
      </trkpt>
      <trkpt lat="42.8862" lon="0.10909">
        <ele>1711.8</ele>
        <time>2021-03-25T15:35:25Z</time>
      </trkpt>
      <trkpt lat="42.88622" lon="0.10908">
        <ele>1711.6</ele>
        <time>2021-03-25T15:35:26Z</time>
      </trkpt>
      <trkpt lat="42.88623" lon="0.10908">
        <ele>1711.4</ele>
        <time>2021-03-25T15:35:27Z</time>
      </trkpt>
      <trkpt lat="42.88625" lon="0.10908">
        <ele>1711.2</ele>
        <time>2021-03-25T15:35:28Z</time>
      </trkpt>
      <trkpt lat="42.88626" lon="0.10908">
        <ele>1711</ele>
        <time>2021-03-25T15:35:29Z</time>
      </trkpt>
      <trkpt lat="42.88628" lon="0.10907">
        <ele>1710.7</ele>
        <time>2021-03-25T15:35:30Z</time>
      </trkpt>
      <trkpt lat="42.88629" lon="0.10907">
        <ele>1710.5</ele>
        <time>2021-03-25T15:35:31Z</time>
      </trkpt>
      <trkpt lat="42.8863" lon="0.10906">
        <ele>1710.4</ele>
        <time>2021-03-25T15:35:32Z</time>
      </trkpt>
      <trkpt lat="42.88631" lon="0.10906">
        <ele>1710.2</ele>
        <time>2021-03-25T15:35:33Z</time>
      </trkpt>
      <trkpt lat="42.88633" lon="0.10906">
        <ele>1709.9</ele>
        <time>2021-03-25T15:35:35Z</time>
      </trkpt>
      <trkpt lat="42.88634" lon="0.10906">
        <ele>1709.7</ele>
        <time>2021-03-25T15:35:36Z</time>
      </trkpt>
      <trkpt lat="42.88636" lon="0.10905">
        <ele>1709.5</ele>
        <time>2021-03-25T15:35:37Z</time>
      </trkpt>
      <trkpt lat="42.88637" lon="0.10905">
        <ele>1709.3</ele>
        <time>2021-03-25T15:35:38Z</time>
      </trkpt>
      <trkpt lat="42.88639" lon="0.10905">
        <ele>1709</ele>
        <time>2021-03-25T15:35:40Z</time>
      </trkpt>
      <trkpt lat="42.8864" lon="0.10905">
        <ele>1708.8</ele>
        <time>2021-03-25T15:35:41Z</time>
      </trkpt>
      <trkpt lat="42.88641" lon="0.10905">
        <ele>1708.7</ele>
        <time>2021-03-25T15:35:42Z</time>
      </trkpt>
      <trkpt lat="42.88641" lon="0.10905">
        <ele>1708.6</ele>
        <time>2021-03-25T15:35:43Z</time>
      </trkpt>
      <trkpt lat="42.88642" lon="0.10903">
        <ele>1708.4</ele>
        <time>2021-03-25T15:35:44Z</time>
      </trkpt>
      <trkpt lat="42.88643" lon="0.10901">
        <ele>1708.2</ele>
        <time>2021-03-25T15:35:45Z</time>
      </trkpt>
      <trkpt lat="42.88644" lon="0.10899">
        <ele>1708</ele>
        <time>2021-03-25T15:35:46Z</time>
      </trkpt>
      <trkpt lat="42.88645" lon="0.10897">
        <ele>1707.7</ele>
        <time>2021-03-25T15:35:48Z</time>
      </trkpt>
      <trkpt lat="42.88644" lon="0.10895">
        <ele>1707.5</ele>
        <time>2021-03-25T15:35:49Z</time>
      </trkpt>
      <trkpt lat="42.88642" lon="0.10891">
        <ele>1707.1</ele>
        <time>2021-03-25T15:35:50Z</time>
      </trkpt>
      <trkpt lat="42.88641" lon="0.1089">
        <ele>1706.9</ele>
        <time>2021-03-25T15:35:51Z</time>
      </trkpt>
      <trkpt lat="42.88639" lon="0.10887">
        <ele>1706.6</ele>
        <time>2021-03-25T15:35:52Z</time>
      </trkpt>
      <trkpt lat="42.88637" lon="0.10884">
        <ele>1706.3</ele>
        <time>2021-03-25T15:35:53Z</time>
      </trkpt>
      <trkpt lat="42.88635" lon="0.1088">
        <ele>1705.9</ele>
        <time>2021-03-25T15:35:55Z</time>
      </trkpt>
      <trkpt lat="42.88633" lon="0.10876">
        <ele>1705.4</ele>
        <time>2021-03-25T15:35:56Z</time>
      </trkpt>
      <trkpt lat="42.88632" lon="0.10874">
        <ele>1705.3</ele>
        <time>2021-03-25T15:35:57Z</time>
      </trkpt>
      <trkpt lat="42.88631" lon="0.10872">
        <ele>1705.1</ele>
        <time>2021-03-25T15:35:58Z</time>
      </trkpt>
      <trkpt lat="42.88629" lon="0.10867">
        <ele>1704.7</ele>
        <time>2021-03-25T15:36:00Z</time>
      </trkpt>
      <trkpt lat="42.88628" lon="0.10865">
        <ele>1704.5</ele>
        <time>2021-03-25T15:36:01Z</time>
      </trkpt>
      <trkpt lat="42.88627" lon="0.10864">
        <ele>1704.3</ele>
        <time>2021-03-25T15:36:02Z</time>
      </trkpt>
      <trkpt lat="42.88626" lon="0.10861">
        <ele>1704</ele>
        <time>2021-03-25T15:36:03Z</time>
      </trkpt>
      <trkpt lat="42.88624" lon="0.10858">
        <ele>1703.6</ele>
        <time>2021-03-25T15:36:05Z</time>
      </trkpt>
      <trkpt lat="42.88622" lon="0.10855">
        <ele>1703.3</ele>
        <time>2021-03-25T15:36:06Z</time>
      </trkpt>
      <trkpt lat="42.88622" lon="0.10854">
        <ele>1703.2</ele>
        <time>2021-03-25T15:36:07Z</time>
      </trkpt>
      <trkpt lat="42.88621" lon="0.10852">
        <ele>1702.9</ele>
        <time>2021-03-25T15:36:09Z</time>
      </trkpt>
      <trkpt lat="42.8862" lon="0.1085">
        <ele>1702.8</ele>
        <time>2021-03-25T15:36:10Z</time>
      </trkpt>
      <trkpt lat="42.88618" lon="0.10847">
        <ele>1702.4</ele>
        <time>2021-03-25T15:36:11Z</time>
      </trkpt>
      <trkpt lat="42.88617" lon="0.10846">
        <ele>1702.2</ele>
        <time>2021-03-25T15:36:13Z</time>
      </trkpt>
      <trkpt lat="42.88616" lon="0.10843">
        <ele>1701.9</ele>
        <time>2021-03-25T15:36:15Z</time>
      </trkpt>
      <trkpt lat="42.88616" lon="0.10841">
        <ele>1701.8</ele>
        <time>2021-03-25T15:36:16Z</time>
      </trkpt>
      <trkpt lat="42.88616" lon="0.10839">
        <ele>1701.6</ele>
        <time>2021-03-25T15:36:17Z</time>
      </trkpt>
      <trkpt lat="42.88616" lon="0.10837">
        <ele>1701.4</ele>
        <time>2021-03-25T15:36:18Z</time>
      </trkpt>
      <trkpt lat="42.88616" lon="0.10833">
        <ele>1701</ele>
        <time>2021-03-25T15:36:20Z</time>
      </trkpt>
      <trkpt lat="42.88616" lon="0.10832">
        <ele>1700.8</ele>
        <time>2021-03-25T15:36:21Z</time>
      </trkpt>
      <trkpt lat="42.88616" lon="0.10829">
        <ele>1700.6</ele>
        <time>2021-03-25T15:36:23Z</time>
      </trkpt>
      <trkpt lat="42.88616" lon="0.10828">
        <ele>1700.4</ele>
        <time>2021-03-25T15:36:24Z</time>
      </trkpt>
      <trkpt lat="42.88617" lon="0.10826">
        <ele>1700.2</ele>
        <time>2021-03-25T15:36:25Z</time>
      </trkpt>
      <trkpt lat="42.88619" lon="0.10823">
        <ele>1699.8</ele>
        <time>2021-03-25T15:36:27Z</time>
      </trkpt>
      <trkpt lat="42.8862" lon="0.10822">
        <ele>1699.7</ele>
        <time>2021-03-25T15:36:28Z</time>
      </trkpt>
      <trkpt lat="42.88621" lon="0.10822">
        <ele>1699.5</ele>
        <time>2021-03-25T15:36:29Z</time>
      </trkpt>
      <trkpt lat="42.88623" lon="0.10821">
        <ele>1699.3</ele>
        <time>2021-03-25T15:36:30Z</time>
      </trkpt>
      <trkpt lat="42.88625" lon="0.10821">
        <ele>1699.1</ele>
        <time>2021-03-25T15:36:31Z</time>
      </trkpt>
      <trkpt lat="42.88627" lon="0.10821">
        <ele>1698.8</ele>
        <time>2021-03-25T15:36:32Z</time>
      </trkpt>
      <trkpt lat="42.88629" lon="0.10822">
        <ele>1698.5</ele>
        <time>2021-03-25T15:36:34Z</time>
      </trkpt>
      <trkpt lat="42.88631" lon="0.10825">
        <ele>1698.2</ele>
        <time>2021-03-25T15:36:35Z</time>
      </trkpt>
      <trkpt lat="42.88632" lon="0.10827">
        <ele>1697.9</ele>
        <time>2021-03-25T15:36:37Z</time>
      </trkpt>
      <trkpt lat="42.88633" lon="0.10829">
        <ele>1697.7</ele>
        <time>2021-03-25T15:36:38Z</time>
      </trkpt>
      <trkpt lat="42.88634" lon="0.10831">
        <ele>1697.5</ele>
        <time>2021-03-25T15:36:39Z</time>
      </trkpt>
      <trkpt lat="42.88635" lon="0.10833">
        <ele>1697.3</ele>
        <time>2021-03-25T15:36:40Z</time>
      </trkpt>
      <trkpt lat="42.88636" lon="0.10835">
        <ele>1697.1</ele>
        <time>2021-03-25T15:36:41Z</time>
      </trkpt>
      <trkpt lat="42.88637" lon="0.10836">
        <ele>1696.9</ele>
        <time>2021-03-25T15:36:42Z</time>
      </trkpt>
      <trkpt lat="42.88638" lon="0.10838">
        <ele>1696.7</ele>
        <time>2021-03-25T15:36:43Z</time>
      </trkpt>
      <trkpt lat="42.88639" lon="0.10839">
        <ele>1696.5</ele>
        <time>2021-03-25T15:36:44Z</time>
      </trkpt>
      <trkpt lat="42.88641" lon="0.1084">
        <ele>1696.3</ele>
        <time>2021-03-25T15:36:46Z</time>
      </trkpt>
      <trkpt lat="42.88643" lon="0.10841">
        <ele>1696</ele>
        <time>2021-03-25T15:36:47Z</time>
      </trkpt>
      <trkpt lat="42.88646" lon="0.10841">
        <ele>1695.6</ele>
        <time>2021-03-25T15:36:49Z</time>
      </trkpt>
      <trkpt lat="42.88649" lon="0.10841">
        <ele>1695.2</ele>
        <time>2021-03-25T15:36:50Z</time>
      </trkpt>
      <trkpt lat="42.8865" lon="0.10841">
        <ele>1695.2</ele>
        <time>2021-03-25T15:36:51Z</time>
      </trkpt>
      <trkpt lat="42.88651" lon="0.10841">
        <ele>1695</ele>
        <time>2021-03-25T15:36:52Z</time>
      </trkpt>
      <trkpt lat="42.88654" lon="0.10841">
        <ele>1694.7</ele>
        <time>2021-03-25T15:36:54Z</time>
      </trkpt>
      <trkpt lat="42.88656" lon="0.1084">
        <ele>1694.4</ele>
        <time>2021-03-25T15:36:56Z</time>
      </trkpt>
      <trkpt lat="42.88656" lon="0.10839">
        <ele>1694.3</ele>
        <time>2021-03-25T15:36:57Z</time>
      </trkpt>
      <trkpt lat="42.88656" lon="0.10838">
        <ele>1694.2</ele>
        <time>2021-03-25T15:36:58Z</time>
      </trkpt>
      <trkpt lat="42.88655" lon="0.10836">
        <ele>1694.1</ele>
        <time>2021-03-25T15:37:00Z</time>
      </trkpt>
      <trkpt lat="42.88655" lon="0.10836">
        <ele>1694.1</ele>
        <time>2021-03-25T15:37:01Z</time>
      </trkpt>
      <trkpt lat="42.88656" lon="0.10837">
        <ele>1694</ele>
        <time>2021-03-25T15:37:03Z</time>
      </trkpt>
      <trkpt lat="42.88656" lon="0.10838">
        <ele>1693.9</ele>
        <time>2021-03-25T15:37:04Z</time>
      </trkpt>
      <trkpt lat="42.88657" lon="0.10839">
        <ele>1693.8</ele>
        <time>2021-03-25T15:37:06Z</time>
      </trkpt>
      <trkpt lat="42.88658" lon="0.1084">
        <ele>1693.6</ele>
        <time>2021-03-25T15:37:07Z</time>
      </trkpt>
      <trkpt lat="42.88659" lon="0.10841">
        <ele>1693.5</ele>
        <time>2021-03-25T15:37:08Z</time>
      </trkpt>
      <trkpt lat="42.8866" lon="0.10842">
        <ele>1693.3</ele>
        <time>2021-03-25T15:37:09Z</time>
      </trkpt>
      <trkpt lat="42.88662" lon="0.10842">
        <ele>1693.1</ele>
        <time>2021-03-25T15:37:11Z</time>
      </trkpt>
      <trkpt lat="42.88663" lon="0.10842">
        <ele>1693</ele>
        <time>2021-03-25T15:37:12Z</time>
      </trkpt>
      <trkpt lat="42.88664" lon="0.10842">
        <ele>1692.8</ele>
        <time>2021-03-25T15:37:13Z</time>
      </trkpt>
      <trkpt lat="42.88665" lon="0.10842">
        <ele>1692.7</ele>
        <time>2021-03-25T15:37:14Z</time>
      </trkpt>
      <trkpt lat="42.88667" lon="0.10843">
        <ele>1692.5</ele>
        <time>2021-03-25T15:37:16Z</time>
      </trkpt>
      <trkpt lat="42.88668" lon="0.10844">
        <ele>1692.4</ele>
        <time>2021-03-25T15:37:17Z</time>
      </trkpt>
      <trkpt lat="42.88669" lon="0.10844">
        <ele>1692.3</ele>
        <time>2021-03-25T15:37:18Z</time>
      </trkpt>
      <trkpt lat="42.88671" lon="0.10844">
        <ele>1692</ele>
        <time>2021-03-25T15:37:19Z</time>
      </trkpt>
      <trkpt lat="42.88672" lon="0.10845">
        <ele>1691.9</ele>
        <time>2021-03-25T15:37:20Z</time>
      </trkpt>
      <trkpt lat="42.88672" lon="0.10845">
        <ele>1691.8</ele>
        <time>2021-03-25T15:37:21Z</time>
      </trkpt>
      <trkpt lat="42.88674" lon="0.10845">
        <ele>1691.7</ele>
        <time>2021-03-25T15:37:22Z</time>
      </trkpt>
      <trkpt lat="42.88675" lon="0.10844">
        <ele>1691.5</ele>
        <time>2021-03-25T15:37:24Z</time>
      </trkpt>
      <trkpt lat="42.88676" lon="0.10844">
        <ele>1691.4</ele>
        <time>2021-03-25T15:37:25Z</time>
      </trkpt>
      <trkpt lat="42.88677" lon="0.10845">
        <ele>1691.2</ele>
        <time>2021-03-25T15:37:27Z</time>
      </trkpt>
      <trkpt lat="42.88679" lon="0.10845">
        <ele>1691.1</ele>
        <time>2021-03-25T15:37:28Z</time>
      </trkpt>
      <trkpt lat="42.8868" lon="0.10845">
        <ele>1690.9</ele>
        <time>2021-03-25T15:37:30Z</time>
      </trkpt>
      <trkpt lat="42.88682" lon="0.10845">
        <ele>1690.8</ele>
        <time>2021-03-25T15:37:31Z</time>
      </trkpt>
      <trkpt lat="42.88684" lon="0.10845">
        <ele>1690.5</ele>
        <time>2021-03-25T15:37:32Z</time>
      </trkpt>
      <trkpt lat="42.88685" lon="0.10845">
        <ele>1690.4</ele>
        <time>2021-03-25T15:37:33Z</time>
      </trkpt>
      <trkpt lat="42.88687" lon="0.10845">
        <ele>1690.1</ele>
        <time>2021-03-25T15:37:34Z</time>
      </trkpt>
      <trkpt lat="42.88688" lon="0.10845">
        <ele>1690</ele>
        <time>2021-03-25T15:37:36Z</time>
      </trkpt>
      <trkpt lat="42.88689" lon="0.10845">
        <ele>1689.9</ele>
        <time>2021-03-25T15:37:37Z</time>
      </trkpt>
      <trkpt lat="42.8869" lon="0.10846">
        <ele>1689.8</ele>
        <time>2021-03-25T15:37:38Z</time>
      </trkpt>
      <trkpt lat="42.88691" lon="0.10847">
        <ele>1689.6</ele>
        <time>2021-03-25T15:37:39Z</time>
      </trkpt>
      <trkpt lat="42.88693" lon="0.10848">
        <ele>1689.4</ele>
        <time>2021-03-25T15:37:41Z</time>
      </trkpt>
      <trkpt lat="42.88694" lon="0.10848">
        <ele>1689.3</ele>
        <time>2021-03-25T15:37:42Z</time>
      </trkpt>
      <trkpt lat="42.88695" lon="0.10849">
        <ele>1689.1</ele>
        <time>2021-03-25T15:37:43Z</time>
      </trkpt>
      <trkpt lat="42.88696" lon="0.10849">
        <ele>1689</ele>
        <time>2021-03-25T15:37:44Z</time>
      </trkpt>
      <trkpt lat="42.88697" lon="0.10849">
        <ele>1688.9</ele>
        <time>2021-03-25T15:37:45Z</time>
      </trkpt>
      <trkpt lat="42.88698" lon="0.10849">
        <ele>1688.7</ele>
        <time>2021-03-25T15:37:46Z</time>
      </trkpt>
      <trkpt lat="42.887" lon="0.10849">
        <ele>1688.5</ele>
        <time>2021-03-25T15:37:48Z</time>
      </trkpt>
      <trkpt lat="42.88702" lon="0.10849">
        <ele>1688.2</ele>
        <time>2021-03-25T15:37:49Z</time>
      </trkpt>
      <trkpt lat="42.88703" lon="0.10849">
        <ele>1688.1</ele>
        <time>2021-03-25T15:37:50Z</time>
      </trkpt>
      <trkpt lat="42.88705" lon="0.10848">
        <ele>1687.9</ele>
        <time>2021-03-25T15:37:52Z</time>
      </trkpt>
      <trkpt lat="42.88706" lon="0.10847">
        <ele>1687.7</ele>
        <time>2021-03-25T15:37:53Z</time>
      </trkpt>
      <trkpt lat="42.88708" lon="0.10847">
        <ele>1687.5</ele>
        <time>2021-03-25T15:37:54Z</time>
      </trkpt>
      <trkpt lat="42.88709" lon="0.10845">
        <ele>1687.3</ele>
        <time>2021-03-25T15:37:56Z</time>
      </trkpt>
      <trkpt lat="42.8871" lon="0.10844">
        <ele>1687.2</ele>
        <time>2021-03-25T15:37:57Z</time>
      </trkpt>
      <trkpt lat="42.88711" lon="0.10843">
        <ele>1687</ele>
        <time>2021-03-25T15:37:58Z</time>
      </trkpt>
      <trkpt lat="42.88713" lon="0.10842">
        <ele>1686.8</ele>
        <time>2021-03-25T15:38:00Z</time>
      </trkpt>
      <trkpt lat="42.88716" lon="0.10842">
        <ele>1686.4</ele>
        <time>2021-03-25T15:38:02Z</time>
      </trkpt>
      <trkpt lat="42.88717" lon="0.10842">
        <ele>1686.2</ele>
        <time>2021-03-25T15:38:03Z</time>
      </trkpt>
      <trkpt lat="42.88719" lon="0.10842">
        <ele>1686.1</ele>
        <time>2021-03-25T15:38:04Z</time>
      </trkpt>
      <trkpt lat="42.88721" lon="0.10843">
        <ele>1685.8</ele>
        <time>2021-03-25T15:38:05Z</time>
      </trkpt>
      <trkpt lat="42.88721" lon="0.10844">
        <ele>1685.7</ele>
        <time>2021-03-25T15:38:06Z</time>
      </trkpt>
      <trkpt lat="42.88722" lon="0.10845">
        <ele>1685.6</ele>
        <time>2021-03-25T15:38:07Z</time>
      </trkpt>
      <trkpt lat="42.88724" lon="0.10845">
        <ele>1685.4</ele>
        <time>2021-03-25T15:38:08Z</time>
      </trkpt>
      <trkpt lat="42.88725" lon="0.10845">
        <ele>1685.3</ele>
        <time>2021-03-25T15:38:10Z</time>
      </trkpt>
      <trkpt lat="42.88726" lon="0.10844">
        <ele>1685.1</ele>
        <time>2021-03-25T15:38:12Z</time>
      </trkpt>
      <trkpt lat="42.88727" lon="0.10843">
        <ele>1684.9</ele>
        <time>2021-03-25T15:38:13Z</time>
      </trkpt>
      <trkpt lat="42.88729" lon="0.10842">
        <ele>1684.8</ele>
        <time>2021-03-25T15:38:14Z</time>
      </trkpt>
      <trkpt lat="42.8873" lon="0.10841">
        <ele>1684.6</ele>
        <time>2021-03-25T15:38:15Z</time>
      </trkpt>
      <trkpt lat="42.88732" lon="0.10841">
        <ele>1684.4</ele>
        <time>2021-03-25T15:38:17Z</time>
      </trkpt>
      <trkpt lat="42.88733" lon="0.10841">
        <ele>1684.3</ele>
        <time>2021-03-25T15:38:18Z</time>
      </trkpt>
      <trkpt lat="42.88734" lon="0.10841">
        <ele>1684.1</ele>
        <time>2021-03-25T15:38:19Z</time>
      </trkpt>
      <trkpt lat="42.88736" lon="0.1084">
        <ele>1683.9</ele>
        <time>2021-03-25T15:38:21Z</time>
      </trkpt>
      <trkpt lat="42.88738" lon="0.1084">
        <ele>1683.7</ele>
        <time>2021-03-25T15:38:22Z</time>
      </trkpt>
      <trkpt lat="42.88739" lon="0.10839">
        <ele>1683.6</ele>
        <time>2021-03-25T15:38:23Z</time>
      </trkpt>
      <trkpt lat="42.8874" lon="0.10838">
        <ele>1683.4</ele>
        <time>2021-03-25T15:38:24Z</time>
      </trkpt>
      <trkpt lat="42.88741" lon="0.10838">
        <ele>1683.3</ele>
        <time>2021-03-25T15:38:25Z</time>
      </trkpt>
      <trkpt lat="42.88743" lon="0.10839">
        <ele>1683.2</ele>
        <time>2021-03-25T15:38:27Z</time>
      </trkpt>
      <trkpt lat="42.88744" lon="0.10839">
        <ele>1683</ele>
        <time>2021-03-25T15:38:28Z</time>
      </trkpt>
      <trkpt lat="42.88746" lon="0.10839">
        <ele>1682.8</ele>
        <time>2021-03-25T15:38:30Z</time>
      </trkpt>
      <trkpt lat="42.88747" lon="0.1084">
        <ele>1682.6</ele>
        <time>2021-03-25T15:38:31Z</time>
      </trkpt>
      <trkpt lat="42.88749" lon="0.1084">
        <ele>1682.5</ele>
        <time>2021-03-25T15:38:32Z</time>
      </trkpt>
      <trkpt lat="42.88751" lon="0.10839">
        <ele>1682.2</ele>
        <time>2021-03-25T15:38:33Z</time>
      </trkpt>
      <trkpt lat="42.88752" lon="0.10839">
        <ele>1682.1</ele>
        <time>2021-03-25T15:38:35Z</time>
      </trkpt>
      <trkpt lat="42.88754" lon="0.10839">
        <ele>1681.9</ele>
        <time>2021-03-25T15:38:36Z</time>
      </trkpt>
      <trkpt lat="42.88755" lon="0.10839">
        <ele>1681.8</ele>
        <time>2021-03-25T15:38:37Z</time>
      </trkpt>
      <trkpt lat="42.88756" lon="0.10839">
        <ele>1681.7</ele>
        <time>2021-03-25T15:38:38Z</time>
      </trkpt>
      <trkpt lat="42.88757" lon="0.10839">
        <ele>1681.5</ele>
        <time>2021-03-25T15:38:39Z</time>
      </trkpt>
      <trkpt lat="42.88759" lon="0.10838">
        <ele>1681.3</ele>
        <time>2021-03-25T15:38:40Z</time>
      </trkpt>
      <trkpt lat="42.88761" lon="0.10837">
        <ele>1681.1</ele>
        <time>2021-03-25T15:38:42Z</time>
      </trkpt>
      <trkpt lat="42.88762" lon="0.10837">
        <ele>1681</ele>
        <time>2021-03-25T15:38:43Z</time>
      </trkpt>
      <trkpt lat="42.88762" lon="0.10837">
        <ele>1680.9</ele>
        <time>2021-03-25T15:38:44Z</time>
      </trkpt>
      <trkpt lat="42.88764" lon="0.10837">
        <ele>1680.8</ele>
        <time>2021-03-25T15:38:45Z</time>
      </trkpt>
      <trkpt lat="42.88765" lon="0.10837">
        <ele>1680.6</ele>
        <time>2021-03-25T15:38:46Z</time>
      </trkpt>
      <trkpt lat="42.88766" lon="0.10837">
        <ele>1680.5</ele>
        <time>2021-03-25T15:38:47Z</time>
      </trkpt>
      <trkpt lat="42.88768" lon="0.10836">
        <ele>1680.3</ele>
        <time>2021-03-25T15:38:48Z</time>
      </trkpt>
      <trkpt lat="42.88769" lon="0.10836">
        <ele>1680.2</ele>
        <time>2021-03-25T15:38:49Z</time>
      </trkpt>
      <trkpt lat="42.8877" lon="0.10836">
        <ele>1680.1</ele>
        <time>2021-03-25T15:38:50Z</time>
      </trkpt>
      <trkpt lat="42.88771" lon="0.10836">
        <ele>1679.9</ele>
        <time>2021-03-25T15:38:51Z</time>
      </trkpt>
      <trkpt lat="42.88773" lon="0.10835">
        <ele>1679.7</ele>
        <time>2021-03-25T15:38:53Z</time>
      </trkpt>
      <trkpt lat="42.88774" lon="0.10834">
        <ele>1679.6</ele>
        <time>2021-03-25T15:38:54Z</time>
      </trkpt>
      <trkpt lat="42.88776" lon="0.10834">
        <ele>1679.3</ele>
        <time>2021-03-25T15:38:56Z</time>
      </trkpt>
      <trkpt lat="42.88778" lon="0.10833">
        <ele>1679.1</ele>
        <time>2021-03-25T15:38:57Z</time>
      </trkpt>
      <trkpt lat="42.88779" lon="0.10833">
        <ele>1678.9</ele>
        <time>2021-03-25T15:38:58Z</time>
      </trkpt>
      <trkpt lat="42.88781" lon="0.10832">
        <ele>1678.8</ele>
        <time>2021-03-25T15:38:59Z</time>
      </trkpt>
      <trkpt lat="42.88782" lon="0.10831">
        <ele>1678.6</ele>
        <time>2021-03-25T15:39:00Z</time>
      </trkpt>
      <trkpt lat="42.88784" lon="0.10831">
        <ele>1678.4</ele>
        <time>2021-03-25T15:39:01Z</time>
      </trkpt>
      <trkpt lat="42.88785" lon="0.1083">
        <ele>1678.2</ele>
        <time>2021-03-25T15:39:02Z</time>
      </trkpt>
      <trkpt lat="42.88786" lon="0.10829">
        <ele>1678.1</ele>
        <time>2021-03-25T15:39:03Z</time>
      </trkpt>
      <trkpt lat="42.88788" lon="0.10828">
        <ele>1677.9</ele>
        <time>2021-03-25T15:39:05Z</time>
      </trkpt>
      <trkpt lat="42.88789" lon="0.10828">
        <ele>1677.8</ele>
        <time>2021-03-25T15:39:06Z</time>
      </trkpt>
      <trkpt lat="42.8879" lon="0.10827">
        <ele>1677.6</ele>
        <time>2021-03-25T15:39:07Z</time>
      </trkpt>
      <trkpt lat="42.88792" lon="0.10826">
        <ele>1677.4</ele>
        <time>2021-03-25T15:39:08Z</time>
      </trkpt>
      <trkpt lat="42.88793" lon="0.10826">
        <ele>1677.2</ele>
        <time>2021-03-25T15:39:10Z</time>
      </trkpt>
      <trkpt lat="42.88795" lon="0.10825">
        <ele>1677.1</ele>
        <time>2021-03-25T15:39:11Z</time>
      </trkpt>
      <trkpt lat="42.88796" lon="0.10824">
        <ele>1676.9</ele>
        <time>2021-03-25T15:39:13Z</time>
      </trkpt>
      <trkpt lat="42.88798" lon="0.10824">
        <ele>1676.8</ele>
        <time>2021-03-25T15:39:14Z</time>
      </trkpt>
      <trkpt lat="42.888" lon="0.10823">
        <ele>1676.5</ele>
        <time>2021-03-25T15:39:15Z</time>
      </trkpt>
      <trkpt lat="42.88801" lon="0.10822">
        <ele>1676.4</ele>
        <time>2021-03-25T15:39:16Z</time>
      </trkpt>
      <trkpt lat="42.88802" lon="0.10822">
        <ele>1676.3</ele>
        <time>2021-03-25T15:39:17Z</time>
      </trkpt>
      <trkpt lat="42.88803" lon="0.10822">
        <ele>1676.1</ele>
        <time>2021-03-25T15:39:18Z</time>
      </trkpt>
      <trkpt lat="42.88805" lon="0.10822">
        <ele>1675.9</ele>
        <time>2021-03-25T15:39:19Z</time>
      </trkpt>
      <trkpt lat="42.88808" lon="0.10821">
        <ele>1675.6</ele>
        <time>2021-03-25T15:39:21Z</time>
      </trkpt>
      <trkpt lat="42.88809" lon="0.10821">
        <ele>1675.6</ele>
        <time>2021-03-25T15:39:22Z</time>
      </trkpt>
      <trkpt lat="42.8881" lon="0.1082">
        <ele>1675.4</ele>
        <time>2021-03-25T15:39:24Z</time>
      </trkpt>
      <trkpt lat="42.88812" lon="0.10821">
        <ele>1675.2</ele>
        <time>2021-03-25T15:39:25Z</time>
      </trkpt>
      <trkpt lat="42.88813" lon="0.10822">
        <ele>1675.1</ele>
        <time>2021-03-25T15:39:26Z</time>
      </trkpt>
      <trkpt lat="42.88814" lon="0.10823">
        <ele>1674.9</ele>
        <time>2021-03-25T15:39:27Z</time>
      </trkpt>
      <trkpt lat="42.88816" lon="0.10824">
        <ele>1674.7</ele>
        <time>2021-03-25T15:39:28Z</time>
      </trkpt>
      <trkpt lat="42.88818" lon="0.10823">
        <ele>1674.5</ele>
        <time>2021-03-25T15:39:29Z</time>
      </trkpt>
      <trkpt lat="42.8882" lon="0.10822">
        <ele>1674.3</ele>
        <time>2021-03-25T15:39:30Z</time>
      </trkpt>
      <trkpt lat="42.88821" lon="0.10822">
        <ele>1674.2</ele>
        <time>2021-03-25T15:39:32Z</time>
      </trkpt>
      <trkpt lat="42.88822" lon="0.10821">
        <ele>1674.1</ele>
        <time>2021-03-25T15:39:33Z</time>
      </trkpt>
      <trkpt lat="42.88824" lon="0.10821">
        <ele>1673.9</ele>
        <time>2021-03-25T15:39:34Z</time>
      </trkpt>
      <trkpt lat="42.88825" lon="0.1082">
        <ele>1673.8</ele>
        <time>2021-03-25T15:39:36Z</time>
      </trkpt>
      <trkpt lat="42.88827" lon="0.1082">
        <ele>1673.6</ele>
        <time>2021-03-25T15:39:37Z</time>
      </trkpt>
      <trkpt lat="42.88829" lon="0.10819">
        <ele>1673.5</ele>
        <time>2021-03-25T15:39:38Z</time>
      </trkpt>
      <trkpt lat="42.8883" lon="0.10818">
        <ele>1673.3</ele>
        <time>2021-03-25T15:39:39Z</time>
      </trkpt>
      <trkpt lat="42.88832" lon="0.10817">
        <ele>1673.1</ele>
        <time>2021-03-25T15:39:41Z</time>
      </trkpt>
      <trkpt lat="42.88832" lon="0.10816">
        <ele>1673.1</ele>
        <time>2021-03-25T15:39:42Z</time>
      </trkpt>
      <trkpt lat="42.88833" lon="0.10816">
        <ele>1673</ele>
        <time>2021-03-25T15:39:43Z</time>
      </trkpt>
      <trkpt lat="42.88834" lon="0.10815">
        <ele>1672.9</ele>
        <time>2021-03-25T15:39:44Z</time>
      </trkpt>
      <trkpt lat="42.88837" lon="0.10815">
        <ele>1672.7</ele>
        <time>2021-03-25T15:39:45Z</time>
      </trkpt>
      <trkpt lat="42.88838" lon="0.10814">
        <ele>1672.6</ele>
        <time>2021-03-25T15:39:46Z</time>
      </trkpt>
      <trkpt lat="42.8884" lon="0.10814">
        <ele>1672.5</ele>
        <time>2021-03-25T15:39:48Z</time>
      </trkpt>
      <trkpt lat="42.88841" lon="0.10813">
        <ele>1672.3</ele>
        <time>2021-03-25T15:39:49Z</time>
      </trkpt>
      <trkpt lat="42.88843" lon="0.10811">
        <ele>1672.2</ele>
        <time>2021-03-25T15:39:50Z</time>
      </trkpt>
      <trkpt lat="42.88843" lon="0.10811">
        <ele>1672.1</ele>
        <time>2021-03-25T15:39:51Z</time>
      </trkpt>
      <trkpt lat="42.88844" lon="0.1081">
        <ele>1672</ele>
        <time>2021-03-25T15:39:52Z</time>
      </trkpt>
      <trkpt lat="42.88844" lon="0.1081">
        <ele>1672</ele>
        <time>2021-03-25T15:39:53Z</time>
      </trkpt>
      <trkpt lat="42.88846" lon="0.10808">
        <ele>1671.8</ele>
        <time>2021-03-25T15:39:55Z</time>
      </trkpt>
      <trkpt lat="42.88847" lon="0.10808">
        <ele>1671.8</ele>
        <time>2021-03-25T15:39:56Z</time>
      </trkpt>
      <trkpt lat="42.88848" lon="0.10807">
        <ele>1671.6</ele>
        <time>2021-03-25T15:39:57Z</time>
      </trkpt>
      <trkpt lat="42.88849" lon="0.10807">
        <ele>1671.5</ele>
        <time>2021-03-25T15:39:58Z</time>
      </trkpt>
      <trkpt lat="42.8885" lon="0.10807">
        <ele>1671.4</ele>
        <time>2021-03-25T15:39:59Z</time>
      </trkpt>
      <trkpt lat="42.88851" lon="0.10806">
        <ele>1671.3</ele>
        <time>2021-03-25T15:40:00Z</time>
      </trkpt>
      <trkpt lat="42.88853" lon="0.10806">
        <ele>1671.2</ele>
        <time>2021-03-25T15:40:02Z</time>
      </trkpt>
      <trkpt lat="42.88854" lon="0.10805">
        <ele>1671.1</ele>
        <time>2021-03-25T15:40:03Z</time>
      </trkpt>
      <trkpt lat="42.88856" lon="0.10805">
        <ele>1670.9</ele>
        <time>2021-03-25T15:40:05Z</time>
      </trkpt>
      <trkpt lat="42.88857" lon="0.10804">
        <ele>1670.8</ele>
        <time>2021-03-25T15:40:06Z</time>
      </trkpt>
      <trkpt lat="42.88858" lon="0.10803">
        <ele>1670.7</ele>
        <time>2021-03-25T15:40:07Z</time>
      </trkpt>
      <trkpt lat="42.88859" lon="0.10803">
        <ele>1670.6</ele>
        <time>2021-03-25T15:40:08Z</time>
      </trkpt>
      <trkpt lat="42.88861" lon="0.10802">
        <ele>1670.4</ele>
        <time>2021-03-25T15:40:09Z</time>
      </trkpt>
      <trkpt lat="42.88862" lon="0.10801">
        <ele>1670.4</ele>
        <time>2021-03-25T15:40:10Z</time>
      </trkpt>
      <trkpt lat="42.88863" lon="0.10801">
        <ele>1670.3</ele>
        <time>2021-03-25T15:40:11Z</time>
      </trkpt>
      <trkpt lat="42.88863" lon="0.108">
        <ele>1670.2</ele>
        <time>2021-03-25T15:40:13Z</time>
      </trkpt>
      <trkpt lat="42.88865" lon="0.10798">
        <ele>1670</ele>
        <time>2021-03-25T15:40:14Z</time>
      </trkpt>
      <trkpt lat="42.88867" lon="0.10797">
        <ele>1669.9</ele>
        <time>2021-03-25T15:40:15Z</time>
      </trkpt>
      <trkpt lat="42.88869" lon="0.10796">
        <ele>1669.7</ele>
        <time>2021-03-25T15:40:17Z</time>
      </trkpt>
      <trkpt lat="42.8887" lon="0.10796">
        <ele>1669.6</ele>
        <time>2021-03-25T15:40:18Z</time>
      </trkpt>
      <trkpt lat="42.88871" lon="0.10794">
        <ele>1669.4</ele>
        <time>2021-03-25T15:40:19Z</time>
      </trkpt>
      <trkpt lat="42.88873" lon="0.10793">
        <ele>1669.3</ele>
        <time>2021-03-25T15:40:20Z</time>
      </trkpt>
      <trkpt lat="42.88873" lon="0.10791">
        <ele>1669.2</ele>
        <time>2021-03-25T15:40:21Z</time>
      </trkpt>
      <trkpt lat="42.88874" lon="0.1079">
        <ele>1669.1</ele>
        <time>2021-03-25T15:40:22Z</time>
      </trkpt>
      <trkpt lat="42.88875" lon="0.10789">
        <ele>1669</ele>
        <time>2021-03-25T15:40:23Z</time>
      </trkpt>
      <trkpt lat="42.88878" lon="0.10788">
        <ele>1668.8</ele>
        <time>2021-03-25T15:40:25Z</time>
      </trkpt>
      <trkpt lat="42.8888" lon="0.10788">
        <ele>1668.6</ele>
        <time>2021-03-25T15:40:26Z</time>
      </trkpt>
      <trkpt lat="42.88881" lon="0.10789">
        <ele>1668.5</ele>
        <time>2021-03-25T15:40:27Z</time>
      </trkpt>
      <trkpt lat="42.88882" lon="0.10789">
        <ele>1668.4</ele>
        <time>2021-03-25T15:40:28Z</time>
      </trkpt>
      <trkpt lat="42.88883" lon="0.10789">
        <ele>1668.3</ele>
        <time>2021-03-25T15:40:29Z</time>
      </trkpt>
      <trkpt lat="42.88885" lon="0.10789">
        <ele>1668.1</ele>
        <time>2021-03-25T15:40:31Z</time>
      </trkpt>
      <trkpt lat="42.88887" lon="0.10789">
        <ele>1668</ele>
        <time>2021-03-25T15:40:32Z</time>
      </trkpt>
      <trkpt lat="42.88888" lon="0.10789">
        <ele>1667.9</ele>
        <time>2021-03-25T15:40:33Z</time>
      </trkpt>
      <trkpt lat="42.8889" lon="0.10788">
        <ele>1667.7</ele>
        <time>2021-03-25T15:40:34Z</time>
      </trkpt>
      <trkpt lat="42.88891" lon="0.10788">
        <ele>1667.7</ele>
        <time>2021-03-25T15:40:35Z</time>
      </trkpt>
      <trkpt lat="42.88892" lon="0.10788">
        <ele>1667.6</ele>
        <time>2021-03-25T15:40:36Z</time>
      </trkpt>
      <trkpt lat="42.88894" lon="0.10788">
        <ele>1667.5</ele>
        <time>2021-03-25T15:40:37Z</time>
      </trkpt>
      <trkpt lat="42.88895" lon="0.10788">
        <ele>1667.3</ele>
        <time>2021-03-25T15:40:38Z</time>
      </trkpt>
      <trkpt lat="42.88898" lon="0.10786">
        <ele>1667.1</ele>
        <time>2021-03-25T15:40:39Z</time>
      </trkpt>
      <trkpt lat="42.88899" lon="0.10786">
        <ele>1667</ele>
        <time>2021-03-25T15:40:40Z</time>
      </trkpt>
      <trkpt lat="42.88902" lon="0.10784">
        <ele>1666.8</ele>
        <time>2021-03-25T15:40:41Z</time>
      </trkpt>
      <trkpt lat="42.88902" lon="0.10783">
        <ele>1666.7</ele>
        <time>2021-03-25T15:40:42Z</time>
      </trkpt>
      <trkpt lat="42.88904" lon="0.10782">
        <ele>1666.6</ele>
        <time>2021-03-25T15:40:44Z</time>
      </trkpt>
      <trkpt lat="42.88906" lon="0.10782">
        <ele>1666.4</ele>
        <time>2021-03-25T15:40:45Z</time>
      </trkpt>
      <trkpt lat="42.88907" lon="0.10782">
        <ele>1666.3</ele>
        <time>2021-03-25T15:40:46Z</time>
      </trkpt>
      <trkpt lat="42.88909" lon="0.10781">
        <ele>1666.2</ele>
        <time>2021-03-25T15:40:47Z</time>
      </trkpt>
      <trkpt lat="42.8891" lon="0.1078">
        <ele>1666.1</ele>
        <time>2021-03-25T15:40:48Z</time>
      </trkpt>
      <trkpt lat="42.88911" lon="0.10779">
        <ele>1666</ele>
        <time>2021-03-25T15:40:49Z</time>
      </trkpt>
      <trkpt lat="42.88912" lon="0.10778">
        <ele>1665.9</ele>
        <time>2021-03-25T15:40:50Z</time>
      </trkpt>
      <trkpt lat="42.88913" lon="0.10777">
        <ele>1665.8</ele>
        <time>2021-03-25T15:40:51Z</time>
      </trkpt>
      <trkpt lat="42.88913" lon="0.10776">
        <ele>1665.7</ele>
        <time>2021-03-25T15:40:52Z</time>
      </trkpt>
      <trkpt lat="42.88914" lon="0.10775">
        <ele>1665.6</ele>
        <time>2021-03-25T15:40:53Z</time>
      </trkpt>
      <trkpt lat="42.88915" lon="0.10774">
        <ele>1665.6</ele>
        <time>2021-03-25T15:40:54Z</time>
      </trkpt>
      <trkpt lat="42.88916" lon="0.10773">
        <ele>1665.5</ele>
        <time>2021-03-25T15:40:55Z</time>
      </trkpt>
      <trkpt lat="42.88917" lon="0.10772">
        <ele>1665.4</ele>
        <time>2021-03-25T15:40:56Z</time>
      </trkpt>
      <trkpt lat="42.88917" lon="0.10769">
        <ele>1665.2</ele>
        <time>2021-03-25T15:40:58Z</time>
      </trkpt>
      <trkpt lat="42.88918" lon="0.10768">
        <ele>1665.1</ele>
        <time>2021-03-25T15:40:59Z</time>
      </trkpt>
      <trkpt lat="42.88918" lon="0.10767">
        <ele>1665.1</ele>
        <time>2021-03-25T15:41:00Z</time>
      </trkpt>
      <trkpt lat="42.88919" lon="0.10766">
        <ele>1664.9</ele>
        <time>2021-03-25T15:41:01Z</time>
      </trkpt>
      <trkpt lat="42.8892" lon="0.10765">
        <ele>1664.8</ele>
        <time>2021-03-25T15:41:02Z</time>
      </trkpt>
      <trkpt lat="42.88923" lon="0.10763">
        <ele>1664.6</ele>
        <time>2021-03-25T15:41:04Z</time>
      </trkpt>
      <trkpt lat="42.88924" lon="0.10763">
        <ele>1664.5</ele>
        <time>2021-03-25T15:41:05Z</time>
      </trkpt>
      <trkpt lat="42.88925" lon="0.10763">
        <ele>1664.4</ele>
        <time>2021-03-25T15:41:06Z</time>
      </trkpt>
      <trkpt lat="42.88927" lon="0.10762">
        <ele>1664.2</ele>
        <time>2021-03-25T15:41:07Z</time>
      </trkpt>
      <trkpt lat="42.88929" lon="0.10762">
        <ele>1664.1</ele>
        <time>2021-03-25T15:41:08Z</time>
      </trkpt>
      <trkpt lat="42.8893" lon="0.10761">
        <ele>1664</ele>
        <time>2021-03-25T15:41:09Z</time>
      </trkpt>
      <trkpt lat="42.88932" lon="0.10761">
        <ele>1663.8</ele>
        <time>2021-03-25T15:41:10Z</time>
      </trkpt>
      <trkpt lat="42.88933" lon="0.10761">
        <ele>1663.7</ele>
        <time>2021-03-25T15:41:11Z</time>
      </trkpt>
      <trkpt lat="42.88935" lon="0.1076">
        <ele>1663.6</ele>
        <time>2021-03-25T15:41:12Z</time>
      </trkpt>
      <trkpt lat="42.88936" lon="0.1076">
        <ele>1663.5</ele>
        <time>2021-03-25T15:41:13Z</time>
      </trkpt>
      <trkpt lat="42.88938" lon="0.10759">
        <ele>1663.3</ele>
        <time>2021-03-25T15:41:15Z</time>
      </trkpt>
      <trkpt lat="42.88939" lon="0.10759">
        <ele>1663.2</ele>
        <time>2021-03-25T15:41:16Z</time>
      </trkpt>
      <trkpt lat="42.88942" lon="0.10757">
        <ele>1663</ele>
        <time>2021-03-25T15:41:17Z</time>
      </trkpt>
      <trkpt lat="42.88943" lon="0.10757">
        <ele>1662.9</ele>
        <time>2021-03-25T15:41:18Z</time>
      </trkpt>
      <trkpt lat="42.88944" lon="0.10756">
        <ele>1662.8</ele>
        <time>2021-03-25T15:41:19Z</time>
      </trkpt>
      <trkpt lat="42.88945" lon="0.10755">
        <ele>1662.7</ele>
        <time>2021-03-25T15:41:20Z</time>
      </trkpt>
      <trkpt lat="42.88947" lon="0.10755">
        <ele>1662.5</ele>
        <time>2021-03-25T15:41:21Z</time>
      </trkpt>
      <trkpt lat="42.88949" lon="0.10755">
        <ele>1662.4</ele>
        <time>2021-03-25T15:41:23Z</time>
      </trkpt>
      <trkpt lat="42.8895" lon="0.10755">
        <ele>1662.3</ele>
        <time>2021-03-25T15:41:24Z</time>
      </trkpt>
      <trkpt lat="42.88952" lon="0.10755">
        <ele>1662.2</ele>
        <time>2021-03-25T15:41:25Z</time>
      </trkpt>
      <trkpt lat="42.88953" lon="0.10755">
        <ele>1662.1</ele>
        <time>2021-03-25T15:41:26Z</time>
      </trkpt>
      <trkpt lat="42.88954" lon="0.10755">
        <ele>1662</ele>
        <time>2021-03-25T15:41:27Z</time>
      </trkpt>
      <trkpt lat="42.88956" lon="0.10755">
        <ele>1661.8</ele>
        <time>2021-03-25T15:41:28Z</time>
      </trkpt>
      <trkpt lat="42.88957" lon="0.10755">
        <ele>1661.7</ele>
        <time>2021-03-25T15:41:30Z</time>
      </trkpt>
      <trkpt lat="42.88959" lon="0.10755">
        <ele>1661.6</ele>
        <time>2021-03-25T15:41:31Z</time>
      </trkpt>
      <trkpt lat="42.8896" lon="0.10754">
        <ele>1661.5</ele>
        <time>2021-03-25T15:41:32Z</time>
      </trkpt>
      <trkpt lat="42.88962" lon="0.10754">
        <ele>1661.3</ele>
        <time>2021-03-25T15:41:33Z</time>
      </trkpt>
      <trkpt lat="42.88963" lon="0.10753">
        <ele>1661.1</ele>
        <time>2021-03-25T15:41:34Z</time>
      </trkpt>
      <trkpt lat="42.88965" lon="0.10752">
        <ele>1661</ele>
        <time>2021-03-25T15:41:35Z</time>
      </trkpt>
      <trkpt lat="42.88968" lon="0.1075">
        <ele>1660.7</ele>
        <time>2021-03-25T15:41:37Z</time>
      </trkpt>
      <trkpt lat="42.88968" lon="0.10749">
        <ele>1660.6</ele>
        <time>2021-03-25T15:41:38Z</time>
      </trkpt>
      <trkpt lat="42.88969" lon="0.10747">
        <ele>1660.5</ele>
        <time>2021-03-25T15:41:39Z</time>
      </trkpt>
      <trkpt lat="42.88971" lon="0.10746">
        <ele>1660.3</ele>
        <time>2021-03-25T15:41:40Z</time>
      </trkpt>
      <trkpt lat="42.88972" lon="0.10745">
        <ele>1660.2</ele>
        <time>2021-03-25T15:41:41Z</time>
      </trkpt>
      <trkpt lat="42.88973" lon="0.10744">
        <ele>1660.1</ele>
        <time>2021-03-25T15:41:42Z</time>
      </trkpt>
      <trkpt lat="42.88975" lon="0.10743">
        <ele>1659.9</ele>
        <time>2021-03-25T15:41:44Z</time>
      </trkpt>
      <trkpt lat="42.88977" lon="0.10743">
        <ele>1659.8</ele>
        <time>2021-03-25T15:41:45Z</time>
      </trkpt>
      <trkpt lat="42.88978" lon="0.10744">
        <ele>1659.6</ele>
        <time>2021-03-25T15:41:46Z</time>
      </trkpt>
      <trkpt lat="42.8898" lon="0.10744">
        <ele>1659.5</ele>
        <time>2021-03-25T15:41:47Z</time>
      </trkpt>
      <trkpt lat="42.88981" lon="0.10744">
        <ele>1659.4</ele>
        <time>2021-03-25T15:41:48Z</time>
      </trkpt>
      <trkpt lat="42.88982" lon="0.10744">
        <ele>1659.3</ele>
        <time>2021-03-25T15:41:49Z</time>
      </trkpt>
      <trkpt lat="42.88985" lon="0.10744">
        <ele>1659.1</ele>
        <time>2021-03-25T15:41:51Z</time>
      </trkpt>
      <trkpt lat="42.88986" lon="0.10745">
        <ele>1658.9</ele>
        <time>2021-03-25T15:41:52Z</time>
      </trkpt>
      <trkpt lat="42.88988" lon="0.10746">
        <ele>1658.8</ele>
        <time>2021-03-25T15:41:53Z</time>
      </trkpt>
      <trkpt lat="42.88989" lon="0.10747">
        <ele>1658.6</ele>
        <time>2021-03-25T15:41:54Z</time>
      </trkpt>
      <trkpt lat="42.8899" lon="0.10748">
        <ele>1658.5</ele>
        <time>2021-03-25T15:41:55Z</time>
      </trkpt>
      <trkpt lat="42.88993" lon="0.10751">
        <ele>1658.2</ele>
        <time>2021-03-25T15:41:57Z</time>
      </trkpt>
      <trkpt lat="42.88994" lon="0.10753">
        <ele>1658</ele>
        <time>2021-03-25T15:41:58Z</time>
      </trkpt>
      <trkpt lat="42.88997" lon="0.10755">
        <ele>1657.8</ele>
        <time>2021-03-25T15:42:00Z</time>
      </trkpt>
      <trkpt lat="42.88998" lon="0.10756">
        <ele>1657.6</ele>
        <time>2021-03-25T15:42:01Z</time>
      </trkpt>
      <trkpt lat="42.89" lon="0.10756">
        <ele>1657.5</ele>
        <time>2021-03-25T15:42:02Z</time>
      </trkpt>
      <trkpt lat="42.89002" lon="0.10755">
        <ele>1657.3</ele>
        <time>2021-03-25T15:42:03Z</time>
      </trkpt>
      <trkpt lat="42.89002" lon="0.10755">
        <ele>1657.2</ele>
        <time>2021-03-25T15:42:04Z</time>
      </trkpt>
      <trkpt lat="42.89003" lon="0.10754">
        <ele>1657.2</ele>
        <time>2021-03-25T15:42:05Z</time>
      </trkpt>
      <trkpt lat="42.89004" lon="0.10753">
        <ele>1657</ele>
        <time>2021-03-25T15:42:06Z</time>
      </trkpt>
      <trkpt lat="42.89006" lon="0.10753">
        <ele>1656.9</ele>
        <time>2021-03-25T15:42:07Z</time>
      </trkpt>
      <trkpt lat="42.89007" lon="0.10754">
        <ele>1656.8</ele>
        <time>2021-03-25T15:42:08Z</time>
      </trkpt>
      <trkpt lat="42.89009" lon="0.10755">
        <ele>1656.6</ele>
        <time>2021-03-25T15:42:09Z</time>
      </trkpt>
      <trkpt lat="42.8901" lon="0.10755">
        <ele>1656.5</ele>
        <time>2021-03-25T15:42:11Z</time>
      </trkpt>
      <trkpt lat="42.89011" lon="0.10755">
        <ele>1656.4</ele>
        <time>2021-03-25T15:42:12Z</time>
      </trkpt>
      <trkpt lat="42.89012" lon="0.10755">
        <ele>1656.2</ele>
        <time>2021-03-25T15:42:13Z</time>
      </trkpt>
      <trkpt lat="42.89013" lon="0.10756">
        <ele>1656.1</ele>
        <time>2021-03-25T15:42:14Z</time>
      </trkpt>
      <trkpt lat="42.89015" lon="0.10755">
        <ele>1656</ele>
        <time>2021-03-25T15:42:15Z</time>
      </trkpt>
      <trkpt lat="42.89016" lon="0.10756">
        <ele>1655.8</ele>
        <time>2021-03-25T15:42:16Z</time>
      </trkpt>
      <trkpt lat="42.89018" lon="0.10756">
        <ele>1655.6</ele>
        <time>2021-03-25T15:42:18Z</time>
      </trkpt>
      <trkpt lat="42.89019" lon="0.10755">
        <ele>1655.4</ele>
        <time>2021-03-25T15:42:19Z</time>
      </trkpt>
      <trkpt lat="42.89022" lon="0.10755">
        <ele>1655.2</ele>
        <time>2021-03-25T15:42:20Z</time>
      </trkpt>
      <trkpt lat="42.89024" lon="0.10755">
        <ele>1654.9</ele>
        <time>2021-03-25T15:42:22Z</time>
      </trkpt>
      <trkpt lat="42.89026" lon="0.10754">
        <ele>1654.8</ele>
        <time>2021-03-25T15:42:23Z</time>
      </trkpt>
      <trkpt lat="42.89027" lon="0.10754">
        <ele>1654.6</ele>
        <time>2021-03-25T15:42:24Z</time>
      </trkpt>
      <trkpt lat="42.89029" lon="0.10753">
        <ele>1654.4</ele>
        <time>2021-03-25T15:42:25Z</time>
      </trkpt>
      <trkpt lat="42.89031" lon="0.10753">
        <ele>1654.2</ele>
        <time>2021-03-25T15:42:26Z</time>
      </trkpt>
      <trkpt lat="42.89032" lon="0.10753">
        <ele>1654.1</ele>
        <time>2021-03-25T15:42:27Z</time>
      </trkpt>
      <trkpt lat="42.89034" lon="0.10753">
        <ele>1653.9</ele>
        <time>2021-03-25T15:42:29Z</time>
      </trkpt>
      <trkpt lat="42.89035" lon="0.10752">
        <ele>1653.8</ele>
        <time>2021-03-25T15:42:30Z</time>
      </trkpt>
      <trkpt lat="42.89037" lon="0.10751">
        <ele>1653.6</ele>
        <time>2021-03-25T15:42:31Z</time>
      </trkpt>
      <trkpt lat="42.89038" lon="0.1075">
        <ele>1653.5</ele>
        <time>2021-03-25T15:42:32Z</time>
      </trkpt>
      <trkpt lat="42.89039" lon="0.1075">
        <ele>1653.4</ele>
        <time>2021-03-25T15:42:33Z</time>
      </trkpt>
      <trkpt lat="42.89041" lon="0.10749">
        <ele>1653.2</ele>
        <time>2021-03-25T15:42:34Z</time>
      </trkpt>
      <trkpt lat="42.89042" lon="0.10749">
        <ele>1653.1</ele>
        <time>2021-03-25T15:42:35Z</time>
      </trkpt>
      <trkpt lat="42.89043" lon="0.10749">
        <ele>1653</ele>
        <time>2021-03-25T15:42:36Z</time>
      </trkpt>
      <trkpt lat="42.89045" lon="0.1075">
        <ele>1652.8</ele>
        <time>2021-03-25T15:42:37Z</time>
      </trkpt>
      <trkpt lat="42.89047" lon="0.1075">
        <ele>1652.6</ele>
        <time>2021-03-25T15:42:39Z</time>
      </trkpt>
      <trkpt lat="42.89048" lon="0.10751">
        <ele>1652.5</ele>
        <time>2021-03-25T15:42:40Z</time>
      </trkpt>
      <trkpt lat="42.8905" lon="0.10752">
        <ele>1652.4</ele>
        <time>2021-03-25T15:42:41Z</time>
      </trkpt>
      <trkpt lat="42.89051" lon="0.10752">
        <ele>1652.2</ele>
        <time>2021-03-25T15:42:42Z</time>
      </trkpt>
      <trkpt lat="42.89052" lon="0.10753">
        <ele>1652.1</ele>
        <time>2021-03-25T15:42:43Z</time>
      </trkpt>
      <trkpt lat="42.89054" lon="0.10754">
        <ele>1651.9</ele>
        <time>2021-03-25T15:42:45Z</time>
      </trkpt>
      <trkpt lat="42.89056" lon="0.10753">
        <ele>1651.7</ele>
        <time>2021-03-25T15:42:46Z</time>
      </trkpt>
      <trkpt lat="42.89057" lon="0.10752">
        <ele>1651.6</ele>
        <time>2021-03-25T15:42:47Z</time>
      </trkpt>
      <trkpt lat="42.89058" lon="0.10752">
        <ele>1651.5</ele>
        <time>2021-03-25T15:42:48Z</time>
      </trkpt>
      <trkpt lat="42.8906" lon="0.10751">
        <ele>1651.3</ele>
        <time>2021-03-25T15:42:50Z</time>
      </trkpt>
      <trkpt lat="42.89061" lon="0.1075">
        <ele>1651.2</ele>
        <time>2021-03-25T15:42:51Z</time>
      </trkpt>
      <trkpt lat="42.89061" lon="0.10746">
        <ele>1650.9</ele>
        <time>2021-03-25T15:42:52Z</time>
      </trkpt>
      <trkpt lat="42.89061" lon="0.10743">
        <ele>1650.7</ele>
        <time>2021-03-25T15:42:53Z</time>
      </trkpt>
      <trkpt lat="42.89061" lon="0.10742">
        <ele>1650.6</ele>
        <time>2021-03-25T15:42:54Z</time>
      </trkpt>
      <trkpt lat="42.8906" lon="0.1074">
        <ele>1650.5</ele>
        <time>2021-03-25T15:42:56Z</time>
      </trkpt>
      <trkpt lat="42.89059" lon="0.1074">
        <ele>1650.4</ele>
        <time>2021-03-25T15:42:57Z</time>
      </trkpt>
      <trkpt lat="42.89059" lon="0.10739">
        <ele>1650.3</ele>
        <time>2021-03-25T15:42:59Z</time>
      </trkpt>
      <trkpt lat="42.8906" lon="0.10739">
        <ele>1650.3</ele>
        <time>2021-03-25T15:43:00Z</time>
      </trkpt>
      <trkpt lat="42.8906" lon="0.10738">
        <ele>1650.2</ele>
        <time>2021-03-25T15:43:01Z</time>
      </trkpt>
      <trkpt lat="42.89061" lon="0.10738">
        <ele>1650.1</ele>
        <time>2021-03-25T15:43:02Z</time>
      </trkpt>
      <trkpt lat="42.89064" lon="0.10737">
        <ele>1649.9</ele>
        <time>2021-03-25T15:43:03Z</time>
      </trkpt>
      <trkpt lat="42.89064" lon="0.10736">
        <ele>1649.8</ele>
        <time>2021-03-25T15:43:05Z</time>
      </trkpt>
      <trkpt lat="42.89065" lon="0.10736">
        <ele>1649.7</ele>
        <time>2021-03-25T15:43:06Z</time>
      </trkpt>
      <trkpt lat="42.89066" lon="0.10735">
        <ele>1649.6</ele>
        <time>2021-03-25T15:43:07Z</time>
      </trkpt>
      <trkpt lat="42.89067" lon="0.10734">
        <ele>1649.4</ele>
        <time>2021-03-25T15:43:08Z</time>
      </trkpt>
      <trkpt lat="42.89068" lon="0.10733">
        <ele>1649.3</ele>
        <time>2021-03-25T15:43:09Z</time>
      </trkpt>
      <trkpt lat="42.89069" lon="0.10732">
        <ele>1649.2</ele>
        <time>2021-03-25T15:43:10Z</time>
      </trkpt>
      <trkpt lat="42.8907" lon="0.10731">
        <ele>1649.1</ele>
        <time>2021-03-25T15:43:11Z</time>
      </trkpt>
      <trkpt lat="42.89073" lon="0.1073">
        <ele>1648.8</ele>
        <time>2021-03-25T15:43:13Z</time>
      </trkpt>
      <trkpt lat="42.89073" lon="0.10729">
        <ele>1648.7</ele>
        <time>2021-03-25T15:43:14Z</time>
      </trkpt>
      <trkpt lat="42.89076" lon="0.10726">
        <ele>1648.3</ele>
        <time>2021-03-25T15:43:16Z</time>
      </trkpt>
      <trkpt lat="42.89076" lon="0.10725">
        <ele>1648.2</ele>
        <time>2021-03-25T15:43:17Z</time>
      </trkpt>
      <trkpt lat="42.89078" lon="0.10724">
        <ele>1648</ele>
        <time>2021-03-25T15:43:18Z</time>
      </trkpt>
      <trkpt lat="42.89079" lon="0.10723">
        <ele>1647.9</ele>
        <time>2021-03-25T15:43:19Z</time>
      </trkpt>
      <trkpt lat="42.8908" lon="0.10722">
        <ele>1647.7</ele>
        <time>2021-03-25T15:43:20Z</time>
      </trkpt>
      <trkpt lat="42.89082" lon="0.10722">
        <ele>1647.5</ele>
        <time>2021-03-25T15:43:21Z</time>
      </trkpt>
      <trkpt lat="42.89084" lon="0.10722">
        <ele>1647.1</ele>
        <time>2021-03-25T15:43:22Z</time>
      </trkpt>
      <trkpt lat="42.89085" lon="0.10722">
        <ele>1647</ele>
        <time>2021-03-25T15:43:23Z</time>
      </trkpt>
      <trkpt lat="42.89087" lon="0.10722">
        <ele>1646.8</ele>
        <time>2021-03-25T15:43:24Z</time>
      </trkpt>
      <trkpt lat="42.89089" lon="0.10722">
        <ele>1646.6</ele>
        <time>2021-03-25T15:43:25Z</time>
      </trkpt>
      <trkpt lat="42.89092" lon="0.10723">
        <ele>1646.1</ele>
        <time>2021-03-25T15:43:27Z</time>
      </trkpt>
      <trkpt lat="42.89093" lon="0.10724">
        <ele>1646</ele>
        <time>2021-03-25T15:43:28Z</time>
      </trkpt>
      <trkpt lat="42.89095" lon="0.10724">
        <ele>1645.7</ele>
        <time>2021-03-25T15:43:29Z</time>
      </trkpt>
      <trkpt lat="42.89096" lon="0.10724">
        <ele>1645.5</ele>
        <time>2021-03-25T15:43:30Z</time>
      </trkpt>
      <trkpt lat="42.89098" lon="0.10724">
        <ele>1645.3</ele>
        <time>2021-03-25T15:43:31Z</time>
      </trkpt>
      <trkpt lat="42.891" lon="0.10726">
        <ele>1645</ele>
        <time>2021-03-25T15:43:32Z</time>
      </trkpt>
      <trkpt lat="42.89103" lon="0.10728">
        <ele>1644.5</ele>
        <time>2021-03-25T15:43:34Z</time>
      </trkpt>
      <trkpt lat="42.89103" lon="0.10728">
        <ele>1644.5</ele>
        <time>2021-03-25T15:43:35Z</time>
      </trkpt>
      <trkpt lat="42.89105" lon="0.10728">
        <ele>1644.2</ele>
        <time>2021-03-25T15:43:36Z</time>
      </trkpt>
      <trkpt lat="42.89106" lon="0.10728">
        <ele>1644</ele>
        <time>2021-03-25T15:43:37Z</time>
      </trkpt>
      <trkpt lat="42.89107" lon="0.10728">
        <ele>1643.9</ele>
        <time>2021-03-25T15:43:38Z</time>
      </trkpt>
      <trkpt lat="42.89108" lon="0.10728">
        <ele>1643.7</ele>
        <time>2021-03-25T15:43:39Z</time>
      </trkpt>
      <trkpt lat="42.89109" lon="0.10728">
        <ele>1643.5</ele>
        <time>2021-03-25T15:43:40Z</time>
      </trkpt>
      <trkpt lat="42.89111" lon="0.10731">
        <ele>1643.1</ele>
        <time>2021-03-25T15:43:42Z</time>
      </trkpt>
      <trkpt lat="42.89113" lon="0.10732">
        <ele>1642.8</ele>
        <time>2021-03-25T15:43:44Z</time>
      </trkpt>
      <trkpt lat="42.89114" lon="0.10733">
        <ele>1642.5</ele>
        <time>2021-03-25T15:43:45Z</time>
      </trkpt>
      <trkpt lat="42.89117" lon="0.10733">
        <ele>1642.5</ele>
        <time>2021-03-25T15:43:46Z</time>
      </trkpt>
      <trkpt lat="42.89118" lon="0.10733">
        <ele>1642.4</ele>
        <time>2021-03-25T15:43:47Z</time>
      </trkpt>
      <trkpt lat="42.8912" lon="0.10733">
        <ele>1642</ele>
        <time>2021-03-25T15:43:49Z</time>
      </trkpt>
      <trkpt lat="42.89122" lon="0.10733">
        <ele>1641.7</ele>
        <time>2021-03-25T15:43:50Z</time>
      </trkpt>
      <trkpt lat="42.89123" lon="0.10733">
        <ele>1641.3</ele>
        <time>2021-03-25T15:43:51Z</time>
      </trkpt>
      <trkpt lat="42.89124" lon="0.10732">
        <ele>1641</ele>
        <time>2021-03-25T15:43:52Z</time>
      </trkpt>
      <trkpt lat="42.89126" lon="0.10729">
        <ele>1640.5</ele>
        <time>2021-03-25T15:43:53Z</time>
      </trkpt>
      <trkpt lat="42.89126" lon="0.10727">
        <ele>1640.2</ele>
        <time>2021-03-25T15:43:55Z</time>
      </trkpt>
      <trkpt lat="42.89126" lon="0.10725">
        <ele>1639.9</ele>
        <time>2021-03-25T15:43:56Z</time>
      </trkpt>
      <trkpt lat="42.89127" lon="0.10723">
        <ele>1639.6</ele>
        <time>2021-03-25T15:43:57Z</time>
      </trkpt>
      <trkpt lat="42.89128" lon="0.10722">
        <ele>1639.4</ele>
        <time>2021-03-25T15:43:59Z</time>
      </trkpt>
      <trkpt lat="42.89129" lon="0.10722">
        <ele>1639.2</ele>
        <time>2021-03-25T15:44:00Z</time>
      </trkpt>
      <trkpt lat="42.8913" lon="0.10721">
        <ele>1639</ele>
        <time>2021-03-25T15:44:01Z</time>
      </trkpt>
      <trkpt lat="42.89131" lon="0.10719">
        <ele>1638.6</ele>
        <time>2021-03-25T15:44:02Z</time>
      </trkpt>
      <trkpt lat="42.89132" lon="0.10718">
        <ele>1638.5</ele>
        <time>2021-03-25T15:44:03Z</time>
      </trkpt>
      <trkpt lat="42.89133" lon="0.10718">
        <ele>1638.3</ele>
        <time>2021-03-25T15:44:04Z</time>
      </trkpt>
      <trkpt lat="42.89134" lon="0.10717">
        <ele>1638.1</ele>
        <time>2021-03-25T15:44:05Z</time>
      </trkpt>
      <trkpt lat="42.89135" lon="0.10716">
        <ele>1637.8</ele>
        <time>2021-03-25T15:44:06Z</time>
      </trkpt>
      <trkpt lat="42.89137" lon="0.10716">
        <ele>1637.6</ele>
        <time>2021-03-25T15:44:07Z</time>
      </trkpt>
      <trkpt lat="42.89138" lon="0.10715">
        <ele>1637.3</ele>
        <time>2021-03-25T15:44:08Z</time>
      </trkpt>
      <trkpt lat="42.8914" lon="0.10714">
        <ele>1637</ele>
        <time>2021-03-25T15:44:09Z</time>
      </trkpt>
      <trkpt lat="42.89141" lon="0.10713">
        <ele>1636.8</ele>
        <time>2021-03-25T15:44:10Z</time>
      </trkpt>
      <trkpt lat="42.89141" lon="0.10712">
        <ele>1636.7</ele>
        <time>2021-03-25T15:44:11Z</time>
      </trkpt>
      <trkpt lat="42.89143" lon="0.10711">
        <ele>1636.3</ele>
        <time>2021-03-25T15:44:13Z</time>
      </trkpt>
      <trkpt lat="42.89143" lon="0.1071">
        <ele>1636.2</ele>
        <time>2021-03-25T15:44:14Z</time>
      </trkpt>
      <trkpt lat="42.89144" lon="0.10709">
        <ele>1636</ele>
        <time>2021-03-25T15:44:15Z</time>
      </trkpt>
      <trkpt lat="42.89146" lon="0.10708">
        <ele>1635.7</ele>
        <time>2021-03-25T15:44:17Z</time>
      </trkpt>
      <trkpt lat="42.89147" lon="0.10707">
        <ele>1635.4</ele>
        <time>2021-03-25T15:44:18Z</time>
      </trkpt>
      <trkpt lat="42.8915" lon="0.10706">
        <ele>1635</ele>
        <time>2021-03-25T15:44:19Z</time>
      </trkpt>
      <trkpt lat="42.89151" lon="0.10706">
        <ele>1634.9</ele>
        <time>2021-03-25T15:44:20Z</time>
      </trkpt>
      <trkpt lat="42.89152" lon="0.10705">
        <ele>1634.6</ele>
        <time>2021-03-25T15:44:21Z</time>
      </trkpt>
      <trkpt lat="42.89154" lon="0.10703">
        <ele>1634.3</ele>
        <time>2021-03-25T15:44:22Z</time>
      </trkpt>
      <trkpt lat="42.89155" lon="0.10703">
        <ele>1634.1</ele>
        <time>2021-03-25T15:44:23Z</time>
      </trkpt>
      <trkpt lat="42.89157" lon="0.10702">
        <ele>1633.8</ele>
        <time>2021-03-25T15:44:24Z</time>
      </trkpt>
      <trkpt lat="42.8916" lon="0.10701">
        <ele>1633.3</ele>
        <time>2021-03-25T15:44:26Z</time>
      </trkpt>
      <trkpt lat="42.89161" lon="0.10701">
        <ele>1633.2</ele>
        <time>2021-03-25T15:44:27Z</time>
      </trkpt>
      <trkpt lat="42.89162" lon="0.10702">
        <ele>1633</ele>
        <time>2021-03-25T15:44:28Z</time>
      </trkpt>
      <trkpt lat="42.89163" lon="0.10703">
        <ele>1632.7</ele>
        <time>2021-03-25T15:44:29Z</time>
      </trkpt>
      <trkpt lat="42.89165" lon="0.10704">
        <ele>1632.3</ele>
        <time>2021-03-25T15:44:31Z</time>
      </trkpt>
      <trkpt lat="42.89166" lon="0.10704">
        <ele>1632.1</ele>
        <time>2021-03-25T15:44:32Z</time>
      </trkpt>
      <trkpt lat="42.89167" lon="0.10703">
        <ele>1631.9</ele>
        <time>2021-03-25T15:44:33Z</time>
      </trkpt>
      <trkpt lat="42.89168" lon="0.10702">
        <ele>1631.6</ele>
        <time>2021-03-25T15:44:35Z</time>
      </trkpt>
      <trkpt lat="42.89169" lon="0.10701">
        <ele>1631.3</ele>
        <time>2021-03-25T15:44:36Z</time>
      </trkpt>
      <trkpt lat="42.89171" lon="0.107">
        <ele>1631</ele>
        <time>2021-03-25T15:44:37Z</time>
      </trkpt>
      <trkpt lat="42.89172" lon="0.107">
        <ele>1630.7</ele>
        <time>2021-03-25T15:44:39Z</time>
      </trkpt>
      <trkpt lat="42.89174" lon="0.10701">
        <ele>1630.3</ele>
        <time>2021-03-25T15:44:40Z</time>
      </trkpt>
      <trkpt lat="42.89176" lon="0.107">
        <ele>1629.9</ele>
        <time>2021-03-25T15:44:42Z</time>
      </trkpt>
      <trkpt lat="42.89177" lon="0.107">
        <ele>1629.7</ele>
        <time>2021-03-25T15:44:43Z</time>
      </trkpt>
      <trkpt lat="42.89178" lon="0.10699">
        <ele>1629.5</ele>
        <time>2021-03-25T15:44:44Z</time>
      </trkpt>
      <trkpt lat="42.89179" lon="0.10699">
        <ele>1629.2</ele>
        <time>2021-03-25T15:44:46Z</time>
      </trkpt>
      <trkpt lat="42.8918" lon="0.10699">
        <ele>1628.9</ele>
        <time>2021-03-25T15:44:47Z</time>
      </trkpt>
      <trkpt lat="42.89182" lon="0.10699">
        <ele>1628.6</ele>
        <time>2021-03-25T15:44:48Z</time>
      </trkpt>
      <trkpt lat="42.89183" lon="0.107">
        <ele>1628.4</ele>
        <time>2021-03-25T15:44:49Z</time>
      </trkpt>
      <trkpt lat="42.89184" lon="0.107">
        <ele>1628.2</ele>
        <time>2021-03-25T15:44:51Z</time>
      </trkpt>
      <trkpt lat="42.89184" lon="0.10699">
        <ele>1628.1</ele>
        <time>2021-03-25T15:44:52Z</time>
      </trkpt>
      <trkpt lat="42.89186" lon="0.10699">
        <ele>1627.8</ele>
        <time>2021-03-25T15:44:54Z</time>
      </trkpt>
      <trkpt lat="42.89187" lon="0.107">
        <ele>1627.6</ele>
        <time>2021-03-25T15:44:55Z</time>
      </trkpt>
      <trkpt lat="42.89187" lon="0.10701">
        <ele>1627.4</ele>
        <time>2021-03-25T15:44:56Z</time>
      </trkpt>
      <trkpt lat="42.89188" lon="0.10702">
        <ele>1627.2</ele>
        <time>2021-03-25T15:44:57Z</time>
      </trkpt>
      <trkpt lat="42.89189" lon="0.10703">
        <ele>1627</ele>
        <time>2021-03-25T15:44:58Z</time>
      </trkpt>
      <trkpt lat="42.89189" lon="0.10704">
        <ele>1626.8</ele>
        <time>2021-03-25T15:44:59Z</time>
      </trkpt>
      <trkpt lat="42.8919" lon="0.10704">
        <ele>1626.6</ele>
        <time>2021-03-25T15:45:01Z</time>
      </trkpt>
      <trkpt lat="42.89191" lon="0.10704">
        <ele>1626.4</ele>
        <time>2021-03-25T15:45:02Z</time>
      </trkpt>
      <trkpt lat="42.89192" lon="0.10704">
        <ele>1626.2</ele>
        <time>2021-03-25T15:45:04Z</time>
      </trkpt>
      <trkpt lat="42.89193" lon="0.10703">
        <ele>1626</ele>
        <time>2021-03-25T15:45:05Z</time>
      </trkpt>
      <trkpt lat="42.89194" lon="0.10703">
        <ele>1625.8</ele>
        <time>2021-03-25T15:45:06Z</time>
      </trkpt>
      <trkpt lat="42.89196" lon="0.10703">
        <ele>1625.5</ele>
        <time>2021-03-25T15:45:07Z</time>
      </trkpt>
      <trkpt lat="42.89197" lon="0.10703">
        <ele>1625.2</ele>
        <time>2021-03-25T15:45:08Z</time>
      </trkpt>
      <trkpt lat="42.89199" lon="0.10702">
        <ele>1624.9</ele>
        <time>2021-03-25T15:45:10Z</time>
      </trkpt>
      <trkpt lat="42.892" lon="0.10702">
        <ele>1624.7</ele>
        <time>2021-03-25T15:45:11Z</time>
      </trkpt>
      <trkpt lat="42.89201" lon="0.10702">
        <ele>1624.4</ele>
        <time>2021-03-25T15:45:12Z</time>
      </trkpt>
      <trkpt lat="42.89203" lon="0.10702">
        <ele>1624</ele>
        <time>2021-03-25T15:45:14Z</time>
      </trkpt>
      <trkpt lat="42.89204" lon="0.10702">
        <ele>1623.8</ele>
        <time>2021-03-25T15:45:15Z</time>
      </trkpt>
      <trkpt lat="42.89206" lon="0.10702">
        <ele>1623.6</ele>
        <time>2021-03-25T15:45:16Z</time>
      </trkpt>
      <trkpt lat="42.89207" lon="0.10702">
        <ele>1623.4</ele>
        <time>2021-03-25T15:45:17Z</time>
      </trkpt>
      <trkpt lat="42.89208" lon="0.10702">
        <ele>1623.2</ele>
        <time>2021-03-25T15:45:18Z</time>
      </trkpt>
      <trkpt lat="42.89209" lon="0.10701">
        <ele>1622.8</ele>
        <time>2021-03-25T15:45:20Z</time>
      </trkpt>
      <trkpt lat="42.89211" lon="0.10701">
        <ele>1622.6</ele>
        <time>2021-03-25T15:45:21Z</time>
      </trkpt>
      <trkpt lat="42.89212" lon="0.10701">
        <ele>1622.4</ele>
        <time>2021-03-25T15:45:22Z</time>
      </trkpt>
      <trkpt lat="42.89213" lon="0.10701">
        <ele>1622.1</ele>
        <time>2021-03-25T15:45:24Z</time>
      </trkpt>
      <trkpt lat="42.89214" lon="0.10701">
        <ele>1621.9</ele>
        <time>2021-03-25T15:45:25Z</time>
      </trkpt>
      <trkpt lat="42.89215" lon="0.10701">
        <ele>1621.7</ele>
        <time>2021-03-25T15:45:26Z</time>
      </trkpt>
      <trkpt lat="42.89216" lon="0.10702">
        <ele>1621.5</ele>
        <time>2021-03-25T15:45:28Z</time>
      </trkpt>
      <trkpt lat="42.89217" lon="0.10702">
        <ele>1621.4</ele>
        <time>2021-03-25T15:45:29Z</time>
      </trkpt>
      <trkpt lat="42.89218" lon="0.10701">
        <ele>1621.1</ele>
        <time>2021-03-25T15:45:30Z</time>
      </trkpt>
      <trkpt lat="42.89219" lon="0.107">
        <ele>1620.9</ele>
        <time>2021-03-25T15:45:31Z</time>
      </trkpt>
      <trkpt lat="42.8922" lon="0.10699">
        <ele>1620.7</ele>
        <time>2021-03-25T15:45:32Z</time>
      </trkpt>
      <trkpt lat="42.89221" lon="0.10699">
        <ele>1620.5</ele>
        <time>2021-03-25T15:45:33Z</time>
      </trkpt>
      <trkpt lat="42.89223" lon="0.10699">
        <ele>1620.2</ele>
        <time>2021-03-25T15:45:35Z</time>
      </trkpt>
      <trkpt lat="42.89224" lon="0.10698">
        <ele>1620</ele>
        <time>2021-03-25T15:45:36Z</time>
      </trkpt>
      <trkpt lat="42.89225" lon="0.10698">
        <ele>1619.7</ele>
        <time>2021-03-25T15:45:37Z</time>
      </trkpt>
      <trkpt lat="42.89226" lon="0.10698">
        <ele>1619.5</ele>
        <time>2021-03-25T15:45:38Z</time>
      </trkpt>
      <trkpt lat="42.89228" lon="0.10698">
        <ele>1619.2</ele>
        <time>2021-03-25T15:45:40Z</time>
      </trkpt>
      <trkpt lat="42.89229" lon="0.10698">
        <ele>1619.1</ele>
        <time>2021-03-25T15:45:41Z</time>
      </trkpt>
      <trkpt lat="42.89229" lon="0.10697">
        <ele>1618.9</ele>
        <time>2021-03-25T15:45:42Z</time>
      </trkpt>
      <trkpt lat="42.89231" lon="0.10697">
        <ele>1618.6</ele>
        <time>2021-03-25T15:45:44Z</time>
      </trkpt>
      <trkpt lat="42.89231" lon="0.10698">
        <ele>1618.5</ele>
        <time>2021-03-25T15:45:45Z</time>
      </trkpt>
      <trkpt lat="42.89232" lon="0.10697">
        <ele>1618.3</ele>
        <time>2021-03-25T15:45:46Z</time>
      </trkpt>
      <trkpt lat="42.89234" lon="0.10697">
        <ele>1618.1</ele>
        <time>2021-03-25T15:45:48Z</time>
      </trkpt>
      <trkpt lat="42.89235" lon="0.10697">
        <ele>1617.9</ele>
        <time>2021-03-25T15:45:49Z</time>
      </trkpt>
      <trkpt lat="42.89236" lon="0.10697">
        <ele>1617.7</ele>
        <time>2021-03-25T15:45:50Z</time>
      </trkpt>
      <trkpt lat="42.89236" lon="0.10697">
        <ele>1617.7</ele>
        <time>2021-03-25T15:45:51Z</time>
      </trkpt>
      <trkpt lat="42.89236" lon="0.10697">
        <ele>1617.6</ele>
        <time>2021-03-25T15:45:52Z</time>
      </trkpt>
      <trkpt lat="42.89237" lon="0.10697">
        <ele>1617.4</ele>
        <time>2021-03-25T15:45:54Z</time>
      </trkpt>
      <trkpt lat="42.89238" lon="0.10696">
        <ele>1617.3</ele>
        <time>2021-03-25T15:45:55Z</time>
      </trkpt>
      <trkpt lat="42.89238" lon="0.10696">
        <ele>1617.2</ele>
        <time>2021-03-25T15:45:56Z</time>
      </trkpt>
      <trkpt lat="42.89239" lon="0.10696">
        <ele>1617.1</ele>
        <time>2021-03-25T15:45:57Z</time>
      </trkpt>
      <trkpt lat="42.8924" lon="0.10696">
        <ele>1616.9</ele>
        <time>2021-03-25T15:45:58Z</time>
      </trkpt>
      <trkpt lat="42.8924" lon="0.10695">
        <ele>1616.9</ele>
        <time>2021-03-25T15:45:59Z</time>
      </trkpt>
      <trkpt lat="42.89241" lon="0.10694">
        <ele>1616.7</ele>
        <time>2021-03-25T15:46:00Z</time>
      </trkpt>
      <trkpt lat="42.89242" lon="0.10693">
        <ele>1616.5</ele>
        <time>2021-03-25T15:46:02Z</time>
      </trkpt>
      <trkpt lat="42.89242" lon="0.10692">
        <ele>1616.3</ele>
        <time>2021-03-25T15:46:03Z</time>
      </trkpt>
      <trkpt lat="42.89243" lon="0.10691">
        <ele>1616.1</ele>
        <time>2021-03-25T15:46:04Z</time>
      </trkpt>
      <trkpt lat="42.89245" lon="0.10691">
        <ele>1615.8</ele>
        <time>2021-03-25T15:46:06Z</time>
      </trkpt>
      <trkpt lat="42.89246" lon="0.10691">
        <ele>1615.7</ele>
        <time>2021-03-25T15:46:07Z</time>
      </trkpt>
      <trkpt lat="42.89247" lon="0.10691">
        <ele>1615.5</ele>
        <time>2021-03-25T15:46:08Z</time>
      </trkpt>
      <trkpt lat="42.89248" lon="0.10691">
        <ele>1615.3</ele>
        <time>2021-03-25T15:46:09Z</time>
      </trkpt>
      <trkpt lat="42.8925" lon="0.10692">
        <ele>1614.8</ele>
        <time>2021-03-25T15:46:11Z</time>
      </trkpt>
      <trkpt lat="42.89252" lon="0.10693">
        <ele>1614.5</ele>
        <time>2021-03-25T15:46:13Z</time>
      </trkpt>
      <trkpt lat="42.89254" lon="0.10691">
        <ele>1614.1</ele>
        <time>2021-03-25T15:46:14Z</time>
      </trkpt>
      <trkpt lat="42.89254" lon="0.1069">
        <ele>1613.9</ele>
        <time>2021-03-25T15:46:15Z</time>
      </trkpt>
      <trkpt lat="42.89255" lon="0.10689">
        <ele>1613.7</ele>
        <time>2021-03-25T15:46:16Z</time>
      </trkpt>
      <trkpt lat="42.89257" lon="0.10686">
        <ele>1613.1</ele>
        <time>2021-03-25T15:46:17Z</time>
      </trkpt>
      <trkpt lat="42.89258" lon="0.10686">
        <ele>1612.9</ele>
        <time>2021-03-25T15:46:18Z</time>
      </trkpt>
      <trkpt lat="42.89261" lon="0.10685">
        <ele>1612.3</ele>
        <time>2021-03-25T15:46:20Z</time>
      </trkpt>
      <trkpt lat="42.89262" lon="0.10685">
        <ele>1612.1</ele>
        <time>2021-03-25T15:46:21Z</time>
      </trkpt>
      <trkpt lat="42.89264" lon="0.10684">
        <ele>1611.8</ele>
        <time>2021-03-25T15:46:22Z</time>
      </trkpt>
      <trkpt lat="42.89265" lon="0.10684">
        <ele>1611.5</ele>
        <time>2021-03-25T15:46:23Z</time>
      </trkpt>
      <trkpt lat="42.89266" lon="0.10683">
        <ele>1611.2</ele>
        <time>2021-03-25T15:46:24Z</time>
      </trkpt>
      <trkpt lat="42.89267" lon="0.10681">
        <ele>1610.8</ele>
        <time>2021-03-25T15:46:26Z</time>
      </trkpt>
      <trkpt lat="42.89268" lon="0.1068">
        <ele>1610.6</ele>
        <time>2021-03-25T15:46:27Z</time>
      </trkpt>
      <trkpt lat="42.89269" lon="0.10679">
        <ele>1610.4</ele>
        <time>2021-03-25T15:46:28Z</time>
      </trkpt>
      <trkpt lat="42.8927" lon="0.10679">
        <ele>1610.2</ele>
        <time>2021-03-25T15:46:29Z</time>
      </trkpt>
      <trkpt lat="42.89271" lon="0.10678">
        <ele>1610</ele>
        <time>2021-03-25T15:46:31Z</time>
      </trkpt>
      <trkpt lat="42.89272" lon="0.10678">
        <ele>1609.6</ele>
        <time>2021-03-25T15:46:32Z</time>
      </trkpt>
      <trkpt lat="42.89273" lon="0.10679">
        <ele>1609.4</ele>
        <time>2021-03-25T15:46:33Z</time>
      </trkpt>
      <trkpt lat="42.89274" lon="0.1068">
        <ele>1609.1</ele>
        <time>2021-03-25T15:46:34Z</time>
      </trkpt>
      <trkpt lat="42.89275" lon="0.10682">
        <ele>1608.7</ele>
        <time>2021-03-25T15:46:36Z</time>
      </trkpt>
      <trkpt lat="42.89276" lon="0.10682">
        <ele>1608.4</ele>
        <time>2021-03-25T15:46:37Z</time>
      </trkpt>
      <trkpt lat="42.89277" lon="0.10683">
        <ele>1608.1</ele>
        <time>2021-03-25T15:46:38Z</time>
      </trkpt>
      <trkpt lat="42.89278" lon="0.10683">
        <ele>1607.9</ele>
        <time>2021-03-25T15:46:39Z</time>
      </trkpt>
      <trkpt lat="42.89279" lon="0.10684">
        <ele>1607.7</ele>
        <time>2021-03-25T15:46:40Z</time>
      </trkpt>
      <trkpt lat="42.89281" lon="0.10684">
        <ele>1607.4</ele>
        <time>2021-03-25T15:46:42Z</time>
      </trkpt>
      <trkpt lat="42.89282" lon="0.10685">
        <ele>1607.2</ele>
        <time>2021-03-25T15:46:43Z</time>
      </trkpt>
      <trkpt lat="42.89283" lon="0.10685">
        <ele>1606.9</ele>
        <time>2021-03-25T15:46:44Z</time>
      </trkpt>
      <trkpt lat="42.89284" lon="0.10686">
        <ele>1606.7</ele>
        <time>2021-03-25T15:46:46Z</time>
      </trkpt>
      <trkpt lat="42.89284" lon="0.10686">
        <ele>1606.6</ele>
        <time>2021-03-25T15:46:47Z</time>
      </trkpt>
      <trkpt lat="42.89285" lon="0.10686">
        <ele>1606.4</ele>
        <time>2021-03-25T15:46:48Z</time>
      </trkpt>
      <trkpt lat="42.89286" lon="0.10686">
        <ele>1606.2</ele>
        <time>2021-03-25T15:46:49Z</time>
      </trkpt>
      <trkpt lat="42.89287" lon="0.10686">
        <ele>1606</ele>
        <time>2021-03-25T15:46:50Z</time>
      </trkpt>
      <trkpt lat="42.89289" lon="0.10685">
        <ele>1605.7</ele>
        <time>2021-03-25T15:46:52Z</time>
      </trkpt>
      <trkpt lat="42.8929" lon="0.10685">
        <ele>1605.4</ele>
        <time>2021-03-25T15:46:53Z</time>
      </trkpt>
      <trkpt lat="42.89292" lon="0.10684">
        <ele>1605</ele>
        <time>2021-03-25T15:46:55Z</time>
      </trkpt>
      <trkpt lat="42.89293" lon="0.10684">
        <ele>1604.7</ele>
        <time>2021-03-25T15:46:56Z</time>
      </trkpt>
      <trkpt lat="42.89294" lon="0.10684">
        <ele>1604.5</ele>
        <time>2021-03-25T15:46:57Z</time>
      </trkpt>
      <trkpt lat="42.89295" lon="0.10684">
        <ele>1604.2</ele>
        <time>2021-03-25T15:46:58Z</time>
      </trkpt>
      <trkpt lat="42.89296" lon="0.10683">
        <ele>1604</ele>
        <time>2021-03-25T15:46:59Z</time>
      </trkpt>
      <trkpt lat="42.89297" lon="0.10683">
        <ele>1603.8</ele>
        <time>2021-03-25T15:47:00Z</time>
      </trkpt>
      <trkpt lat="42.89299" lon="0.10683">
        <ele>1603.5</ele>
        <time>2021-03-25T15:47:02Z</time>
      </trkpt>
      <trkpt lat="42.893" lon="0.10682">
        <ele>1603.3</ele>
        <time>2021-03-25T15:47:03Z</time>
      </trkpt>
      <trkpt lat="42.89301" lon="0.1068">
        <ele>1602.9</ele>
        <time>2021-03-25T15:47:05Z</time>
      </trkpt>
      <trkpt lat="42.89302" lon="0.10679">
        <ele>1602.6</ele>
        <time>2021-03-25T15:47:06Z</time>
      </trkpt>
      <trkpt lat="42.89303" lon="0.10679">
        <ele>1602.4</ele>
        <time>2021-03-25T15:47:07Z</time>
      </trkpt>
      <trkpt lat="42.89304" lon="0.10679">
        <ele>1602.2</ele>
        <time>2021-03-25T15:47:08Z</time>
      </trkpt>
      <trkpt lat="42.89305" lon="0.10679">
        <ele>1602</ele>
        <time>2021-03-25T15:47:09Z</time>
      </trkpt>
      <trkpt lat="42.89306" lon="0.10679">
        <ele>1601.8</ele>
        <time>2021-03-25T15:47:10Z</time>
      </trkpt>
      <trkpt lat="42.89307" lon="0.10678">
        <ele>1601.6</ele>
        <time>2021-03-25T15:47:11Z</time>
      </trkpt>
      <trkpt lat="42.89308" lon="0.10677">
        <ele>1601.3</ele>
        <time>2021-03-25T15:47:13Z</time>
      </trkpt>
      <trkpt lat="42.89309" lon="0.10676">
        <ele>1601</ele>
        <time>2021-03-25T15:47:14Z</time>
      </trkpt>
      <trkpt lat="42.8931" lon="0.10674">
        <ele>1600.7</ele>
        <time>2021-03-25T15:47:15Z</time>
      </trkpt>
      <trkpt lat="42.89312" lon="0.10672">
        <ele>1600.2</ele>
        <time>2021-03-25T15:47:17Z</time>
      </trkpt>
      <trkpt lat="42.89314" lon="0.10671">
        <ele>1599.9</ele>
        <time>2021-03-25T15:47:18Z</time>
      </trkpt>
      <trkpt lat="42.89315" lon="0.1067">
        <ele>1599.5</ele>
        <time>2021-03-25T15:47:20Z</time>
      </trkpt>
      <trkpt lat="42.89317" lon="0.10669">
        <ele>1599.2</ele>
        <time>2021-03-25T15:47:21Z</time>
      </trkpt>
      <trkpt lat="42.89318" lon="0.10669">
        <ele>1599</ele>
        <time>2021-03-25T15:47:22Z</time>
      </trkpt>
      <trkpt lat="42.89319" lon="0.10669">
        <ele>1598.8</ele>
        <time>2021-03-25T15:47:23Z</time>
      </trkpt>
      <trkpt lat="42.89319" lon="0.1067">
        <ele>1598.7</ele>
        <time>2021-03-25T15:47:24Z</time>
      </trkpt>
      <trkpt lat="42.8932" lon="0.10671">
        <ele>1598.4</ele>
        <time>2021-03-25T15:47:26Z</time>
      </trkpt>
      <trkpt lat="42.89321" lon="0.10672">
        <ele>1598.2</ele>
        <time>2021-03-25T15:47:27Z</time>
      </trkpt>
      <trkpt lat="42.89323" lon="0.10673">
        <ele>1597.8</ele>
        <time>2021-03-25T15:47:28Z</time>
      </trkpt>
      <trkpt lat="42.89324" lon="0.10673">
        <ele>1597.6</ele>
        <time>2021-03-25T15:47:29Z</time>
      </trkpt>
      <trkpt lat="42.89324" lon="0.10674">
        <ele>1597.4</ele>
        <time>2021-03-25T15:47:30Z</time>
      </trkpt>
      <trkpt lat="42.89327" lon="0.10674">
        <ele>1597</ele>
        <time>2021-03-25T15:47:31Z</time>
      </trkpt>
      <trkpt lat="42.89327" lon="0.10674">
        <ele>1596.8</ele>
        <time>2021-03-25T15:47:33Z</time>
      </trkpt>
      <trkpt lat="42.89328" lon="0.10674">
        <ele>1596.7</ele>
        <time>2021-03-25T15:47:34Z</time>
      </trkpt>
      <trkpt lat="42.8933" lon="0.10673">
        <ele>1596.4</ele>
        <time>2021-03-25T15:47:35Z</time>
      </trkpt>
      <trkpt lat="42.89331" lon="0.10672">
        <ele>1596</ele>
        <time>2021-03-25T15:47:37Z</time>
      </trkpt>
      <trkpt lat="42.89332" lon="0.1067">
        <ele>1595.7</ele>
        <time>2021-03-25T15:47:38Z</time>
      </trkpt>
      <trkpt lat="42.89333" lon="0.10669">
        <ele>1595.4</ele>
        <time>2021-03-25T15:47:39Z</time>
      </trkpt>
      <trkpt lat="42.89334" lon="0.10666">
        <ele>1595</ele>
        <time>2021-03-25T15:47:41Z</time>
      </trkpt>
      <trkpt lat="42.89334" lon="0.10664">
        <ele>1594.7</ele>
        <time>2021-03-25T15:47:42Z</time>
      </trkpt>
      <trkpt lat="42.89335" lon="0.10663">
        <ele>1594.3</ele>
        <time>2021-03-25T15:47:44Z</time>
      </trkpt>
      <trkpt lat="42.89336" lon="0.10663">
        <ele>1594.1</ele>
        <time>2021-03-25T15:47:45Z</time>
      </trkpt>
      <trkpt lat="42.89337" lon="0.10663">
        <ele>1593.9</ele>
        <time>2021-03-25T15:47:46Z</time>
      </trkpt>
      <trkpt lat="42.89338" lon="0.10663">
        <ele>1593.7</ele>
        <time>2021-03-25T15:47:47Z</time>
      </trkpt>
      <trkpt lat="42.89339" lon="0.10663">
        <ele>1593.4</ele>
        <time>2021-03-25T15:47:49Z</time>
      </trkpt>
      <trkpt lat="42.8934" lon="0.10663">
        <ele>1593.1</ele>
        <time>2021-03-25T15:47:50Z</time>
      </trkpt>
      <trkpt lat="42.89341" lon="0.10663">
        <ele>1592.8</ele>
        <time>2021-03-25T15:47:51Z</time>
      </trkpt>
      <trkpt lat="42.89343" lon="0.10663">
        <ele>1592.6</ele>
        <time>2021-03-25T15:47:52Z</time>
      </trkpt>
      <trkpt lat="42.89344" lon="0.10663">
        <ele>1592.3</ele>
        <time>2021-03-25T15:47:53Z</time>
      </trkpt>
      <trkpt lat="42.89345" lon="0.10663">
        <ele>1592</ele>
        <time>2021-03-25T15:47:54Z</time>
      </trkpt>
      <trkpt lat="42.89346" lon="0.10664">
        <ele>1591.8</ele>
        <time>2021-03-25T15:47:56Z</time>
      </trkpt>
      <trkpt lat="42.89347" lon="0.10665">
        <ele>1591.5</ele>
        <time>2021-03-25T15:47:57Z</time>
      </trkpt>
      <trkpt lat="42.89348" lon="0.10665">
        <ele>1591.3</ele>
        <time>2021-03-25T15:47:58Z</time>
      </trkpt>
      <trkpt lat="42.89349" lon="0.10666">
        <ele>1591</ele>
        <time>2021-03-25T15:47:59Z</time>
      </trkpt>
      <trkpt lat="42.8935" lon="0.10665">
        <ele>1590.7</ele>
        <time>2021-03-25T15:48:00Z</time>
      </trkpt>
      <trkpt lat="42.89351" lon="0.10664">
        <ele>1590.4</ele>
        <time>2021-03-25T15:48:02Z</time>
      </trkpt>
      <trkpt lat="42.89353" lon="0.10664">
        <ele>1590.1</ele>
        <time>2021-03-25T15:48:03Z</time>
      </trkpt>
      <trkpt lat="42.89354" lon="0.10663">
        <ele>1589.8</ele>
        <time>2021-03-25T15:48:04Z</time>
      </trkpt>
      <trkpt lat="42.89355" lon="0.10662">
        <ele>1589.5</ele>
        <time>2021-03-25T15:48:05Z</time>
      </trkpt>
      <trkpt lat="42.89356" lon="0.10661">
        <ele>1589.2</ele>
        <time>2021-03-25T15:48:07Z</time>
      </trkpt>
      <trkpt lat="42.89357" lon="0.10661">
        <ele>1589</ele>
        <time>2021-03-25T15:48:08Z</time>
      </trkpt>
      <trkpt lat="42.89358" lon="0.10661">
        <ele>1588.7</ele>
        <time>2021-03-25T15:48:09Z</time>
      </trkpt>
      <trkpt lat="42.8936" lon="0.10662">
        <ele>1588.4</ele>
        <time>2021-03-25T15:48:10Z</time>
      </trkpt>
      <trkpt lat="42.89361" lon="0.10662">
        <ele>1588</ele>
        <time>2021-03-25T15:48:12Z</time>
      </trkpt>
      <trkpt lat="42.89363" lon="0.10662">
        <ele>1587.8</ele>
        <time>2021-03-25T15:48:13Z</time>
      </trkpt>
      <trkpt lat="42.89365" lon="0.10663">
        <ele>1587.3</ele>
        <time>2021-03-25T15:48:14Z</time>
      </trkpt>
      <trkpt lat="42.89366" lon="0.10664">
        <ele>1587.1</ele>
        <time>2021-03-25T15:48:16Z</time>
      </trkpt>
      <trkpt lat="42.89367" lon="0.10665">
        <ele>1586.8</ele>
        <time>2021-03-25T15:48:17Z</time>
      </trkpt>
      <trkpt lat="42.89368" lon="0.10665">
        <ele>1586.6</ele>
        <time>2021-03-25T15:48:19Z</time>
      </trkpt>
      <trkpt lat="42.89369" lon="0.10666">
        <ele>1586.3</ele>
        <time>2021-03-25T15:48:20Z</time>
      </trkpt>
      <trkpt lat="42.8937" lon="0.10666">
        <ele>1586</ele>
        <time>2021-03-25T15:48:21Z</time>
      </trkpt>
      <trkpt lat="42.89372" lon="0.10667">
        <ele>1585.8</ele>
        <time>2021-03-25T15:48:22Z</time>
      </trkpt>
      <trkpt lat="42.89373" lon="0.10668">
        <ele>1585.4</ele>
        <time>2021-03-25T15:48:24Z</time>
      </trkpt>
      <trkpt lat="42.89374" lon="0.10669">
        <ele>1585.1</ele>
        <time>2021-03-25T15:48:25Z</time>
      </trkpt>
      <trkpt lat="42.89376" lon="0.1067">
        <ele>1584.8</ele>
        <time>2021-03-25T15:48:26Z</time>
      </trkpt>
      <trkpt lat="42.89377" lon="0.10671">
        <ele>1584.5</ele>
        <time>2021-03-25T15:48:27Z</time>
      </trkpt>
      <trkpt lat="42.89379" lon="0.10671">
        <ele>1584.2</ele>
        <time>2021-03-25T15:48:28Z</time>
      </trkpt>
      <trkpt lat="42.8938" lon="0.1067">
        <ele>1584</ele>
        <time>2021-03-25T15:48:29Z</time>
      </trkpt>
      <trkpt lat="42.89382" lon="0.10668">
        <ele>1583.4</ele>
        <time>2021-03-25T15:48:30Z</time>
      </trkpt>
      <trkpt lat="42.89383" lon="0.10668">
        <ele>1583.2</ele>
        <time>2021-03-25T15:48:32Z</time>
      </trkpt>
      <trkpt lat="42.89384" lon="0.10667">
        <ele>1583</ele>
        <time>2021-03-25T15:48:33Z</time>
      </trkpt>
      <trkpt lat="42.89385" lon="0.10666">
        <ele>1582.8</ele>
        <time>2021-03-25T15:48:34Z</time>
      </trkpt>
      <trkpt lat="42.89386" lon="0.10665">
        <ele>1582.6</ele>
        <time>2021-03-25T15:48:35Z</time>
      </trkpt>
      <trkpt lat="42.89387" lon="0.10665">
        <ele>1582.4</ele>
        <time>2021-03-25T15:48:36Z</time>
      </trkpt>
      <trkpt lat="42.89388" lon="0.10664">
        <ele>1582.2</ele>
        <time>2021-03-25T15:48:37Z</time>
      </trkpt>
      <trkpt lat="42.89389" lon="0.10664">
        <ele>1582</ele>
        <time>2021-03-25T15:48:38Z</time>
      </trkpt>
      <trkpt lat="42.89391" lon="0.10664">
        <ele>1581.6</ele>
        <time>2021-03-25T15:48:40Z</time>
      </trkpt>
      <trkpt lat="42.89392" lon="0.10664">
        <ele>1581.4</ele>
        <time>2021-03-25T15:48:41Z</time>
      </trkpt>
      <trkpt lat="42.89393" lon="0.10664">
        <ele>1581.3</ele>
        <time>2021-03-25T15:48:43Z</time>
      </trkpt>
      <trkpt lat="42.89393" lon="0.10664">
        <ele>1581.1</ele>
        <time>2021-03-25T15:48:44Z</time>
      </trkpt>
      <trkpt lat="42.89394" lon="0.10664">
        <ele>1581</ele>
        <time>2021-03-25T15:48:45Z</time>
      </trkpt>
      <trkpt lat="42.89395" lon="0.10664">
        <ele>1580.9</ele>
        <time>2021-03-25T15:48:46Z</time>
      </trkpt>
      <trkpt lat="42.89396" lon="0.10665">
        <ele>1580.7</ele>
        <time>2021-03-25T15:48:47Z</time>
      </trkpt>
      <trkpt lat="42.89396" lon="0.10666">
        <ele>1580.6</ele>
        <time>2021-03-25T15:48:48Z</time>
      </trkpt>
      <trkpt lat="42.89397" lon="0.10666">
        <ele>1580.4</ele>
        <time>2021-03-25T15:48:49Z</time>
      </trkpt>
      <trkpt lat="42.89398" lon="0.10667">
        <ele>1580.3</ele>
        <time>2021-03-25T15:48:51Z</time>
      </trkpt>
      <trkpt lat="42.89399" lon="0.10667">
        <ele>1580.1</ele>
        <time>2021-03-25T15:48:52Z</time>
      </trkpt>
      <trkpt lat="42.89399" lon="0.10668">
        <ele>1580</ele>
        <time>2021-03-25T15:48:54Z</time>
      </trkpt>
      <trkpt lat="42.894" lon="0.10668">
        <ele>1579.9</ele>
        <time>2021-03-25T15:48:55Z</time>
      </trkpt>
      <trkpt lat="42.89399" lon="0.10668">
        <ele>1579.8</ele>
        <time>2021-03-25T15:48:56Z</time>
      </trkpt>
      <trkpt lat="42.89398" lon="0.10668">
        <ele>1579.7</ele>
        <time>2021-03-25T15:48:58Z</time>
      </trkpt>
      <trkpt lat="42.89399" lon="0.10667">
        <ele>1579.6</ele>
        <time>2021-03-25T15:48:59Z</time>
      </trkpt>
      <trkpt lat="42.89399" lon="0.10667">
        <ele>1579.5</ele>
        <time>2021-03-25T15:49:00Z</time>
      </trkpt>
      <trkpt lat="42.89399" lon="0.10667">
        <ele>1579.5</ele>
        <time>2021-03-25T15:49:01Z</time>
      </trkpt>
      <trkpt lat="42.894" lon="0.10667">
        <ele>1579.3</ele>
        <time>2021-03-25T15:49:02Z</time>
      </trkpt>
      <trkpt lat="42.89401" lon="0.10667">
        <ele>1579.2</ele>
        <time>2021-03-25T15:49:04Z</time>
      </trkpt>
      <trkpt lat="42.89401" lon="0.10668">
        <ele>1579</ele>
        <time>2021-03-25T15:49:05Z</time>
      </trkpt>
      <trkpt lat="42.89402" lon="0.10669">
        <ele>1578.8</ele>
        <time>2021-03-25T15:49:06Z</time>
      </trkpt>
      <trkpt lat="42.89404" lon="0.1067">
        <ele>1578.5</ele>
        <time>2021-03-25T15:49:08Z</time>
      </trkpt>
      <trkpt lat="42.89405" lon="0.1067">
        <ele>1578.3</ele>
        <time>2021-03-25T15:49:09Z</time>
      </trkpt>
      <trkpt lat="42.89406" lon="0.1067">
        <ele>1578.1</ele>
        <time>2021-03-25T15:49:10Z</time>
      </trkpt>
      <trkpt lat="42.89407" lon="0.10671">
        <ele>1577.9</ele>
        <time>2021-03-25T15:49:11Z</time>
      </trkpt>
      <trkpt lat="42.89409" lon="0.10671">
        <ele>1577.6</ele>
        <time>2021-03-25T15:49:13Z</time>
      </trkpt>
      <trkpt lat="42.8941" lon="0.10672">
        <ele>1577.4</ele>
        <time>2021-03-25T15:49:14Z</time>
      </trkpt>
      <trkpt lat="42.89411" lon="0.10674">
        <ele>1577.2</ele>
        <time>2021-03-25T15:49:16Z</time>
      </trkpt>
      <trkpt lat="42.89411" lon="0.10675">
        <ele>1577.1</ele>
        <time>2021-03-25T15:49:17Z</time>
      </trkpt>
      <trkpt lat="42.89411" lon="0.10675">
        <ele>1577</ele>
        <time>2021-03-25T15:49:18Z</time>
      </trkpt>
      <trkpt lat="42.89412" lon="0.10677">
        <ele>1576.7</ele>
        <time>2021-03-25T15:49:20Z</time>
      </trkpt>
      <trkpt lat="42.89413" lon="0.10677">
        <ele>1576.5</ele>
        <time>2021-03-25T15:49:21Z</time>
      </trkpt>
      <trkpt lat="42.89415" lon="0.10678">
        <ele>1576.2</ele>
        <time>2021-03-25T15:49:23Z</time>
      </trkpt>
      <trkpt lat="42.89416" lon="0.10678">
        <ele>1576</ele>
        <time>2021-03-25T15:49:24Z</time>
      </trkpt>
      <trkpt lat="42.89418" lon="0.10678">
        <ele>1575.6</ele>
        <time>2021-03-25T15:49:26Z</time>
      </trkpt>
      <trkpt lat="42.89419" lon="0.10677">
        <ele>1575.3</ele>
        <time>2021-03-25T15:49:27Z</time>
      </trkpt>
      <trkpt lat="42.89421" lon="0.10675">
        <ele>1575</ele>
        <time>2021-03-25T15:49:29Z</time>
      </trkpt>
      <trkpt lat="42.89422" lon="0.10674">
        <ele>1574.8</ele>
        <time>2021-03-25T15:49:30Z</time>
      </trkpt>
      <trkpt lat="42.89423" lon="0.10673">
        <ele>1574.6</ele>
        <time>2021-03-25T15:49:31Z</time>
      </trkpt>
      <trkpt lat="42.89424" lon="0.10672">
        <ele>1574.4</ele>
        <time>2021-03-25T15:49:33Z</time>
      </trkpt>
      <trkpt lat="42.89425" lon="0.10671">
        <ele>1574.1</ele>
        <time>2021-03-25T15:49:34Z</time>
      </trkpt>
      <trkpt lat="42.89426" lon="0.10671">
        <ele>1573.8</ele>
        <time>2021-03-25T15:49:35Z</time>
      </trkpt>
      <trkpt lat="42.89429" lon="0.10671">
        <ele>1573.4</ele>
        <time>2021-03-25T15:49:37Z</time>
      </trkpt>
      <trkpt lat="42.89429" lon="0.1067">
        <ele>1573.3</ele>
        <time>2021-03-25T15:49:38Z</time>
      </trkpt>
      <trkpt lat="42.8943" lon="0.1067">
        <ele>1573.1</ele>
        <time>2021-03-25T15:49:39Z</time>
      </trkpt>
      <trkpt lat="42.89431" lon="0.1067">
        <ele>1572.9</ele>
        <time>2021-03-25T15:49:40Z</time>
      </trkpt>
      <trkpt lat="42.89432" lon="0.1067">
        <ele>1572.7</ele>
        <time>2021-03-25T15:49:41Z</time>
      </trkpt>
      <trkpt lat="42.89433" lon="0.10669">
        <ele>1572.5</ele>
        <time>2021-03-25T15:49:42Z</time>
      </trkpt>
      <trkpt lat="42.89435" lon="0.10668">
        <ele>1572.2</ele>
        <time>2021-03-25T15:49:44Z</time>
      </trkpt>
      <trkpt lat="42.89436" lon="0.10668">
        <ele>1572</ele>
        <time>2021-03-25T15:49:46Z</time>
      </trkpt>
      <trkpt lat="42.89437" lon="0.10667">
        <ele>1571.9</ele>
        <time>2021-03-25T15:49:47Z</time>
      </trkpt>
      <trkpt lat="42.89437" lon="0.10667">
        <ele>1571.7</ele>
        <time>2021-03-25T15:49:48Z</time>
      </trkpt>
      <trkpt lat="42.89438" lon="0.10665">
        <ele>1571.5</ele>
        <time>2021-03-25T15:49:50Z</time>
      </trkpt>
      <trkpt lat="42.89438" lon="0.10663">
        <ele>1571.2</ele>
        <time>2021-03-25T15:49:51Z</time>
      </trkpt>
      <trkpt lat="42.89438" lon="0.10662">
        <ele>1571.1</ele>
        <time>2021-03-25T15:49:52Z</time>
      </trkpt>
      <trkpt lat="42.89439" lon="0.10662">
        <ele>1570.9</ele>
        <time>2021-03-25T15:49:53Z</time>
      </trkpt>
      <trkpt lat="42.8944" lon="0.10662">
        <ele>1570.8</ele>
        <time>2021-03-25T15:49:54Z</time>
      </trkpt>
      <trkpt lat="42.89441" lon="0.10661">
        <ele>1570.5</ele>
        <time>2021-03-25T15:49:55Z</time>
      </trkpt>
      <trkpt lat="42.89443" lon="0.1066">
        <ele>1570.1</ele>
        <time>2021-03-25T15:49:57Z</time>
      </trkpt>
      <trkpt lat="42.89444" lon="0.1066">
        <ele>1569.2</ele>
        <time>2021-03-25T15:49:58Z</time>
      </trkpt>
      <trkpt lat="42.89444" lon="0.10659">
        <ele>1569.1</ele>
        <time>2021-03-25T15:49:59Z</time>
      </trkpt>
      <trkpt lat="42.89444" lon="0.10658">
        <ele>1569</ele>
        <time>2021-03-25T15:50:00Z</time>
      </trkpt>
      <trkpt lat="42.89445" lon="0.10657">
        <ele>1569</ele>
        <time>2021-03-25T15:50:01Z</time>
      </trkpt>
      <trkpt lat="42.89446" lon="0.10655">
        <ele>1567.8</ele>
        <time>2021-03-25T15:50:03Z</time>
      </trkpt>
      <trkpt lat="42.89447" lon="0.10653">
        <ele>1567.7</ele>
        <time>2021-03-25T15:50:04Z</time>
      </trkpt>
      <trkpt lat="42.89448" lon="0.10651">
        <ele>1566.9</ele>
        <time>2021-03-25T15:50:06Z</time>
      </trkpt>
      <trkpt lat="42.89449" lon="0.1065">
        <ele>1566.5</ele>
        <time>2021-03-25T15:50:07Z</time>
      </trkpt>
      <trkpt lat="42.89449" lon="0.10648">
        <ele>1566.4</ele>
        <time>2021-03-25T15:50:08Z</time>
      </trkpt>
      <trkpt lat="42.8945" lon="0.10647">
        <ele>1565.6</ele>
        <time>2021-03-25T15:50:09Z</time>
      </trkpt>
      <trkpt lat="42.8945" lon="0.10646">
        <ele>1565.6</ele>
        <time>2021-03-25T15:50:10Z</time>
      </trkpt>
      <trkpt lat="42.89451" lon="0.10643">
        <ele>1564.8</ele>
        <time>2021-03-25T15:50:11Z</time>
      </trkpt>
      <trkpt lat="42.89451" lon="0.10642">
        <ele>1564.7</ele>
        <time>2021-03-25T15:50:12Z</time>
      </trkpt>
      <trkpt lat="42.89451" lon="0.10641">
        <ele>1564.7</ele>
        <time>2021-03-25T15:50:13Z</time>
      </trkpt>
      <trkpt lat="42.8945" lon="0.10639">
        <ele>1564</ele>
        <time>2021-03-25T15:50:14Z</time>
      </trkpt>
      <trkpt lat="42.89449" lon="0.10637">
        <ele>1563.9</ele>
        <time>2021-03-25T15:50:16Z</time>
      </trkpt>
      <trkpt lat="42.89448" lon="0.10636">
        <ele>1564</ele>
        <time>2021-03-25T15:50:17Z</time>
      </trkpt>
      <trkpt lat="42.89448" lon="0.10635">
        <ele>1564</ele>
        <time>2021-03-25T15:50:18Z</time>
      </trkpt>
      <trkpt lat="42.89447" lon="0.10635">
        <ele>1563.9</ele>
        <time>2021-03-25T15:50:19Z</time>
      </trkpt>
      <trkpt lat="42.89447" lon="0.10634">
        <ele>1563.3</ele>
        <time>2021-03-25T15:50:20Z</time>
      </trkpt>
      <trkpt lat="42.89446" lon="0.10634">
        <ele>1563.2</ele>
        <time>2021-03-25T15:50:21Z</time>
      </trkpt>
      <trkpt lat="42.89445" lon="0.10634">
        <ele>1563.3</ele>
        <time>2021-03-25T15:50:23Z</time>
      </trkpt>
      <trkpt lat="42.89444" lon="0.10635">
        <ele>1563.8</ele>
        <time>2021-03-25T15:50:25Z</time>
      </trkpt>
      <trkpt lat="42.89444" lon="0.10635">
        <ele>1563.7</ele>
        <time>2021-03-25T15:50:27Z</time>
      </trkpt>
      <trkpt lat="42.89443" lon="0.10635">
        <ele>1563.6</ele>
        <time>2021-03-25T15:50:28Z</time>
      </trkpt>
      <trkpt lat="42.89443" lon="0.10635">
        <ele>1563.5</ele>
        <time>2021-03-25T15:50:29Z</time>
      </trkpt>
      <trkpt lat="42.89443" lon="0.10635">
        <ele>1563.4</ele>
        <time>2021-03-25T15:50:31Z</time>
      </trkpt>
      <trkpt lat="42.89443" lon="0.10635">
        <ele>1563.3</ele>
        <time>2021-03-25T15:50:32Z</time>
      </trkpt>
      <trkpt lat="42.89443" lon="0.10635">
        <ele>1563.2</ele>
        <time>2021-03-25T15:50:33Z</time>
      </trkpt>
      <trkpt lat="42.89443" lon="0.10634">
        <ele>1562.6</ele>
        <time>2021-03-25T15:50:35Z</time>
      </trkpt>
      <trkpt lat="42.89443" lon="0.10634">
        <ele>1562.5</ele>
        <time>2021-03-25T15:50:36Z</time>
      </trkpt>
      <trkpt lat="42.89444" lon="0.10633">
        <ele>1562.5</ele>
        <time>2021-03-25T15:50:37Z</time>
      </trkpt>
      <trkpt lat="42.89444" lon="0.10633">
        <ele>1562.4</ele>
        <time>2021-03-25T15:50:39Z</time>
      </trkpt>
      <trkpt lat="42.89445" lon="0.10632">
        <ele>1562.3</ele>
        <time>2021-03-25T15:50:40Z</time>
      </trkpt>
      <trkpt lat="42.89445" lon="0.10632">
        <ele>1562.2</ele>
        <time>2021-03-25T15:50:41Z</time>
      </trkpt>
      <trkpt lat="42.89446" lon="0.10631">
        <ele>1561.9</ele>
        <time>2021-03-25T15:50:42Z</time>
      </trkpt>
      <trkpt lat="42.89448" lon="0.1063">
        <ele>1561.3</ele>
        <time>2021-03-25T15:50:43Z</time>
      </trkpt>
      <trkpt lat="42.89449" lon="0.10629">
        <ele>1561.3</ele>
        <time>2021-03-25T15:50:45Z</time>
      </trkpt>
      <trkpt lat="42.89449" lon="0.10628">
        <ele>1561</ele>
        <time>2021-03-25T15:50:46Z</time>
      </trkpt>
      <trkpt lat="42.8945" lon="0.10627">
        <ele>1560.9</ele>
        <time>2021-03-25T15:50:47Z</time>
      </trkpt>
      <trkpt lat="42.89451" lon="0.10626">
        <ele>1560.8</ele>
        <time>2021-03-25T15:50:48Z</time>
      </trkpt>
      <trkpt lat="42.89453" lon="0.10625">
        <ele>1560.1</ele>
        <time>2021-03-25T15:50:50Z</time>
      </trkpt>
      <trkpt lat="42.89454" lon="0.10624">
        <ele>1560</ele>
        <time>2021-03-25T15:50:51Z</time>
      </trkpt>
      <trkpt lat="42.89455" lon="0.10623">
        <ele>1559.8</ele>
        <time>2021-03-25T15:50:52Z</time>
      </trkpt>
      <trkpt lat="42.89457" lon="0.10622">
        <ele>1559.7</ele>
        <time>2021-03-25T15:50:54Z</time>
      </trkpt>
      <trkpt lat="42.89458" lon="0.10622">
        <ele>1559.1</ele>
        <time>2021-03-25T15:50:55Z</time>
      </trkpt>
      <trkpt lat="42.89459" lon="0.10621">
        <ele>1559</ele>
        <time>2021-03-25T15:50:56Z</time>
      </trkpt>
      <trkpt lat="42.89461" lon="0.10621">
        <ele>1558.9</ele>
        <time>2021-03-25T15:50:58Z</time>
      </trkpt>
      <trkpt lat="42.89462" lon="0.1062">
        <ele>1558.7</ele>
        <time>2021-03-25T15:50:59Z</time>
      </trkpt>
      <trkpt lat="42.89463" lon="0.1062">
        <ele>1558.6</ele>
        <time>2021-03-25T15:51:00Z</time>
      </trkpt>
      <trkpt lat="42.89464" lon="0.1062">
        <ele>1558.5</ele>
        <time>2021-03-25T15:51:01Z</time>
      </trkpt>
      <trkpt lat="42.89465" lon="0.1062">
        <ele>1558.2</ele>
        <time>2021-03-25T15:51:02Z</time>
      </trkpt>
      <trkpt lat="42.89466" lon="0.1062">
        <ele>1558.2</ele>
        <time>2021-03-25T15:51:03Z</time>
      </trkpt>
      <trkpt lat="42.89468" lon="0.1062">
        <ele>1557.9</ele>
        <time>2021-03-25T15:51:05Z</time>
      </trkpt>
      <trkpt lat="42.89469" lon="0.1062">
        <ele>1557.8</ele>
        <time>2021-03-25T15:51:06Z</time>
      </trkpt>
      <trkpt lat="42.89471" lon="0.1062">
        <ele>1557.5</ele>
        <time>2021-03-25T15:51:07Z</time>
      </trkpt>
      <trkpt lat="42.89472" lon="0.1062">
        <ele>1557.4</ele>
        <time>2021-03-25T15:51:08Z</time>
      </trkpt>
      <trkpt lat="42.89474" lon="0.10619">
        <ele>1557.1</ele>
        <time>2021-03-25T15:51:10Z</time>
      </trkpt>
      <trkpt lat="42.89475" lon="0.10618">
        <ele>1557</ele>
        <time>2021-03-25T15:51:11Z</time>
      </trkpt>
      <trkpt lat="42.89476" lon="0.10618">
        <ele>1556.9</ele>
        <time>2021-03-25T15:51:12Z</time>
      </trkpt>
      <trkpt lat="42.89477" lon="0.10619">
        <ele>1556.7</ele>
        <time>2021-03-25T15:51:13Z</time>
      </trkpt>
      <trkpt lat="42.89478" lon="0.10619">
        <ele>1556.6</ele>
        <time>2021-03-25T15:51:14Z</time>
      </trkpt>
      <trkpt lat="42.89478" lon="0.1062">
        <ele>1556.5</ele>
        <time>2021-03-25T15:51:15Z</time>
      </trkpt>
      <trkpt lat="42.89478" lon="0.1062">
        <ele>1556.4</ele>
        <time>2021-03-25T15:51:17Z</time>
      </trkpt>
      <trkpt lat="42.89478" lon="0.10621">
        <ele>1556.3</ele>
        <time>2021-03-25T15:51:18Z</time>
      </trkpt>
      <trkpt lat="42.89478" lon="0.10622">
        <ele>1556.6</ele>
        <time>2021-03-25T15:51:19Z</time>
      </trkpt>
      <trkpt lat="42.89478" lon="0.10623">
        <ele>1556.5</ele>
        <time>2021-03-25T15:51:20Z</time>
      </trkpt>
      <trkpt lat="42.89479" lon="0.10623">
        <ele>1556.5</ele>
        <time>2021-03-25T15:51:21Z</time>
      </trkpt>
      <trkpt lat="42.8948" lon="0.10623">
        <ele>1556.4</ele>
        <time>2021-03-25T15:51:22Z</time>
      </trkpt>
      <trkpt lat="42.89481" lon="0.10622">
        <ele>1556.1</ele>
        <time>2021-03-25T15:51:24Z</time>
      </trkpt>
      <trkpt lat="42.89482" lon="0.10622">
        <ele>1556</ele>
        <time>2021-03-25T15:51:25Z</time>
      </trkpt>
      <trkpt lat="42.89483" lon="0.10623">
        <ele>1555.8</ele>
        <time>2021-03-25T15:51:26Z</time>
      </trkpt>
      <trkpt lat="42.89484" lon="0.10623">
        <ele>1555.7</ele>
        <time>2021-03-25T15:51:27Z</time>
      </trkpt>
      <trkpt lat="42.89485" lon="0.10622">
        <ele>1555.6</ele>
        <time>2021-03-25T15:51:29Z</time>
      </trkpt>
      <trkpt lat="42.89487" lon="0.10621">
        <ele>1555</ele>
        <time>2021-03-25T15:51:30Z</time>
      </trkpt>
      <trkpt lat="42.89488" lon="0.1062">
        <ele>1554.9</ele>
        <time>2021-03-25T15:51:32Z</time>
      </trkpt>
      <trkpt lat="42.89488" lon="0.1062">
        <ele>1554.8</ele>
        <time>2021-03-25T15:51:33Z</time>
      </trkpt>
      <trkpt lat="42.89487" lon="0.10619">
        <ele>1554.8</ele>
        <time>2021-03-25T15:51:34Z</time>
      </trkpt>
      <trkpt lat="42.89486" lon="0.10618">
        <ele>1554.8</ele>
        <time>2021-03-25T15:51:35Z</time>
      </trkpt>
      <trkpt lat="42.89485" lon="0.10616">
        <ele>1554.3</ele>
        <time>2021-03-25T15:51:37Z</time>
      </trkpt>
      <trkpt lat="42.89486" lon="0.10615">
        <ele>1554.2</ele>
        <time>2021-03-25T15:51:38Z</time>
      </trkpt>
      <trkpt lat="42.89487" lon="0.10614">
        <ele>1554</ele>
        <time>2021-03-25T15:51:39Z</time>
      </trkpt>
      <trkpt lat="42.89488" lon="0.10614">
        <ele>1553.9</ele>
        <time>2021-03-25T15:51:40Z</time>
      </trkpt>
      <trkpt lat="42.89489" lon="0.10613">
        <ele>1553.4</ele>
        <time>2021-03-25T15:51:42Z</time>
      </trkpt>
      <trkpt lat="42.8949" lon="0.10612">
        <ele>1553.2</ele>
        <time>2021-03-25T15:51:43Z</time>
      </trkpt>
      <trkpt lat="42.89491" lon="0.10611">
        <ele>1553.1</ele>
        <time>2021-03-25T15:51:44Z</time>
      </trkpt>
      <trkpt lat="42.89492" lon="0.10609">
        <ele>1552.7</ele>
        <time>2021-03-25T15:51:45Z</time>
      </trkpt>
      <trkpt lat="42.89493" lon="0.10608">
        <ele>1552.6</ele>
        <time>2021-03-25T15:51:46Z</time>
      </trkpt>
      <trkpt lat="42.89493" lon="0.10607">
        <ele>1552.4</ele>
        <time>2021-03-25T15:51:47Z</time>
      </trkpt>
      <trkpt lat="42.89494" lon="0.10606">
        <ele>1552.3</ele>
        <time>2021-03-25T15:51:48Z</time>
      </trkpt>
      <trkpt lat="42.89495" lon="0.10606">
        <ele>1552.2</ele>
        <time>2021-03-25T15:51:49Z</time>
      </trkpt>
      <trkpt lat="42.89496" lon="0.10607">
        <ele>1552</ele>
        <time>2021-03-25T15:51:50Z</time>
      </trkpt>
      <trkpt lat="42.89499" lon="0.10609">
        <ele>1552.1</ele>
        <time>2021-03-25T15:51:52Z</time>
      </trkpt>
      <trkpt lat="42.89501" lon="0.1061">
        <ele>1552</ele>
        <time>2021-03-25T15:51:53Z</time>
      </trkpt>
      <trkpt lat="42.89503" lon="0.1061">
        <ele>1551.8</ele>
        <time>2021-03-25T15:51:55Z</time>
      </trkpt>
      <trkpt lat="42.89504" lon="0.10609">
        <ele>1551.7</ele>
        <time>2021-03-25T15:51:56Z</time>
      </trkpt>
      <trkpt lat="42.89506" lon="0.10608">
        <ele>1551.2</ele>
        <time>2021-03-25T15:51:57Z</time>
      </trkpt>
      <trkpt lat="42.89509" lon="0.10606">
        <ele>1550.9</ele>
        <time>2021-03-25T15:51:58Z</time>
      </trkpt>
      <trkpt lat="42.8951" lon="0.10605">
        <ele>1550.9</ele>
        <time>2021-03-25T15:51:59Z</time>
      </trkpt>
      <trkpt lat="42.89511" lon="0.10604">
        <ele>1550.5</ele>
        <time>2021-03-25T15:52:00Z</time>
      </trkpt>
      <trkpt lat="42.89513" lon="0.10601">
        <ele>1550.4</ele>
        <time>2021-03-25T15:52:02Z</time>
      </trkpt>
      <trkpt lat="42.89513" lon="0.106">
        <ele>1550.3</ele>
        <time>2021-03-25T15:52:03Z</time>
      </trkpt>
      <trkpt lat="42.89513" lon="0.10597">
        <ele>1550.2</ele>
        <time>2021-03-25T15:52:05Z</time>
      </trkpt>
      <trkpt lat="42.89513" lon="0.10595">
        <ele>1550.2</ele>
        <time>2021-03-25T15:52:06Z</time>
      </trkpt>
      <trkpt lat="42.89513" lon="0.10593">
        <ele>1550.1</ele>
        <time>2021-03-25T15:52:07Z</time>
      </trkpt>
      <trkpt lat="42.89513" lon="0.10591">
        <ele>1550.1</ele>
        <time>2021-03-25T15:52:08Z</time>
      </trkpt>
      <trkpt lat="42.89514" lon="0.1059">
        <ele>1550</ele>
        <time>2021-03-25T15:52:09Z</time>
      </trkpt>
      <trkpt lat="42.89515" lon="0.10589">
        <ele>1550</ele>
        <time>2021-03-25T15:52:10Z</time>
      </trkpt>
      <trkpt lat="42.89517" lon="0.10588">
        <ele>1549.9</ele>
        <time>2021-03-25T15:52:12Z</time>
      </trkpt>
      <trkpt lat="42.89518" lon="0.10587">
        <ele>1549.8</ele>
        <time>2021-03-25T15:52:13Z</time>
      </trkpt>
      <trkpt lat="42.89519" lon="0.10584">
        <ele>1549.7</ele>
        <time>2021-03-25T15:52:15Z</time>
      </trkpt>
      <trkpt lat="42.8952" lon="0.10584">
        <ele>1549.7</ele>
        <time>2021-03-25T15:52:16Z</time>
      </trkpt>
      <trkpt lat="42.8952" lon="0.10583">
        <ele>1549.7</ele>
        <time>2021-03-25T15:52:17Z</time>
      </trkpt>
      <trkpt lat="42.89521" lon="0.10581">
        <ele>1549.6</ele>
        <time>2021-03-25T15:52:18Z</time>
      </trkpt>
      <trkpt lat="42.89521" lon="0.1058">
        <ele>1549.6</ele>
        <time>2021-03-25T15:52:19Z</time>
      </trkpt>
      <trkpt lat="42.89522" lon="0.10579">
        <ele>1549.5</ele>
        <time>2021-03-25T15:52:20Z</time>
      </trkpt>
      <trkpt lat="42.89523" lon="0.10577">
        <ele>1549.5</ele>
        <time>2021-03-25T15:52:21Z</time>
      </trkpt>
      <trkpt lat="42.89523" lon="0.10576">
        <ele>1549.4</ele>
        <time>2021-03-25T15:52:22Z</time>
      </trkpt>
      <trkpt lat="42.89524" lon="0.10574">
        <ele>1549.4</ele>
        <time>2021-03-25T15:52:23Z</time>
      </trkpt>
      <trkpt lat="42.89524" lon="0.1057">
        <ele>1549.3</ele>
        <time>2021-03-25T15:52:24Z</time>
      </trkpt>
      <trkpt lat="42.89523" lon="0.10568">
        <ele>1549.2</ele>
        <time>2021-03-25T15:52:26Z</time>
      </trkpt>
      <trkpt lat="42.89523" lon="0.10566">
        <ele>1549.1</ele>
        <time>2021-03-25T15:52:27Z</time>
      </trkpt>
      <trkpt lat="42.89522" lon="0.10564">
        <ele>1549.1</ele>
        <time>2021-03-25T15:52:28Z</time>
      </trkpt>
      <trkpt lat="42.89523" lon="0.10562">
        <ele>1549</ele>
        <time>2021-03-25T15:52:29Z</time>
      </trkpt>
      <trkpt lat="42.89524" lon="0.10559">
        <ele>1548.9</ele>
        <time>2021-03-25T15:52:31Z</time>
      </trkpt>
      <trkpt lat="42.89524" lon="0.10557">
        <ele>1548.8</ele>
        <time>2021-03-25T15:52:32Z</time>
      </trkpt>
      <trkpt lat="42.89526" lon="0.10555">
        <ele>1548.8</ele>
        <time>2021-03-25T15:52:33Z</time>
      </trkpt>
      <trkpt lat="42.89529" lon="0.10551">
        <ele>1548.6</ele>
        <time>2021-03-25T15:52:35Z</time>
      </trkpt>
      <trkpt lat="42.8953" lon="0.10549">
        <ele>1548.5</ele>
        <time>2021-03-25T15:52:36Z</time>
      </trkpt>
      <trkpt lat="42.89531" lon="0.10548">
        <ele>1548.5</ele>
        <time>2021-03-25T15:52:37Z</time>
      </trkpt>
      <trkpt lat="42.89533" lon="0.10545">
        <ele>1548.4</ele>
        <time>2021-03-25T15:52:38Z</time>
      </trkpt>
      <trkpt lat="42.89533" lon="0.10544">
        <ele>1548.3</ele>
        <time>2021-03-25T15:52:39Z</time>
      </trkpt>
      <trkpt lat="42.89535" lon="0.10541">
        <ele>1548.2</ele>
        <time>2021-03-25T15:52:40Z</time>
      </trkpt>
      <trkpt lat="42.89535" lon="0.1054">
        <ele>1548.2</ele>
        <time>2021-03-25T15:52:41Z</time>
      </trkpt>
      <trkpt lat="42.89537" lon="0.10536">
        <ele>1548.1</ele>
        <time>2021-03-25T15:52:42Z</time>
      </trkpt>
      <trkpt lat="42.89537" lon="0.10535">
        <ele>1548</ele>
        <time>2021-03-25T15:52:43Z</time>
      </trkpt>
      <trkpt lat="42.89539" lon="0.10531">
        <ele>1547.9</ele>
        <time>2021-03-25T15:52:45Z</time>
      </trkpt>
      <trkpt lat="42.89539" lon="0.1053">
        <ele>1547.9</ele>
        <time>2021-03-25T15:52:46Z</time>
      </trkpt>
      <trkpt lat="42.89541" lon="0.10526">
        <ele>1547.8</ele>
        <time>2021-03-25T15:52:47Z</time>
      </trkpt>
      <trkpt lat="42.89541" lon="0.10525">
        <ele>1547.7</ele>
        <time>2021-03-25T15:52:48Z</time>
      </trkpt>
      <trkpt lat="42.89541" lon="0.10522">
        <ele>1547.7</ele>
        <time>2021-03-25T15:52:49Z</time>
      </trkpt>
      <trkpt lat="42.89541" lon="0.10521">
        <ele>1547.6</ele>
        <time>2021-03-25T15:52:51Z</time>
      </trkpt>
      <trkpt lat="42.89541" lon="0.1052">
        <ele>1547.6</ele>
        <time>2021-03-25T15:52:52Z</time>
      </trkpt>
      <trkpt lat="42.89541" lon="0.10518">
        <ele>1547.6</ele>
        <time>2021-03-25T15:52:53Z</time>
      </trkpt>
      <trkpt lat="42.89541" lon="0.10517">
        <ele>1547.6</ele>
        <time>2021-03-25T15:52:54Z</time>
      </trkpt>
      <trkpt lat="42.89541" lon="0.10516">
        <ele>1547.5</ele>
        <time>2021-03-25T15:52:55Z</time>
      </trkpt>
      <trkpt lat="42.89541" lon="0.10514">
        <ele>1547.5</ele>
        <time>2021-03-25T15:52:56Z</time>
      </trkpt>
      <trkpt lat="42.89541" lon="0.10513">
        <ele>1547.4</ele>
        <time>2021-03-25T15:52:57Z</time>
      </trkpt>
      <trkpt lat="42.8954" lon="0.10511">
        <ele>1547.4</ele>
        <time>2021-03-25T15:52:58Z</time>
      </trkpt>
      <trkpt lat="42.89539" lon="0.1051">
        <ele>1547.4</ele>
        <time>2021-03-25T15:52:59Z</time>
      </trkpt>
      <trkpt lat="42.89539" lon="0.10509">
        <ele>1547.3</ele>
        <time>2021-03-25T15:53:00Z</time>
      </trkpt>
      <trkpt lat="42.89539" lon="0.10508">
        <ele>1547.3</ele>
        <time>2021-03-25T15:53:02Z</time>
      </trkpt>
      <trkpt lat="42.8954" lon="0.10506">
        <ele>1547.3</ele>
        <time>2021-03-25T15:53:03Z</time>
      </trkpt>
      <trkpt lat="42.8954" lon="0.10504">
        <ele>1547.2</ele>
        <time>2021-03-25T15:53:04Z</time>
      </trkpt>
      <trkpt lat="42.89539" lon="0.10503">
        <ele>1547.2</ele>
        <time>2021-03-25T15:53:06Z</time>
      </trkpt>
      <trkpt lat="42.89539" lon="0.10502">
        <ele>1547.2</ele>
        <time>2021-03-25T15:53:07Z</time>
      </trkpt>
      <trkpt lat="42.89538" lon="0.105">
        <ele>1547.2</ele>
        <time>2021-03-25T15:53:08Z</time>
      </trkpt>
      <trkpt lat="42.89537" lon="0.10501">
        <ele>1547.2</ele>
        <time>2021-03-25T15:53:10Z</time>
      </trkpt>
      <trkpt lat="42.89537" lon="0.10502">
        <ele>1547.2</ele>
        <time>2021-03-25T15:53:12Z</time>
      </trkpt>
      <trkpt lat="42.89537" lon="0.10503">
        <ele>1547.1</ele>
        <time>2021-03-25T15:53:14Z</time>
      </trkpt>
      <trkpt lat="42.89537" lon="0.10504">
        <ele>1547.1</ele>
        <time>2021-03-25T15:53:15Z</time>
      </trkpt>
      <trkpt lat="42.89537" lon="0.10504">
        <ele>1547.1</ele>
        <time>2021-03-25T15:53:16Z</time>
      </trkpt>
      <trkpt lat="42.89537" lon="0.10503">
        <ele>1547.1</ele>
        <time>2021-03-25T15:53:18Z</time>
      </trkpt>
      <trkpt lat="42.89537" lon="0.10502">
        <ele>1547.1</ele>
        <time>2021-03-25T15:53:19Z</time>
      </trkpt>
      <trkpt lat="42.89537" lon="0.10502">
        <ele>1547.1</ele>
        <time>2021-03-25T15:53:20Z</time>
      </trkpt>
      <trkpt lat="42.89537" lon="0.10502">
        <ele>1547.1</ele>
        <time>2021-03-25T15:53:21Z</time>
      </trkpt>
      <trkpt lat="42.89536" lon="0.10503">
        <ele>1547.1</ele>
        <time>2021-03-25T15:53:22Z</time>
      </trkpt>
      <trkpt lat="42.89536" lon="0.10503">
        <ele>1547.1</ele>
        <time>2021-03-25T15:53:24Z</time>
      </trkpt>
      <trkpt lat="42.89536" lon="0.10504">
        <ele>1547.1</ele>
        <time>2021-03-25T15:53:25Z</time>
      </trkpt>
      <trkpt lat="42.89536" lon="0.10505">
        <ele>1547.1</ele>
        <time>2021-03-25T15:53:27Z</time>
      </trkpt>
      <trkpt lat="42.89536" lon="0.10505">
        <ele>1547.1</ele>
        <time>2021-03-25T15:53:28Z</time>
      </trkpt>
      <trkpt lat="42.89536" lon="0.10505">
        <ele>1547</ele>
        <time>2021-03-25T15:53:30Z</time>
      </trkpt>
      <trkpt lat="42.89536" lon="0.10506">
        <ele>1547</ele>
        <time>2021-03-25T15:53:31Z</time>
      </trkpt>
      <trkpt lat="42.89536" lon="0.10506">
        <ele>1547</ele>
        <time>2021-03-25T15:53:32Z</time>
      </trkpt>
      <trkpt lat="42.89536" lon="0.10506">
        <ele>1547</ele>
        <time>2021-03-25T15:53:34Z</time>
      </trkpt>
      <trkpt lat="42.89536" lon="0.10507">
        <ele>1547</ele>
        <time>2021-03-25T15:53:35Z</time>
      </trkpt>
      <trkpt lat="42.89537" lon="0.10508">
        <ele>1547</ele>
        <time>2021-03-25T15:53:36Z</time>
      </trkpt>
      <trkpt lat="42.89537" lon="0.10507">
        <ele>1547</ele>
        <time>2021-03-25T15:53:38Z</time>
      </trkpt>
      <trkpt lat="42.89537" lon="0.10507">
        <ele>1547</ele>
        <time>2021-03-25T15:53:39Z</time>
      </trkpt>
      <trkpt lat="42.89537" lon="0.10507">
        <ele>1547</ele>
        <time>2021-03-25T15:53:40Z</time>
      </trkpt>
      <trkpt lat="42.89537" lon="0.10508">
        <ele>1547</ele>
        <time>2021-03-25T15:53:41Z</time>
      </trkpt>
      <trkpt lat="42.89537" lon="0.10509">
        <ele>1547</ele>
        <time>2021-03-25T15:53:42Z</time>
      </trkpt>
      <trkpt lat="42.89537" lon="0.10509">
        <ele>1547</ele>
        <time>2021-03-25T15:53:43Z</time>
      </trkpt>
      <trkpt lat="42.89538" lon="0.10508">
        <ele>1547</ele>
        <time>2021-03-25T15:53:45Z</time>
      </trkpt>
      <trkpt lat="42.89537" lon="0.10505">
        <ele>1546.9</ele>
        <time>2021-03-25T15:53:46Z</time>
      </trkpt>
      <trkpt lat="42.89537" lon="0.10501">
        <ele>1546.9</ele>
        <time>2021-03-25T15:53:48Z</time>
      </trkpt>
      <trkpt lat="42.89538" lon="0.10502">
        <ele>1546.9</ele>
        <time>2021-03-25T15:53:50Z</time>
      </trkpt>
      <trkpt lat="42.89539" lon="0.10501">
        <ele>1546.9</ele>
        <time>2021-03-25T15:53:51Z</time>
      </trkpt>
      <trkpt lat="42.8954" lon="0.105">
        <ele>1546.9</ele>
        <time>2021-03-25T15:53:52Z</time>
      </trkpt>
      <trkpt lat="42.8954" lon="0.10499">
        <ele>1546.9</ele>
        <time>2021-03-25T15:53:54Z</time>
      </trkpt>
      <trkpt lat="42.89542" lon="0.10498">
        <ele>1546.9</ele>
        <time>2021-03-25T15:53:55Z</time>
      </trkpt>
      <trkpt lat="42.89544" lon="0.10495">
        <ele>1546.9</ele>
        <time>2021-03-25T15:53:56Z</time>
      </trkpt>
      <trkpt lat="42.89544" lon="0.10493">
        <ele>1546.8</ele>
        <time>2021-03-25T15:53:58Z</time>
      </trkpt>
      <trkpt lat="42.89544" lon="0.1049">
        <ele>1546.8</ele>
        <time>2021-03-25T15:53:59Z</time>
      </trkpt>
      <trkpt lat="42.89546" lon="0.10485">
        <ele>1546.8</ele>
        <time>2021-03-25T15:54:01Z</time>
      </trkpt>
      <trkpt lat="42.89548" lon="0.10482">
        <ele>1546.8</ele>
        <time>2021-03-25T15:54:02Z</time>
      </trkpt>
      <trkpt lat="42.89549" lon="0.1048">
        <ele>1546.8</ele>
        <time>2021-03-25T15:54:03Z</time>
      </trkpt>
      <trkpt lat="42.8955" lon="0.10478">
        <ele>1546.8</ele>
        <time>2021-03-25T15:54:05Z</time>
      </trkpt>
      <trkpt lat="42.89551" lon="0.10478">
        <ele>1546.8</ele>
        <time>2021-03-25T15:54:06Z</time>
      </trkpt>
      <trkpt lat="42.89551" lon="0.10478">
        <ele>1546.8</ele>
        <time>2021-03-25T15:54:07Z</time>
      </trkpt>
      <trkpt lat="42.89551" lon="0.10476">
        <ele>1546.8</ele>
        <time>2021-03-25T15:54:08Z</time>
      </trkpt>
      <trkpt lat="42.89551" lon="0.10474">
        <ele>1546.8</ele>
        <time>2021-03-25T15:54:09Z</time>
      </trkpt>
      <trkpt lat="42.8955" lon="0.10472">
        <ele>1546.9</ele>
        <time>2021-03-25T15:54:10Z</time>
      </trkpt>
      <trkpt lat="42.89549" lon="0.10471">
        <ele>1546.9</ele>
        <time>2021-03-25T15:54:11Z</time>
      </trkpt>
      <trkpt lat="42.89549" lon="0.10469">
        <ele>1546.9</ele>
        <time>2021-03-25T15:54:12Z</time>
      </trkpt>
      <trkpt lat="42.89549" lon="0.10467">
        <ele>1546.9</ele>
        <time>2021-03-25T15:54:13Z</time>
      </trkpt>
      <trkpt lat="42.89549" lon="0.10465">
        <ele>1546.9</ele>
        <time>2021-03-25T15:54:14Z</time>
      </trkpt>
      <trkpt lat="42.8955" lon="0.10463">
        <ele>1546.9</ele>
        <time>2021-03-25T15:54:15Z</time>
      </trkpt>
      <trkpt lat="42.89552" lon="0.10461">
        <ele>1546.9</ele>
        <time>2021-03-25T15:54:17Z</time>
      </trkpt>
      <trkpt lat="42.89554" lon="0.10459">
        <ele>1546.7</ele>
        <time>2021-03-25T15:54:18Z</time>
      </trkpt>
      <trkpt lat="42.89555" lon="0.10459">
        <ele>1546.6</ele>
        <time>2021-03-25T15:54:19Z</time>
      </trkpt>
      <trkpt lat="42.89558" lon="0.10458">
        <ele>1546.2</ele>
        <time>2021-03-25T15:54:21Z</time>
      </trkpt>
      <trkpt lat="42.8956" lon="0.10458">
        <ele>1546.1</ele>
        <time>2021-03-25T15:54:22Z</time>
      </trkpt>
      <trkpt lat="42.89561" lon="0.10459">
        <ele>1546</ele>
        <time>2021-03-25T15:54:23Z</time>
      </trkpt>
      <trkpt lat="42.89563" lon="0.1046">
        <ele>1545.8</ele>
        <time>2021-03-25T15:54:24Z</time>
      </trkpt>
      <trkpt lat="42.89566" lon="0.10461">
        <ele>1545.4</ele>
        <time>2021-03-25T15:54:26Z</time>
      </trkpt>
      <trkpt lat="42.89567" lon="0.10462">
        <ele>1545.4</ele>
        <time>2021-03-25T15:54:27Z</time>
      </trkpt>
      <trkpt lat="42.89569" lon="0.10462">
        <ele>1545.1</ele>
        <time>2021-03-25T15:54:28Z</time>
      </trkpt>
      <trkpt lat="42.8957" lon="0.10463">
        <ele>1545</ele>
        <time>2021-03-25T15:54:29Z</time>
      </trkpt>
      <trkpt lat="42.89572" lon="0.10463">
        <ele>1544.8</ele>
        <time>2021-03-25T15:54:30Z</time>
      </trkpt>
      <trkpt lat="42.89573" lon="0.10464">
        <ele>1544.7</ele>
        <time>2021-03-25T15:54:31Z</time>
      </trkpt>
      <trkpt lat="42.89576" lon="0.10464">
        <ele>1544.4</ele>
        <time>2021-03-25T15:54:32Z</time>
      </trkpt>
      <trkpt lat="42.89576" lon="0.10465">
        <ele>1544.3</ele>
        <time>2021-03-25T15:54:33Z</time>
      </trkpt>
      <trkpt lat="42.89579" lon="0.10466">
        <ele>1544</ele>
        <time>2021-03-25T15:54:34Z</time>
      </trkpt>
      <trkpt lat="42.8958" lon="0.10466">
        <ele>1543.9</ele>
        <time>2021-03-25T15:54:35Z</time>
      </trkpt>
      <trkpt lat="42.89582" lon="0.10467">
        <ele>1543.7</ele>
        <time>2021-03-25T15:54:36Z</time>
      </trkpt>
      <trkpt lat="42.89583" lon="0.10468">
        <ele>1543.6</ele>
        <time>2021-03-25T15:54:37Z</time>
      </trkpt>
      <trkpt lat="42.89584" lon="0.10469">
        <ele>1543.5</ele>
        <time>2021-03-25T15:54:38Z</time>
      </trkpt>
      <trkpt lat="42.89585" lon="0.10469">
        <ele>1543.3</ele>
        <time>2021-03-25T15:54:39Z</time>
      </trkpt>
      <trkpt lat="42.89586" lon="0.1047">
        <ele>1543.2</ele>
        <time>2021-03-25T15:54:40Z</time>
      </trkpt>
      <trkpt lat="42.89587" lon="0.10471">
        <ele>1543.1</ele>
        <time>2021-03-25T15:54:41Z</time>
      </trkpt>
      <trkpt lat="42.89588" lon="0.10471">
        <ele>1543</ele>
        <time>2021-03-25T15:54:42Z</time>
      </trkpt>
      <trkpt lat="42.8959" lon="0.10471">
        <ele>1542.8</ele>
        <time>2021-03-25T15:54:43Z</time>
      </trkpt>
      <trkpt lat="42.89592" lon="0.10472">
        <ele>1542.6</ele>
        <time>2021-03-25T15:54:45Z</time>
      </trkpt>
      <trkpt lat="42.89593" lon="0.10472">
        <ele>1542.4</ele>
        <time>2021-03-25T15:54:46Z</time>
      </trkpt>
      <trkpt lat="42.89595" lon="0.10472">
        <ele>1542.3</ele>
        <time>2021-03-25T15:54:47Z</time>
      </trkpt>
      <trkpt lat="42.89597" lon="0.10472">
        <ele>1542.1</ele>
        <time>2021-03-25T15:54:48Z</time>
      </trkpt>
      <trkpt lat="42.89599" lon="0.10473">
        <ele>1541.9</ele>
        <time>2021-03-25T15:54:49Z</time>
      </trkpt>
      <trkpt lat="42.896" lon="0.10474">
        <ele>1541.7</ele>
        <time>2021-03-25T15:54:51Z</time>
      </trkpt>
      <trkpt lat="42.896" lon="0.10475">
        <ele>1541.6</ele>
        <time>2021-03-25T15:54:52Z</time>
      </trkpt>
      <trkpt lat="42.89601" lon="0.10476">
        <ele>1541.5</ele>
        <time>2021-03-25T15:54:53Z</time>
      </trkpt>
      <trkpt lat="42.89602" lon="0.10477">
        <ele>1541.4</ele>
        <time>2021-03-25T15:54:54Z</time>
      </trkpt>
      <trkpt lat="42.89603" lon="0.10479">
        <ele>1541.2</ele>
        <time>2021-03-25T15:54:55Z</time>
      </trkpt>
      <trkpt lat="42.89605" lon="0.1048">
        <ele>1541.1</ele>
        <time>2021-03-25T15:54:56Z</time>
      </trkpt>
      <trkpt lat="42.89606" lon="0.10481">
        <ele>1540.9</ele>
        <time>2021-03-25T15:54:57Z</time>
      </trkpt>
      <trkpt lat="42.89607" lon="0.10481">
        <ele>1540.8</ele>
        <time>2021-03-25T15:54:58Z</time>
      </trkpt>
      <trkpt lat="42.89609" lon="0.10482">
        <ele>1540.6</ele>
        <time>2021-03-25T15:54:59Z</time>
      </trkpt>
      <trkpt lat="42.89612" lon="0.10483">
        <ele>1540.4</ele>
        <time>2021-03-25T15:55:01Z</time>
      </trkpt>
      <trkpt lat="42.89613" lon="0.10484">
        <ele>1540.2</ele>
        <time>2021-03-25T15:55:02Z</time>
      </trkpt>
      <trkpt lat="42.89615" lon="0.10484">
        <ele>1540</ele>
        <time>2021-03-25T15:55:03Z</time>
      </trkpt>
      <trkpt lat="42.89617" lon="0.10485">
        <ele>1539.9</ele>
        <time>2021-03-25T15:55:04Z</time>
      </trkpt>
      <trkpt lat="42.89618" lon="0.10485">
        <ele>1539.7</ele>
        <time>2021-03-25T15:55:05Z</time>
      </trkpt>
      <trkpt lat="42.8962" lon="0.10485">
        <ele>1539.5</ele>
        <time>2021-03-25T15:55:06Z</time>
      </trkpt>
      <trkpt lat="42.89622" lon="0.10485">
        <ele>1539.4</ele>
        <time>2021-03-25T15:55:07Z</time>
      </trkpt>
      <trkpt lat="42.89623" lon="0.10485">
        <ele>1539.3</ele>
        <time>2021-03-25T15:55:08Z</time>
      </trkpt>
      <trkpt lat="42.89625" lon="0.10485">
        <ele>1539.1</ele>
        <time>2021-03-25T15:55:09Z</time>
      </trkpt>
      <trkpt lat="42.89627" lon="0.10486">
        <ele>1539</ele>
        <time>2021-03-25T15:55:10Z</time>
      </trkpt>
      <trkpt lat="42.8963" lon="0.10487">
        <ele>1538.7</ele>
        <time>2021-03-25T15:55:12Z</time>
      </trkpt>
      <trkpt lat="42.89632" lon="0.10489">
        <ele>1538.4</ele>
        <time>2021-03-25T15:55:14Z</time>
      </trkpt>
      <trkpt lat="42.89633" lon="0.10489">
        <ele>1538.3</ele>
        <time>2021-03-25T15:55:15Z</time>
      </trkpt>
      <trkpt lat="42.89634" lon="0.1049">
        <ele>1538.2</ele>
        <time>2021-03-25T15:55:17Z</time>
      </trkpt>
      <trkpt lat="42.89636" lon="0.10491">
        <ele>1538</ele>
        <time>2021-03-25T15:55:18Z</time>
      </trkpt>
      <trkpt lat="42.89638" lon="0.10491">
        <ele>1537.9</ele>
        <time>2021-03-25T15:55:19Z</time>
      </trkpt>
      <trkpt lat="42.89639" lon="0.10491">
        <ele>1537.7</ele>
        <time>2021-03-25T15:55:20Z</time>
      </trkpt>
      <trkpt lat="42.8964" lon="0.10492">
        <ele>1537.6</ele>
        <time>2021-03-25T15:55:21Z</time>
      </trkpt>
      <trkpt lat="42.89641" lon="0.10493">
        <ele>1537.4</ele>
        <time>2021-03-25T15:55:22Z</time>
      </trkpt>
      <trkpt lat="42.89642" lon="0.10496">
        <ele>1537.3</ele>
        <time>2021-03-25T15:55:23Z</time>
      </trkpt>
      <trkpt lat="42.89643" lon="0.10498">
        <ele>1537.1</ele>
        <time>2021-03-25T15:55:25Z</time>
      </trkpt>
      <trkpt lat="42.89644" lon="0.10498">
        <ele>1536.9</ele>
        <time>2021-03-25T15:55:26Z</time>
      </trkpt>
      <trkpt lat="42.89645" lon="0.10499">
        <ele>1536.8</ele>
        <time>2021-03-25T15:55:27Z</time>
      </trkpt>
      <trkpt lat="42.89646" lon="0.10499">
        <ele>1536.7</ele>
        <time>2021-03-25T15:55:28Z</time>
      </trkpt>
      <trkpt lat="42.89648" lon="0.105">
        <ele>1535.9</ele>
        <time>2021-03-25T15:55:29Z</time>
      </trkpt>
      <trkpt lat="42.89649" lon="0.10501">
        <ele>1535.8</ele>
        <time>2021-03-25T15:55:31Z</time>
      </trkpt>
      <trkpt lat="42.8965" lon="0.10502">
        <ele>1535.6</ele>
        <time>2021-03-25T15:55:32Z</time>
      </trkpt>
      <trkpt lat="42.89652" lon="0.10503">
        <ele>1535.5</ele>
        <time>2021-03-25T15:55:34Z</time>
      </trkpt>
      <trkpt lat="42.89653" lon="0.10504">
        <ele>1535.3</ele>
        <time>2021-03-25T15:55:35Z</time>
      </trkpt>
      <trkpt lat="42.89654" lon="0.10505">
        <ele>1535.2</ele>
        <time>2021-03-25T15:55:37Z</time>
      </trkpt>
      <trkpt lat="42.89655" lon="0.10506">
        <ele>1535.1</ele>
        <time>2021-03-25T15:55:38Z</time>
      </trkpt>
      <trkpt lat="42.89656" lon="0.10506">
        <ele>1534.9</ele>
        <time>2021-03-25T15:55:39Z</time>
      </trkpt>
      <trkpt lat="42.89657" lon="0.10507">
        <ele>1534.8</ele>
        <time>2021-03-25T15:55:40Z</time>
      </trkpt>
      <trkpt lat="42.89659" lon="0.10507">
        <ele>1534.6</ele>
        <time>2021-03-25T15:55:42Z</time>
      </trkpt>
      <trkpt lat="42.8966" lon="0.10508">
        <ele>1534.4</ele>
        <time>2021-03-25T15:55:43Z</time>
      </trkpt>
      <trkpt lat="42.89662" lon="0.10507">
        <ele>1534.2</ele>
        <time>2021-03-25T15:55:44Z</time>
      </trkpt>
      <trkpt lat="42.89665" lon="0.10506">
        <ele>1533.8</ele>
        <time>2021-03-25T15:55:45Z</time>
      </trkpt>
      <trkpt lat="42.89665" lon="0.10506">
        <ele>1533.7</ele>
        <time>2021-03-25T15:55:46Z</time>
      </trkpt>
      <trkpt lat="42.89668" lon="0.10505">
        <ele>1533.3</ele>
        <time>2021-03-25T15:55:48Z</time>
      </trkpt>
      <trkpt lat="42.89669" lon="0.10505">
        <ele>1533.2</ele>
        <time>2021-03-25T15:55:49Z</time>
      </trkpt>
      <trkpt lat="42.89671" lon="0.10506">
        <ele>1532.9</ele>
        <time>2021-03-25T15:55:50Z</time>
      </trkpt>
      <trkpt lat="42.89672" lon="0.10506">
        <ele>1532.8</ele>
        <time>2021-03-25T15:55:51Z</time>
      </trkpt>
      <trkpt lat="42.89672" lon="0.10507">
        <ele>1532.7</ele>
        <time>2021-03-25T15:55:52Z</time>
      </trkpt>
      <trkpt lat="42.89674" lon="0.10508">
        <ele>1532.5</ele>
        <time>2021-03-25T15:55:53Z</time>
      </trkpt>
      <trkpt lat="42.89675" lon="0.10508">
        <ele>1532.3</ele>
        <time>2021-03-25T15:55:54Z</time>
      </trkpt>
      <trkpt lat="42.89677" lon="0.10508">
        <ele>1532.1</ele>
        <time>2021-03-25T15:55:55Z</time>
      </trkpt>
      <trkpt lat="42.89679" lon="0.10507">
        <ele>1531.8</ele>
        <time>2021-03-25T15:55:57Z</time>
      </trkpt>
      <trkpt lat="42.89682" lon="0.10506">
        <ele>1531.3</ele>
        <time>2021-03-25T15:55:58Z</time>
      </trkpt>
      <trkpt lat="42.89683" lon="0.10506">
        <ele>1531.2</ele>
        <time>2021-03-25T15:55:59Z</time>
      </trkpt>
      <trkpt lat="42.89685" lon="0.10505">
        <ele>1530.8</ele>
        <time>2021-03-25T15:56:01Z</time>
      </trkpt>
      <trkpt lat="42.89688" lon="0.10504">
        <ele>1530.5</ele>
        <time>2021-03-25T15:56:03Z</time>
      </trkpt>
      <trkpt lat="42.89689" lon="0.10504">
        <ele>1530.3</ele>
        <time>2021-03-25T15:56:04Z</time>
      </trkpt>
      <trkpt lat="42.8969" lon="0.10504">
        <ele>1530.1</ele>
        <time>2021-03-25T15:56:05Z</time>
      </trkpt>
      <trkpt lat="42.89692" lon="0.10504">
        <ele>1529.9</ele>
        <time>2021-03-25T15:56:06Z</time>
      </trkpt>
      <trkpt lat="42.89693" lon="0.10504">
        <ele>1529.7</ele>
        <time>2021-03-25T15:56:07Z</time>
      </trkpt>
      <trkpt lat="42.89695" lon="0.10504">
        <ele>1529.5</ele>
        <time>2021-03-25T15:56:08Z</time>
      </trkpt>
      <trkpt lat="42.89696" lon="0.10503">
        <ele>1529.3</ele>
        <time>2021-03-25T15:56:10Z</time>
      </trkpt>
      <trkpt lat="42.89698" lon="0.10502">
        <ele>1529.1</ele>
        <time>2021-03-25T15:56:11Z</time>
      </trkpt>
      <trkpt lat="42.89699" lon="0.10501">
        <ele>1528.8</ele>
        <time>2021-03-25T15:56:12Z</time>
      </trkpt>
      <trkpt lat="42.89701" lon="0.105">
        <ele>1528.6</ele>
        <time>2021-03-25T15:56:13Z</time>
      </trkpt>
      <trkpt lat="42.89702" lon="0.105">
        <ele>1528.4</ele>
        <time>2021-03-25T15:56:15Z</time>
      </trkpt>
      <trkpt lat="42.89704" lon="0.105">
        <ele>1528.2</ele>
        <time>2021-03-25T15:56:16Z</time>
      </trkpt>
      <trkpt lat="42.89705" lon="0.10499">
        <ele>1528</ele>
        <time>2021-03-25T15:56:17Z</time>
      </trkpt>
      <trkpt lat="42.89707" lon="0.10498">
        <ele>1527.7</ele>
        <time>2021-03-25T15:56:18Z</time>
      </trkpt>
      <trkpt lat="42.89708" lon="0.10498">
        <ele>1527.6</ele>
        <time>2021-03-25T15:56:19Z</time>
      </trkpt>
      <trkpt lat="42.89709" lon="0.10498">
        <ele>1527.5</ele>
        <time>2021-03-25T15:56:20Z</time>
      </trkpt>
      <trkpt lat="42.8971" lon="0.10497">
        <ele>1527.3</ele>
        <time>2021-03-25T15:56:21Z</time>
      </trkpt>
      <trkpt lat="42.89712" lon="0.10497">
        <ele>1527.1</ele>
        <time>2021-03-25T15:56:22Z</time>
      </trkpt>
      <trkpt lat="42.89713" lon="0.10497">
        <ele>1526.9</ele>
        <time>2021-03-25T15:56:23Z</time>
      </trkpt>
      <trkpt lat="42.89715" lon="0.10497">
        <ele>1526.7</ele>
        <time>2021-03-25T15:56:24Z</time>
      </trkpt>
      <trkpt lat="42.89716" lon="0.10497">
        <ele>1526.5</ele>
        <time>2021-03-25T15:56:25Z</time>
      </trkpt>
      <trkpt lat="42.89718" lon="0.10497">
        <ele>1526.3</ele>
        <time>2021-03-25T15:56:26Z</time>
      </trkpt>
      <trkpt lat="42.89719" lon="0.10497">
        <ele>1526.2</ele>
        <time>2021-03-25T15:56:28Z</time>
      </trkpt>
      <trkpt lat="42.89721" lon="0.10496">
        <ele>1525.9</ele>
        <time>2021-03-25T15:56:29Z</time>
      </trkpt>
      <trkpt lat="42.89722" lon="0.10496">
        <ele>1525.7</ele>
        <time>2021-03-25T15:56:30Z</time>
      </trkpt>
      <trkpt lat="42.89725" lon="0.10496">
        <ele>1525.5</ele>
        <time>2021-03-25T15:56:32Z</time>
      </trkpt>
      <trkpt lat="42.89726" lon="0.10496">
        <ele>1525.3</ele>
        <time>2021-03-25T15:56:33Z</time>
      </trkpt>
      <trkpt lat="42.89728" lon="0.10497">
        <ele>1525.1</ele>
        <time>2021-03-25T15:56:34Z</time>
      </trkpt>
      <trkpt lat="42.8973" lon="0.10498">
        <ele>1524.8</ele>
        <time>2021-03-25T15:56:35Z</time>
      </trkpt>
      <trkpt lat="42.89731" lon="0.10498">
        <ele>1524.7</ele>
        <time>2021-03-25T15:56:36Z</time>
      </trkpt>
      <trkpt lat="42.89733" lon="0.10499">
        <ele>1524.4</ele>
        <time>2021-03-25T15:56:38Z</time>
      </trkpt>
      <trkpt lat="42.89734" lon="0.10499">
        <ele>1524.3</ele>
        <time>2021-03-25T15:56:39Z</time>
      </trkpt>
      <trkpt lat="42.89735" lon="0.105">
        <ele>1524.2</ele>
        <time>2021-03-25T15:56:40Z</time>
      </trkpt>
      <trkpt lat="42.89736" lon="0.10501">
        <ele>1524.1</ele>
        <time>2021-03-25T15:56:41Z</time>
      </trkpt>
      <trkpt lat="42.89737" lon="0.10501">
        <ele>1523.9</ele>
        <time>2021-03-25T15:56:42Z</time>
      </trkpt>
      <trkpt lat="42.89739" lon="0.10501">
        <ele>1523.7</ele>
        <time>2021-03-25T15:56:44Z</time>
      </trkpt>
      <trkpt lat="42.89741" lon="0.10502">
        <ele>1523.5</ele>
        <time>2021-03-25T15:56:45Z</time>
      </trkpt>
      <trkpt lat="42.89743" lon="0.10502">
        <ele>1523.2</ele>
        <time>2021-03-25T15:56:47Z</time>
      </trkpt>
      <trkpt lat="42.89744" lon="0.10502">
        <ele>1523.1</ele>
        <time>2021-03-25T15:56:48Z</time>
      </trkpt>
      <trkpt lat="42.89746" lon="0.10502">
        <ele>1522.9</ele>
        <time>2021-03-25T15:56:49Z</time>
      </trkpt>
      <trkpt lat="42.89747" lon="0.10502">
        <ele>1522.7</ele>
        <time>2021-03-25T15:56:50Z</time>
      </trkpt>
      <trkpt lat="42.89751" lon="0.10502">
        <ele>1522.3</ele>
        <time>2021-03-25T15:56:52Z</time>
      </trkpt>
      <trkpt lat="42.89752" lon="0.10502">
        <ele>1522.2</ele>
        <time>2021-03-25T15:56:53Z</time>
      </trkpt>
      <trkpt lat="42.89753" lon="0.10502">
        <ele>1522</ele>
        <time>2021-03-25T15:56:54Z</time>
      </trkpt>
      <trkpt lat="42.89755" lon="0.10501">
        <ele>1521.8</ele>
        <time>2021-03-25T15:56:55Z</time>
      </trkpt>
      <trkpt lat="42.89756" lon="0.10501">
        <ele>1521.7</ele>
        <time>2021-03-25T15:56:57Z</time>
      </trkpt>
      <trkpt lat="42.89757" lon="0.105">
        <ele>1521.5</ele>
        <time>2021-03-25T15:56:58Z</time>
      </trkpt>
      <trkpt lat="42.8976" lon="0.105">
        <ele>1521.2</ele>
        <time>2021-03-25T15:56:59Z</time>
      </trkpt>
      <trkpt lat="42.8976" lon="0.10501">
        <ele>1521.1</ele>
        <time>2021-03-25T15:57:00Z</time>
      </trkpt>
      <trkpt lat="42.89761" lon="0.10501">
        <ele>1521</ele>
        <time>2021-03-25T15:57:01Z</time>
      </trkpt>
      <trkpt lat="42.89762" lon="0.10501">
        <ele>1520.9</ele>
        <time>2021-03-25T15:57:02Z</time>
      </trkpt>
      <trkpt lat="42.89764" lon="0.10501">
        <ele>1520.7</ele>
        <time>2021-03-25T15:57:04Z</time>
      </trkpt>
      <trkpt lat="42.89765" lon="0.10502">
        <ele>1520.6</ele>
        <time>2021-03-25T15:57:05Z</time>
      </trkpt>
      <trkpt lat="42.89766" lon="0.10503">
        <ele>1520.4</ele>
        <time>2021-03-25T15:57:06Z</time>
      </trkpt>
      <trkpt lat="42.89767" lon="0.10505">
        <ele>1520.2</ele>
        <time>2021-03-25T15:57:07Z</time>
      </trkpt>
      <trkpt lat="42.89769" lon="0.10507">
        <ele>1519.9</ele>
        <time>2021-03-25T15:57:08Z</time>
      </trkpt>
      <trkpt lat="42.8977" lon="0.10507">
        <ele>1519.8</ele>
        <time>2021-03-25T15:57:10Z</time>
      </trkpt>
      <trkpt lat="42.89771" lon="0.10507">
        <ele>1519.7</ele>
        <time>2021-03-25T15:57:11Z</time>
      </trkpt>
      <trkpt lat="42.89772" lon="0.10508">
        <ele>1519.5</ele>
        <time>2021-03-25T15:57:12Z</time>
      </trkpt>
      <trkpt lat="42.89773" lon="0.10508">
        <ele>1519.4</ele>
        <time>2021-03-25T15:57:13Z</time>
      </trkpt>
      <trkpt lat="42.89775" lon="0.10509">
        <ele>1519.2</ele>
        <time>2021-03-25T15:57:14Z</time>
      </trkpt>
      <trkpt lat="42.89776" lon="0.10509">
        <ele>1519</ele>
        <time>2021-03-25T15:57:15Z</time>
      </trkpt>
      <trkpt lat="42.89778" lon="0.10508">
        <ele>1518.8</ele>
        <time>2021-03-25T15:57:16Z</time>
      </trkpt>
      <trkpt lat="42.89779" lon="0.10508">
        <ele>1518.6</ele>
        <time>2021-03-25T15:57:18Z</time>
      </trkpt>
      <trkpt lat="42.8978" lon="0.10508">
        <ele>1518.5</ele>
        <time>2021-03-25T15:57:19Z</time>
      </trkpt>
      <trkpt lat="42.89781" lon="0.10507">
        <ele>1518.4</ele>
        <time>2021-03-25T15:57:20Z</time>
      </trkpt>
      <trkpt lat="42.89782" lon="0.10506">
        <ele>1518.2</ele>
        <time>2021-03-25T15:57:21Z</time>
      </trkpt>
      <trkpt lat="42.89784" lon="0.10505">
        <ele>1517.9</ele>
        <time>2021-03-25T15:57:22Z</time>
      </trkpt>
      <trkpt lat="42.89785" lon="0.10505">
        <ele>1517.8</ele>
        <time>2021-03-25T15:57:23Z</time>
      </trkpt>
      <trkpt lat="42.89786" lon="0.10504">
        <ele>1517.7</ele>
        <time>2021-03-25T15:57:24Z</time>
      </trkpt>
      <trkpt lat="42.89788" lon="0.10505">
        <ele>1517.4</ele>
        <time>2021-03-25T15:57:26Z</time>
      </trkpt>
      <trkpt lat="42.8979" lon="0.10505">
        <ele>1517.3</ele>
        <time>2021-03-25T15:57:27Z</time>
      </trkpt>
      <trkpt lat="42.89791" lon="0.10505">
        <ele>1517.1</ele>
        <time>2021-03-25T15:57:28Z</time>
      </trkpt>
      <trkpt lat="42.89792" lon="0.10506">
        <ele>1516.9</ele>
        <time>2021-03-25T15:57:29Z</time>
      </trkpt>
      <trkpt lat="42.89794" lon="0.10506">
        <ele>1516.7</ele>
        <time>2021-03-25T15:57:31Z</time>
      </trkpt>
      <trkpt lat="42.89796" lon="0.10506">
        <ele>1516.4</ele>
        <time>2021-03-25T15:57:32Z</time>
      </trkpt>
      <trkpt lat="42.89797" lon="0.10506">
        <ele>1516.3</ele>
        <time>2021-03-25T15:57:33Z</time>
      </trkpt>
      <trkpt lat="42.89797" lon="0.10506">
        <ele>1516.2</ele>
        <time>2021-03-25T15:57:34Z</time>
      </trkpt>
      <trkpt lat="42.89799" lon="0.10505">
        <ele>1515.2</ele>
        <time>2021-03-25T15:57:35Z</time>
      </trkpt>
      <trkpt lat="42.898" lon="0.10505">
        <ele>1515</ele>
        <time>2021-03-25T15:57:36Z</time>
      </trkpt>
      <trkpt lat="42.89801" lon="0.10504">
        <ele>1514.9</ele>
        <time>2021-03-25T15:57:37Z</time>
      </trkpt>
      <trkpt lat="42.89803" lon="0.10504">
        <ele>1514.8</ele>
        <time>2021-03-25T15:57:38Z</time>
      </trkpt>
      <trkpt lat="42.89804" lon="0.10503">
        <ele>1514.6</ele>
        <time>2021-03-25T15:57:40Z</time>
      </trkpt>
      <trkpt lat="42.89805" lon="0.10502">
        <ele>1514.5</ele>
        <time>2021-03-25T15:57:41Z</time>
      </trkpt>
      <trkpt lat="42.89805" lon="0.10501">
        <ele>1514.4</ele>
        <time>2021-03-25T15:57:42Z</time>
      </trkpt>
      <trkpt lat="42.89807" lon="0.105">
        <ele>1514.2</ele>
        <time>2021-03-25T15:57:44Z</time>
      </trkpt>
      <trkpt lat="42.89808" lon="0.10499">
        <ele>1514.1</ele>
        <time>2021-03-25T15:57:45Z</time>
      </trkpt>
      <trkpt lat="42.89809" lon="0.10499">
        <ele>1514</ele>
        <time>2021-03-25T15:57:46Z</time>
      </trkpt>
      <trkpt lat="42.8981" lon="0.10498">
        <ele>1513.9</ele>
        <time>2021-03-25T15:57:47Z</time>
      </trkpt>
      <trkpt lat="42.89811" lon="0.10498">
        <ele>1513.7</ele>
        <time>2021-03-25T15:57:48Z</time>
      </trkpt>
      <trkpt lat="42.89813" lon="0.10497">
        <ele>1513.6</ele>
        <time>2021-03-25T15:57:50Z</time>
      </trkpt>
      <trkpt lat="42.89814" lon="0.10496">
        <ele>1513.4</ele>
        <time>2021-03-25T15:57:51Z</time>
      </trkpt>
      <trkpt lat="42.89815" lon="0.10495">
        <ele>1513.4</ele>
        <time>2021-03-25T15:57:52Z</time>
      </trkpt>
      <trkpt lat="42.89816" lon="0.10495">
        <ele>1513.2</ele>
        <time>2021-03-25T15:57:53Z</time>
      </trkpt>
      <trkpt lat="42.89817" lon="0.10494">
        <ele>1513.1</ele>
        <time>2021-03-25T15:57:54Z</time>
      </trkpt>
      <trkpt lat="42.89818" lon="0.10493">
        <ele>1513</ele>
        <time>2021-03-25T15:57:55Z</time>
      </trkpt>
      <trkpt lat="42.89819" lon="0.10491">
        <ele>1512.8</ele>
        <time>2021-03-25T15:57:57Z</time>
      </trkpt>
      <trkpt lat="42.89821" lon="0.10489">
        <ele>1512.6</ele>
        <time>2021-03-25T15:57:58Z</time>
      </trkpt>
      <trkpt lat="42.89821" lon="0.10488">
        <ele>1512.5</ele>
        <time>2021-03-25T15:57:59Z</time>
      </trkpt>
      <trkpt lat="42.89822" lon="0.10488">
        <ele>1512.4</ele>
        <time>2021-03-25T15:58:00Z</time>
      </trkpt>
      <trkpt lat="42.89824" lon="0.10487">
        <ele>1512.3</ele>
        <time>2021-03-25T15:58:01Z</time>
      </trkpt>
      <trkpt lat="42.89825" lon="0.10486">
        <ele>1512.2</ele>
        <time>2021-03-25T15:58:02Z</time>
      </trkpt>
      <trkpt lat="42.89826" lon="0.10485">
        <ele>1512</ele>
        <time>2021-03-25T15:58:04Z</time>
      </trkpt>
      <trkpt lat="42.89827" lon="0.10484">
        <ele>1511.9</ele>
        <time>2021-03-25T15:58:05Z</time>
      </trkpt>
      <trkpt lat="42.89829" lon="0.10482">
        <ele>1511.7</ele>
        <time>2021-03-25T15:58:06Z</time>
      </trkpt>
      <trkpt lat="42.8983" lon="0.1048">
        <ele>1511.5</ele>
        <time>2021-03-25T15:58:07Z</time>
      </trkpt>
      <trkpt lat="42.89831" lon="0.10478">
        <ele>1511.3</ele>
        <time>2021-03-25T15:58:09Z</time>
      </trkpt>
      <trkpt lat="42.89833" lon="0.10478">
        <ele>1511.1</ele>
        <time>2021-03-25T15:58:10Z</time>
      </trkpt>
      <trkpt lat="42.89834" lon="0.10477">
        <ele>1511</ele>
        <time>2021-03-25T15:58:12Z</time>
      </trkpt>
      <trkpt lat="42.89836" lon="0.10476">
        <ele>1510.8</ele>
        <time>2021-03-25T15:58:13Z</time>
      </trkpt>
      <trkpt lat="42.89837" lon="0.10476">
        <ele>1510.6</ele>
        <time>2021-03-25T15:58:14Z</time>
      </trkpt>
      <trkpt lat="42.89839" lon="0.10475">
        <ele>1510.4</ele>
        <time>2021-03-25T15:58:15Z</time>
      </trkpt>
      <trkpt lat="42.8984" lon="0.10475">
        <ele>1510.3</ele>
        <time>2021-03-25T15:58:16Z</time>
      </trkpt>
      <trkpt lat="42.89841" lon="0.10474">
        <ele>1510.2</ele>
        <time>2021-03-25T15:58:17Z</time>
      </trkpt>
      <trkpt lat="42.89842" lon="0.10474">
        <ele>1510.1</ele>
        <time>2021-03-25T15:58:18Z</time>
      </trkpt>
      <trkpt lat="42.89843" lon="0.10474">
        <ele>1509.9</ele>
        <time>2021-03-25T15:58:19Z</time>
      </trkpt>
      <trkpt lat="42.89844" lon="0.10473">
        <ele>1509.8</ele>
        <time>2021-03-25T15:58:21Z</time>
      </trkpt>
      <trkpt lat="42.89845" lon="0.10473">
        <ele>1509.7</ele>
        <time>2021-03-25T15:58:22Z</time>
      </trkpt>
      <trkpt lat="42.89846" lon="0.10472">
        <ele>1509.5</ele>
        <time>2021-03-25T15:58:23Z</time>
      </trkpt>
      <trkpt lat="42.89847" lon="0.10471">
        <ele>1509.4</ele>
        <time>2021-03-25T15:58:24Z</time>
      </trkpt>
      <trkpt lat="42.89848" lon="0.10471">
        <ele>1509.3</ele>
        <time>2021-03-25T15:58:25Z</time>
      </trkpt>
      <trkpt lat="42.89849" lon="0.1047">
        <ele>1509.1</ele>
        <time>2021-03-25T15:58:26Z</time>
      </trkpt>
      <trkpt lat="42.8985" lon="0.1047">
        <ele>1509</ele>
        <time>2021-03-25T15:58:27Z</time>
      </trkpt>
      <trkpt lat="42.89852" lon="0.10469">
        <ele>1508.7</ele>
        <time>2021-03-25T15:58:29Z</time>
      </trkpt>
      <trkpt lat="42.89853" lon="0.10468">
        <ele>1508.6</ele>
        <time>2021-03-25T15:58:30Z</time>
      </trkpt>
      <trkpt lat="42.89854" lon="0.10467">
        <ele>1508.5</ele>
        <time>2021-03-25T15:58:31Z</time>
      </trkpt>
      <trkpt lat="42.89855" lon="0.10464">
        <ele>1508.1</ele>
        <time>2021-03-25T15:58:32Z</time>
      </trkpt>
      <trkpt lat="42.89855" lon="0.10463">
        <ele>1508</ele>
        <time>2021-03-25T15:58:33Z</time>
      </trkpt>
      <trkpt lat="42.89857" lon="0.10462">
        <ele>1507.7</ele>
        <time>2021-03-25T15:58:34Z</time>
      </trkpt>
      <trkpt lat="42.89859" lon="0.1046">
        <ele>1507.4</ele>
        <time>2021-03-25T15:58:36Z</time>
      </trkpt>
      <trkpt lat="42.8986" lon="0.10458">
        <ele>1507.1</ele>
        <time>2021-03-25T15:58:37Z</time>
      </trkpt>
      <trkpt lat="42.89862" lon="0.10457">
        <ele>1506.8</ele>
        <time>2021-03-25T15:58:38Z</time>
      </trkpt>
      <trkpt lat="42.89863" lon="0.10456">
        <ele>1506.6</ele>
        <time>2021-03-25T15:58:39Z</time>
      </trkpt>
      <trkpt lat="42.89865" lon="0.10456">
        <ele>1506.4</ele>
        <time>2021-03-25T15:58:40Z</time>
      </trkpt>
      <trkpt lat="42.89866" lon="0.10456">
        <ele>1506.2</ele>
        <time>2021-03-25T15:58:41Z</time>
      </trkpt>
      <trkpt lat="42.89868" lon="0.10455">
        <ele>1505.9</ele>
        <time>2021-03-25T15:58:42Z</time>
      </trkpt>
      <trkpt lat="42.89869" lon="0.10454">
        <ele>1505.7</ele>
        <time>2021-03-25T15:58:44Z</time>
      </trkpt>
      <trkpt lat="42.89871" lon="0.10454">
        <ele>1505.5</ele>
        <time>2021-03-25T15:58:45Z</time>
      </trkpt>
      <trkpt lat="42.89872" lon="0.10453">
        <ele>1505.3</ele>
        <time>2021-03-25T15:58:46Z</time>
      </trkpt>
      <trkpt lat="42.89873" lon="0.10453">
        <ele>1505.1</ele>
        <time>2021-03-25T15:58:47Z</time>
      </trkpt>
      <trkpt lat="42.89874" lon="0.10453">
        <ele>1505</ele>
        <time>2021-03-25T15:58:48Z</time>
      </trkpt>
      <trkpt lat="42.89876" lon="0.10453">
        <ele>1504.7</ele>
        <time>2021-03-25T15:58:50Z</time>
      </trkpt>
      <trkpt lat="42.89878" lon="0.10452">
        <ele>1504.5</ele>
        <time>2021-03-25T15:58:51Z</time>
      </trkpt>
      <trkpt lat="42.89879" lon="0.10452">
        <ele>1504.3</ele>
        <time>2021-03-25T15:58:52Z</time>
      </trkpt>
      <trkpt lat="42.8988" lon="0.10451">
        <ele>1504.1</ele>
        <time>2021-03-25T15:58:53Z</time>
      </trkpt>
      <trkpt lat="42.89881" lon="0.10451">
        <ele>1504</ele>
        <time>2021-03-25T15:58:55Z</time>
      </trkpt>
      <trkpt lat="42.89882" lon="0.10452">
        <ele>1503.8</ele>
        <time>2021-03-25T15:58:56Z</time>
      </trkpt>
      <trkpt lat="42.89883" lon="0.10452">
        <ele>1503.7</ele>
        <time>2021-03-25T15:58:57Z</time>
      </trkpt>
      <trkpt lat="42.89884" lon="0.10452">
        <ele>1503.6</ele>
        <time>2021-03-25T15:58:58Z</time>
      </trkpt>
      <trkpt lat="42.89885" lon="0.10451">
        <ele>1503.5</ele>
        <time>2021-03-25T15:58:59Z</time>
      </trkpt>
      <trkpt lat="42.89886" lon="0.10452">
        <ele>1503.4</ele>
        <time>2021-03-25T15:59:00Z</time>
      </trkpt>
      <trkpt lat="42.89887" lon="0.10452">
        <ele>1503.2</ele>
        <time>2021-03-25T15:59:01Z</time>
      </trkpt>
      <trkpt lat="42.89888" lon="0.10452">
        <ele>1503.1</ele>
        <time>2021-03-25T15:59:02Z</time>
      </trkpt>
      <trkpt lat="42.89889" lon="0.10453">
        <ele>1503</ele>
        <time>2021-03-25T15:59:04Z</time>
      </trkpt>
      <trkpt lat="42.8989" lon="0.10453">
        <ele>1502.8</ele>
        <time>2021-03-25T15:59:05Z</time>
      </trkpt>
      <trkpt lat="42.89891" lon="0.10453">
        <ele>1502.6</ele>
        <time>2021-03-25T15:59:06Z</time>
      </trkpt>
      <trkpt lat="42.89893" lon="0.10453">
        <ele>1502.4</ele>
        <time>2021-03-25T15:59:07Z</time>
      </trkpt>
      <trkpt lat="42.89895" lon="0.10453">
        <ele>1502.2</ele>
        <time>2021-03-25T15:59:08Z</time>
      </trkpt>
      <trkpt lat="42.89896" lon="0.10452">
        <ele>1502.1</ele>
        <time>2021-03-25T15:59:09Z</time>
      </trkpt>
      <trkpt lat="42.89897" lon="0.10453">
        <ele>1501.9</ele>
        <time>2021-03-25T15:59:10Z</time>
      </trkpt>
      <trkpt lat="42.89898" lon="0.10453">
        <ele>1501.8</ele>
        <time>2021-03-25T15:59:11Z</time>
      </trkpt>
      <trkpt lat="42.89901" lon="0.10453">
        <ele>1501.5</ele>
        <time>2021-03-25T15:59:13Z</time>
      </trkpt>
      <trkpt lat="42.89904" lon="0.10453">
        <ele>1501.2</ele>
        <time>2021-03-25T15:59:14Z</time>
      </trkpt>
      <trkpt lat="42.89905" lon="0.10453">
        <ele>1501.1</ele>
        <time>2021-03-25T15:59:15Z</time>
      </trkpt>
      <trkpt lat="42.89906" lon="0.10453">
        <ele>1500.9</ele>
        <time>2021-03-25T15:59:16Z</time>
      </trkpt>
      <trkpt lat="42.89908" lon="0.10452">
        <ele>1500.7</ele>
        <time>2021-03-25T15:59:17Z</time>
      </trkpt>
      <trkpt lat="42.89909" lon="0.10452">
        <ele>1500.6</ele>
        <time>2021-03-25T15:59:18Z</time>
      </trkpt>
      <trkpt lat="42.89911" lon="0.10453">
        <ele>1500.4</ele>
        <time>2021-03-25T15:59:20Z</time>
      </trkpt>
      <trkpt lat="42.89912" lon="0.10453">
        <ele>1500.3</ele>
        <time>2021-03-25T15:59:21Z</time>
      </trkpt>
      <trkpt lat="42.89914" lon="0.10452">
        <ele>1500.2</ele>
        <time>2021-03-25T15:59:22Z</time>
      </trkpt>
      <trkpt lat="42.89915" lon="0.10451">
        <ele>1500</ele>
        <time>2021-03-25T15:59:23Z</time>
      </trkpt>
      <trkpt lat="42.89916" lon="0.10449">
        <ele>1499.9</ele>
        <time>2021-03-25T15:59:24Z</time>
      </trkpt>
      <trkpt lat="42.89917" lon="0.10447">
        <ele>1499.7</ele>
        <time>2021-03-25T15:59:25Z</time>
      </trkpt>
      <trkpt lat="42.89918" lon="0.10446">
        <ele>1499.6</ele>
        <time>2021-03-25T15:59:26Z</time>
      </trkpt>
      <trkpt lat="42.89919" lon="0.10445">
        <ele>1499.5</ele>
        <time>2021-03-25T15:59:28Z</time>
      </trkpt>
      <trkpt lat="42.89921" lon="0.10445">
        <ele>1499.5</ele>
        <time>2021-03-25T15:59:29Z</time>
      </trkpt>
      <trkpt lat="42.89922" lon="0.10445">
        <ele>1499.5</ele>
        <time>2021-03-25T15:59:30Z</time>
      </trkpt>
      <trkpt lat="42.89924" lon="0.10445">
        <ele>1499.5</ele>
        <time>2021-03-25T15:59:31Z</time>
      </trkpt>
      <trkpt lat="42.89926" lon="0.10444">
        <ele>1499.4</ele>
        <time>2021-03-25T15:59:32Z</time>
      </trkpt>
      <trkpt lat="42.89927" lon="0.10443">
        <ele>1499.4</ele>
        <time>2021-03-25T15:59:33Z</time>
      </trkpt>
      <trkpt lat="42.89927" lon="0.10443">
        <ele>1499.4</ele>
        <time>2021-03-25T15:59:34Z</time>
      </trkpt>
      <trkpt lat="42.89929" lon="0.10443">
        <ele>1499.4</ele>
        <time>2021-03-25T15:59:35Z</time>
      </trkpt>
      <trkpt lat="42.8993" lon="0.10442">
        <ele>1499.3</ele>
        <time>2021-03-25T15:59:37Z</time>
      </trkpt>
      <trkpt lat="42.89931" lon="0.10441">
        <ele>1499.3</ele>
        <time>2021-03-25T15:59:38Z</time>
      </trkpt>
      <trkpt lat="42.89932" lon="0.10441">
        <ele>1499.2</ele>
        <time>2021-03-25T15:59:39Z</time>
      </trkpt>
      <trkpt lat="42.89933" lon="0.10441">
        <ele>1499.1</ele>
        <time>2021-03-25T15:59:40Z</time>
      </trkpt>
      <trkpt lat="42.89935" lon="0.10441">
        <ele>1499.1</ele>
        <time>2021-03-25T15:59:41Z</time>
      </trkpt>
      <trkpt lat="42.89936" lon="0.10441">
        <ele>1499</ele>
        <time>2021-03-25T15:59:42Z</time>
      </trkpt>
      <trkpt lat="42.89936" lon="0.1044">
        <ele>1498.9</ele>
        <time>2021-03-25T15:59:44Z</time>
      </trkpt>
      <trkpt lat="42.89937" lon="0.1044">
        <ele>1498.9</ele>
        <time>2021-03-25T15:59:45Z</time>
      </trkpt>
      <trkpt lat="42.89938" lon="0.10439">
        <ele>1498.7</ele>
        <time>2021-03-25T15:59:46Z</time>
      </trkpt>
      <trkpt lat="42.89939" lon="0.10439">
        <ele>1498.7</ele>
        <time>2021-03-25T15:59:47Z</time>
      </trkpt>
      <trkpt lat="42.89941" lon="0.10438">
        <ele>1498.6</ele>
        <time>2021-03-25T15:59:48Z</time>
      </trkpt>
      <trkpt lat="42.89943" lon="0.10437">
        <ele>1498.4</ele>
        <time>2021-03-25T15:59:50Z</time>
      </trkpt>
      <trkpt lat="42.89944" lon="0.10437">
        <ele>1498.3</ele>
        <time>2021-03-25T15:59:51Z</time>
      </trkpt>
      <trkpt lat="42.89946" lon="0.10436">
        <ele>1498.2</ele>
        <time>2021-03-25T15:59:52Z</time>
      </trkpt>
      <trkpt lat="42.89949" lon="0.10434">
        <ele>1498</ele>
        <time>2021-03-25T15:59:53Z</time>
      </trkpt>
      <trkpt lat="42.8995" lon="0.10434">
        <ele>1497.9</ele>
        <time>2021-03-25T15:59:54Z</time>
      </trkpt>
      <trkpt lat="42.89953" lon="0.10432">
        <ele>1497.8</ele>
        <time>2021-03-25T15:59:56Z</time>
      </trkpt>
      <trkpt lat="42.89953" lon="0.10432">
        <ele>1497.7</ele>
        <time>2021-03-25T15:59:57Z</time>
      </trkpt>
      <trkpt lat="42.89956" lon="0.10431">
        <ele>1497.6</ele>
        <time>2021-03-25T15:59:58Z</time>
      </trkpt>
      <trkpt lat="42.89956" lon="0.10431">
        <ele>1497.6</ele>
        <time>2021-03-25T15:59:59Z</time>
      </trkpt>
      <trkpt lat="42.89957" lon="0.10431">
        <ele>1497.5</ele>
        <time>2021-03-25T16:00:00Z</time>
      </trkpt>
      <trkpt lat="42.89959" lon="0.10431">
        <ele>1497.4</ele>
        <time>2021-03-25T16:00:01Z</time>
      </trkpt>
      <trkpt lat="42.8996" lon="0.1043">
        <ele>1497.3</ele>
        <time>2021-03-25T16:00:02Z</time>
      </trkpt>
      <trkpt lat="42.89962" lon="0.1043">
        <ele>1497.3</ele>
        <time>2021-03-25T16:00:03Z</time>
      </trkpt>
      <trkpt lat="42.89963" lon="0.1043">
        <ele>1497.2</ele>
        <time>2021-03-25T16:00:05Z</time>
      </trkpt>
      <trkpt lat="42.89964" lon="0.1043">
        <ele>1497.2</ele>
        <time>2021-03-25T16:00:06Z</time>
      </trkpt>
      <trkpt lat="42.89964" lon="0.1043">
        <ele>1497.1</ele>
        <time>2021-03-25T16:00:07Z</time>
      </trkpt>
      <trkpt lat="42.89965" lon="0.10429">
        <ele>1497.1</ele>
        <time>2021-03-25T16:00:08Z</time>
      </trkpt>
      <trkpt lat="42.89967" lon="0.10429">
        <ele>1497</ele>
        <time>2021-03-25T16:00:09Z</time>
      </trkpt>
      <trkpt lat="42.89968" lon="0.10428">
        <ele>1497</ele>
        <time>2021-03-25T16:00:10Z</time>
      </trkpt>
      <trkpt lat="42.89969" lon="0.10428">
        <ele>1496.9</ele>
        <time>2021-03-25T16:00:11Z</time>
      </trkpt>
      <trkpt lat="42.89971" lon="0.10428">
        <ele>1496.8</ele>
        <time>2021-03-25T16:00:12Z</time>
      </trkpt>
      <trkpt lat="42.89973" lon="0.10428">
        <ele>1496.7</ele>
        <time>2021-03-25T16:00:14Z</time>
      </trkpt>
      <trkpt lat="42.89975" lon="0.10427">
        <ele>1496.6</ele>
        <time>2021-03-25T16:00:15Z</time>
      </trkpt>
      <trkpt lat="42.89976" lon="0.10427">
        <ele>1496.5</ele>
        <time>2021-03-25T16:00:16Z</time>
      </trkpt>
      <trkpt lat="42.8998" lon="0.10425">
        <ele>1496.4</ele>
        <time>2021-03-25T16:00:17Z</time>
      </trkpt>
      <trkpt lat="42.89981" lon="0.10425">
        <ele>1496.3</ele>
        <time>2021-03-25T16:00:18Z</time>
      </trkpt>
      <trkpt lat="42.89983" lon="0.10423">
        <ele>1496.2</ele>
        <time>2021-03-25T16:00:19Z</time>
      </trkpt>
      <trkpt lat="42.89984" lon="0.10422">
        <ele>1496.1</ele>
        <time>2021-03-25T16:00:20Z</time>
      </trkpt>
      <trkpt lat="42.89985" lon="0.10421">
        <ele>1496.1</ele>
        <time>2021-03-25T16:00:21Z</time>
      </trkpt>
      <trkpt lat="42.89988" lon="0.1042">
        <ele>1496</ele>
        <time>2021-03-25T16:00:23Z</time>
      </trkpt>
      <trkpt lat="42.8999" lon="0.1042">
        <ele>1495.9</ele>
        <time>2021-03-25T16:00:25Z</time>
      </trkpt>
      <trkpt lat="42.89991" lon="0.10419">
        <ele>1495.8</ele>
        <time>2021-03-25T16:00:26Z</time>
      </trkpt>
      <trkpt lat="42.89992" lon="0.10419">
        <ele>1495.7</ele>
        <time>2021-03-25T16:00:27Z</time>
      </trkpt>
      <trkpt lat="42.89993" lon="0.10419">
        <ele>1495.7</ele>
        <time>2021-03-25T16:00:28Z</time>
      </trkpt>
      <trkpt lat="42.89994" lon="0.10419">
        <ele>1495.6</ele>
        <time>2021-03-25T16:00:29Z</time>
      </trkpt>
      <trkpt lat="42.89995" lon="0.10419">
        <ele>1495.6</ele>
        <time>2021-03-25T16:00:30Z</time>
      </trkpt>
      <trkpt lat="42.89996" lon="0.10419">
        <ele>1495.5</ele>
        <time>2021-03-25T16:00:31Z</time>
      </trkpt>
      <trkpt lat="42.89998" lon="0.10419">
        <ele>1495.5</ele>
        <time>2021-03-25T16:00:32Z</time>
      </trkpt>
      <trkpt lat="42.89999" lon="0.10419">
        <ele>1495.4</ele>
        <time>2021-03-25T16:00:33Z</time>
      </trkpt>
      <trkpt lat="42.9" lon="0.10419">
        <ele>1495.3</ele>
        <time>2021-03-25T16:00:35Z</time>
      </trkpt>
      <trkpt lat="42.90002" lon="0.10419">
        <ele>1495.2</ele>
        <time>2021-03-25T16:00:36Z</time>
      </trkpt>
      <trkpt lat="42.90003" lon="0.10419">
        <ele>1495.1</ele>
        <time>2021-03-25T16:00:37Z</time>
      </trkpt>
      <trkpt lat="42.90006" lon="0.10419">
        <ele>1495</ele>
        <time>2021-03-25T16:00:38Z</time>
      </trkpt>
      <trkpt lat="42.90006" lon="0.10418">
        <ele>1495</ele>
        <time>2021-03-25T16:00:39Z</time>
      </trkpt>
      <trkpt lat="42.90007" lon="0.10418">
        <ele>1494.9</ele>
        <time>2021-03-25T16:00:40Z</time>
      </trkpt>
      <trkpt lat="42.9001" lon="0.10417">
        <ele>1494.8</ele>
        <time>2021-03-25T16:00:42Z</time>
      </trkpt>
      <trkpt lat="42.90011" lon="0.10417">
        <ele>1494.7</ele>
        <time>2021-03-25T16:00:43Z</time>
      </trkpt>
      <trkpt lat="42.90012" lon="0.10416">
        <ele>1494.6</ele>
        <time>2021-03-25T16:00:45Z</time>
      </trkpt>
      <trkpt lat="42.90013" lon="0.10415">
        <ele>1494.6</ele>
        <time>2021-03-25T16:00:46Z</time>
      </trkpt>
      <trkpt lat="42.90014" lon="0.10414">
        <ele>1494.5</ele>
        <time>2021-03-25T16:00:47Z</time>
      </trkpt>
      <trkpt lat="42.90016" lon="0.10413">
        <ele>1494.4</ele>
        <time>2021-03-25T16:00:48Z</time>
      </trkpt>
      <trkpt lat="42.90017" lon="0.10411">
        <ele>1494.2</ele>
        <time>2021-03-25T16:00:49Z</time>
      </trkpt>
      <trkpt lat="42.90018" lon="0.1041">
        <ele>1494.1</ele>
        <time>2021-03-25T16:00:50Z</time>
      </trkpt>
      <trkpt lat="42.9002" lon="0.1041">
        <ele>1494</ele>
        <time>2021-03-25T16:00:51Z</time>
      </trkpt>
      <trkpt lat="42.90022" lon="0.10411">
        <ele>1493.9</ele>
        <time>2021-03-25T16:00:53Z</time>
      </trkpt>
      <trkpt lat="42.90023" lon="0.10411">
        <ele>1493.7</ele>
        <time>2021-03-25T16:00:54Z</time>
      </trkpt>
      <trkpt lat="42.90025" lon="0.10411">
        <ele>1493.6</ele>
        <time>2021-03-25T16:00:55Z</time>
      </trkpt>
      <trkpt lat="42.90027" lon="0.10413">
        <ele>1493.4</ele>
        <time>2021-03-25T16:00:56Z</time>
      </trkpt>
      <trkpt lat="42.90028" lon="0.10413">
        <ele>1493.4</ele>
        <time>2021-03-25T16:00:58Z</time>
      </trkpt>
      <trkpt lat="42.90028" lon="0.10413">
        <ele>1493.3</ele>
        <time>2021-03-25T16:00:59Z</time>
      </trkpt>
      <trkpt lat="42.9003" lon="0.10413">
        <ele>1493.2</ele>
        <time>2021-03-25T16:01:00Z</time>
      </trkpt>
      <trkpt lat="42.90031" lon="0.10413">
        <ele>1493</ele>
        <time>2021-03-25T16:01:01Z</time>
      </trkpt>
      <trkpt lat="42.90033" lon="0.10413">
        <ele>1492.9</ele>
        <time>2021-03-25T16:01:03Z</time>
      </trkpt>
      <trkpt lat="42.90034" lon="0.10413">
        <ele>1492.8</ele>
        <time>2021-03-25T16:01:04Z</time>
      </trkpt>
      <trkpt lat="42.90035" lon="0.10413">
        <ele>1492.7</ele>
        <time>2021-03-25T16:01:05Z</time>
      </trkpt>
      <trkpt lat="42.90036" lon="0.10413">
        <ele>1492.5</ele>
        <time>2021-03-25T16:01:06Z</time>
      </trkpt>
      <trkpt lat="42.90037" lon="0.10413">
        <ele>1492.4</ele>
        <time>2021-03-25T16:01:07Z</time>
      </trkpt>
      <trkpt lat="42.90039" lon="0.10413">
        <ele>1492.3</ele>
        <time>2021-03-25T16:01:08Z</time>
      </trkpt>
      <trkpt lat="42.9004" lon="0.10412">
        <ele>1492.1</ele>
        <time>2021-03-25T16:01:09Z</time>
      </trkpt>
      <trkpt lat="42.90042" lon="0.10411">
        <ele>1491.9</ele>
        <time>2021-03-25T16:01:11Z</time>
      </trkpt>
      <trkpt lat="42.90042" lon="0.10411">
        <ele>1491.8</ele>
        <time>2021-03-25T16:01:12Z</time>
      </trkpt>
      <trkpt lat="42.90043" lon="0.10409">
        <ele>1491.7</ele>
        <time>2021-03-25T16:01:13Z</time>
      </trkpt>
      <trkpt lat="42.90043" lon="0.10408">
        <ele>1491.6</ele>
        <time>2021-03-25T16:01:14Z</time>
      </trkpt>
      <trkpt lat="42.90045" lon="0.10407">
        <ele>1491.3</ele>
        <time>2021-03-25T16:01:15Z</time>
      </trkpt>
      <trkpt lat="42.90046" lon="0.10406">
        <ele>1491.2</ele>
        <time>2021-03-25T16:01:16Z</time>
      </trkpt>
      <trkpt lat="42.90046" lon="0.10406">
        <ele>1491.1</ele>
        <time>2021-03-25T16:01:17Z</time>
      </trkpt>
      <trkpt lat="42.90048" lon="0.10405">
        <ele>1490.9</ele>
        <time>2021-03-25T16:01:19Z</time>
      </trkpt>
      <trkpt lat="42.9005" lon="0.10405">
        <ele>1490.7</ele>
        <time>2021-03-25T16:01:20Z</time>
      </trkpt>
      <trkpt lat="42.90052" lon="0.10404">
        <ele>1490.4</ele>
        <time>2021-03-25T16:01:21Z</time>
      </trkpt>
      <trkpt lat="42.90053" lon="0.10404">
        <ele>1490.3</ele>
        <time>2021-03-25T16:01:22Z</time>
      </trkpt>
      <trkpt lat="42.90054" lon="0.10404">
        <ele>1490.2</ele>
        <time>2021-03-25T16:01:23Z</time>
      </trkpt>
      <trkpt lat="42.90055" lon="0.10405">
        <ele>1490</ele>
        <time>2021-03-25T16:01:24Z</time>
      </trkpt>
      <trkpt lat="42.90056" lon="0.10406">
        <ele>1489.8</ele>
        <time>2021-03-25T16:01:25Z</time>
      </trkpt>
      <trkpt lat="42.90058" lon="0.10407">
        <ele>1489.6</ele>
        <time>2021-03-25T16:01:27Z</time>
      </trkpt>
      <trkpt lat="42.90059" lon="0.10408">
        <ele>1489.4</ele>
        <time>2021-03-25T16:01:28Z</time>
      </trkpt>
      <trkpt lat="42.90061" lon="0.10409">
        <ele>1489.2</ele>
        <time>2021-03-25T16:01:29Z</time>
      </trkpt>
      <trkpt lat="42.90062" lon="0.10409">
        <ele>1489.1</ele>
        <time>2021-03-25T16:01:30Z</time>
      </trkpt>
      <trkpt lat="42.90062" lon="0.10409">
        <ele>1489</ele>
        <time>2021-03-25T16:01:31Z</time>
      </trkpt>
      <trkpt lat="42.90064" lon="0.1041">
        <ele>1488.7</ele>
        <time>2021-03-25T16:01:32Z</time>
      </trkpt>
      <trkpt lat="42.90065" lon="0.10411">
        <ele>1488.6</ele>
        <time>2021-03-25T16:01:33Z</time>
      </trkpt>
      <trkpt lat="42.90066" lon="0.10411">
        <ele>1488.5</ele>
        <time>2021-03-25T16:01:34Z</time>
      </trkpt>
      <trkpt lat="42.90067" lon="0.10413">
        <ele>1488.3</ele>
        <time>2021-03-25T16:01:36Z</time>
      </trkpt>
      <trkpt lat="42.90069" lon="0.10412">
        <ele>1488.1</ele>
        <time>2021-03-25T16:01:37Z</time>
      </trkpt>
      <trkpt lat="42.90071" lon="0.10411">
        <ele>1487.8</ele>
        <time>2021-03-25T16:01:38Z</time>
      </trkpt>
      <trkpt lat="42.90071" lon="0.1041">
        <ele>1487.7</ele>
        <time>2021-03-25T16:01:39Z</time>
      </trkpt>
      <trkpt lat="42.90072" lon="0.1041">
        <ele>1487.5</ele>
        <time>2021-03-25T16:01:40Z</time>
      </trkpt>
      <trkpt lat="42.90074" lon="0.10408">
        <ele>1487.3</ele>
        <time>2021-03-25T16:01:41Z</time>
      </trkpt>
      <trkpt lat="42.90075" lon="0.10406">
        <ele>1487.1</ele>
        <time>2021-03-25T16:01:42Z</time>
      </trkpt>
      <trkpt lat="42.90076" lon="0.10405">
        <ele>1486.9</ele>
        <time>2021-03-25T16:01:43Z</time>
      </trkpt>
      <trkpt lat="42.90077" lon="0.10404">
        <ele>1486.7</ele>
        <time>2021-03-25T16:01:44Z</time>
      </trkpt>
      <trkpt lat="42.90079" lon="0.10404">
        <ele>1486.5</ele>
        <time>2021-03-25T16:01:45Z</time>
      </trkpt>
      <trkpt lat="42.90081" lon="0.10403">
        <ele>1486.2</ele>
        <time>2021-03-25T16:01:47Z</time>
      </trkpt>
      <trkpt lat="42.90084" lon="0.10402">
        <ele>1485.9</ele>
        <time>2021-03-25T16:01:48Z</time>
      </trkpt>
      <trkpt lat="42.90085" lon="0.10402">
        <ele>1485.7</ele>
        <time>2021-03-25T16:01:49Z</time>
      </trkpt>
      <trkpt lat="42.90087" lon="0.10402">
        <ele>1485.6</ele>
        <time>2021-03-25T16:01:50Z</time>
      </trkpt>
      <trkpt lat="42.90088" lon="0.10403">
        <ele>1485.3</ele>
        <time>2021-03-25T16:01:51Z</time>
      </trkpt>
      <trkpt lat="42.9009" lon="0.10404">
        <ele>1485.2</ele>
        <time>2021-03-25T16:01:52Z</time>
      </trkpt>
      <trkpt lat="42.90091" lon="0.10405">
        <ele>1485</ele>
        <time>2021-03-25T16:01:54Z</time>
      </trkpt>
      <trkpt lat="42.90092" lon="0.10405">
        <ele>1484.9</ele>
        <time>2021-03-25T16:01:55Z</time>
      </trkpt>
      <trkpt lat="42.90093" lon="0.10406">
        <ele>1484.8</ele>
        <time>2021-03-25T16:01:56Z</time>
      </trkpt>
      <trkpt lat="42.90094" lon="0.10406">
        <ele>1484.7</ele>
        <time>2021-03-25T16:01:57Z</time>
      </trkpt>
      <trkpt lat="42.90096" lon="0.10406">
        <ele>1484.5</ele>
        <time>2021-03-25T16:01:58Z</time>
      </trkpt>
      <trkpt lat="42.90097" lon="0.10407">
        <ele>1484.3</ele>
        <time>2021-03-25T16:02:00Z</time>
      </trkpt>
      <trkpt lat="42.90098" lon="0.10407">
        <ele>1484.2</ele>
        <time>2021-03-25T16:02:01Z</time>
      </trkpt>
      <trkpt lat="42.90099" lon="0.10407">
        <ele>1484.1</ele>
        <time>2021-03-25T16:02:02Z</time>
      </trkpt>
      <trkpt lat="42.901" lon="0.10408">
        <ele>1484</ele>
        <time>2021-03-25T16:02:03Z</time>
      </trkpt>
      <trkpt lat="42.90101" lon="0.10408">
        <ele>1483.9</ele>
        <time>2021-03-25T16:02:04Z</time>
      </trkpt>
      <trkpt lat="42.90103" lon="0.10408">
        <ele>1483.8</ele>
        <time>2021-03-25T16:02:06Z</time>
      </trkpt>
      <trkpt lat="42.90104" lon="0.10407">
        <ele>1483.6</ele>
        <time>2021-03-25T16:02:07Z</time>
      </trkpt>
      <trkpt lat="42.90106" lon="0.10406">
        <ele>1483.4</ele>
        <time>2021-03-25T16:02:08Z</time>
      </trkpt>
      <trkpt lat="42.90106" lon="0.10405">
        <ele>1483.4</ele>
        <time>2021-03-25T16:02:09Z</time>
      </trkpt>
      <trkpt lat="42.90107" lon="0.10405">
        <ele>1483.3</ele>
        <time>2021-03-25T16:02:10Z</time>
      </trkpt>
      <trkpt lat="42.90109" lon="0.10402">
        <ele>1483</ele>
        <time>2021-03-25T16:02:12Z</time>
      </trkpt>
      <trkpt lat="42.90109" lon="0.104">
        <ele>1482.9</ele>
        <time>2021-03-25T16:02:13Z</time>
      </trkpt>
      <trkpt lat="42.9011" lon="0.10397">
        <ele>1482.8</ele>
        <time>2021-03-25T16:02:14Z</time>
      </trkpt>
      <trkpt lat="42.90111" lon="0.10395">
        <ele>1482.6</ele>
        <time>2021-03-25T16:02:15Z</time>
      </trkpt>
      <trkpt lat="42.90112" lon="0.10394">
        <ele>1482.5</ele>
        <time>2021-03-25T16:02:16Z</time>
      </trkpt>
      <trkpt lat="42.90113" lon="0.10393">
        <ele>1482.4</ele>
        <time>2021-03-25T16:02:17Z</time>
      </trkpt>
      <trkpt lat="42.90114" lon="0.10393">
        <ele>1482.3</ele>
        <time>2021-03-25T16:02:19Z</time>
      </trkpt>
      <trkpt lat="42.90116" lon="0.10392">
        <ele>1482.1</ele>
        <time>2021-03-25T16:02:20Z</time>
      </trkpt>
      <trkpt lat="42.90117" lon="0.10392">
        <ele>1482</ele>
        <time>2021-03-25T16:02:21Z</time>
      </trkpt>
      <trkpt lat="42.90119" lon="0.10392">
        <ele>1481.9</ele>
        <time>2021-03-25T16:02:22Z</time>
      </trkpt>
      <trkpt lat="42.90121" lon="0.10391">
        <ele>1481.7</ele>
        <time>2021-03-25T16:02:23Z</time>
      </trkpt>
      <trkpt lat="42.90122" lon="0.10391">
        <ele>1481.6</ele>
        <time>2021-03-25T16:02:24Z</time>
      </trkpt>
      <trkpt lat="42.90123" lon="0.10391">
        <ele>1481.5</ele>
        <time>2021-03-25T16:02:25Z</time>
      </trkpt>
      <trkpt lat="42.90124" lon="0.10391">
        <ele>1481.4</ele>
        <time>2021-03-25T16:02:26Z</time>
      </trkpt>
      <trkpt lat="42.90125" lon="0.10391">
        <ele>1481.3</ele>
        <time>2021-03-25T16:02:27Z</time>
      </trkpt>
      <trkpt lat="42.90126" lon="0.1039">
        <ele>1481.2</ele>
        <time>2021-03-25T16:02:29Z</time>
      </trkpt>
      <trkpt lat="42.90127" lon="0.10389">
        <ele>1481.1</ele>
        <time>2021-03-25T16:02:30Z</time>
      </trkpt>
      <trkpt lat="42.90127" lon="0.10388">
        <ele>1481</ele>
        <time>2021-03-25T16:02:31Z</time>
      </trkpt>
      <trkpt lat="42.90128" lon="0.10387">
        <ele>1480.9</ele>
        <time>2021-03-25T16:02:32Z</time>
      </trkpt>
      <trkpt lat="42.90129" lon="0.10386">
        <ele>1480.8</ele>
        <time>2021-03-25T16:02:34Z</time>
      </trkpt>
      <trkpt lat="42.9013" lon="0.10384">
        <ele>1480.7</ele>
        <time>2021-03-25T16:02:35Z</time>
      </trkpt>
      <trkpt lat="42.90132" lon="0.10383">
        <ele>1480.6</ele>
        <time>2021-03-25T16:02:36Z</time>
      </trkpt>
      <trkpt lat="42.90133" lon="0.10382">
        <ele>1480.4</ele>
        <time>2021-03-25T16:02:37Z</time>
      </trkpt>
      <trkpt lat="42.90135" lon="0.10381">
        <ele>1480.3</ele>
        <time>2021-03-25T16:02:38Z</time>
      </trkpt>
      <trkpt lat="42.90136" lon="0.10381">
        <ele>1480.2</ele>
        <time>2021-03-25T16:02:39Z</time>
      </trkpt>
      <trkpt lat="42.90137" lon="0.10381">
        <ele>1480.1</ele>
        <time>2021-03-25T16:02:40Z</time>
      </trkpt>
      <trkpt lat="42.90138" lon="0.1038">
        <ele>1479.9</ele>
        <time>2021-03-25T16:02:42Z</time>
      </trkpt>
      <trkpt lat="42.90139" lon="0.10379">
        <ele>1479.8</ele>
        <time>2021-03-25T16:02:43Z</time>
      </trkpt>
      <trkpt lat="42.9014" lon="0.10377">
        <ele>1479.7</ele>
        <time>2021-03-25T16:02:44Z</time>
      </trkpt>
      <trkpt lat="42.9014" lon="0.10375">
        <ele>1479.6</ele>
        <time>2021-03-25T16:02:45Z</time>
      </trkpt>
      <trkpt lat="42.90141" lon="0.10374">
        <ele>1479.5</ele>
        <time>2021-03-25T16:02:46Z</time>
      </trkpt>
      <trkpt lat="42.90141" lon="0.10373">
        <ele>1479.4</ele>
        <time>2021-03-25T16:02:47Z</time>
      </trkpt>
      <trkpt lat="42.90142" lon="0.10372">
        <ele>1479.3</ele>
        <time>2021-03-25T16:02:48Z</time>
      </trkpt>
      <trkpt lat="42.90143" lon="0.10372">
        <ele>1479.2</ele>
        <time>2021-03-25T16:02:49Z</time>
      </trkpt>
      <trkpt lat="42.90145" lon="0.10371">
        <ele>1479</ele>
        <time>2021-03-25T16:02:51Z</time>
      </trkpt>
      <trkpt lat="42.90147" lon="0.1037">
        <ele>1478.9</ele>
        <time>2021-03-25T16:02:52Z</time>
      </trkpt>
      <trkpt lat="42.90148" lon="0.10367">
        <ele>1478.6</ele>
        <time>2021-03-25T16:02:53Z</time>
      </trkpt>
      <trkpt lat="42.90149" lon="0.10366">
        <ele>1478.5</ele>
        <time>2021-03-25T16:02:55Z</time>
      </trkpt>
      <trkpt lat="42.9015" lon="0.10365">
        <ele>1478.4</ele>
        <time>2021-03-25T16:02:56Z</time>
      </trkpt>
      <trkpt lat="42.90151" lon="0.10364">
        <ele>1478.3</ele>
        <time>2021-03-25T16:02:57Z</time>
      </trkpt>
      <trkpt lat="42.90151" lon="0.10363">
        <ele>1478.2</ele>
        <time>2021-03-25T16:02:58Z</time>
      </trkpt>
      <trkpt lat="42.90153" lon="0.10361">
        <ele>1478</ele>
        <time>2021-03-25T16:02:59Z</time>
      </trkpt>
      <trkpt lat="42.90153" lon="0.1036">
        <ele>1477.9</ele>
        <time>2021-03-25T16:03:00Z</time>
      </trkpt>
      <trkpt lat="42.90154" lon="0.10359">
        <ele>1477.8</ele>
        <time>2021-03-25T16:03:01Z</time>
      </trkpt>
      <trkpt lat="42.90155" lon="0.10358">
        <ele>1477.7</ele>
        <time>2021-03-25T16:03:02Z</time>
      </trkpt>
      <trkpt lat="42.90156" lon="0.10358">
        <ele>1477.6</ele>
        <time>2021-03-25T16:03:03Z</time>
      </trkpt>
      <trkpt lat="42.90157" lon="0.10357">
        <ele>1477.5</ele>
        <time>2021-03-25T16:03:05Z</time>
      </trkpt>
      <trkpt lat="42.90158" lon="0.10356">
        <ele>1477.3</ele>
        <time>2021-03-25T16:03:06Z</time>
      </trkpt>
      <trkpt lat="42.9016" lon="0.10355">
        <ele>1477.1</ele>
        <time>2021-03-25T16:03:07Z</time>
      </trkpt>
      <trkpt lat="42.90161" lon="0.10354">
        <ele>1476.9</ele>
        <time>2021-03-25T16:03:09Z</time>
      </trkpt>
      <trkpt lat="42.90163" lon="0.10354">
        <ele>1476.8</ele>
        <time>2021-03-25T16:03:10Z</time>
      </trkpt>
      <trkpt lat="42.90164" lon="0.10354">
        <ele>1476.6</ele>
        <time>2021-03-25T16:03:11Z</time>
      </trkpt>
      <trkpt lat="42.90166" lon="0.10354">
        <ele>1476.4</ele>
        <time>2021-03-25T16:03:12Z</time>
      </trkpt>
      <trkpt lat="42.90167" lon="0.10354">
        <ele>1476.3</ele>
        <time>2021-03-25T16:03:13Z</time>
      </trkpt>
      <trkpt lat="42.90168" lon="0.10353">
        <ele>1476.2</ele>
        <time>2021-03-25T16:03:14Z</time>
      </trkpt>
      <trkpt lat="42.90171" lon="0.10352">
        <ele>1475.9</ele>
        <time>2021-03-25T16:03:15Z</time>
      </trkpt>
      <trkpt lat="42.90173" lon="0.10352">
        <ele>1475.7</ele>
        <time>2021-03-25T16:03:17Z</time>
      </trkpt>
      <trkpt lat="42.90174" lon="0.10352">
        <ele>1475.6</ele>
        <time>2021-03-25T16:03:18Z</time>
      </trkpt>
      <trkpt lat="42.90175" lon="0.10351">
        <ele>1475.5</ele>
        <time>2021-03-25T16:03:19Z</time>
      </trkpt>
      <trkpt lat="42.90177" lon="0.10351">
        <ele>1475.3</ele>
        <time>2021-03-25T16:03:20Z</time>
      </trkpt>
      <trkpt lat="42.9018" lon="0.1035">
        <ele>1475</ele>
        <time>2021-03-25T16:03:22Z</time>
      </trkpt>
      <trkpt lat="42.90182" lon="0.10349">
        <ele>1474.9</ele>
        <time>2021-03-25T16:03:23Z</time>
      </trkpt>
      <trkpt lat="42.90183" lon="0.10348">
        <ele>1474.7</ele>
        <time>2021-03-25T16:03:25Z</time>
      </trkpt>
      <trkpt lat="42.90185" lon="0.10347">
        <ele>1474.6</ele>
        <time>2021-03-25T16:03:26Z</time>
      </trkpt>
      <trkpt lat="42.90186" lon="0.10346">
        <ele>1474.4</ele>
        <time>2021-03-25T16:03:27Z</time>
      </trkpt>
      <trkpt lat="42.90187" lon="0.10344">
        <ele>1474.3</ele>
        <time>2021-03-25T16:03:28Z</time>
      </trkpt>
      <trkpt lat="42.90188" lon="0.10343">
        <ele>1474.1</ele>
        <time>2021-03-25T16:03:29Z</time>
      </trkpt>
      <trkpt lat="42.90189" lon="0.10342">
        <ele>1474</ele>
        <time>2021-03-25T16:03:30Z</time>
      </trkpt>
      <trkpt lat="42.90191" lon="0.10341">
        <ele>1473.9</ele>
        <time>2021-03-25T16:03:31Z</time>
      </trkpt>
      <trkpt lat="42.90191" lon="0.1034">
        <ele>1473.8</ele>
        <time>2021-03-25T16:03:32Z</time>
      </trkpt>
      <trkpt lat="42.90193" lon="0.10338">
        <ele>1473.6</ele>
        <time>2021-03-25T16:03:34Z</time>
      </trkpt>
      <trkpt lat="42.90195" lon="0.10337">
        <ele>1473.4</ele>
        <time>2021-03-25T16:03:35Z</time>
      </trkpt>
      <trkpt lat="42.90196" lon="0.10336">
        <ele>1473.3</ele>
        <time>2021-03-25T16:03:36Z</time>
      </trkpt>
      <trkpt lat="42.90198" lon="0.10334">
        <ele>1473.1</ele>
        <time>2021-03-25T16:03:38Z</time>
      </trkpt>
      <trkpt lat="42.90199" lon="0.10334">
        <ele>1473</ele>
        <time>2021-03-25T16:03:39Z</time>
      </trkpt>
      <trkpt lat="42.90199" lon="0.10333">
        <ele>1472.9</ele>
        <time>2021-03-25T16:03:40Z</time>
      </trkpt>
      <trkpt lat="42.902" lon="0.10333">
        <ele>1472.8</ele>
        <time>2021-03-25T16:03:41Z</time>
      </trkpt>
      <trkpt lat="42.90202" lon="0.10332">
        <ele>1472.6</ele>
        <time>2021-03-25T16:03:43Z</time>
      </trkpt>
      <trkpt lat="42.90205" lon="0.10331">
        <ele>1472.4</ele>
        <time>2021-03-25T16:03:44Z</time>
      </trkpt>
      <trkpt lat="42.90206" lon="0.1033">
        <ele>1472.3</ele>
        <time>2021-03-25T16:03:45Z</time>
      </trkpt>
      <trkpt lat="42.90207" lon="0.1033">
        <ele>1472.2</ele>
        <time>2021-03-25T16:03:46Z</time>
      </trkpt>
      <trkpt lat="42.90209" lon="0.10329">
        <ele>1472</ele>
        <time>2021-03-25T16:03:48Z</time>
      </trkpt>
      <trkpt lat="42.9021" lon="0.10329">
        <ele>1471.9</ele>
        <time>2021-03-25T16:03:49Z</time>
      </trkpt>
      <trkpt lat="42.90212" lon="0.10328">
        <ele>1471.8</ele>
        <time>2021-03-25T16:03:50Z</time>
      </trkpt>
      <trkpt lat="42.90213" lon="0.10328">
        <ele>1471.6</ele>
        <time>2021-03-25T16:03:51Z</time>
      </trkpt>
      <trkpt lat="42.90214" lon="0.10328">
        <ele>1471.5</ele>
        <time>2021-03-25T16:03:52Z</time>
      </trkpt>
      <trkpt lat="42.90216" lon="0.10328">
        <ele>1471.4</ele>
        <time>2021-03-25T16:03:53Z</time>
      </trkpt>
      <trkpt lat="42.90218" lon="0.10328">
        <ele>1471.3</ele>
        <time>2021-03-25T16:03:54Z</time>
      </trkpt>
      <trkpt lat="42.90219" lon="0.10328">
        <ele>1471.1</ele>
        <time>2021-03-25T16:03:55Z</time>
      </trkpt>
      <trkpt lat="42.9022" lon="0.10328">
        <ele>1471.1</ele>
        <time>2021-03-25T16:03:56Z</time>
      </trkpt>
      <trkpt lat="42.90222" lon="0.10328">
        <ele>1471</ele>
        <time>2021-03-25T16:03:57Z</time>
      </trkpt>
      <trkpt lat="42.90223" lon="0.10328">
        <ele>1470.9</ele>
        <time>2021-03-25T16:03:59Z</time>
      </trkpt>
      <trkpt lat="42.90225" lon="0.10328">
        <ele>1470.8</ele>
        <time>2021-03-25T16:04:00Z</time>
      </trkpt>
      <trkpt lat="42.90226" lon="0.10328">
        <ele>1470.7</ele>
        <time>2021-03-25T16:04:01Z</time>
      </trkpt>
      <trkpt lat="42.90228" lon="0.10328">
        <ele>1470.6</ele>
        <time>2021-03-25T16:04:02Z</time>
      </trkpt>
      <trkpt lat="42.90229" lon="0.10328">
        <ele>1470.5</ele>
        <time>2021-03-25T16:04:03Z</time>
      </trkpt>
      <trkpt lat="42.90231" lon="0.10327">
        <ele>1470.4</ele>
        <time>2021-03-25T16:04:04Z</time>
      </trkpt>
      <trkpt lat="42.90232" lon="0.10326">
        <ele>1470.3</ele>
        <time>2021-03-25T16:04:05Z</time>
      </trkpt>
      <trkpt lat="42.90234" lon="0.10325">
        <ele>1470</ele>
        <time>2021-03-25T16:04:06Z</time>
      </trkpt>
      <trkpt lat="42.90236" lon="0.10322">
        <ele>1469.9</ele>
        <time>2021-03-25T16:04:08Z</time>
      </trkpt>
      <trkpt lat="42.90238" lon="0.1032">
        <ele>1469.6</ele>
        <time>2021-03-25T16:04:10Z</time>
      </trkpt>
      <trkpt lat="42.90239" lon="0.10319">
        <ele>1469.6</ele>
        <time>2021-03-25T16:04:11Z</time>
      </trkpt>
      <trkpt lat="42.90241" lon="0.10319">
        <ele>1469.6</ele>
        <time>2021-03-25T16:04:12Z</time>
      </trkpt>
      <trkpt lat="42.90242" lon="0.10318">
        <ele>1469.4</ele>
        <time>2021-03-25T16:04:13Z</time>
      </trkpt>
      <trkpt lat="42.90243" lon="0.10317">
        <ele>1469.4</ele>
        <time>2021-03-25T16:04:15Z</time>
      </trkpt>
      <trkpt lat="42.90244" lon="0.10317">
        <ele>1469.1</ele>
        <time>2021-03-25T16:04:16Z</time>
      </trkpt>
      <trkpt lat="42.90245" lon="0.10316">
        <ele>1469.1</ele>
        <time>2021-03-25T16:04:17Z</time>
      </trkpt>
      <trkpt lat="42.90245" lon="0.10315">
        <ele>1469.1</ele>
        <time>2021-03-25T16:04:18Z</time>
      </trkpt>
      <trkpt lat="42.90246" lon="0.10314">
        <ele>1469.1</ele>
        <time>2021-03-25T16:04:19Z</time>
      </trkpt>
      <trkpt lat="42.90247" lon="0.10311">
        <ele>1468.9</ele>
        <time>2021-03-25T16:04:21Z</time>
      </trkpt>
      <trkpt lat="42.90247" lon="0.1031">
        <ele>1468.8</ele>
        <time>2021-03-25T16:04:22Z</time>
      </trkpt>
      <trkpt lat="42.90248" lon="0.10307">
        <ele>1468.6</ele>
        <time>2021-03-25T16:04:24Z</time>
      </trkpt>
      <trkpt lat="42.90249" lon="0.10305">
        <ele>1468.6</ele>
        <time>2021-03-25T16:04:25Z</time>
      </trkpt>
      <trkpt lat="42.9025" lon="0.10305">
        <ele>1468.6</ele>
        <time>2021-03-25T16:04:26Z</time>
      </trkpt>
      <trkpt lat="42.90253" lon="0.10302">
        <ele>1468.4</ele>
        <time>2021-03-25T16:04:27Z</time>
      </trkpt>
      <trkpt lat="42.90254" lon="0.10301">
        <ele>1468.3</ele>
        <time>2021-03-25T16:04:29Z</time>
      </trkpt>
      <trkpt lat="42.90255" lon="0.103">
        <ele>1468.3</ele>
        <time>2021-03-25T16:04:30Z</time>
      </trkpt>
      <trkpt lat="42.90256" lon="0.10299">
        <ele>1468.1</ele>
        <time>2021-03-25T16:04:31Z</time>
      </trkpt>
      <trkpt lat="42.90258" lon="0.10298">
        <ele>1468.1</ele>
        <time>2021-03-25T16:04:32Z</time>
      </trkpt>
      <trkpt lat="42.90259" lon="0.10296">
        <ele>1468.1</ele>
        <time>2021-03-25T16:04:34Z</time>
      </trkpt>
      <trkpt lat="42.9026" lon="0.10295">
        <ele>1468</ele>
        <time>2021-03-25T16:04:35Z</time>
      </trkpt>
      <trkpt lat="42.90261" lon="0.10294">
        <ele>1468</ele>
        <time>2021-03-25T16:04:36Z</time>
      </trkpt>
      <trkpt lat="42.90262" lon="0.10293">
        <ele>1468</ele>
        <time>2021-03-25T16:04:38Z</time>
      </trkpt>
      <trkpt lat="42.90263" lon="0.10292">
        <ele>1468</ele>
        <time>2021-03-25T16:04:39Z</time>
      </trkpt>
      <trkpt lat="42.90264" lon="0.10291">
        <ele>1468</ele>
        <time>2021-03-25T16:04:40Z</time>
      </trkpt>
      <trkpt lat="42.90265" lon="0.1029">
        <ele>1468</ele>
        <time>2021-03-25T16:04:41Z</time>
      </trkpt>
      <trkpt lat="42.90266" lon="0.10289">
        <ele>1468</ele>
        <time>2021-03-25T16:04:42Z</time>
      </trkpt>
      <trkpt lat="42.90267" lon="0.10288">
        <ele>1468</ele>
        <time>2021-03-25T16:04:43Z</time>
      </trkpt>
      <trkpt lat="42.90267" lon="0.10286">
        <ele>1468</ele>
        <time>2021-03-25T16:04:45Z</time>
      </trkpt>
      <trkpt lat="42.90268" lon="0.10285">
        <ele>1468</ele>
        <time>2021-03-25T16:04:46Z</time>
      </trkpt>
      <trkpt lat="42.90268" lon="0.10283">
        <ele>1468</ele>
        <time>2021-03-25T16:04:47Z</time>
      </trkpt>
      <trkpt lat="42.90269" lon="0.10282">
        <ele>1467.9</ele>
        <time>2021-03-25T16:04:48Z</time>
      </trkpt>
      <trkpt lat="42.90269" lon="0.10281">
        <ele>1468</ele>
        <time>2021-03-25T16:04:49Z</time>
      </trkpt>
      <trkpt lat="42.9027" lon="0.1028">
        <ele>1468</ele>
        <time>2021-03-25T16:04:50Z</time>
      </trkpt>
      <trkpt lat="42.90272" lon="0.10278">
        <ele>1467.9</ele>
        <time>2021-03-25T16:04:52Z</time>
      </trkpt>
      <trkpt lat="42.90273" lon="0.10277">
        <ele>1467.9</ele>
        <time>2021-03-25T16:04:53Z</time>
      </trkpt>
      <trkpt lat="42.90274" lon="0.10277">
        <ele>1467.9</ele>
        <time>2021-03-25T16:04:54Z</time>
      </trkpt>
      <trkpt lat="42.90275" lon="0.10276">
        <ele>1467.9</ele>
        <time>2021-03-25T16:04:55Z</time>
      </trkpt>
      <trkpt lat="42.90276" lon="0.10275">
        <ele>1467.9</ele>
        <time>2021-03-25T16:04:56Z</time>
      </trkpt>
      <trkpt lat="42.90277" lon="0.10274">
        <ele>1467.9</ele>
        <time>2021-03-25T16:04:57Z</time>
      </trkpt>
      <trkpt lat="42.90278" lon="0.10273">
        <ele>1467.9</ele>
        <time>2021-03-25T16:04:58Z</time>
      </trkpt>
      <trkpt lat="42.9028" lon="0.10271">
        <ele>1467.9</ele>
        <time>2021-03-25T16:05:00Z</time>
      </trkpt>
      <trkpt lat="42.90281" lon="0.1027">
        <ele>1467.8</ele>
        <time>2021-03-25T16:05:01Z</time>
      </trkpt>
      <trkpt lat="42.90282" lon="0.10268">
        <ele>1467.8</ele>
        <time>2021-03-25T16:05:02Z</time>
      </trkpt>
      <trkpt lat="42.90283" lon="0.10265">
        <ele>1467.7</ele>
        <time>2021-03-25T16:05:04Z</time>
      </trkpt>
      <trkpt lat="42.90283" lon="0.10263">
        <ele>1467.7</ele>
        <time>2021-03-25T16:05:05Z</time>
      </trkpt>
      <trkpt lat="42.90284" lon="0.10262">
        <ele>1467.7</ele>
        <time>2021-03-25T16:05:06Z</time>
      </trkpt>
      <trkpt lat="42.90285" lon="0.1026">
        <ele>1467.6</ele>
        <time>2021-03-25T16:05:07Z</time>
      </trkpt>
      <trkpt lat="42.90284" lon="0.10259">
        <ele>1467.6</ele>
        <time>2021-03-25T16:05:08Z</time>
      </trkpt>
      <trkpt lat="42.90285" lon="0.10255">
        <ele>1467.6</ele>
        <time>2021-03-25T16:05:10Z</time>
      </trkpt>
      <trkpt lat="42.90287" lon="0.10252">
        <ele>1467.4</ele>
        <time>2021-03-25T16:05:11Z</time>
      </trkpt>
      <trkpt lat="42.90287" lon="0.10251">
        <ele>1467.4</ele>
        <time>2021-03-25T16:05:12Z</time>
      </trkpt>
      <trkpt lat="42.90288" lon="0.10249">
        <ele>1467.4</ele>
        <time>2021-03-25T16:05:13Z</time>
      </trkpt>
      <trkpt lat="42.90288" lon="0.10246">
        <ele>1467.3</ele>
        <time>2021-03-25T16:05:14Z</time>
      </trkpt>
      <trkpt lat="42.90287" lon="0.10241">
        <ele>1467.2</ele>
        <time>2021-03-25T16:05:16Z</time>
      </trkpt>
      <trkpt lat="42.90286" lon="0.10239">
        <ele>1467.1</ele>
        <time>2021-03-25T16:05:17Z</time>
      </trkpt>
      <trkpt lat="42.90286" lon="0.10237">
        <ele>1467.1</ele>
        <time>2021-03-25T16:05:18Z</time>
      </trkpt>
      <trkpt lat="42.90286" lon="0.10235">
        <ele>1467</ele>
        <time>2021-03-25T16:05:20Z</time>
      </trkpt>
      <trkpt lat="42.90287" lon="0.10233">
        <ele>1467</ele>
        <time>2021-03-25T16:05:21Z</time>
      </trkpt>
      <trkpt lat="42.90287" lon="0.10231">
        <ele>1466.9</ele>
        <time>2021-03-25T16:05:22Z</time>
      </trkpt>
      <trkpt lat="42.90287" lon="0.10229">
        <ele>1466.9</ele>
        <time>2021-03-25T16:05:23Z</time>
      </trkpt>
      <trkpt lat="42.90287" lon="0.10227">
        <ele>1466.7</ele>
        <time>2021-03-25T16:05:24Z</time>
      </trkpt>
      <trkpt lat="42.90287" lon="0.10225">
        <ele>1466.7</ele>
        <time>2021-03-25T16:05:25Z</time>
      </trkpt>
      <trkpt lat="42.90287" lon="0.10223">
        <ele>1466.7</ele>
        <time>2021-03-25T16:05:26Z</time>
      </trkpt>
      <trkpt lat="42.90287" lon="0.10221">
        <ele>1466.6</ele>
        <time>2021-03-25T16:05:27Z</time>
      </trkpt>
      <trkpt lat="42.90288" lon="0.10218">
        <ele>1466.5</ele>
        <time>2021-03-25T16:05:29Z</time>
      </trkpt>
      <trkpt lat="42.90288" lon="0.10216">
        <ele>1466.4</ele>
        <time>2021-03-25T16:05:30Z</time>
      </trkpt>
      <trkpt lat="42.90289" lon="0.10215">
        <ele>1466.4</ele>
        <time>2021-03-25T16:05:31Z</time>
      </trkpt>
      <trkpt lat="42.9029" lon="0.10213">
        <ele>1466.2</ele>
        <time>2021-03-25T16:05:32Z</time>
      </trkpt>
      <trkpt lat="42.9029" lon="0.10211">
        <ele>1466.2</ele>
        <time>2021-03-25T16:05:33Z</time>
      </trkpt>
      <trkpt lat="42.90291" lon="0.10209">
        <ele>1466.1</ele>
        <time>2021-03-25T16:05:34Z</time>
      </trkpt>
      <trkpt lat="42.90291" lon="0.10207">
        <ele>1466.1</ele>
        <time>2021-03-25T16:05:35Z</time>
      </trkpt>
      <trkpt lat="42.90291" lon="0.10205">
        <ele>1465.9</ele>
        <time>2021-03-25T16:05:37Z</time>
      </trkpt>
      <trkpt lat="42.90292" lon="0.10203">
        <ele>1465.9</ele>
        <time>2021-03-25T16:05:38Z</time>
      </trkpt>
      <trkpt lat="42.90292" lon="0.10202">
        <ele>1465.9</ele>
        <time>2021-03-25T16:05:39Z</time>
      </trkpt>
      <trkpt lat="42.90292" lon="0.102">
        <ele>1465.9</ele>
        <time>2021-03-25T16:05:41Z</time>
      </trkpt>
      <trkpt lat="42.90293" lon="0.10199">
        <ele>1465.9</ele>
        <time>2021-03-25T16:05:42Z</time>
      </trkpt>
      <trkpt lat="42.90293" lon="0.10197">
        <ele>1465.9</ele>
        <time>2021-03-25T16:05:43Z</time>
      </trkpt>
      <trkpt lat="42.90294" lon="0.10196">
        <ele>1465.8</ele>
        <time>2021-03-25T16:05:44Z</time>
      </trkpt>
      <trkpt lat="42.90295" lon="0.10193">
        <ele>1465.7</ele>
        <time>2021-03-25T16:05:45Z</time>
      </trkpt>
      <trkpt lat="42.90295" lon="0.10192">
        <ele>1465.6</ele>
        <time>2021-03-25T16:05:46Z</time>
      </trkpt>
      <trkpt lat="42.90296" lon="0.10191">
        <ele>1465.6</ele>
        <time>2021-03-25T16:05:47Z</time>
      </trkpt>
      <trkpt lat="42.90297" lon="0.10188">
        <ele>1465.6</ele>
        <time>2021-03-25T16:05:49Z</time>
      </trkpt>
      <trkpt lat="42.90297" lon="0.10187">
        <ele>1465.6</ele>
        <time>2021-03-25T16:05:50Z</time>
      </trkpt>
      <trkpt lat="42.90298" lon="0.10186">
        <ele>1465.4</ele>
        <time>2021-03-25T16:05:51Z</time>
      </trkpt>
      <trkpt lat="42.903" lon="0.10185">
        <ele>1465.4</ele>
        <time>2021-03-25T16:05:52Z</time>
      </trkpt>
      <trkpt lat="42.90301" lon="0.10183">
        <ele>1465.3</ele>
        <time>2021-03-25T16:05:54Z</time>
      </trkpt>
      <trkpt lat="42.90301" lon="0.10181">
        <ele>1465.3</ele>
        <time>2021-03-25T16:05:55Z</time>
      </trkpt>
      <trkpt lat="42.90302" lon="0.1018">
        <ele>1465.3</ele>
        <time>2021-03-25T16:05:56Z</time>
      </trkpt>
      <trkpt lat="42.90302" lon="0.10179">
        <ele>1465.2</ele>
        <time>2021-03-25T16:05:57Z</time>
      </trkpt>
      <trkpt lat="42.90302" lon="0.10177">
        <ele>1465.2</ele>
        <time>2021-03-25T16:05:58Z</time>
      </trkpt>
      <trkpt lat="42.90303" lon="0.10175">
        <ele>1465.1</ele>
        <time>2021-03-25T16:05:59Z</time>
      </trkpt>
      <trkpt lat="42.90303" lon="0.10174">
        <ele>1465.1</ele>
        <time>2021-03-25T16:06:00Z</time>
      </trkpt>
      <trkpt lat="42.90304" lon="0.10172">
        <ele>1465.1</ele>
        <time>2021-03-25T16:06:01Z</time>
      </trkpt>
      <trkpt lat="42.90305" lon="0.10169">
        <ele>1464.8</ele>
        <time>2021-03-25T16:06:03Z</time>
      </trkpt>
      <trkpt lat="42.90306" lon="0.10168">
        <ele>1464.8</ele>
        <time>2021-03-25T16:06:05Z</time>
      </trkpt>
      <trkpt lat="42.90307" lon="0.10167">
        <ele>1464.4</ele>
        <time>2021-03-25T16:06:06Z</time>
      </trkpt>
      <trkpt lat="42.90308" lon="0.10165">
        <ele>1464.4</ele>
        <time>2021-03-25T16:06:07Z</time>
      </trkpt>
      <trkpt lat="42.90308" lon="0.10165">
        <ele>1464.4</ele>
        <time>2021-03-25T16:06:08Z</time>
      </trkpt>
      <trkpt lat="42.90309" lon="0.10165">
        <ele>1464.4</ele>
        <time>2021-03-25T16:06:09Z</time>
      </trkpt>
      <trkpt lat="42.9031" lon="0.10164">
        <ele>1464.4</ele>
        <time>2021-03-25T16:06:10Z</time>
      </trkpt>
      <trkpt lat="42.90312" lon="0.10163">
        <ele>1464.1</ele>
        <time>2021-03-25T16:06:12Z</time>
      </trkpt>
      <trkpt lat="42.90313" lon="0.10163">
        <ele>1463.7</ele>
        <time>2021-03-25T16:06:13Z</time>
      </trkpt>
      <trkpt lat="42.90315" lon="0.10164">
        <ele>1463.7</ele>
        <time>2021-03-25T16:06:14Z</time>
      </trkpt>
      <trkpt lat="42.90316" lon="0.10165">
        <ele>1463.2</ele>
        <time>2021-03-25T16:06:15Z</time>
      </trkpt>
      <trkpt lat="42.90318" lon="0.10165">
        <ele>1463.2</ele>
        <time>2021-03-25T16:06:16Z</time>
      </trkpt>
      <trkpt lat="42.9032" lon="0.10166">
        <ele>1462.6</ele>
        <time>2021-03-25T16:06:18Z</time>
      </trkpt>
      <trkpt lat="42.90322" lon="0.10166">
        <ele>1462.6</ele>
        <time>2021-03-25T16:06:19Z</time>
      </trkpt>
      <trkpt lat="42.90324" lon="0.10165">
        <ele>1462</ele>
        <time>2021-03-25T16:06:20Z</time>
      </trkpt>
      <trkpt lat="42.90325" lon="0.10164">
        <ele>1462</ele>
        <time>2021-03-25T16:06:21Z</time>
      </trkpt>
      <trkpt lat="42.90327" lon="0.10163">
        <ele>1461.2</ele>
        <time>2021-03-25T16:06:22Z</time>
      </trkpt>
      <trkpt lat="42.9033" lon="0.10162">
        <ele>1460.4</ele>
        <time>2021-03-25T16:06:23Z</time>
      </trkpt>
      <trkpt lat="42.90331" lon="0.10162">
        <ele>1460.4</ele>
        <time>2021-03-25T16:06:24Z</time>
      </trkpt>
      <trkpt lat="42.90332" lon="0.10162">
        <ele>1459.6</ele>
        <time>2021-03-25T16:06:26Z</time>
      </trkpt>
      <trkpt lat="42.90334" lon="0.10161">
        <ele>1459.6</ele>
        <time>2021-03-25T16:06:27Z</time>
      </trkpt>
      <trkpt lat="42.90335" lon="0.10161">
        <ele>1458.8</ele>
        <time>2021-03-25T16:06:28Z</time>
      </trkpt>
      <trkpt lat="42.90336" lon="0.10161">
        <ele>1458.8</ele>
        <time>2021-03-25T16:06:29Z</time>
      </trkpt>
      <trkpt lat="42.90336" lon="0.1016">
        <ele>1458.8</ele>
        <time>2021-03-25T16:06:30Z</time>
      </trkpt>
      <trkpt lat="42.90337" lon="0.1016">
        <ele>1458.8</ele>
        <time>2021-03-25T16:06:31Z</time>
      </trkpt>
      <trkpt lat="42.90338" lon="0.1016">
        <ele>1458.8</ele>
        <time>2021-03-25T16:06:33Z</time>
      </trkpt>
      <trkpt lat="42.9034" lon="0.1016">
        <ele>1458.1</ele>
        <time>2021-03-25T16:06:34Z</time>
      </trkpt>
      <trkpt lat="42.90342" lon="0.10161">
        <ele>1457.4</ele>
        <time>2021-03-25T16:06:35Z</time>
      </trkpt>
      <trkpt lat="42.90343" lon="0.10161">
        <ele>1457.4</ele>
        <time>2021-03-25T16:06:36Z</time>
      </trkpt>
      <trkpt lat="42.90345" lon="0.10162">
        <ele>1456.8</ele>
        <time>2021-03-25T16:06:38Z</time>
      </trkpt>
      <trkpt lat="42.90345" lon="0.10164">
        <ele>1456.8</ele>
        <time>2021-03-25T16:06:40Z</time>
      </trkpt>
      <trkpt lat="42.90343" lon="0.10165">
        <ele>1457.4</ele>
        <time>2021-03-25T16:06:42Z</time>
      </trkpt>
      <trkpt lat="42.90343" lon="0.10165">
        <ele>1457.4</ele>
        <time>2021-03-25T16:06:43Z</time>
      </trkpt>
      <trkpt lat="42.90343" lon="0.10165">
        <ele>1457.4</ele>
        <time>2021-03-25T16:06:44Z</time>
      </trkpt>
      <trkpt lat="42.90343" lon="0.10165">
        <ele>1457.4</ele>
        <time>2021-03-25T16:06:46Z</time>
      </trkpt>
      <trkpt lat="42.90343" lon="0.10165">
        <ele>1457.4</ele>
        <time>2021-03-25T16:06:47Z</time>
      </trkpt>
      <trkpt lat="42.90343" lon="0.10165">
        <ele>1457.4</ele>
        <time>2021-03-25T16:06:48Z</time>
      </trkpt>
      <trkpt lat="42.90343" lon="0.10165">
        <ele>1457.4</ele>
        <time>2021-03-25T16:06:50Z</time>
      </trkpt>
      <trkpt lat="42.90342" lon="0.10164">
        <ele>1457.4</ele>
        <time>2021-03-25T16:06:51Z</time>
      </trkpt>
      <trkpt lat="42.90342" lon="0.10164">
        <ele>1457.4</ele>
        <time>2021-03-25T16:06:52Z</time>
      </trkpt>
      <trkpt lat="42.90342" lon="0.10163">
        <ele>1457.4</ele>
        <time>2021-03-25T16:06:54Z</time>
      </trkpt>
      <trkpt lat="42.90342" lon="0.10163">
        <ele>1457.4</ele>
        <time>2021-03-25T16:06:55Z</time>
      </trkpt>
      <trkpt lat="42.90341" lon="0.10163">
        <ele>1458.1</ele>
        <time>2021-03-25T16:06:57Z</time>
      </trkpt>
      <trkpt lat="42.90341" lon="0.10163">
        <ele>1458.1</ele>
        <time>2021-03-25T16:06:58Z</time>
      </trkpt>
      <trkpt lat="42.90341" lon="0.10163">
        <ele>1458.1</ele>
        <time>2021-03-25T16:07:00Z</time>
      </trkpt>
      <trkpt lat="42.90341" lon="0.10162">
        <ele>1458.1</ele>
        <time>2021-03-25T16:07:02Z</time>
      </trkpt>
      <trkpt lat="42.9034" lon="0.10162">
        <ele>1458.1</ele>
        <time>2021-03-25T16:07:04Z</time>
      </trkpt>
      <trkpt lat="42.9034" lon="0.10162">
        <ele>1458.1</ele>
        <time>2021-03-25T16:07:05Z</time>
      </trkpt>
      <trkpt lat="42.9034" lon="0.10162">
        <ele>1458.1</ele>
        <time>2021-03-25T16:07:07Z</time>
      </trkpt>
      <trkpt lat="42.9034" lon="0.10162">
        <ele>1458.1</ele>
        <time>2021-03-25T16:07:09Z</time>
      </trkpt>
      <trkpt lat="42.9034" lon="0.10162">
        <ele>1458.1</ele>
        <time>2021-03-25T16:07:10Z</time>
      </trkpt>
      <trkpt lat="42.9034" lon="0.10162">
        <ele>1458.1</ele>
        <time>2021-03-25T16:07:11Z</time>
      </trkpt>
      <trkpt lat="42.9034" lon="0.10162">
        <ele>1458.1</ele>
        <time>2021-03-25T16:07:13Z</time>
      </trkpt>
      <trkpt lat="42.90339" lon="0.10161">
        <ele>1458.1</ele>
        <time>2021-03-25T16:07:14Z</time>
      </trkpt>
      <trkpt lat="42.90339" lon="0.1016">
        <ele>1458.1</ele>
        <time>2021-03-25T16:07:16Z</time>
      </trkpt>
      <trkpt lat="42.90337" lon="0.10159">
        <ele>1458.8</ele>
        <time>2021-03-25T16:07:17Z</time>
      </trkpt>
      <trkpt lat="42.90337" lon="0.10158">
        <ele>1458.8</ele>
        <time>2021-03-25T16:07:19Z</time>
      </trkpt>
      <trkpt lat="42.90336" lon="0.10158">
        <ele>1458.9</ele>
        <time>2021-03-25T16:07:20Z</time>
      </trkpt>
      <trkpt lat="42.90336" lon="0.10158">
        <ele>1458.9</ele>
        <time>2021-03-25T16:07:22Z</time>
      </trkpt>
      <trkpt lat="42.90336" lon="0.10158">
        <ele>1458.9</ele>
        <time>2021-03-25T16:07:23Z</time>
      </trkpt>
      <trkpt lat="42.90336" lon="0.10157">
        <ele>1458.9</ele>
        <time>2021-03-25T16:07:24Z</time>
      </trkpt>
      <trkpt lat="42.90336" lon="0.10157">
        <ele>1458.9</ele>
        <time>2021-03-25T16:07:26Z</time>
      </trkpt>
      <trkpt lat="42.90337" lon="0.10157">
        <ele>1458.9</ele>
        <time>2021-03-25T16:07:27Z</time>
      </trkpt>
      <trkpt lat="42.90337" lon="0.10157">
        <ele>1458.9</ele>
        <time>2021-03-25T16:07:29Z</time>
      </trkpt>
      <trkpt lat="42.90337" lon="0.10158">
        <ele>1458.9</ele>
        <time>2021-03-25T16:07:30Z</time>
      </trkpt>
      <trkpt lat="42.90337" lon="0.10158">
        <ele>1458.9</ele>
        <time>2021-03-25T16:07:31Z</time>
      </trkpt>
      <trkpt lat="42.90338" lon="0.10159">
        <ele>1458.8</ele>
        <time>2021-03-25T16:07:33Z</time>
      </trkpt>
      <trkpt lat="42.90337" lon="0.10159">
        <ele>1458.8</ele>
        <time>2021-03-25T16:07:34Z</time>
      </trkpt>
      <trkpt lat="42.90337" lon="0.10158">
        <ele>1458.8</ele>
        <time>2021-03-25T16:07:36Z</time>
      </trkpt>
      <trkpt lat="42.90337" lon="0.10158">
        <ele>1458.8</ele>
        <time>2021-03-25T16:07:38Z</time>
      </trkpt>
      <trkpt lat="42.90337" lon="0.10158">
        <ele>1458.8</ele>
        <time>2021-03-25T16:07:39Z</time>
      </trkpt>
      <trkpt lat="42.90337" lon="0.10158">
        <ele>1458.8</ele>
        <time>2021-03-25T16:07:41Z</time>
      </trkpt>
      <trkpt lat="42.90337" lon="0.10158">
        <ele>1458.8</ele>
        <time>2021-03-25T16:07:42Z</time>
      </trkpt>
      <trkpt lat="42.90337" lon="0.10158">
        <ele>1458.8</ele>
        <time>2021-03-25T16:07:43Z</time>
      </trkpt>
      <trkpt lat="42.90337" lon="0.10158">
        <ele>1458.8</ele>
        <time>2021-03-25T16:07:44Z</time>
      </trkpt>
      <trkpt lat="42.90337" lon="0.10158">
        <ele>1458.8</ele>
        <time>2021-03-25T16:07:46Z</time>
      </trkpt>
      <trkpt lat="42.90337" lon="0.10158">
        <ele>1458.8</ele>
        <time>2021-03-25T16:07:47Z</time>
      </trkpt>
      <trkpt lat="42.90337" lon="0.10159">
        <ele>1458.8</ele>
        <time>2021-03-25T16:07:49Z</time>
      </trkpt>
      <trkpt lat="42.90337" lon="0.10159">
        <ele>1458.8</ele>
        <time>2021-03-25T16:07:50Z</time>
      </trkpt>
      <trkpt lat="42.90337" lon="0.1016">
        <ele>1458.8</ele>
        <time>2021-03-25T16:07:51Z</time>
      </trkpt>
      <trkpt lat="42.90338" lon="0.1016">
        <ele>1458.8</ele>
        <time>2021-03-25T16:07:53Z</time>
      </trkpt>
      <trkpt lat="42.90338" lon="0.10161">
        <ele>1458.8</ele>
        <time>2021-03-25T16:07:55Z</time>
      </trkpt>
      <trkpt lat="42.90339" lon="0.10161">
        <ele>1458.1</ele>
        <time>2021-03-25T16:07:57Z</time>
      </trkpt>
      <trkpt lat="42.90339" lon="0.10161">
        <ele>1458.1</ele>
        <time>2021-03-25T16:07:58Z</time>
      </trkpt>
      <trkpt lat="42.9034" lon="0.1016">
        <ele>1458.1</ele>
        <time>2021-03-25T16:08:00Z</time>
      </trkpt>
      <trkpt lat="42.9034" lon="0.10159">
        <ele>1458.1</ele>
        <time>2021-03-25T16:08:01Z</time>
      </trkpt>
      <trkpt lat="42.90341" lon="0.10159">
        <ele>1458.1</ele>
        <time>2021-03-25T16:08:02Z</time>
      </trkpt>
      <trkpt lat="42.90341" lon="0.10159">
        <ele>1458.1</ele>
        <time>2021-03-25T16:08:04Z</time>
      </trkpt>
      <trkpt lat="42.90341" lon="0.10159">
        <ele>1458.1</ele>
        <time>2021-03-25T16:08:05Z</time>
      </trkpt>
      <trkpt lat="42.90341" lon="0.10159">
        <ele>1458.1</ele>
        <time>2021-03-25T16:08:06Z</time>
      </trkpt>
      <trkpt lat="42.90341" lon="0.10159">
        <ele>1458.1</ele>
        <time>2021-03-25T16:08:07Z</time>
      </trkpt>
      <trkpt lat="42.90341" lon="0.10159">
        <ele>1458.1</ele>
        <time>2021-03-25T16:08:08Z</time>
      </trkpt>
      <trkpt lat="42.90341" lon="0.10159">
        <ele>1458.1</ele>
        <time>2021-03-25T16:08:10Z</time>
      </trkpt>
      <trkpt lat="42.90341" lon="0.10159">
        <ele>1458.1</ele>
        <time>2021-03-25T16:08:12Z</time>
      </trkpt>
      <trkpt lat="42.90341" lon="0.10159">
        <ele>1458.1</ele>
        <time>2021-03-25T16:08:13Z</time>
      </trkpt>
      <trkpt lat="42.90341" lon="0.10159">
        <ele>1458.1</ele>
        <time>2021-03-25T16:08:15Z</time>
      </trkpt>
      <trkpt lat="42.90341" lon="0.10159">
        <ele>1458.1</ele>
        <time>2021-03-25T16:08:17Z</time>
      </trkpt>
      <trkpt lat="42.9034" lon="0.10159">
        <ele>1458.1</ele>
        <time>2021-03-25T16:08:18Z</time>
      </trkpt>
      <trkpt lat="42.9034" lon="0.10159">
        <ele>1458.1</ele>
        <time>2021-03-25T16:08:20Z</time>
      </trkpt>
      <trkpt lat="42.90341" lon="0.10158">
        <ele>1458.1</ele>
        <time>2021-03-25T16:08:22Z</time>
      </trkpt>
      <trkpt lat="42.90341" lon="0.10157">
        <ele>1458.2</ele>
        <time>2021-03-25T16:08:23Z</time>
      </trkpt>
      <trkpt lat="42.9034" lon="0.10156">
        <ele>1458.2</ele>
        <time>2021-03-25T16:08:25Z</time>
      </trkpt>
      <trkpt lat="42.9034" lon="0.10156">
        <ele>1458.2</ele>
        <time>2021-03-25T16:08:27Z</time>
      </trkpt>
      <trkpt lat="42.9034" lon="0.10157">
        <ele>1458.2</ele>
        <time>2021-03-25T16:08:29Z</time>
      </trkpt>
      <trkpt lat="42.90339" lon="0.10157">
        <ele>1458.2</ele>
        <time>2021-03-25T16:08:31Z</time>
      </trkpt>
      <trkpt lat="42.90339" lon="0.10157">
        <ele>1458.2</ele>
        <time>2021-03-25T16:08:32Z</time>
      </trkpt>
      <trkpt lat="42.90339" lon="0.10157">
        <ele>1458.2</ele>
        <time>2021-03-25T16:08:33Z</time>
      </trkpt>
      <trkpt lat="42.9034" lon="0.10159">
        <ele>1458.1</ele>
        <time>2021-03-25T16:08:34Z</time>
      </trkpt>
      <trkpt lat="42.90341" lon="0.1016">
        <ele>1458.1</ele>
        <time>2021-03-25T16:08:36Z</time>
      </trkpt>
      <trkpt lat="42.90341" lon="0.1016">
        <ele>1458.1</ele>
        <time>2021-03-25T16:08:37Z</time>
      </trkpt>
      <trkpt lat="42.9034" lon="0.10159">
        <ele>1458.1</ele>
        <time>2021-03-25T16:08:39Z</time>
      </trkpt>
      <trkpt lat="42.9034" lon="0.10157">
        <ele>1458.2</ele>
        <time>2021-03-25T16:08:40Z</time>
      </trkpt>
      <trkpt lat="42.9034" lon="0.10157">
        <ele>1458.2</ele>
        <time>2021-03-25T16:08:41Z</time>
      </trkpt>
      <trkpt lat="42.9034" lon="0.1016">
        <ele>1458.1</ele>
        <time>2021-03-25T16:08:43Z</time>
      </trkpt>
      <trkpt lat="42.9034" lon="0.1016">
        <ele>1458.1</ele>
        <time>2021-03-25T16:08:44Z</time>
      </trkpt>
      <trkpt lat="42.9034" lon="0.1016">
        <ele>1458.1</ele>
        <time>2021-03-25T16:08:45Z</time>
      </trkpt>
      <trkpt lat="42.9034" lon="0.1016">
        <ele>1458.1</ele>
        <time>2021-03-25T16:08:46Z</time>
      </trkpt>
      <trkpt lat="42.9034" lon="0.1016">
        <ele>1458.1</ele>
        <time>2021-03-25T16:08:47Z</time>
      </trkpt>
      <trkpt lat="42.9034" lon="0.1016">
        <ele>1458.1</ele>
        <time>2021-03-25T16:08:49Z</time>
      </trkpt>
      <trkpt lat="42.9034" lon="0.1016">
        <ele>1458.1</ele>
        <time>2021-03-25T16:08:50Z</time>
      </trkpt>
      <trkpt lat="42.9034" lon="0.1016">
        <ele>1458.1</ele>
        <time>2021-03-25T16:08:52Z</time>
      </trkpt>
      <trkpt lat="42.9034" lon="0.1016">
        <ele>1458.1</ele>
        <time>2021-03-25T16:08:53Z</time>
      </trkpt>
      <trkpt lat="42.9034" lon="0.1016">
        <ele>1458.1</ele>
        <time>2021-03-25T16:08:54Z</time>
      </trkpt>
      <trkpt lat="42.9034" lon="0.1016">
        <ele>1458.1</ele>
        <time>2021-03-25T16:08:55Z</time>
      </trkpt>
      <trkpt lat="42.90341" lon="0.1016">
        <ele>1458.1</ele>
        <time>2021-03-25T16:08:57Z</time>
      </trkpt>
      <trkpt lat="42.90341" lon="0.1016">
        <ele>1458.1</ele>
        <time>2021-03-25T16:08:58Z</time>
      </trkpt>
      <trkpt lat="42.90341" lon="0.1016">
        <ele>1458.1</ele>
        <time>2021-03-25T16:08:59Z</time>
      </trkpt>
      <trkpt lat="42.90341" lon="0.1016">
        <ele>1458.1</ele>
        <time>2021-03-25T16:09:01Z</time>
      </trkpt>
      <trkpt lat="42.90341" lon="0.1016">
        <ele>1458.1</ele>
        <time>2021-03-25T16:09:03Z</time>
      </trkpt>
      <trkpt lat="42.9034" lon="0.10159">
        <ele>1458.1</ele>
        <time>2021-03-25T16:09:04Z</time>
      </trkpt>
    </trkseg>
  </trk>
</gpx>